<?xml version='1.0' encoding='UTF-8'?><gpx version="1.1" creator="JPX - https://github.com/jenetics/jpx" xmlns="http://www.topografix.com/GPX/1/1"><trk><trkseg><trkpt lat="37.801614530702594" lon="15.196941637297012"><ele>131.0</ele><time>2026-04-12T07:05:59Z</time></trkpt><trkpt lat="37.80166247838407" lon="15.196996189355431"><ele>131.0</ele><time>2026-04-12T07:06:00Z</time></trkpt><trkpt lat="37.80176445430086" lon="15.197096460372906"><ele>131.0</ele><time>2026-04-12T07:06:02Z</time></trkpt><trkpt lat="37.80183933642127" lon="15.197144184141463"><ele>131.0</ele><time>2026-04-12T07:06:03Z</time></trkpt><trkpt lat="37.80190239564854" lon="15.197212656706792"><ele>131.0</ele><time>2026-04-12T07:06:04Z</time></trkpt><trkpt lat="37.80196780478251" lon="15.197283301157224"><ele>131.0</ele><time>2026-04-12T07:06:05Z</time></trkpt><trkpt lat="37.802023831949235" lon="15.197343812713797"><ele>129.75</ele><time>2026-04-12T07:06:06Z</time></trkpt><trkpt lat="37.802098388551876" lon="15.19742193825919"><ele>128.5</ele><time>2026-04-12T07:06:07Z</time></trkpt><trkpt lat="37.80218363997855" lon="15.197505726647936"><ele>127.25</ele><time>2026-04-12T07:06:08Z</time></trkpt><trkpt lat="37.80228903365232" lon="15.197597199635238"><ele>126.0</ele><time>2026-04-12T07:06:09Z</time></trkpt><trkpt lat="37.80240853685588" lon="15.197676760001869"><ele>126.0</ele><time>2026-04-12T07:06:10Z</time></trkpt><trkpt lat="37.80253546946537" lon="15.197727897315792"><ele>126.0</ele><time>2026-04-12T07:06:11Z</time></trkpt><trkpt lat="37.80265948553742" lon="15.1977596334114"><ele>126.0</ele><time>2026-04-12T07:06:12Z</time></trkpt><trkpt lat="37.80278304137752" lon="15.197761302971935"><ele>126.0</ele><time>2026-04-12T07:06:13Z</time></trkpt><trkpt lat="37.8029089109454" lon="15.197750499835143"><ele>125.8</ele><time>2026-04-12T07:06:14Z</time></trkpt><trkpt lat="37.80303029271505" lon="15.197732057190487"><ele>125.6</ele><time>2026-04-12T07:06:15Z</time></trkpt><trkpt lat="37.803133385874126" lon="15.197718084858675"><ele>125.4</ele><time>2026-04-12T07:06:16Z</time></trkpt><trkpt lat="37.8032296813495" lon="15.197715702973166"><ele>125.2</ele><time>2026-04-12T07:06:17Z</time></trkpt><trkpt lat="37.80331119397089" lon="15.197751365350738"><ele>125.0</ele><time>2026-04-12T07:06:18Z</time></trkpt><trkpt lat="37.8033911554598" lon="15.197743353245746"><ele>124.99999999999999</ele><time>2026-04-12T07:06:19Z</time></trkpt><trkpt lat="37.80345046250057" lon="15.19783124317246"><ele>125.0</ele><time>2026-04-12T07:06:20Z</time></trkpt><trkpt lat="37.803515346923405" lon="15.197871966913928"><ele>125.0</ele><time>2026-04-12T07:06:21Z</time></trkpt><trkpt lat="37.803593405721905" lon="15.197852911291692"><ele>125.0</ele><time>2026-04-12T07:06:22Z</time></trkpt><trkpt lat="37.80365306535287" lon="15.197789065204764"><ele>124.99999999999999</ele><time>2026-04-12T07:06:23Z</time></trkpt><trkpt lat="37.80368861878051" lon="15.197708874646436"><ele>125.0</ele><time>2026-04-12T07:06:24Z</time></trkpt><trkpt lat="37.80370875032761" lon="15.197601526208057"><ele>125.8</ele><time>2026-04-12T07:06:25Z</time></trkpt><trkpt lat="37.803700778662055" lon="15.19748592048316"><ele>126.6</ele><time>2026-04-12T07:06:26Z</time></trkpt><trkpt lat="37.8036357243525" lon="15.19737840594978"><ele>127.4</ele><time>2026-04-12T07:06:27Z</time></trkpt><trkpt lat="37.80353853948083" lon="15.19729279864681"><ele>128.2</ele><time>2026-04-12T07:06:28Z</time></trkpt><trkpt lat="37.803451310078245" lon="15.197195825048615"><ele>129.0</ele><time>2026-04-12T07:06:29Z</time></trkpt><trkpt lat="37.803398717321016" lon="15.197061592984106"><ele>129.0</ele><time>2026-04-12T07:06:30Z</time></trkpt><trkpt lat="37.803390007277414" lon="15.196898033914158"><ele>129.0</ele><time>2026-04-12T07:06:31Z</time></trkpt><trkpt lat="37.80338388780515" lon="15.196708229429131"><ele>129.0</ele><time>2026-04-12T07:06:32Z</time></trkpt><trkpt lat="37.803361538500326" lon="15.196499272613838"><ele>129.0</ele><time>2026-04-12T07:06:33Z</time></trkpt><trkpt lat="37.80333659793077" lon="15.196284853683089"><ele>131.33333333333334</ele><time>2026-04-12T07:06:34Z</time></trkpt><trkpt lat="37.803313305898435" lon="15.196082047078527"><ele>133.66666666666669</ele><time>2026-04-12T07:06:35Z</time></trkpt><trkpt lat="37.80329189758959" lon="15.19587852468077"><ele>136.0</ele><time>2026-04-12T07:06:36Z</time></trkpt><trkpt lat="37.80326913514119" lon="15.195677413211916"><ele>136.66666666666669</ele><time>2026-04-12T07:06:37Z</time></trkpt><trkpt lat="37.803236785943064" lon="15.195469308413292"><ele>137.33333333333334</ele><time>2026-04-12T07:06:38Z</time></trkpt><trkpt lat="37.803173810070035" lon="15.195269831612423"><ele>138.0</ele><time>2026-04-12T07:06:39Z</time></trkpt><trkpt lat="37.803088638534" lon="15.195073884713352"><ele>138.0</ele><time>2026-04-12T07:06:40Z</time></trkpt><trkpt lat="37.8030035608771" lon="15.1948703144138"><ele>138.0</ele><time>2026-04-12T07:06:41Z</time></trkpt><trkpt lat="37.80292097842149" lon="15.194662755691255"><ele>138.0</ele><time>2026-04-12T07:06:42Z</time></trkpt><trkpt lat="37.80283069278787" lon="15.19445122573081"><ele>139.0</ele><time>2026-04-12T07:06:43Z</time></trkpt><trkpt lat="37.802734038960594" lon="15.194245757310656"><ele>140.0</ele><time>2026-04-12T07:06:44Z</time></trkpt><trkpt lat="37.80262444458369" lon="15.194038251505951"><ele>141.0</ele><time>2026-04-12T07:06:45Z</time></trkpt><trkpt lat="37.80251670708942" lon="15.193835393132453"><ele>143.0</ele><time>2026-04-12T07:06:46Z</time></trkpt><trkpt lat="37.802405942626415" lon="15.193650340300612"><ele>145.0</ele><time>2026-04-12T07:06:47Z</time></trkpt><trkpt lat="37.802302414458644" lon="15.19348353504542"><ele>147.0</ele><time>2026-04-12T07:06:48Z</time></trkpt><trkpt lat="37.80221124187412" lon="15.193335084409506"><ele>147.0</ele><time>2026-04-12T07:06:49Z</time></trkpt><trkpt lat="37.802132931246824" lon="15.193199480234258"><ele>147.0</ele><time>2026-04-12T07:06:50Z</time></trkpt><trkpt lat="37.80205739155441" lon="15.193068213574307"><ele>147.0</ele><time>2026-04-12T07:06:51Z</time></trkpt><trkpt lat="37.80199397805119" lon="15.192936732212983"><ele>147.0</ele><time>2026-04-12T07:06:52Z</time></trkpt><trkpt lat="37.801920082593014" lon="15.192813497182785"><ele>149.5</ele><time>2026-04-12T07:06:53Z</time></trkpt><trkpt lat="37.80187357285774" lon="15.192690507691506"><ele>152.0</ele><time>2026-04-12T07:06:54Z</time></trkpt><trkpt lat="37.80181268006487" lon="15.19253763859328"><ele>154.5</ele><time>2026-04-12T07:06:55Z</time></trkpt><trkpt lat="37.80173611843719" lon="15.19241800589757"><ele>157.0</ele><time>2026-04-12T07:06:56Z</time></trkpt><trkpt lat="37.8020515942044" lon="15.192274009829177"><ele>157.75</ele><time>2026-04-12T07:06:59Z</time></trkpt><trkpt lat="37.80215891986656" lon="15.19229871111955"><ele>158.5</ele><time>2026-04-12T07:07:00Z</time></trkpt><trkpt lat="37.80229314608648" lon="15.19233421404049"><ele>159.25</ele><time>2026-04-12T07:07:01Z</time></trkpt><trkpt lat="37.802442784532644" lon="15.192382007673778"><ele>160.0</ele><time>2026-04-12T07:07:02Z</time></trkpt><trkpt lat="37.802607853196044" lon="15.192465423890782"><ele>162.66666666666669</ele><time>2026-04-12T07:07:03Z</time></trkpt><trkpt lat="37.802792169725656" lon="15.192550893361098"><ele>165.33333333333334</ele><time>2026-04-12T07:07:04Z</time></trkpt><trkpt lat="37.80298523233716" lon="15.192606880504009"><ele>168.0</ele><time>2026-04-12T07:07:05Z</time></trkpt><trkpt lat="37.803178623358036" lon="15.192652085912522"><ele>168.0</ele><time>2026-04-12T07:07:06Z</time></trkpt><trkpt lat="37.803353456569525" lon="15.192691677355826"><ele>168.0</ele><time>2026-04-12T07:07:07Z</time></trkpt><trkpt lat="37.80350305416681" lon="15.192707237825633"><ele>168.0</ele><time>2026-04-12T07:07:08Z</time></trkpt><trkpt lat="37.80365075143379" lon="15.192751221512351"><ele>167.4</ele><time>2026-04-12T07:07:09Z</time></trkpt><trkpt lat="37.80375873796739" lon="15.192773542307828"><ele>166.8</ele><time>2026-04-12T07:07:10Z</time></trkpt><trkpt lat="37.80384607319144" lon="15.19279711589559"><ele>166.2</ele><time>2026-04-12T07:07:11Z</time></trkpt><trkpt lat="37.80395429212234" lon="15.192760409860007"><ele>165.6</ele><time>2026-04-12T07:07:13Z</time></trkpt><trkpt lat="37.8039806311508" lon="15.192658688877128"><ele>165.0</ele><time>2026-04-12T07:07:14Z</time></trkpt><trkpt lat="37.80396988933704" lon="15.192530989439835"><ele>165.0</ele><time>2026-04-12T07:07:15Z</time></trkpt><trkpt lat="37.80390345991173" lon="15.19240531001625"><ele>165.0</ele><time>2026-04-12T07:07:16Z</time></trkpt><trkpt lat="37.803789090839715" lon="15.192321381858271"><ele>165.0</ele><time>2026-04-12T07:07:17Z</time></trkpt><trkpt lat="37.803634032780685" lon="15.19225747227261"><ele>165.0</ele><time>2026-04-12T07:07:18Z</time></trkpt><trkpt lat="37.80340738247207" lon="15.192175223245973"><ele>173.33333333333334</ele><time>2026-04-12T07:07:19Z</time></trkpt><trkpt lat="37.803240727486006" lon="15.192067539231322"><ele>181.66666666666669</ele><time>2026-04-12T07:07:20Z</time></trkpt><trkpt lat="37.80308327413914" lon="15.191966640654366"><ele>190.0</ele><time>2026-04-12T07:07:21Z</time></trkpt><trkpt lat="37.80294188216512" lon="15.191872933547781"><ele>190.0</ele><time>2026-04-12T07:07:22Z</time></trkpt><trkpt lat="37.802824148919" lon="15.191776252359135"><ele>190.0</ele><time>2026-04-12T07:07:23Z</time></trkpt><trkpt lat="37.802720132568744" lon="15.191681469980772"><ele>190.0</ele><time>2026-04-12T07:07:24Z</time></trkpt><trkpt lat="37.802627899730524" lon="15.191592552508355"><ele>190.0</ele><time>2026-04-12T07:07:25Z</time></trkpt><trkpt lat="37.80252835110935" lon="15.191526892192222"><ele>193.0</ele><time>2026-04-12T07:07:26Z</time></trkpt><trkpt lat="37.80241582511789" lon="15.191484088843431"><ele>196.0</ele><time>2026-04-12T07:07:27Z</time></trkpt><trkpt lat="37.802297331089726" lon="15.191466150001077"><ele>199.0</ele><time>2026-04-12T07:07:28Z</time></trkpt><trkpt lat="37.802180649120075" lon="15.191461577558027"><ele>202.0</ele><time>2026-04-12T07:07:29Z</time></trkpt><trkpt lat="37.80206061157684" lon="15.1914381893361"><ele>202.0</ele><time>2026-04-12T07:07:30Z</time></trkpt><trkpt lat="37.80195507748395" lon="15.19140686122756"><ele>202.0</ele><time>2026-04-12T07:07:31Z</time></trkpt><trkpt lat="37.80186646712672" lon="15.191367705690421"><ele>202.0</ele><time>2026-04-12T07:07:32Z</time></trkpt><trkpt lat="37.801789157048" lon="15.191305322214328"><ele>202.0</ele><time>2026-04-12T07:07:33Z</time></trkpt><trkpt lat="37.80168345048966" lon="15.1912302383197"><ele>202.0</ele><time>2026-04-12T07:07:34Z</time></trkpt><trkpt lat="37.801540709942024" lon="15.191202827314475"><ele>201.0</ele><time>2026-04-12T07:07:35Z</time></trkpt><trkpt lat="37.801358897927344" lon="15.1912400438981"><ele>200.0</ele><time>2026-04-12T07:07:36Z</time></trkpt><trkpt lat="37.80117956402111" lon="15.191311124621103"><ele>199.0</ele><time>2026-04-12T07:07:37Z</time></trkpt><trkpt lat="37.80101107370603" lon="15.191347706388315"><ele>198.75</ele><time>2026-04-12T07:07:38Z</time></trkpt><trkpt lat="37.800868604608986" lon="15.191385471623402"><ele>198.5</ele><time>2026-04-12T07:07:39Z</time></trkpt><trkpt lat="37.80074487933136" lon="15.191419174074076"><ele>198.25</ele><time>2026-04-12T07:07:40Z</time></trkpt><trkpt lat="37.80064085590271" lon="15.191395796493183"><ele>198.0</ele><time>2026-04-12T07:07:41Z</time></trkpt><trkpt lat="37.800572211209634" lon="15.191326180782491"><ele>198.0</ele><time>2026-04-12T07:07:42Z</time></trkpt><trkpt lat="37.80052869227736" lon="15.191226395743554"><ele>198.0</ele><time>2026-04-12T07:07:43Z</time></trkpt><trkpt lat="37.800556006428174" lon="15.191067713726131"><ele>198.0</ele><time>2026-04-12T07:07:44Z</time></trkpt><trkpt lat="37.80056208577368" lon="15.19093054485408"><ele>198.0</ele><time>2026-04-12T07:07:45Z</time></trkpt><trkpt lat="37.80059646772576" lon="15.19078976952267"><ele>198.0</ele><time>2026-04-12T07:07:46Z</time></trkpt><trkpt lat="37.800656201548655" lon="15.190673568524847"><ele>199.4</ele><time>2026-04-12T07:07:47Z</time></trkpt><trkpt lat="37.80069989692862" lon="15.190567421257768"><ele>200.8</ele><time>2026-04-12T07:07:48Z</time></trkpt><trkpt lat="37.80070674239675" lon="15.190464841956311"><ele>202.2</ele><time>2026-04-12T07:07:49Z</time></trkpt><trkpt lat="37.80065302320574" lon="15.19035441026716"><ele>203.6</ele><time>2026-04-12T07:07:50Z</time></trkpt><trkpt lat="37.80055683276904" lon="15.19025876727835"><ele>205.0</ele><time>2026-04-12T07:07:51Z</time></trkpt><trkpt lat="37.80045841692637" lon="15.19014940843079"><ele>205.0</ele><time>2026-04-12T07:07:52Z</time></trkpt><trkpt lat="37.800365135813166" lon="15.190031265864171"><ele>205.0</ele><time>2026-04-12T07:07:53Z</time></trkpt><trkpt lat="37.800259908721806" lon="15.189897108440853"><ele>205.0</ele><time>2026-04-12T07:07:54Z</time></trkpt><trkpt lat="37.800158649823715" lon="15.18976921911642"><ele>205.0</ele><time>2026-04-12T07:07:55Z</time></trkpt><trkpt lat="37.800064628208766" lon="15.189638137186845"><ele>205.0</ele><time>2026-04-12T07:07:56Z</time></trkpt><trkpt lat="37.79996871137852" lon="15.189506082879392"><ele>205.0</ele><time>2026-04-12T07:07:57Z</time></trkpt><trkpt lat="37.79987291998724" lon="15.189373075923166"><ele>205.0</ele><time>2026-04-12T07:07:58Z</time></trkpt><trkpt lat="37.799769958884816" lon="15.189235558629708"><ele>205.0</ele><time>2026-04-12T07:07:59Z</time></trkpt><trkpt lat="37.79966548134966" lon="15.189093402674013"><ele>205.0</ele><time>2026-04-12T07:08:00Z</time></trkpt><trkpt lat="37.799556660478686" lon="15.188950148154431"><ele>205.0</ele><time>2026-04-12T07:08:01Z</time></trkpt><trkpt lat="37.79945329873436" lon="15.188809647611235"><ele>205.0</ele><time>2026-04-12T07:08:02Z</time></trkpt><trkpt lat="37.79935819781326" lon="15.18867983029355"><ele>205.0</ele><time>2026-04-12T07:08:03Z</time></trkpt><trkpt lat="37.79926528392714" lon="15.188558589425098"><ele>205.0</ele><time>2026-04-12T07:08:04Z</time></trkpt><trkpt lat="37.79918483520327" lon="15.18844822580274"><ele>205.0</ele><time>2026-04-12T07:08:05Z</time></trkpt><trkpt lat="37.79910243993413" lon="15.188340912255839"><ele>205.0</ele><time>2026-04-12T07:08:06Z</time></trkpt><trkpt lat="37.799033402316105" lon="15.18823613590823"><ele>205.0</ele><time>2026-04-12T07:08:07Z</time></trkpt><trkpt lat="37.79895810159287" lon="15.188139621481035"><ele>206.66666666666666</ele><time>2026-04-12T07:08:08Z</time></trkpt><trkpt lat="37.79889336436826" lon="15.188050290719532"><ele>208.33333333333331</ele><time>2026-04-12T07:08:09Z</time></trkpt><trkpt lat="37.798836761203255" lon="15.187971610984667"><ele>210.0</ele><time>2026-04-12T07:08:10Z</time></trkpt><trkpt lat="37.798793815758124" lon="15.187908348718057"><ele>211.66666666666669</ele><time>2026-04-12T07:08:11Z</time></trkpt><trkpt lat="37.798734221284604" lon="15.187814756838623"><ele>213.33333333333334</ele><time>2026-04-12T07:08:13Z</time></trkpt><trkpt lat="37.798748415383876" lon="15.187722299663967"><ele>215.0</ele><time>2026-04-12T07:08:15Z</time></trkpt><trkpt lat="37.79886185451869" lon="15.187636417326654"><ele>215.0</ele><time>2026-04-12T07:08:17Z</time></trkpt><trkpt lat="37.79896022971778" lon="15.187584440366324"><ele>215.0</ele><time>2026-04-12T07:08:18Z</time></trkpt><trkpt lat="37.79908806698009" lon="15.187513270835884"><ele>215.0</ele><time>2026-04-12T07:08:19Z</time></trkpt><trkpt lat="37.79923711498689" lon="15.187453258037023"><ele>215.0</ele><time>2026-04-12T07:08:20Z</time></trkpt><trkpt lat="37.79941145598606" lon="15.187405578821913"><ele>216.66666666666669</ele><time>2026-04-12T07:08:21Z</time></trkpt><trkpt lat="37.799597358066094" lon="15.18735851260915"><ele>218.33333333333331</ele><time>2026-04-12T07:08:22Z</time></trkpt><trkpt lat="37.79975829731009" lon="15.18728957364603"><ele>220.0</ele><time>2026-04-12T07:08:23Z</time></trkpt><trkpt lat="37.79990053191954" lon="15.187199097037634"><ele>221.5</ele><time>2026-04-12T07:08:24Z</time></trkpt><trkpt lat="37.80002418312288" lon="15.187124664472552"><ele>223.0</ele><time>2026-04-12T07:08:25Z</time></trkpt><trkpt lat="37.80015558354429" lon="15.18711142198707"><ele>224.5</ele><time>2026-04-12T07:08:26Z</time></trkpt><trkpt lat="37.80027242044353" lon="15.187152116418938"><ele>226.0</ele><time>2026-04-12T07:08:27Z</time></trkpt><trkpt lat="37.800343432750836" lon="15.187279711567495"><ele>226.5</ele><time>2026-04-12T07:08:28Z</time></trkpt><trkpt lat="37.80043841080581" lon="15.187395822105062"><ele>227.0</ele><time>2026-04-12T07:08:29Z</time></trkpt><trkpt lat="37.80051534110837" lon="15.187548986812462"><ele>227.5</ele><time>2026-04-12T07:08:30Z</time></trkpt><trkpt lat="37.800606723935545" lon="15.187685372369947"><ele>228.0</ele><time>2026-04-12T07:08:31Z</time></trkpt><trkpt lat="37.800697159696746" lon="15.187804928307601"><ele>228.0</ele><time>2026-04-12T07:08:32Z</time></trkpt><trkpt lat="37.8007738827748" lon="15.187899878935012"><ele>228.0</ele><time>2026-04-12T07:08:33Z</time></trkpt><trkpt lat="37.80084520796819" lon="15.18796610173539"><ele>228.0</ele><time>2026-04-12T07:08:34Z</time></trkpt><trkpt lat="37.80090956137556" lon="15.187993315833399"><ele>228.0</ele><time>2026-04-12T07:08:35Z</time></trkpt><trkpt lat="37.80098614501216" lon="15.187972672981052"><ele>228.0</ele><time>2026-04-12T07:08:36Z</time></trkpt><trkpt lat="37.80105090761753" lon="15.187859649307608"><ele>231.5</ele><time>2026-04-12T07:08:37Z</time></trkpt><trkpt lat="37.80108526521442" lon="15.187730336402186"><ele>235.0</ele><time>2026-04-12T07:08:38Z</time></trkpt><trkpt lat="37.80109220511204" lon="15.187575546493933"><ele>238.5</ele><time>2026-04-12T07:08:39Z</time></trkpt><trkpt lat="37.80108893125105" lon="15.187413457641934"><ele>242.0</ele><time>2026-04-12T07:08:40Z</time></trkpt><trkpt lat="37.80108744918311" lon="15.187236757226248"><ele>244.0</ele><time>2026-04-12T07:08:41Z</time></trkpt><trkpt lat="37.80108126032072" lon="15.18705804939578"><ele>246.0</ele><time>2026-04-12T07:08:42Z</time></trkpt><trkpt lat="37.80107474154921" lon="15.186892857986539"><ele>248.0</ele><time>2026-04-12T07:08:43Z</time></trkpt><trkpt lat="37.80107788599649" lon="15.186759363531678"><ele>250.0</ele><time>2026-04-12T07:08:44Z</time></trkpt><trkpt lat="37.801092863855004" lon="15.186644381871666"><ele>249.99999999999997</ele><time>2026-04-12T07:08:45Z</time></trkpt><trkpt lat="37.801135759524215" lon="15.18656556560213"><ele>250.0</ele><time>2026-04-12T07:08:46Z</time></trkpt><trkpt lat="37.8012097225654" lon="15.186529259364217"><ele>250.0</ele><time>2026-04-12T07:08:47Z</time></trkpt><trkpt lat="37.80129052320166" lon="15.186533436357706"><ele>250.0</ele><time>2026-04-12T07:08:48Z</time></trkpt><trkpt lat="37.80136168778461" lon="15.186623478893383"><ele>249.99999999999997</ele><time>2026-04-12T07:08:49Z</time></trkpt><trkpt lat="37.80139054334885" lon="15.186756644916038"><ele>250.0</ele><time>2026-04-12T07:08:50Z</time></trkpt><trkpt lat="37.80144946404078" lon="15.186888214690972"><ele>250.0</ele><time>2026-04-12T07:08:51Z</time></trkpt><trkpt lat="37.80151658721218" lon="15.187044266811188"><ele>250.0</ele><time>2026-04-12T07:08:52Z</time></trkpt><trkpt lat="37.80160139324473" lon="15.187186435337175"><ele>250.0</ele><time>2026-04-12T07:08:53Z</time></trkpt><trkpt lat="37.80169226481687" lon="15.187324749102505"><ele>250.0</ele><time>2026-04-12T07:08:54Z</time></trkpt><trkpt lat="37.80180233663154" lon="15.187437318209431"><ele>250.0</ele><time>2026-04-12T07:08:55Z</time></trkpt><trkpt lat="37.80191359965496" lon="15.187525261912855"><ele>250.0</ele><time>2026-04-12T07:08:56Z</time></trkpt><trkpt lat="37.801992796477414" lon="15.187620939581672"><ele>250.0</ele><time>2026-04-12T07:08:57Z</time></trkpt><trkpt lat="37.802065910132555" lon="15.187689695877799"><ele>250.0</ele><time>2026-04-12T07:08:58Z</time></trkpt><trkpt lat="37.80213714608362" lon="15.18771938066666"><ele>250.0</ele><time>2026-04-12T07:08:59Z</time></trkpt><trkpt lat="37.802215670287346" lon="15.187700334639194"><ele>249.99999999999997</ele><time>2026-04-12T07:09:00Z</time></trkpt><trkpt lat="37.80229472297367" lon="15.187647205404568"><ele>250.0</ele><time>2026-04-12T07:09:01Z</time></trkpt><trkpt lat="37.80236624640599" lon="15.187591011472605"><ele>250.0</ele><time>2026-04-12T07:09:02Z</time></trkpt><trkpt lat="37.80243686741929" lon="15.187535981058017"><ele>250.0</ele><time>2026-04-12T07:09:03Z</time></trkpt><trkpt lat="37.80251119373813" lon="15.187489505232067"><ele>249.99999999999997</ele><time>2026-04-12T07:09:04Z</time></trkpt><trkpt lat="37.802587861088064" lon="15.18743478784973"><ele>250.0</ele><time>2026-04-12T07:09:05Z</time></trkpt><trkpt lat="37.802663551067525" lon="15.187372275918884"><ele>251.25</ele><time>2026-04-12T07:09:06Z</time></trkpt><trkpt lat="37.8027548080216" lon="15.187300730906113"><ele>252.5</ele><time>2026-04-12T07:09:07Z</time></trkpt><trkpt lat="37.802847128948784" lon="15.187221020412663"><ele>253.75</ele><time>2026-04-12T07:09:08Z</time></trkpt><trkpt lat="37.80291821983689" lon="15.187109085346801"><ele>255.0</ele><time>2026-04-12T07:09:09Z</time></trkpt><trkpt lat="37.802950253220175" lon="15.186950516818149"><ele>255.0</ele><time>2026-04-12T07:09:10Z</time></trkpt><trkpt lat="37.802970555162894" lon="15.186793561165446"><ele>255.0</ele><time>2026-04-12T07:09:11Z</time></trkpt><trkpt lat="37.8029832088105" lon="15.186652150445239"><ele>255.0</ele><time>2026-04-12T07:09:12Z</time></trkpt><trkpt lat="37.80294888090731" lon="15.186526311037213"><ele>255.0</ele><time>2026-04-12T07:09:13Z</time></trkpt><trkpt lat="37.80286768395931" lon="15.186419326488302"><ele>256.75</ele><time>2026-04-12T07:09:14Z</time></trkpt><trkpt lat="37.80275037900774" lon="15.18633583428232"><ele>258.5</ele><time>2026-04-12T07:09:15Z</time></trkpt><trkpt lat="37.80263561227696" lon="15.186241014724313"><ele>260.25</ele><time>2026-04-12T07:09:16Z</time></trkpt><trkpt lat="37.80251507038615" lon="15.186122718192168"><ele>262.0</ele><time>2026-04-12T07:09:17Z</time></trkpt><trkpt lat="37.802399560336596" lon="15.185997740293397"><ele>262.75</ele><time>2026-04-12T07:09:18Z</time></trkpt><trkpt lat="37.80229898453876" lon="15.185872815558735"><ele>263.5</ele><time>2026-04-12T07:09:19Z</time></trkpt><trkpt lat="37.8022095727915" lon="15.185734193173586"><ele>264.25</ele><time>2026-04-12T07:09:20Z</time></trkpt><trkpt lat="37.80212770027075" lon="15.185563912797798"><ele>265.0</ele><time>2026-04-12T07:09:21Z</time></trkpt><trkpt lat="37.80207026767035" lon="15.185384188111497"><ele>267.0</ele><time>2026-04-12T07:09:22Z</time></trkpt><trkpt lat="37.8020216262255" lon="15.185225309168562"><ele>269.0</ele><time>2026-04-12T07:09:23Z</time></trkpt><trkpt lat="37.80198625836647" lon="15.185108479844965"><ele>271.0</ele><time>2026-04-12T07:09:24Z</time></trkpt><trkpt lat="37.80202810816901" lon="15.184984204941061"><ele>273.0</ele><time>2026-04-12T07:09:26Z</time></trkpt><trkpt lat="37.80209423602017" lon="15.184961924231109"><ele>275.0</ele><time>2026-04-12T07:09:27Z</time></trkpt><trkpt lat="37.802171226986644" lon="15.18499273540258"><ele>275.0</ele><time>2026-04-12T07:09:28Z</time></trkpt><trkpt lat="37.802257041331764" lon="15.185061628468244"><ele>275.0</ele><time>2026-04-12T07:09:29Z</time></trkpt><trkpt lat="37.80236163726218" lon="15.185058726373015"><ele>275.0</ele><time>2026-04-12T07:09:30Z</time></trkpt><trkpt lat="37.80245455332415" lon="15.184992046020142"><ele>275.0</ele><time>2026-04-12T07:09:31Z</time></trkpt><trkpt lat="37.80252963364082" lon="15.184884328002573"><ele>275.0</ele><time>2026-04-12T07:09:32Z</time></trkpt><trkpt lat="37.802596308614824" lon="15.184751710996865"><ele>276.5</ele><time>2026-04-12T07:09:33Z</time></trkpt><trkpt lat="37.80267732782141" lon="15.18461705313581"><ele>278.0</ele><time>2026-04-12T07:09:34Z</time></trkpt><trkpt lat="37.80276365245242" lon="15.184471281171643"><ele>279.5</ele><time>2026-04-12T07:09:35Z</time></trkpt><trkpt lat="37.80283510267992" lon="15.184311714440394"><ele>281.0</ele><time>2026-04-12T07:09:36Z</time></trkpt><trkpt lat="37.8028869272365" lon="15.184135222903668"><ele>282.75</ele><time>2026-04-12T07:09:37Z</time></trkpt><trkpt lat="37.802926173757605" lon="15.183961429920815"><ele>284.5</ele><time>2026-04-12T07:09:38Z</time></trkpt><trkpt lat="37.80295841530937" lon="15.183787972636026"><ele>286.25</ele><time>2026-04-12T07:09:39Z</time></trkpt><trkpt lat="37.80299475355763" lon="15.1836205779645"><ele>288.0</ele><time>2026-04-12T07:09:40Z</time></trkpt><trkpt lat="37.80303376059293" lon="15.18346207697621"><ele>288.0</ele><time>2026-04-12T07:09:41Z</time></trkpt><trkpt lat="37.8030675059299" lon="15.183309166700694"><ele>288.0</ele><time>2026-04-12T07:09:42Z</time></trkpt><trkpt lat="37.80309876829447" lon="15.183158621075249"><ele>288.0</ele><time>2026-04-12T07:09:43Z</time></trkpt><trkpt lat="37.803121172045024" lon="15.183006234211438"><ele>288.0</ele><time>2026-04-12T07:09:44Z</time></trkpt><trkpt lat="37.8031419156493" lon="15.182854275316739"><ele>290.5</ele><time>2026-04-12T07:09:45Z</time></trkpt><trkpt lat="37.80314903225282" lon="15.18269975241413"><ele>293.0</ele><time>2026-04-12T07:09:46Z</time></trkpt><trkpt lat="37.80314684079916" lon="15.182547767961255"><ele>295.5</ele><time>2026-04-12T07:09:47Z</time></trkpt><trkpt lat="37.803147315457814" lon="15.182403459664178"><ele>298.0</ele><time>2026-04-12T07:09:48Z</time></trkpt><trkpt lat="37.803146514605935" lon="15.182260890056401"><ele>299.4</ele><time>2026-04-12T07:09:49Z</time></trkpt><trkpt lat="37.803147811768056" lon="15.18212502727227"><ele>300.8</ele><time>2026-04-12T07:09:50Z</time></trkpt><trkpt lat="37.8031547634199" lon="15.181992259574946"><ele>302.2</ele><time>2026-04-12T07:09:51Z</time></trkpt><trkpt lat="37.803157856231" lon="15.181865563891169"><ele>303.6</ele><time>2026-04-12T07:09:52Z</time></trkpt><trkpt lat="37.80316098854435" lon="15.18174267672549"><ele>305.0</ele><time>2026-04-12T07:09:53Z</time></trkpt><trkpt lat="37.80316314907991" lon="15.181614475817055"><ele>305.8</ele><time>2026-04-12T07:09:54Z</time></trkpt><trkpt lat="37.803165236109784" lon="15.181484977817378"><ele>306.6</ele><time>2026-04-12T07:09:55Z</time></trkpt><trkpt lat="37.803164784104204" lon="15.181345457608053"><ele>307.4</ele><time>2026-04-12T07:09:56Z</time></trkpt><trkpt lat="37.80316864886744" lon="15.181209067986732"><ele>308.2</ele><time>2026-04-12T07:09:57Z</time></trkpt><trkpt lat="37.803176511583" lon="15.181079793571193"><ele>309.0</ele><time>2026-04-12T07:09:58Z</time></trkpt><trkpt lat="37.80318431824348" lon="15.180960883710206"><ele>309.0</ele><time>2026-04-12T07:09:59Z</time></trkpt><trkpt lat="37.80319328446365" lon="15.180843581967292"><ele>309.0</ele><time>2026-04-12T07:10:00Z</time></trkpt><trkpt lat="37.803198182786026" lon="15.180718208809555"><ele>309.0</ele><time>2026-04-12T07:10:01Z</time></trkpt><trkpt lat="37.80321556930617" lon="15.18058721754626"><ele>309.0</ele><time>2026-04-12T07:10:02Z</time></trkpt><trkpt lat="37.803223957082956" lon="15.180461848855698"><ele>309.0</ele><time>2026-04-12T07:10:03Z</time></trkpt><trkpt lat="37.8032306374287" lon="15.180333150244133"><ele>310.4</ele><time>2026-04-12T07:10:04Z</time></trkpt><trkpt lat="37.8032385796174" lon="15.180203802107108"><ele>311.79999999999995</ele><time>2026-04-12T07:10:05Z</time></trkpt><trkpt lat="37.80324266599411" lon="15.18006757191729"><ele>313.20000000000005</ele><time>2026-04-12T07:10:06Z</time></trkpt><trkpt lat="37.80325243638764" lon="15.179935438428316"><ele>314.6</ele><time>2026-04-12T07:10:07Z</time></trkpt><trkpt lat="37.80325697135336" lon="15.179807182949414"><ele>316.0</ele><time>2026-04-12T07:10:08Z</time></trkpt><trkpt lat="37.803269789448365" lon="15.179684319593465"><ele>317.6</ele><time>2026-04-12T07:10:09Z</time></trkpt><trkpt lat="37.80329856223071" lon="15.179565326692195"><ele>319.20000000000005</ele><time>2026-04-12T07:10:10Z</time></trkpt><trkpt lat="37.80335629335115" lon="15.179458056173281"><ele>320.79999999999995</ele><time>2026-04-12T07:10:11Z</time></trkpt><trkpt lat="37.803415118185285" lon="15.1793642508999"><ele>322.4</ele><time>2026-04-12T07:10:12Z</time></trkpt><trkpt lat="37.80347355468946" lon="15.179273417731263"><ele>324.0</ele><time>2026-04-12T07:10:13Z</time></trkpt><trkpt lat="37.803525557708525" lon="15.17918308117554"><ele>324.6</ele><time>2026-04-12T07:10:14Z</time></trkpt><trkpt lat="37.80356721868182" lon="15.179120273374016"><ele>325.2</ele><time>2026-04-12T07:10:15Z</time></trkpt><trkpt lat="37.803628321648816" lon="15.179036866148659"><ele>325.8</ele><time>2026-04-12T07:10:17Z</time></trkpt><trkpt lat="37.80367493376946" lon="15.178958974476847"><ele>326.40000000000003</ele><time>2026-04-12T07:10:20Z</time></trkpt><trkpt lat="37.803725189182884" lon="15.178853366311516"><ele>327.0</ele><time>2026-04-12T07:10:22Z</time></trkpt><trkpt lat="37.80383066463438" lon="15.178747205262558"><ele>327.6</ele><time>2026-04-12T07:10:24Z</time></trkpt><trkpt lat="37.803904475679076" lon="15.17873098981299"><ele>328.20000000000005</ele><time>2026-04-12T07:10:25Z</time></trkpt><trkpt lat="37.80398664089043" lon="15.178761464489334"><ele>328.8</ele><time>2026-04-12T07:10:26Z</time></trkpt><trkpt lat="37.804072165060724" lon="15.178823424257903"><ele>329.4</ele><time>2026-04-12T07:10:27Z</time></trkpt><trkpt lat="37.80416948242359" lon="15.17889969164632"><ele>330.0</ele><time>2026-04-12T07:10:28Z</time></trkpt><trkpt lat="37.80427360709571" lon="15.178996207140987"><ele>332.6666666666667</ele><time>2026-04-12T07:10:29Z</time></trkpt><trkpt lat="37.80437656697367" lon="15.179140153183383"><ele>335.33333333333337</ele><time>2026-04-12T07:10:30Z</time></trkpt><trkpt lat="37.804472036232376" lon="15.17928295248894"><ele>338.0</ele><time>2026-04-12T07:10:31Z</time></trkpt><trkpt lat="37.80455000322987" lon="15.17947250492236"><ele>338.0</ele><time>2026-04-12T07:10:32Z</time></trkpt><trkpt lat="37.80462737034024" lon="15.179632321396017"><ele>338.0</ele><time>2026-04-12T07:10:33Z</time></trkpt><trkpt lat="37.80470306935042" lon="15.179769295765578"><ele>338.0</ele><time>2026-04-12T07:10:34Z</time></trkpt><trkpt lat="37.80476895700239" lon="15.179893870727456"><ele>338.0</ele><time>2026-04-12T07:10:35Z</time></trkpt><trkpt lat="37.804830987058054" lon="15.17999783398195"><ele>337.83333333333337</ele><time>2026-04-12T07:10:36Z</time></trkpt><trkpt lat="37.80490030705689" lon="15.180062361226101"><ele>337.6666666666667</ele><time>2026-04-12T07:10:37Z</time></trkpt><trkpt lat="37.8049894109488" lon="15.180086510772016"><ele>337.5</ele><time>2026-04-12T07:10:38Z</time></trkpt><trkpt lat="37.8050785363854" lon="15.180107342968126"><ele>337.3333333333333</ele><time>2026-04-12T07:10:39Z</time></trkpt><trkpt lat="37.80514778606222" lon="15.180133381554977"><ele>337.16666666666663</ele><time>2026-04-12T07:10:40Z</time></trkpt><trkpt lat="37.80521907270546" lon="15.180163773263606"><ele>337.0</ele><time>2026-04-12T07:10:41Z</time></trkpt><trkpt lat="37.80529455798167" lon="15.180204243682367"><ele>337.8</ele><time>2026-04-12T07:10:42Z</time></trkpt><trkpt lat="37.80536809689482" lon="15.180220422364938"><ele>338.6</ele><time>2026-04-12T07:10:43Z</time></trkpt><trkpt lat="37.80547497359785" lon="15.180225634380946"><ele>339.40000000000003</ele><time>2026-04-12T07:10:45Z</time></trkpt><trkpt lat="37.80555664615323" lon="15.180232454998698"><ele>340.20000000000005</ele><time>2026-04-12T07:10:47Z</time></trkpt><trkpt lat="37.805639801741584" lon="15.18023231745757"><ele>341.0</ele><time>2026-04-12T07:10:49Z</time></trkpt><trkpt lat="37.80570473936496" lon="15.180130159037835"><ele>341.0</ele><time>2026-04-12T07:10:51Z</time></trkpt><trkpt lat="37.80571180193537" lon="15.180002554668256"><ele>341.0</ele><time>2026-04-12T07:10:53Z</time></trkpt><trkpt lat="37.805713030773845" lon="15.179880046820204"><ele>341.0</ele><time>2026-04-12T07:10:55Z</time></trkpt><trkpt lat="37.805715053908585" lon="15.179779104797277"><ele>341.0</ele><time>2026-04-12T07:10:57Z</time></trkpt><trkpt lat="37.80571307618059" lon="15.179670557484481"><ele>341.0</ele><time>2026-04-12T07:10:59Z</time></trkpt><trkpt lat="37.80570633013805" lon="15.179526946794406"><ele>342.1666666666667</ele><time>2026-04-12T07:11:01Z</time></trkpt><trkpt lat="37.8057050987333" lon="15.179423845190582"><ele>343.33333333333337</ele><time>2026-04-12T07:11:03Z</time></trkpt><trkpt lat="37.8057118598532" lon="15.179311370800756"><ele>344.5</ele><time>2026-04-12T07:11:06Z</time></trkpt><trkpt lat="37.80571524671914" lon="15.179215197202625"><ele>345.6666666666667</ele><time>2026-04-12T07:11:08Z</time></trkpt><trkpt lat="37.80582007598273" lon="15.179179008663247"><ele>346.8333333333333</ele><time>2026-04-12T07:11:10Z</time></trkpt><trkpt lat="37.805899768663636" lon="15.17919720132785"><ele>348.0</ele><time>2026-04-12T07:11:11Z</time></trkpt><trkpt lat="37.80599121589616" lon="15.179207419482449"><ele>348.4</ele><time>2026-04-12T07:11:12Z</time></trkpt><trkpt lat="37.80609457711823" lon="15.179212743521777"><ele>348.79999999999995</ele><time>2026-04-12T07:11:13Z</time></trkpt><trkpt lat="37.806201971240824" lon="15.179204812714746"><ele>349.2</ele><time>2026-04-12T07:11:14Z</time></trkpt><trkpt lat="37.80626780027014" lon="15.17923851006987"><ele>349.6</ele><time>2026-04-12T07:11:15Z</time></trkpt><trkpt lat="37.80638404812437" lon="15.179234989153631"><ele>350.0</ele><time>2026-04-12T07:11:17Z</time></trkpt><trkpt lat="37.806494237257475" lon="15.179251974825208"><ele>350.0</ele><time>2026-04-12T07:11:19Z</time></trkpt><trkpt lat="37.80655565544057" lon="15.179210243007438"><ele>350.0</ele><time>2026-04-12T07:11:20Z</time></trkpt><trkpt lat="37.80663708963138" lon="15.179129260895696"><ele>350.0</ele><time>2026-04-12T07:11:21Z</time></trkpt><trkpt lat="37.806742918570585" lon="15.179039857566595"><ele>350.0</ele><time>2026-04-12T07:11:22Z</time></trkpt><trkpt lat="37.8068527357362" lon="15.178934715864864"><ele>350.0</ele><time>2026-04-12T07:11:23Z</time></trkpt><trkpt lat="37.80696170415165" lon="15.178820478260851"><ele>351.6666666666667</ele><time>2026-04-12T07:11:24Z</time></trkpt><trkpt lat="37.807075324126394" lon="15.178697755618778"><ele>353.3333333333333</ele><time>2026-04-12T07:11:25Z</time></trkpt><trkpt lat="37.80719548808078" lon="15.178571098861454"><ele>355.0</ele><time>2026-04-12T07:11:26Z</time></trkpt><trkpt lat="37.80731752490845" lon="15.17843659706119"><ele>355.0</ele><time>2026-04-12T07:11:27Z</time></trkpt><trkpt lat="37.807444472589296" lon="15.178305139916846"><ele>355.0</ele><time>2026-04-12T07:11:28Z</time></trkpt><trkpt lat="37.80757028664447" lon="15.178177353773945"><ele>355.0</ele><time>2026-04-12T07:11:29Z</time></trkpt><trkpt lat="37.80768368009141" lon="15.17805510805615"><ele>354.75</ele><time>2026-04-12T07:11:30Z</time></trkpt><trkpt lat="37.80778853265939" lon="15.177937838127589"><ele>354.5</ele><time>2026-04-12T07:11:31Z</time></trkpt><trkpt lat="37.80789154504602" lon="15.177822953638513"><ele>354.25</ele><time>2026-04-12T07:11:32Z</time></trkpt><trkpt lat="37.80799802898217" lon="15.177711133607776"><ele>354.0</ele><time>2026-04-12T07:11:33Z</time></trkpt><trkpt lat="37.80810658940086" lon="15.17760958019123"><ele>354.0</ele><time>2026-04-12T07:11:34Z</time></trkpt><trkpt lat="37.80820756350549" lon="15.177503277391748"><ele>354.0</ele><time>2026-04-12T07:11:35Z</time></trkpt><trkpt lat="37.808308984265175" lon="15.177424196147888"><ele>354.0</ele><time>2026-04-12T07:11:36Z</time></trkpt><trkpt lat="37.80839024444197" lon="15.177329989211994"><ele>354.0</ele><time>2026-04-12T07:11:37Z</time></trkpt><trkpt lat="37.80846970843586" lon="15.177248117000362"><ele>354.6</ele><time>2026-04-12T07:11:38Z</time></trkpt><trkpt lat="37.80854782732205" lon="15.177185340999232"><ele>355.2</ele><time>2026-04-12T07:11:39Z</time></trkpt><trkpt lat="37.808621790773735" lon="15.177105864562721"><ele>355.8</ele><time>2026-04-12T07:11:40Z</time></trkpt><trkpt lat="37.80869522655875" lon="15.177024259814708"><ele>356.40000000000003</ele><time>2026-04-12T07:11:41Z</time></trkpt><trkpt lat="37.808772609135225" lon="15.176944011247137"><ele>357.0</ele><time>2026-04-12T07:11:42Z</time></trkpt><trkpt lat="37.80884697325429" lon="15.176862458008774"><ele>357.0</ele><time>2026-04-12T07:11:43Z</time></trkpt><trkpt lat="37.80892436105346" lon="15.176782079433671"><ele>357.0</ele><time>2026-04-12T07:11:44Z</time></trkpt><trkpt lat="37.80900192398751" lon="15.176702663936041"><ele>357.0</ele><time>2026-04-12T07:11:45Z</time></trkpt><trkpt lat="37.80907667013174" lon="15.17662283987153"><ele>357.0</ele><time>2026-04-12T07:11:46Z</time></trkpt><trkpt lat="37.8091523281515" lon="15.176547742004631"><ele>357.0</ele><time>2026-04-12T07:11:47Z</time></trkpt><trkpt lat="37.809220112036705" lon="15.176469511551469"><ele>357.5</ele><time>2026-04-12T07:11:48Z</time></trkpt><trkpt lat="37.809286810152166" lon="15.17640241412218"><ele>358.0</ele><time>2026-04-12T07:11:49Z</time></trkpt><trkpt lat="37.80934789597475" lon="15.176337216338224"><ele>358.5</ele><time>2026-04-12T07:11:50Z</time></trkpt><trkpt lat="37.80940732800785" lon="15.176276604277145"><ele>359.0</ele><time>2026-04-12T07:11:51Z</time></trkpt><trkpt lat="37.80946951040796" lon="15.176212032549142"><ele>359.5</ele><time>2026-04-12T07:11:52Z</time></trkpt><trkpt lat="37.80953190611024" lon="15.176149966084672"><ele>360.0</ele><time>2026-04-12T07:11:53Z</time></trkpt><trkpt lat="37.80959380343552" lon="15.176088912962744"><ele>360.0</ele><time>2026-04-12T07:11:54Z</time></trkpt><trkpt lat="37.80965809619671" lon="15.176023762802078"><ele>360.0</ele><time>2026-04-12T07:11:55Z</time></trkpt><trkpt lat="37.80972509621631" lon="15.175950874634129"><ele>360.0</ele><time>2026-04-12T07:11:56Z</time></trkpt><trkpt lat="37.809788068942645" lon="15.17587656662517"><ele>360.0</ele><time>2026-04-12T07:11:57Z</time></trkpt><trkpt lat="37.80985574660094" lon="15.175803033590542"><ele>360.0</ele><time>2026-04-12T07:11:58Z</time></trkpt><trkpt lat="37.80992892650449" lon="15.175730381691222"><ele>360.0</ele><time>2026-04-12T07:11:59Z</time></trkpt><trkpt lat="37.81000331164771" lon="15.175653607965206"><ele>360.4</ele><time>2026-04-12T07:12:00Z</time></trkpt><trkpt lat="37.810079402041616" lon="15.175563987475668"><ele>360.8</ele><time>2026-04-12T07:12:01Z</time></trkpt><trkpt lat="37.81014591182093" lon="15.175462767871409"><ele>361.20000000000005</ele><time>2026-04-12T07:12:02Z</time></trkpt><trkpt lat="37.810211238749844" lon="15.175347741136006"><ele>361.6</ele><time>2026-04-12T07:12:03Z</time></trkpt><trkpt lat="37.810275785533136" lon="15.17522112706222"><ele>362.0</ele><time>2026-04-12T07:12:04Z</time></trkpt><trkpt lat="37.81034575720848" lon="15.175090547070527"><ele>362.0</ele><time>2026-04-12T07:12:05Z</time></trkpt><trkpt lat="37.810418034650574" lon="15.174948564691077"><ele>362.0</ele><time>2026-04-12T07:12:06Z</time></trkpt><trkpt lat="37.810498914059615" lon="15.174803086688204"><ele>362.0</ele><time>2026-04-12T07:12:07Z</time></trkpt><trkpt lat="37.81058056796808" lon="15.174646247073309"><ele>362.0</ele><time>2026-04-12T07:12:08Z</time></trkpt><trkpt lat="37.81066308151925" lon="15.174488761172553"><ele>363.33333333333337</ele><time>2026-04-12T07:12:09Z</time></trkpt><trkpt lat="37.81075164738165" lon="15.174321262718228"><ele>364.6666666666667</ele><time>2026-04-12T07:12:10Z</time></trkpt><trkpt lat="37.81083900538403" lon="15.174144514751987"><ele>366.0</ele><time>2026-04-12T07:12:11Z</time></trkpt><trkpt lat="37.810928120472084" lon="15.1739730896566"><ele>367.25</ele><time>2026-04-12T07:12:12Z</time></trkpt><trkpt lat="37.81101801818863" lon="15.17380538704019"><ele>368.5</ele><time>2026-04-12T07:12:13Z</time></trkpt><trkpt lat="37.811099314879144" lon="15.17365254429936"><ele>369.75</ele><time>2026-04-12T07:12:14Z</time></trkpt><trkpt lat="37.811173601864816" lon="15.173508793004805"><ele>371.0</ele><time>2026-04-12T07:12:15Z</time></trkpt><trkpt lat="37.81124646333253" lon="15.173368865070794"><ele>371.0</ele><time>2026-04-12T07:12:16Z</time></trkpt><trkpt lat="37.811318898499735" lon="15.173221374221118"><ele>371.0</ele><time>2026-04-12T07:12:17Z</time></trkpt><trkpt lat="37.811395562086965" lon="15.173069174185382"><ele>371.0</ele><time>2026-04-12T07:12:18Z</time></trkpt><trkpt lat="37.811477260237844" lon="15.172914418597944"><ele>371.0</ele><time>2026-04-12T07:12:19Z</time></trkpt><trkpt lat="37.81156143267162" lon="15.172756325981352"><ele>372.6666666666667</ele><time>2026-04-12T07:12:20Z</time></trkpt><trkpt lat="37.811643575683966" lon="15.172591132911686"><ele>374.3333333333333</ele><time>2026-04-12T07:12:21Z</time></trkpt><trkpt lat="37.811718816771055" lon="15.172425023867305"><ele>376.0</ele><time>2026-04-12T07:12:22Z</time></trkpt><trkpt lat="37.81178683458119" lon="15.172261233698192"><ele>377.25</ele><time>2026-04-12T07:12:23Z</time></trkpt><trkpt lat="37.81184873424195" lon="15.172110755873494"><ele>378.5</ele><time>2026-04-12T07:12:24Z</time></trkpt><trkpt lat="37.81190503672035" lon="15.171973281401534"><ele>379.75</ele><time>2026-04-12T07:12:25Z</time></trkpt><trkpt lat="37.81195411565782" lon="15.171856111378508"><ele>381.0</ele><time>2026-04-12T07:12:26Z</time></trkpt><trkpt lat="37.812014017782076" lon="15.171764497206077"><ele>381.0</ele><time>2026-04-12T07:12:27Z</time></trkpt><trkpt lat="37.81209192018319" lon="15.17172301518088"><ele>381.0</ele><time>2026-04-12T07:12:28Z</time></trkpt><trkpt lat="37.81218137858866" lon="15.171714460247872"><ele>381.0</ele><time>2026-04-12T07:12:29Z</time></trkpt><trkpt lat="37.81228042768068" lon="15.171729990441559"><ele>381.0</ele><time>2026-04-12T07:12:30Z</time></trkpt><trkpt lat="37.81238315583119" lon="15.171701102878206"><ele>381.0</ele><time>2026-04-12T07:12:31Z</time></trkpt><trkpt lat="37.81246068407784" lon="15.171616392214208"><ele>381.5</ele><time>2026-04-12T07:12:32Z</time></trkpt><trkpt lat="37.81251472442619" lon="15.171494356929717"><ele>382.0</ele><time>2026-04-12T07:12:33Z</time></trkpt><trkpt lat="37.81255398720473" lon="15.17133181295579"><ele>382.5</ele><time>2026-04-12T07:12:34Z</time></trkpt><trkpt lat="37.812596727424975" lon="15.171153902882732"><ele>383.0</ele><time>2026-04-12T07:12:35Z</time></trkpt><trkpt lat="37.81266094058276" lon="15.17097355234336"><ele>383.6666666666667</ele><time>2026-04-12T07:12:36Z</time></trkpt><trkpt lat="37.81274826266081" lon="15.170783732844214"><ele>384.33333333333337</ele><time>2026-04-12T07:12:37Z</time></trkpt><trkpt lat="37.81285043689663" lon="15.170592007159534"><ele>385.0</ele><time>2026-04-12T07:12:38Z</time></trkpt><trkpt lat="37.81296708693485" lon="15.170396725870154"><ele>387.0</ele><time>2026-04-12T07:12:39Z</time></trkpt><trkpt lat="37.81306856208711" lon="15.170202835497022"><ele>389.0</ele><time>2026-04-12T07:12:40Z</time></trkpt><trkpt lat="37.81316356118665" lon="15.17002510815499"><ele>391.0</ele><time>2026-04-12T07:12:41Z</time></trkpt><trkpt lat="37.81324597616357" lon="15.169849078699688"><ele>392.33333333333337</ele><time>2026-04-12T07:12:42Z</time></trkpt><trkpt lat="37.81331058747283" lon="15.169667485033925"><ele>393.66666666666663</ele><time>2026-04-12T07:12:43Z</time></trkpt><trkpt lat="37.813347816320075" lon="15.169468592114434"><ele>395.0</ele><time>2026-04-12T07:12:44Z</time></trkpt><trkpt lat="37.81336948963285" lon="15.16925604196839"><ele>395.0</ele><time>2026-04-12T07:12:45Z</time></trkpt><trkpt lat="37.81337134053726" lon="15.169030371636833"><ele>395.0</ele><time>2026-04-12T07:12:46Z</time></trkpt><trkpt lat="37.81338173870607" lon="15.168806159100626"><ele>395.0</ele><time>2026-04-12T07:12:47Z</time></trkpt><trkpt lat="37.813395790627055" lon="15.168573687671644"><ele>395.0</ele><time>2026-04-12T07:12:48Z</time></trkpt><trkpt lat="37.81340745255864" lon="15.168341793495042"><ele>395.0</ele><time>2026-04-12T07:12:49Z</time></trkpt><trkpt lat="37.81342076093727" lon="15.168118997979281"><ele>395.0</ele><time>2026-04-12T07:12:50Z</time></trkpt><trkpt lat="37.813432316069104" lon="15.167904157658354"><ele>396.3333333333333</ele><time>2026-04-12T07:12:51Z</time></trkpt><trkpt lat="37.813456606725566" lon="15.167673935567086"><ele>397.66666666666663</ele><time>2026-04-12T07:12:52Z</time></trkpt><trkpt lat="37.81347598639168" lon="15.167428867804972"><ele>399.0</ele><time>2026-04-12T07:12:53Z</time></trkpt><trkpt lat="37.813491669677276" lon="15.167164982321694"><ele>401.66666666666663</ele><time>2026-04-12T07:12:54Z</time></trkpt><trkpt lat="37.81350771222441" lon="15.166888044547598"><ele>404.3333333333333</ele><time>2026-04-12T07:12:55Z</time></trkpt><trkpt lat="37.81352527240248" lon="15.166605284129028"><ele>407.0</ele><time>2026-04-12T07:12:56Z</time></trkpt><trkpt lat="37.813536664173704" lon="15.166316174169392"><ele>409.5</ele><time>2026-04-12T07:12:57Z</time></trkpt><trkpt lat="37.81354659496905" lon="15.166016957375776"><ele>412.0</ele><time>2026-04-12T07:12:58Z</time></trkpt><trkpt lat="37.81356562226398" lon="15.165693326230292"><ele>412.5</ele><time>2026-04-12T07:12:59Z</time></trkpt><trkpt lat="37.81358810618312" lon="15.165383049795395"><ele>413.0</ele><time>2026-04-12T07:13:00Z</time></trkpt><trkpt lat="37.81360107137237" lon="15.165093891502478"><ele>414.66666666666663</ele><time>2026-04-12T07:13:01Z</time></trkpt><trkpt lat="37.81360907559446" lon="15.164851041263509"><ele>416.33333333333337</ele><time>2026-04-12T07:13:02Z</time></trkpt><trkpt lat="37.81362328537944" lon="15.164606559081475"><ele>418.0</ele><time>2026-04-12T07:13:03Z</time></trkpt><trkpt lat="37.813635606211164" lon="15.164390326333756"><ele>418.0</ele><time>2026-04-12T07:13:04Z</time></trkpt><trkpt lat="37.81365316179503" lon="15.164190208145598"><ele>418.0</ele><time>2026-04-12T07:13:05Z</time></trkpt><trkpt lat="37.81368980069326" lon="15.16400926240102"><ele>418.0</ele><time>2026-04-12T07:13:06Z</time></trkpt><trkpt lat="37.8137570407769" lon="15.163834936473522"><ele>418.33333333333337</ele><time>2026-04-12T07:13:07Z</time></trkpt><trkpt lat="37.81384886997194" lon="15.163665892322598"><ele>418.66666666666663</ele><time>2026-04-12T07:13:08Z</time></trkpt><trkpt lat="37.8139245366415" lon="15.163489831524394"><ele>419.0</ele><time>2026-04-12T07:13:09Z</time></trkpt><trkpt lat="37.81398055272971" lon="15.163304651832345"><ele>419.66666666666663</ele><time>2026-04-12T07:13:10Z</time></trkpt><trkpt lat="37.81402343613596" lon="15.163114569870688"><ele>420.33333333333337</ele><time>2026-04-12T07:13:11Z</time></trkpt><trkpt lat="37.814065518303515" lon="15.162917876168974"><ele>421.0</ele><time>2026-04-12T07:13:12Z</time></trkpt><trkpt lat="37.81410551597295" lon="15.162730634766925"><ele>421.0</ele><time>2026-04-12T07:13:13Z</time></trkpt><trkpt lat="37.81414861092642" lon="15.162553988116066"><ele>421.0</ele><time>2026-04-12T07:13:14Z</time></trkpt><trkpt lat="37.81419543262466" lon="15.162385824505144"><ele>421.0</ele><time>2026-04-12T07:13:15Z</time></trkpt><trkpt lat="37.814280720165925" lon="15.162239671473472"><ele>421.0</ele><time>2026-04-12T07:13:16Z</time></trkpt><trkpt lat="37.81440444548772" lon="15.162123709875015"><ele>425.6666666666667</ele><time>2026-04-12T07:13:17Z</time></trkpt><trkpt lat="37.81454093450895" lon="15.162015750151314"><ele>430.33333333333337</ele><time>2026-04-12T07:13:18Z</time></trkpt><trkpt lat="37.81467980511109" lon="15.161903365233444"><ele>435.0</ele><time>2026-04-12T07:13:19Z</time></trkpt><trkpt lat="37.81482874004116" lon="15.161806384141144"><ele>435.0</ele><time>2026-04-12T07:13:20Z</time></trkpt><trkpt lat="37.81499196070987" lon="15.161736992346533"><ele>435.0</ele><time>2026-04-12T07:13:21Z</time></trkpt><trkpt lat="37.81515562826845" lon="15.161673620575753"><ele>435.0</ele><time>2026-04-12T07:13:22Z</time></trkpt><trkpt lat="37.815307414388165" lon="15.16162422126989"><ele>436.5</ele><time>2026-04-12T07:13:23Z</time></trkpt><trkpt lat="37.81544466500153" lon="15.161593868304786"><ele>438.0</ele><time>2026-04-12T07:13:24Z</time></trkpt><trkpt lat="37.81558825112226" lon="15.161610754596923"><ele>439.5</ele><time>2026-04-12T07:13:25Z</time></trkpt><trkpt lat="37.81572231892337" lon="15.161696538539527"><ele>441.0</ele><time>2026-04-12T07:13:26Z</time></trkpt><trkpt lat="37.815858847884584" lon="15.161779819172624"><ele>442.0</ele><time>2026-04-12T07:13:27Z</time></trkpt><trkpt lat="37.81600690513011" lon="15.161833077577164"><ele>443.0</ele><time>2026-04-12T07:13:28Z</time></trkpt><trkpt lat="37.81616329802635" lon="15.161861631519438"><ele>444.0</ele><time>2026-04-12T07:13:29Z</time></trkpt><trkpt lat="37.81632436130486" lon="15.161844045020379"><ele>444.0</ele><time>2026-04-12T07:13:30Z</time></trkpt><trkpt lat="37.816478921500085" lon="15.161787548744083"><ele>444.0</ele><time>2026-04-12T07:13:31Z</time></trkpt><trkpt lat="37.81661611579133" lon="15.161759235095987"><ele>444.0</ele><time>2026-04-12T07:13:32Z</time></trkpt><trkpt lat="37.816755822601245" lon="15.16172824604666"><ele>444.0</ele><time>2026-04-12T07:13:33Z</time></trkpt><trkpt lat="37.81688896790449" lon="15.161675854875883"><ele>444.0</ele><time>2026-04-12T07:13:34Z</time></trkpt><trkpt lat="37.81700790757779" lon="15.16157348284867"><ele>444.0</ele><time>2026-04-12T07:13:35Z</time></trkpt><trkpt lat="37.817098514074395" lon="15.161414585310924"><ele>444.0</ele><time>2026-04-12T07:13:36Z</time></trkpt><trkpt lat="37.81716547497406" lon="15.16124008670051"><ele>445.25</ele><time>2026-04-12T07:13:37Z</time></trkpt><trkpt lat="37.81722420489927" lon="15.161089966396"><ele>446.5</ele><time>2026-04-12T07:13:38Z</time></trkpt><trkpt lat="37.81729433715688" lon="15.160927709615478"><ele>447.75</ele><time>2026-04-12T07:13:39Z</time></trkpt><trkpt lat="37.817364263577204" lon="15.160732818008718"><ele>449.0</ele><time>2026-04-12T07:13:40Z</time></trkpt><trkpt lat="37.81747368252495" lon="15.160522093192652"><ele>452.0</ele><time>2026-04-12T07:13:41Z</time></trkpt><trkpt lat="37.81760966088235" lon="15.160295781459302"><ele>455.0</ele><time>2026-04-12T07:13:42Z</time></trkpt><trkpt lat="37.81776003132808" lon="15.160055740312329"><ele>456.66666666666663</ele><time>2026-04-12T07:13:43Z</time></trkpt><trkpt lat="37.81789600258689" lon="15.1598353637311"><ele>458.33333333333337</ele><time>2026-04-12T07:13:44Z</time></trkpt><trkpt lat="37.81801461168568" lon="15.159634574740446"><ele>460.0</ele><time>2026-04-12T07:13:45Z</time></trkpt><trkpt lat="37.818136093212445" lon="15.159444226977563"><ele>460.0</ele><time>2026-04-12T07:13:46Z</time></trkpt><trkpt lat="37.818277547067645" lon="15.159310633906792"><ele>460.0</ele><time>2026-04-12T07:13:47Z</time></trkpt><trkpt lat="37.81843626663425" lon="15.159228984721388"><ele>460.0</ele><time>2026-04-12T07:13:48Z</time></trkpt><trkpt lat="37.81861204258636" lon="15.159174306927925"><ele>460.33333333333337</ele><time>2026-04-12T07:13:49Z</time></trkpt><trkpt lat="37.8188076587569" lon="15.159135020650067"><ele>460.66666666666663</ele><time>2026-04-12T07:13:50Z</time></trkpt><trkpt lat="37.819015328197445" lon="15.159080970145386"><ele>461.0</ele><time>2026-04-12T07:13:51Z</time></trkpt><trkpt lat="37.819225182051056" lon="15.159009385292208"><ele>463.66666666666663</ele><time>2026-04-12T07:13:52Z</time></trkpt><trkpt lat="37.81943752741252" lon="15.158933979390554"><ele>466.33333333333337</ele><time>2026-04-12T07:13:53Z</time></trkpt><trkpt lat="37.81964562095571" lon="15.158866979014423"><ele>469.0</ele><time>2026-04-12T07:13:54Z</time></trkpt><trkpt lat="37.819845062995334" lon="15.158802339349274"><ele>469.0</ele><time>2026-04-12T07:13:55Z</time></trkpt><trkpt lat="37.82003613959384" lon="15.158718115966579"><ele>469.0</ele><time>2026-04-12T07:13:56Z</time></trkpt><trkpt lat="37.82022657269418" lon="15.158601262157987"><ele>469.0</ele><time>2026-04-12T07:13:57Z</time></trkpt><trkpt lat="37.820416067469615" lon="15.158456434308558"><ele>470.5</ele><time>2026-04-12T07:13:58Z</time></trkpt><trkpt lat="37.82061023387901" lon="15.158309323174928"><ele>472.0</ele><time>2026-04-12T07:13:59Z</time></trkpt><trkpt lat="37.82081076540835" lon="15.158162208701118"><ele>475.0</ele><time>2026-04-12T07:14:00Z</time></trkpt><trkpt lat="37.82101877997987" lon="15.15800674593515"><ele>478.0</ele><time>2026-04-12T07:14:01Z</time></trkpt><trkpt lat="37.82122989231931" lon="15.157855131039717"><ele>478.0</ele><time>2026-04-12T07:14:02Z</time></trkpt><trkpt lat="37.821436594819616" lon="15.157713088564153"><ele>478.0</ele><time>2026-04-12T07:14:03Z</time></trkpt><trkpt lat="37.82162522886146" lon="15.157585849819922"><ele>478.0</ele><time>2026-04-12T07:14:04Z</time></trkpt><trkpt lat="37.82180025416034" lon="15.157477121292446"><ele>479.33333333333337</ele><time>2026-04-12T07:14:05Z</time></trkpt><trkpt lat="37.821959649441304" lon="15.157379190268117"><ele>480.66666666666663</ele><time>2026-04-12T07:14:06Z</time></trkpt><trkpt lat="37.82211150908049" lon="15.157274188261376"><ele>482.0</ele><time>2026-04-12T07:14:07Z</time></trkpt><trkpt lat="37.82223874837092" lon="15.157131445460196"><ele>483.0</ele><time>2026-04-12T07:14:08Z</time></trkpt><trkpt lat="37.822346203336174" lon="15.15695041237596"><ele>484.0</ele><time>2026-04-12T07:14:09Z</time></trkpt><trkpt lat="37.822444106081676" lon="15.15674957885597"><ele>485.0</ele><time>2026-04-12T07:14:10Z</time></trkpt><trkpt lat="37.822561318068786" lon="15.156555413905325"><ele>486.0</ele><time>2026-04-12T07:14:11Z</time></trkpt><trkpt lat="37.82268720333839" lon="15.15635021936629"><ele>487.0</ele><time>2026-04-12T07:14:12Z</time></trkpt><trkpt lat="37.82280288265871" lon="15.156118272186786"><ele>488.0</ele><time>2026-04-12T07:14:13Z</time></trkpt><trkpt lat="37.82290422846636" lon="15.155877553512873"><ele>488.3333333333333</ele><time>2026-04-12T07:14:14Z</time></trkpt><trkpt lat="37.822962822495086" lon="15.15562762904487"><ele>488.66666666666663</ele><time>2026-04-12T07:14:15Z</time></trkpt><trkpt lat="37.822986882070275" lon="15.155349699619443"><ele>489.0</ele><time>2026-04-12T07:14:16Z</time></trkpt><trkpt lat="37.822992710954594" lon="15.155055217559664"><ele>491.0</ele><time>2026-04-12T07:14:17Z</time></trkpt><trkpt lat="37.82302262614647" lon="15.154751957153977"><ele>493.0</ele><time>2026-04-12T07:14:18Z</time></trkpt><trkpt lat="37.82305573766514" lon="15.154434261423399"><ele>493.0</ele><time>2026-04-12T07:14:19Z</time></trkpt><trkpt lat="37.82308722513565" lon="15.154113870335614"><ele>493.0</ele><time>2026-04-12T07:14:20Z</time></trkpt><trkpt lat="37.82311600301534" lon="15.153816379292985"><ele>493.33333333333337</ele><time>2026-04-12T07:14:21Z</time></trkpt><trkpt lat="37.82314509539658" lon="15.153544687351538"><ele>493.66666666666663</ele><time>2026-04-12T07:14:22Z</time></trkpt><trkpt lat="37.82317457197684" lon="15.153287694353075"><ele>494.0</ele><time>2026-04-12T07:14:23Z</time></trkpt><trkpt lat="37.82320742486192" lon="15.15305843650562"><ele>494.0</ele><time>2026-04-12T07:14:24Z</time></trkpt><trkpt lat="37.82326962285017" lon="15.152851790490475"><ele>494.0</ele><time>2026-04-12T07:14:25Z</time></trkpt><trkpt lat="37.82338436960214" lon="15.152660970919927"><ele>494.0</ele><time>2026-04-12T07:14:26Z</time></trkpt><trkpt lat="37.82349693872643" lon="15.152452878651292"><ele>493.66666666666663</ele><time>2026-04-12T07:14:27Z</time></trkpt><trkpt lat="37.823597908872856" lon="15.152224059021972"><ele>493.33333333333337</ele><time>2026-04-12T07:14:28Z</time></trkpt><trkpt lat="37.82370941683484" lon="15.151981368735413"><ele>493.0</ele><time>2026-04-12T07:14:29Z</time></trkpt><trkpt lat="37.823832320717045" lon="15.15172761919811"><ele>494.5</ele><time>2026-04-12T07:14:30Z</time></trkpt><trkpt lat="37.82396645209889" lon="15.151460335023609"><ele>496.0</ele><time>2026-04-12T07:14:31Z</time></trkpt><trkpt lat="37.82410634361835" lon="15.151179354130354"><ele>496.0</ele><time>2026-04-12T07:14:32Z</time></trkpt><trkpt lat="37.824246207029425" lon="15.150890749754808"><ele>496.0</ele><time>2026-04-12T07:14:33Z</time></trkpt><trkpt lat="37.8243784454044" lon="15.150619105661209"><ele>496.5</ele><time>2026-04-12T07:14:34Z</time></trkpt><trkpt lat="37.82450709501293" lon="15.150360279766142"><ele>497.0</ele><time>2026-04-12T07:14:35Z</time></trkpt><trkpt lat="37.82463018409748" lon="15.150104546354363"><ele>497.5</ele><time>2026-04-12T07:14:36Z</time></trkpt><trkpt lat="37.824757533732665" lon="15.149853738711682"><ele>498.0</ele><time>2026-04-12T07:14:37Z</time></trkpt><trkpt lat="37.824883129179284" lon="15.149617280529617"><ele>498.0</ele><time>2026-04-12T07:14:38Z</time></trkpt><trkpt lat="37.82503154943877" lon="15.14941015372853"><ele>498.0</ele><time>2026-04-12T07:14:39Z</time></trkpt><trkpt lat="37.82520766402113" lon="15.149220877764138"><ele>498.5</ele><time>2026-04-12T07:14:40Z</time></trkpt><trkpt lat="37.82540382028074" lon="15.149037321061314"><ele>499.0</ele><time>2026-04-12T07:14:41Z</time></trkpt><trkpt lat="37.82560750874523" lon="15.14883931493894"><ele>499.0</ele><time>2026-04-12T07:14:42Z</time></trkpt><trkpt lat="37.82581661671605" lon="15.148625205769456"><ele>499.0</ele><time>2026-04-12T07:14:43Z</time></trkpt><trkpt lat="37.82601944882461" lon="15.148414809622583"><ele>498.5</ele><time>2026-04-12T07:14:44Z</time></trkpt><trkpt lat="37.826203425577106" lon="15.14822231695225"><ele>498.0</ele><time>2026-04-12T07:14:45Z</time></trkpt><trkpt lat="37.82637746755293" lon="15.148041722271572"><ele>498.0</ele><time>2026-04-12T07:14:46Z</time></trkpt><trkpt lat="37.826542123818676" lon="15.14787232032212"><ele>498.0</ele><time>2026-04-12T07:14:47Z</time></trkpt><trkpt lat="37.826696585362605" lon="15.147707397339362"><ele>498.0</ele><time>2026-04-12T07:14:48Z</time></trkpt><trkpt lat="37.82683452298646" lon="15.147552660292428"><ele>498.66666666666663</ele><time>2026-04-12T07:14:49Z</time></trkpt><trkpt lat="37.82695894028035" lon="15.14739851121564"><ele>499.3333333333333</ele><time>2026-04-12T07:14:50Z</time></trkpt><trkpt lat="37.82707753927308" lon="15.147246527350092"><ele>500.0</ele><time>2026-04-12T07:14:51Z</time></trkpt><trkpt lat="37.82719831211974" lon="15.147103449601236"><ele>500.0</ele><time>2026-04-12T07:14:52Z</time></trkpt><trkpt lat="37.82732771664558" lon="15.146969613700769"><ele>500.0</ele><time>2026-04-12T07:14:53Z</time></trkpt><trkpt lat="37.82747376811354" lon="15.146843496381853"><ele>500.0</ele><time>2026-04-12T07:14:54Z</time></trkpt><trkpt lat="37.827634493862256" lon="15.146734820605577"><ele>500.3333333333333</ele><time>2026-04-12T07:14:55Z</time></trkpt><trkpt lat="37.827805006804404" lon="15.146643822720415"><ele>500.66666666666663</ele><time>2026-04-12T07:14:56Z</time></trkpt><trkpt lat="37.82796780010343" lon="15.146536426543465"><ele>501.0</ele><time>2026-04-12T07:14:57Z</time></trkpt><trkpt lat="37.82811306995894" lon="15.146412880290326"><ele>502.0</ele><time>2026-04-12T07:14:58Z</time></trkpt><trkpt lat="37.82825430916506" lon="15.14628097764508"><ele>503.0</ele><time>2026-04-12T07:14:59Z</time></trkpt><trkpt lat="37.82840202878644" lon="15.146155917083496"><ele>504.0</ele><time>2026-04-12T07:15:00Z</time></trkpt><trkpt lat="37.82854726081514" lon="15.146048465439222"><ele>504.0</ele><time>2026-04-12T07:15:01Z</time></trkpt><trkpt lat="37.82868908985168" lon="15.145956712746909"><ele>504.0</ele><time>2026-04-12T07:15:02Z</time></trkpt><trkpt lat="37.828823718603886" lon="15.145878443813988"><ele>504.0</ele><time>2026-04-12T07:15:03Z</time></trkpt><trkpt lat="37.82894242956512" lon="15.1458107182086"><ele>504.0</ele><time>2026-04-12T07:15:04Z</time></trkpt><trkpt lat="37.8290480219024" lon="15.145754008791686"><ele>505.75</ele><time>2026-04-12T07:15:05Z</time></trkpt><trkpt lat="37.82916068641193" lon="15.145696329533509"><ele>507.5</ele><time>2026-04-12T07:15:06Z</time></trkpt><trkpt lat="37.82928801919836" lon="15.145644576734298"><ele>509.25</ele><time>2026-04-12T07:15:07Z</time></trkpt><trkpt lat="37.829425304607106" lon="15.145600421107067"><ele>511.0</ele><time>2026-04-12T07:15:08Z</time></trkpt><trkpt lat="37.82956448841246" lon="15.145525378104349"><ele>511.0</ele><time>2026-04-12T07:15:09Z</time></trkpt><trkpt lat="37.82970669870911" lon="15.145432404607664"><ele>511.0</ele><time>2026-04-12T07:15:10Z</time></trkpt><trkpt lat="37.829857692486534" lon="15.145338303118308"><ele>511.0</ele><time>2026-04-12T07:15:11Z</time></trkpt><trkpt lat="37.83001708883693" lon="15.145244178285392"><ele>512.6666666666667</ele><time>2026-04-12T07:15:12Z</time></trkpt><trkpt lat="37.83017845055304" lon="15.145170873178504"><ele>514.3333333333334</ele><time>2026-04-12T07:15:13Z</time></trkpt><trkpt lat="37.830348293992536" lon="15.145093914889387"><ele>516.0</ele><time>2026-04-12T07:15:14Z</time></trkpt><trkpt lat="37.830530444201095" lon="15.145038612769174"><ele>516.0</ele><time>2026-04-12T07:15:15Z</time></trkpt><trkpt lat="37.83071593406818" lon="15.145002453856772"><ele>516.0</ele><time>2026-04-12T07:15:16Z</time></trkpt><trkpt lat="37.83088969064199" lon="15.144961497024028"><ele>516.0</ele><time>2026-04-12T07:15:17Z</time></trkpt><trkpt lat="37.83105691980249" lon="15.144921612485303"><ele>517.0</ele><time>2026-04-12T07:15:18Z</time></trkpt><trkpt lat="37.83122758250094" lon="15.144877717291521"><ele>518.0</ele><time>2026-04-12T07:15:19Z</time></trkpt><trkpt lat="37.83140125855068" lon="15.1448320457003"><ele>519.0</ele><time>2026-04-12T07:15:20Z</time></trkpt><trkpt lat="37.83157575065295" lon="15.144774174648262"><ele>519.0</ele><time>2026-04-12T07:15:21Z</time></trkpt><trkpt lat="37.8317495028607" lon="15.144708927799917"><ele>519.0</ele><time>2026-04-12T07:15:22Z</time></trkpt><trkpt lat="37.831921492731176" lon="15.144644587587555"><ele>519.0</ele><time>2026-04-12T07:15:23Z</time></trkpt><trkpt lat="37.83208990010973" lon="15.144584981572743"><ele>517.3333333333334</ele><time>2026-04-12T07:15:24Z</time></trkpt><trkpt lat="37.83225448047896" lon="15.144526580220221"><ele>515.6666666666667</ele><time>2026-04-12T07:15:25Z</time></trkpt><trkpt lat="37.83241179915575" lon="15.14447121400562"><ele>514.0</ele><time>2026-04-12T07:15:26Z</time></trkpt><trkpt lat="37.832561784607115" lon="15.14442781998611"><ele>513.75</ele><time>2026-04-12T07:15:27Z</time></trkpt><trkpt lat="37.832704489059175" lon="15.14440653366391"><ele>513.5</ele><time>2026-04-12T07:15:28Z</time></trkpt><trkpt lat="37.83284381535639" lon="15.144440180654112"><ele>513.25</ele><time>2026-04-12T07:15:29Z</time></trkpt><trkpt lat="37.83298966689727" lon="15.144509002016205"><ele>513.0</ele><time>2026-04-12T07:15:30Z</time></trkpt><trkpt lat="37.833150349469875" lon="15.14453947831316"><ele>513.0</ele><time>2026-04-12T07:15:31Z</time></trkpt><trkpt lat="37.8333179653251" lon="15.144496582890389"><ele>513.0</ele><time>2026-04-12T07:15:32Z</time></trkpt><trkpt lat="37.83348334254227" lon="15.144422182981948"><ele>513.0</ele><time>2026-04-12T07:15:33Z</time></trkpt><trkpt lat="37.833654758459716" lon="15.14434635071763"><ele>514.6666666666666</ele><time>2026-04-12T07:15:34Z</time></trkpt><trkpt lat="37.833832712923986" lon="15.144294754175416"><ele>516.3333333333333</ele><time>2026-04-12T07:15:35Z</time></trkpt><trkpt lat="37.83400598213274" lon="15.144250020141762"><ele>518.0</ele><time>2026-04-12T07:15:36Z</time></trkpt><trkpt lat="37.83417195794064" lon="15.1441947455966"><ele>518.0</ele><time>2026-04-12T07:15:37Z</time></trkpt><trkpt lat="37.834330803867964" lon="15.144131539355778"><ele>518.0</ele><time>2026-04-12T07:15:38Z</time></trkpt><trkpt lat="37.83448367757473" lon="15.144061801847327"><ele>518.0</ele><time>2026-04-12T07:15:39Z</time></trkpt><trkpt lat="37.83463106630431" lon="15.143982972847292"><ele>519.0</ele><time>2026-04-12T07:15:40Z</time></trkpt><trkpt lat="37.834766252035266" lon="15.143892865538211"><ele>520.0</ele><time>2026-04-12T07:15:41Z</time></trkpt><trkpt lat="37.83490073573449" lon="15.143808562542972"><ele>521.0</ele><time>2026-04-12T07:15:42Z</time></trkpt><trkpt lat="37.83504682856" lon="15.143752195225545"><ele>522.0</ele><time>2026-04-12T07:15:43Z</time></trkpt><trkpt lat="37.835199192868764" lon="15.143728206027918"><ele>523.0</ele><time>2026-04-12T07:15:44Z</time></trkpt><trkpt lat="37.83534592764115" lon="15.143722216058569"><ele>524.0</ele><time>2026-04-12T07:15:45Z</time></trkpt><trkpt lat="37.835482880531565" lon="15.14373336596725"><ele>525.0</ele><time>2026-04-12T07:15:46Z</time></trkpt><trkpt lat="37.83559774286815" lon="15.143765436842317"><ele>525.0</ele><time>2026-04-12T07:15:47Z</time></trkpt><trkpt lat="37.83570488047039" lon="15.14380532731027"><ele>525.0</ele><time>2026-04-12T07:15:48Z</time></trkpt><trkpt lat="37.83581844196503" lon="15.143850175285909"><ele>525.0</ele><time>2026-04-12T07:15:49Z</time></trkpt><trkpt lat="37.83592417847303" lon="15.14387867385462"><ele>525.0</ele><time>2026-04-12T07:15:50Z</time></trkpt><trkpt lat="37.83602004264439" lon="15.143901275455041"><ele>525.0</ele><time>2026-04-12T07:15:51Z</time></trkpt><trkpt lat="37.836107062393715" lon="15.143932057822907"><ele>525.6</ele><time>2026-04-12T07:15:52Z</time></trkpt><trkpt lat="37.83618776918551" lon="15.14397526834451"><ele>526.2</ele><time>2026-04-12T07:15:53Z</time></trkpt><trkpt lat="37.8362667548535" lon="15.144031310142605"><ele>526.8</ele><time>2026-04-12T07:15:54Z</time></trkpt><trkpt lat="37.836346257304065" lon="15.14409963816294"><ele>527.4</ele><time>2026-04-12T07:15:55Z</time></trkpt><trkpt lat="37.83643539512238" lon="15.144162665146801"><ele>528.0</ele><time>2026-04-12T07:15:56Z</time></trkpt><trkpt lat="37.83651547267623" lon="15.144228316122808"><ele>528.0</ele><time>2026-04-12T07:15:57Z</time></trkpt><trkpt lat="37.836597690989194" lon="15.144285095090892"><ele>528.0</ele><time>2026-04-12T07:15:58Z</time></trkpt><trkpt lat="37.83668411066155" lon="15.144355231944306"><ele>528.0</ele><time>2026-04-12T07:15:59Z</time></trkpt><trkpt lat="37.836762652630824" lon="15.144436119860128"><ele>528.0</ele><time>2026-04-12T07:16:00Z</time></trkpt><trkpt lat="37.83684776975307" lon="15.144519263877136"><ele>528.0</ele><time>2026-04-12T07:16:01Z</time></trkpt><trkpt lat="37.83694254754659" lon="15.144571122025146"><ele>529.0</ele><time>2026-04-12T07:16:02Z</time></trkpt><trkpt lat="37.83703467268108" lon="15.144634359543927"><ele>530.0</ele><time>2026-04-12T07:16:03Z</time></trkpt><trkpt lat="37.83712643477978" lon="15.144685443751467"><ele>531.0</ele><time>2026-04-12T07:16:04Z</time></trkpt><trkpt lat="37.83722807457018" lon="15.144727167882564"><ele>532.0</ele><time>2026-04-12T07:16:05Z</time></trkpt><trkpt lat="37.837338035851396" lon="15.14476283154972"><ele>533.0</ele><time>2026-04-12T07:16:06Z</time></trkpt><trkpt lat="37.837444542685176" lon="15.14477921721502"><ele>533.0</ele><time>2026-04-12T07:16:07Z</time></trkpt><trkpt lat="37.837550447132145" lon="15.14478118017847"><ele>533.0</ele><time>2026-04-12T07:16:08Z</time></trkpt><trkpt lat="37.83766213248954" lon="15.14478564988563"><ele>533.0</ele><time>2026-04-12T07:16:09Z</time></trkpt><trkpt lat="37.837765407329805" lon="15.144787452503717"><ele>533.0</ele><time>2026-04-12T07:16:10Z</time></trkpt><trkpt lat="37.83787486076668" lon="15.144790823461083"><ele>533.0</ele><time>2026-04-12T07:16:11Z</time></trkpt><trkpt lat="37.83798469612814" lon="15.144791867832694"><ele>533.4</ele><time>2026-04-12T07:16:12Z</time></trkpt><trkpt lat="37.83808908499117" lon="15.144794797281033"><ele>533.8</ele><time>2026-04-12T07:16:13Z</time></trkpt><trkpt lat="37.83818510676604" lon="15.144808582192278"><ele>534.2</ele><time>2026-04-12T07:16:14Z</time></trkpt><trkpt lat="37.838290095840506" lon="15.144819572147345"><ele>534.6</ele><time>2026-04-12T07:16:15Z</time></trkpt><trkpt lat="37.8383920372048" lon="15.14482530641884"><ele>535.0</ele><time>2026-04-12T07:16:16Z</time></trkpt><trkpt lat="37.83849728340879" lon="15.144824467418683"><ele>535.0</ele><time>2026-04-12T07:16:17Z</time></trkpt><trkpt lat="37.83860822821122" lon="15.14480613104611"><ele>535.0</ele><time>2026-04-12T07:16:18Z</time></trkpt><trkpt lat="37.83872469950387" lon="15.144789535574489"><ele>535.0</ele><time>2026-04-12T07:16:19Z</time></trkpt><trkpt lat="37.838838529159396" lon="15.14477843484186"><ele>535.0</ele><time>2026-04-12T07:16:20Z</time></trkpt><trkpt lat="37.83895379191065" lon="15.14477359048244"><ele>535.0</ele><time>2026-04-12T07:16:21Z</time></trkpt><trkpt lat="37.8390682363527" lon="15.144755212281794"><ele>535.0</ele><time>2026-04-12T07:16:22Z</time></trkpt><trkpt lat="37.839182262808805" lon="15.144732895377492"><ele>535.0</ele><time>2026-04-12T07:16:23Z</time></trkpt><trkpt lat="37.83929505421653" lon="15.144714725743743"><ele>535.0</ele><time>2026-04-12T07:16:24Z</time></trkpt><trkpt lat="37.839406062678115" lon="15.144699376876648"><ele>535.4</ele><time>2026-04-12T07:16:25Z</time></trkpt><trkpt lat="37.83951819641831" lon="15.144682822970347"><ele>535.8</ele><time>2026-04-12T07:16:26Z</time></trkpt><trkpt lat="37.839629233444484" lon="15.144665811899772"><ele>536.2</ele><time>2026-04-12T07:16:27Z</time></trkpt><trkpt lat="37.83974011736623" lon="15.144647726353222"><ele>536.6</ele><time>2026-04-12T07:16:28Z</time></trkpt><trkpt lat="37.839849664283335" lon="15.144632892764058"><ele>537.0</ele><time>2026-04-12T07:16:29Z</time></trkpt><trkpt lat="37.839959615667226" lon="15.144614500073851"><ele>537.0</ele><time>2026-04-12T07:16:30Z</time></trkpt><trkpt lat="37.84007175028877" lon="15.144596439873329"><ele>537.0</ele><time>2026-04-12T07:16:31Z</time></trkpt><trkpt lat="37.84018555237998" lon="15.144579614322847"><ele>537.0</ele><time>2026-04-12T07:16:32Z</time></trkpt><trkpt lat="37.84030024481001" lon="15.144559275065163"><ele>537.0</ele><time>2026-04-12T07:16:33Z</time></trkpt><trkpt lat="37.84041466129128" lon="15.144523730258188"><ele>537.25</ele><time>2026-04-12T07:16:34Z</time></trkpt><trkpt lat="37.840525072411246" lon="15.144468010691421"><ele>537.5</ele><time>2026-04-12T07:16:35Z</time></trkpt><trkpt lat="37.84062308169871" lon="15.14438990285199"><ele>537.75</ele><time>2026-04-12T07:16:36Z</time></trkpt><trkpt lat="37.84070426174552" lon="15.144293149142442"><ele>538.0</ele><time>2026-04-12T07:16:37Z</time></trkpt><trkpt lat="37.84078238705045" lon="15.144195903097625"><ele>538.0</ele><time>2026-04-12T07:16:38Z</time></trkpt><trkpt lat="37.84085556987797" lon="15.144104960946443"><ele>538.0</ele><time>2026-04-12T07:16:39Z</time></trkpt><trkpt lat="37.84091235366837" lon="15.144033067641917"><ele>538.0</ele><time>2026-04-12T07:16:40Z</time></trkpt><trkpt lat="37.84096460651388" lon="15.14397464879573"><ele>538.0</ele><time>2026-04-12T07:16:41Z</time></trkpt><trkpt lat="37.84101300727917" lon="15.143912719545812"><ele>538.0</ele><time>2026-04-12T07:16:42Z</time></trkpt><trkpt lat="37.84105886129882" lon="15.14384192837298"><ele>538.0</ele><time>2026-04-12T07:16:43Z</time></trkpt><trkpt lat="37.841106538167374" lon="15.14377199146106"><ele>538.3333333333334</ele><time>2026-04-12T07:16:44Z</time></trkpt><trkpt lat="37.84115773254821" lon="15.143692254110931"><ele>538.6666666666667</ele><time>2026-04-12T07:16:45Z</time></trkpt><trkpt lat="37.84121134744219" lon="15.143605989919651"><ele>539.0</ele><time>2026-04-12T07:16:46Z</time></trkpt><trkpt lat="37.84127197744422" lon="15.143516429711935"><ele>539.3333333333334</ele><time>2026-04-12T07:16:47Z</time></trkpt><trkpt lat="37.84133137647986" lon="15.143428628001757"><ele>539.6666666666666</ele><time>2026-04-12T07:16:48Z</time></trkpt><trkpt lat="37.84139336483265" lon="15.143343561893996"><ele>540.0</ele><time>2026-04-12T07:16:49Z</time></trkpt><trkpt lat="37.84145241198188" lon="15.143254783086977"><ele>540.5</ele><time>2026-04-12T07:16:50Z</time></trkpt><trkpt lat="37.84150984755624" lon="15.143166336783938"><ele>541.0</ele><time>2026-04-12T07:16:51Z</time></trkpt><trkpt lat="37.84156301432313" lon="15.143086601151406"><ele>541.5</ele><time>2026-04-12T07:16:52Z</time></trkpt><trkpt lat="37.84161654541646" lon="15.143008624823795"><ele>542.0</ele><time>2026-04-12T07:16:53Z</time></trkpt><trkpt lat="37.841664335134496" lon="15.142939825864294"><ele>542.5</ele><time>2026-04-12T07:16:54Z</time></trkpt><trkpt lat="37.84174970033115" lon="15.142843879572865"><ele>543.0</ele><time>2026-04-12T07:16:56Z</time></trkpt><trkpt lat="37.841823900436545" lon="15.142777998376948"><ele>543.0</ele><time>2026-04-12T07:16:59Z</time></trkpt><trkpt lat="37.84189186579286" lon="15.142703536879853"><ele>543.0</ele><time>2026-04-12T07:17:02Z</time></trkpt><trkpt lat="37.841949670368294" lon="15.142655618919477"><ele>543.0</ele><time>2026-04-12T07:17:04Z</time></trkpt><trkpt lat="37.84201904251431" lon="15.142590585618104"><ele>543.0</ele><time>2026-04-12T07:17:06Z</time></trkpt><trkpt lat="37.842087681239796" lon="15.142528843545989"><ele>543.0</ele><time>2026-04-12T07:17:08Z</time></trkpt><trkpt lat="37.84216793683578" lon="15.142449711306318"><ele>543.0</ele><time>2026-04-12T07:17:11Z</time></trkpt><trkpt lat="37.842223373386396" lon="15.14239421635195"><ele>543.1428571428571</ele><time>2026-04-12T07:17:15Z</time></trkpt><trkpt lat="37.84227334993019" lon="15.142343479052954"><ele>543.2857142857142</ele><time>2026-04-12T07:17:18Z</time></trkpt><trkpt lat="37.842327290768736" lon="15.142288795969181"><ele>543.4285714285713</ele><time>2026-04-12T07:17:20Z</time></trkpt><trkpt lat="37.8423947846683" lon="15.142223044942822"><ele>543.5714285714286</ele><time>2026-04-12T07:17:22Z</time></trkpt><trkpt lat="37.84245439058365" lon="15.142170402643762"><ele>543.7142857142857</ele><time>2026-04-12T07:17:24Z</time></trkpt><trkpt lat="37.84251576594935" lon="15.142127224932095"><ele>543.8571428571428</ele><time>2026-04-12T07:17:27Z</time></trkpt><trkpt lat="37.84256270222388" lon="15.142069769100537"><ele>544.0</ele><time>2026-04-12T07:17:31Z</time></trkpt><trkpt lat="37.84261805051589" lon="15.142011785473626"><ele>544.0</ele><time>2026-04-12T07:17:35Z</time></trkpt><trkpt lat="37.84267800600597" lon="15.141978006101468"><ele>544.0</ele><time>2026-04-12T07:17:40Z</time></trkpt><trkpt lat="37.842724786288244" lon="15.141915689443065"><ele>544.0</ele><time>2026-04-12T07:17:43Z</time></trkpt><trkpt lat="37.84267283506142" lon="15.141776022635058"><ele>544.0</ele><time>2026-04-12T07:17:44Z</time></trkpt><trkpt lat="37.84264167098078" lon="15.141688757019718"><ele>544.0</ele><time>2026-04-12T07:17:45Z</time></trkpt><trkpt lat="37.84261334170966" lon="15.141591444600651"><ele>544.0</ele><time>2026-04-12T07:17:46Z</time></trkpt><trkpt lat="37.84259016365459" lon="15.14148527760506"><ele>545.25</ele><time>2026-04-12T07:17:47Z</time></trkpt><trkpt lat="37.842560069745645" lon="15.141357913222606"><ele>546.5</ele><time>2026-04-12T07:17:48Z</time></trkpt><trkpt lat="37.84252781510079" lon="15.141210188192806"><ele>547.75</ele><time>2026-04-12T07:17:49Z</time></trkpt><trkpt lat="37.8425022621393" lon="15.141070075874687"><ele>549.0</ele><time>2026-04-12T07:17:50Z</time></trkpt><trkpt lat="37.84246102236399" lon="15.140911056021528"><ele>549.0</ele><time>2026-04-12T07:17:51Z</time></trkpt><trkpt lat="37.84241209716023" lon="15.140772132994378"><ele>549.0</ele><time>2026-04-12T07:17:52Z</time></trkpt><trkpt lat="37.842379207183725" lon="15.140620620468917"><ele>549.0</ele><time>2026-04-12T07:17:53Z</time></trkpt><trkpt lat="37.84233825251717" lon="15.140473381147695"><ele>549.0</ele><time>2026-04-12T07:17:54Z</time></trkpt><trkpt lat="37.842290504218674" lon="15.140329453222837"><ele>549.75</ele><time>2026-04-12T07:17:55Z</time></trkpt><trkpt lat="37.842245565490806" lon="15.140184237103671"><ele>550.5</ele><time>2026-04-12T07:17:56Z</time></trkpt><trkpt lat="37.84221406469697" lon="15.140036756038658"><ele>551.25</ele><time>2026-04-12T07:17:57Z</time></trkpt><trkpt lat="37.842173703180165" lon="15.139886992283659"><ele>552.0</ele><time>2026-04-12T07:17:58Z</time></trkpt><trkpt lat="37.84213477477584" lon="15.13973680865076"><ele>552.25</ele><time>2026-04-12T07:17:59Z</time></trkpt><trkpt lat="37.842085649460536" lon="15.139584660092524"><ele>552.5</ele><time>2026-04-12T07:18:00Z</time></trkpt><trkpt lat="37.842041987947134" lon="15.139429356390869"><ele>552.75</ele><time>2026-04-12T07:18:01Z</time></trkpt><trkpt lat="37.842004817109625" lon="15.139258227207403"><ele>553.0</ele><time>2026-04-12T07:18:02Z</time></trkpt><trkpt lat="37.84195521919199" lon="15.139076883133344"><ele>553.3333333333334</ele><time>2026-04-12T07:18:03Z</time></trkpt><trkpt lat="37.84189913567691" lon="15.138884290853525"><ele>553.6666666666666</ele><time>2026-04-12T07:18:04Z</time></trkpt><trkpt lat="37.84184329245158" lon="15.138689503250399"><ele>554.0</ele><time>2026-04-12T07:18:05Z</time></trkpt><trkpt lat="37.84178683249987" lon="15.13850005373885"><ele>555.3333333333333</ele><time>2026-04-12T07:18:06Z</time></trkpt><trkpt lat="37.84173513035621" lon="15.138308610098886"><ele>556.6666666666666</ele><time>2026-04-12T07:18:07Z</time></trkpt><trkpt lat="37.841683262142475" lon="15.138118053339095"><ele>558.0</ele><time>2026-04-12T07:18:08Z</time></trkpt><trkpt lat="37.84163445740649" lon="15.137927116469575"><ele>558.0</ele><time>2026-04-12T07:18:09Z</time></trkpt><trkpt lat="37.84159125383877" lon="15.137755895621696"><ele>558.0</ele><time>2026-04-12T07:18:10Z</time></trkpt><trkpt lat="37.8415508820104" lon="15.137599390703498"><ele>558.0</ele><time>2026-04-12T07:18:11Z</time></trkpt><trkpt lat="37.84150440869585" lon="15.1374355507063"><ele>558.0</ele><time>2026-04-12T07:18:12Z</time></trkpt><trkpt lat="37.841457683148846" lon="15.137265960910362"><ele>558.0</ele><time>2026-04-12T07:18:13Z</time></trkpt><trkpt lat="37.84140868809572" lon="15.137091727639655"><ele>558.0</ele><time>2026-04-12T07:18:14Z</time></trkpt><trkpt lat="37.84135953506416" lon="15.136910861275597"><ele>558.0</ele><time>2026-04-12T07:18:15Z</time></trkpt><trkpt lat="37.84130414904552" lon="15.136727099530725"><ele>558.0</ele><time>2026-04-12T07:18:16Z</time></trkpt><trkpt lat="37.84124634585518" lon="15.13653001231858"><ele>558.0</ele><time>2026-04-12T07:18:17Z</time></trkpt><trkpt lat="37.84118617643963" lon="15.13632569948608"><ele>558.0</ele><time>2026-04-12T07:18:18Z</time></trkpt><trkpt lat="37.841123494751834" lon="15.136115039042009"><ele>558.0</ele><time>2026-04-12T07:18:19Z</time></trkpt><trkpt lat="37.8410629600211" lon="15.13589393444653"><ele>558.0</ele><time>2026-04-12T07:18:20Z</time></trkpt><trkpt lat="37.8410014230532" lon="15.13566931301552"><ele>558.0</ele><time>2026-04-12T07:18:21Z</time></trkpt><trkpt lat="37.84094217658252" lon="15.135458524398645"><ele>561.0</ele><time>2026-04-12T07:18:22Z</time></trkpt><trkpt lat="37.84088667114232" lon="15.135248227942693"><ele>564.0</ele><time>2026-04-12T07:18:23Z</time></trkpt><trkpt lat="37.84083098416396" lon="15.135038784489272"><ele>567.0</ele><time>2026-04-12T07:18:24Z</time></trkpt><trkpt lat="37.84077314771207" lon="15.13482998950139"><ele>568.6666666666666</ele><time>2026-04-12T07:18:25Z</time></trkpt><trkpt lat="37.84071490418734" lon="15.134617641758227"><ele>570.3333333333333</ele><time>2026-04-12T07:18:26Z</time></trkpt><trkpt lat="37.84066231310366" lon="15.13439765548826"><ele>572.0</ele><time>2026-04-12T07:18:27Z</time></trkpt><trkpt lat="37.84060064460547" lon="15.134172647329967"><ele>572.6666666666666</ele><time>2026-04-12T07:18:28Z</time></trkpt><trkpt lat="37.84053555095261" lon="15.133941776098526"><ele>573.3333333333334</ele><time>2026-04-12T07:18:29Z</time></trkpt><trkpt lat="37.8404672235404" lon="15.133710596018576"><ele>574.0</ele><time>2026-04-12T07:18:30Z</time></trkpt><trkpt lat="37.84040012693694" lon="15.133467659391274"><ele>574.0</ele><time>2026-04-12T07:18:31Z</time></trkpt><trkpt lat="37.8403343924738" lon="15.133219587778031"><ele>574.0</ele><time>2026-04-12T07:18:32Z</time></trkpt><trkpt lat="37.84027307608118" lon="15.132980057583255"><ele>574.0</ele><time>2026-04-12T07:18:33Z</time></trkpt><trkpt lat="37.84020901713263" lon="15.13274571203165"><ele>574.0</ele><time>2026-04-12T07:18:34Z</time></trkpt><trkpt lat="37.84014778603478" lon="15.132521572915351"><ele>574.0</ele><time>2026-04-12T07:18:35Z</time></trkpt><trkpt lat="37.840086252666474" lon="15.132307636897506"><ele>574.0</ele><time>2026-04-12T07:18:36Z</time></trkpt><trkpt lat="37.840024451113244" lon="15.132104994201235"><ele>575.6666666666667</ele><time>2026-04-12T07:18:37Z</time></trkpt><trkpt lat="37.83996705932074" lon="15.131908497124918"><ele>577.3333333333334</ele><time>2026-04-12T07:18:38Z</time></trkpt><trkpt lat="37.839910557146695" lon="15.1317083165971"><ele>579.0</ele><time>2026-04-12T07:18:39Z</time></trkpt><trkpt lat="37.83985506192625" lon="15.131504753022865"><ele>579.6666666666666</ele><time>2026-04-12T07:18:40Z</time></trkpt><trkpt lat="37.83979971697828" lon="15.131297805050371"><ele>580.3333333333333</ele><time>2026-04-12T07:18:41Z</time></trkpt><trkpt lat="37.83974244046843" lon="15.131087406252126"><ele>581.0</ele><time>2026-04-12T07:18:42Z</time></trkpt><trkpt lat="37.8396821266344" lon="15.130871627303426"><ele>582.3333333333333</ele><time>2026-04-12T07:18:43Z</time></trkpt><trkpt lat="37.839620257441446" lon="15.13065554563007"><ele>583.6666666666666</ele><time>2026-04-12T07:18:44Z</time></trkpt><trkpt lat="37.83955875461427" lon="15.130437681790353"><ele>585.0</ele><time>2026-04-12T07:18:45Z</time></trkpt><trkpt lat="37.83949864478823" lon="15.130215417517572"><ele>585.0</ele><time>2026-04-12T07:18:46Z</time></trkpt><trkpt lat="37.83944062917476" lon="15.12999216487193"><ele>585.0</ele><time>2026-04-12T07:18:47Z</time></trkpt><trkpt lat="37.839383140057656" lon="15.12976678326915"><ele>585.0</ele><time>2026-04-12T07:18:48Z</time></trkpt><trkpt lat="37.83931914393916" lon="15.129537992751283"><ele>585.3333333333334</ele><time>2026-04-12T07:18:49Z</time></trkpt><trkpt lat="37.839253968741424" lon="15.129306846118793"><ele>585.6666666666667</ele><time>2026-04-12T07:18:50Z</time></trkpt><trkpt lat="37.83918978243396" lon="15.129074269174724"><ele>586.0</ele><time>2026-04-12T07:18:51Z</time></trkpt><trkpt lat="37.839124391936636" lon="15.128834482216472"><ele>586.6666666666667</ele><time>2026-04-12T07:18:52Z</time></trkpt><trkpt lat="37.83905857570578" lon="15.128590174416187"><ele>587.3333333333334</ele><time>2026-04-12T07:18:53Z</time></trkpt><trkpt lat="37.83899054809116" lon="15.128340670284294"><ele>588.0</ele><time>2026-04-12T07:18:54Z</time></trkpt><trkpt lat="37.83892075767182" lon="15.128087266022224"><ele>588.6666666666666</ele><time>2026-04-12T07:18:55Z</time></trkpt><trkpt lat="37.83885079181185" lon="15.127830582025618"><ele>589.3333333333333</ele><time>2026-04-12T07:18:56Z</time></trkpt><trkpt lat="37.838783991860026" lon="15.127586780005519"><ele>590.0</ele><time>2026-04-12T07:18:57Z</time></trkpt><trkpt lat="37.838719331748656" lon="15.127349035221416"><ele>591.0</ele><time>2026-04-12T07:18:58Z</time></trkpt><trkpt lat="37.83865454302801" lon="15.127111088135246"><ele>592.0</ele><time>2026-04-12T07:18:59Z</time></trkpt><trkpt lat="37.8385881891639" lon="15.126871859883003"><ele>593.0</ele><time>2026-04-12T07:19:00Z</time></trkpt><trkpt lat="37.83851779025443" lon="15.12662992339111"><ele>592.3333333333333</ele><time>2026-04-12T07:19:01Z</time></trkpt><trkpt lat="37.838450931455064" lon="15.126383947788565"><ele>591.6666666666666</ele><time>2026-04-12T07:19:02Z</time></trkpt><trkpt lat="37.838381692124784" lon="15.126133624276461"><ele>591.0</ele><time>2026-04-12T07:19:03Z</time></trkpt><trkpt lat="37.8383141964378" lon="15.12588087770609"><ele>592.0</ele><time>2026-04-12T07:19:04Z</time></trkpt><trkpt lat="37.83824497596853" lon="15.125626023193341"><ele>593.0</ele><time>2026-04-12T07:19:05Z</time></trkpt><trkpt lat="37.83817602737821" lon="15.125368910905799"><ele>594.0</ele><time>2026-04-12T07:19:06Z</time></trkpt><trkpt lat="37.83810613674884" lon="15.125109747199705"><ele>595.6666666666666</ele><time>2026-04-12T07:19:07Z</time></trkpt><trkpt lat="37.83803290917971" lon="15.124855612896678"><ele>597.3333333333333</ele><time>2026-04-12T07:19:08Z</time></trkpt><trkpt lat="37.83796294932795" lon="15.124599313119745"><ele>599.0</ele><time>2026-04-12T07:19:09Z</time></trkpt><trkpt lat="37.83789423792642" lon="15.124347175678801"><ele>599.0</ele><time>2026-04-12T07:19:10Z</time></trkpt><trkpt lat="37.837826438288765" lon="15.124099077665106"><ele>599.0</ele><time>2026-04-12T07:19:11Z</time></trkpt><trkpt lat="37.837759197331515" lon="15.123849460352554"><ele>599.0</ele><time>2026-04-12T07:19:12Z</time></trkpt><trkpt lat="37.837689480075106" lon="15.123597937861936"><ele>602.3333333333333</ele><time>2026-04-12T07:19:13Z</time></trkpt><trkpt lat="37.83762631081731" lon="15.123345208215241"><ele>605.6666666666666</ele><time>2026-04-12T07:19:14Z</time></trkpt><trkpt lat="37.83753548010926" lon="15.123102280418141"><ele>609.0</ele><time>2026-04-12T07:19:15Z</time></trkpt><trkpt lat="37.83740972437339" lon="15.122893639599948"><ele>609.6666666666666</ele><time>2026-04-12T07:19:16Z</time></trkpt><trkpt lat="37.83725886591397" lon="15.122705490914722"><ele>610.3333333333333</ele><time>2026-04-12T07:19:17Z</time></trkpt><trkpt lat="37.83710496305074" lon="15.122524890204938"><ele>611.0</ele><time>2026-04-12T07:19:18Z</time></trkpt><trkpt lat="37.83696552317763" lon="15.12233718088244"><ele>612.0</ele><time>2026-04-12T07:19:19Z</time></trkpt><trkpt lat="37.83684929161808" lon="15.122162116002325"><ele>613.0</ele><time>2026-04-12T07:19:20Z</time></trkpt><trkpt lat="37.836764691961356" lon="15.121982526678032"><ele>614.0</ele><time>2026-04-12T07:19:21Z</time></trkpt><trkpt lat="37.83673075409786" lon="15.121795845655287"><ele>615.3333333333333</ele><time>2026-04-12T07:19:22Z</time></trkpt><trkpt lat="37.83671214918766" lon="15.121595109671231"><ele>616.6666666666666</ele><time>2026-04-12T07:19:23Z</time></trkpt><trkpt lat="37.83668281075045" lon="15.121381437559881"><ele>618.0</ele><time>2026-04-12T07:19:24Z</time></trkpt><trkpt lat="37.836646334537534" lon="15.121161932354646"><ele>620.0</ele><time>2026-04-12T07:19:25Z</time></trkpt><trkpt lat="37.83660790013297" lon="15.120933424549053"><ele>622.0</ele><time>2026-04-12T07:19:26Z</time></trkpt><trkpt lat="37.83656819352508" lon="15.120700341294889"><ele>624.0</ele><time>2026-04-12T07:19:27Z</time></trkpt><trkpt lat="37.8365376288644" lon="15.120476646482464"><ele>625.5</ele><time>2026-04-12T07:19:28Z</time></trkpt><trkpt lat="37.83652820253212" lon="15.120280932821547"><ele>627.0</ele><time>2026-04-12T07:19:29Z</time></trkpt><trkpt lat="37.83655471528207" lon="15.120103895239257"><ele>628.5</ele><time>2026-04-12T07:19:30Z</time></trkpt><trkpt lat="37.83662233439973" lon="15.119945643758115"><ele>630.0</ele><time>2026-04-12T07:19:31Z</time></trkpt><trkpt lat="37.83673543177088" lon="15.119827848016257"><ele>633.0</ele><time>2026-04-12T07:19:32Z</time></trkpt><trkpt lat="37.83687440659593" lon="15.119741937715423"><ele>636.0</ele><time>2026-04-12T07:19:33Z</time></trkpt><trkpt lat="37.837035996401944" lon="15.119699801297134"><ele>639.0</ele><time>2026-04-12T07:19:34Z</time></trkpt><trkpt lat="37.83720603535818" lon="15.119654932442753"><ele>639.0</ele><time>2026-04-12T07:19:35Z</time></trkpt><trkpt lat="37.83737902635988" lon="15.119628177985787"><ele>639.0</ele><time>2026-04-12T07:19:36Z</time></trkpt><trkpt lat="37.8375566556308" lon="15.1196642698682"><ele>639.0</ele><time>2026-04-12T07:19:37Z</time></trkpt><trkpt lat="37.83773251176952" lon="15.119731535980183"><ele>641.0</ele><time>2026-04-12T07:19:38Z</time></trkpt><trkpt lat="37.83789668481949" lon="15.119764827175281"><ele>643.0</ele><time>2026-04-12T07:19:39Z</time></trkpt><trkpt lat="37.83804657288075" lon="15.119753743099144"><ele>645.0</ele><time>2026-04-12T07:19:40Z</time></trkpt><trkpt lat="37.83818298494913" lon="15.119681687237783"><ele>645.0</ele><time>2026-04-12T07:19:41Z</time></trkpt><trkpt lat="37.83830986594963" lon="15.119564827323973"><ele>645.0</ele><time>2026-04-12T07:19:42Z</time></trkpt><trkpt lat="37.83843391611576" lon="15.11942504094199"><ele>645.0</ele><time>2026-04-12T07:19:43Z</time></trkpt><trkpt lat="37.838543250566936" lon="15.119292355537667"><ele>644.75</ele><time>2026-04-12T07:19:44Z</time></trkpt><trkpt lat="37.83862360743806" lon="15.119151266992228"><ele>644.5</ele><time>2026-04-12T07:19:45Z</time></trkpt><trkpt lat="37.83866677616959" lon="15.118976371526621"><ele>644.25</ele><time>2026-04-12T07:19:46Z</time></trkpt><trkpt lat="37.83867804585306" lon="15.11877053625372"><ele>644.0</ele><time>2026-04-12T07:19:47Z</time></trkpt><trkpt lat="37.838708702754474" lon="15.118552488279935"><ele>644.0</ele><time>2026-04-12T07:19:48Z</time></trkpt><trkpt lat="37.838742827391414" lon="15.118320112744824"><ele>644.0</ele><time>2026-04-12T07:19:49Z</time></trkpt><trkpt lat="37.838690041325194" lon="15.11805337303154"><ele>644.0</ele><time>2026-04-12T07:19:50Z</time></trkpt><trkpt lat="37.83869767134145" lon="15.117807856172083"><ele>646.6666666666666</ele><time>2026-04-12T07:19:51Z</time></trkpt><trkpt lat="37.8386999421138" lon="15.117569840494946"><ele>649.3333333333334</ele><time>2026-04-12T07:19:52Z</time></trkpt><trkpt lat="37.83870623041979" lon="15.117350690899702"><ele>652.0</ele><time>2026-04-12T07:19:53Z</time></trkpt><trkpt lat="37.83870861647329" lon="15.117147496696672"><ele>653.3333333333334</ele><time>2026-04-12T07:19:54Z</time></trkpt><trkpt lat="37.83867273209927" lon="15.116949788088476"><ele>654.6666666666666</ele><time>2026-04-12T07:19:55Z</time></trkpt><trkpt lat="37.83858929167466" lon="15.11676863779432"><ele>656.0</ele><time>2026-04-12T07:19:56Z</time></trkpt><trkpt lat="37.83845711476498" lon="15.116624882474438"><ele>658.6666666666666</ele><time>2026-04-12T07:19:57Z</time></trkpt><trkpt lat="37.83830423539743" lon="15.11649806828216"><ele>661.3333333333334</ele><time>2026-04-12T07:19:58Z</time></trkpt><trkpt lat="37.838145393378525" lon="15.116353955855436"><ele>664.0</ele><time>2026-04-12T07:19:59Z</time></trkpt><trkpt lat="37.83799343408278" lon="15.116170321337352"><ele>664.0</ele><time>2026-04-12T07:20:00Z</time></trkpt><trkpt lat="37.83784855419533" lon="15.115945657172402"><ele>664.0</ele><time>2026-04-12T07:20:01Z</time></trkpt><trkpt lat="37.83770335169908" lon="15.115699299721522"><ele>669.0</ele><time>2026-04-12T07:20:02Z</time></trkpt><trkpt lat="37.837554527884635" lon="15.115451764858925"><ele>674.0</ele><time>2026-04-12T07:20:03Z</time></trkpt><trkpt lat="37.8374035469674" lon="15.115211664546052"><ele>674.0</ele><time>2026-04-12T07:20:04Z</time></trkpt><trkpt lat="37.837257656432165" lon="15.114961092649844"><ele>674.0</ele><time>2026-04-12T07:20:05Z</time></trkpt><trkpt lat="37.83711945080691" lon="15.114682183429958"><ele>675.0</ele><time>2026-04-12T07:20:06Z</time></trkpt><trkpt lat="37.836989960786006" lon="15.11437588281097"><ele>676.0</ele><time>2026-04-12T07:20:07Z</time></trkpt><trkpt lat="37.83685856672812" lon="15.11405160029752"><ele>680.0</ele><time>2026-04-12T07:20:08Z</time></trkpt><trkpt lat="37.83671837904948" lon="15.113719131136499"><ele>684.0</ele><time>2026-04-12T07:20:09Z</time></trkpt><trkpt lat="37.83657226385637" lon="15.113376684333149"><ele>686.0</ele><time>2026-04-12T07:20:10Z</time></trkpt><trkpt lat="37.83643793005343" lon="15.113057994557597"><ele>688.0</ele><time>2026-04-12T07:20:11Z</time></trkpt><trkpt lat="37.83631471287074" lon="15.112768272329536"><ele>688.0</ele><time>2026-04-12T07:20:12Z</time></trkpt><trkpt lat="37.83619668837127" lon="15.112496617312006"><ele>688.0</ele><time>2026-04-12T07:20:13Z</time></trkpt><trkpt lat="37.83607502868361" lon="15.112230411499528"><ele>690.5</ele><time>2026-04-12T07:20:14Z</time></trkpt><trkpt lat="37.83594116431538" lon="15.11198366115414"><ele>693.0</ele><time>2026-04-12T07:20:15Z</time></trkpt><trkpt lat="37.83580372858041" lon="15.111759901031839"><ele>694.0</ele><time>2026-04-12T07:20:16Z</time></trkpt><trkpt lat="37.83567647713896" lon="15.111566903507061"><ele>695.0</ele><time>2026-04-12T07:20:17Z</time></trkpt><trkpt lat="37.835567305042055" lon="15.111390930083997"><ele>696.0</ele><time>2026-04-12T07:20:18Z</time></trkpt><trkpt lat="37.83546878524156" lon="15.111228579612456"><ele>696.0</ele><time>2026-04-12T07:20:19Z</time></trkpt><trkpt lat="37.83537373298528" lon="15.111075448656658"><ele>696.0</ele><time>2026-04-12T07:20:20Z</time></trkpt><trkpt lat="37.83525950954299" lon="15.11094103941026"><ele>696.0</ele><time>2026-04-12T07:20:21Z</time></trkpt><trkpt lat="37.83511975044776" lon="15.110845050687276"><ele>697.6666666666666</ele><time>2026-04-12T07:20:22Z</time></trkpt><trkpt lat="37.83495166201052" lon="15.110795761573748"><ele>699.3333333333333</ele><time>2026-04-12T07:20:23Z</time></trkpt><trkpt lat="37.8347804486445" lon="15.110731008451275"><ele>701.0</ele><time>2026-04-12T07:20:24Z</time></trkpt><trkpt lat="37.83460811393965" lon="15.110622574682198"><ele>702.6666666666666</ele><time>2026-04-12T07:20:25Z</time></trkpt><trkpt lat="37.83443161051014" lon="15.11050363435089"><ele>704.3333333333334</ele><time>2026-04-12T07:20:26Z</time></trkpt><trkpt lat="37.83428587066618" lon="15.110389023597952"><ele>706.0</ele><time>2026-04-12T07:20:27Z</time></trkpt><trkpt lat="37.834154323568775" lon="15.110277549109446"><ele>706.6666666666667</ele><time>2026-04-12T07:20:28Z</time></trkpt><trkpt lat="37.834031169753914" lon="15.110142074964234"><ele>707.3333333333334</ele><time>2026-04-12T07:20:29Z</time></trkpt><trkpt lat="37.833926655951124" lon="15.109965153331851"><ele>708.0</ele><time>2026-04-12T07:20:30Z</time></trkpt><trkpt lat="37.833835878310836" lon="15.109755347398263"><ele>709.3333333333334</ele><time>2026-04-12T07:20:31Z</time></trkpt><trkpt lat="37.83375188797591" lon="15.109558877082122"><ele>710.6666666666667</ele><time>2026-04-12T07:20:32Z</time></trkpt><trkpt lat="37.83367806766104" lon="15.109393882940397"><ele>712.0</ele><time>2026-04-12T07:20:33Z</time></trkpt><trkpt lat="37.8336095200437" lon="15.109254109209651"><ele>712.0</ele><time>2026-04-12T07:20:34Z</time></trkpt><trkpt lat="37.8335576118376" lon="15.109143244348887"><ele>712.0</ele><time>2026-04-12T07:20:35Z</time></trkpt><trkpt lat="37.83351724065837" lon="15.10905814817845"><ele>712.0</ele><time>2026-04-12T07:20:36Z</time></trkpt><trkpt lat="37.83348532068011" lon="15.108983818993496"><ele>712.0</ele><time>2026-04-12T07:20:37Z</time></trkpt><trkpt lat="37.833459280355974" lon="15.108878235391096"><ele>712.0</ele><time>2026-04-12T07:20:39Z</time></trkpt><trkpt lat="37.83350393429263" lon="15.108741531871804"><ele>712.8</ele><time>2026-04-12T07:20:43Z</time></trkpt><trkpt lat="37.833588407784084" lon="15.108638099681228"><ele>713.6</ele><time>2026-04-12T07:20:45Z</time></trkpt><trkpt lat="37.833637774202245" lon="15.108561098645461"><ele>714.4</ele><time>2026-04-12T07:20:46Z</time></trkpt><trkpt lat="37.833692294241075" lon="15.108475573446594"><ele>715.1999999999999</ele><time>2026-04-12T07:20:47Z</time></trkpt><trkpt lat="37.83374029790623" lon="15.108394885835901"><ele>716.0</ele><time>2026-04-12T07:20:48Z</time></trkpt><trkpt lat="37.833804416328135" lon="15.108270663432934"><ele>717.8</ele><time>2026-04-12T07:20:50Z</time></trkpt><trkpt lat="37.8338717277044" lon="15.108171722668468"><ele>719.5999999999999</ele><time>2026-04-12T07:20:52Z</time></trkpt><trkpt lat="37.8339214510009" lon="15.10805688704738"><ele>721.4</ele><time>2026-04-12T07:20:54Z</time></trkpt><trkpt lat="37.83398168956932" lon="15.107934104101862"><ele>723.2</ele><time>2026-04-12T07:20:56Z</time></trkpt><trkpt lat="37.83402036919539" lon="15.107860589344796"><ele>725.0</ele><time>2026-04-12T07:20:57Z</time></trkpt><trkpt lat="37.834069973305105" lon="15.107761322661315"><ele>725.0</ele><time>2026-04-12T07:20:58Z</time></trkpt><trkpt lat="37.83413216451066" lon="15.1076453179699"><ele>725.0</ele><time>2026-04-12T07:20:59Z</time></trkpt><trkpt lat="37.834205281816004" lon="15.107493711174982"><ele>725.0</ele><time>2026-04-12T07:21:00Z</time></trkpt><trkpt lat="37.83429246663465" lon="15.107316667323204"><ele>725.0</ele><time>2026-04-12T07:21:01Z</time></trkpt><trkpt lat="37.834388488550715" lon="15.10711729719164"><ele>726.25</ele><time>2026-04-12T07:21:02Z</time></trkpt><trkpt lat="37.834473550420135" lon="15.106934313818874"><ele>727.5</ele><time>2026-04-12T07:21:03Z</time></trkpt><trkpt lat="37.834543700258656" lon="15.106773101849834"><ele>728.75</ele><time>2026-04-12T07:21:04Z</time></trkpt><trkpt lat="37.834607669195634" lon="15.106622122068156"><ele>730.0</ele><time>2026-04-12T07:21:05Z</time></trkpt><trkpt lat="37.83466692610463" lon="15.106482735392174"><ele>732.0</ele><time>2026-04-12T07:21:06Z</time></trkpt><trkpt lat="37.834722845242396" lon="15.10636145082925"><ele>734.0</ele><time>2026-04-12T07:21:07Z</time></trkpt><trkpt lat="37.83477938400813" lon="15.106237085104024"><ele>736.0</ele><time>2026-04-12T07:21:08Z</time></trkpt><trkpt lat="37.834838719755645" lon="15.106098321577779"><ele>738.0</ele><time>2026-04-12T07:21:09Z</time></trkpt><trkpt lat="37.834895309758956" lon="15.10594711800395"><ele>738.0</ele><time>2026-04-12T07:21:10Z</time></trkpt><trkpt lat="37.83495042971367" lon="15.105784546446168"><ele>738.0</ele><time>2026-04-12T07:21:11Z</time></trkpt><trkpt lat="37.8350042585626" lon="15.105611741209891"><ele>738.0</ele><time>2026-04-12T07:21:12Z</time></trkpt><trkpt lat="37.83505520527456" lon="15.105429449778722"><ele>738.0</ele><time>2026-04-12T07:21:13Z</time></trkpt><trkpt lat="37.835107621779834" lon="15.105236681167794"><ele>737.6666666666666</ele><time>2026-04-12T07:21:14Z</time></trkpt><trkpt lat="37.83516823741445" lon="15.10504388016341"><ele>737.3333333333333</ele><time>2026-04-12T07:21:15Z</time></trkpt><trkpt lat="37.835233237757706" lon="15.104847471224145"><ele>737.0</ele><time>2026-04-12T07:21:16Z</time></trkpt><trkpt lat="37.83530949909362" lon="15.104643673521537"><ele>740.6666666666666</ele><time>2026-04-12T07:21:17Z</time></trkpt><trkpt lat="37.835412003082965" lon="15.10443047807473"><ele>744.3333333333334</ele><time>2026-04-12T07:21:18Z</time></trkpt><trkpt lat="37.835513464363736" lon="15.104217244258143"><ele>748.0</ele><time>2026-04-12T07:21:19Z</time></trkpt><trkpt lat="37.83560274204477" lon="15.104010344588485"><ele>750.3333333333334</ele><time>2026-04-12T07:21:20Z</time></trkpt><trkpt lat="37.83567059758389" lon="15.103815462765823"><ele>752.6666666666666</ele><time>2026-04-12T07:21:21Z</time></trkpt><trkpt lat="37.835700924805764" lon="15.103621970786431"><ele>755.0</ele><time>2026-04-12T07:21:22Z</time></trkpt><trkpt lat="37.83569314004507" lon="15.103406094384614"><ele>756.6666666666666</ele><time>2026-04-12T07:21:23Z</time></trkpt><trkpt lat="37.83566307899181" lon="15.10316967778863"><ele>758.3333333333334</ele><time>2026-04-12T07:21:24Z</time></trkpt><trkpt lat="37.83562899412288" lon="15.102907142016228"><ele>760.0</ele><time>2026-04-12T07:21:25Z</time></trkpt><trkpt lat="37.83559821757023" lon="15.102627999863397"><ele>763.0</ele><time>2026-04-12T07:21:26Z</time></trkpt><trkpt lat="37.835568560397654" lon="15.102348930898113"><ele>766.0</ele><time>2026-04-12T07:21:27Z</time></trkpt><trkpt lat="37.83554106183825" lon="15.102078383456684"><ele>769.0</ele><time>2026-04-12T07:21:28Z</time></trkpt><trkpt lat="37.83551051052122" lon="15.101810401324501"><ele>771.0</ele><time>2026-04-12T07:21:29Z</time></trkpt><trkpt lat="37.83548253206902" lon="15.101546120694048"><ele>773.0</ele><time>2026-04-12T07:21:30Z</time></trkpt><trkpt lat="37.83546521691732" lon="15.101278566221525"><ele>775.0</ele><time>2026-04-12T07:21:31Z</time></trkpt><trkpt lat="37.835459047019675" lon="15.101001661377813"><ele>780.0</ele><time>2026-04-12T07:21:32Z</time></trkpt><trkpt lat="37.83545990574137" lon="15.100716191927075"><ele>785.0</ele><time>2026-04-12T07:21:33Z</time></trkpt><trkpt lat="37.835462791462035" lon="15.100424849756628"><ele>785.0</ele><time>2026-04-12T07:21:34Z</time></trkpt><trkpt lat="37.83548497221098" lon="15.100128648110593"><ele>785.0</ele><time>2026-04-12T07:21:35Z</time></trkpt><trkpt lat="37.83551917007923" lon="15.099828616587267"><ele>790.0</ele><time>2026-04-12T07:21:36Z</time></trkpt><trkpt lat="37.835564269009055" lon="15.09953750882394"><ele>795.0</ele><time>2026-04-12T07:21:37Z</time></trkpt><trkpt lat="37.83561971347072" lon="15.099247840160682"><ele>798.5</ele><time>2026-04-12T07:21:38Z</time></trkpt><trkpt lat="37.83568211336621" lon="15.09896500486417"><ele>802.0</ele><time>2026-04-12T07:21:39Z</time></trkpt><trkpt lat="37.83573409317429" lon="15.09868729823468"><ele>802.0</ele><time>2026-04-12T07:21:40Z</time></trkpt><trkpt lat="37.83579462927343" lon="15.098408599026053"><ele>802.0</ele><time>2026-04-12T07:21:41Z</time></trkpt><trkpt lat="37.835876345876066" lon="15.098138795975265"><ele>800.5</ele><time>2026-04-12T07:21:42Z</time></trkpt><trkpt lat="37.835964607969615" lon="15.097876065264204"><ele>799.0</ele><time>2026-04-12T07:21:43Z</time></trkpt><trkpt lat="37.83604833003595" lon="15.097611950827078"><ele>799.0</ele><time>2026-04-12T07:21:44Z</time></trkpt><trkpt lat="37.83612851357185" lon="15.097344427985368"><ele>799.0</ele><time>2026-04-12T07:21:45Z</time></trkpt><trkpt lat="37.8362114140071" lon="15.097074149581134"><ele>799.0</ele><time>2026-04-12T07:21:46Z</time></trkpt><trkpt lat="37.8362927507207" lon="15.096798555953068"><ele>799.0</ele><time>2026-04-12T07:21:47Z</time></trkpt><trkpt lat="37.836377958652264" lon="15.09652259855561"><ele>803.0</ele><time>2026-04-12T07:21:48Z</time></trkpt><trkpt lat="37.83646088912566" lon="15.096246307071215"><ele>807.0</ele><time>2026-04-12T07:21:49Z</time></trkpt><trkpt lat="37.83654228246738" lon="15.095970968436658"><ele>813.0</ele><time>2026-04-12T07:21:50Z</time></trkpt><trkpt lat="37.83661897724841" lon="15.095697346236278"><ele>819.0</ele><time>2026-04-12T07:21:51Z</time></trkpt><trkpt lat="37.836697863301396" lon="15.095427322013922"><ele>819.0</ele><time>2026-04-12T07:21:52Z</time></trkpt><trkpt lat="37.83678097411217" lon="15.095160396163745"><ele>819.0</ele><time>2026-04-12T07:21:53Z</time></trkpt><trkpt lat="37.83687478973232" lon="15.094901159437134"><ele>816.5</ele><time>2026-04-12T07:21:54Z</time></trkpt><trkpt lat="37.83698210665574" lon="15.094646084655434"><ele>814.0</ele><time>2026-04-12T07:21:55Z</time></trkpt><trkpt lat="37.837102100450295" lon="15.094397792557253"><ele>814.0</ele><time>2026-04-12T07:21:56Z</time></trkpt><trkpt lat="37.83724004677239" lon="15.094161749683652"><ele>814.0</ele><time>2026-04-12T07:21:57Z</time></trkpt><trkpt lat="37.83740537309255" lon="15.09394733579322"><ele>814.0</ele><time>2026-04-12T07:21:58Z</time></trkpt><trkpt lat="37.83759496061079" lon="15.09375213936504"><ele>814.0</ele><time>2026-04-12T07:21:59Z</time></trkpt><trkpt lat="37.83778943164443" lon="15.093555462443266"><ele>814.0</ele><time>2026-04-12T07:22:00Z</time></trkpt><trkpt lat="37.83797640401595" lon="15.093343076836705"><ele>814.0</ele><time>2026-04-12T07:22:01Z</time></trkpt><trkpt lat="37.83815375630767" lon="15.093146366534468"><ele>813.6666666666666</ele><time>2026-04-12T07:22:02Z</time></trkpt><trkpt lat="37.838325345282875" lon="15.092970546513659"><ele>813.3333333333333</ele><time>2026-04-12T07:22:03Z</time></trkpt><trkpt lat="37.838484440648045" lon="15.092808582151369"><ele>813.0</ele><time>2026-04-12T07:22:04Z</time></trkpt><trkpt lat="37.838622532620064" lon="15.09265136649457"><ele>813.0</ele><time>2026-04-12T07:22:05Z</time></trkpt><trkpt lat="37.83873134924025" lon="15.092458778326604"><ele>813.0</ele><time>2026-04-12T07:22:06Z</time></trkpt><trkpt lat="37.83880641451517" lon="15.092246836590045"><ele>813.0</ele><time>2026-04-12T07:22:07Z</time></trkpt><trkpt lat="37.83884864835296" lon="15.092009985124678"><ele>813.6666666666667</ele><time>2026-04-12T07:22:08Z</time></trkpt><trkpt lat="37.83889328616538" lon="15.091754232092404"><ele>814.3333333333334</ele><time>2026-04-12T07:22:09Z</time></trkpt><trkpt lat="37.83893816255961" lon="15.091487680672778"><ele>815.0</ele><time>2026-04-12T07:22:10Z</time></trkpt><trkpt lat="37.83898253271965" lon="15.091210574327988"><ele>818.5</ele><time>2026-04-12T07:22:11Z</time></trkpt><trkpt lat="37.83902667247726" lon="15.090927980884794"><ele>822.0</ele><time>2026-04-12T07:22:12Z</time></trkpt><trkpt lat="37.83906871714846" lon="15.090640649788188"><ele>826.0</ele><time>2026-04-12T07:22:13Z</time></trkpt><trkpt lat="37.83911402891866" lon="15.090360197582289"><ele>830.0</ele><time>2026-04-12T07:22:14Z</time></trkpt><trkpt lat="37.8391599735877" lon="15.090105029546164"><ele>834.0</ele><time>2026-04-12T07:22:15Z</time></trkpt><trkpt lat="37.83921542308664" lon="15.08987760842771"><ele>834.3333333333333</ele><time>2026-04-12T07:22:16Z</time></trkpt><trkpt lat="37.839301355439424" lon="15.089669435947343"><ele>834.6666666666666</ele><time>2026-04-12T07:22:17Z</time></trkpt><trkpt lat="37.83942626554288" lon="15.089489127745587"><ele>835.0</ele><time>2026-04-12T07:22:18Z</time></trkpt><trkpt lat="37.839588740618325" lon="15.089343331643304"><ele>835.0</ele><time>2026-04-12T07:22:19Z</time></trkpt><trkpt lat="37.83975571263673" lon="15.089184593225172"><ele>835.0</ele><time>2026-04-12T07:22:20Z</time></trkpt><trkpt lat="37.8399222042548" lon="15.089010766578998"><ele>835.0</ele><time>2026-04-12T07:22:21Z</time></trkpt><trkpt lat="37.84009839024867" lon="15.088838301299337"><ele>838.5</ele><time>2026-04-12T07:22:22Z</time></trkpt><trkpt lat="37.84028450172244" lon="15.08866220997921"><ele>842.0</ele><time>2026-04-12T07:22:23Z</time></trkpt><trkpt lat="37.840467278810515" lon="15.08847927673422"><ele>842.0</ele><time>2026-04-12T07:22:24Z</time></trkpt><trkpt lat="37.84064053733393" lon="15.088300453690303"><ele>842.0</ele><time>2026-04-12T07:22:25Z</time></trkpt><trkpt lat="37.84079023064313" lon="15.088129527458856"><ele>842.0</ele><time>2026-04-12T07:22:26Z</time></trkpt><trkpt lat="37.8408985550417" lon="15.087947810337218"><ele>842.6666666666667</ele><time>2026-04-12T07:22:27Z</time></trkpt><trkpt lat="37.840981948495426" lon="15.087718711630144"><ele>843.3333333333333</ele><time>2026-04-12T07:22:28Z</time></trkpt><trkpt lat="37.84106600381003" lon="15.087469619921626"><ele>844.0</ele><time>2026-04-12T07:22:29Z</time></trkpt><trkpt lat="37.841164388134374" lon="15.087210817514647"><ele>844.0</ele><time>2026-04-12T07:22:30Z</time></trkpt><trkpt lat="37.84127181522614" lon="15.086940899868146"><ele>844.0</ele><time>2026-04-12T07:22:31Z</time></trkpt><trkpt lat="37.841382059176055" lon="15.08665951057189"><ele>848.0</ele><time>2026-04-12T07:22:32Z</time></trkpt><trkpt lat="37.84149379563104" lon="15.086372408332108"><ele>852.0</ele><time>2026-04-12T07:22:33Z</time></trkpt><trkpt lat="37.841605924613035" lon="15.086076313244465"><ele>852.0</ele><time>2026-04-12T07:22:34Z</time></trkpt><trkpt lat="37.84172822515197" lon="15.085784890306485"><ele>852.0</ele><time>2026-04-12T07:22:35Z</time></trkpt><trkpt lat="37.8418646422501" lon="15.085499243052894"><ele>852.0</ele><time>2026-04-12T07:22:36Z</time></trkpt><trkpt lat="37.84202831397414" lon="15.085225208020228"><ele>852.0</ele><time>2026-04-12T07:22:37Z</time></trkpt><trkpt lat="37.8422090038566" lon="15.084961128633124"><ele>857.5</ele><time>2026-04-12T07:22:38Z</time></trkpt><trkpt lat="37.842396052766794" lon="15.084692598803109"><ele>863.0</ele><time>2026-04-12T07:22:39Z</time></trkpt><trkpt lat="37.84257736704891" lon="15.0844232059333"><ele>862.5</ele><time>2026-04-12T07:22:40Z</time></trkpt><trkpt lat="37.84275612501833" lon="15.084167562667888"><ele>862.0</ele><time>2026-04-12T07:22:41Z</time></trkpt><trkpt lat="37.84292098703754" lon="15.083908235650107"><ele>865.0</ele><time>2026-04-12T07:22:42Z</time></trkpt><trkpt lat="37.843070327555125" lon="15.083632975946465"><ele>868.0</ele><time>2026-04-12T07:22:43Z</time></trkpt><trkpt lat="37.84321076024735" lon="15.083347988704585"><ele>864.0</ele><time>2026-04-12T07:22:44Z</time></trkpt><trkpt lat="37.84335074993303" lon="15.083059977444213"><ele>860.0</ele><time>2026-04-12T07:22:45Z</time></trkpt><trkpt lat="37.843488787093634" lon="15.082775105559522"><ele>860.0</ele><time>2026-04-12T07:22:46Z</time></trkpt><trkpt lat="37.84361199684736" lon="15.082521088643555"><ele>860.0</ele><time>2026-04-12T07:22:47Z</time></trkpt><trkpt lat="37.84372554788391" lon="15.08229685918775"><ele>860.0</ele><time>2026-04-12T07:22:48Z</time></trkpt><trkpt lat="37.84383420034313" lon="15.082116357376941"><ele>862.6666666666667</ele><time>2026-04-12T07:22:49Z</time></trkpt><trkpt lat="37.84395170129009" lon="15.081971834375725"><ele>865.3333333333333</ele><time>2026-04-12T07:22:50Z</time></trkpt><trkpt lat="37.84409743668118" lon="15.081864192668434"><ele>868.0</ele><time>2026-04-12T07:22:51Z</time></trkpt><trkpt lat="37.8442656109119" lon="15.08178126907193"><ele>867.3333333333333</ele><time>2026-04-12T07:22:52Z</time></trkpt><trkpt lat="37.84444881864835" lon="15.0816881550977"><ele>866.6666666666667</ele><time>2026-04-12T07:22:53Z</time></trkpt><trkpt lat="37.84463859488336" lon="15.081567886386386"><ele>866.0</ele><time>2026-04-12T07:22:54Z</time></trkpt><trkpt lat="37.84482817108229" lon="15.081412022462379"><ele>866.0</ele><time>2026-04-12T07:22:55Z</time></trkpt><trkpt lat="37.845006601618046" lon="15.081225216969107"><ele>866.0</ele><time>2026-04-12T07:22:56Z</time></trkpt><trkpt lat="37.84515874752604" lon="15.081025063580812"><ele>863.3333333333334</ele><time>2026-04-12T07:22:57Z</time></trkpt><trkpt lat="37.845305880184846" lon="15.080849599308657"><ele>860.6666666666667</ele><time>2026-04-12T07:22:58Z</time></trkpt><trkpt lat="37.84542937317206" lon="15.080655240613243"><ele>858.0</ele><time>2026-04-12T07:22:59Z</time></trkpt><trkpt lat="37.84551847620302" lon="15.08041492363369"><ele>858.0</ele><time>2026-04-12T07:23:00Z</time></trkpt><trkpt lat="37.84558161362021" lon="15.08014541466487"><ele>858.0</ele><time>2026-04-12T07:23:01Z</time></trkpt><trkpt lat="37.845641113315544" lon="15.079863814741195"><ele>859.0</ele><time>2026-04-12T07:23:02Z</time></trkpt><trkpt lat="37.845716617010034" lon="15.079567824656637"><ele>860.0</ele><time>2026-04-12T07:23:03Z</time></trkpt><trkpt lat="37.84579951234014" lon="15.079245400783952"><ele>862.0</ele><time>2026-04-12T07:23:04Z</time></trkpt><trkpt lat="37.845880052667" lon="15.078899752303368"><ele>864.0</ele><time>2026-04-12T07:23:05Z</time></trkpt><trkpt lat="37.845964540387314" lon="15.078533441946266"><ele>861.0</ele><time>2026-04-12T07:23:06Z</time></trkpt><trkpt lat="37.846061525056214" lon="15.078149042836602"><ele>858.0</ele><time>2026-04-12T07:23:07Z</time></trkpt><trkpt lat="37.84616008001907" lon="15.077748774252404"><ele>862.0</ele><time>2026-04-12T07:23:08Z</time></trkpt><trkpt lat="37.84625980210281" lon="15.077336475157628"><ele>866.0</ele><time>2026-04-12T07:23:09Z</time></trkpt><trkpt lat="37.84636123775732" lon="15.076932273268898"><ele>868.0</ele><time>2026-04-12T07:23:10Z</time></trkpt><trkpt lat="37.846458948523015" lon="15.076540336920274"><ele>870.0</ele><time>2026-04-12T07:23:11Z</time></trkpt><trkpt lat="37.84655308394598" lon="15.076156333131113"><ele>870.0</ele><time>2026-04-12T07:23:12Z</time></trkpt><trkpt lat="37.84664522471693" lon="15.075787642871276"><ele>870.0</ele><time>2026-04-12T07:23:13Z</time></trkpt><trkpt lat="37.8467340214822" lon="15.075427895079866"><ele>870.5</ele><time>2026-04-12T07:23:14Z</time></trkpt><trkpt lat="37.846823027125396" lon="15.075077577063757"><ele>871.0</ele><time>2026-04-12T07:23:15Z</time></trkpt><trkpt lat="37.84691088207346" lon="15.07473278444721"><ele>871.0</ele><time>2026-04-12T07:23:16Z</time></trkpt><trkpt lat="37.846991923890585" lon="15.074392963210109"><ele>871.0</ele><time>2026-04-12T07:23:17Z</time></trkpt><trkpt lat="37.84705053702153" lon="15.07407801814024"><ele>874.5</ele><time>2026-04-12T07:23:18Z</time></trkpt><trkpt lat="37.847092576231475" lon="15.073780460841931"><ele>878.0</ele><time>2026-04-12T07:23:19Z</time></trkpt><trkpt lat="37.84712928379836" lon="15.073500152537232"><ele>879.0</ele><time>2026-04-12T07:23:20Z</time></trkpt><trkpt lat="37.84716971328339" lon="15.073240639654253"><ele>880.0</ele><time>2026-04-12T07:23:21Z</time></trkpt><trkpt lat="37.84721152001278" lon="15.073006504833725"><ele>881.0</ele><time>2026-04-12T07:23:22Z</time></trkpt><trkpt lat="37.84725575460204" lon="15.072795569286573"><ele>881.0</ele><time>2026-04-12T07:23:23Z</time></trkpt><trkpt lat="37.84731503395793" lon="15.07261395860456"><ele>881.0</ele><time>2026-04-12T07:23:24Z</time></trkpt><trkpt lat="37.847393146125064" lon="15.072448503086811"><ele>881.0</ele><time>2026-04-12T07:23:25Z</time></trkpt><trkpt lat="37.84750333911058" lon="15.072290950656644"><ele>882.0</ele><time>2026-04-12T07:23:26Z</time></trkpt><trkpt lat="37.8476376340036" lon="15.072137256050338"><ele>883.0</ele><time>2026-04-12T07:23:27Z</time></trkpt><trkpt lat="37.847795778388274" lon="15.071978061283408"><ele>884.0</ele><time>2026-04-12T07:23:28Z</time></trkpt><trkpt lat="37.84795689731184" lon="15.071793026702446"><ele>886.0</ele><time>2026-04-12T07:23:29Z</time></trkpt><trkpt lat="37.84813242776701" lon="15.07159271746069"><ele>888.0</ele><time>2026-04-12T07:23:30Z</time></trkpt><trkpt lat="37.84831573664165" lon="15.071389428738332"><ele>885.6666666666667</ele><time>2026-04-12T07:23:31Z</time></trkpt><trkpt lat="37.84848004522493" lon="15.0712028372489"><ele>883.3333333333334</ele><time>2026-04-12T07:23:32Z</time></trkpt><trkpt lat="37.84863528309823" lon="15.071028210600321"><ele>881.0</ele><time>2026-04-12T07:23:33Z</time></trkpt><trkpt lat="37.84878320222059" lon="15.070872047148868"><ele>883.0</ele><time>2026-04-12T07:23:34Z</time></trkpt><trkpt lat="37.84890705810416" lon="15.070741633568955"><ele>885.0</ele><time>2026-04-12T07:23:35Z</time></trkpt><trkpt lat="37.84902335945433" lon="15.07064442882293"><ele>887.0</ele><time>2026-04-12T07:23:36Z</time></trkpt><trkpt lat="37.849173296380876" lon="15.070574388197983"><ele>885.0</ele><time>2026-04-12T07:23:37Z</time></trkpt><trkpt lat="37.84934946424741" lon="15.070536850424455"><ele>883.0</ele><time>2026-04-12T07:23:38Z</time></trkpt><trkpt lat="37.849541481264964" lon="15.070498383392312"><ele>881.0</ele><time>2026-04-12T07:23:39Z</time></trkpt><trkpt lat="37.8497483188302" lon="15.07044105156179"><ele>881.0</ele><time>2026-04-12T07:23:40Z</time></trkpt><trkpt lat="37.84996001137123" lon="15.070388061220807"><ele>881.0</ele><time>2026-04-12T07:23:41Z</time></trkpt><trkpt lat="37.850162750637885" lon="15.070338030876451"><ele>881.0</ele><time>2026-04-12T07:23:42Z</time></trkpt><trkpt lat="37.85034369850115" lon="15.07029487920467"><ele>878.3333333333334</ele><time>2026-04-12T07:23:43Z</time></trkpt><trkpt lat="37.85050676196973" lon="15.070248652537689"><ele>875.6666666666667</ele><time>2026-04-12T07:23:44Z</time></trkpt><trkpt lat="37.85065004586207" lon="15.07017390661897"><ele>873.0</ele><time>2026-04-12T07:23:45Z</time></trkpt><trkpt lat="37.85078095053237" lon="15.070046805246992"><ele>872.3333333333333</ele><time>2026-04-12T07:23:46Z</time></trkpt><trkpt lat="37.85090379321676" lon="15.069876206363606"><ele>871.6666666666666</ele><time>2026-04-12T07:23:47Z</time></trkpt><trkpt lat="37.85103489289247" lon="15.06967442898236"><ele>871.0</ele><time>2026-04-12T07:23:48Z</time></trkpt><trkpt lat="37.851185342754505" lon="15.069465476740332"><ele>868.5</ele><time>2026-04-12T07:23:49Z</time></trkpt><trkpt lat="37.851349134766934" lon="15.069248772201554"><ele>866.0</ele><time>2026-04-12T07:23:50Z</time></trkpt><trkpt lat="37.851517881668165" lon="15.06902609339752"><ele>866.0</ele><time>2026-04-12T07:23:51Z</time></trkpt><trkpt lat="37.85167993622961" lon="15.06881259119543"><ele>866.0</ele><time>2026-04-12T07:23:52Z</time></trkpt><trkpt lat="37.851835860277276" lon="15.068612841551024"><ele>862.6666666666667</ele><time>2026-04-12T07:23:53Z</time></trkpt><trkpt lat="37.85197357459217" lon="15.068420060299484"><ele>859.3333333333333</ele><time>2026-04-12T07:23:54Z</time></trkpt><trkpt lat="37.8520762804065" lon="15.068196502729585"><ele>856.0</ele><time>2026-04-12T07:23:55Z</time></trkpt><trkpt lat="37.85215275351814" lon="15.06794303762761"><ele>856.0</ele><time>2026-04-12T07:23:56Z</time></trkpt><trkpt lat="37.852212378078434" lon="15.06767244968052"><ele>856.0</ele><time>2026-04-12T07:23:57Z</time></trkpt><trkpt lat="37.85229128203916" lon="15.06739886284493"><ele>855.5</ele><time>2026-04-12T07:23:58Z</time></trkpt><trkpt lat="37.852402108559616" lon="15.067125375980847"><ele>855.0</ele><time>2026-04-12T07:23:59Z</time></trkpt><trkpt lat="37.85254270489477" lon="15.066855865403067"><ele>852.5</ele><time>2026-04-12T07:24:00Z</time></trkpt><trkpt lat="37.85272101416944" lon="15.066599054460527"><ele>850.0</ele><time>2026-04-12T07:24:01Z</time></trkpt><trkpt lat="37.85292626262287" lon="15.06635256290099"><ele>850.0</ele><time>2026-04-12T07:24:02Z</time></trkpt><trkpt lat="37.85312437964534" lon="15.066110935671079"><ele>850.0</ele><time>2026-04-12T07:24:03Z</time></trkpt><trkpt lat="37.853302209664015" lon="15.065868002580647"><ele>848.6666666666666</ele><time>2026-04-12T07:24:04Z</time></trkpt><trkpt lat="37.853458049489696" lon="15.065658479799906"><ele>847.3333333333333</ele><time>2026-04-12T07:24:05Z</time></trkpt><trkpt lat="37.85359192144985" lon="15.065479093091893"><ele>846.0</ele><time>2026-04-12T07:24:06Z</time></trkpt><trkpt lat="37.85370766251823" lon="15.065303165141717"><ele>846.0</ele><time>2026-04-12T07:24:07Z</time></trkpt><trkpt lat="37.853792141809556" lon="15.065091134166707"><ele>846.0</ele><time>2026-04-12T07:24:08Z</time></trkpt><trkpt lat="37.85385241598418" lon="15.064857011477333"><ele>846.0</ele><time>2026-04-12T07:24:09Z</time></trkpt><trkpt lat="37.85389107337236" lon="15.064608863263713"><ele>846.0</ele><time>2026-04-12T07:24:10Z</time></trkpt><trkpt lat="37.85394065058461" lon="15.064359183068808"><ele>846.0</ele><time>2026-04-12T07:24:11Z</time></trkpt><trkpt lat="37.85399984048602" lon="15.064109869154548"><ele>846.0</ele><time>2026-04-12T07:24:12Z</time></trkpt><trkpt lat="37.854057801358195" lon="15.063866260073999"><ele>845.3333333333333</ele><time>2026-04-12T07:24:13Z</time></trkpt><trkpt lat="37.85410228116644" lon="15.063640797387764"><ele>844.6666666666666</ele><time>2026-04-12T07:24:14Z</time></trkpt><trkpt lat="37.85411702680287" lon="15.063408098693255"><ele>844.0</ele><time>2026-04-12T07:24:15Z</time></trkpt><trkpt lat="37.85410099014066" lon="15.063161763179698"><ele>844.0</ele><time>2026-04-12T07:24:16Z</time></trkpt><trkpt lat="37.85406444464021" lon="15.06291231782958"><ele>844.0</ele><time>2026-04-12T07:24:17Z</time></trkpt><trkpt lat="37.854026546823604" lon="15.062641865042465"><ele>844.0</ele><time>2026-04-12T07:24:18Z</time></trkpt><trkpt lat="37.854003689776754" lon="15.06234852439729"><ele>843.0</ele><time>2026-04-12T07:24:19Z</time></trkpt><trkpt lat="37.854008705211996" lon="15.062039357731678"><ele>842.0</ele><time>2026-04-12T07:24:20Z</time></trkpt><trkpt lat="37.85404444265423" lon="15.061731373013698"><ele>841.5</ele><time>2026-04-12T07:24:21Z</time></trkpt><trkpt lat="37.85407488569706" lon="15.061430065271423"><ele>841.0</ele><time>2026-04-12T07:24:22Z</time></trkpt><trkpt lat="37.85409344563247" lon="15.061145482870867"><ele>841.0</ele><time>2026-04-12T07:24:23Z</time></trkpt><trkpt lat="37.85408506992723" lon="15.060872496340624"><ele>841.0</ele><time>2026-04-12T07:24:24Z</time></trkpt><trkpt lat="37.85403138590334" lon="15.060598281497164"><ele>841.0</ele><time>2026-04-12T07:24:25Z</time></trkpt><trkpt lat="37.853933187042394" lon="15.060344475619603"><ele>842.0</ele><time>2026-04-12T07:24:26Z</time></trkpt><trkpt lat="37.853829438953596" lon="15.060090015336403"><ele>843.0</ele><time>2026-04-12T07:24:27Z</time></trkpt><trkpt lat="37.853735130706085" lon="15.059830823544265"><ele>843.0</ele><time>2026-04-12T07:24:28Z</time></trkpt><trkpt lat="37.85364003773277" lon="15.059570485313635"><ele>843.0</ele><time>2026-04-12T07:24:29Z</time></trkpt><trkpt lat="37.85355239205307" lon="15.059299728730803"><ele>843.0</ele><time>2026-04-12T07:24:30Z</time></trkpt><trkpt lat="37.85347726885447" lon="15.05901726971427"><ele>843.0</ele><time>2026-04-12T07:24:31Z</time></trkpt><trkpt lat="37.85342013584728" lon="15.058722325214775"><ele>845.5</ele><time>2026-04-12T07:24:32Z</time></trkpt><trkpt lat="37.85337963211463" lon="15.058413545186491"><ele>848.0</ele><time>2026-04-12T07:24:33Z</time></trkpt><trkpt lat="37.85334278269639" lon="15.058091717693726"><ele>848.0</ele><time>2026-04-12T07:24:34Z</time></trkpt><trkpt lat="37.85329920440132" lon="15.057758097526815"><ele>848.0</ele><time>2026-04-12T07:24:35Z</time></trkpt><trkpt lat="37.853253296940096" lon="15.057419132779795"><ele>847.0</ele><time>2026-04-12T07:24:36Z</time></trkpt><trkpt lat="37.85320526005119" lon="15.057072170185707"><ele>846.0</ele><time>2026-04-12T07:24:37Z</time></trkpt><trkpt lat="37.853155735516594" lon="15.056713282087323"><ele>846.0</ele><time>2026-04-12T07:24:38Z</time></trkpt><trkpt lat="37.85310878885503" lon="15.056347526134699"><ele>846.0</ele><time>2026-04-12T07:24:39Z</time></trkpt><trkpt lat="37.85305721292369" lon="15.055970673736715"><ele>846.0</ele><time>2026-04-12T07:24:40Z</time></trkpt><trkpt lat="37.852997754376915" lon="15.055568145599493"><ele>846.0</ele><time>2026-04-12T07:24:41Z</time></trkpt><trkpt lat="37.85294673728584" lon="15.05514747847745"><ele>843.5</ele><time>2026-04-12T07:24:42Z</time></trkpt><trkpt lat="37.852896744386996" lon="15.054749466794787"><ele>841.0</ele><time>2026-04-12T07:24:43Z</time></trkpt><trkpt lat="37.852845216673494" lon="15.054388075358014"><ele>840.0</ele><time>2026-04-12T07:24:44Z</time></trkpt><trkpt lat="37.852796784922546" lon="15.054048056493729"><ele>839.0</ele><time>2026-04-12T07:24:45Z</time></trkpt><trkpt lat="37.852750814590756" lon="15.053727195734012"><ele>839.0</ele><time>2026-04-12T07:24:46Z</time></trkpt><trkpt lat="37.85270981406302" lon="15.05342750344492"><ele>839.0</ele><time>2026-04-12T07:24:47Z</time></trkpt><trkpt lat="37.85267171857123" lon="15.05313281936452"><ele>841.5</ele><time>2026-04-12T07:24:48Z</time></trkpt><trkpt lat="37.85263877495516" lon="15.052838512521374"><ele>844.0</ele><time>2026-04-12T07:24:49Z</time></trkpt><trkpt lat="37.852613580551605" lon="15.052541482097054"><ele>849.0</ele><time>2026-04-12T07:24:50Z</time></trkpt><trkpt lat="37.85259049883888" lon="15.05225458011555"><ele>854.0</ele><time>2026-04-12T07:24:51Z</time></trkpt><trkpt lat="37.85256832834057" lon="15.05197781722562"><ele>859.0</ele><time>2026-04-12T07:24:52Z</time></trkpt><trkpt lat="37.8525572112668" lon="15.051714853411045"><ele>860.6666666666666</ele><time>2026-04-12T07:24:53Z</time></trkpt><trkpt lat="37.85257012129699" lon="15.051454025533786"><ele>862.3333333333333</ele><time>2026-04-12T07:24:54Z</time></trkpt><trkpt lat="37.85262273433794" lon="15.051201800566016"><ele>864.0</ele><time>2026-04-12T07:24:55Z</time></trkpt><trkpt lat="37.85270366647244" lon="15.050942989535583"><ele>856.0</ele><time>2026-04-12T07:24:56Z</time></trkpt><trkpt lat="37.85277687684505" lon="15.050662887017328"><ele>848.0</ele><time>2026-04-12T07:24:57Z</time></trkpt><trkpt lat="37.85284898776452" lon="15.05036928241108"><ele>848.0</ele><time>2026-04-12T07:24:58Z</time></trkpt><trkpt lat="37.852925910951214" lon="15.050063776244436"><ele>848.0</ele><time>2026-04-12T07:24:59Z</time></trkpt><trkpt lat="37.85300387608671" lon="15.049748239189539"><ele>849.0</ele><time>2026-04-12T07:25:00Z</time></trkpt><trkpt lat="37.85308181586778" lon="15.049433137220133"><ele>850.0</ele><time>2026-04-12T07:25:01Z</time></trkpt><trkpt lat="37.8531646312139" lon="15.049115770753524"><ele>853.0</ele><time>2026-04-12T07:25:02Z</time></trkpt><trkpt lat="37.85325716312393" lon="15.04879877421982"><ele>856.0</ele><time>2026-04-12T07:25:03Z</time></trkpt><trkpt lat="37.85334964072416" lon="15.048485849738903"><ele>859.5</ele><time>2026-04-12T07:25:04Z</time></trkpt><trkpt lat="37.853446017256026" lon="15.048176907954542"><ele>863.0</ele><time>2026-04-12T07:25:05Z</time></trkpt><trkpt lat="37.85354416449257" lon="15.04787270151607"><ele>859.5</ele><time>2026-04-12T07:25:06Z</time></trkpt><trkpt lat="37.85363956830489" lon="15.047568995233803"><ele>856.0</ele><time>2026-04-12T07:25:07Z</time></trkpt><trkpt lat="37.85373136498842" lon="15.047266482762884"><ele>856.0</ele><time>2026-04-12T07:25:08Z</time></trkpt><trkpt lat="37.85382459255265" lon="15.046966850312725"><ele>856.0</ele><time>2026-04-12T07:25:09Z</time></trkpt><trkpt lat="37.85391863014527" lon="15.04667152366961"><ele>859.5</ele><time>2026-04-12T07:25:10Z</time></trkpt><trkpt lat="37.854010339349585" lon="15.046383931813558"><ele>863.0</ele><time>2026-04-12T07:25:11Z</time></trkpt><trkpt lat="37.85409727192924" lon="15.046111770226531"><ele>863.0</ele><time>2026-04-12T07:25:12Z</time></trkpt><trkpt lat="37.85418191229317" lon="15.045846343099985"><ele>863.0</ele><time>2026-04-12T07:25:13Z</time></trkpt><trkpt lat="37.85426941491962" lon="15.045585433084378"><ele>862.3333333333334</ele><time>2026-04-12T07:25:14Z</time></trkpt><trkpt lat="37.85435311347823" lon="15.045324191645118"><ele>861.6666666666667</ele><time>2026-04-12T07:25:15Z</time></trkpt><trkpt lat="37.85443320033818" lon="15.045062480562427"><ele>861.0</ele><time>2026-04-12T07:25:16Z</time></trkpt><trkpt lat="37.85451277635255" lon="15.044802443634191"><ele>861.0</ele><time>2026-04-12T07:25:17Z</time></trkpt><trkpt lat="37.854593049435955" lon="15.04454438388303"><ele>861.0</ele><time>2026-04-12T07:25:18Z</time></trkpt><trkpt lat="37.854674122599775" lon="15.044287984604107"><ele>861.0</ele><time>2026-04-12T07:25:19Z</time></trkpt><trkpt lat="37.854753191136666" lon="15.044034762176372"><ele>864.0</ele><time>2026-04-12T07:25:20Z</time></trkpt><trkpt lat="37.854828936872146" lon="15.043797610386171"><ele>867.0</ele><time>2026-04-12T07:25:21Z</time></trkpt><trkpt lat="37.85489749009279" lon="15.043583986619344"><ele>870.0</ele><time>2026-04-12T07:25:22Z</time></trkpt><trkpt lat="37.854946242689294" lon="15.043392591428967"><ele>867.6666666666667</ele><time>2026-04-12T07:25:23Z</time></trkpt><trkpt lat="37.85496253936383" lon="15.043198707704152"><ele>865.3333333333334</ele><time>2026-04-12T07:25:24Z</time></trkpt><trkpt lat="37.85493422729287" lon="15.04301447262389"><ele>863.0</ele><time>2026-04-12T07:25:25Z</time></trkpt><trkpt lat="37.854866247371746" lon="15.042839804366189"><ele>863.0</ele><time>2026-04-12T07:25:26Z</time></trkpt><trkpt lat="37.854759661620285" lon="15.042677234202452"><ele>863.0</ele><time>2026-04-12T07:25:27Z</time></trkpt><trkpt lat="37.85462134364493" lon="15.042532723863902"><ele>863.0</ele><time>2026-04-12T07:25:28Z</time></trkpt><trkpt lat="37.85447645824943" lon="15.042382475141045"><ele>860.6666666666667</ele><time>2026-04-12T07:25:29Z</time></trkpt><trkpt lat="37.854338490819394" lon="15.042224484023428"><ele>858.3333333333333</ele><time>2026-04-12T07:25:30Z</time></trkpt><trkpt lat="37.85423515056721" lon="15.042053823914102"><ele>856.0</ele><time>2026-04-12T07:25:31Z</time></trkpt><trkpt lat="37.85416771385484" lon="15.041870569331067"><ele>861.6666666666666</ele><time>2026-04-12T07:25:32Z</time></trkpt><trkpt lat="37.8541392479031" lon="15.041672596914756"><ele>867.3333333333333</ele><time>2026-04-12T07:25:33Z</time></trkpt><trkpt lat="37.85413172711025" lon="15.041450994080606"><ele>873.0</ele><time>2026-04-12T07:25:34Z</time></trkpt><trkpt lat="37.854139093020734" lon="15.041212765391561"><ele>873.3333333333333</ele><time>2026-04-12T07:25:35Z</time></trkpt><trkpt lat="37.85414167435499" lon="15.04096129175589"><ele>873.6666666666666</ele><time>2026-04-12T07:25:36Z</time></trkpt><trkpt lat="37.854140052854106" lon="15.040698830617869"><ele>874.0</ele><time>2026-04-12T07:25:37Z</time></trkpt><trkpt lat="37.85414207308778" lon="15.040421042222032"><ele>875.0</ele><time>2026-04-12T07:25:38Z</time></trkpt><trkpt lat="37.85414718339218" lon="15.040130317159607"><ele>876.0</ele><time>2026-04-12T07:25:39Z</time></trkpt><trkpt lat="37.85414750304668" lon="15.039832719823456"><ele>876.0</ele><time>2026-04-12T07:25:40Z</time></trkpt><trkpt lat="37.854144383258664" lon="15.03953283476334"><ele>876.0</ele><time>2026-04-12T07:25:41Z</time></trkpt><trkpt lat="37.85414554850747" lon="15.039231504110838"><ele>877.0</ele><time>2026-04-12T07:25:42Z</time></trkpt><trkpt lat="37.85415666610697" lon="15.038925812913055"><ele>878.0</ele><time>2026-04-12T07:25:43Z</time></trkpt><trkpt lat="37.8541731211295" lon="15.038617470239583"><ele>878.0</ele><time>2026-04-12T07:25:44Z</time></trkpt><trkpt lat="37.85418454885547" lon="15.038315651012455"><ele>878.0</ele><time>2026-04-12T07:25:45Z</time></trkpt><trkpt lat="37.85419573946958" lon="15.038024346504576"><ele>877.6666666666667</ele><time>2026-04-12T07:25:46Z</time></trkpt><trkpt lat="37.85420972052723" lon="15.037744905171811"><ele>877.3333333333333</ele><time>2026-04-12T07:25:47Z</time></trkpt><trkpt lat="37.85422220679947" lon="15.037487729550874"><ele>877.0</ele><time>2026-04-12T07:25:48Z</time></trkpt><trkpt lat="37.854230323560536" lon="15.037258151576376"><ele>876.0</ele><time>2026-04-12T07:25:49Z</time></trkpt><trkpt lat="37.85422325196466" lon="15.037037711449472"><ele>875.0</ele><time>2026-04-12T07:25:50Z</time></trkpt><trkpt lat="37.85419988271794" lon="15.036834554069168"><ele>874.0</ele><time>2026-04-12T07:25:51Z</time></trkpt><trkpt lat="37.854157143783084" lon="15.036644013674161"><ele>873.6666666666666</ele><time>2026-04-12T07:25:52Z</time></trkpt><trkpt lat="37.85407546541233" lon="15.03646303364931"><ele>873.3333333333333</ele><time>2026-04-12T07:25:53Z</time></trkpt><trkpt lat="37.853956030588265" lon="15.036295657361606"><ele>873.0</ele><time>2026-04-12T07:25:54Z</time></trkpt><trkpt lat="37.85381396693377" lon="15.036140103096345"><ele>873.0</ele><time>2026-04-12T07:25:55Z</time></trkpt><trkpt lat="37.85368447658947" lon="15.035961334358898"><ele>873.0</ele><time>2026-04-12T07:25:56Z</time></trkpt><trkpt lat="37.853544490590835" lon="15.035787770659589"><ele>873.0</ele><time>2026-04-12T07:25:57Z</time></trkpt><trkpt lat="37.85341472538784" lon="15.035627763851254"><ele>879.0</ele><time>2026-04-12T07:25:58Z</time></trkpt><trkpt lat="37.85330388261161" lon="15.035481760874701"><ele>885.0</ele><time>2026-04-12T07:25:59Z</time></trkpt><trkpt lat="37.853250092650875" lon="15.035297347467639"><ele>891.0</ele><time>2026-04-12T07:26:00Z</time></trkpt><trkpt lat="37.85323127963673" lon="15.035093611227031"><ele>894.0</ele><time>2026-04-12T07:26:01Z</time></trkpt><trkpt lat="37.85325550872006" lon="15.034882768462094"><ele>897.0</ele><time>2026-04-12T07:26:02Z</time></trkpt><trkpt lat="37.853306830611416" lon="15.034673024339332"><ele>900.0</ele><time>2026-04-12T07:26:03Z</time></trkpt><trkpt lat="37.85339455795779" lon="15.034470549723748"><ele>894.6666666666667</ele><time>2026-04-12T07:26:04Z</time></trkpt><trkpt lat="37.85346641359676" lon="15.034286039899015"><ele>889.3333333333334</ele><time>2026-04-12T07:26:05Z</time></trkpt><trkpt lat="37.85349286264131" lon="15.034086487686817"><ele>884.0</ele><time>2026-04-12T07:26:06Z</time></trkpt><trkpt lat="37.85348518304662" lon="15.033865685840063"><ele>890.6666666666667</ele><time>2026-04-12T07:26:07Z</time></trkpt><trkpt lat="37.85345286810617" lon="15.033634903588123"><ele>897.3333333333333</ele><time>2026-04-12T07:26:08Z</time></trkpt><trkpt lat="37.85344629159157" lon="15.0333890961858"><ele>904.0</ele><time>2026-04-12T07:26:09Z</time></trkpt><trkpt lat="37.85344408701442" lon="15.033133985536628"><ele>898.3333333333333</ele><time>2026-04-12T07:26:10Z</time></trkpt><trkpt lat="37.853477632506184" lon="15.032872267277087"><ele>892.6666666666667</ele><time>2026-04-12T07:26:11Z</time></trkpt><trkpt lat="37.85352479939244" lon="15.032619169517298"><ele>887.0</ele><time>2026-04-12T07:26:12Z</time></trkpt><trkpt lat="37.85356077226514" lon="15.032375148377433"><ele>885.3333333333334</ele><time>2026-04-12T07:26:13Z</time></trkpt><trkpt lat="37.85355641014824" lon="15.032124336870906"><ele>883.6666666666667</ele><time>2026-04-12T07:26:14Z</time></trkpt><trkpt lat="37.85349868779415" lon="15.031897476016576"><ele>882.0</ele><time>2026-04-12T07:26:15Z</time></trkpt><trkpt lat="37.85344205268497" lon="15.031698109192275"><ele>885.3333333333333</ele><time>2026-04-12T07:26:16Z</time></trkpt><trkpt lat="37.85342469257738" lon="15.031505985190442"><ele>888.6666666666666</ele><time>2026-04-12T07:26:17Z</time></trkpt><trkpt lat="37.85346771109412" lon="15.031314995680761"><ele>892.0</ele><time>2026-04-12T07:26:18Z</time></trkpt><trkpt lat="37.853566342641216" lon="15.031141185966575"><ele>892.0</ele><time>2026-04-12T07:26:19Z</time></trkpt><trkpt lat="37.853667143480315" lon="15.030948248520483"><ele>892.0</ele><time>2026-04-12T07:26:20Z</time></trkpt><trkpt lat="37.85377302689687" lon="15.030751740558888"><ele>892.0</ele><time>2026-04-12T07:26:21Z</time></trkpt><trkpt lat="37.85384796398508" lon="15.030575202730594"><ele>896.0</ele><time>2026-04-12T07:26:22Z</time></trkpt><trkpt lat="37.8539017365833" lon="15.03039809921318"><ele>900.0</ele><time>2026-04-12T07:26:23Z</time></trkpt><trkpt lat="37.85389408947937" lon="15.030191035688262"><ele>904.0</ele><time>2026-04-12T07:26:24Z</time></trkpt><trkpt lat="37.85384678642377" lon="15.029980448053486"><ele>902.3333333333333</ele><time>2026-04-12T07:26:25Z</time></trkpt><trkpt lat="37.85376936546006" lon="15.029763070044833"><ele>900.6666666666667</ele><time>2026-04-12T07:26:26Z</time></trkpt><trkpt lat="37.8537149276981" lon="15.029519366369518"><ele>899.0</ele><time>2026-04-12T07:26:27Z</time></trkpt><trkpt lat="37.85364718537492" lon="15.029265651682413"><ele>900.3333333333334</ele><time>2026-04-12T07:26:28Z</time></trkpt><trkpt lat="37.85359717736871" lon="15.02901355116221"><ele>901.6666666666667</ele><time>2026-04-12T07:26:29Z</time></trkpt><trkpt lat="37.853583315902725" lon="15.028753364670333"><ele>903.0</ele><time>2026-04-12T07:26:30Z</time></trkpt><trkpt lat="37.85357075197863" lon="15.028485071860802"><ele>905.6666666666667</ele><time>2026-04-12T07:26:31Z</time></trkpt><trkpt lat="37.85362170307121" lon="15.028222043381538"><ele>908.3333333333334</ele><time>2026-04-12T07:26:32Z</time></trkpt><trkpt lat="37.85371945695608" lon="15.027982957615743"><ele>911.0</ele><time>2026-04-12T07:26:33Z</time></trkpt><trkpt lat="37.85383355566979" lon="15.027759486018176"><ele>911.0</ele><time>2026-04-12T07:26:34Z</time></trkpt><trkpt lat="37.85391827367358" lon="15.027522865494813"><ele>911.0</ele><time>2026-04-12T07:26:35Z</time></trkpt><trkpt lat="37.853978255071965" lon="15.027267269590665"><ele>911.0</ele><time>2026-04-12T07:26:36Z</time></trkpt><trkpt lat="37.85400998478736" lon="15.026995031897538"><ele>912.6666666666667</ele><time>2026-04-12T07:26:37Z</time></trkpt><trkpt lat="37.854042968406894" lon="15.026725768961542"><ele>914.3333333333333</ele><time>2026-04-12T07:26:38Z</time></trkpt><trkpt lat="37.85405207942216" lon="15.026466888103926"><ele>916.0</ele><time>2026-04-12T07:26:39Z</time></trkpt><trkpt lat="37.85411545910532" lon="15.02622359150763"><ele>914.6666666666666</ele><time>2026-04-12T07:26:40Z</time></trkpt><trkpt lat="37.8542142781861" lon="15.025985708245289"><ele>913.3333333333333</ele><time>2026-04-12T07:26:41Z</time></trkpt><trkpt lat="37.85433618757781" lon="15.025742468075542"><ele>912.0</ele><time>2026-04-12T07:26:42Z</time></trkpt><trkpt lat="37.854463403063065" lon="15.025474493754883"><ele>912.0</ele><time>2026-04-12T07:26:43Z</time></trkpt><trkpt lat="37.85458766739085" lon="15.025195045840398"><ele>912.0</ele><time>2026-04-12T07:26:44Z</time></trkpt><trkpt lat="37.85471052415896" lon="15.024932216495861"><ele>912.6666666666667</ele><time>2026-04-12T07:26:45Z</time></trkpt><trkpt lat="37.854825593155866" lon="15.024692416667744"><ele>913.3333333333334</ele><time>2026-04-12T07:26:46Z</time></trkpt><trkpt lat="37.85491216904289" lon="15.024449241087725"><ele>914.0</ele><time>2026-04-12T07:26:47Z</time></trkpt><trkpt lat="37.85496254013578" lon="15.024181761799973"><ele>912.3333333333334</ele><time>2026-04-12T07:26:48Z</time></trkpt><trkpt lat="37.854982407609064" lon="15.023896134616397"><ele>910.6666666666667</ele><time>2026-04-12T07:26:49Z</time></trkpt><trkpt lat="37.85499838399503" lon="15.02362057850068"><ele>909.0</ele><time>2026-04-12T07:26:50Z</time></trkpt><trkpt lat="37.85501075418122" lon="15.023346288194265"><ele>908.5</ele><time>2026-04-12T07:26:51Z</time></trkpt><trkpt lat="37.854982258963666" lon="15.023061878468225"><ele>908.0</ele><time>2026-04-12T07:26:52Z</time></trkpt><trkpt lat="37.85492990666122" lon="15.022772397918851"><ele>908.0</ele><time>2026-04-12T07:26:53Z</time></trkpt><trkpt lat="37.854860714996875" lon="15.022481801917015"><ele>908.0</ele><time>2026-04-12T07:26:54Z</time></trkpt><trkpt lat="37.85479258175924" lon="15.022203370523119"><ele>907.3333333333334</ele><time>2026-04-12T07:26:55Z</time></trkpt><trkpt lat="37.85473294780196" lon="15.021954184702746"><ele>906.6666666666667</ele><time>2026-04-12T07:26:56Z</time></trkpt><trkpt lat="37.85465941237705" lon="15.02172864350031"><ele>906.0</ele><time>2026-04-12T07:26:57Z</time></trkpt><trkpt lat="37.85454951897198" lon="15.021522361977084"><ele>905.3333333333333</ele><time>2026-04-12T07:26:58Z</time></trkpt><trkpt lat="37.854403664658825" lon="15.021336327746274"><ele>904.6666666666666</ele><time>2026-04-12T07:26:59Z</time></trkpt><trkpt lat="37.85425307265322" lon="15.02115021020437"><ele>904.0</ele><time>2026-04-12T07:27:00Z</time></trkpt><trkpt lat="37.854103974249526" lon="15.020951033005307"><ele>909.0</ele><time>2026-04-12T07:27:01Z</time></trkpt><trkpt lat="37.85394743913066" lon="15.020750700157068"><ele>914.0</ele><time>2026-04-12T07:27:02Z</time></trkpt><trkpt lat="37.853785606345035" lon="15.02054873776617"><ele>914.0</ele><time>2026-04-12T07:27:03Z</time></trkpt><trkpt lat="37.853623952668215" lon="15.020345383440016"><ele>914.0</ele><time>2026-04-12T07:27:04Z</time></trkpt><trkpt lat="37.853465537908335" lon="15.020149656699507"><ele>914.0</ele><time>2026-04-12T07:27:05Z</time></trkpt><trkpt lat="37.85333189907836" lon="15.01994540367459"><ele>917.0</ele><time>2026-04-12T07:27:06Z</time></trkpt><trkpt lat="37.85319213042697" lon="15.019764808674331"><ele>920.0</ele><time>2026-04-12T07:27:07Z</time></trkpt><trkpt lat="37.85305990906884" lon="15.019605699328409"><ele>923.0</ele><time>2026-04-12T07:27:08Z</time></trkpt><trkpt lat="37.8529834424034" lon="15.01941596188221"><ele>923.0</ele><time>2026-04-12T07:27:09Z</time></trkpt><trkpt lat="37.85294695579628" lon="15.019218525695601"><ele>923.0</ele><time>2026-04-12T07:27:10Z</time></trkpt><trkpt lat="37.852977234619175" lon="15.019008927016602"><ele>923.0</ele><time>2026-04-12T07:27:11Z</time></trkpt><trkpt lat="37.853011587341854" lon="15.018771475640822"><ele>924.0</ele><time>2026-04-12T07:27:12Z</time></trkpt><trkpt lat="37.85306049395784" lon="15.018523435607618"><ele>925.0</ele><time>2026-04-12T07:27:13Z</time></trkpt><trkpt lat="37.853106617954" lon="15.018293506594803"><ele>926.0</ele><time>2026-04-12T07:27:14Z</time></trkpt><trkpt lat="37.853173167940795" lon="15.018096785506637"><ele>928.3333333333334</ele><time>2026-04-12T07:27:15Z</time></trkpt><trkpt lat="37.85326925638779" lon="15.017939420210858"><ele>930.6666666666667</ele><time>2026-04-12T07:27:16Z</time></trkpt><trkpt lat="37.85339798368415" lon="15.017814648290628"><ele>933.0</ele><time>2026-04-12T07:27:17Z</time></trkpt><trkpt lat="37.853558398684875" lon="15.0177227213311"><ele>933.0</ele><time>2026-04-12T07:27:18Z</time></trkpt><trkpt lat="37.853729428511976" lon="15.017631459940363"><ele>933.0</ele><time>2026-04-12T07:27:19Z</time></trkpt><trkpt lat="37.853893557755576" lon="15.017504631560302"><ele>933.0</ele><time>2026-04-12T07:27:20Z</time></trkpt><trkpt lat="37.85404695328996" lon="15.017355648243118"><ele>934.3333333333333</ele><time>2026-04-12T07:27:21Z</time></trkpt><trkpt lat="37.85418129100727" lon="15.017219582611563"><ele>935.6666666666666</ele><time>2026-04-12T07:27:22Z</time></trkpt><trkpt lat="37.85428944048181" lon="15.01705570357027"><ele>937.0</ele><time>2026-04-12T07:27:23Z</time></trkpt><trkpt lat="37.854359275085926" lon="15.016847268620836"><ele>938.0</ele><time>2026-04-12T07:27:24Z</time></trkpt><trkpt lat="37.85438925708262" lon="15.0166096454824"><ele>939.0</ele><time>2026-04-12T07:27:25Z</time></trkpt><trkpt lat="37.85439801781191" lon="15.016354977500228"><ele>940.0</ele><time>2026-04-12T07:27:26Z</time></trkpt><trkpt lat="37.85442003577281" lon="15.016086636294675"><ele>940.5</ele><time>2026-04-12T07:27:27Z</time></trkpt><trkpt lat="37.854453122733126" lon="15.015806446398841"><ele>941.0</ele><time>2026-04-12T07:27:28Z</time></trkpt><trkpt lat="37.854483043936526" lon="15.015522219815368"><ele>941.0</ele><time>2026-04-12T07:27:29Z</time></trkpt><trkpt lat="37.854504079677405" lon="15.015240192310836"><ele>941.0</ele><time>2026-04-12T07:27:30Z</time></trkpt><trkpt lat="37.854503291156746" lon="15.014985979029474"><ele>941.0</ele><time>2026-04-12T07:27:31Z</time></trkpt><trkpt lat="37.85445797213678" lon="15.014764602392091"><ele>940.3333333333334</ele><time>2026-04-12T07:27:32Z</time></trkpt><trkpt lat="37.85436871247249" lon="15.014554810155103"><ele>939.6666666666667</ele><time>2026-04-12T07:27:33Z</time></trkpt><trkpt lat="37.85426203935088" lon="15.01435280274086"><ele>939.0</ele><time>2026-04-12T07:27:34Z</time></trkpt><trkpt lat="37.85418142539817" lon="15.014124961463901"><ele>943.3333333333333</ele><time>2026-04-12T07:27:35Z</time></trkpt><trkpt lat="37.85414392791096" lon="15.013859233579446"><ele>947.6666666666666</ele><time>2026-04-12T07:27:36Z</time></trkpt><trkpt lat="37.854119082559144" lon="15.013565542815632"><ele>952.0</ele><time>2026-04-12T07:27:37Z</time></trkpt><trkpt lat="37.85408367445589" lon="15.013243350973777"><ele>953.5</ele><time>2026-04-12T07:27:38Z</time></trkpt><trkpt lat="37.85404334291742" lon="15.01289870249086"><ele>955.0</ele><time>2026-04-12T07:27:39Z</time></trkpt><trkpt lat="37.85399994017976" lon="15.012536281119553"><ele>955.0</ele><time>2026-04-12T07:27:40Z</time></trkpt><trkpt lat="37.85396002194817" lon="15.012182037066047"><ele>955.0</ele><time>2026-04-12T07:27:41Z</time></trkpt><trkpt lat="37.85392575680957" lon="15.011862410816304"><ele>954.0</ele><time>2026-04-12T07:27:42Z</time></trkpt><trkpt lat="37.853903009028066" lon="15.011568857116965"><ele>953.0</ele><time>2026-04-12T07:27:43Z</time></trkpt><trkpt lat="37.853907337469124" lon="15.011282928564002"><ele>953.0</ele><time>2026-04-12T07:27:44Z</time></trkpt><trkpt lat="37.85394206519638" lon="15.010984698807425"><ele>953.0</ele><time>2026-04-12T07:27:45Z</time></trkpt><trkpt lat="37.854020855373285" lon="15.010672503238222"><ele>953.5</ele><time>2026-04-12T07:27:46Z</time></trkpt><trkpt lat="37.85411989961893" lon="15.01036904131594"><ele>954.0</ele><time>2026-04-12T07:27:47Z</time></trkpt><trkpt lat="37.85421702516311" lon="15.010069510122634"><ele>951.0</ele><time>2026-04-12T07:27:48Z</time></trkpt><trkpt lat="37.85429093394985" lon="15.00976530383144"><ele>948.0</ele><time>2026-04-12T07:27:49Z</time></trkpt><trkpt lat="37.85433228193957" lon="15.009460227286484"><ele>948.5</ele><time>2026-04-12T07:27:50Z</time></trkpt><trkpt lat="37.854343171162654" lon="15.009133352711789"><ele>949.0</ele><time>2026-04-12T07:27:51Z</time></trkpt><trkpt lat="37.85433136413743" lon="15.008787975175359"><ele>949.0</ele><time>2026-04-12T07:27:52Z</time></trkpt><trkpt lat="37.85431990820911" lon="15.008420194618866"><ele>949.0</ele><time>2026-04-12T07:27:53Z</time></trkpt><trkpt lat="37.85431558743079" lon="15.008031000854809"><ele>948.0</ele><time>2026-04-12T07:27:54Z</time></trkpt><trkpt lat="37.854309533143976" lon="15.007623741320089"><ele>947.0</ele><time>2026-04-12T07:27:55Z</time></trkpt><trkpt lat="37.85430172753511" lon="15.007211098910016"><ele>946.5</ele><time>2026-04-12T07:27:56Z</time></trkpt><trkpt lat="37.854291675071295" lon="15.006834923393505"><ele>946.0</ele><time>2026-04-12T07:27:57Z</time></trkpt><trkpt lat="37.85428091497425" lon="15.006480208055114"><ele>949.0</ele><time>2026-04-12T07:27:58Z</time></trkpt><trkpt lat="37.85426786216002" lon="15.006144766914876"><ele>952.0</ele><time>2026-04-12T07:27:59Z</time></trkpt><trkpt lat="37.85425305814769" lon="15.005821054752152"><ele>952.0</ele><time>2026-04-12T07:28:00Z</time></trkpt><trkpt lat="37.854238201425915" lon="15.005501438160984"><ele>952.0</ele><time>2026-04-12T07:28:01Z</time></trkpt><trkpt lat="37.85422411268076" lon="15.005198221686477"><ele>952.3333333333333</ele><time>2026-04-12T07:28:02Z</time></trkpt><trkpt lat="37.85420969364662" lon="15.00491221580531"><ele>952.6666666666667</ele><time>2026-04-12T07:28:03Z</time></trkpt><trkpt lat="37.85420125754033" lon="15.004639769723996"><ele>953.0</ele><time>2026-04-12T07:28:04Z</time></trkpt><trkpt lat="37.85422686734293" lon="15.004377406410848"><ele>950.0</ele><time>2026-04-12T07:28:05Z</time></trkpt><trkpt lat="37.854296372493415" lon="15.004122479521266"><ele>947.0</ele><time>2026-04-12T07:28:06Z</time></trkpt><trkpt lat="37.85441908163533" lon="15.003889097856499"><ele>944.0</ele><time>2026-04-12T07:28:07Z</time></trkpt><trkpt lat="37.854584941956624" lon="15.003682748162177"><ele>944.0</ele><time>2026-04-12T07:28:08Z</time></trkpt><trkpt lat="37.85478170737148" lon="15.003506164044067"><ele>944.0</ele><time>2026-04-12T07:28:09Z</time></trkpt><trkpt lat="37.854962424034085" lon="15.003297775905192"><ele>947.5</ele><time>2026-04-12T07:28:10Z</time></trkpt><trkpt lat="37.855089168096136" lon="15.003052399385282"><ele>951.0</ele><time>2026-04-12T07:28:11Z</time></trkpt><trkpt lat="37.855180031769926" lon="15.002768945731642"><ele>947.5</ele><time>2026-04-12T07:28:12Z</time></trkpt><trkpt lat="37.855276165938314" lon="15.002475933148194"><ele>944.0</ele><time>2026-04-12T07:28:13Z</time></trkpt><trkpt lat="37.85538468030942" lon="15.002184467631661"><ele>944.0</ele><time>2026-04-12T07:28:14Z</time></trkpt><trkpt lat="37.85549723282566" lon="15.001891224166803"><ele>944.0</ele><time>2026-04-12T07:28:15Z</time></trkpt><trkpt lat="37.8556071859429" lon="15.001605614431783"><ele>946.0</ele><time>2026-04-12T07:28:16Z</time></trkpt><trkpt lat="37.8557124760646" lon="15.001333075428454"><ele>948.0</ele><time>2026-04-12T07:28:17Z</time></trkpt><trkpt lat="37.85580898465501" lon="15.001083775703675"><ele>948.0</ele><time>2026-04-12T07:28:18Z</time></trkpt><trkpt lat="37.85589509507615" lon="15.00084774959556"><ele>948.0</ele><time>2026-04-12T07:28:19Z</time></trkpt><trkpt lat="37.85595954024242" lon="15.00060660370727"><ele>948.0</ele><time>2026-04-12T07:28:20Z</time></trkpt><trkpt lat="37.85598408502602" lon="15.0003438927519"><ele>946.0</ele><time>2026-04-12T07:28:21Z</time></trkpt><trkpt lat="37.855967907491014" lon="15.000055235489738"><ele>944.0</ele><time>2026-04-12T07:28:22Z</time></trkpt><trkpt lat="37.8559422589717" lon="14.999752448437608"><ele>944.0</ele><time>2026-04-12T07:28:23Z</time></trkpt><trkpt lat="37.85592282814465" lon="14.999432842374963"><ele>944.0</ele><time>2026-04-12T07:28:24Z</time></trkpt><trkpt lat="37.85590146322395" lon="14.999094648381705"><ele>941.5</ele><time>2026-04-12T07:28:25Z</time></trkpt><trkpt lat="37.85587206152496" lon="14.998737063263059"><ele>939.0</ele><time>2026-04-12T07:28:26Z</time></trkpt><trkpt lat="37.855840837636784" lon="14.998385194421653"><ele>940.0</ele><time>2026-04-12T07:28:27Z</time></trkpt><trkpt lat="37.85581697400797" lon="14.99807938592373"><ele>941.0</ele><time>2026-04-12T07:28:28Z</time></trkpt><trkpt lat="37.85579760590269" lon="14.997810326403814"><ele>941.0</ele><time>2026-04-12T07:28:29Z</time></trkpt><trkpt lat="37.85578196141688" lon="14.99755256375844"><ele>941.0</ele><time>2026-04-12T07:28:30Z</time></trkpt><trkpt lat="37.85579283448523" lon="14.997309486518777"><ele>941.0</ele><time>2026-04-12T07:28:31Z</time></trkpt><trkpt lat="37.85584773987628" lon="14.997064534734536"><ele>940.5</ele><time>2026-04-12T07:28:32Z</time></trkpt><trkpt lat="37.85593654472219" lon="14.996810042457424"><ele>940.0</ele><time>2026-04-12T07:28:33Z</time></trkpt><trkpt lat="37.85603273145879" lon="14.996539384157007"><ele>933.0</ele><time>2026-04-12T07:28:34Z</time></trkpt><trkpt lat="37.85613186652825" lon="14.996237139725334"><ele>926.0</ele><time>2026-04-12T07:28:35Z</time></trkpt><trkpt lat="37.85623328332095" lon="14.995909523754406"><ele>925.0</ele><time>2026-04-12T07:28:36Z</time></trkpt><trkpt lat="37.856330678338715" lon="14.995602616004952"><ele>924.0</ele><time>2026-04-12T07:28:37Z</time></trkpt><trkpt lat="37.85642727750076" lon="14.99532604464896"><ele>924.0</ele><time>2026-04-12T07:28:38Z</time></trkpt><trkpt lat="37.85651225916181" lon="14.995092272925927"><ele>924.0</ele><time>2026-04-12T07:28:39Z</time></trkpt><trkpt lat="37.85659235804195" lon="14.994862530518327"><ele>924.0</ele><time>2026-04-12T07:28:40Z</time></trkpt><trkpt lat="37.85665729873966" lon="14.99462367102829"><ele>925.0</ele><time>2026-04-12T07:28:41Z</time></trkpt><trkpt lat="37.85668246058898" lon="14.994350039879464"><ele>926.0</ele><time>2026-04-12T07:28:42Z</time></trkpt><trkpt lat="37.85667177467442" lon="14.994057376112844"><ele>927.0</ele><time>2026-04-12T07:28:43Z</time></trkpt><trkpt lat="37.85664383624996" lon="14.99374494789758"><ele>927.0</ele><time>2026-04-12T07:28:44Z</time></trkpt><trkpt lat="37.85661688837163" lon="14.993398108366724"><ele>927.0</ele><time>2026-04-12T07:28:45Z</time></trkpt><trkpt lat="37.8565950065727" lon="14.993020764488382"><ele>926.5</ele><time>2026-04-12T07:28:46Z</time></trkpt><trkpt lat="37.85656932297653" lon="14.992646600387738"><ele>926.0</ele><time>2026-04-12T07:28:47Z</time></trkpt><trkpt lat="37.856544253059745" lon="14.992302466552518"><ele>923.5</ele><time>2026-04-12T07:28:48Z</time></trkpt><trkpt lat="37.85652306520409" lon="14.991976700490081"><ele>921.0</ele><time>2026-04-12T07:28:49Z</time></trkpt><trkpt lat="37.85650602703596" lon="14.99166216093448"><ele>919.5</ele><time>2026-04-12T07:28:50Z</time></trkpt><trkpt lat="37.85649389530423" lon="14.991365490376397"><ele>918.0</ele><time>2026-04-12T07:28:51Z</time></trkpt><trkpt lat="37.85648263275882" lon="14.991085414855245"><ele>919.0</ele><time>2026-04-12T07:28:52Z</time></trkpt><trkpt lat="37.85646969716196" lon="14.990824614845337"><ele>920.0</ele><time>2026-04-12T07:28:53Z</time></trkpt><trkpt lat="37.85645440679788" lon="14.990584053266291"><ele>921.0</ele><time>2026-04-12T07:28:54Z</time></trkpt><trkpt lat="37.856441076590805" lon="14.990361315484249"><ele>921.0</ele><time>2026-04-12T07:28:55Z</time></trkpt><trkpt lat="37.856432008603726" lon="14.990156973709455"><ele>921.0</ele><time>2026-04-12T07:28:56Z</time></trkpt><trkpt lat="37.85642364221116" lon="14.989966693680724"><ele>921.0</ele><time>2026-04-12T07:28:57Z</time></trkpt><trkpt lat="37.85641124329129" lon="14.989787617212224"><ele>921.75</ele><time>2026-04-12T07:28:58Z</time></trkpt><trkpt lat="37.85639278308122" lon="14.989611757854131"><ele>922.5</ele><time>2026-04-12T07:28:59Z</time></trkpt><trkpt lat="37.85635017978713" lon="14.98944556682591"><ele>923.25</ele><time>2026-04-12T07:29:00Z</time></trkpt><trkpt lat="37.85627143410163" lon="14.989296436259764"><ele>924.0</ele><time>2026-04-12T07:29:01Z</time></trkpt><trkpt lat="37.85616954086338" lon="14.989164344524298"><ele>924.0</ele><time>2026-04-12T07:29:02Z</time></trkpt><trkpt lat="37.8560659218686" lon="14.989033171359338"><ele>924.0</ele><time>2026-04-12T07:29:03Z</time></trkpt><trkpt lat="37.8559676220488" lon="14.988891672913192"><ele>924.0</ele><time>2026-04-12T07:29:04Z</time></trkpt><trkpt lat="37.85587174924914" lon="14.988746306436456"><ele>924.0</ele><time>2026-04-12T07:29:05Z</time></trkpt><trkpt lat="37.855774680934296" lon="14.988602926080937"><ele>925.0</ele><time>2026-04-12T07:29:06Z</time></trkpt><trkpt lat="37.855676744409536" lon="14.98845725262125"><ele>926.0</ele><time>2026-04-12T07:29:07Z</time></trkpt><trkpt lat="37.85557859211539" lon="14.98831135425887"><ele>927.0</ele><time>2026-04-12T07:29:08Z</time></trkpt><trkpt lat="37.85549688261454" lon="14.988149269269842"><ele>927.0</ele><time>2026-04-12T07:29:09Z</time></trkpt><trkpt lat="37.85544206918555" lon="14.98796603205648"><ele>927.0</ele><time>2026-04-12T07:29:10Z</time></trkpt><trkpt lat="37.85542702210376" lon="14.987776703267881"><ele>927.0</ele><time>2026-04-12T07:29:11Z</time></trkpt><trkpt lat="37.85545201178831" lon="14.987594396429706"><ele>925.6666666666667</ele><time>2026-04-12T07:29:12Z</time></trkpt><trkpt lat="37.85550914312663" lon="14.987420438180038"><ele>924.3333333333334</ele><time>2026-04-12T07:29:13Z</time></trkpt><trkpt lat="37.85558096701788" lon="14.987247120012908"><ele>923.0</ele><time>2026-04-12T07:29:14Z</time></trkpt><trkpt lat="37.85565098298964" lon="14.9870646319372"><ele>923.0</ele><time>2026-04-12T07:29:15Z</time></trkpt><trkpt lat="37.85571764116533" lon="14.986863808971647"><ele>923.0</ele><time>2026-04-12T07:29:16Z</time></trkpt><trkpt lat="37.855784668240325" lon="14.986662770327074"><ele>923.0</ele><time>2026-04-12T07:29:17Z</time></trkpt><trkpt lat="37.85585672178004" lon="14.986467239700765"><ele>922.3333333333334</ele><time>2026-04-12T07:29:18Z</time></trkpt><trkpt lat="37.85593106015408" lon="14.986276205867048"><ele>921.6666666666667</ele><time>2026-04-12T07:29:19Z</time></trkpt><trkpt lat="37.856004750082285" lon="14.98608199379359"><ele>921.0</ele><time>2026-04-12T07:29:20Z</time></trkpt><trkpt lat="37.856070325117166" lon="14.985884324266337"><ele>916.3333333333333</ele><time>2026-04-12T07:29:21Z</time></trkpt><trkpt lat="37.856121155785935" lon="14.985680999205725"><ele>911.6666666666666</ele><time>2026-04-12T07:29:22Z</time></trkpt><trkpt lat="37.85615046200867" lon="14.985469887870837"><ele>907.0</ele><time>2026-04-12T07:29:23Z</time></trkpt><trkpt lat="37.856149666953975" lon="14.985265432186978"><ele>907.0</ele><time>2026-04-12T07:29:24Z</time></trkpt><trkpt lat="37.85611881011777" lon="14.985070042320235"><ele>907.0</ele><time>2026-04-12T07:29:25Z</time></trkpt><trkpt lat="37.856077352396134" lon="14.984889766593264"><ele>907.0</ele><time>2026-04-12T07:29:26Z</time></trkpt><trkpt lat="37.85601065976918" lon="14.984733370943541"><ele>907.0</ele><time>2026-04-12T07:29:27Z</time></trkpt><trkpt lat="37.85595162892807" lon="14.984585424835998"><ele>908.5</ele><time>2026-04-12T07:29:28Z</time></trkpt><trkpt lat="37.85590192946669" lon="14.984432174850625"><ele>910.0</ele><time>2026-04-12T07:29:29Z</time></trkpt><trkpt lat="37.85586023567034" lon="14.98427938452492"><ele>911.5</ele><time>2026-04-12T07:29:30Z</time></trkpt><trkpt lat="37.85581854834916" lon="14.984125666379617"><ele>913.0</ele><time>2026-04-12T07:29:31Z</time></trkpt><trkpt lat="37.855771127079386" lon="14.983977409324485"><ele>913.0</ele><time>2026-04-12T07:29:32Z</time></trkpt><trkpt lat="37.8557221107192" lon="14.983829149975934"><ele>913.0</ele><time>2026-04-12T07:29:33Z</time></trkpt><trkpt lat="37.85567352880195" lon="14.983677453618737"><ele>913.0</ele><time>2026-04-12T07:29:34Z</time></trkpt><trkpt lat="37.85562679675404" lon="14.98351969131147"><ele>913.0</ele><time>2026-04-12T07:29:35Z</time></trkpt><trkpt lat="37.85557421163701" lon="14.983363530988317"><ele>911.25</ele><time>2026-04-12T07:29:36Z</time></trkpt><trkpt lat="37.85551650737565" lon="14.983214967039132"><ele>909.5</ele><time>2026-04-12T07:29:37Z</time></trkpt><trkpt lat="37.8554517214159" lon="14.98307332867863"><ele>907.75</ele><time>2026-04-12T07:29:38Z</time></trkpt><trkpt lat="37.855373123775266" lon="14.982938828845697"><ele>906.0</ele><time>2026-04-12T07:29:39Z</time></trkpt><trkpt lat="37.85529477084669" lon="14.982802254783984"><ele>906.0</ele><time>2026-04-12T07:29:40Z</time></trkpt><trkpt lat="37.855224469418566" lon="14.982658224963792"><ele>906.0</ele><time>2026-04-12T07:29:41Z</time></trkpt><trkpt lat="37.85515879721755" lon="14.982506620559167"><ele>906.0</ele><time>2026-04-12T07:29:42Z</time></trkpt><trkpt lat="37.855094263461005" lon="14.982349427956626"><ele>906.0</ele><time>2026-04-12T07:29:43Z</time></trkpt><trkpt lat="37.85503312114208" lon="14.982189555484315"><ele>907.25</ele><time>2026-04-12T07:29:44Z</time></trkpt><trkpt lat="37.85497988976509" lon="14.982024096011255"><ele>908.5</ele><time>2026-04-12T07:29:45Z</time></trkpt><trkpt lat="37.85493099268816" lon="14.981856872906329"><ele>909.75</ele><time>2026-04-12T07:29:46Z</time></trkpt><trkpt lat="37.85488743598096" lon="14.981689650710216"><ele>911.0</ele><time>2026-04-12T07:29:47Z</time></trkpt><trkpt lat="37.854845107967996" lon="14.981517717724843"><ele>911.0</ele><time>2026-04-12T07:29:48Z</time></trkpt><trkpt lat="37.8548027000924" lon="14.981345664965431"><ele>911.0</ele><time>2026-04-12T07:29:49Z</time></trkpt><trkpt lat="37.85475897206361" lon="14.981174060119145"><ele>911.0</ele><time>2026-04-12T07:29:50Z</time></trkpt><trkpt lat="37.85471645846989" lon="14.981002095238662"><ele>911.0</ele><time>2026-04-12T07:29:51Z</time></trkpt><trkpt lat="37.854674221906166" lon="14.98083125787419"><ele>910.0</ele><time>2026-04-12T07:29:52Z</time></trkpt><trkpt lat="37.85463317255789" lon="14.980665338121405"><ele>909.0</ele><time>2026-04-12T07:29:53Z</time></trkpt><trkpt lat="37.854592341796476" lon="14.980503073820783"><ele>908.0</ele><time>2026-04-12T07:29:54Z</time></trkpt><trkpt lat="37.854554515719265" lon="14.980343130147087"><ele>907.0</ele><time>2026-04-12T07:29:55Z</time></trkpt><trkpt lat="37.85451900438857" lon="14.980184696117599"><ele>907.0</ele><time>2026-04-12T07:29:56Z</time></trkpt><trkpt lat="37.854481801715835" lon="14.980025847244667"><ele>907.0</ele><time>2026-04-12T07:29:57Z</time></trkpt><trkpt lat="37.85444105828919" lon="14.979873106548744"><ele>907.0</ele><time>2026-04-12T07:29:58Z</time></trkpt><trkpt lat="37.85440583368341" lon="14.979713697895829"><ele>907.0</ele><time>2026-04-12T07:29:59Z</time></trkpt><trkpt lat="37.85437886944482" lon="14.979554775387427"><ele>907.0</ele><time>2026-04-12T07:30:00Z</time></trkpt><trkpt lat="37.85435668567635" lon="14.979393525033064"><ele>907.0</ele><time>2026-04-12T07:30:01Z</time></trkpt><trkpt lat="37.85434430462523" lon="14.979231375022097"><ele>907.0</ele><time>2026-04-12T07:30:02Z</time></trkpt><trkpt lat="37.85434923087952" lon="14.979067006103662"><ele>907.0</ele><time>2026-04-12T07:30:03Z</time></trkpt><trkpt lat="37.85436711313141" lon="14.978902202938627"><ele>908.0</ele><time>2026-04-12T07:30:04Z</time></trkpt><trkpt lat="37.85439459121247" lon="14.978735127270864"><ele>909.0</ele><time>2026-04-12T07:30:05Z</time></trkpt><trkpt lat="37.8544216560839" lon="14.978565530931682"><ele>910.0</ele><time>2026-04-12T07:30:06Z</time></trkpt><trkpt lat="37.8544431966574" lon="14.978395510421356"><ele>911.0</ele><time>2026-04-12T07:30:07Z</time></trkpt><trkpt lat="37.8544647080807" lon="14.978238106240855"><ele>911.25</ele><time>2026-04-12T07:30:08Z</time></trkpt><trkpt lat="37.85448794755843" lon="14.978088917550087"><ele>911.5</ele><time>2026-04-12T07:30:09Z</time></trkpt><trkpt lat="37.85451023145986" lon="14.977944578975913"><ele>911.75</ele><time>2026-04-12T07:30:10Z</time></trkpt><trkpt lat="37.85452953444989" lon="14.977805714336574"><ele>912.0</ele><time>2026-04-12T07:30:11Z</time></trkpt><trkpt lat="37.85455080120325" lon="14.9776727541666"><ele>912.0</ele><time>2026-04-12T07:30:12Z</time></trkpt><trkpt lat="37.85456906485232" lon="14.977545622649249"><ele>912.0</ele><time>2026-04-12T07:30:13Z</time></trkpt><trkpt lat="37.85458811056968" lon="14.977426914352634"><ele>912.0</ele><time>2026-04-12T07:30:14Z</time></trkpt><trkpt lat="37.854605396662585" lon="14.977309980176686"><ele>912.0</ele><time>2026-04-12T07:30:15Z</time></trkpt><trkpt lat="37.85462292197949" lon="14.977197636287238"><ele>912.0</ele><time>2026-04-12T07:30:16Z</time></trkpt><trkpt lat="37.85463939474646" lon="14.977092173246989"><ele>912.2</ele><time>2026-04-12T07:30:17Z</time></trkpt><trkpt lat="37.854657804061226" lon="14.976981449615314"><ele>912.4000000000001</ele><time>2026-04-12T07:30:18Z</time></trkpt><trkpt lat="37.85467724434103" lon="14.976861723771657"><ele>912.5999999999999</ele><time>2026-04-12T07:30:19Z</time></trkpt><trkpt lat="37.85469460994528" lon="14.976732550754773"><ele>912.8</ele><time>2026-04-12T07:30:20Z</time></trkpt><trkpt lat="37.85471218244014" lon="14.976596087121186"><ele>913.0</ele><time>2026-04-12T07:30:21Z</time></trkpt><trkpt lat="37.85473470887253" lon="14.97643959899806"><ele>912.0</ele><time>2026-04-12T07:30:22Z</time></trkpt><trkpt lat="37.854760226112504" lon="14.976255729387649"><ele>911.0</ele><time>2026-04-12T07:30:23Z</time></trkpt><trkpt lat="37.85479261378548" lon="14.976041241580306"><ele>910.0</ele><time>2026-04-12T07:30:24Z</time></trkpt><trkpt lat="37.85482876785602" lon="14.975794257517675"><ele>910.0</ele><time>2026-04-12T07:30:25Z</time></trkpt><trkpt lat="37.85487501823013" lon="14.975535505689761"><ele>910.0</ele><time>2026-04-12T07:30:26Z</time></trkpt><trkpt lat="37.85493674184157" lon="14.975267493752257"><ele>910.0</ele><time>2026-04-12T07:30:27Z</time></trkpt><trkpt lat="37.855013542018504" lon="14.974991513196775"><ele>910.0</ele><time>2026-04-12T07:30:28Z</time></trkpt><trkpt lat="37.855102168968244" lon="14.974718840491073"><ele>910.0</ele><time>2026-04-12T07:30:29Z</time></trkpt><trkpt lat="37.85517608068967" lon="14.974448422997476"><ele>904.0</ele><time>2026-04-12T07:30:30Z</time></trkpt><trkpt lat="37.85522532897052" lon="14.974168216045467"><ele>898.0</ele><time>2026-04-12T07:30:31Z</time></trkpt><trkpt lat="37.85523984392387" lon="14.973867070397388"><ele>898.0</ele><time>2026-04-12T07:30:32Z</time></trkpt><trkpt lat="37.8552372291322" lon="14.973559203803847"><ele>898.0</ele><time>2026-04-12T07:30:33Z</time></trkpt><trkpt lat="37.85522041495951" lon="14.973255191068082"><ele>897.6666666666666</ele><time>2026-04-12T07:30:34Z</time></trkpt><trkpt lat="37.85520559479416" lon="14.97296282410511"><ele>897.3333333333333</ele><time>2026-04-12T07:30:35Z</time></trkpt><trkpt lat="37.85519896490747" lon="14.972691110472415"><ele>897.0</ele><time>2026-04-12T07:30:36Z</time></trkpt><trkpt lat="37.85519602467758" lon="14.972432180955074"><ele>895.6666666666667</ele><time>2026-04-12T07:30:37Z</time></trkpt><trkpt lat="37.855192553266136" lon="14.972188663633123"><ele>894.3333333333334</ele><time>2026-04-12T07:30:38Z</time></trkpt><trkpt lat="37.85520721641003" lon="14.971957744829366"><ele>893.0</ele><time>2026-04-12T07:30:39Z</time></trkpt><trkpt lat="37.85525358451608" lon="14.971724977026337"><ele>895.3333333333334</ele><time>2026-04-12T07:30:40Z</time></trkpt><trkpt lat="37.85533234782679" lon="14.971501124027187"><ele>897.6666666666667</ele><time>2026-04-12T07:30:41Z</time></trkpt><trkpt lat="37.855440397347195" lon="14.971289037892696"><ele>900.0</ele><time>2026-04-12T07:30:42Z</time></trkpt><trkpt lat="37.855571446368565" lon="14.971082507701938"><ele>900.0</ele><time>2026-04-12T07:30:43Z</time></trkpt><trkpt lat="37.85569442532987" lon="14.970868170657887"><ele>900.0</ele><time>2026-04-12T07:30:44Z</time></trkpt><trkpt lat="37.85580375897208" lon="14.97065647963658"><ele>900.0</ele><time>2026-04-12T07:30:45Z</time></trkpt><trkpt lat="37.85588849084576" lon="14.970448128341422"><ele>902.0</ele><time>2026-04-12T07:30:46Z</time></trkpt><trkpt lat="37.85593543882783" lon="14.97023235671648"><ele>904.0</ele><time>2026-04-12T07:30:47Z</time></trkpt><trkpt lat="37.85595370332186" lon="14.969995097842393"><ele>906.0</ele><time>2026-04-12T07:30:48Z</time></trkpt><trkpt lat="37.855943658448204" lon="14.969748947751645"><ele>906.3333333333333</ele><time>2026-04-12T07:30:49Z</time></trkpt><trkpt lat="37.855929387242426" lon="14.969504161313235"><ele>906.6666666666666</ele><time>2026-04-12T07:30:50Z</time></trkpt><trkpt lat="37.85592695570763" lon="14.969279413044003"><ele>907.0</ele><time>2026-04-12T07:30:51Z</time></trkpt><trkpt lat="37.855927493825874" lon="14.969059522186447"><ele>906.0</ele><time>2026-04-12T07:30:52Z</time></trkpt><trkpt lat="37.85593026193469" lon="14.96884094480706"><ele>905.0</ele><time>2026-04-12T07:30:53Z</time></trkpt><trkpt lat="37.85592744192338" lon="14.968631601429266"><ele>904.0</ele><time>2026-04-12T07:30:54Z</time></trkpt><trkpt lat="37.85592267176282" lon="14.968432164016606"><ele>905.0</ele><time>2026-04-12T07:30:55Z</time></trkpt><trkpt lat="37.85591749920484" lon="14.968238384717365"><ele>906.0</ele><time>2026-04-12T07:30:56Z</time></trkpt><trkpt lat="37.855915581031624" lon="14.968050702574104"><ele>907.0</ele><time>2026-04-12T07:30:57Z</time></trkpt><trkpt lat="37.855920792394826" lon="14.96787053274209"><ele>908.0</ele><time>2026-04-12T07:30:58Z</time></trkpt><trkpt lat="37.85592641844917" lon="14.967701883966278"><ele>908.0</ele><time>2026-04-12T07:30:59Z</time></trkpt><trkpt lat="37.85592768916568" lon="14.9675416463846"><ele>908.0</ele><time>2026-04-12T07:31:00Z</time></trkpt><trkpt lat="37.855927755644004" lon="14.967382157240678"><ele>908.0</ele><time>2026-04-12T07:31:01Z</time></trkpt><trkpt lat="37.85592677620244" lon="14.967220890740798"><ele>908.0</ele><time>2026-04-12T07:31:02Z</time></trkpt><trkpt lat="37.85592706016512" lon="14.96705445743591"><ele>909.0</ele><time>2026-04-12T07:31:03Z</time></trkpt><trkpt lat="37.85594032000637" lon="14.966880233211423"><ele>910.0</ele><time>2026-04-12T07:31:04Z</time></trkpt><trkpt lat="37.8559514928113" lon="14.966696979844595"><ele>911.0</ele><time>2026-04-12T07:31:05Z</time></trkpt><trkpt lat="37.85595732027349" lon="14.96650905438637"><ele>912.0</ele><time>2026-04-12T07:31:06Z</time></trkpt><trkpt lat="37.85596303600642" lon="14.966321071961643"><ele>909.25</ele><time>2026-04-12T07:31:07Z</time></trkpt><trkpt lat="37.855970713927846" lon="14.966134723706732"><ele>906.5</ele><time>2026-04-12T07:31:08Z</time></trkpt><trkpt lat="37.855977492318914" lon="14.965951025977475"><ele>903.75</ele><time>2026-04-12T07:31:09Z</time></trkpt><trkpt lat="37.855984738816076" lon="14.965768503497719"><ele>901.0</ele><time>2026-04-12T07:31:10Z</time></trkpt><trkpt lat="37.8559909154194" lon="14.965592250188013"><ele>900.5</ele><time>2026-04-12T07:31:11Z</time></trkpt><trkpt lat="37.85599796550696" lon="14.965420232933626"><ele>900.0</ele><time>2026-04-12T07:31:12Z</time></trkpt><trkpt lat="37.855991383104374" lon="14.965242129805082"><ele>899.5</ele><time>2026-04-12T07:31:13Z</time></trkpt><trkpt lat="37.85595047584439" lon="14.965055037315523"><ele>899.0</ele><time>2026-04-12T07:31:14Z</time></trkpt><trkpt lat="37.85587535831499" lon="14.964870346776296"><ele>901.3333333333334</ele><time>2026-04-12T07:31:15Z</time></trkpt><trkpt lat="37.85578581783817" lon="14.964684058935402"><ele>903.6666666666667</ele><time>2026-04-12T07:31:16Z</time></trkpt><trkpt lat="37.855696847197436" lon="14.964488850130085"><ele>906.0</ele><time>2026-04-12T07:31:17Z</time></trkpt><trkpt lat="37.85560500039378" lon="14.964288795760524"><ele>904.6666666666667</ele><time>2026-04-12T07:31:18Z</time></trkpt><trkpt lat="37.85551285835364" lon="14.964086544432707"><ele>903.3333333333334</ele><time>2026-04-12T07:31:19Z</time></trkpt><trkpt lat="37.85542171265777" lon="14.96389095221726"><ele>902.0</ele><time>2026-04-12T07:31:20Z</time></trkpt><trkpt lat="37.85533200990936" lon="14.963699468216127"><ele>902.0</ele><time>2026-04-12T07:31:21Z</time></trkpt><trkpt lat="37.85524926848878" lon="14.96350653853891"><ele>902.0</ele><time>2026-04-12T07:31:22Z</time></trkpt><trkpt lat="37.855197968360535" lon="14.963296295786757"><ele>902.0</ele><time>2026-04-12T07:31:23Z</time></trkpt><trkpt lat="37.85518672249932" lon="14.963071621979648"><ele>900.6666666666667</ele><time>2026-04-12T07:31:24Z</time></trkpt><trkpt lat="37.855206131008494" lon="14.96284156257893"><ele>899.3333333333333</ele><time>2026-04-12T07:31:25Z</time></trkpt><trkpt lat="37.85526331558179" lon="14.962608858676619"><ele>898.0</ele><time>2026-04-12T07:31:26Z</time></trkpt><trkpt lat="37.85533952269332" lon="14.962373813404044"><ele>898.6666666666666</ele><time>2026-04-12T07:31:27Z</time></trkpt><trkpt lat="37.85539282180678" lon="14.962140396324818"><ele>899.3333333333333</ele><time>2026-04-12T07:31:28Z</time></trkpt><trkpt lat="37.85543987584974" lon="14.96190188409553"><ele>900.0</ele><time>2026-04-12T07:31:29Z</time></trkpt><trkpt lat="37.855463179483486" lon="14.961652877426577"><ele>900.0</ele><time>2026-04-12T07:31:30Z</time></trkpt><trkpt lat="37.855465140063316" lon="14.961396029943227"><ele>900.0</ele><time>2026-04-12T07:31:31Z</time></trkpt><trkpt lat="37.85545770667943" lon="14.961128333777197"><ele>900.0</ele><time>2026-04-12T07:31:32Z</time></trkpt><trkpt lat="37.85545200586381" lon="14.960855493628095"><ele>900.6666666666667</ele><time>2026-04-12T07:31:33Z</time></trkpt><trkpt lat="37.85545094322075" lon="14.960586060998144"><ele>901.3333333333334</ele><time>2026-04-12T07:31:34Z</time></trkpt><trkpt lat="37.855450258451" lon="14.960325660671781"><ele>902.0</ele><time>2026-04-12T07:31:35Z</time></trkpt><trkpt lat="37.85544932874817" lon="14.96007860315784"><ele>901.3333333333334</ele><time>2026-04-12T07:31:36Z</time></trkpt><trkpt lat="37.855436100757636" lon="14.95983668402819"><ele>900.6666666666667</ele><time>2026-04-12T07:31:37Z</time></trkpt><trkpt lat="37.8553989539131" lon="14.959590845742795"><ele>900.0</ele><time>2026-04-12T07:31:38Z</time></trkpt><trkpt lat="37.85534915392391" lon="14.95934004565372"><ele>898.0</ele><time>2026-04-12T07:31:39Z</time></trkpt><trkpt lat="37.85529270354716" lon="14.95907737416102"><ele>896.0</ele><time>2026-04-12T07:31:40Z</time></trkpt><trkpt lat="37.855242517938215" lon="14.958818520668688"><ele>894.0</ele><time>2026-04-12T07:31:41Z</time></trkpt><trkpt lat="37.8551931760442" lon="14.958557015130244"><ele>892.6666666666667</ele><time>2026-04-12T07:31:42Z</time></trkpt><trkpt lat="37.855144874290474" lon="14.958297796680299"><ele>891.3333333333334</ele><time>2026-04-12T07:31:43Z</time></trkpt><trkpt lat="37.85510006816116" lon="14.95805069359141"><ele>890.0</ele><time>2026-04-12T07:31:44Z</time></trkpt><trkpt lat="37.85506064701669" lon="14.957810707372557"><ele>892.6666666666667</ele><time>2026-04-12T07:31:45Z</time></trkpt><trkpt lat="37.85503368898294" lon="14.957573579646445"><ele>895.3333333333333</ele><time>2026-04-12T07:31:46Z</time></trkpt><trkpt lat="37.855021166766946" lon="14.957325783216103"><ele>898.0</ele><time>2026-04-12T07:31:47Z</time></trkpt><trkpt lat="37.85502969161882" lon="14.957066840037506"><ele>898.0</ele><time>2026-04-12T07:31:48Z</time></trkpt><trkpt lat="37.85505623720094" lon="14.956794758252903"><ele>898.0</ele><time>2026-04-12T07:31:49Z</time></trkpt><trkpt lat="37.855082515177436" lon="14.956512914307256"><ele>898.0</ele><time>2026-04-12T07:31:50Z</time></trkpt><trkpt lat="37.8551063230332" lon="14.95621887531415"><ele>893.0</ele><time>2026-04-12T07:31:51Z</time></trkpt><trkpt lat="37.85513041869338" lon="14.95592988223303"><ele>888.0</ele><time>2026-04-12T07:31:52Z</time></trkpt><trkpt lat="37.85515569397064" lon="14.95564791795215"><ele>887.0</ele><time>2026-04-12T07:31:53Z</time></trkpt><trkpt lat="37.85518058943955" lon="14.955376766780304"><ele>886.0</ele><time>2026-04-12T07:31:54Z</time></trkpt><trkpt lat="37.85520334212522" lon="14.955118284413663"><ele>885.0</ele><time>2026-04-12T07:31:55Z</time></trkpt><trkpt lat="37.855224104464874" lon="14.954870407841888"><ele>884.6666666666667</ele><time>2026-04-12T07:31:56Z</time></trkpt><trkpt lat="37.85524473294961" lon="14.954632342626025"><ele>884.3333333333334</ele><time>2026-04-12T07:31:57Z</time></trkpt><trkpt lat="37.85526656610297" lon="14.954393112111743"><ele>884.0</ele><time>2026-04-12T07:31:58Z</time></trkpt><trkpt lat="37.85529484247256" lon="14.95415520626941"><ele>884.0</ele><time>2026-04-12T07:31:59Z</time></trkpt><trkpt lat="37.85532120529943" lon="14.95391638806151"><ele>884.0</ele><time>2026-04-12T07:32:00Z</time></trkpt><trkpt lat="37.855333482629725" lon="14.953677546313964"><ele>884.0</ele><time>2026-04-12T07:32:01Z</time></trkpt><trkpt lat="37.855333819363395" lon="14.953436237673698"><ele>884.0</ele><time>2026-04-12T07:32:02Z</time></trkpt><trkpt lat="37.8553062993333" lon="14.953199102662696"><ele>884.0</ele><time>2026-04-12T07:32:03Z</time></trkpt><trkpt lat="37.855250812105815" lon="14.952971984693852"><ele>884.0</ele><time>2026-04-12T07:32:04Z</time></trkpt><trkpt lat="37.855171339285114" lon="14.952754293023197"><ele>885.0</ele><time>2026-04-12T07:32:05Z</time></trkpt><trkpt lat="37.85506259168227" lon="14.952549218132996"><ele>886.0</ele><time>2026-04-12T07:32:06Z</time></trkpt><trkpt lat="37.8549407616627" lon="14.952339190788592"><ele>887.0</ele><time>2026-04-12T07:32:07Z</time></trkpt><trkpt lat="37.85481928966172" lon="14.952118791541727"><ele>887.0</ele><time>2026-04-12T07:32:08Z</time></trkpt><trkpt lat="37.854692931300214" lon="14.951891360510334"><ele>887.0</ele><time>2026-04-12T07:32:09Z</time></trkpt><trkpt lat="37.8545669839256" lon="14.95165266481551"><ele>887.0</ele><time>2026-04-12T07:32:10Z</time></trkpt><trkpt lat="37.85444001319897" lon="14.951414857217047"><ele>886.0</ele><time>2026-04-12T07:32:11Z</time></trkpt><trkpt lat="37.85431706329742" lon="14.951180173405625"><ele>885.0</ele><time>2026-04-12T07:32:12Z</time></trkpt><trkpt lat="37.8542053799352" lon="14.950950316751122"><ele>884.0</ele><time>2026-04-12T07:32:13Z</time></trkpt><trkpt lat="37.854105220338965" lon="14.950713844088936"><ele>884.3333333333334</ele><time>2026-04-12T07:32:14Z</time></trkpt><trkpt lat="37.854012638970964" lon="14.950468206955367"><ele>884.6666666666667</ele><time>2026-04-12T07:32:15Z</time></trkpt><trkpt lat="37.85391837714455" lon="14.95022434563597"><ele>885.0</ele><time>2026-04-12T07:32:16Z</time></trkpt><trkpt lat="37.85381860419102" lon="14.949983034971842"><ele>885.0</ele><time>2026-04-12T07:32:17Z</time></trkpt><trkpt lat="37.85371542968706" lon="14.949739301948542"><ele>885.0</ele><time>2026-04-12T07:32:18Z</time></trkpt><trkpt lat="37.85361830098661" lon="14.949498727366873"><ele>885.0</ele><time>2026-04-12T07:32:19Z</time></trkpt><trkpt lat="37.853529885190575" lon="14.949259170513256"><ele>883.3333333333333</ele><time>2026-04-12T07:32:20Z</time></trkpt><trkpt lat="37.85346349992081" lon="14.9490101675354"><ele>881.6666666666666</ele><time>2026-04-12T07:32:21Z</time></trkpt><trkpt lat="37.85341962326432" lon="14.948759076511589"><ele>880.0</ele><time>2026-04-12T07:32:22Z</time></trkpt><trkpt lat="37.853396608145864" lon="14.948503846533374"><ele>882.6666666666666</ele><time>2026-04-12T07:32:23Z</time></trkpt><trkpt lat="37.85337131430076" lon="14.948236145684834"><ele>885.3333333333333</ele><time>2026-04-12T07:32:24Z</time></trkpt><trkpt lat="37.85334331085159" lon="14.947962460629508"><ele>888.0</ele><time>2026-04-12T07:32:25Z</time></trkpt><trkpt lat="37.8533201463747" lon="14.947687111372726"><ele>889.3333333333333</ele><time>2026-04-12T07:32:26Z</time></trkpt><trkpt lat="37.85334261579052" lon="14.947427285425062"><ele>890.6666666666666</ele><time>2026-04-12T07:32:27Z</time></trkpt><trkpt lat="37.853373691352395" lon="14.94718426387587"><ele>892.0</ele><time>2026-04-12T07:32:28Z</time></trkpt><trkpt lat="37.85341249689485" lon="14.946952832282163"><ele>887.6666666666666</ele><time>2026-04-12T07:32:29Z</time></trkpt><trkpt lat="37.85348435883094" lon="14.946734030787555"><ele>883.3333333333333</ele><time>2026-04-12T07:32:30Z</time></trkpt><trkpt lat="37.85359356864724" lon="14.94652088795126"><ele>879.0</ele><time>2026-04-12T07:32:31Z</time></trkpt><trkpt lat="37.853727556800884" lon="14.946318429534639"><ele>878.5</ele><time>2026-04-12T07:32:32Z</time></trkpt><trkpt lat="37.85387012749122" lon="14.946102513834411"><ele>878.0</ele><time>2026-04-12T07:32:33Z</time></trkpt><trkpt lat="37.85400767025118" lon="14.945860090653035"><ele>879.5</ele><time>2026-04-12T07:32:34Z</time></trkpt><trkpt lat="37.854152089017774" lon="14.945626948514695"><ele>881.0</ele><time>2026-04-12T07:32:35Z</time></trkpt><trkpt lat="37.85429498466403" lon="14.945389515637677"><ele>881.0</ele><time>2026-04-12T07:32:36Z</time></trkpt><trkpt lat="37.85443608063558" lon="14.945153594030298"><ele>881.0</ele><time>2026-04-12T07:32:37Z</time></trkpt><trkpt lat="37.85456938230372" lon="14.94492115607935"><ele>885.5</ele><time>2026-04-12T07:32:38Z</time></trkpt><trkpt lat="37.85467917720773" lon="14.944674473510776"><ele>890.0</ele><time>2026-04-12T07:32:39Z</time></trkpt><trkpt lat="37.85476939684969" lon="14.944408192484678"><ele>886.5</ele><time>2026-04-12T07:32:40Z</time></trkpt><trkpt lat="37.85484943089706" lon="14.944116008556913"><ele>883.0</ele><time>2026-04-12T07:32:41Z</time></trkpt><trkpt lat="37.854935439830186" lon="14.9437956817339"><ele>883.0</ele><time>2026-04-12T07:32:42Z</time></trkpt><trkpt lat="37.855031920751024" lon="14.943440326913562"><ele>883.0</ele><time>2026-04-12T07:32:43Z</time></trkpt><trkpt lat="37.855138978902616" lon="14.943055463148765"><ele>878.5</ele><time>2026-04-12T07:32:44Z</time></trkpt><trkpt lat="37.8552548666875" lon="14.942649140884477"><ele>874.0</ele><time>2026-04-12T07:32:45Z</time></trkpt><trkpt lat="37.85537830368151" lon="14.942227919350604"><ele>870.0</ele><time>2026-04-12T07:32:46Z</time></trkpt><trkpt lat="37.85551063514928" lon="14.941800248554488"><ele>866.0</ele><time>2026-04-12T07:32:47Z</time></trkpt><trkpt lat="37.85562954839116" lon="14.941415833554103"><ele>865.5</ele><time>2026-04-12T07:32:48Z</time></trkpt><trkpt lat="37.85572830647375" lon="14.941065855726182"><ele>865.0</ele><time>2026-04-12T07:32:49Z</time></trkpt><trkpt lat="37.85582041370796" lon="14.940735264564074"><ele>864.5</ele><time>2026-04-12T07:32:50Z</time></trkpt><trkpt lat="37.855905166239715" lon="14.940416991477981"><ele>864.0</ele><time>2026-04-12T07:32:51Z</time></trkpt><trkpt lat="37.855974568631915" lon="14.940111972240148"><ele>866.0</ele><time>2026-04-12T07:32:52Z</time></trkpt><trkpt lat="37.856018042484614" lon="14.939811302651115"><ele>868.0</ele><time>2026-04-12T07:32:53Z</time></trkpt><trkpt lat="37.85605543493531" lon="14.93950836771587"><ele>867.0</ele><time>2026-04-12T07:32:54Z</time></trkpt><trkpt lat="37.8560944485055" lon="14.939207980441806"><ele>866.0</ele><time>2026-04-12T07:32:55Z</time></trkpt><trkpt lat="37.85612363774625" lon="14.938919794506509"><ele>866.0</ele><time>2026-04-12T07:32:56Z</time></trkpt><trkpt lat="37.85614580926167" lon="14.938630477372937"><ele>866.0</ele><time>2026-04-12T07:32:57Z</time></trkpt><trkpt lat="37.85616479065199" lon="14.938349514690337"><ele>866.0</ele><time>2026-04-12T07:32:58Z</time></trkpt><trkpt lat="37.856183141685975" lon="14.938080215352672"><ele>866.0</ele><time>2026-04-12T07:32:59Z</time></trkpt><trkpt lat="37.85620012272794" lon="14.937806220375755"><ele>866.0</ele><time>2026-04-12T07:33:00Z</time></trkpt><trkpt lat="37.856213103348615" lon="14.937524125119003"><ele>865.3333333333334</ele><time>2026-04-12T07:33:01Z</time></trkpt><trkpt lat="37.856220554731586" lon="14.937241454174213"><ele>864.6666666666667</ele><time>2026-04-12T07:33:02Z</time></trkpt><trkpt lat="37.856224660500224" lon="14.936955777464739"><ele>864.0</ele><time>2026-04-12T07:33:03Z</time></trkpt><trkpt lat="37.85622882914977" lon="14.936673312570457"><ele>865.6666666666667</ele><time>2026-04-12T07:33:04Z</time></trkpt><trkpt lat="37.85623192098191" lon="14.93640949471063"><ele>867.3333333333334</ele><time>2026-04-12T07:33:05Z</time></trkpt><trkpt lat="37.85623299952395" lon="14.936156954080179"><ele>869.0</ele><time>2026-04-12T07:33:06Z</time></trkpt><trkpt lat="37.85623576845055" lon="14.935904868567588"><ele>871.3333333333334</ele><time>2026-04-12T07:33:07Z</time></trkpt><trkpt lat="37.85624134993923" lon="14.935652511929066"><ele>873.6666666666667</ele><time>2026-04-12T07:33:08Z</time></trkpt><trkpt lat="37.85625274521394" lon="14.935399346809959"><ele>876.0</ele><time>2026-04-12T07:33:09Z</time></trkpt><trkpt lat="37.85627014487178" lon="14.93513949758907"><ele>877.3333333333333</ele><time>2026-04-12T07:33:10Z</time></trkpt><trkpt lat="37.85628509799714" lon="14.934875349976235"><ele>878.6666666666666</ele><time>2026-04-12T07:33:11Z</time></trkpt><trkpt lat="37.85629381035098" lon="14.934609128415067"><ele>880.0</ele><time>2026-04-12T07:33:12Z</time></trkpt><trkpt lat="37.856292927043995" lon="14.934339797579181"><ele>880.6666666666666</ele><time>2026-04-12T07:33:13Z</time></trkpt><trkpt lat="37.856280308913945" lon="14.934065727617156"><ele>881.3333333333333</ele><time>2026-04-12T07:33:14Z</time></trkpt><trkpt lat="37.85625655548783" lon="14.933785213093186"><ele>882.0</ele><time>2026-04-12T07:33:15Z</time></trkpt><trkpt lat="37.856226562347935" lon="14.933503020956884"><ele>883.5</ele><time>2026-04-12T07:33:16Z</time></trkpt><trkpt lat="37.856203819535736" lon="14.933210774432343"><ele>885.0</ele><time>2026-04-12T07:33:17Z</time></trkpt><trkpt lat="37.85618704247721" lon="14.932909768805272"><ele>885.0</ele><time>2026-04-12T07:33:18Z</time></trkpt><trkpt lat="37.856168423022" lon="14.932605006836162"><ele>885.0</ele><time>2026-04-12T07:33:19Z</time></trkpt><trkpt lat="37.85614746069871" lon="14.932300532018653"><ele>884.0</ele><time>2026-04-12T07:33:20Z</time></trkpt><trkpt lat="37.85612721851758" lon="14.931991474896135"><ele>883.0</ele><time>2026-04-12T07:33:21Z</time></trkpt><trkpt lat="37.856104459738184" lon="14.931675934483641"><ele>881.5</ele><time>2026-04-12T07:33:22Z</time></trkpt><trkpt lat="37.85608139325801" lon="14.931359318054895"><ele>880.0</ele><time>2026-04-12T07:33:23Z</time></trkpt><trkpt lat="37.8560598939956" lon="14.931049495208036"><ele>879.5</ele><time>2026-04-12T07:33:24Z</time></trkpt><trkpt lat="37.856039039260786" lon="14.930748189049782"><ele>879.0</ele><time>2026-04-12T07:33:25Z</time></trkpt><trkpt lat="37.856015011323244" lon="14.930452958534403"><ele>879.0</ele><time>2026-04-12T07:33:26Z</time></trkpt><trkpt lat="37.8559938572073" lon="14.930157360217668"><ele>879.0</ele><time>2026-04-12T07:33:27Z</time></trkpt><trkpt lat="37.8559727775124" lon="14.929864268551135"><ele>883.5</ele><time>2026-04-12T07:33:28Z</time></trkpt><trkpt lat="37.85595055658987" lon="14.92957146913998"><ele>888.0</ele><time>2026-04-12T07:33:29Z</time></trkpt><trkpt lat="37.85592839325836" lon="14.929286027600034"><ele>887.3333333333333</ele><time>2026-04-12T07:33:30Z</time></trkpt><trkpt lat="37.85590746150391" lon="14.929020295654404"><ele>886.6666666666666</ele><time>2026-04-12T07:33:31Z</time></trkpt><trkpt lat="37.85589382877453" lon="14.928781561334853"><ele>886.0</ele><time>2026-04-12T07:33:32Z</time></trkpt><trkpt lat="37.85588131315212" lon="14.928559912655762"><ele>886.3333333333333</ele><time>2026-04-12T07:33:33Z</time></trkpt><trkpt lat="37.855893380897705" lon="14.928331757228033"><ele>886.6666666666667</ele><time>2026-04-12T07:33:34Z</time></trkpt><trkpt lat="37.85595871338339" lon="14.928108804377104"><ele>887.0</ele><time>2026-04-12T07:33:35Z</time></trkpt><trkpt lat="37.856074562408565" lon="14.927910327017273"><ele>884.3333333333334</ele><time>2026-04-12T07:33:36Z</time></trkpt><trkpt lat="37.856228239616286" lon="14.927748456508427"><ele>881.6666666666667</ele><time>2026-04-12T07:33:37Z</time></trkpt><trkpt lat="37.85640562755232" lon="14.9276330284871"><ele>879.0</ele><time>2026-04-12T07:33:38Z</time></trkpt><trkpt lat="37.8565907593345" lon="14.92756312967733"><ele>879.0</ele><time>2026-04-12T07:33:39Z</time></trkpt><trkpt lat="37.85677672786902" lon="14.92750844200398"><ele>879.0</ele><time>2026-04-12T07:33:40Z</time></trkpt><trkpt lat="37.85694090562545" lon="14.92740248599086"><ele>879.0</ele><time>2026-04-12T07:33:41Z</time></trkpt><trkpt lat="37.85709138667227" lon="14.927274628459216"><ele>879.0</ele><time>2026-04-12T07:33:42Z</time></trkpt><trkpt lat="37.85719631076329" lon="14.927112526544331"><ele>879.0</ele><time>2026-04-12T07:33:43Z</time></trkpt><trkpt lat="37.85726426110426" lon="14.926926685996516"><ele>879.0</ele><time>2026-04-12T07:33:44Z</time></trkpt><trkpt lat="37.85729996720276" lon="14.92671855143292"><ele>880.6666666666667</ele><time>2026-04-12T07:33:45Z</time></trkpt><trkpt lat="37.857306493140435" lon="14.926493330413944"><ele>882.3333333333334</ele><time>2026-04-12T07:33:46Z</time></trkpt><trkpt lat="37.85731397572564" lon="14.926252730894024"><ele>884.0</ele><time>2026-04-12T07:33:47Z</time></trkpt><trkpt lat="37.857323887052644" lon="14.925997834363518"><ele>884.6666666666667</ele><time>2026-04-12T07:33:48Z</time></trkpt><trkpt lat="37.857328641110996" lon="14.925725125518646"><ele>885.3333333333333</ele><time>2026-04-12T07:33:49Z</time></trkpt><trkpt lat="37.85732695861304" lon="14.925438680602637"><ele>886.0</ele><time>2026-04-12T07:33:50Z</time></trkpt><trkpt lat="37.8573240441308" lon="14.925136896754132"><ele>884.5</ele><time>2026-04-12T07:33:51Z</time></trkpt><trkpt lat="37.85732492548924" lon="14.924821586136801"><ele>883.0</ele><time>2026-04-12T07:33:52Z</time></trkpt><trkpt lat="37.85732668217113" lon="14.924504814838293"><ele>881.5</ele><time>2026-04-12T07:33:53Z</time></trkpt><trkpt lat="37.857323474837266" lon="14.924204952862567"><ele>880.0</ele><time>2026-04-12T07:33:54Z</time></trkpt><trkpt lat="37.857317595862064" lon="14.92391993544691"><ele>880.0</ele><time>2026-04-12T07:33:55Z</time></trkpt><trkpt lat="37.85731177178361" lon="14.923645097984606"><ele>880.0</ele><time>2026-04-12T07:33:56Z</time></trkpt><trkpt lat="37.857308476442896" lon="14.9233809151315"><ele>880.0</ele><time>2026-04-12T07:33:57Z</time></trkpt><trkpt lat="37.85730965275294" lon="14.923127892732717"><ele>879.3333333333333</ele><time>2026-04-12T07:33:58Z</time></trkpt><trkpt lat="37.85730824942669" lon="14.922901553367472"><ele>878.6666666666667</ele><time>2026-04-12T07:33:59Z</time></trkpt><trkpt lat="37.85730587370668" lon="14.922701244606051"><ele>878.0</ele><time>2026-04-12T07:34:00Z</time></trkpt><trkpt lat="37.8573118639871" lon="14.922526208543413"><ele>877.0</ele><time>2026-04-12T07:34:01Z</time></trkpt><trkpt lat="37.85733532729985" lon="14.922387368965092"><ele>876.0</ele><time>2026-04-12T07:34:02Z</time></trkpt><trkpt lat="37.85735369256259" lon="14.922276418701566"><ele>875.0</ele><time>2026-04-12T07:34:03Z</time></trkpt><trkpt lat="37.85737370586194" lon="14.922182520891635"><ele>874.0</ele><time>2026-04-12T07:34:05Z</time></trkpt><trkpt lat="37.85755616752691" lon="14.922147361150923"><ele>873.6</ele><time>2026-04-12T07:34:08Z</time></trkpt><trkpt lat="37.857625168642556" lon="14.922186673796059"><ele>873.2</ele><time>2026-04-12T07:34:09Z</time></trkpt><trkpt lat="37.85770185749887" lon="14.92220951976578"><ele>872.8000000000001</ele><time>2026-04-12T07:34:10Z</time></trkpt><trkpt lat="37.85779165610246" lon="14.922233728988868"><ele>872.4000000000001</ele><time>2026-04-12T07:34:11Z</time></trkpt><trkpt lat="37.85789400342432" lon="14.92225209003983"><ele>872.0</ele><time>2026-04-12T07:34:12Z</time></trkpt><trkpt lat="37.85800517360739" lon="14.922275819510412"><ele>872.0</ele><time>2026-04-12T07:34:13Z</time></trkpt><trkpt lat="37.85812180543833" lon="14.922307327642164"><ele>872.0</ele><time>2026-04-12T07:34:14Z</time></trkpt><trkpt lat="37.85824191323881" lon="14.922339658879325"><ele>872.0</ele><time>2026-04-12T07:34:15Z</time></trkpt><trkpt lat="37.85836927035441" lon="14.922371788680268"><ele>872.0</ele><time>2026-04-12T07:34:16Z</time></trkpt><trkpt lat="37.85850946335617" lon="14.922404746573768"><ele>871.0</ele><time>2026-04-12T07:34:17Z</time></trkpt><trkpt lat="37.858656961040325" lon="14.922437838428369"><ele>870.0</ele><time>2026-04-12T07:34:18Z</time></trkpt><trkpt lat="37.85879531238094" lon="14.92246463213585"><ele>869.0</ele><time>2026-04-12T07:34:19Z</time></trkpt><trkpt lat="37.85894033926818" lon="14.922496480173354"><ele>868.0</ele><time>2026-04-12T07:34:20Z</time></trkpt><trkpt lat="37.85909252872088" lon="14.922534709178425"><ele>868.3333333333333</ele><time>2026-04-12T07:34:21Z</time></trkpt><trkpt lat="37.859249377131164" lon="14.922574868376003"><ele>868.6666666666667</ele><time>2026-04-12T07:34:22Z</time></trkpt><trkpt lat="37.85941151709345" lon="14.922613244446554"><ele>869.0</ele><time>2026-04-12T07:34:23Z</time></trkpt><trkpt lat="37.8595753526948" lon="14.922649459582825"><ele>867.6666666666667</ele><time>2026-04-12T07:34:24Z</time></trkpt><trkpt lat="37.859735573804684" lon="14.922700082815416"><ele>866.3333333333333</ele><time>2026-04-12T07:34:25Z</time></trkpt><trkpt lat="37.85988466370396" lon="14.922788542911483"><ele>865.0</ele><time>2026-04-12T07:34:26Z</time></trkpt><trkpt lat="37.86001319344164" lon="14.922931819141668"><ele>863.0</ele><time>2026-04-12T07:34:27Z</time></trkpt><trkpt lat="37.86012689533257" lon="14.923106295792586"><ele>861.0</ele><time>2026-04-12T07:34:28Z</time></trkpt><trkpt lat="37.86022363540081" lon="14.923312572799997"><ele>859.0</ele><time>2026-04-12T07:34:29Z</time></trkpt><trkpt lat="37.86033365509406" lon="14.92352095203143"><ele>858.6666666666666</ele><time>2026-04-12T07:34:30Z</time></trkpt><trkpt lat="37.86044558702465" lon="14.923732515850222"><ele>858.3333333333333</ele><time>2026-04-12T07:34:31Z</time></trkpt><trkpt lat="37.86055042335438" lon="14.9239351067972"><ele>858.0</ele><time>2026-04-12T07:34:32Z</time></trkpt><trkpt lat="37.860652500810154" lon="14.924141285313278"><ele>856.6666666666667</ele><time>2026-04-12T07:34:33Z</time></trkpt><trkpt lat="37.86075618359539" lon="14.924352865946945"><ele>855.3333333333334</ele><time>2026-04-12T07:34:34Z</time></trkpt><trkpt lat="37.860855949643245" lon="14.924567794952585"><ele>854.0</ele><time>2026-04-12T07:34:35Z</time></trkpt><trkpt lat="37.8609529158527" lon="14.92477760798213"><ele>851.6666666666667</ele><time>2026-04-12T07:34:36Z</time></trkpt><trkpt lat="37.86105530675838" lon="14.924983162809985"><ele>849.3333333333333</ele><time>2026-04-12T07:34:37Z</time></trkpt><trkpt lat="37.86117346252947" lon="14.925180818526655"><ele>847.0</ele><time>2026-04-12T07:34:38Z</time></trkpt><trkpt lat="37.86131510594102" lon="14.925375715879353"><ele>847.0</ele><time>2026-04-12T07:34:39Z</time></trkpt><trkpt lat="37.86149381373997" lon="14.925568222906739"><ele>847.0</ele><time>2026-04-12T07:34:40Z</time></trkpt><trkpt lat="37.861710599536266" lon="14.925774519917304"><ele>846.0</ele><time>2026-04-12T07:34:41Z</time></trkpt><trkpt lat="37.86191598342255" lon="14.92597704742252"><ele>845.0</ele><time>2026-04-12T07:34:42Z</time></trkpt><trkpt lat="37.86209857024899" lon="14.926169096510009"><ele>845.0</ele><time>2026-04-12T07:34:43Z</time></trkpt><trkpt lat="37.862294898422185" lon="14.926344496345974"><ele>845.0</ele><time>2026-04-12T07:34:44Z</time></trkpt><trkpt lat="37.86250699075324" lon="14.92650667251237"><ele>844.5</ele><time>2026-04-12T07:34:45Z</time></trkpt><trkpt lat="37.86271970428255" lon="14.92664831647284"><ele>844.0</ele><time>2026-04-12T07:34:46Z</time></trkpt><trkpt lat="37.8629250521683" lon="14.926779812228427"><ele>842.3333333333333</ele><time>2026-04-12T07:34:47Z</time></trkpt><trkpt lat="37.86312050075422" lon="14.926916154569216"><ele>840.6666666666667</ele><time>2026-04-12T07:34:48Z</time></trkpt><trkpt lat="37.86331532011777" lon="14.927046941107161"><ele>839.0</ele><time>2026-04-12T07:34:49Z</time></trkpt><trkpt lat="37.863516580417574" lon="14.927153025114348"><ele>837.6666666666667</ele><time>2026-04-12T07:34:50Z</time></trkpt><trkpt lat="37.86372740651217" lon="14.927221600165554"><ele>836.3333333333333</ele><time>2026-04-12T07:34:51Z</time></trkpt><trkpt lat="37.86395413317837" lon="14.927249786390231"><ele>835.0</ele><time>2026-04-12T07:34:52Z</time></trkpt><trkpt lat="37.86420265764441" lon="14.927234038584636"><ele>834.0</ele><time>2026-04-12T07:34:53Z</time></trkpt><trkpt lat="37.864463856110994" lon="14.92721372769421"><ele>833.0</ele><time>2026-04-12T07:34:54Z</time></trkpt><trkpt lat="37.864728747336954" lon="14.927208787452926"><ele>833.0</ele><time>2026-04-12T07:34:55Z</time></trkpt><trkpt lat="37.864978793319565" lon="14.927202250134311"><ele>833.0</ele><time>2026-04-12T07:34:56Z</time></trkpt><trkpt lat="37.865215218246846" lon="14.927197851343827"><ele>832.3333333333334</ele><time>2026-04-12T07:34:57Z</time></trkpt><trkpt lat="37.86543946520666" lon="14.92719374006407"><ele>831.6666666666667</ele><time>2026-04-12T07:34:58Z</time></trkpt><trkpt lat="37.86565691863162" lon="14.927186148097793"><ele>831.0</ele><time>2026-04-12T07:34:59Z</time></trkpt><trkpt lat="37.865862850657216" lon="14.927184219729197"><ele>829.0</ele><time>2026-04-12T07:35:00Z</time></trkpt><trkpt lat="37.86606103098009" lon="14.927176634816515"><ele>827.0</ele><time>2026-04-12T07:35:01Z</time></trkpt><trkpt lat="37.866247277141234" lon="14.927167283842394"><ele>825.0</ele><time>2026-04-12T07:35:02Z</time></trkpt><trkpt lat="37.866424721443444" lon="14.927162701858627"><ele>825.0</ele><time>2026-04-12T07:35:03Z</time></trkpt><trkpt lat="37.86659394536442" lon="14.927159405272247"><ele>825.0</ele><time>2026-04-12T07:35:04Z</time></trkpt><trkpt lat="37.86675504356144" lon="14.927155034532069"><ele>825.0</ele><time>2026-04-12T07:35:05Z</time></trkpt><trkpt lat="37.86690493308878" lon="14.927152638016564"><ele>824.4</ele><time>2026-04-12T07:35:06Z</time></trkpt><trkpt lat="37.86704024725171" lon="14.927142203104781"><ele>823.8</ele><time>2026-04-12T07:35:07Z</time></trkpt><trkpt lat="37.86715960465419" lon="14.927133916603252"><ele>823.2</ele><time>2026-04-12T07:35:08Z</time></trkpt><trkpt lat="37.867259824281746" lon="14.927137991704916"><ele>822.6</ele><time>2026-04-12T07:35:09Z</time></trkpt><trkpt lat="37.86733703589642" lon="14.927143701308339"><ele>822.0</ele><time>2026-04-12T07:35:10Z</time></trkpt><trkpt lat="37.86747043844071" lon="14.927170367920263"><ele>822.0</ele><time>2026-04-12T07:35:12Z</time></trkpt><trkpt lat="37.86755008970904" lon="14.927200734138358"><ele>822.0</ele><time>2026-04-12T07:35:13Z</time></trkpt><trkpt lat="37.867635419868506" lon="14.927234789196731"><ele>822.0</ele><time>2026-04-12T07:35:14Z</time></trkpt><trkpt lat="37.867729198200735" lon="14.927270239799883"><ele>822.0</ele><time>2026-04-12T07:35:15Z</time></trkpt><trkpt lat="37.86783521707587" lon="14.927313639476417"><ele>822.0</ele><time>2026-04-12T07:35:16Z</time></trkpt><trkpt lat="37.867960189776106" lon="14.927358582379334"><ele>822.0</ele><time>2026-04-12T07:35:17Z</time></trkpt><trkpt lat="37.86809691662953" lon="14.927408607998967"><ele>822.0</ele><time>2026-04-12T07:35:18Z</time></trkpt><trkpt lat="37.86824254601352" lon="14.927468121377595"><ele>822.0</ele><time>2026-04-12T07:35:19Z</time></trkpt><trkpt lat="37.86839045921634" lon="14.927536697924536"><ele>821.0</ele><time>2026-04-12T07:35:20Z</time></trkpt><trkpt lat="37.86854303158195" lon="14.92760559756242"><ele>820.0</ele><time>2026-04-12T07:35:21Z</time></trkpt><trkpt lat="37.86869979137981" lon="14.927677087933658"><ele>819.0</ele><time>2026-04-12T07:35:22Z</time></trkpt><trkpt lat="37.8688574651927" lon="14.92775648485285"><ele>819.0</ele><time>2026-04-12T07:35:23Z</time></trkpt><trkpt lat="37.86901264320502" lon="14.927860543551606"><ele>819.0</ele><time>2026-04-12T07:35:24Z</time></trkpt><trkpt lat="37.86916394090017" lon="14.928001675089448"><ele>819.0</ele><time>2026-04-12T07:35:25Z</time></trkpt><trkpt lat="37.869305301573334" lon="14.928172705184304"><ele>819.0</ele><time>2026-04-12T07:35:26Z</time></trkpt><trkpt lat="37.869427553169686" lon="14.928378217853702"><ele>819.0</ele><time>2026-04-12T07:35:27Z</time></trkpt><trkpt lat="37.86952198358709" lon="14.928616476984356"><ele>819.0</ele><time>2026-04-12T07:35:28Z</time></trkpt><trkpt lat="37.869600619764505" lon="14.928837070892087"><ele>818.3333333333333</ele><time>2026-04-12T07:35:29Z</time></trkpt><trkpt lat="37.86967513158915" lon="14.92902686342317"><ele>817.6666666666666</ele><time>2026-04-12T07:35:30Z</time></trkpt><trkpt lat="37.869741633830394" lon="14.92919600717236"><ele>817.0</ele><time>2026-04-12T07:35:31Z</time></trkpt><trkpt lat="37.86980240726772" lon="14.929347452060856"><ele>816.2</ele><time>2026-04-12T07:35:32Z</time></trkpt><trkpt lat="37.86985415886429" lon="14.929474575950412"><ele>815.4000000000001</ele><time>2026-04-12T07:35:33Z</time></trkpt><trkpt lat="37.869897338711866" lon="14.929561662304875"><ele>814.5999999999999</ele><time>2026-04-12T07:35:34Z</time></trkpt><trkpt lat="37.86996809920111" lon="14.929658874065439"><ele>813.8</ele><time>2026-04-12T07:35:36Z</time></trkpt><trkpt lat="37.870050384962916" lon="14.929668127979001"><ele>813.0</ele><time>2026-04-12T07:35:38Z</time></trkpt><trkpt lat="37.87011089089122" lon="14.929555253804574"><ele>813.0</ele><time>2026-04-12T07:35:40Z</time></trkpt><trkpt lat="37.87010675815877" lon="14.929440522696542"><ele>813.0</ele><time>2026-04-12T07:35:41Z</time></trkpt><trkpt lat="37.870099666292866" lon="14.929296768571453"><ele>813.0</ele><time>2026-04-12T07:35:42Z</time></trkpt><trkpt lat="37.87009274024527" lon="14.929092903458757"><ele>813.0</ele><time>2026-04-12T07:35:43Z</time></trkpt><trkpt lat="37.870084602555764" lon="14.928827907205008"><ele>815.0</ele><time>2026-04-12T07:35:44Z</time></trkpt><trkpt lat="37.8700710738924" lon="14.928513310851466"><ele>817.0</ele><time>2026-04-12T07:35:45Z</time></trkpt><trkpt lat="37.87005505318639" lon="14.92816039830929"><ele>818.0</ele><time>2026-04-12T07:35:46Z</time></trkpt><trkpt lat="37.87005437110753" lon="14.92777645898756"><ele>819.0</ele><time>2026-04-12T07:35:47Z</time></trkpt><trkpt lat="37.870049753577604" lon="14.92740522300706"><ele>819.0</ele><time>2026-04-12T07:35:48Z</time></trkpt><trkpt lat="37.870019534157066" lon="14.927089985392607"><ele>819.0</ele><time>2026-04-12T07:35:49Z</time></trkpt><trkpt lat="37.86996026034211" lon="14.92679726285678"><ele>819.6666666666667</ele><time>2026-04-12T07:35:50Z</time></trkpt><trkpt lat="37.8698783680698" lon="14.926534412088378"><ele>820.3333333333334</ele><time>2026-04-12T07:35:51Z</time></trkpt><trkpt lat="37.86979858589345" lon="14.9263007995928"><ele>821.0</ele><time>2026-04-12T07:35:52Z</time></trkpt><trkpt lat="37.869721989015424" lon="14.926090053012242"><ele>822.6666666666667</ele><time>2026-04-12T07:35:53Z</time></trkpt><trkpt lat="37.86964601779919" lon="14.925886627965944"><ele>824.3333333333333</ele><time>2026-04-12T07:35:54Z</time></trkpt><trkpt lat="37.86956766858596" lon="14.925673103242397"><ele>826.0</ele><time>2026-04-12T07:35:55Z</time></trkpt><trkpt lat="37.86948167986621" lon="14.925453664047835"><ele>826.0</ele><time>2026-04-12T07:35:56Z</time></trkpt><trkpt lat="37.86938973232699" lon="14.925210639906538"><ele>826.0</ele><time>2026-04-12T07:35:57Z</time></trkpt><trkpt lat="37.86929645538515" lon="14.9249429154601"><ele>826.0</ele><time>2026-04-12T07:35:58Z</time></trkpt><trkpt lat="37.86919516784553" lon="14.924663800229435"><ele>826.5</ele><time>2026-04-12T07:35:59Z</time></trkpt><trkpt lat="37.86909456545288" lon="14.92437712622958"><ele>827.0</ele><time>2026-04-12T07:36:00Z</time></trkpt><trkpt lat="37.86899608204763" lon="14.924099160194002"><ele>827.0</ele><time>2026-04-12T07:36:01Z</time></trkpt><trkpt lat="37.86890173701822" lon="14.923833079592924"><ele>827.0</ele><time>2026-04-12T07:36:02Z</time></trkpt><trkpt lat="37.868810596056285" lon="14.9235729951228"><ele>827.3333333333334</ele><time>2026-04-12T07:36:03Z</time></trkpt><trkpt lat="37.86872237189589" lon="14.923325859665303"><ele>827.6666666666667</ele><time>2026-04-12T07:36:04Z</time></trkpt><trkpt lat="37.86862417926186" lon="14.923069430539654"><ele>828.0</ele><time>2026-04-12T07:36:05Z</time></trkpt><trkpt lat="37.86851527929812" lon="14.922791842462287"><ele>829.0</ele><time>2026-04-12T07:36:06Z</time></trkpt><trkpt lat="37.868402387856676" lon="14.92247130647338"><ele>830.0</ele><time>2026-04-12T07:36:07Z</time></trkpt><trkpt lat="37.868291055511364" lon="14.922122904140405"><ele>830.0</ele><time>2026-04-12T07:36:08Z</time></trkpt><trkpt lat="37.86818515568533" lon="14.92183541228966"><ele>830.0</ele><time>2026-04-12T07:36:09Z</time></trkpt><trkpt lat="37.86809397610206" lon="14.921611938041783"><ele>830.0</ele><time>2026-04-12T07:36:10Z</time></trkpt><trkpt lat="37.86801615124386" lon="14.921392586258246"><ele>830.0</ele><time>2026-04-12T07:36:11Z</time></trkpt><trkpt lat="37.86794246429353" lon="14.92117354430965"><ele>830.0</ele><time>2026-04-12T07:36:12Z</time></trkpt><trkpt lat="37.86786705406926" lon="14.920941876501859"><ele>830.0</ele><time>2026-04-12T07:36:13Z</time></trkpt><trkpt lat="37.867783825936584" lon="14.920707583842931"><ele>830.3333333333334</ele><time>2026-04-12T07:36:14Z</time></trkpt><trkpt lat="37.86770394714112" lon="14.92047473968314"><ele>830.6666666666667</ele><time>2026-04-12T07:36:15Z</time></trkpt><trkpt lat="37.867627077993525" lon="14.92025492765956"><ele>831.0</ele><time>2026-04-12T07:36:16Z</time></trkpt><trkpt lat="37.867551215536125" lon="14.92004115398733"><ele>832.3333333333333</ele><time>2026-04-12T07:36:17Z</time></trkpt><trkpt lat="37.867473011851516" lon="14.9198307158878"><ele>833.6666666666666</ele><time>2026-04-12T07:36:18Z</time></trkpt><trkpt lat="37.867393694840366" lon="14.919614838254127"><ele>835.0</ele><time>2026-04-12T07:36:19Z</time></trkpt><trkpt lat="37.86731427608578" lon="14.91939641523177"><ele>835.0</ele><time>2026-04-12T07:36:20Z</time></trkpt><trkpt lat="37.86723860654989" lon="14.919175201213083"><ele>835.0</ele><time>2026-04-12T07:36:21Z</time></trkpt><trkpt lat="37.867155236237295" lon="14.91895551917393"><ele>835.0</ele><time>2026-04-12T07:36:22Z</time></trkpt><trkpt lat="37.867069911839884" lon="14.918734878874954"><ele>835.0</ele><time>2026-04-12T07:36:23Z</time></trkpt><trkpt lat="37.86698817950858" lon="14.918508148055382"><ele>835.0</ele><time>2026-04-12T07:36:24Z</time></trkpt><trkpt lat="37.86690347824189" lon="14.918276965685772"><ele>835.0</ele><time>2026-04-12T07:36:25Z</time></trkpt><trkpt lat="37.86681436927576" lon="14.918042934957638"><ele>836.0</ele><time>2026-04-12T07:36:26Z</time></trkpt><trkpt lat="37.866725860401246" lon="14.917805658754476"><ele>837.0</ele><time>2026-04-12T07:36:27Z</time></trkpt><trkpt lat="37.86663732800104" lon="14.917564444644142"><ele>838.0</ele><time>2026-04-12T07:36:28Z</time></trkpt><trkpt lat="37.86655146268411" lon="14.91732096264889"><ele>838.6666666666666</ele><time>2026-04-12T07:36:29Z</time></trkpt><trkpt lat="37.86646533020095" lon="14.917077009330212"><ele>839.3333333333333</ele><time>2026-04-12T07:36:30Z</time></trkpt><trkpt lat="37.866381126072746" lon="14.91683975895859"><ele>840.0</ele><time>2026-04-12T07:36:31Z</time></trkpt><trkpt lat="37.866305436146604" lon="14.916584134046136"><ele>840.5</ele><time>2026-04-12T07:36:32Z</time></trkpt><trkpt lat="37.86625346137684" lon="14.916290510148402"><ele>841.0</ele><time>2026-04-12T07:36:33Z</time></trkpt><trkpt lat="37.86620854687487" lon="14.915982031796094"><ele>842.0</ele><time>2026-04-12T07:36:34Z</time></trkpt><trkpt lat="37.86616288676736" lon="14.915707941017054"><ele>843.0</ele><time>2026-04-12T07:36:35Z</time></trkpt><trkpt lat="37.8661175444231" lon="14.915455068572317"><ele>844.0</ele><time>2026-04-12T07:36:36Z</time></trkpt><trkpt lat="37.86607485339251" lon="14.915217149501235"><ele>845.0</ele><time>2026-04-12T07:36:37Z</time></trkpt><trkpt lat="37.86603582117038" lon="14.914975383278968"><ele>846.0</ele><time>2026-04-12T07:36:38Z</time></trkpt><trkpt lat="37.86599717377039" lon="14.914732921156121"><ele>847.0</ele><time>2026-04-12T07:36:39Z</time></trkpt><trkpt lat="37.86595849900073" lon="14.91448718196103"><ele>848.0</ele><time>2026-04-12T07:36:40Z</time></trkpt><trkpt lat="37.865919134295346" lon="14.914242735113515"><ele>849.0</ele><time>2026-04-12T07:36:41Z</time></trkpt><trkpt lat="37.86587439633484" lon="14.913994873791413"><ele>850.0</ele><time>2026-04-12T07:36:42Z</time></trkpt><trkpt lat="37.865830826423526" lon="14.913742767718029"><ele>850.6666666666666</ele><time>2026-04-12T07:36:43Z</time></trkpt><trkpt lat="37.865793821242306" lon="14.913485008041583"><ele>851.3333333333333</ele><time>2026-04-12T07:36:44Z</time></trkpt><trkpt lat="37.86577207268302" lon="14.91323783124873"><ele>852.0</ele><time>2026-04-12T07:36:45Z</time></trkpt><trkpt lat="37.86577147663231" lon="14.912983063097784"><ele>853.0</ele><time>2026-04-12T07:36:46Z</time></trkpt><trkpt lat="37.865803454815854" lon="14.912737547008016"><ele>854.0</ele><time>2026-04-12T07:36:47Z</time></trkpt><trkpt lat="37.865864303177446" lon="14.912485688273046"><ele>855.0</ele><time>2026-04-12T07:36:48Z</time></trkpt><trkpt lat="37.865947183823906" lon="14.912215657244234"><ele>855.0</ele><time>2026-04-12T07:36:49Z</time></trkpt><trkpt lat="37.866041568028216" lon="14.91192136435205"><ele>855.0</ele><time>2026-04-12T07:36:50Z</time></trkpt><trkpt lat="37.86614875428597" lon="14.91160621118978"><ele>854.5</ele><time>2026-04-12T07:36:51Z</time></trkpt><trkpt lat="37.86625373753697" lon="14.911289237994707"><ele>854.0</ele><time>2026-04-12T07:36:52Z</time></trkpt><trkpt lat="37.86635203812241" lon="14.910990617381534"><ele>855.5</ele><time>2026-04-12T07:36:53Z</time></trkpt><trkpt lat="37.86644390612022" lon="14.910710454345942"><ele>857.0</ele><time>2026-04-12T07:36:54Z</time></trkpt><trkpt lat="37.86653342657656" lon="14.91044896409327"><ele>857.0</ele><time>2026-04-12T07:36:55Z</time></trkpt><trkpt lat="37.86662230727228" lon="14.910205418823004"><ele>857.0</ele><time>2026-04-12T07:36:56Z</time></trkpt><trkpt lat="37.866704658222346" lon="14.909973522480932"><ele>857.0</ele><time>2026-04-12T07:36:57Z</time></trkpt><trkpt lat="37.8667793246582" lon="14.90975349013503"><ele>856.6666666666667</ele><time>2026-04-12T07:36:58Z</time></trkpt><trkpt lat="37.86684792815412" lon="14.9095452677991"><ele>856.3333333333333</ele><time>2026-04-12T07:36:59Z</time></trkpt><trkpt lat="37.866912897530874" lon="14.909350990604402"><ele>856.0</ele><time>2026-04-12T07:37:00Z</time></trkpt><trkpt lat="37.86697556355234" lon="14.90916810375492"><ele>856.6666666666666</ele><time>2026-04-12T07:37:01Z</time></trkpt><trkpt lat="37.86703350948891" lon="14.908994146299246"><ele>857.3333333333333</ele><time>2026-04-12T07:37:02Z</time></trkpt><trkpt lat="37.86709212645172" lon="14.90881716494325"><ele>858.0</ele><time>2026-04-12T07:37:03Z</time></trkpt><trkpt lat="37.86714837620728" lon="14.90863775223043"><ele>858.0</ele><time>2026-04-12T07:37:04Z</time></trkpt><trkpt lat="37.86721706426865" lon="14.908467942962009"><ele>858.0</ele><time>2026-04-12T07:37:05Z</time></trkpt><trkpt lat="37.86728106949062" lon="14.90830038209488"><ele>858.0</ele><time>2026-04-12T07:37:06Z</time></trkpt><trkpt lat="37.86733116673384" lon="14.90813581628518"><ele>858.0</ele><time>2026-04-12T07:37:07Z</time></trkpt><trkpt lat="37.86738313763997" lon="14.907960364998996"><ele>859.0</ele><time>2026-04-12T07:37:08Z</time></trkpt><trkpt lat="37.867445659551656" lon="14.907760029974561"><ele>860.0</ele><time>2026-04-12T07:37:09Z</time></trkpt><trkpt lat="37.86751448522345" lon="14.90753481775026"><ele>861.0</ele><time>2026-04-12T07:37:10Z</time></trkpt><trkpt lat="37.86757857038266" lon="14.9072810675986"><ele>861.3333333333333</ele><time>2026-04-12T07:37:11Z</time></trkpt><trkpt lat="37.86764089703674" lon="14.907013384011961"><ele>861.6666666666666</ele><time>2026-04-12T07:37:12Z</time></trkpt><trkpt lat="37.86769243491884" lon="14.906735970993967"><ele>862.0</ele><time>2026-04-12T07:37:13Z</time></trkpt><trkpt lat="37.867725666233994" lon="14.90644364622154"><ele>862.0</ele><time>2026-04-12T07:37:14Z</time></trkpt><trkpt lat="37.867747062925325" lon="14.90613386321782"><ele>862.0</ele><time>2026-04-12T07:37:15Z</time></trkpt><trkpt lat="37.86776469958616" lon="14.905816129767702"><ele>861.5</ele><time>2026-04-12T07:37:16Z</time></trkpt><trkpt lat="37.867780670447395" lon="14.905489143616936"><ele>861.0</ele><time>2026-04-12T07:37:17Z</time></trkpt><trkpt lat="37.86779861924807" lon="14.905159232926058"><ele>861.0</ele><time>2026-04-12T07:37:18Z</time></trkpt><trkpt lat="37.86781554510195" lon="14.904828633227295"><ele>861.0</ele><time>2026-04-12T07:37:19Z</time></trkpt><trkpt lat="37.86782892769242" lon="14.904497898522038"><ele>860.0</ele><time>2026-04-12T07:37:20Z</time></trkpt><trkpt lat="37.86784349591852" lon="14.90417142432008"><ele>859.0</ele><time>2026-04-12T07:37:21Z</time></trkpt><trkpt lat="37.86785971408242" lon="14.903846887478656"><ele>859.0</ele><time>2026-04-12T07:37:22Z</time></trkpt><trkpt lat="37.86787380465318" lon="14.90352958655797"><ele>859.0</ele><time>2026-04-12T07:37:23Z</time></trkpt><trkpt lat="37.86788351425029" lon="14.903212780130122"><ele>859.5</ele><time>2026-04-12T07:37:24Z</time></trkpt><trkpt lat="37.867898355785485" lon="14.902888824793536"><ele>860.0</ele><time>2026-04-12T07:37:25Z</time></trkpt><trkpt lat="37.86791857249118" lon="14.90254202965846"><ele>860.5</ele><time>2026-04-12T07:37:26Z</time></trkpt><trkpt lat="37.86793646837702" lon="14.90217177119733"><ele>861.0</ele><time>2026-04-12T07:37:27Z</time></trkpt><trkpt lat="37.867958237655664" lon="14.901778490194294"><ele>862.5</ele><time>2026-04-12T07:37:28Z</time></trkpt><trkpt lat="37.86798434962275" lon="14.901356591818699"><ele>864.0</ele><time>2026-04-12T07:37:29Z</time></trkpt><trkpt lat="37.86800799180152" lon="14.900938243911764"><ele>865.0</ele><time>2026-04-12T07:37:30Z</time></trkpt><trkpt lat="37.868029840916655" lon="14.900555155836596"><ele>866.0</ele><time>2026-04-12T07:37:31Z</time></trkpt><trkpt lat="37.868057041334005" lon="14.900190469929354"><ele>864.5</ele><time>2026-04-12T07:37:32Z</time></trkpt><trkpt lat="37.86808021799157" lon="14.899843011417454"><ele>863.0</ele><time>2026-04-12T07:37:33Z</time></trkpt><trkpt lat="37.8680965310701" lon="14.899511854786448"><ele>862.5</ele><time>2026-04-12T07:37:34Z</time></trkpt><trkpt lat="37.86811018219095" lon="14.899194252323838"><ele>862.0</ele><time>2026-04-12T07:37:35Z</time></trkpt><trkpt lat="37.86812608640797" lon="14.89887965507777"><ele>862.0</ele><time>2026-04-12T07:37:36Z</time></trkpt><trkpt lat="37.86814360524041" lon="14.898566400306011"><ele>862.0</ele><time>2026-04-12T07:37:37Z</time></trkpt><trkpt lat="37.868160264674195" lon="14.898247820270502"><ele>862.0</ele><time>2026-04-12T07:37:38Z</time></trkpt><trkpt lat="37.86817584259855" lon="14.897926344897153"><ele>862.0</ele><time>2026-04-12T07:37:39Z</time></trkpt><trkpt lat="37.868190693195366" lon="14.897603908384529"><ele>863.0</ele><time>2026-04-12T07:37:40Z</time></trkpt><trkpt lat="37.86820829708206" lon="14.89727692336199"><ele>864.0</ele><time>2026-04-12T07:37:41Z</time></trkpt><trkpt lat="37.8682267076838" lon="14.896943208861527"><ele>865.5</ele><time>2026-04-12T07:37:42Z</time></trkpt><trkpt lat="37.86824834337818" lon="14.896602734444267"><ele>867.0</ele><time>2026-04-12T07:37:43Z</time></trkpt><trkpt lat="37.86826766089808" lon="14.896265494219284"><ele>867.0</ele><time>2026-04-12T07:37:44Z</time></trkpt><trkpt lat="37.86828497828332" lon="14.895940832871531"><ele>867.0</ele><time>2026-04-12T07:37:45Z</time></trkpt><trkpt lat="37.86829664899624" lon="14.89563646671495"><ele>869.0</ele><time>2026-04-12T07:37:46Z</time></trkpt><trkpt lat="37.86831317968288" lon="14.895346429940483"><ele>871.0</ele><time>2026-04-12T07:37:47Z</time></trkpt><trkpt lat="37.8683603621211" lon="14.895050662649414"><ele>874.0</ele><time>2026-04-12T07:37:48Z</time></trkpt><trkpt lat="37.868447108279184" lon="14.894753984321477"><ele>877.0</ele><time>2026-04-12T07:37:49Z</time></trkpt><trkpt lat="37.8685560064547" lon="14.89445616128646"><ele>876.0</ele><time>2026-04-12T07:37:50Z</time></trkpt><trkpt lat="37.86869033097289" lon="14.8941630581371"><ele>875.0</ele><time>2026-04-12T07:37:51Z</time></trkpt><trkpt lat="37.86884506386264" lon="14.893873775890004"><ele>875.0</ele><time>2026-04-12T07:37:52Z</time></trkpt><trkpt lat="37.86899816893372" lon="14.893575834818142"><ele>875.0</ele><time>2026-04-12T07:37:53Z</time></trkpt><trkpt lat="37.869146196851155" lon="14.89328254803885"><ele>875.5</ele><time>2026-04-12T07:37:54Z</time></trkpt><trkpt lat="37.869295823113724" lon="14.892996977059548"><ele>876.0</ele><time>2026-04-12T07:37:55Z</time></trkpt><trkpt lat="37.869447085980184" lon="14.892715979291317"><ele>877.0</ele><time>2026-04-12T07:37:56Z</time></trkpt><trkpt lat="37.8695959009903" lon="14.89243320501049"><ele>878.0</ele><time>2026-04-12T07:37:57Z</time></trkpt><trkpt lat="37.86973395815276" lon="14.892143611258383"><ele>878.0</ele><time>2026-04-12T07:37:58Z</time></trkpt><trkpt lat="37.86985637110321" lon="14.891864680114242"><ele>878.0</ele><time>2026-04-12T07:37:59Z</time></trkpt><trkpt lat="37.86996463415346" lon="14.891596795195122"><ele>878.5</ele><time>2026-04-12T07:38:00Z</time></trkpt><trkpt lat="37.87007047961719" lon="14.891342093470255"><ele>879.0</ele><time>2026-04-12T07:38:01Z</time></trkpt><trkpt lat="37.87017295518538" lon="14.891085836903665"><ele>883.0</ele><time>2026-04-12T07:38:02Z</time></trkpt><trkpt lat="37.870257186850786" lon="14.890817945157373"><ele>887.0</ele><time>2026-04-12T07:38:03Z</time></trkpt><trkpt lat="37.87031278024269" lon="14.890535598622725"><ele>887.0</ele><time>2026-04-12T07:38:04Z</time></trkpt><trkpt lat="37.870341308127074" lon="14.89024046316882"><ele>887.0</ele><time>2026-04-12T07:38:05Z</time></trkpt><trkpt lat="37.87034083521919" lon="14.889939579004945"><ele>883.0</ele><time>2026-04-12T07:38:06Z</time></trkpt><trkpt lat="37.87029479062185" lon="14.889636819243675"><ele>879.0</ele><time>2026-04-12T07:38:07Z</time></trkpt><trkpt lat="37.870214915113195" lon="14.889342006200959"><ele>874.5</ele><time>2026-04-12T07:38:08Z</time></trkpt><trkpt lat="37.87010226555446" lon="14.889061210231707"><ele>870.0</ele><time>2026-04-12T07:38:09Z</time></trkpt><trkpt lat="37.869947323803686" lon="14.888804600300851"><ele>870.0</ele><time>2026-04-12T07:38:10Z</time></trkpt><trkpt lat="37.86978354900541" lon="14.888549291000125"><ele>870.0</ele><time>2026-04-12T07:38:11Z</time></trkpt><trkpt lat="37.86963229167829" lon="14.88828450467081"><ele>868.5</ele><time>2026-04-12T07:38:12Z</time></trkpt><trkpt lat="37.86948731692025" lon="14.88803169846025"><ele>867.0</ele><time>2026-04-12T07:38:13Z</time></trkpt><trkpt lat="37.869346521881226" lon="14.887787003815767"><ele>869.0</ele><time>2026-04-12T07:38:14Z</time></trkpt><trkpt lat="37.869205622291965" lon="14.887540782309053"><ele>871.0</ele><time>2026-04-12T07:38:15Z</time></trkpt><trkpt lat="37.86906776407264" lon="14.88729298754968"><ele>871.0</ele><time>2026-04-12T07:38:16Z</time></trkpt><trkpt lat="37.86893035414882" lon="14.887043269608284"><ele>871.0</ele><time>2026-04-12T07:38:17Z</time></trkpt><trkpt lat="37.868791584172186" lon="14.886796168245493"><ele>871.0</ele><time>2026-04-12T07:38:18Z</time></trkpt><trkpt lat="37.86865337572711" lon="14.88655069170781"><ele>871.0</ele><time>2026-04-12T07:38:19Z</time></trkpt><trkpt lat="37.86851728289" lon="14.88630848287936"><ele>871.0</ele><time>2026-04-12T07:38:20Z</time></trkpt><trkpt lat="37.86839374880278" lon="14.8860649392568"><ele>871.0</ele><time>2026-04-12T07:38:21Z</time></trkpt><trkpt lat="37.868279539489535" lon="14.885808858210934"><ele>871.0</ele><time>2026-04-12T07:38:22Z</time></trkpt><trkpt lat="37.86816398326703" lon="14.885552094324082"><ele>871.0</ele><time>2026-04-12T07:38:23Z</time></trkpt><trkpt lat="37.86804421298943" lon="14.885293776658255"><ele>871.5</ele><time>2026-04-12T07:38:24Z</time></trkpt><trkpt lat="37.86792471333821" lon="14.885031385929556"><ele>872.0</ele><time>2026-04-12T07:38:25Z</time></trkpt><trkpt lat="37.86780495963371" lon="14.884768153512349"><ele>872.0</ele><time>2026-04-12T07:38:26Z</time></trkpt><trkpt lat="37.86768460105897" lon="14.884502492781802"><ele>872.0</ele><time>2026-04-12T07:38:27Z</time></trkpt><trkpt lat="37.86756580594277" lon="14.884233094291295"><ele>873.0</ele><time>2026-04-12T07:38:28Z</time></trkpt><trkpt lat="37.86744365333793" lon="14.883964539404406"><ele>874.0</ele><time>2026-04-12T07:38:29Z</time></trkpt><trkpt lat="37.867325468386696" lon="14.883705524380117"><ele>874.0</ele><time>2026-04-12T07:38:30Z</time></trkpt><trkpt lat="37.867212082789095" lon="14.883457653150547"><ele>874.0</ele><time>2026-04-12T07:38:31Z</time></trkpt><trkpt lat="37.86710038293597" lon="14.88321670445207"><ele>874.0</ele><time>2026-04-12T07:38:32Z</time></trkpt><trkpt lat="37.86698861445198" lon="14.882979248543448"><ele>874.3333333333333</ele><time>2026-04-12T07:38:33Z</time></trkpt><trkpt lat="37.86688085132756" lon="14.88273763145709"><ele>874.6666666666667</ele><time>2026-04-12T07:38:34Z</time></trkpt><trkpt lat="37.86677181249894" lon="14.882493865281688"><ele>875.0</ele><time>2026-04-12T07:38:35Z</time></trkpt><trkpt lat="37.86666276019005" lon="14.882250137969981"><ele>875.3333333333334</ele><time>2026-04-12T07:38:36Z</time></trkpt><trkpt lat="37.86655117245958" lon="14.882009475086646"><ele>875.6666666666667</ele><time>2026-04-12T07:38:37Z</time></trkpt><trkpt lat="37.86643869353583" lon="14.881769087652776"><ele>876.0</ele><time>2026-04-12T07:38:38Z</time></trkpt><trkpt lat="37.866324873769024" lon="14.881532789514434"><ele>876.0</ele><time>2026-04-12T07:38:39Z</time></trkpt><trkpt lat="37.8662147487003" lon="14.88129424670039"><ele>876.0</ele><time>2026-04-12T07:38:40Z</time></trkpt><trkpt lat="37.866108629425064" lon="14.881054036667681"><ele>876.0</ele><time>2026-04-12T07:38:41Z</time></trkpt><trkpt lat="37.86599958378246" lon="14.880808549147712"><ele>875.0</ele><time>2026-04-12T07:38:42Z</time></trkpt><trkpt lat="37.865886141579864" lon="14.880556305227698"><ele>874.0</ele><time>2026-04-12T07:38:43Z</time></trkpt><trkpt lat="37.865768747333256" lon="14.88029876579246"><ele>875.5</ele><time>2026-04-12T07:38:44Z</time></trkpt><trkpt lat="37.86565047765433" lon="14.880034741002097"><ele>877.0</ele><time>2026-04-12T07:38:45Z</time></trkpt><trkpt lat="37.86552663061374" lon="14.879770479609855"><ele>877.0</ele><time>2026-04-12T07:38:46Z</time></trkpt><trkpt lat="37.86540413529928" lon="14.879507085086956"><ele>877.0</ele><time>2026-04-12T07:38:47Z</time></trkpt><trkpt lat="37.865284471391114" lon="14.879251335419633"><ele>877.6666666666666</ele><time>2026-04-12T07:38:48Z</time></trkpt><trkpt lat="37.865170759005444" lon="14.8790073991019"><ele>878.3333333333333</ele><time>2026-04-12T07:38:49Z</time></trkpt><trkpt lat="37.86506306419381" lon="14.878774019403727"><ele>879.0</ele><time>2026-04-12T07:38:50Z</time></trkpt><trkpt lat="37.864961243994834" lon="14.878551438308909"><ele>880.3333333333333</ele><time>2026-04-12T07:38:51Z</time></trkpt><trkpt lat="37.864859542468835" lon="14.878327807956223"><ele>881.6666666666666</ele><time>2026-04-12T07:38:52Z</time></trkpt><trkpt lat="37.86475936213163" lon="14.878102518413062"><ele>883.0</ele><time>2026-04-12T07:38:53Z</time></trkpt><trkpt lat="37.86466561862187" lon="14.877869850884814"><ele>883.0</ele><time>2026-04-12T07:38:54Z</time></trkpt><trkpt lat="37.864578715847564" lon="14.87762563007651"><ele>883.0</ele><time>2026-04-12T07:38:55Z</time></trkpt><trkpt lat="37.86450027623149" lon="14.877373247731246"><ele>883.0</ele><time>2026-04-12T07:38:56Z</time></trkpt><trkpt lat="37.864419622667924" lon="14.8771145919852"><ele>884.5</ele><time>2026-04-12T07:38:57Z</time></trkpt><trkpt lat="37.8643345675536" lon="14.87684955013087"><ele>886.0</ele><time>2026-04-12T07:38:58Z</time></trkpt><trkpt lat="37.8642479582795" lon="14.87657864359786"><ele>883.0</ele><time>2026-04-12T07:38:59Z</time></trkpt><trkpt lat="37.86416085366247" lon="14.87630354242206"><ele>880.0</ele><time>2026-04-12T07:39:00Z</time></trkpt><trkpt lat="37.86407139307424" lon="14.876021129552004"><ele>880.0</ele><time>2026-04-12T07:39:01Z</time></trkpt><trkpt lat="37.86398042170375" lon="14.875731258985793"><ele>880.0</ele><time>2026-04-12T07:39:02Z</time></trkpt><trkpt lat="37.86388553673721" lon="14.875437034995928"><ele>880.0</ele><time>2026-04-12T07:39:03Z</time></trkpt><trkpt lat="37.86379018790574" lon="14.875141188948596"><ele>880.0</ele><time>2026-04-12T07:39:04Z</time></trkpt><trkpt lat="37.863692939407926" lon="14.874840270552784"><ele>880.0</ele><time>2026-04-12T07:39:05Z</time></trkpt><trkpt lat="37.863595969807875" lon="14.874535045766127"><ele>880.0</ele><time>2026-04-12T07:39:06Z</time></trkpt><trkpt lat="37.86350007118755" lon="14.874235632816353"><ele>880.0</ele><time>2026-04-12T07:39:07Z</time></trkpt><trkpt lat="37.86340505574349" lon="14.873934594045247"><ele>880.0</ele><time>2026-04-12T07:39:08Z</time></trkpt><trkpt lat="37.86331026250946" lon="14.873637070129798"><ele>880.5</ele><time>2026-04-12T07:39:09Z</time></trkpt><trkpt lat="37.86321469696745" lon="14.87334494838201"><ele>881.0</ele><time>2026-04-12T07:39:10Z</time></trkpt><trkpt lat="37.8631195844932" lon="14.873051571226922"><ele>881.0</ele><time>2026-04-12T07:39:11Z</time></trkpt><trkpt lat="37.86302617920893" lon="14.872758324040047"><ele>881.0</ele><time>2026-04-12T07:39:12Z</time></trkpt><trkpt lat="37.862937768452696" lon="14.872465344444542"><ele>881.0</ele><time>2026-04-12T07:39:13Z</time></trkpt><trkpt lat="37.862849050146025" lon="14.87217676486487"><ele>881.0</ele><time>2026-04-12T07:39:14Z</time></trkpt><trkpt lat="37.862759564925376" lon="14.87189461048936"><ele>881.0</ele><time>2026-04-12T07:39:15Z</time></trkpt><trkpt lat="37.86266900059442" lon="14.871615721698664"><ele>881.0</ele><time>2026-04-12T07:39:16Z</time></trkpt><trkpt lat="37.862578564847865" lon="14.87133817187727"><ele>881.0</ele><time>2026-04-12T07:39:17Z</time></trkpt><trkpt lat="37.86248834964743" lon="14.871061496640296"><ele>881.0</ele><time>2026-04-12T07:39:18Z</time></trkpt><trkpt lat="37.86239851026392" lon="14.870781153735784"><ele>881.0</ele><time>2026-04-12T07:39:19Z</time></trkpt><trkpt lat="37.86230677072044" lon="14.870496173800548"><ele>881.0</ele><time>2026-04-12T07:39:20Z</time></trkpt><trkpt lat="37.862213724044864" lon="14.870206402259718"><ele>882.5</ele><time>2026-04-12T07:39:21Z</time></trkpt><trkpt lat="37.86211903939188" lon="14.869913683630118"><ele>884.0</ele><time>2026-04-12T07:39:22Z</time></trkpt><trkpt lat="37.862023743703915" lon="14.869619375682735"><ele>884.0</ele><time>2026-04-12T07:39:23Z</time></trkpt><trkpt lat="37.86193515060991" lon="14.869319769894927"><ele>884.0</ele><time>2026-04-12T07:39:24Z</time></trkpt><trkpt lat="37.86184688190937" lon="14.86901938364762"><ele>884.5</ele><time>2026-04-12T07:39:25Z</time></trkpt><trkpt lat="37.861764885247744" lon="14.86871777505001"><ele>885.0</ele><time>2026-04-12T07:39:26Z</time></trkpt><trkpt lat="37.86169548012114" lon="14.868415795082838"><ele>885.0</ele><time>2026-04-12T07:39:27Z</time></trkpt><trkpt lat="37.8616373769487" lon="14.8681240474294"><ele>885.0</ele><time>2026-04-12T07:39:28Z</time></trkpt><trkpt lat="37.86157940019007" lon="14.867843584113732"><ele>885.0</ele><time>2026-04-12T07:39:29Z</time></trkpt><trkpt lat="37.861521701182724" lon="14.86757629197267"><ele>885.0</ele><time>2026-04-12T07:39:30Z</time></trkpt><trkpt lat="37.86147263302916" lon="14.86730706278151"><ele>885.0</ele><time>2026-04-12T07:39:31Z</time></trkpt><trkpt lat="37.861443321393125" lon="14.867032604035982"><ele>884.3333333333333</ele><time>2026-04-12T07:39:32Z</time></trkpt><trkpt lat="37.86143048202125" lon="14.866751997720842"><ele>883.6666666666666</ele><time>2026-04-12T07:39:33Z</time></trkpt><trkpt lat="37.86142248420821" lon="14.866468960397784"><ele>883.0</ele><time>2026-04-12T07:39:34Z</time></trkpt><trkpt lat="37.86141276312235" lon="14.86618112936428"><ele>882.0</ele><time>2026-04-12T07:39:35Z</time></trkpt><trkpt lat="37.86140384263612" lon="14.865887886746295"><ele>881.0</ele><time>2026-04-12T07:39:36Z</time></trkpt><trkpt lat="37.861395390026615" lon="14.865586772825568"><ele>881.0</ele><time>2026-04-12T07:39:37Z</time></trkpt><trkpt lat="37.86138554162188" lon="14.865276201651437"><ele>881.0</ele><time>2026-04-12T07:39:38Z</time></trkpt><trkpt lat="37.86137310403941" lon="14.8649553813048"><ele>880.5</ele><time>2026-04-12T07:39:39Z</time></trkpt><trkpt lat="37.86136276440488" lon="14.864626857175292"><ele>880.0</ele><time>2026-04-12T07:39:40Z</time></trkpt><trkpt lat="37.861351455558605" lon="14.864297811202617"><ele>879.0</ele><time>2026-04-12T07:39:41Z</time></trkpt><trkpt lat="37.8613405128021" lon="14.86396805453177"><ele>878.0</ele><time>2026-04-12T07:39:42Z</time></trkpt><trkpt lat="37.86132937167752" lon="14.863640100650219"><ele>876.5</ele><time>2026-04-12T07:39:43Z</time></trkpt><trkpt lat="37.861315784000524" lon="14.863314367946966"><ele>875.0</ele><time>2026-04-12T07:39:44Z</time></trkpt><trkpt lat="37.86130454726472" lon="14.862991159670418"><ele>875.0</ele><time>2026-04-12T07:39:45Z</time></trkpt><trkpt lat="37.86129412885747" lon="14.86267781331787"><ele>875.0</ele><time>2026-04-12T07:39:46Z</time></trkpt><trkpt lat="37.86128557795878" lon="14.862371737715842"><ele>874.5</ele><time>2026-04-12T07:39:47Z</time></trkpt><trkpt lat="37.86127562035599" lon="14.862068257441749"><ele>874.0</ele><time>2026-04-12T07:39:48Z</time></trkpt><trkpt lat="37.86126389155434" lon="14.861768389905338"><ele>874.0</ele><time>2026-04-12T07:39:49Z</time></trkpt><trkpt lat="37.86125415881806" lon="14.861474007409127"><ele>874.0</ele><time>2026-04-12T07:39:50Z</time></trkpt><trkpt lat="37.86124025294749" lon="14.861177846200064"><ele>872.5</ele><time>2026-04-12T07:39:51Z</time></trkpt><trkpt lat="37.861217122390045" lon="14.860884440993496"><ele>871.0</ele><time>2026-04-12T07:39:52Z</time></trkpt><trkpt lat="37.86117113201026" lon="14.860599991524287"><ele>871.0</ele><time>2026-04-12T07:39:53Z</time></trkpt><trkpt lat="37.86110549083068" lon="14.860328947256141"><ele>871.0</ele><time>2026-04-12T07:39:54Z</time></trkpt><trkpt lat="37.86102002335081" lon="14.860060945156345"><ele>870.0</ele><time>2026-04-12T07:39:55Z</time></trkpt><trkpt lat="37.86092013928744" lon="14.859797624862486"><ele>869.0</ele><time>2026-04-12T07:39:56Z</time></trkpt><trkpt lat="37.86080542373408" lon="14.859537922351246"><ele>869.0</ele><time>2026-04-12T07:39:57Z</time></trkpt><trkpt lat="37.860675842936374" lon="14.859286407861765"><ele>869.0</ele><time>2026-04-12T07:39:58Z</time></trkpt><trkpt lat="37.86053457103193" lon="14.859043492659215"><ele>868.0</ele><time>2026-04-12T07:39:59Z</time></trkpt><trkpt lat="37.86039849485108" lon="14.858801114023267"><ele>867.0</ele><time>2026-04-12T07:40:00Z</time></trkpt><trkpt lat="37.86026719124766" lon="14.858555672381076"><ele>867.0</ele><time>2026-04-12T07:40:01Z</time></trkpt><trkpt lat="37.86013674780449" lon="14.858308384170082"><ele>867.0</ele><time>2026-04-12T07:40:02Z</time></trkpt><trkpt lat="37.860002453111115" lon="14.858060982634441"><ele>867.0</ele><time>2026-04-12T07:40:03Z</time></trkpt><trkpt lat="37.859865685056114" lon="14.857812853622809"><ele>867.0</ele><time>2026-04-12T07:40:04Z</time></trkpt><trkpt lat="37.85973017754218" lon="14.85756162241215"><ele>867.0</ele><time>2026-04-12T07:40:05Z</time></trkpt><trkpt lat="37.85959597582545" lon="14.857307584852485"><ele>867.0</ele><time>2026-04-12T07:40:06Z</time></trkpt><trkpt lat="37.85945775733867" lon="14.857053752003946"><ele>867.0</ele><time>2026-04-12T07:40:07Z</time></trkpt><trkpt lat="37.85931932567011" lon="14.856797050409261"><ele>867.0</ele><time>2026-04-12T07:40:08Z</time></trkpt><trkpt lat="37.85917847964716" lon="14.856539367711514"><ele>866.0</ele><time>2026-04-12T07:40:09Z</time></trkpt><trkpt lat="37.85903401815164" lon="14.856276649771443"><ele>865.0</ele><time>2026-04-12T07:40:10Z</time></trkpt><trkpt lat="37.85889460768269" lon="14.856016386756561"><ele>863.5</ele><time>2026-04-12T07:40:11Z</time></trkpt><trkpt lat="37.858757436031375" lon="14.855753949367166"><ele>862.0</ele><time>2026-04-12T07:40:12Z</time></trkpt><trkpt lat="37.85861473457191" lon="14.85548954315916"><ele>862.0</ele><time>2026-04-12T07:40:13Z</time></trkpt><trkpt lat="37.858473477039574" lon="14.85522907011217"><ele>862.0</ele><time>2026-04-12T07:40:14Z</time></trkpt><trkpt lat="37.85833252368328" lon="14.854969078480906"><ele>861.0</ele><time>2026-04-12T07:40:15Z</time></trkpt><trkpt lat="37.858193572635145" lon="14.854709437675327"><ele>860.0</ele><time>2026-04-12T07:40:16Z</time></trkpt><trkpt lat="37.8580543449247" lon="14.854451042066207"><ele>859.0</ele><time>2026-04-12T07:40:17Z</time></trkpt><trkpt lat="37.85791546068692" lon="14.854192454736774"><ele>858.0</ele><time>2026-04-12T07:40:18Z</time></trkpt><trkpt lat="37.857777388440574" lon="14.853932775132074"><ele>858.0</ele><time>2026-04-12T07:40:19Z</time></trkpt><trkpt lat="37.85763953439234" lon="14.853671114162566"><ele>858.0</ele><time>2026-04-12T07:40:20Z</time></trkpt><trkpt lat="37.85749862702254" lon="14.853406235932987"><ele>857.0</ele><time>2026-04-12T07:40:21Z</time></trkpt><trkpt lat="37.85735484633948" lon="14.853141108879935"><ele>856.0</ele><time>2026-04-12T07:40:22Z</time></trkpt><trkpt lat="37.85720820895158" lon="14.852871870262847"><ele>854.0</ele><time>2026-04-12T07:40:23Z</time></trkpt><trkpt lat="37.85706087224478" lon="14.852598628779502"><ele>852.0</ele><time>2026-04-12T07:40:24Z</time></trkpt><trkpt lat="37.85691282079905" lon="14.852324582240723"><ele>851.5</ele><time>2026-04-12T07:40:25Z</time></trkpt><trkpt lat="37.85676403546903" lon="14.852048194961277"><ele>851.0</ele><time>2026-04-12T07:40:26Z</time></trkpt><trkpt lat="37.856614379731575" lon="14.851768684561295"><ele>851.0</ele><time>2026-04-12T07:40:27Z</time></trkpt><trkpt lat="37.85646230463368" lon="14.851487098590379"><ele>851.0</ele><time>2026-04-12T07:40:28Z</time></trkpt><trkpt lat="37.85630907858535" lon="14.851204132888553"><ele>850.0</ele><time>2026-04-12T07:40:29Z</time></trkpt><trkpt lat="37.856153843573914" lon="14.850917781606764"><ele>849.0</ele><time>2026-04-12T07:40:30Z</time></trkpt><trkpt lat="37.856000554977726" lon="14.85062874047652"><ele>849.0</ele><time>2026-04-12T07:40:31Z</time></trkpt><trkpt lat="37.85584658555662" lon="14.850337631995819"><ele>849.0</ele><time>2026-04-12T07:40:32Z</time></trkpt><trkpt lat="37.85569001266507" lon="14.850047486350219"><ele>849.0</ele><time>2026-04-12T07:40:33Z</time></trkpt><trkpt lat="37.855535483996555" lon="14.849756632323691"><ele>849.0</ele><time>2026-04-12T07:40:34Z</time></trkpt><trkpt lat="37.85537439298414" lon="14.849470018292507"><ele>847.0</ele><time>2026-04-12T07:40:35Z</time></trkpt><trkpt lat="37.855222749919804" lon="14.84918668654495"><ele>845.0</ele><time>2026-04-12T07:40:36Z</time></trkpt><trkpt lat="37.85507360312872" lon="14.84890658779669"><ele>845.0</ele><time>2026-04-12T07:40:37Z</time></trkpt><trkpt lat="37.85492959809718" lon="14.848633583905459"><ele>845.0</ele><time>2026-04-12T07:40:38Z</time></trkpt><trkpt lat="37.854786942243926" lon="14.84837285452246"><ele>844.0</ele><time>2026-04-12T07:40:39Z</time></trkpt><trkpt lat="37.85464873810595" lon="14.848116891288706"><ele>843.0</ele><time>2026-04-12T07:40:40Z</time></trkpt><trkpt lat="37.8545158182205" lon="14.84786554754082"><ele>843.0</ele><time>2026-04-12T07:40:41Z</time></trkpt><trkpt lat="37.854382799640135" lon="14.847620220523284"><ele>843.0</ele><time>2026-04-12T07:40:42Z</time></trkpt><trkpt lat="37.85425134705283" lon="14.847379141190514"><ele>843.0</ele><time>2026-04-12T07:40:43Z</time></trkpt><trkpt lat="37.85412650907648" lon="14.847147559925004"><ele>843.0</ele><time>2026-04-12T07:40:44Z</time></trkpt><trkpt lat="37.85400790824562" lon="14.846925431244653"><ele>843.0</ele><time>2026-04-12T07:40:45Z</time></trkpt><trkpt lat="37.853894801614096" lon="14.84671487984168"><ele>842.3333333333333</ele><time>2026-04-12T07:40:46Z</time></trkpt><trkpt lat="37.85378430741164" lon="14.846510464425297"><ele>841.6666666666666</ele><time>2026-04-12T07:40:47Z</time></trkpt><trkpt lat="37.8536780293974" lon="14.846308119770898"><ele>841.0</ele><time>2026-04-12T07:40:48Z</time></trkpt><trkpt lat="37.85357151499012" lon="14.846108144470513"><ele>841.0</ele><time>2026-04-12T07:40:49Z</time></trkpt><trkpt lat="37.85346161420297" lon="14.845906950287114"><ele>841.0</ele><time>2026-04-12T07:40:50Z</time></trkpt><trkpt lat="37.853350487313385" lon="14.845702033914485"><ele>841.0</ele><time>2026-04-12T07:40:51Z</time></trkpt><trkpt lat="37.85324097757642" lon="14.845490662428299"><ele>841.3333333333333</ele><time>2026-04-12T07:40:52Z</time></trkpt><trkpt lat="37.85313055576834" lon="14.845273988243601"><ele>841.6666666666667</ele><time>2026-04-12T07:40:53Z</time></trkpt><trkpt lat="37.853007180736576" lon="14.84506108220665"><ele>842.0</ele><time>2026-04-12T07:40:54Z</time></trkpt><trkpt lat="37.85289255729181" lon="14.844839812585548"><ele>841.3333333333334</ele><time>2026-04-12T07:40:55Z</time></trkpt><trkpt lat="37.85276979641048" lon="14.84461776505971"><ele>840.6666666666667</ele><time>2026-04-12T07:40:56Z</time></trkpt><trkpt lat="37.85264441614658" lon="14.844390264880838"><ele>840.0</ele><time>2026-04-12T07:40:57Z</time></trkpt><trkpt lat="37.852519542517015" lon="14.84415677127311"><ele>837.5</ele><time>2026-04-12T07:40:58Z</time></trkpt><trkpt lat="37.852393096415014" lon="14.84391737419143"><ele>835.0</ele><time>2026-04-12T07:40:59Z</time></trkpt><trkpt lat="37.852261567498964" lon="14.843676444210903"><ele>834.5</ele><time>2026-04-12T07:41:00Z</time></trkpt><trkpt lat="37.852130131028446" lon="14.843431492537578"><ele>834.0</ele><time>2026-04-12T07:41:01Z</time></trkpt><trkpt lat="37.85199649432855" lon="14.843185502814018"><ele>834.0</ele><time>2026-04-12T07:41:02Z</time></trkpt><trkpt lat="37.85186186495972" lon="14.842936327762606"><ele>834.0</ele><time>2026-04-12T07:41:03Z</time></trkpt><trkpt lat="37.85172805790298" lon="14.842684212501553"><ele>832.0</ele><time>2026-04-12T07:41:04Z</time></trkpt><trkpt lat="37.85159399312031" lon="14.84243238775298"><ele>830.0</ele><time>2026-04-12T07:41:05Z</time></trkpt><trkpt lat="37.85145797770992" lon="14.842180203196637"><ele>830.0</ele><time>2026-04-12T07:41:06Z</time></trkpt><trkpt lat="37.85132270975887" lon="14.841926643250067"><ele>830.0</ele><time>2026-04-12T07:41:07Z</time></trkpt><trkpt lat="37.85118891985647" lon="14.84167501723671"><ele>829.0</ele><time>2026-04-12T07:41:08Z</time></trkpt><trkpt lat="37.85104723426528" lon="14.841421669669218"><ele>828.0</ele><time>2026-04-12T07:41:09Z</time></trkpt><trkpt lat="37.850906762208005" lon="14.841166066072788"><ele>827.0</ele><time>2026-04-12T07:41:10Z</time></trkpt><trkpt lat="37.85076966880133" lon="14.840905675624613"><ele>826.0</ele><time>2026-04-12T07:41:11Z</time></trkpt><trkpt lat="37.85063932806698" lon="14.840650779795837"><ele>826.0</ele><time>2026-04-12T07:41:12Z</time></trkpt><trkpt lat="37.85052205946323" lon="14.840359913145862"><ele>826.0</ele><time>2026-04-12T07:41:13Z</time></trkpt><trkpt lat="37.85044523176203" lon="14.840063302814677"><ele>825.5</ele><time>2026-04-12T07:41:14Z</time></trkpt><trkpt lat="37.850380254426454" lon="14.839761045957278"><ele>825.0</ele><time>2026-04-12T07:41:15Z</time></trkpt><trkpt lat="37.850311730080705" lon="14.839458821358253"><ele>824.5</ele><time>2026-04-12T07:41:16Z</time></trkpt><trkpt lat="37.850238571241476" lon="14.839154172283209"><ele>824.0</ele><time>2026-04-12T07:41:17Z</time></trkpt><trkpt lat="37.8501637585606" lon="14.838844559881608"><ele>823.5</ele><time>2026-04-12T07:41:18Z</time></trkpt><trkpt lat="37.85009033235883" lon="14.838531674860398"><ele>823.0</ele><time>2026-04-12T07:41:19Z</time></trkpt><trkpt lat="37.85001569158109" lon="14.838220854290883"><ele>822.5</ele><time>2026-04-12T07:41:20Z</time></trkpt><trkpt lat="37.849936442779644" lon="14.837911434741462"><ele>822.0</ele><time>2026-04-12T07:41:21Z</time></trkpt><trkpt lat="37.84985942868043" lon="14.837603706270464"><ele>822.0</ele><time>2026-04-12T07:41:22Z</time></trkpt><trkpt lat="37.84979141011951" lon="14.837299563590504"><ele>822.0</ele><time>2026-04-12T07:41:23Z</time></trkpt><trkpt lat="37.84972288295516" lon="14.837001690870697"><ele>821.5</ele><time>2026-04-12T07:41:24Z</time></trkpt><trkpt lat="37.84965127316361" lon="14.836705938561702"><ele>821.0</ele><time>2026-04-12T07:41:25Z</time></trkpt><trkpt lat="37.84957993438411" lon="14.83641016983257"><ele>821.0</ele><time>2026-04-12T07:41:26Z</time></trkpt><trkpt lat="37.849510720276406" lon="14.836115241106794"><ele>821.0</ele><time>2026-04-12T07:41:27Z</time></trkpt><trkpt lat="37.849441716721266" lon="14.835820907312353"><ele>821.0</ele><time>2026-04-12T07:41:28Z</time></trkpt><trkpt lat="37.84937338521537" lon="14.835530268333601"><ele>821.0</ele><time>2026-04-12T07:41:29Z</time></trkpt><trkpt lat="37.849306619464606" lon="14.83524246554506"><ele>818.0</ele><time>2026-04-12T07:41:30Z</time></trkpt><trkpt lat="37.84923869974724" lon="14.834957968895399"><ele>815.0</ele><time>2026-04-12T07:41:31Z</time></trkpt><trkpt lat="37.84917053409665" lon="14.834674472390082"><ele>815.0</ele><time>2026-04-12T07:41:32Z</time></trkpt><trkpt lat="37.84910540260373" lon="14.834392989015221"><ele>815.0</ele><time>2026-04-12T07:41:33Z</time></trkpt><trkpt lat="37.84904105597297" lon="14.834110686105394"><ele>815.5</ele><time>2026-04-12T07:41:34Z</time></trkpt><trkpt lat="37.84897468912741" lon="14.833828510019273"><ele>816.0</ele><time>2026-04-12T07:41:35Z</time></trkpt><trkpt lat="37.848903140210744" lon="14.833546126283785"><ele>817.0</ele><time>2026-04-12T07:41:36Z</time></trkpt><trkpt lat="37.84882620718017" lon="14.833263960795643"><ele>818.0</ele><time>2026-04-12T07:41:37Z</time></trkpt><trkpt lat="37.84874131723332" lon="14.832982723328017"><ele>818.0</ele><time>2026-04-12T07:41:38Z</time></trkpt><trkpt lat="37.84864391882258" lon="14.832705582769837"><ele>818.0</ele><time>2026-04-12T07:41:39Z</time></trkpt><trkpt lat="37.848543945252764" lon="14.832429519717843"><ele>815.5</ele><time>2026-04-12T07:41:40Z</time></trkpt><trkpt lat="37.84844824304211" lon="14.832160892774786"><ele>813.0</ele><time>2026-04-12T07:41:41Z</time></trkpt><trkpt lat="37.84835803080296" lon="14.83190486380407"><ele>811.6666666666667</ele><time>2026-04-12T07:41:42Z</time></trkpt><trkpt lat="37.848277638711224" lon="14.831666121318518"><ele>810.3333333333334</ele><time>2026-04-12T07:41:43Z</time></trkpt><trkpt lat="37.84821002741542" lon="14.831446863607077"><ele>809.0</ele><time>2026-04-12T07:41:44Z</time></trkpt><trkpt lat="37.84814561673413" lon="14.831245287342634"><ele>809.0</ele><time>2026-04-12T07:41:45Z</time></trkpt><trkpt lat="37.84808455330616" lon="14.831054680678164"><ele>809.0</ele><time>2026-04-12T07:41:46Z</time></trkpt><trkpt lat="37.848024224118575" lon="14.83086142052021"><ele>809.0</ele><time>2026-04-12T07:41:47Z</time></trkpt><trkpt lat="37.8479720581394" lon="14.83066009366654"><ele>808.3333333333334</ele><time>2026-04-12T07:41:48Z</time></trkpt><trkpt lat="37.847931967635056" lon="14.830444142220529"><ele>807.6666666666667</ele><time>2026-04-12T07:41:49Z</time></trkpt><trkpt lat="37.84791101132926" lon="14.83021503514659"><ele>807.0</ele><time>2026-04-12T07:41:50Z</time></trkpt><trkpt lat="37.847906208778866" lon="14.829974931446953"><ele>807.0</ele><time>2026-04-12T07:41:51Z</time></trkpt><trkpt lat="37.84791600607075" lon="14.829727039239199"><ele>807.0</ele><time>2026-04-12T07:41:52Z</time></trkpt><trkpt lat="37.84794237088358" lon="14.829473023637895"><ele>807.0</ele><time>2026-04-12T07:41:53Z</time></trkpt><trkpt lat="37.8479724910677" lon="14.829212628865463"><ele>805.3333333333333</ele><time>2026-04-12T07:41:54Z</time></trkpt><trkpt lat="37.84799718566762" lon="14.828939917524755"><ele>803.6666666666666</ele><time>2026-04-12T07:41:55Z</time></trkpt><trkpt lat="37.8480205119664" lon="14.828656701659103"><ele>802.0</ele><time>2026-04-12T07:41:56Z</time></trkpt><trkpt lat="37.84804593476231" lon="14.828365768323673"><ele>798.5</ele><time>2026-04-12T07:41:57Z</time></trkpt><trkpt lat="37.84807304849395" lon="14.828066626716113"><ele>795.0</ele><time>2026-04-12T07:41:58Z</time></trkpt><trkpt lat="37.848101875467115" lon="14.827757153783889"><ele>792.5</ele><time>2026-04-12T07:41:59Z</time></trkpt><trkpt lat="37.84813356057118" lon="14.827440747237585"><ele>790.0</ele><time>2026-04-12T07:42:00Z</time></trkpt><trkpt lat="37.84816498538812" lon="14.82711465508104"><ele>788.0</ele><time>2026-04-12T07:42:01Z</time></trkpt><trkpt lat="37.84819529737353" lon="14.826783434256539"><ele>786.0</ele><time>2026-04-12T07:42:02Z</time></trkpt><trkpt lat="37.848227864137634" lon="14.826444928056672"><ele>786.0</ele><time>2026-04-12T07:42:03Z</time></trkpt><trkpt lat="37.84826005235055" lon="14.826102269799195"><ele>786.0</ele><time>2026-04-12T07:42:04Z</time></trkpt><trkpt lat="37.84829135238757" lon="14.825759298378394"><ele>782.5</ele><time>2026-04-12T07:42:05Z</time></trkpt><trkpt lat="37.84832014748818" lon="14.825418206709498"><ele>779.0</ele><time>2026-04-12T07:42:06Z</time></trkpt><trkpt lat="37.84835112646952" lon="14.82507734066906"><ele>775.5</ele><time>2026-04-12T07:42:07Z</time></trkpt><trkpt lat="37.848384113826526" lon="14.824738673333039"><ele>772.0</ele><time>2026-04-12T07:42:08Z</time></trkpt><trkpt lat="37.848417009880116" lon="14.824400874660492"><ele>772.5</ele><time>2026-04-12T07:42:09Z</time></trkpt><trkpt lat="37.84844807982459" lon="14.824064778703773"><ele>773.0</ele><time>2026-04-12T07:42:10Z</time></trkpt><trkpt lat="37.848479999481725" lon="14.823736160458292"><ele>768.5</ele><time>2026-04-12T07:42:11Z</time></trkpt><trkpt lat="37.84851043713058" lon="14.823421534520776"><ele>764.0</ele><time>2026-04-12T07:42:12Z</time></trkpt><trkpt lat="37.8485385829811" lon="14.823117104466801"><ele>764.0</ele><time>2026-04-12T07:42:13Z</time></trkpt><trkpt lat="37.8485661637775" lon="14.822822008552484"><ele>764.0</ele><time>2026-04-12T07:42:14Z</time></trkpt><trkpt lat="37.84859314686977" lon="14.822536612969017"><ele>763.6666666666666</ele><time>2026-04-12T07:42:15Z</time></trkpt><trkpt lat="37.84861926374639" lon="14.82225903644255"><ele>763.3333333333334</ele><time>2026-04-12T07:42:16Z</time></trkpt><trkpt lat="37.84864482534029" lon="14.821988857687566"><ele>763.0</ele><time>2026-04-12T07:42:17Z</time></trkpt><trkpt lat="37.848670290147226" lon="14.821726454537815"><ele>762.0</ele><time>2026-04-12T07:42:18Z</time></trkpt><trkpt lat="37.84868737362071" lon="14.82146941371111"><ele>761.0</ele><time>2026-04-12T07:42:19Z</time></trkpt><trkpt lat="37.848688903047616" lon="14.821220142708619"><ele>760.0</ele><time>2026-04-12T07:42:20Z</time></trkpt><trkpt lat="37.84866534456128" lon="14.820978567359186"><ele>757.0</ele><time>2026-04-12T07:42:21Z</time></trkpt><trkpt lat="37.84862845760887" lon="14.820746576455997"><ele>754.0</ele><time>2026-04-12T07:42:22Z</time></trkpt><trkpt lat="37.84857208801385" lon="14.820522725274552"><ele>751.0</ele><time>2026-04-12T07:42:23Z</time></trkpt><trkpt lat="37.84849350277121" lon="14.820304200623747"><ele>752.3333333333334</ele><time>2026-04-12T07:42:24Z</time></trkpt><trkpt lat="37.8483858248925" lon="14.820086457994929"><ele>753.6666666666666</ele><time>2026-04-12T07:42:25Z</time></trkpt><trkpt lat="37.84826925251608" lon="14.81985915167496"><ele>755.0</ele><time>2026-04-12T07:42:26Z</time></trkpt><trkpt lat="37.848164848951875" lon="14.819616648546294"><ele>755.0</ele><time>2026-04-12T07:42:27Z</time></trkpt><trkpt lat="37.84806165160534" lon="14.819369310366566"><ele>755.0</ele><time>2026-04-12T07:42:28Z</time></trkpt><trkpt lat="37.8479559494657" lon="14.819132060277456"><ele>755.0</ele><time>2026-04-12T07:42:29Z</time></trkpt><trkpt lat="37.847848237776574" lon="14.818900792352675"><ele>753.3333333333333</ele><time>2026-04-12T07:42:30Z</time></trkpt><trkpt lat="37.84780646119848" lon="14.818619050542713"><ele>751.6666666666666</ele><time>2026-04-12T07:42:31Z</time></trkpt><trkpt lat="37.847682564684526" lon="14.818395540674349"><ele>750.0</ele><time>2026-04-12T07:42:32Z</time></trkpt><trkpt lat="37.84752804340934" lon="14.8182206558235"><ele>749.0</ele><time>2026-04-12T07:42:33Z</time></trkpt><trkpt lat="37.84742680228523" lon="14.818000596563241"><ele>748.0</ele><time>2026-04-12T07:42:34Z</time></trkpt><trkpt lat="37.84733852094719" lon="14.817781919391859"><ele>747.0</ele><time>2026-04-12T07:42:35Z</time></trkpt><trkpt lat="37.847277244536826" lon="14.81755802996567"><ele>744.0</ele><time>2026-04-12T07:42:36Z</time></trkpt><trkpt lat="37.84726301045957" lon="14.817329209877672"><ele>741.0</ele><time>2026-04-12T07:42:37Z</time></trkpt><trkpt lat="37.847297977004075" lon="14.817109261652746"><ele>738.0</ele><time>2026-04-12T07:42:38Z</time></trkpt><trkpt lat="37.847378822657305" lon="14.816906080976393"><ele>738.6666666666666</ele><time>2026-04-12T07:42:39Z</time></trkpt><trkpt lat="37.847492326398466" lon="14.816740343204827"><ele>739.3333333333333</ele><time>2026-04-12T07:42:40Z</time></trkpt><trkpt lat="37.8476110388131" lon="14.816587385721219"><ele>740.0</ele><time>2026-04-12T07:42:41Z</time></trkpt><trkpt lat="37.84772385070111" lon="14.816413611079744"><ele>735.6666666666666</ele><time>2026-04-12T07:42:42Z</time></trkpt><trkpt lat="37.84783265992031" lon="14.81622473431126"><ele>731.3333333333334</ele><time>2026-04-12T07:42:43Z</time></trkpt><trkpt lat="37.8479461989682" lon="14.816034013630253"><ele>727.0</ele><time>2026-04-12T07:42:44Z</time></trkpt><trkpt lat="37.84805192393069" lon="14.815826831279997"><ele>727.0</ele><time>2026-04-12T07:42:45Z</time></trkpt><trkpt lat="37.84815057477927" lon="14.815601389409592"><ele>727.0</ele><time>2026-04-12T07:42:46Z</time></trkpt><trkpt lat="37.848248552828174" lon="14.81536522042987"><ele>727.0</ele><time>2026-04-12T07:42:47Z</time></trkpt><trkpt lat="37.84833766036875" lon="14.81511906381435"><ele>728.0</ele><time>2026-04-12T07:42:48Z</time></trkpt><trkpt lat="37.84841862223691" lon="14.814865913925901"><ele>729.0</ele><time>2026-04-12T07:42:49Z</time></trkpt><trkpt lat="37.84849281762828" lon="14.81461978334121"><ele>730.0</ele><time>2026-04-12T07:42:50Z</time></trkpt><trkpt lat="37.84855908942027" lon="14.814380485747948"><ele>725.0</ele><time>2026-04-12T07:42:51Z</time></trkpt><trkpt lat="37.84862342075511" lon="14.814149873540833"><ele>720.0</ele><time>2026-04-12T07:42:52Z</time></trkpt><trkpt lat="37.848686860637656" lon="14.813932315942894"><ele>715.0</ele><time>2026-04-12T07:42:53Z</time></trkpt><trkpt lat="37.84873516163508" lon="14.813718986003027"><ele>715.0</ele><time>2026-04-12T07:42:54Z</time></trkpt><trkpt lat="37.84875133541138" lon="14.813503852945269"><ele>715.0</ele><time>2026-04-12T07:42:55Z</time></trkpt><trkpt lat="37.84873699765215" lon="14.813282195432068"><ele>715.0</ele><time>2026-04-12T07:42:56Z</time></trkpt><trkpt lat="37.84868673581001" lon="14.813063231851693"><ele>714.6666666666667</ele><time>2026-04-12T07:42:57Z</time></trkpt><trkpt lat="37.848599859183466" lon="14.812854703248716"><ele>714.3333333333334</ele><time>2026-04-12T07:42:58Z</time></trkpt><trkpt lat="37.848480343541034" lon="14.812670350176516"><ele>714.0</ele><time>2026-04-12T07:42:59Z</time></trkpt><trkpt lat="37.84833402118621" lon="14.812516719314619"><ele>716.0</ele><time>2026-04-12T07:43:00Z</time></trkpt><trkpt lat="37.848168343967004" lon="14.812393448725842"><ele>718.0</ele><time>2026-04-12T07:43:01Z</time></trkpt><trkpt lat="37.847996470675554" lon="14.812286759338981"><ele>720.0</ele><time>2026-04-12T07:43:02Z</time></trkpt><trkpt lat="37.847846704880595" lon="14.81216046313949"><ele>720.0</ele><time>2026-04-12T07:43:03Z</time></trkpt><trkpt lat="37.84772298959613" lon="14.812005237546517"><ele>720.0</ele><time>2026-04-12T07:43:04Z</time></trkpt><trkpt lat="37.847624549245" lon="14.811834221623856"><ele>720.0</ele><time>2026-04-12T07:43:05Z</time></trkpt><trkpt lat="37.84755607858196" lon="14.811651226855378"><ele>720.0</ele><time>2026-04-12T07:43:06Z</time></trkpt><trkpt lat="37.847522162040335" lon="14.811455493502976"><ele>720.0</ele><time>2026-04-12T07:43:07Z</time></trkpt><trkpt lat="37.847519219456494" lon="14.811247135568482"><ele>720.0</ele><time>2026-04-12T07:43:08Z</time></trkpt><trkpt lat="37.8475526257652" lon="14.811032655760144"><ele>719.0</ele><time>2026-04-12T07:43:09Z</time></trkpt><trkpt lat="37.84761713184244" lon="14.810824830073612"><ele>718.0</ele><time>2026-04-12T07:43:10Z</time></trkpt><trkpt lat="37.847716786836365" lon="14.81062563986343"><ele>717.0</ele><time>2026-04-12T07:43:11Z</time></trkpt><trkpt lat="37.84784200730039" lon="14.810439411923609"><ele>712.6666666666666</ele><time>2026-04-12T07:43:12Z</time></trkpt><trkpt lat="37.84796363947843" lon="14.810243055672409"><ele>708.3333333333333</ele><time>2026-04-12T07:43:13Z</time></trkpt><trkpt lat="37.84808314132303" lon="14.81003976023601"><ele>704.0</ele><time>2026-04-12T07:43:14Z</time></trkpt><trkpt lat="37.848204284436235" lon="14.809838959567221"><ele>704.0</ele><time>2026-04-12T07:43:15Z</time></trkpt><trkpt lat="37.848324021769656" lon="14.809643390760616"><ele>704.0</ele><time>2026-04-12T07:43:16Z</time></trkpt><trkpt lat="37.84844485073966" lon="14.809449725483082"><ele>704.0</ele><time>2026-04-12T07:43:17Z</time></trkpt><trkpt lat="37.8485590612153" lon="14.80925548775054"><ele>700.0</ele><time>2026-04-12T07:43:18Z</time></trkpt><trkpt lat="37.84866197803064" lon="14.80906674871889"><ele>696.0</ele><time>2026-04-12T07:43:19Z</time></trkpt><trkpt lat="37.84873571816652" lon="14.808861978706442"><ele>692.0</ele><time>2026-04-12T07:43:20Z</time></trkpt><trkpt lat="37.84876304613523" lon="14.808639508917954"><ele>690.3333333333333</ele><time>2026-04-12T07:43:21Z</time></trkpt><trkpt lat="37.84875098200509" lon="14.808412798516903"><ele>688.6666666666666</ele><time>2026-04-12T07:43:22Z</time></trkpt><trkpt lat="37.84870594216344" lon="14.808196059090319"><ele>687.0</ele><time>2026-04-12T07:43:23Z</time></trkpt><trkpt lat="37.84861834696215" lon="14.808001447508113"><ele>687.0</ele><time>2026-04-12T07:43:24Z</time></trkpt><trkpt lat="37.848500285333685" lon="14.807833843207774"><ele>687.0</ele><time>2026-04-12T07:43:25Z</time></trkpt><trkpt lat="37.84835515246949" lon="14.807707054410884"><ele>687.0</ele><time>2026-04-12T07:43:26Z</time></trkpt><trkpt lat="37.848192703934586" lon="14.807627454258258"><ele>689.3333333333334</ele><time>2026-04-12T07:43:27Z</time></trkpt><trkpt lat="37.84801655816902" lon="14.80759847042966"><ele>691.6666666666667</ele><time>2026-04-12T07:43:28Z</time></trkpt><trkpt lat="37.847840118900045" lon="14.807618656396437"><ele>694.0</ele><time>2026-04-12T07:43:29Z</time></trkpt><trkpt lat="37.8476760455937" lon="14.807676539012315"><ele>697.0</ele><time>2026-04-12T07:43:30Z</time></trkpt><trkpt lat="37.847518685100376" lon="14.807723192314166"><ele>700.0</ele><time>2026-04-12T07:43:31Z</time></trkpt><trkpt lat="37.84736991269265" lon="14.807777248803307"><ele>703.0</ele><time>2026-04-12T07:43:32Z</time></trkpt><trkpt lat="37.84723147445521" lon="14.807828554587118"><ele>703.0</ele><time>2026-04-12T07:43:33Z</time></trkpt><trkpt lat="37.84709040668686" lon="14.80782374954955"><ele>703.0</ele><time>2026-04-12T07:43:34Z</time></trkpt><trkpt lat="37.84696128392472" lon="14.80776745471068"><ele>703.0</ele><time>2026-04-12T07:43:35Z</time></trkpt><trkpt lat="37.84685115877858" lon="14.807653805820562"><ele>703.0</ele><time>2026-04-12T07:43:36Z</time></trkpt><trkpt lat="37.846776198429076" lon="14.80750443178019"><ele>699.6666666666667</ele><time>2026-04-12T07:43:37Z</time></trkpt><trkpt lat="37.84673386539347" lon="14.807328197312318"><ele>696.3333333333334</ele><time>2026-04-12T07:43:38Z</time></trkpt><trkpt lat="37.84672581804811" lon="14.807136447384604"><ele>693.0</ele><time>2026-04-12T07:43:39Z</time></trkpt><trkpt lat="37.846743730200785" lon="14.806934652204077"><ele>692.0</ele><time>2026-04-12T07:43:40Z</time></trkpt><trkpt lat="37.8467500868225" lon="14.80672547058371"><ele>691.0</ele><time>2026-04-12T07:43:41Z</time></trkpt><trkpt lat="37.846752188665995" lon="14.806510404673169"><ele>690.0</ele><time>2026-04-12T07:43:42Z</time></trkpt><trkpt lat="37.84675740907128" lon="14.806296331526747"><ele>690.0</ele><time>2026-04-12T07:43:43Z</time></trkpt><trkpt lat="37.846741969578126" lon="14.80608157447166"><ele>690.0</ele><time>2026-04-12T07:43:44Z</time></trkpt><trkpt lat="37.84670190418426" lon="14.805864250790055"><ele>690.0</ele><time>2026-04-12T07:43:45Z</time></trkpt><trkpt lat="37.84664087538235" lon="14.805648132846477"><ele>688.3333333333334</ele><time>2026-04-12T07:43:46Z</time></trkpt><trkpt lat="37.8465658297271" lon="14.80545686060439"><ele>686.6666666666667</ele><time>2026-04-12T07:43:47Z</time></trkpt><trkpt lat="37.84648417434504" lon="14.805280124854345"><ele>685.0</ele><time>2026-04-12T07:43:48Z</time></trkpt><trkpt lat="37.84639924782058" lon="14.805111547475136"><ele>683.25</ele><time>2026-04-12T07:43:49Z</time></trkpt><trkpt lat="37.846322231437306" lon="14.804949128756535"><ele>681.5</ele><time>2026-04-12T07:43:50Z</time></trkpt><trkpt lat="37.84624700631224" lon="14.804791298476344"><ele>679.75</ele><time>2026-04-12T07:43:51Z</time></trkpt><trkpt lat="37.84616958510425" lon="14.804628324144835"><ele>678.0</ele><time>2026-04-12T07:43:52Z</time></trkpt><trkpt lat="37.84609224537838" lon="14.804469329665505"><ele>678.25</ele><time>2026-04-12T07:43:53Z</time></trkpt><trkpt lat="37.846013641819326" lon="14.80431048256872"><ele>678.5</ele><time>2026-04-12T07:43:54Z</time></trkpt><trkpt lat="37.845933923902464" lon="14.804148048432323"><ele>678.75</ele><time>2026-04-12T07:43:55Z</time></trkpt><trkpt lat="37.84585354886716" lon="14.80398813257089"><ele>679.0</ele><time>2026-04-12T07:43:56Z</time></trkpt><trkpt lat="37.84577399779844" lon="14.803830862721215"><ele>679.0</ele><time>2026-04-12T07:43:57Z</time></trkpt><trkpt lat="37.845692059019804" lon="14.803678530450757"><ele>679.0</ele><time>2026-04-12T07:43:58Z</time></trkpt><trkpt lat="37.84560431557996" lon="14.803534130825243"><ele>679.0</ele><time>2026-04-12T07:43:59Z</time></trkpt><trkpt lat="37.84550339377608" lon="14.803410015289954"><ele>679.0</ele><time>2026-04-12T07:44:00Z</time></trkpt><trkpt lat="37.845395877981396" lon="14.803304692224394"><ele>679.75</ele><time>2026-04-12T07:44:01Z</time></trkpt><trkpt lat="37.84528536286059" lon="14.803206172688313"><ele>680.5</ele><time>2026-04-12T07:44:02Z</time></trkpt><trkpt lat="37.84517169377615" lon="14.80310749391027"><ele>681.25</ele><time>2026-04-12T07:44:03Z</time></trkpt><trkpt lat="37.84505718638653" lon="14.80300666618461"><ele>682.0</ele><time>2026-04-12T07:44:04Z</time></trkpt><trkpt lat="37.84494356745794" lon="14.802901530611168"><ele>682.0</ele><time>2026-04-12T07:44:05Z</time></trkpt><trkpt lat="37.84482592909749" lon="14.802788132847216"><ele>682.0</ele><time>2026-04-12T07:44:06Z</time></trkpt><trkpt lat="37.84470509817392" lon="14.80267271777875"><ele>682.0</ele><time>2026-04-12T07:44:07Z</time></trkpt><trkpt lat="37.844583750874264" lon="14.802561426652847"><ele>682.0</ele><time>2026-04-12T07:44:08Z</time></trkpt><trkpt lat="37.844461828506944" lon="14.802453497980693"><ele>680.0</ele><time>2026-04-12T07:44:09Z</time></trkpt><trkpt lat="37.84433849246262" lon="14.802346600000556"><ele>678.0</ele><time>2026-04-12T07:44:10Z</time></trkpt><trkpt lat="37.84421594999426" lon="14.80224040451931"><ele>676.0</ele><time>2026-04-12T07:44:11Z</time></trkpt><trkpt lat="37.84409526095333" lon="14.8021326332207"><ele>674.0</ele><time>2026-04-12T07:44:12Z</time></trkpt><trkpt lat="37.84397378897809" lon="14.802021264555714"><ele>674.0</ele><time>2026-04-12T07:44:13Z</time></trkpt><trkpt lat="37.84385475257046" lon="14.801906821279408"><ele>674.0</ele><time>2026-04-12T07:44:14Z</time></trkpt><trkpt lat="37.84374065333938" lon="14.801785826817614"><ele>674.0</ele><time>2026-04-12T07:44:15Z</time></trkpt><trkpt lat="37.84362925761382" lon="14.801657773470119"><ele>674.0</ele><time>2026-04-12T07:44:16Z</time></trkpt><trkpt lat="37.84352195965329" lon="14.801525615796926"><ele>673.0</ele><time>2026-04-12T07:44:17Z</time></trkpt><trkpt lat="37.8434189682057" lon="14.80138922635644"><ele>672.0</ele><time>2026-04-12T07:44:18Z</time></trkpt><trkpt lat="37.843311183169" lon="14.801256370667842"><ele>671.0</ele><time>2026-04-12T07:44:19Z</time></trkpt><trkpt lat="37.84319782072871" lon="14.80113026694738"><ele>671.0</ele><time>2026-04-12T07:44:20Z</time></trkpt><trkpt lat="37.8430750427559" lon="14.801015267865791"><ele>671.0</ele><time>2026-04-12T07:44:21Z</time></trkpt><trkpt lat="37.842940876547146" lon="14.800923236245994"><ele>671.0</ele><time>2026-04-12T07:44:22Z</time></trkpt><trkpt lat="37.84279066489858" lon="14.800860137094675"><ele>667.3333333333333</ele><time>2026-04-12T07:44:23Z</time></trkpt><trkpt lat="37.8426354856541" lon="14.800822928932368"><ele>663.6666666666666</ele><time>2026-04-12T07:44:24Z</time></trkpt><trkpt lat="37.84247672390602" lon="14.800776505290136"><ele>660.0</ele><time>2026-04-12T07:44:25Z</time></trkpt><trkpt lat="37.84231750067069" lon="14.800723972514138"><ele>660.0</ele><time>2026-04-12T07:44:26Z</time></trkpt><trkpt lat="37.84216288136938" lon="14.800674429396441"><ele>660.0</ele><time>2026-04-12T07:44:27Z</time></trkpt><trkpt lat="37.842013915944015" lon="14.800626243238096"><ele>660.0</ele><time>2026-04-12T07:44:28Z</time></trkpt><trkpt lat="37.84186360988375" lon="14.800576638306065"><ele>660.6666666666666</ele><time>2026-04-12T07:44:29Z</time></trkpt><trkpt lat="37.84171531572062" lon="14.80052869014626"><ele>661.3333333333333</ele><time>2026-04-12T07:44:30Z</time></trkpt><trkpt lat="37.84156336989376" lon="14.800481446005975"><ele>662.0</ele><time>2026-04-12T07:44:31Z</time></trkpt><trkpt lat="37.84141299012396" lon="14.800434858435723"><ele>662.0</ele><time>2026-04-12T07:44:32Z</time></trkpt><trkpt lat="37.841259556282004" lon="14.800396209086731"><ele>662.0</ele><time>2026-04-12T07:44:33Z</time></trkpt><trkpt lat="37.84110467560293" lon="14.80036181746648"><ele>662.0</ele><time>2026-04-12T07:44:34Z</time></trkpt><trkpt lat="37.840948041876715" lon="14.80033641102373"><ele>661.3333333333333</ele><time>2026-04-12T07:44:35Z</time></trkpt><trkpt lat="37.840790606895155" lon="14.800316430912927"><ele>660.6666666666666</ele><time>2026-04-12T07:44:36Z</time></trkpt><trkpt lat="37.84063542096083" lon="14.800308898960942"><ele>660.0</ele><time>2026-04-12T07:44:37Z</time></trkpt><trkpt lat="37.840478072314895" lon="14.800311926839619"><ele>660.0</ele><time>2026-04-12T07:44:38Z</time></trkpt><trkpt lat="37.840321292163694" lon="14.800319452877531"><ele>660.0</ele><time>2026-04-12T07:44:39Z</time></trkpt><trkpt lat="37.84016427107712" lon="14.800328436164222"><ele>660.0</ele><time>2026-04-12T07:44:40Z</time></trkpt><trkpt lat="37.84000899188463" lon="14.800340969304191"><ele>658.3333333333334</ele><time>2026-04-12T07:44:41Z</time></trkpt><trkpt lat="37.8398539969091" lon="14.80035643245913"><ele>656.6666666666667</ele><time>2026-04-12T07:44:42Z</time></trkpt><trkpt lat="37.839698944433735" lon="14.800373199842813"><ele>655.0</ele><time>2026-04-12T07:44:43Z</time></trkpt><trkpt lat="37.83954164595523" lon="14.800388385685567"><ele>655.0</ele><time>2026-04-12T07:44:44Z</time></trkpt><trkpt lat="37.83938001130025" lon="14.80040572620913"><ele>655.0</ele><time>2026-04-12T07:44:45Z</time></trkpt><trkpt lat="37.839219605037904" lon="14.800424026965983"><ele>655.0</ele><time>2026-04-12T07:44:46Z</time></trkpt><trkpt lat="37.839057039608726" lon="14.800442840148968"><ele>653.6666666666667</ele><time>2026-04-12T07:44:47Z</time></trkpt><trkpt lat="37.83889479988436" lon="14.800461545712746"><ele>652.3333333333334</ele><time>2026-04-12T07:44:48Z</time></trkpt><trkpt lat="37.83873457271313" lon="14.800478700800197"><ele>651.0</ele><time>2026-04-12T07:44:49Z</time></trkpt><trkpt lat="37.83857941674146" lon="14.800495686105206"><ele>649.6666666666666</ele><time>2026-04-12T07:44:50Z</time></trkpt><trkpt lat="37.83842676876214" lon="14.800510626723813"><ele>648.3333333333333</ele><time>2026-04-12T07:44:51Z</time></trkpt><trkpt lat="37.83827577864552" lon="14.800510121086543"><ele>647.0</ele><time>2026-04-12T07:44:52Z</time></trkpt><trkpt lat="37.838126935982885" lon="14.800476119646222"><ele>647.0</ele><time>2026-04-12T07:44:53Z</time></trkpt><trkpt lat="37.83798594999848" lon="14.800408902923138"><ele>647.0</ele><time>2026-04-12T07:44:54Z</time></trkpt><trkpt lat="37.83785610943971" lon="14.800310388818534"><ele>647.0</ele><time>2026-04-12T07:44:55Z</time></trkpt><trkpt lat="37.83773850809785" lon="14.80018796558494"><ele>646.0</ele><time>2026-04-12T07:44:56Z</time></trkpt><trkpt lat="37.83763676096371" lon="14.800038445083349"><ele>645.0</ele><time>2026-04-12T07:44:57Z</time></trkpt><trkpt lat="37.83754387215538" lon="14.799871929771522"><ele>644.0</ele><time>2026-04-12T07:44:58Z</time></trkpt><trkpt lat="37.83744447539974" lon="14.799707878922494"><ele>644.0</ele><time>2026-04-12T07:44:59Z</time></trkpt><trkpt lat="37.837340169508614" lon="14.79954413278328"><ele>644.0</ele><time>2026-04-12T07:45:00Z</time></trkpt><trkpt lat="37.83723731206785" lon="14.799376097464108"><ele>644.0</ele><time>2026-04-12T07:45:01Z</time></trkpt><trkpt lat="37.83713154192179" lon="14.799205850226992"><ele>642.3333333333333</ele><time>2026-04-12T07:45:02Z</time></trkpt><trkpt lat="37.837026946561046" lon="14.79903323266166"><ele>640.6666666666666</ele><time>2026-04-12T07:45:03Z</time></trkpt><trkpt lat="37.83691921806128" lon="14.798859647586797"><ele>639.0</ele><time>2026-04-12T07:45:04Z</time></trkpt><trkpt lat="37.83681035545682" lon="14.798684918704907"><ele>638.6666666666666</ele><time>2026-04-12T07:45:05Z</time></trkpt><trkpt lat="37.83670244701449" lon="14.798507434870611"><ele>638.3333333333333</ele><time>2026-04-12T07:45:06Z</time></trkpt><trkpt lat="37.83659043426338" lon="14.798330889059294"><ele>638.0</ele><time>2026-04-12T07:45:07Z</time></trkpt><trkpt lat="37.83648122203811" lon="14.798154436316972"><ele>638.0</ele><time>2026-04-12T07:45:08Z</time></trkpt><trkpt lat="37.836375546092015" lon="14.797981095573778"><ele>638.0</ele><time>2026-04-12T07:45:09Z</time></trkpt><trkpt lat="37.836275640253135" lon="14.797816329177637"><ele>638.0</ele><time>2026-04-12T07:45:10Z</time></trkpt><trkpt lat="37.836181940305366" lon="14.797659062504074"><ele>638.5</ele><time>2026-04-12T07:45:11Z</time></trkpt><trkpt lat="37.836090841714395" lon="14.797510046775095"><ele>639.0</ele><time>2026-04-12T07:45:12Z</time></trkpt><trkpt lat="37.83600226743313" lon="14.797380021381286"><ele>639.5</ele><time>2026-04-12T07:45:13Z</time></trkpt><trkpt lat="37.83591764212859" lon="14.797258506183091"><ele>640.0</ele><time>2026-04-12T07:45:14Z</time></trkpt><trkpt lat="37.835846460113004" lon="14.797128791052883"><ele>640.0</ele><time>2026-04-12T07:45:15Z</time></trkpt><trkpt lat="37.835765489750855" lon="14.796998851894823"><ele>640.0</ele><time>2026-04-12T07:45:16Z</time></trkpt><trkpt lat="37.83565944958538" lon="14.796883789999798"><ele>640.0</ele><time>2026-04-12T07:45:17Z</time></trkpt><trkpt lat="37.83553597569866" lon="14.79677699947048"><ele>640.0</ele><time>2026-04-12T07:45:18Z</time></trkpt><trkpt lat="37.83539710936631" lon="14.796682382255943"><ele>637.0</ele><time>2026-04-12T07:45:19Z</time></trkpt><trkpt lat="37.8352531571471" lon="14.796595906186212"><ele>634.0</ele><time>2026-04-12T07:45:20Z</time></trkpt><trkpt lat="37.835113372378714" lon="14.796520952742338"><ele>631.0</ele><time>2026-04-12T07:45:21Z</time></trkpt><trkpt lat="37.83497559522759" lon="14.796454038818629"><ele>631.0</ele><time>2026-04-12T07:45:22Z</time></trkpt><trkpt lat="37.83484016704401" lon="14.796386865190087"><ele>631.0</ele><time>2026-04-12T07:45:23Z</time></trkpt><trkpt lat="37.83470568209891" lon="14.796339044470825"><ele>631.0</ele><time>2026-04-12T07:45:24Z</time></trkpt><trkpt lat="37.834570205128266" lon="14.796298522114034"><ele>631.0</ele><time>2026-04-12T07:45:25Z</time></trkpt><trkpt lat="37.83444253743777" lon="14.796264987969462"><ele>631.0</ele><time>2026-04-12T07:45:26Z</time></trkpt><trkpt lat="37.83432483853843" lon="14.796252510358872"><ele>631.0</ele><time>2026-04-12T07:45:27Z</time></trkpt><trkpt lat="37.834221710444744" lon="14.79621933001748"><ele>631.0</ele><time>2026-04-12T07:45:28Z</time></trkpt><trkpt lat="37.83414272677709" lon="14.796190882347066"><ele>631.0</ele><time>2026-04-12T07:45:29Z</time></trkpt><trkpt lat="37.83404771802435" lon="14.796146455258462"><ele>631.0</ele><time>2026-04-12T07:45:31Z</time></trkpt><trkpt lat="37.833957569335524" lon="14.796087728232497"><ele>631.4</ele><time>2026-04-12T07:45:33Z</time></trkpt><trkpt lat="37.83387290954337" lon="14.796008948430327"><ele>631.8</ele><time>2026-04-12T07:45:35Z</time></trkpt><trkpt lat="37.833788522672855" lon="14.795902038430581"><ele>632.1999999999999</ele><time>2026-04-12T07:45:37Z</time></trkpt><trkpt lat="37.833742503582776" lon="14.795808635232493"><ele>632.6</ele><time>2026-04-12T07:45:38Z</time></trkpt><trkpt lat="37.833706541739026" lon="14.7956866911991"><ele>633.0</ele><time>2026-04-12T07:45:39Z</time></trkpt><trkpt lat="37.83368263713411" lon="14.795540784394204"><ele>629.25</ele><time>2026-04-12T07:45:40Z</time></trkpt><trkpt lat="37.833665588403974" lon="14.795379119954234"><ele>625.5</ele><time>2026-04-12T07:45:41Z</time></trkpt><trkpt lat="37.83363719564607" lon="14.795192511739062"><ele>621.75</ele><time>2026-04-12T07:45:42Z</time></trkpt><trkpt lat="37.83360106348509" lon="14.795018111899426"><ele>618.0</ele><time>2026-04-12T07:45:43Z</time></trkpt><trkpt lat="37.83356463882222" lon="14.794837846561697"><ele>617.0</ele><time>2026-04-12T07:45:44Z</time></trkpt><trkpt lat="37.833526446761624" lon="14.794650672781318"><ele>616.0</ele><time>2026-04-12T07:45:45Z</time></trkpt><trkpt lat="37.833489276341574" lon="14.794455048927201"><ele>615.0</ele><time>2026-04-12T07:45:46Z</time></trkpt><trkpt lat="37.8334496009182" lon="14.794250094032492"><ele>614.0</ele><time>2026-04-12T07:45:47Z</time></trkpt><trkpt lat="37.83340754982608" lon="14.794044494210668"><ele>613.0</ele><time>2026-04-12T07:45:48Z</time></trkpt><trkpt lat="37.8333694772901" lon="14.793850115396372"><ele>612.0</ele><time>2026-04-12T07:45:49Z</time></trkpt><trkpt lat="37.83332639957537" lon="14.793648051703364"><ele>612.0</ele><time>2026-04-12T07:45:50Z</time></trkpt><trkpt lat="37.83328274110924" lon="14.793440006590123"><ele>612.0</ele><time>2026-04-12T07:45:51Z</time></trkpt><trkpt lat="37.83323749375989" lon="14.793229166398612"><ele>612.0</ele><time>2026-04-12T07:45:52Z</time></trkpt><trkpt lat="37.83319176648571" lon="14.79301281280003"><ele>612.0</ele><time>2026-04-12T07:45:53Z</time></trkpt><trkpt lat="37.833145972059874" lon="14.792796579920317"><ele>612.0</ele><time>2026-04-12T07:45:54Z</time></trkpt><trkpt lat="37.83310273780953" lon="14.792583539213311"><ele>612.0</ele><time>2026-04-12T07:45:55Z</time></trkpt><trkpt lat="37.833058727075375" lon="14.792371756692301"><ele>613.6666666666666</ele><time>2026-04-12T07:45:56Z</time></trkpt><trkpt lat="37.83301492946817" lon="14.792166441233046"><ele>615.3333333333333</ele><time>2026-04-12T07:45:57Z</time></trkpt><trkpt lat="37.83297036864409" lon="14.791963962734428"><ele>617.0</ele><time>2026-04-12T07:45:58Z</time></trkpt><trkpt lat="37.83292777850776" lon="14.791762515688912"><ele>617.0</ele><time>2026-04-12T07:45:59Z</time></trkpt><trkpt lat="37.83288831950657" lon="14.791567775331346"><ele>617.0</ele><time>2026-04-12T07:46:00Z</time></trkpt><trkpt lat="37.83286198758867" lon="14.79137122486266"><ele>617.0</ele><time>2026-04-12T07:46:01Z</time></trkpt><trkpt lat="37.8328631941768" lon="14.791174395916752"><ele>616.6666666666666</ele><time>2026-04-12T07:46:02Z</time></trkpt><trkpt lat="37.8328916186379" lon="14.7909796139421"><ele>616.3333333333334</ele><time>2026-04-12T07:46:03Z</time></trkpt><trkpt lat="37.83294296916288" lon="14.790789764064666"><ele>616.0</ele><time>2026-04-12T07:46:04Z</time></trkpt><trkpt lat="37.83301406604215" lon="14.790610270670454"><ele>616.0</ele><time>2026-04-12T07:46:05Z</time></trkpt><trkpt lat="37.83310381580974" lon="14.79044016726148"><ele>616.0</ele><time>2026-04-12T07:46:06Z</time></trkpt><trkpt lat="37.833215319957105" lon="14.790289534182365"><ele>616.0</ele><time>2026-04-12T07:46:07Z</time></trkpt><trkpt lat="37.833338902148796" lon="14.7901541972684"><ele>617.6666666666667</ele><time>2026-04-12T07:46:08Z</time></trkpt><trkpt lat="37.83346165192472" lon="14.790014334581933"><ele>619.3333333333334</ele><time>2026-04-12T07:46:09Z</time></trkpt><trkpt lat="37.833588348358404" lon="14.789868630347836"><ele>621.0</ele><time>2026-04-12T07:46:10Z</time></trkpt><trkpt lat="37.83372546231272" lon="14.789739360009774"><ele>621.0</ele><time>2026-04-12T07:46:11Z</time></trkpt><trkpt lat="37.83387217889115" lon="14.789611997036058"><ele>621.0</ele><time>2026-04-12T07:46:12Z</time></trkpt><trkpt lat="37.83401417321661" lon="14.789524316582403"><ele>621.0</ele><time>2026-04-12T07:46:13Z</time></trkpt><trkpt lat="37.83414699074532" lon="14.789469212679094"><ele>621.0</ele><time>2026-04-12T07:46:14Z</time></trkpt><trkpt lat="37.83426851292824" lon="14.78945384223712"><ele>621.0</ele><time>2026-04-12T07:46:15Z</time></trkpt><trkpt lat="37.83437498328809" lon="14.789444827259631"><ele>621.0</ele><time>2026-04-12T07:46:16Z</time></trkpt><trkpt lat="37.83446526073835" lon="14.789409794518475"><ele>621.0</ele><time>2026-04-12T07:46:17Z</time></trkpt><trkpt lat="37.83453595134965" lon="14.78933093304121"><ele>621.0</ele><time>2026-04-12T07:46:18Z</time></trkpt><trkpt lat="37.834571436240715" lon="14.789212124320478"><ele>624.25</ele><time>2026-04-12T07:46:19Z</time></trkpt><trkpt lat="37.83454998569117" lon="14.789079411307668"><ele>627.5</ele><time>2026-04-12T07:46:20Z</time></trkpt><trkpt lat="37.8344677999461" lon="14.788986656197014"><ele>630.75</ele><time>2026-04-12T07:46:21Z</time></trkpt><trkpt lat="37.83435669302497" lon="14.788955202082205"><ele>634.0</ele><time>2026-04-12T07:46:22Z</time></trkpt><trkpt lat="37.83422858296859" lon="14.78897029675433"><ele>634.6666666666667</ele><time>2026-04-12T07:46:23Z</time></trkpt><trkpt lat="37.834089904573304" lon="14.788991927174791"><ele>635.3333333333334</ele><time>2026-04-12T07:46:24Z</time></trkpt><trkpt lat="37.83393800411153" lon="14.788978848094185"><ele>636.0</ele><time>2026-04-12T07:46:25Z</time></trkpt><trkpt lat="37.833779056516086" lon="14.788963986967374"><ele>636.0</ele><time>2026-04-12T07:46:26Z</time></trkpt><trkpt lat="37.833609008731074" lon="14.788941671083517"><ele>636.0</ele><time>2026-04-12T07:46:27Z</time></trkpt><trkpt lat="37.833429173414125" lon="14.788903744050833"><ele>636.0</ele><time>2026-04-12T07:46:28Z</time></trkpt><trkpt lat="37.83324365855728" lon="14.788852512024123"><ele>636.3333333333334</ele><time>2026-04-12T07:46:29Z</time></trkpt><trkpt lat="37.83306002243251" lon="14.788788042292383"><ele>636.6666666666667</ele><time>2026-04-12T07:46:30Z</time></trkpt><trkpt lat="37.832886623541185" lon="14.788701365672942"><ele>637.0</ele><time>2026-04-12T07:46:31Z</time></trkpt><trkpt lat="37.83272186025754" lon="14.788591085468445"><ele>641.0</ele><time>2026-04-12T07:46:32Z</time></trkpt><trkpt lat="37.83256371082772" lon="14.78845980572223"><ele>645.0</ele><time>2026-04-12T07:46:33Z</time></trkpt><trkpt lat="37.83241656556039" lon="14.788304608984152"><ele>649.0</ele><time>2026-04-12T07:46:34Z</time></trkpt><trkpt lat="37.832277896063744" lon="14.78813224575478"><ele>649.0</ele><time>2026-04-12T07:46:35Z</time></trkpt><trkpt lat="37.83215577566186" lon="14.787939611647062"><ele>649.0</ele><time>2026-04-12T07:46:36Z</time></trkpt><trkpt lat="37.832064837918104" lon="14.78772452266226"><ele>649.0</ele><time>2026-04-12T07:46:37Z</time></trkpt><trkpt lat="37.83199481391557" lon="14.787500301013143"><ele>648.0</ele><time>2026-04-12T07:46:38Z</time></trkpt><trkpt lat="37.83193581785687" lon="14.787284735897323"><ele>647.0</ele><time>2026-04-12T07:46:39Z</time></trkpt><trkpt lat="37.83188308882295" lon="14.787072456396066"><ele>646.0</ele><time>2026-04-12T07:46:40Z</time></trkpt><trkpt lat="37.831798817087346" lon="14.786896888784913"><ele>650.6666666666667</ele><time>2026-04-12T07:46:41Z</time></trkpt><trkpt lat="37.83168055449621" lon="14.786748157342956"><ele>655.3333333333334</ele><time>2026-04-12T07:46:42Z</time></trkpt><trkpt lat="37.8315454228886" lon="14.786614110527253"><ele>660.0</ele><time>2026-04-12T07:46:43Z</time></trkpt><trkpt lat="37.83140958306296" lon="14.786482524738107"><ele>660.0</ele><time>2026-04-12T07:46:44Z</time></trkpt><trkpt lat="37.83128459691746" lon="14.786333708810831"><ele>660.0</ele><time>2026-04-12T07:46:45Z</time></trkpt><trkpt lat="37.8311676009045" lon="14.786171357917038"><ele>660.0</ele><time>2026-04-12T07:46:46Z</time></trkpt><trkpt lat="37.83105750163226" lon="14.785995084219344"><ele>659.6666666666666</ele><time>2026-04-12T07:46:47Z</time></trkpt><trkpt lat="37.830963673712695" lon="14.785802887740465"><ele>659.3333333333333</ele><time>2026-04-12T07:46:48Z</time></trkpt><trkpt lat="37.83087295935325" lon="14.785598622970209"><ele>659.0</ele><time>2026-04-12T07:46:49Z</time></trkpt><trkpt lat="37.83079702678037" lon="14.785379831264171"><ele>662.3333333333333</ele><time>2026-04-12T07:46:50Z</time></trkpt><trkpt lat="37.83072643530606" lon="14.785152688412019"><ele>665.6666666666666</ele><time>2026-04-12T07:46:51Z</time></trkpt><trkpt lat="37.83066000007765" lon="14.784917548308222"><ele>669.0</ele><time>2026-04-12T07:46:52Z</time></trkpt><trkpt lat="37.83058979940082" lon="14.784678323610468"><ele>669.0</ele><time>2026-04-12T07:46:53Z</time></trkpt><trkpt lat="37.830515197110806" lon="14.784431995293383"><ele>669.0</ele><time>2026-04-12T07:46:54Z</time></trkpt><trkpt lat="37.8304366430847" lon="14.784196260068429"><ele>669.0</ele><time>2026-04-12T07:46:55Z</time></trkpt><trkpt lat="37.83036724382991" lon="14.78398331599573"><ele>671.3333333333334</ele><time>2026-04-12T07:46:56Z</time></trkpt><trkpt lat="37.83032387711451" lon="14.783777532478721"><ele>673.6666666666667</ele><time>2026-04-12T07:46:57Z</time></trkpt><trkpt lat="37.83029788833855" lon="14.783559326794148"><ele>676.0</ele><time>2026-04-12T07:46:58Z</time></trkpt><trkpt lat="37.83028816483068" lon="14.783351803626527"><ele>675.25</ele><time>2026-04-12T07:46:59Z</time></trkpt><trkpt lat="37.830272914109514" lon="14.783156493993843"><ele>674.5</ele><time>2026-04-12T07:47:00Z</time></trkpt><trkpt lat="37.83023851031317" lon="14.782982397832656"><ele>673.75</ele><time>2026-04-12T07:47:01Z</time></trkpt><trkpt lat="37.830156886343325" lon="14.782831271898582"><ele>673.0</ele><time>2026-04-12T07:47:02Z</time></trkpt><trkpt lat="37.83004359599694" lon="14.782712977794711"><ele>674.3333333333334</ele><time>2026-04-12T07:47:03Z</time></trkpt><trkpt lat="37.8299158756009" lon="14.782612088738249"><ele>675.6666666666666</ele><time>2026-04-12T07:47:04Z</time></trkpt><trkpt lat="37.82978171525078" lon="14.78253056949017"><ele>677.0</ele><time>2026-04-12T07:47:05Z</time></trkpt><trkpt lat="37.82963473490435" lon="14.782488496238415"><ele>677.0</ele><time>2026-04-12T07:47:06Z</time></trkpt><trkpt lat="37.8294868597552" lon="14.782508515756177"><ele>677.0</ele><time>2026-04-12T07:47:07Z</time></trkpt><trkpt lat="37.82935074185624" lon="14.782587751497937"><ele>677.0</ele><time>2026-04-12T07:47:08Z</time></trkpt><trkpt lat="37.829230424437334" lon="14.782712747107245"><ele>677.3333333333333</ele><time>2026-04-12T07:47:09Z</time></trkpt><trkpt lat="37.82912513168023" lon="14.782875480366753"><ele>677.6666666666666</ele><time>2026-04-12T07:47:10Z</time></trkpt><trkpt lat="37.82902004251657" lon="14.783069714958112"><ele>678.0</ele><time>2026-04-12T07:47:11Z</time></trkpt><trkpt lat="37.82889647433717" lon="14.783272078143005"><ele>678.0</ele><time>2026-04-12T07:47:12Z</time></trkpt><trkpt lat="37.828761733622954" lon="14.78349259373066"><ele>678.0</ele><time>2026-04-12T07:47:13Z</time></trkpt><trkpt lat="37.8286172903108" lon="14.78373984127811"><ele>676.6666666666666</ele><time>2026-04-12T07:47:14Z</time></trkpt><trkpt lat="37.828480428663156" lon="14.783969075399773"><ele>675.3333333333333</ele><time>2026-04-12T07:47:15Z</time></trkpt><trkpt lat="37.82835817544389" lon="14.78417513807217"><ele>674.0</ele><time>2026-04-12T07:47:16Z</time></trkpt><trkpt lat="37.82824337408583" lon="14.784370955250832"><ele>676.25</ele><time>2026-04-12T07:47:17Z</time></trkpt><trkpt lat="37.82814768907069" lon="14.784536903192382"><ele>678.5</ele><time>2026-04-12T07:47:18Z</time></trkpt><trkpt lat="37.82806490460957" lon="14.784666318278175"><ele>680.75</ele><time>2026-04-12T07:47:19Z</time></trkpt><trkpt lat="37.827975044279746" lon="14.784751302839476"><ele>683.0</ele><time>2026-04-12T07:47:20Z</time></trkpt><trkpt lat="37.8278758571414" lon="14.784777767607874"><ele>683.0</ele><time>2026-04-12T07:47:21Z</time></trkpt><trkpt lat="37.827786230704994" lon="14.784742559509784"><ele>683.0</ele><time>2026-04-12T07:47:22Z</time></trkpt><trkpt lat="37.82770988661168" lon="14.784667708111012"><ele>683.0</ele><time>2026-04-12T07:47:23Z</time></trkpt><trkpt lat="37.82766324220254" lon="14.784553155111062"><ele>683.0</ele><time>2026-04-12T07:47:24Z</time></trkpt><trkpt lat="37.82767951519321" lon="14.784413971401781"><ele>683.0</ele><time>2026-04-12T07:47:25Z</time></trkpt><trkpt lat="37.82772092302609" lon="14.784267034087598"><ele>683.3333333333333</ele><time>2026-04-12T07:47:26Z</time></trkpt><trkpt lat="37.82775159224945" lon="14.784082452629512"><ele>683.6666666666666</ele><time>2026-04-12T07:47:27Z</time></trkpt><trkpt lat="37.82780913938278" lon="14.78387896969721"><ele>684.0</ele><time>2026-04-12T07:47:28Z</time></trkpt><trkpt lat="37.82787462048898" lon="14.78365683787244"><ele>687.3333333333334</ele><time>2026-04-12T07:47:29Z</time></trkpt><trkpt lat="37.82795018746249" lon="14.783440191287117"><ele>690.6666666666667</ele><time>2026-04-12T07:47:30Z</time></trkpt><trkpt lat="37.828027803580866" lon="14.783237649993431"><ele>694.0</ele><time>2026-04-12T07:47:31Z</time></trkpt><trkpt lat="37.82810224903224" lon="14.78304308850164"><ele>694.0</ele><time>2026-04-12T07:47:32Z</time></trkpt><trkpt lat="37.82817099411885" lon="14.782869266013222"><ele>694.0</ele><time>2026-04-12T07:47:33Z</time></trkpt><trkpt lat="37.82822125051526" lon="14.782706305849855"><ele>694.0</ele><time>2026-04-12T07:47:34Z</time></trkpt><trkpt lat="37.828224594333506" lon="14.782541711269307"><ele>694.0</ele><time>2026-04-12T07:47:35Z</time></trkpt><trkpt lat="37.82819035471832" lon="14.782370434556713"><ele>695.5</ele><time>2026-04-12T07:47:36Z</time></trkpt><trkpt lat="37.82811489834923" lon="14.782239623449236"><ele>697.0</ele><time>2026-04-12T07:47:37Z</time></trkpt><trkpt lat="37.828012246852225" lon="14.782150938999923"><ele>698.5</ele><time>2026-04-12T07:47:38Z</time></trkpt><trkpt lat="37.82788493221308" lon="14.78211237967353"><ele>700.0</ele><time>2026-04-12T07:47:39Z</time></trkpt><trkpt lat="37.827753452337525" lon="14.782127756855362"><ele>703.5</ele><time>2026-04-12T07:47:40Z</time></trkpt><trkpt lat="37.827634598370594" lon="14.782189906964438"><ele>707.0</ele><time>2026-04-12T07:47:41Z</time></trkpt><trkpt lat="37.827545473164236" lon="14.782305914336689"><ele>710.5</ele><time>2026-04-12T07:47:42Z</time></trkpt><trkpt lat="37.827485215565844" lon="14.782454428276012"><ele>714.0</ele><time>2026-04-12T07:47:43Z</time></trkpt><trkpt lat="37.827453664425114" lon="14.782637935668332"><ele>712.5</ele><time>2026-04-12T07:47:44Z</time></trkpt><trkpt lat="37.82743271512005" lon="14.782829613162626"><ele>711.0</ele><time>2026-04-12T07:47:45Z</time></trkpt><trkpt lat="37.82740087301841" lon="14.782996798703785"><ele>709.5</ele><time>2026-04-12T07:47:46Z</time></trkpt><trkpt lat="37.827364416218316" lon="14.783133803483002"><ele>708.0</ele><time>2026-04-12T07:47:47Z</time></trkpt><trkpt lat="37.82731724677851" lon="14.783245338829303"><ele>708.0</ele><time>2026-04-12T07:47:48Z</time></trkpt><trkpt lat="37.827237721284796" lon="14.78331301707321"><ele>708.0</ele><time>2026-04-12T07:47:49Z</time></trkpt><trkpt lat="37.8271520816981" lon="14.78330914827365"><ele>708.0</ele><time>2026-04-12T07:47:50Z</time></trkpt><trkpt lat="37.82708870899152" lon="14.783259108657116"><ele>708.0</ele><time>2026-04-12T07:47:51Z</time></trkpt><trkpt lat="37.82704656176699" lon="14.783176103909973"><ele>708.0</ele><time>2026-04-12T07:47:52Z</time></trkpt><trkpt lat="37.827036372297954" lon="14.783065807614296"><ele>708.0</ele><time>2026-04-12T07:47:53Z</time></trkpt><trkpt lat="37.827088058350185" lon="14.782968735782534"><ele>708.0</ele><time>2026-04-12T07:47:54Z</time></trkpt><trkpt lat="37.827126680399225" lon="14.782841692440709"><ele>708.0</ele><time>2026-04-12T07:47:55Z</time></trkpt><trkpt lat="37.82717424187604" lon="14.782703038927808"><ele>708.0</ele><time>2026-04-12T07:47:56Z</time></trkpt><trkpt lat="37.827201020922246" lon="14.782539483926376"><ele>708.0</ele><time>2026-04-12T07:47:57Z</time></trkpt><trkpt lat="37.82721543180145" lon="14.7823651181055"><ele>710.0</ele><time>2026-04-12T07:47:58Z</time></trkpt><trkpt lat="37.82721938593192" lon="14.782173692219331"><ele>712.0</ele><time>2026-04-12T07:47:59Z</time></trkpt><trkpt lat="37.8272201199001" lon="14.781972764296476"><ele>714.0</ele><time>2026-04-12T07:48:00Z</time></trkpt><trkpt lat="37.82721559346363" lon="14.78176064060547"><ele>714.6666666666666</ele><time>2026-04-12T07:48:01Z</time></trkpt><trkpt lat="37.8272023407705" lon="14.78154096595781"><ele>715.3333333333333</ele><time>2026-04-12T07:48:02Z</time></trkpt><trkpt lat="37.82718241752672" lon="14.781314176532488"><ele>716.0</ele><time>2026-04-12T07:48:03Z</time></trkpt><trkpt lat="37.82716039322244" lon="14.781079237942173"><ele>716.3333333333333</ele><time>2026-04-12T07:48:04Z</time></trkpt><trkpt lat="37.82713699589589" lon="14.780838571202516"><ele>716.6666666666666</ele><time>2026-04-12T07:48:05Z</time></trkpt><trkpt lat="37.827119374147884" lon="14.780597483245772"><ele>717.0</ele><time>2026-04-12T07:48:06Z</time></trkpt><trkpt lat="37.82711293360457" lon="14.780362278120712"><ele>719.3333333333334</ele><time>2026-04-12T07:48:07Z</time></trkpt><trkpt lat="37.827110226517945" lon="14.780127177903"><ele>721.6666666666667</ele><time>2026-04-12T07:48:08Z</time></trkpt><trkpt lat="37.82711594830026" lon="14.779899589196733"><ele>724.0</ele><time>2026-04-12T07:48:09Z</time></trkpt><trkpt lat="37.82712484099662" lon="14.779683123682998"><ele>724.0</ele><time>2026-04-12T07:48:10Z</time></trkpt><trkpt lat="37.82713285685992" lon="14.779478033844086"><ele>724.0</ele><time>2026-04-12T07:48:11Z</time></trkpt><trkpt lat="37.82714303836922" lon="14.779292856208665"><ele>724.0</ele><time>2026-04-12T07:48:12Z</time></trkpt><trkpt lat="37.827157332476716" lon="14.779128111896084"><ele>724.0</ele><time>2026-04-12T07:48:13Z</time></trkpt><trkpt lat="37.827191272154415" lon="14.778995961331642"><ele>727.0</ele><time>2026-04-12T07:48:14Z</time></trkpt><trkpt lat="37.82725454951191" lon="14.778897372197111"><ele>730.0</ele><time>2026-04-12T07:48:15Z</time></trkpt><trkpt lat="37.827350416646546" lon="14.778840472880596"><ele>733.0</ele><time>2026-04-12T07:48:16Z</time></trkpt><trkpt lat="37.82746983592974" lon="14.778814908951336"><ele>736.0</ele><time>2026-04-12T07:48:17Z</time></trkpt><trkpt lat="37.8276041787926" lon="14.778797752976434"><ele>734.3333333333334</ele><time>2026-04-12T07:48:18Z</time></trkpt><trkpt lat="37.82775514164539" lon="14.778778559056464"><ele>732.6666666666666</ele><time>2026-04-12T07:48:19Z</time></trkpt><trkpt lat="37.82791633056528" lon="14.778751015441323"><ele>731.0</ele><time>2026-04-12T07:48:20Z</time></trkpt><trkpt lat="37.82808137186997" lon="14.778725289524774"><ele>731.0</ele><time>2026-04-12T07:48:21Z</time></trkpt><trkpt lat="37.82824481155076" lon="14.778700546424764"><ele>731.0</ele><time>2026-04-12T07:48:22Z</time></trkpt><trkpt lat="37.828401554363055" lon="14.77867639410983"><ele>731.0</ele><time>2026-04-12T07:48:23Z</time></trkpt><trkpt lat="37.82855267441857" lon="14.778652844301789"><ele>728.0</ele><time>2026-04-12T07:48:24Z</time></trkpt><trkpt lat="37.828700974240334" lon="14.778623098488215"><ele>725.0</ele><time>2026-04-12T07:48:25Z</time></trkpt><trkpt lat="37.8288421995349" lon="14.778565472495837"><ele>722.0</ele><time>2026-04-12T07:48:26Z</time></trkpt><trkpt lat="37.828971712100895" lon="14.77844965922976"><ele>726.6666666666666</ele><time>2026-04-12T07:48:27Z</time></trkpt><trkpt lat="37.82909930845954" lon="14.77833655985228"><ele>731.3333333333334</ele><time>2026-04-12T07:48:28Z</time></trkpt><trkpt lat="37.82923571780777" lon="14.778272500359632"><ele>736.0</ele><time>2026-04-12T07:48:29Z</time></trkpt><trkpt lat="37.8293916248017" lon="14.77825351928127"><ele>736.0</ele><time>2026-04-12T07:48:30Z</time></trkpt><trkpt lat="37.82954608022733" lon="14.778280472586234"><ele>736.0</ele><time>2026-04-12T07:48:31Z</time></trkpt><trkpt lat="37.82968921718818" lon="14.778283422901593"><ele>736.0</ele><time>2026-04-12T07:48:32Z</time></trkpt><trkpt lat="37.82981707679239" lon="14.778277752888007"><ele>736.0</ele><time>2026-04-12T07:48:33Z</time></trkpt><trkpt lat="37.82993233575513" lon="14.778244898562141"><ele>736.0</ele><time>2026-04-12T07:48:34Z</time></trkpt><trkpt lat="37.83003971117428" lon="14.778174525121495"><ele>736.0</ele><time>2026-04-12T07:48:35Z</time></trkpt><trkpt lat="37.830130056581" lon="14.778063042750366"><ele>736.0</ele><time>2026-04-12T07:48:36Z</time></trkpt><trkpt lat="37.83019697328506" lon="14.777923205924173"><ele>736.0</ele><time>2026-04-12T07:48:37Z</time></trkpt><trkpt lat="37.830233708836545" lon="14.777752827566866"><ele>743.0</ele><time>2026-04-12T07:48:38Z</time></trkpt><trkpt lat="37.83023645470595" lon="14.777561260819805"><ele>750.0</ele><time>2026-04-12T07:48:39Z</time></trkpt><trkpt lat="37.830217367990414" lon="14.777357965577284"><ele>757.0</ele><time>2026-04-12T07:48:40Z</time></trkpt><trkpt lat="37.83019906195981" lon="14.77713946695307"><ele>757.0</ele><time>2026-04-12T07:48:41Z</time></trkpt><trkpt lat="37.830203714535564" lon="14.77691796026261"><ele>757.0</ele><time>2026-04-12T07:48:42Z</time></trkpt><trkpt lat="37.83022446469903" lon="14.776710792805183"><ele>757.0</ele><time>2026-04-12T07:48:43Z</time></trkpt><trkpt lat="37.83027297269449" lon="14.776507758655184"><ele>757.0</ele><time>2026-04-12T07:48:44Z</time></trkpt><trkpt lat="37.83036054869631" lon="14.776316120214284"><ele>757.0</ele><time>2026-04-12T07:48:45Z</time></trkpt><trkpt lat="37.83047446702781" lon="14.776138175567164"><ele>757.0</ele><time>2026-04-12T07:48:46Z</time></trkpt><trkpt lat="37.830599142770374" lon="14.775969799698519"><ele>755.0</ele><time>2026-04-12T07:48:47Z</time></trkpt><trkpt lat="37.830729084089036" lon="14.775823525692926"><ele>753.0</ele><time>2026-04-12T07:48:48Z</time></trkpt><trkpt lat="37.83084823366483" lon="14.775685830177492"><ele>751.0</ele><time>2026-04-12T07:48:49Z</time></trkpt><trkpt lat="37.83095631943516" lon="14.775536213942255"><ele>756.3333333333334</ele><time>2026-04-12T07:48:50Z</time></trkpt><trkpt lat="37.83103466636177" lon="14.775364435018215"><ele>761.6666666666666</ele><time>2026-04-12T07:48:51Z</time></trkpt><trkpt lat="37.83107080641053" lon="14.775160273717827"><ele>767.0</ele><time>2026-04-12T07:48:52Z</time></trkpt><trkpt lat="37.83108037729998" lon="14.774946404061824"><ele>767.0</ele><time>2026-04-12T07:48:53Z</time></trkpt><trkpt lat="37.83107822685214" lon="14.774731946586897"><ele>767.0</ele><time>2026-04-12T07:48:54Z</time></trkpt><trkpt lat="37.83107114405196" lon="14.774510707634814"><ele>767.0</ele><time>2026-04-12T07:48:55Z</time></trkpt><trkpt lat="37.83105203677718" lon="14.77428760529588"><ele>769.0</ele><time>2026-04-12T07:48:56Z</time></trkpt><trkpt lat="37.83102114494066" lon="14.774062682158075"><ele>771.0</ele><time>2026-04-12T07:48:57Z</time></trkpt><trkpt lat="37.830994852115715" lon="14.773837729662624"><ele>773.0</ele><time>2026-04-12T07:48:58Z</time></trkpt><trkpt lat="37.83098153753567" lon="14.773637451405406"><ele>774.3333333333334</ele><time>2026-04-12T07:48:59Z</time></trkpt><trkpt lat="37.83098414213967" lon="14.773440487290017"><ele>775.6666666666667</ele><time>2026-04-12T07:49:00Z</time></trkpt><trkpt lat="37.83102430290096" lon="14.773233100868351"><ele>777.0</ele><time>2026-04-12T07:49:01Z</time></trkpt><trkpt lat="37.83110445596967" lon="14.773015921253775"><ele>777.0</ele><time>2026-04-12T07:49:02Z</time></trkpt><trkpt lat="37.83117040355687" lon="14.772769023693977"><ele>777.0</ele><time>2026-04-12T07:49:03Z</time></trkpt><trkpt lat="37.8311961297895" lon="14.772517088588438"><ele>777.0</ele><time>2026-04-12T07:49:04Z</time></trkpt><trkpt lat="37.83119045725124" lon="14.772259132190085"><ele>777.0</ele><time>2026-04-12T07:49:05Z</time></trkpt><trkpt lat="37.83119057554285" lon="14.771985394478135"><ele>777.0</ele><time>2026-04-12T07:49:06Z</time></trkpt><trkpt lat="37.83122864252989" lon="14.771692738021384"><ele>777.0</ele><time>2026-04-12T07:49:07Z</time></trkpt><trkpt lat="37.831279705230706" lon="14.77138149276648"><ele>777.0</ele><time>2026-04-12T07:49:08Z</time></trkpt><trkpt lat="37.831327730561895" lon="14.771050365456949"><ele>777.5</ele><time>2026-04-12T07:49:09Z</time></trkpt><trkpt lat="37.831376183449876" lon="14.770726068829385"><ele>778.0</ele><time>2026-04-12T07:49:10Z</time></trkpt><trkpt lat="37.83142152316893" lon="14.770442646606966"><ele>777.6666666666666</ele><time>2026-04-12T07:49:11Z</time></trkpt><trkpt lat="37.83146648567955" lon="14.770177808363925"><ele>777.3333333333333</ele><time>2026-04-12T07:49:12Z</time></trkpt><trkpt lat="37.831505293068105" lon="14.769935220132291"><ele>777.0</ele><time>2026-04-12T07:49:13Z</time></trkpt><trkpt lat="37.83154099547289" lon="14.769725920965033"><ele>777.0</ele><time>2026-04-12T07:49:14Z</time></trkpt><trkpt lat="37.831569017804604" lon="14.769553290683495"><ele>777.0</ele><time>2026-04-12T07:49:15Z</time></trkpt><trkpt lat="37.831611524432134" lon="14.769408140244645"><ele>777.0</ele><time>2026-04-12T07:49:16Z</time></trkpt><trkpt lat="37.831690148979405" lon="14.769297203743815"><ele>777.0</ele><time>2026-04-12T07:49:17Z</time></trkpt><trkpt lat="37.8317970923544" lon="14.769243409293484"><ele>774.75</ele><time>2026-04-12T07:49:18Z</time></trkpt><trkpt lat="37.83191449353212" lon="14.769248844155685"><ele>772.5</ele><time>2026-04-12T07:49:19Z</time></trkpt><trkpt lat="37.83204531352709" lon="14.769259019460156"><ele>770.25</ele><time>2026-04-12T07:49:20Z</time></trkpt><trkpt lat="37.8322040603331" lon="14.769254251014965"><ele>768.0</ele><time>2026-04-12T07:49:21Z</time></trkpt><trkpt lat="37.8323778178303" lon="14.769243417016487"><ele>768.0</ele><time>2026-04-12T07:49:22Z</time></trkpt><trkpt lat="37.83256170150657" lon="14.769241121166779"><ele>768.0</ele><time>2026-04-12T07:49:23Z</time></trkpt><trkpt lat="37.83274821919978" lon="14.76927144423163"><ele>768.0</ele><time>2026-04-12T07:49:24Z</time></trkpt><trkpt lat="37.832921793267296" lon="14.769332735855343"><ele>769.6666666666667</ele><time>2026-04-12T07:49:25Z</time></trkpt><trkpt lat="37.833088309907815" lon="14.76937368161548"><ele>771.3333333333334</ele><time>2026-04-12T07:49:26Z</time></trkpt><trkpt lat="37.833249454668476" lon="14.769379425362235"><ele>773.0</ele><time>2026-04-12T07:49:27Z</time></trkpt><trkpt lat="37.833392213006995" lon="14.769336438257648"><ele>777.6666666666667</ele><time>2026-04-12T07:49:28Z</time></trkpt><trkpt lat="37.83351850031784" lon="14.76925148999765"><ele>782.3333333333333</ele><time>2026-04-12T07:49:29Z</time></trkpt><trkpt lat="37.83363803307694" lon="14.76913211107141"><ele>787.0</ele><time>2026-04-12T07:49:30Z</time></trkpt><trkpt lat="37.83376171333812" lon="14.76899290874935"><ele>787.0</ele><time>2026-04-12T07:49:31Z</time></trkpt><trkpt lat="37.83390328421324" lon="14.768859719660904"><ele>787.0</ele><time>2026-04-12T07:49:32Z</time></trkpt><trkpt lat="37.83406064021587" lon="14.768738777076276"><ele>787.0</ele><time>2026-04-12T07:49:33Z</time></trkpt><trkpt lat="37.834222663539556" lon="14.768616274953054"><ele>787.6666666666666</ele><time>2026-04-12T07:49:34Z</time></trkpt><trkpt lat="37.83436123021643" lon="14.768453965299749"><ele>788.3333333333333</ele><time>2026-04-12T07:49:35Z</time></trkpt><trkpt lat="37.83447299213045" lon="14.76825570374725"><ele>789.0</ele><time>2026-04-12T07:49:36Z</time></trkpt><trkpt lat="37.834570008413266" lon="14.768048233177094"><ele>789.0</ele><time>2026-04-12T07:49:37Z</time></trkpt><trkpt lat="37.83469545166694" lon="14.76787412493584"><ele>789.0</ele><time>2026-04-12T07:49:38Z</time></trkpt><trkpt lat="37.834826262660876" lon="14.767709048467376"><ele>789.0</ele><time>2026-04-12T07:49:39Z</time></trkpt><trkpt lat="37.834946676025496" lon="14.767550679355404"><ele>791.6666666666667</ele><time>2026-04-12T07:49:40Z</time></trkpt><trkpt lat="37.835051650062844" lon="14.76739673755059"><ele>794.3333333333334</ele><time>2026-04-12T07:49:41Z</time></trkpt><trkpt lat="37.83513553148803" lon="14.767220648022832"><ele>797.0</ele><time>2026-04-12T07:49:42Z</time></trkpt><trkpt lat="37.83517333095945" lon="14.767012384983094"><ele>798.3333333333334</ele><time>2026-04-12T07:49:43Z</time></trkpt><trkpt lat="37.83519005729113" lon="14.766797594704956"><ele>799.6666666666667</ele><time>2026-04-12T07:49:44Z</time></trkpt><trkpt lat="37.835201708993345" lon="14.766600329738365"><ele>801.0</ele><time>2026-04-12T07:49:45Z</time></trkpt><trkpt lat="37.83521307340848" lon="14.76642120997846"><ele>801.0</ele><time>2026-04-12T07:49:46Z</time></trkpt><trkpt lat="37.83522699387557" lon="14.766257462433428"><ele>801.0</ele><time>2026-04-12T07:49:47Z</time></trkpt><trkpt lat="37.835240193182166" lon="14.766099182427935"><ele>801.0</ele><time>2026-04-12T07:49:48Z</time></trkpt><trkpt lat="37.83524598441203" lon="14.765940587834814"><ele>801.0</ele><time>2026-04-12T07:49:49Z</time></trkpt><trkpt lat="37.83523443485714" lon="14.765791078605764"><ele>799.5</ele><time>2026-04-12T07:49:50Z</time></trkpt><trkpt lat="37.83518827722079" lon="14.765654878163959"><ele>798.0</ele><time>2026-04-12T07:49:51Z</time></trkpt><trkpt lat="37.835119999423135" lon="14.765546956249224"><ele>796.5</ele><time>2026-04-12T07:49:52Z</time></trkpt><trkpt lat="37.8350058685302" lon="14.765464550953418"><ele>795.0</ele><time>2026-04-12T07:49:53Z</time></trkpt><trkpt lat="37.83485540384898" lon="14.76539146490479"><ele>789.0</ele><time>2026-04-12T07:49:54Z</time></trkpt><trkpt lat="37.834681467837285" lon="14.7653390317789"><ele>783.0</ele><time>2026-04-12T07:49:55Z</time></trkpt><trkpt lat="37.834494272537235" lon="14.765306667382236"><ele>777.0</ele><time>2026-04-12T07:49:56Z</time></trkpt><trkpt lat="37.834302334017174" lon="14.765278892268695"><ele>774.6666666666667</ele><time>2026-04-12T07:49:57Z</time></trkpt><trkpt lat="37.834113338368496" lon="14.765252489916291"><ele>772.3333333333334</ele><time>2026-04-12T07:49:58Z</time></trkpt><trkpt lat="37.83394746416364" lon="14.765230895173449"><ele>770.0</ele><time>2026-04-12T07:49:59Z</time></trkpt><trkpt lat="37.83380884069134" lon="14.765149316967753"><ele>773.6666666666667</ele><time>2026-04-12T07:50:00Z</time></trkpt><trkpt lat="37.83368901450265" lon="14.76502770596972"><ele>777.3333333333333</ele><time>2026-04-12T07:50:01Z</time></trkpt><trkpt lat="37.833571237264444" lon="14.764866914122342"><ele>781.0</ele><time>2026-04-12T07:50:02Z</time></trkpt><trkpt lat="37.83343050956986" lon="14.764685842594742"><ele>781.0</ele><time>2026-04-12T07:50:03Z</time></trkpt><trkpt lat="37.83325468693289" lon="14.764512313329032"><ele>781.0</ele><time>2026-04-12T07:50:04Z</time></trkpt><trkpt lat="37.83305089101516" lon="14.764358633282002"><ele>787.0</ele><time>2026-04-12T07:50:05Z</time></trkpt><trkpt lat="37.83283521144297" lon="14.764215942342025"><ele>793.0</ele><time>2026-04-12T07:50:06Z</time></trkpt><trkpt lat="37.83264905741914" lon="14.764061444556457"><ele>791.0</ele><time>2026-04-12T07:50:07Z</time></trkpt><trkpt lat="37.83246946503932" lon="14.763935650225582"><ele>789.0</ele><time>2026-04-12T07:50:08Z</time></trkpt><trkpt lat="37.83230701057984" lon="14.763845830588444"><ele>787.0</ele><time>2026-04-12T07:50:09Z</time></trkpt><trkpt lat="37.83217330142676" lon="14.763728341814348"><ele>787.0</ele><time>2026-04-12T07:50:10Z</time></trkpt><trkpt lat="37.832076822484446" lon="14.763579539409326"><ele>787.0</ele><time>2026-04-12T07:50:11Z</time></trkpt><trkpt lat="37.83203441770215" lon="14.76340153505504"><ele>787.0</ele><time>2026-04-12T07:50:12Z</time></trkpt><trkpt lat="37.83203823418647" lon="14.763212928296728"><ele>787.0</ele><time>2026-04-12T07:50:13Z</time></trkpt><trkpt lat="37.83206500267167" lon="14.76302457263258"><ele>790.25</ele><time>2026-04-12T07:50:14Z</time></trkpt><trkpt lat="37.83206932755769" lon="14.76284308373432"><ele>793.5</ele><time>2026-04-12T07:50:15Z</time></trkpt><trkpt lat="37.832051227234096" lon="14.762678858331116"><ele>796.75</ele><time>2026-04-12T07:50:16Z</time></trkpt><trkpt lat="37.83199037813331" lon="14.762545350900634"><ele>800.0</ele><time>2026-04-12T07:50:17Z</time></trkpt><trkpt lat="37.83189205370432" lon="14.762425936798099"><ele>798.6666666666667</ele><time>2026-04-12T07:50:18Z</time></trkpt><trkpt lat="37.83176123059677" lon="14.762328746093825"><ele>797.3333333333333</ele><time>2026-04-12T07:50:19Z</time></trkpt><trkpt lat="37.83162759295057" lon="14.762213384044903"><ele>796.0</ele><time>2026-04-12T07:50:20Z</time></trkpt><trkpt lat="37.83149228559636" lon="14.76210371318235"><ele>796.0</ele><time>2026-04-12T07:50:21Z</time></trkpt><trkpt lat="37.83137423942772" lon="14.762020033321866"><ele>796.0</ele><time>2026-04-12T07:50:22Z</time></trkpt><trkpt lat="37.83129004400864" lon="14.761907225522634"><ele>796.0</ele><time>2026-04-12T07:50:23Z</time></trkpt><trkpt lat="37.831231626289906" lon="14.761767116104785"><ele>796.0</ele><time>2026-04-12T07:50:24Z</time></trkpt><trkpt lat="37.831201286016096" lon="14.761611923197426"><ele>798.75</ele><time>2026-04-12T07:50:25Z</time></trkpt><trkpt lat="37.83120148243105" lon="14.761456498544543"><ele>801.5</ele><time>2026-04-12T07:50:26Z</time></trkpt><trkpt lat="37.8312468823347" lon="14.761304176035797"><ele>804.25</ele><time>2026-04-12T07:50:27Z</time></trkpt><trkpt lat="37.83133467750552" lon="14.761176453248716"><ele>807.0</ele><time>2026-04-12T07:50:28Z</time></trkpt><trkpt lat="37.83145254822969" lon="14.76109529554246"><ele>807.0</ele><time>2026-04-12T07:50:29Z</time></trkpt><trkpt lat="37.83158809925295" lon="14.761070441956356"><ele>807.0</ele><time>2026-04-12T07:50:30Z</time></trkpt><trkpt lat="37.83172421420014" lon="14.761106258266562"><ele>807.0</ele><time>2026-04-12T07:50:31Z</time></trkpt><trkpt lat="37.83185868393635" lon="14.761144692587605"><ele>807.0</ele><time>2026-04-12T07:50:32Z</time></trkpt><trkpt lat="37.83198264920818" lon="14.761112610617868"><ele>809.5</ele><time>2026-04-12T07:50:33Z</time></trkpt><trkpt lat="37.83209284065827" lon="14.761040295322172"><ele>812.0</ele><time>2026-04-12T07:50:34Z</time></trkpt><trkpt lat="37.832174569618864" lon="14.760930419735818"><ele>814.5</ele><time>2026-04-12T07:50:35Z</time></trkpt><trkpt lat="37.832239224494856" lon="14.760785260822427"><ele>817.0</ele><time>2026-04-12T07:50:36Z</time></trkpt><trkpt lat="37.83229781975551" lon="14.760619033374947"><ele>817.0</ele><time>2026-04-12T07:50:37Z</time></trkpt><trkpt lat="37.83236799903789" lon="14.760446645716803"><ele>817.0</ele><time>2026-04-12T07:50:38Z</time></trkpt><trkpt lat="37.83246214105224" lon="14.760280995906628"><ele>817.0</ele><time>2026-04-12T07:50:39Z</time></trkpt><trkpt lat="37.832580534403974" lon="14.760139106490598"><ele>822.0</ele><time>2026-04-12T07:50:40Z</time></trkpt><trkpt lat="37.83271726150771" lon="14.760023168166848"><ele>827.0</ele><time>2026-04-12T07:50:41Z</time></trkpt><trkpt lat="37.832846404068555" lon="14.759918612949711"><ele>832.0</ele><time>2026-04-12T07:50:42Z</time></trkpt><trkpt lat="37.832950571220564" lon="14.759812818028603"><ele>832.0</ele><time>2026-04-12T07:50:43Z</time></trkpt><trkpt lat="37.833019414820896" lon="14.759693821403072"><ele>832.0</ele><time>2026-04-12T07:50:44Z</time></trkpt><trkpt lat="37.833057293539284" lon="14.759566734788939"><ele>832.0</ele><time>2026-04-12T07:50:45Z</time></trkpt><trkpt lat="37.83306510315259" lon="14.759425732707676"><ele>832.0</ele><time>2026-04-12T07:50:46Z</time></trkpt><trkpt lat="37.83304025803139" lon="14.7592699549015"><ele>831.6666666666666</ele><time>2026-04-12T07:50:47Z</time></trkpt><trkpt lat="37.832990077822195" lon="14.759100292240955"><ele>831.3333333333333</ele><time>2026-04-12T07:50:48Z</time></trkpt><trkpt lat="37.832937376803876" lon="14.758912961279393"><ele>831.0</ele><time>2026-04-12T07:50:49Z</time></trkpt><trkpt lat="37.83289718111525" lon="14.758708433107598"><ele>831.6666666666667</ele><time>2026-04-12T07:50:50Z</time></trkpt><trkpt lat="37.832871182617154" lon="14.75850027834126"><ele>832.3333333333334</ele><time>2026-04-12T07:50:51Z</time></trkpt><trkpt lat="37.83287567737984" lon="14.758297219091453"><ele>833.0</ele><time>2026-04-12T07:50:52Z</time></trkpt><trkpt lat="37.83291269900334" lon="14.758080678546515"><ele>833.0</ele><time>2026-04-12T07:50:53Z</time></trkpt><trkpt lat="37.832962313118536" lon="14.757829124750153"><ele>833.0</ele><time>2026-04-12T07:50:54Z</time></trkpt><trkpt lat="37.83301215158632" lon="14.757546320287739"><ele>833.0</ele><time>2026-04-12T07:50:55Z</time></trkpt><trkpt lat="37.833065370205276" lon="14.757255922548444"><ele>832.6666666666667</ele><time>2026-04-12T07:50:56Z</time></trkpt><trkpt lat="37.83311997341564" lon="14.756984670523103"><ele>832.3333333333333</ele><time>2026-04-12T07:50:57Z</time></trkpt><trkpt lat="37.83316721861996" lon="14.756740525277722"><ele>832.0</ele><time>2026-04-12T07:50:58Z</time></trkpt><trkpt lat="37.83320339029094" lon="14.75652004897963"><ele>831.3333333333333</ele><time>2026-04-12T07:50:59Z</time></trkpt><trkpt lat="37.833223618413896" lon="14.75631631633992"><ele>830.6666666666667</ele><time>2026-04-12T07:51:00Z</time></trkpt><trkpt lat="37.83319976934949" lon="14.756117669687361"><ele>830.0</ele><time>2026-04-12T07:51:01Z</time></trkpt><trkpt lat="37.83313033679068" lon="14.755921355297609"><ele>832.0</ele><time>2026-04-12T07:51:02Z</time></trkpt><trkpt lat="37.833040834609314" lon="14.755724109317406"><ele>834.0</ele><time>2026-04-12T07:51:03Z</time></trkpt><trkpt lat="37.832955697227284" lon="14.755510371595541"><ele>836.0</ele><time>2026-04-12T07:51:04Z</time></trkpt><trkpt lat="37.83289521734434" lon="14.755268888087038"><ele>840.6666666666667</ele><time>2026-04-12T07:51:05Z</time></trkpt><trkpt lat="37.832856416886735" lon="14.75500757414746"><ele>845.3333333333333</ele><time>2026-04-12T07:51:06Z</time></trkpt><trkpt lat="37.83283609449459" lon="14.754732551415636"><ele>850.0</ele><time>2026-04-12T07:51:07Z</time></trkpt><trkpt lat="37.8328111288717" lon="14.754468192693862"><ele>850.3333333333333</ele><time>2026-04-12T07:51:08Z</time></trkpt><trkpt lat="37.83277971673643" lon="14.754217295895202"><ele>850.6666666666667</ele><time>2026-04-12T07:51:09Z</time></trkpt><trkpt lat="37.83273134431732" lon="14.753992331217052"><ele>851.0</ele><time>2026-04-12T07:51:10Z</time></trkpt><trkpt lat="37.8326736442247" lon="14.753815100346028"><ele>850.25</ele><time>2026-04-12T07:51:11Z</time></trkpt><trkpt lat="37.832605825477025" lon="14.753664800094066"><ele>849.5</ele><time>2026-04-12T07:51:12Z</time></trkpt><trkpt lat="37.832503640806095" lon="14.753549435406555"><ele>848.75</ele><time>2026-04-12T07:51:13Z</time></trkpt><trkpt lat="37.832369275374624" lon="14.753476255218393"><ele>848.0</ele><time>2026-04-12T07:51:14Z</time></trkpt><trkpt lat="37.832232551271595" lon="14.753413772196435"><ele>848.0</ele><time>2026-04-12T07:51:15Z</time></trkpt><trkpt lat="37.832120314141505" lon="14.753290555561607"><ele>848.0</ele><time>2026-04-12T07:51:16Z</time></trkpt><trkpt lat="37.83204250863041" lon="14.753122303644425"><ele>848.0</ele><time>2026-04-12T07:51:17Z</time></trkpt><trkpt lat="37.83199332699561" lon="14.752919246426407"><ele>852.3333333333334</ele><time>2026-04-12T07:51:18Z</time></trkpt><trkpt lat="37.831971413018145" lon="14.752700167251605"><ele>856.6666666666667</ele><time>2026-04-12T07:51:19Z</time></trkpt><trkpt lat="37.83192140655834" lon="14.752466173406656"><ele>861.0</ele><time>2026-04-12T07:51:20Z</time></trkpt><trkpt lat="37.83187705700491" lon="14.752217744788478"><ele>861.0</ele><time>2026-04-12T07:51:21Z</time></trkpt><trkpt lat="37.83182783239114" lon="14.751981134359893"><ele>861.0</ele><time>2026-04-12T07:51:22Z</time></trkpt><trkpt lat="37.83177651615292" lon="14.751767177953813"><ele>861.0</ele><time>2026-04-12T07:51:23Z</time></trkpt><trkpt lat="37.831693436581205" lon="14.751574226516059"><ele>853.3333333333333</ele><time>2026-04-12T07:51:24Z</time></trkpt><trkpt lat="37.83157910622149" lon="14.751426966646761"><ele>845.6666666666666</ele><time>2026-04-12T07:51:25Z</time></trkpt><trkpt lat="37.831440855085354" lon="14.75130668432811"><ele>838.0</ele><time>2026-04-12T07:51:26Z</time></trkpt><trkpt lat="37.831276423169754" lon="14.751197314777727"><ele>838.0</ele><time>2026-04-12T07:51:27Z</time></trkpt><trkpt lat="37.831103875730136" lon="14.751051709483134"><ele>838.0</ele><time>2026-04-12T07:51:28Z</time></trkpt><trkpt lat="37.83093945726759" lon="14.750889753888309"><ele>838.0</ele><time>2026-04-12T07:51:29Z</time></trkpt><trkpt lat="37.83079057601887" lon="14.75072348111428"><ele>839.25</ele><time>2026-04-12T07:51:30Z</time></trkpt><trkpt lat="37.83066313009876" lon="14.750570990794799"><ele>840.5</ele><time>2026-04-12T07:51:31Z</time></trkpt><trkpt lat="37.830568884734795" lon="14.750429339276174"><ele>841.75</ele><time>2026-04-12T07:51:32Z</time></trkpt><trkpt lat="37.83049291286021" lon="14.75030391904639"><ele>843.0</ele><time>2026-04-12T07:51:33Z</time></trkpt><trkpt lat="37.83044982145105" lon="14.75018509754924"><ele>845.5</ele><time>2026-04-12T07:51:34Z</time></trkpt><trkpt lat="37.830451245471416" lon="14.750049999765366"><ele>848.0</ele><time>2026-04-12T07:51:35Z</time></trkpt><trkpt lat="37.8304836001273" lon="14.749906509298638"><ele>850.5</ele><time>2026-04-12T07:51:36Z</time></trkpt><trkpt lat="37.83055775390963" lon="14.749764501899707"><ele>853.0</ele><time>2026-04-12T07:51:37Z</time></trkpt><trkpt lat="37.83065315831206" lon="14.749615170458037"><ele>853.0</ele><time>2026-04-12T07:51:38Z</time></trkpt><trkpt lat="37.8307483325059" lon="14.749443852799745"><ele>853.0</ele><time>2026-04-12T07:51:39Z</time></trkpt><trkpt lat="37.83082528307235" lon="14.74925543771438"><ele>853.0</ele><time>2026-04-12T07:51:40Z</time></trkpt><trkpt lat="37.83087438567234" lon="14.749051010747625"><ele>853.3333333333333</ele><time>2026-04-12T07:51:41Z</time></trkpt><trkpt lat="37.830903029272285" lon="14.748831385197507"><ele>853.6666666666667</ele><time>2026-04-12T07:51:42Z</time></trkpt><trkpt lat="37.830925465266645" lon="14.748614944367377"><ele>854.0</ele><time>2026-04-12T07:51:43Z</time></trkpt><trkpt lat="37.83093517641628" lon="14.74840291864707"><ele>854.3333333333334</ele><time>2026-04-12T07:51:44Z</time></trkpt><trkpt lat="37.8309170874753" lon="14.74819385484783"><ele>854.6666666666667</ele><time>2026-04-12T07:51:45Z</time></trkpt><trkpt lat="37.830866414516805" lon="14.747990169402687"><ele>855.0</ele><time>2026-04-12T07:51:46Z</time></trkpt><trkpt lat="37.83079476369441" lon="14.747793150819998"><ele>857.0</ele><time>2026-04-12T07:51:47Z</time></trkpt><trkpt lat="37.83071483324723" lon="14.747601261826935"><ele>859.0</ele><time>2026-04-12T07:51:48Z</time></trkpt><trkpt lat="37.83062258148806" lon="14.747414766402024"><ele>861.0</ele><time>2026-04-12T07:51:49Z</time></trkpt><trkpt lat="37.8305031165829" lon="14.747245079078168"><ele>861.0</ele><time>2026-04-12T07:51:50Z</time></trkpt><trkpt lat="37.83034522028261" lon="14.7471064251272"><ele>861.0</ele><time>2026-04-12T07:51:51Z</time></trkpt><trkpt lat="37.830180677408386" lon="14.746955881904977"><ele>861.0</ele><time>2026-04-12T07:51:52Z</time></trkpt><trkpt lat="37.83001579698055" lon="14.74681517053905"><ele>862.6666666666667</ele><time>2026-04-12T07:51:53Z</time></trkpt><trkpt lat="37.82986628895973" lon="14.746673057122276"><ele>864.3333333333334</ele><time>2026-04-12T07:51:54Z</time></trkpt><trkpt lat="37.82974397718841" lon="14.746476787572256"><ele>866.0</ele><time>2026-04-12T07:51:55Z</time></trkpt><trkpt lat="37.82964484483853" lon="14.746285420226917"><ele>866.0</ele><time>2026-04-12T07:51:56Z</time></trkpt><trkpt lat="37.82956301505498" lon="14.74611425603662"><ele>866.0</ele><time>2026-04-12T07:51:57Z</time></trkpt><trkpt lat="37.82950276189998" lon="14.745952659729294"><ele>866.0</ele><time>2026-04-12T07:51:58Z</time></trkpt><trkpt lat="37.82946992557791" lon="14.745790823407328"><ele>866.0</ele><time>2026-04-12T07:51:59Z</time></trkpt><trkpt lat="37.829481871962294" lon="14.745617791604175"><ele>870.3333333333334</ele><time>2026-04-12T07:52:00Z</time></trkpt><trkpt lat="37.82951930385475" lon="14.745425980091762"><ele>874.6666666666667</ele><time>2026-04-12T07:52:01Z</time></trkpt><trkpt lat="37.82957344558761" lon="14.745213581828873"><ele>879.0</ele><time>2026-04-12T07:52:02Z</time></trkpt><trkpt lat="37.82963061613749" lon="14.744985486492295"><ele>878.6666666666667</ele><time>2026-04-12T07:52:03Z</time></trkpt><trkpt lat="37.82969261470504" lon="14.744749941255753"><ele>878.3333333333334</ele><time>2026-04-12T07:52:04Z</time></trkpt><trkpt lat="37.82974454529837" lon="14.744541518594692"><ele>878.0</ele><time>2026-04-12T07:52:05Z</time></trkpt><trkpt lat="37.82977204581506" lon="14.74435232712584"><ele>878.0</ele><time>2026-04-12T07:52:06Z</time></trkpt><trkpt lat="37.829755879528335" lon="14.744175511551182"><ele>878.0</ele><time>2026-04-12T07:52:07Z</time></trkpt><trkpt lat="37.82969930208738" lon="14.744013436697017"><ele>878.0</ele><time>2026-04-12T07:52:08Z</time></trkpt><trkpt lat="37.82961147800773" lon="14.743867225700122"><ele>878.0</ele><time>2026-04-12T07:52:09Z</time></trkpt><trkpt lat="37.829509612416686" lon="14.743726109101063"><ele>878.0</ele><time>2026-04-12T07:52:10Z</time></trkpt><trkpt lat="37.82942495873727" lon="14.743574168248626"><ele>878.0</ele><time>2026-04-12T07:52:11Z</time></trkpt><trkpt lat="37.829361869185796" lon="14.74341816602789"><ele>878.0</ele><time>2026-04-12T07:52:12Z</time></trkpt><trkpt lat="37.82931745604702" lon="14.743248856543834"><ele>878.0</ele><time>2026-04-12T07:52:13Z</time></trkpt><trkpt lat="37.82929505268562" lon="14.743065312142592"><ele>874.3333333333334</ele><time>2026-04-12T07:52:14Z</time></trkpt><trkpt lat="37.829288787311555" lon="14.74287093752152"><ele>870.6666666666667</ele><time>2026-04-12T07:52:15Z</time></trkpt><trkpt lat="37.82928577049134" lon="14.742665521492409"><ele>867.0</ele><time>2026-04-12T07:52:16Z</time></trkpt><trkpt lat="37.82929694093546" lon="14.742444764897476"><ele>873.0</ele><time>2026-04-12T07:52:17Z</time></trkpt><trkpt lat="37.829332438613015" lon="14.742218114840336"><ele>879.0</ele><time>2026-04-12T07:52:18Z</time></trkpt><trkpt lat="37.82940171707604" lon="14.741993087798772"><ele>885.0</ele><time>2026-04-12T07:52:19Z</time></trkpt><trkpt lat="37.829472808770944" lon="14.741774081000303"><ele>885.0</ele><time>2026-04-12T07:52:20Z</time></trkpt><trkpt lat="37.82953776724257" lon="14.741555117918857"><ele>885.0</ele><time>2026-04-12T07:52:21Z</time></trkpt><trkpt lat="37.829567709729176" lon="14.74132345678922"><ele>885.0</ele><time>2026-04-12T07:52:22Z</time></trkpt><trkpt lat="37.8295563693905" lon="14.741083823606816"><ele>885.6666666666667</ele><time>2026-04-12T07:52:23Z</time></trkpt><trkpt lat="37.82952954670577" lon="14.74083987497167"><ele>886.3333333333334</ele><time>2026-04-12T07:52:24Z</time></trkpt><trkpt lat="37.82950483861034" lon="14.740589328039544"><ele>887.0</ele><time>2026-04-12T07:52:25Z</time></trkpt><trkpt lat="37.829482182258694" lon="14.740332544348183"><ele>888.6666666666667</ele><time>2026-04-12T07:52:26Z</time></trkpt><trkpt lat="37.82946076732811" lon="14.740072886271616"><ele>890.3333333333333</ele><time>2026-04-12T07:52:27Z</time></trkpt><trkpt lat="37.82944197312995" lon="14.739832341670049"><ele>892.0</ele><time>2026-04-12T07:52:28Z</time></trkpt><trkpt lat="37.82942355174127" lon="14.739614298769688"><ele>892.0</ele><time>2026-04-12T07:52:29Z</time></trkpt><trkpt lat="37.82939725339446" lon="14.739397861844157"><ele>892.0</ele><time>2026-04-12T07:52:30Z</time></trkpt><trkpt lat="37.829333870034084" lon="14.739201123414468"><ele>892.0</ele><time>2026-04-12T07:52:31Z</time></trkpt><trkpt lat="37.82923438926891" lon="14.73904489507892"><ele>888.0</ele><time>2026-04-12T07:52:32Z</time></trkpt><trkpt lat="37.82910893703383" lon="14.73891756477491"><ele>884.0</ele><time>2026-04-12T07:52:33Z</time></trkpt><trkpt lat="37.82895017921287" lon="14.738850704755643"><ele>880.0</ele><time>2026-04-12T07:52:34Z</time></trkpt><trkpt lat="37.82878661011558" lon="14.738816840436359"><ele>880.0</ele><time>2026-04-12T07:52:35Z</time></trkpt><trkpt lat="37.82863034996606" lon="14.738755614563596"><ele>880.0</ele><time>2026-04-12T07:52:36Z</time></trkpt><trkpt lat="37.82849093235434" lon="14.738719763442871"><ele>880.0</ele><time>2026-04-12T07:52:37Z</time></trkpt><trkpt lat="37.82837160584681" lon="14.738671835248086"><ele>880.0</ele><time>2026-04-12T07:52:38Z</time></trkpt><trkpt lat="37.82828500638943" lon="14.738604034276502"><ele>881.0</ele><time>2026-04-12T07:52:39Z</time></trkpt><trkpt lat="37.82822834637757" lon="14.73848659742456"><ele>882.0</ele><time>2026-04-12T07:52:40Z</time></trkpt><trkpt lat="37.82820374384491" lon="14.738338994206757"><ele>883.0</ele><time>2026-04-12T07:52:41Z</time></trkpt><trkpt lat="37.828202328715356" lon="14.738174456393303"><ele>884.0</ele><time>2026-04-12T07:52:42Z</time></trkpt><trkpt lat="37.82820005193458" lon="14.737996831618513"><ele>884.0</ele><time>2026-04-12T07:52:43Z</time></trkpt><trkpt lat="37.82819539774927" lon="14.73781262325354"><ele>884.0</ele><time>2026-04-12T07:52:44Z</time></trkpt><trkpt lat="37.82819610547177" lon="14.73762091637293"><ele>884.0</ele><time>2026-04-12T07:52:45Z</time></trkpt><trkpt lat="37.82819733266217" lon="14.737448224219477"><ele>884.0</ele><time>2026-04-12T07:52:46Z</time></trkpt><trkpt lat="37.82821443029277" lon="14.737275659412878"><ele>886.3333333333334</ele><time>2026-04-12T07:52:47Z</time></trkpt><trkpt lat="37.82826618707988" lon="14.737100925824786"><ele>888.6666666666667</ele><time>2026-04-12T07:52:48Z</time></trkpt><trkpt lat="37.82834555507158" lon="14.736924536400943"><ele>891.0</ele><time>2026-04-12T07:52:49Z</time></trkpt><trkpt lat="37.82842679229274" lon="14.736739641440028"><ele>897.3333333333333</ele><time>2026-04-12T07:52:50Z</time></trkpt><trkpt lat="37.82851002851796" lon="14.736543156019692"><ele>903.6666666666666</ele><time>2026-04-12T07:52:51Z</time></trkpt><trkpt lat="37.82860551106764" lon="14.736342244677127"><ele>910.0</ele><time>2026-04-12T07:52:52Z</time></trkpt><trkpt lat="37.82871003979497" lon="14.736153302644034"><ele>907.6666666666666</ele><time>2026-04-12T07:52:53Z</time></trkpt><trkpt lat="37.82882260511822" lon="14.735985544172262"><ele>905.3333333333333</ele><time>2026-04-12T07:52:54Z</time></trkpt><trkpt lat="37.8289538023873" lon="14.735848149244314"><ele>903.0</ele><time>2026-04-12T07:52:55Z</time></trkpt><trkpt lat="37.82911161447164" lon="14.735754394452758"><ele>903.0</ele><time>2026-04-12T07:52:56Z</time></trkpt><trkpt lat="37.82927701321393" lon="14.735666429635025"><ele>903.0</ele><time>2026-04-12T07:52:57Z</time></trkpt><trkpt lat="37.82944025173236" lon="14.735551940190357"><ele>903.0</ele><time>2026-04-12T07:52:58Z</time></trkpt><trkpt lat="37.82959537814956" lon="14.735401205690644"><ele>906.3333333333333</ele><time>2026-04-12T07:52:59Z</time></trkpt><trkpt lat="37.82973177523143" lon="14.735210710065127"><ele>909.6666666666666</ele><time>2026-04-12T07:53:00Z</time></trkpt><trkpt lat="37.82985091034331" lon="14.734993042109219"><ele>913.0</ele><time>2026-04-12T07:53:01Z</time></trkpt><trkpt lat="37.82996506581593" lon="14.73476652463981"><ele>913.0</ele><time>2026-04-12T07:53:02Z</time></trkpt><trkpt lat="37.830074320431194" lon="14.734544109771518"><ele>913.0</ele><time>2026-04-12T07:53:03Z</time></trkpt><trkpt lat="37.830154059611566" lon="14.734317716882797"><ele>913.0</ele><time>2026-04-12T07:53:04Z</time></trkpt><trkpt lat="37.83021703356339" lon="14.734104222546069"><ele>918.0</ele><time>2026-04-12T07:53:05Z</time></trkpt><trkpt lat="37.830283955208046" lon="14.733906728103554"><ele>923.0</ele><time>2026-04-12T07:53:06Z</time></trkpt><trkpt lat="37.83034405029448" lon="14.733733069121465"><ele>928.0</ele><time>2026-04-12T07:53:07Z</time></trkpt><trkpt lat="37.830354505646504" lon="14.733542244077332"><ele>928.6666666666666</ele><time>2026-04-12T07:53:08Z</time></trkpt><trkpt lat="37.83034631779905" lon="14.73333970917592"><ele>929.3333333333333</ele><time>2026-04-12T07:53:09Z</time></trkpt><trkpt lat="37.83034045588671" lon="14.73312179843956"><ele>930.0</ele><time>2026-04-12T07:53:10Z</time></trkpt><trkpt lat="37.83033837467584" lon="14.732899474208955"><ele>931.5</ele><time>2026-04-12T07:53:11Z</time></trkpt><trkpt lat="37.830338258201905" lon="14.73271431678364"><ele>933.0</ele><time>2026-04-12T07:53:12Z</time></trkpt><trkpt lat="37.83033383928998" lon="14.732550469344945"><ele>934.5</ele><time>2026-04-12T07:53:13Z</time></trkpt><trkpt lat="37.83030024756367" lon="14.732409638089491"><ele>936.0</ele><time>2026-04-12T07:53:14Z</time></trkpt><trkpt lat="37.83022632787961" lon="14.732304059878704"><ele>931.75</ele><time>2026-04-12T07:53:15Z</time></trkpt><trkpt lat="37.830121128734426" lon="14.732233107100962"><ele>927.5</ele><time>2026-04-12T07:53:16Z</time></trkpt><trkpt lat="37.82999129990494" lon="14.732207148064955"><ele>923.25</ele><time>2026-04-12T07:53:17Z</time></trkpt><trkpt lat="37.829860145113855" lon="14.732164677993385"><ele>919.0</ele><time>2026-04-12T07:53:18Z</time></trkpt><trkpt lat="37.829725300332576" lon="14.732120676531668"><ele>919.0</ele><time>2026-04-12T07:53:19Z</time></trkpt><trkpt lat="37.82962457538921" lon="14.732038552592863"><ele>919.0</ele><time>2026-04-12T07:53:20Z</time></trkpt><trkpt lat="37.8295676355702" lon="14.731907516100502"><ele>919.0</ele><time>2026-04-12T07:53:21Z</time></trkpt><trkpt lat="37.82955842646085" lon="14.73175715345983"><ele>919.0</ele><time>2026-04-12T07:53:22Z</time></trkpt><trkpt lat="37.82958404053894" lon="14.731601123340855"><ele>921.0</ele><time>2026-04-12T07:53:23Z</time></trkpt><trkpt lat="37.82963672564978" lon="14.731454340735334"><ele>923.0000000000001</ele><time>2026-04-12T07:53:24Z</time></trkpt><trkpt lat="37.829709905323874" lon="14.731344879922805"><ele>925.0000000000001</ele><time>2026-04-12T07:53:25Z</time></trkpt><trkpt lat="37.82979541193545" lon="14.731292250970856"><ele>927.0</ele><time>2026-04-12T07:53:26Z</time></trkpt><trkpt lat="37.82988135406506" lon="14.731304867974568"><ele>929.0</ele><time>2026-04-12T07:53:27Z</time></trkpt><trkpt lat="37.82996999585142" lon="14.731372196434599"><ele>929.0</ele><time>2026-04-12T07:53:28Z</time></trkpt><trkpt lat="37.830073209280044" lon="14.731464780665725"><ele>929.0</ele><time>2026-04-12T07:53:29Z</time></trkpt><trkpt lat="37.83020899903951" lon="14.73152101028288"><ele>929.0</ele><time>2026-04-12T07:53:30Z</time></trkpt><trkpt lat="37.83035834111614" lon="14.731565896255992"><ele>929.0</ele><time>2026-04-12T07:53:31Z</time></trkpt><trkpt lat="37.830503620170134" lon="14.731620863094516"><ele>930.75</ele><time>2026-04-12T07:53:32Z</time></trkpt><trkpt lat="37.83064615687746" lon="14.731669871047279"><ele>932.5</ele><time>2026-04-12T07:53:33Z</time></trkpt><trkpt lat="37.8307855291587" lon="14.731699829581013"><ele>934.25</ele><time>2026-04-12T07:53:34Z</time></trkpt><trkpt lat="37.83091908745924" lon="14.731679257972084"><ele>936.0</ele><time>2026-04-12T07:53:35Z</time></trkpt><trkpt lat="37.831039093027975" lon="14.731603555873495"><ele>943.3333333333333</ele><time>2026-04-12T07:53:36Z</time></trkpt><trkpt lat="37.831136681900006" lon="14.731462034160709"><ele>950.6666666666666</ele><time>2026-04-12T07:53:37Z</time></trkpt><trkpt lat="37.83121740847562" lon="14.731294787246991"><ele>958.0</ele><time>2026-04-12T07:53:38Z</time></trkpt><trkpt lat="37.83130385640587" lon="14.731118044063907"><ele>956.0</ele><time>2026-04-12T07:53:39Z</time></trkpt><trkpt lat="37.831390568985505" lon="14.730925431066645"><ele>954.0</ele><time>2026-04-12T07:53:40Z</time></trkpt><trkpt lat="37.83150335554566" lon="14.730741153251984"><ele>952.0</ele><time>2026-04-12T07:53:41Z</time></trkpt><trkpt lat="37.831613797370366" lon="14.730539114989892"><ele>952.0</ele><time>2026-04-12T07:53:42Z</time></trkpt><trkpt lat="37.83171941477169" lon="14.730320792625175"><ele>952.0</ele><time>2026-04-12T07:53:43Z</time></trkpt><trkpt lat="37.83180835132395" lon="14.730085725935028"><ele>952.0</ele><time>2026-04-12T07:53:44Z</time></trkpt><trkpt lat="37.831889454579716" lon="14.729846760727812"><ele>954.0</ele><time>2026-04-12T07:53:45Z</time></trkpt><trkpt lat="37.831969598377995" lon="14.729617190055993"><ele>956.0</ele><time>2026-04-12T07:53:46Z</time></trkpt><trkpt lat="37.83204993603428" lon="14.729405015239015"><ele>958.0</ele><time>2026-04-12T07:53:47Z</time></trkpt><trkpt lat="37.83213213841419" lon="14.729203700461722"><ele>958.0</ele><time>2026-04-12T07:53:48Z</time></trkpt><trkpt lat="37.83222829168972" lon="14.72900165932404"><ele>958.0</ele><time>2026-04-12T07:53:49Z</time></trkpt><trkpt lat="37.83235313413335" lon="14.72881837139136"><ele>958.0</ele><time>2026-04-12T07:53:50Z</time></trkpt><trkpt lat="37.8325025652656" lon="14.728677084087858"><ele>959.6666666666666</ele><time>2026-04-12T07:53:51Z</time></trkpt><trkpt lat="37.832671291362566" lon="14.728547539808984"><ele>961.3333333333333</ele><time>2026-04-12T07:53:52Z</time></trkpt><trkpt lat="37.83283984590884" lon="14.728459640933597"><ele>963.0</ele><time>2026-04-12T07:53:53Z</time></trkpt><trkpt lat="37.833004396052" lon="14.728355041298425"><ele>963.0</ele><time>2026-04-12T07:53:54Z</time></trkpt><trkpt lat="37.833148165228714" lon="14.728257549476762"><ele>963.0</ele><time>2026-04-12T07:53:55Z</time></trkpt><trkpt lat="37.83326675046454" lon="14.728135727125869"><ele>963.0</ele><time>2026-04-12T07:53:56Z</time></trkpt><trkpt lat="37.83334898545188" lon="14.727970720748054"><ele>963.0</ele><time>2026-04-12T07:53:57Z</time></trkpt><trkpt lat="37.83338235433089" lon="14.727782985035843"><ele>963.0</ele><time>2026-04-12T07:53:58Z</time></trkpt><trkpt lat="37.83341140550985" lon="14.727596867208618"><ele>963.0</ele><time>2026-04-12T07:53:59Z</time></trkpt><trkpt lat="37.83348716662765" lon="14.72741997406954"><ele>967.3333333333333</ele><time>2026-04-12T07:54:00Z</time></trkpt><trkpt lat="37.83360084628579" lon="14.727265543782604"><ele>971.6666666666666</ele><time>2026-04-12T07:54:01Z</time></trkpt><trkpt lat="37.83373068570269" lon="14.727135139206158"><ele>976.0</ele><time>2026-04-12T07:54:02Z</time></trkpt><trkpt lat="37.833870084530744" lon="14.727064159502117"><ele>976.0</ele><time>2026-04-12T07:54:03Z</time></trkpt><trkpt lat="37.83401608334729" lon="14.727046246313854"><ele>976.0</ele><time>2026-04-12T07:54:04Z</time></trkpt><trkpt lat="37.83416759619625" lon="14.727053450114516"><ele>976.0</ele><time>2026-04-12T07:54:05Z</time></trkpt><trkpt lat="37.8343244596876" lon="14.727102276091287"><ele>979.3333333333333</ele><time>2026-04-12T07:54:06Z</time></trkpt><trkpt lat="37.83449098192122" lon="14.727136336247577"><ele>982.6666666666667</ele><time>2026-04-12T07:54:07Z</time></trkpt><trkpt lat="37.8346624446861" lon="14.727112913756171"><ele>986.0</ele><time>2026-04-12T07:54:08Z</time></trkpt><trkpt lat="37.83482370012109" lon="14.727017141592533"><ele>986.6666666666667</ele><time>2026-04-12T07:54:09Z</time></trkpt><trkpt lat="37.83497482771021" lon="14.726893714251027"><ele>987.3333333333333</ele><time>2026-04-12T07:54:10Z</time></trkpt><trkpt lat="37.83511975682206" lon="14.726752510471806"><ele>988.0</ele><time>2026-04-12T07:54:11Z</time></trkpt><trkpt lat="37.83526880986705" lon="14.72661236615849"><ele>988.0</ele><time>2026-04-12T07:54:12Z</time></trkpt><trkpt lat="37.83542297860962" lon="14.726481659425655"><ele>988.0</ele><time>2026-04-12T07:54:13Z</time></trkpt><trkpt lat="37.835559831355425" lon="14.726359573682988"><ele>988.0</ele><time>2026-04-12T07:54:14Z</time></trkpt><trkpt lat="37.83567951291066" lon="14.726256887970285"><ele>988.0</ele><time>2026-04-12T07:54:15Z</time></trkpt><trkpt lat="37.8357953484618" lon="14.726185041216649"><ele>988.0</ele><time>2026-04-12T07:54:16Z</time></trkpt><trkpt lat="37.835915725029906" lon="14.72615522425232"><ele>988.0</ele><time>2026-04-12T07:54:17Z</time></trkpt><trkpt lat="37.836035211359246" lon="14.726165247791284"><ele>988.0</ele><time>2026-04-12T07:54:18Z</time></trkpt><trkpt lat="37.83615396271673" lon="14.726227541232431"><ele>990.25</ele><time>2026-04-12T07:54:19Z</time></trkpt><trkpt lat="37.83626831200006" lon="14.726323425020798"><ele>992.5</ele><time>2026-04-12T07:54:20Z</time></trkpt><trkpt lat="37.83641273584168" lon="14.726357430637355"><ele>994.75</ele><time>2026-04-12T07:54:21Z</time></trkpt><trkpt lat="37.836569342447255" lon="14.726335824660994"><ele>997.0</ele><time>2026-04-12T07:54:22Z</time></trkpt><trkpt lat="37.83672252855673" lon="14.726270881797879"><ele>998.3333333333333</ele><time>2026-04-12T07:54:23Z</time></trkpt><trkpt lat="37.83686663973485" lon="14.726178626695939"><ele>999.6666666666667</ele><time>2026-04-12T07:54:24Z</time></trkpt><trkpt lat="37.83700138962054" lon="14.726080160324912"><ele>1001.0</ele><time>2026-04-12T07:54:25Z</time></trkpt><trkpt lat="37.83711857043084" lon="14.725995378658263"><ele>1001.0</ele><time>2026-04-12T07:54:26Z</time></trkpt><trkpt lat="37.8372172010799" lon="14.725920456465195"><ele>1000.9999999999999</ele><time>2026-04-12T07:54:27Z</time></trkpt><trkpt lat="37.8372876897429" lon="14.72581775984437"><ele>1000.9999999999999</ele><time>2026-04-12T07:54:28Z</time></trkpt><trkpt lat="37.83730293420778" lon="14.725694058548312"><ele>1001.0</ele><time>2026-04-12T07:54:29Z</time></trkpt><trkpt lat="37.837276747237304" lon="14.725571208738652"><ele>1001.0</ele><time>2026-04-12T07:54:30Z</time></trkpt><trkpt lat="37.83721887223552" lon="14.725438082315934"><ele>1001.0</ele><time>2026-04-12T07:54:31Z</time></trkpt><trkpt lat="37.837162427950105" lon="14.725280318237498"><ele>1001.0</ele><time>2026-04-12T07:54:32Z</time></trkpt><trkpt lat="37.837127775396375" lon="14.72509869290293"><ele>1001.0</ele><time>2026-04-12T07:54:33Z</time></trkpt><trkpt lat="37.83710890075066" lon="14.72494013348759"><ele>1001.0</ele><time>2026-04-12T07:54:34Z</time></trkpt><trkpt lat="37.83710236880037" lon="14.724814496479633"><ele>1000.5000000000001</ele><time>2026-04-12T07:54:35Z</time></trkpt><trkpt lat="37.83712287357507" lon="14.724723914679505"><ele>1000.0</ele><time>2026-04-12T07:54:36Z</time></trkpt><trkpt lat="37.837179842076" lon="14.724678617398038"><ele>999.5</ele><time>2026-04-12T07:54:37Z</time></trkpt><trkpt lat="37.837242888554805" lon="14.724679703204183"><ele>999.0</ele><time>2026-04-12T07:54:38Z</time></trkpt><trkpt lat="37.83730751445698" lon="14.724720088802798"><ele>998.5000000000001</ele><time>2026-04-12T07:54:39Z</time></trkpt><trkpt lat="37.837382411926214" lon="14.72477134428338"><ele>998.0</ele><time>2026-04-12T07:54:40Z</time></trkpt><trkpt lat="37.83747338307089" lon="14.72482471863816"><ele>998.0</ele><time>2026-04-12T07:54:41Z</time></trkpt><trkpt lat="37.83758503720669" lon="14.724847671625222"><ele>998.0</ele><time>2026-04-12T07:54:42Z</time></trkpt><trkpt lat="37.837709846787035" lon="14.7248286394867"><ele>998.0</ele><time>2026-04-12T07:54:43Z</time></trkpt><trkpt lat="37.837844184787656" lon="14.724772379483012"><ele>998.0</ele><time>2026-04-12T07:54:44Z</time></trkpt><trkpt lat="37.83798301597226" lon="14.724720330827306"><ele>1002.0</ele><time>2026-04-12T07:54:45Z</time></trkpt><trkpt lat="37.8381243426083" lon="14.724683859384616"><ele>1006.0</ele><time>2026-04-12T07:54:46Z</time></trkpt><trkpt lat="37.83826259255216" lon="14.724639272803163"><ele>1010.0</ele><time>2026-04-12T07:54:47Z</time></trkpt><trkpt lat="37.83837842816946" lon="14.72457757914374"><ele>1014.0</ele><time>2026-04-12T07:54:48Z</time></trkpt><trkpt lat="37.838465675837824" lon="14.724487706859934"><ele>1014.5</ele><time>2026-04-12T07:54:49Z</time></trkpt><trkpt lat="37.83852235737718" lon="14.724377795936947"><ele>1015.0</ele><time>2026-04-12T07:54:50Z</time></trkpt><trkpt lat="37.838551137870766" lon="14.724233532781437"><ele>1015.5</ele><time>2026-04-12T07:54:51Z</time></trkpt><trkpt lat="37.8385525414053" lon="14.72405636087654"><ele>1016.0</ele><time>2026-04-12T07:54:52Z</time></trkpt><trkpt lat="37.83857001707248" lon="14.723858940783378"><ele>1016.0</ele><time>2026-04-12T07:54:53Z</time></trkpt><trkpt lat="37.83860694862236" lon="14.723647482346506"><ele>1016.0</ele><time>2026-04-12T07:54:54Z</time></trkpt><trkpt lat="37.838668913162685" lon="14.723411624467976"><ele>1016.0</ele><time>2026-04-12T07:54:55Z</time></trkpt><trkpt lat="37.83872407311828" lon="14.723165478169603"><ele>1017.3333333333334</ele><time>2026-04-12T07:54:56Z</time></trkpt><trkpt lat="37.83875167814599" lon="14.722920946504573"><ele>1018.6666666666667</ele><time>2026-04-12T07:54:57Z</time></trkpt><trkpt lat="37.838753737851945" lon="14.722700360417805"><ele>1020.0</ele><time>2026-04-12T07:54:58Z</time></trkpt><trkpt lat="37.83875567197576" lon="14.722483940623027"><ele>1021.0</ele><time>2026-04-12T07:54:59Z</time></trkpt><trkpt lat="37.838755957923055" lon="14.722286499540576"><ele>1022.0</ele><time>2026-04-12T07:55:00Z</time></trkpt><trkpt lat="37.838726907467006" lon="14.722104143342584"><ele>1023.0</ele><time>2026-04-12T07:55:01Z</time></trkpt><trkpt lat="37.83865403754826" lon="14.721946290858122"><ele>1024.0</ele><time>2026-04-12T07:55:02Z</time></trkpt><trkpt lat="37.83856383984941" lon="14.721807168932152"><ele>1021.75</ele><time>2026-04-12T07:55:03Z</time></trkpt><trkpt lat="37.838446401910105" lon="14.721705739150078"><ele>1019.5</ele><time>2026-04-12T07:55:04Z</time></trkpt><trkpt lat="37.83833404358054" lon="14.721640691016828"><ele>1017.25</ele><time>2026-04-12T07:55:05Z</time></trkpt><trkpt lat="37.8382578322023" lon="14.721532077022042"><ele>1015.0</ele><time>2026-04-12T07:55:06Z</time></trkpt><trkpt lat="37.83821772225128" lon="14.721389471146034"><ele>1015.0</ele><time>2026-04-12T07:55:07Z</time></trkpt><trkpt lat="37.83820903622288" lon="14.721235816358805"><ele>1015.0</ele><time>2026-04-12T07:55:08Z</time></trkpt><trkpt lat="37.83822287651401" lon="14.721094947653723"><ele>1015.0</ele><time>2026-04-12T07:55:09Z</time></trkpt><trkpt lat="37.838267433704104" lon="14.720965176174298"><ele>1015.0</ele><time>2026-04-12T07:55:10Z</time></trkpt><trkpt lat="37.838350541559" lon="14.720845132818136"><ele>1016.25</ele><time>2026-04-12T07:55:11Z</time></trkpt><trkpt lat="37.83846190563641" lon="14.720766088089169"><ele>1017.5</ele><time>2026-04-12T07:55:12Z</time></trkpt><trkpt lat="37.83858713394477" lon="14.720743373860376"><ele>1018.75</ele><time>2026-04-12T07:55:13Z</time></trkpt><trkpt lat="37.83871950700466" lon="14.720744127085148"><ele>1020.0</ele><time>2026-04-12T07:55:14Z</time></trkpt><trkpt lat="37.83882674874372" lon="14.720699809028362"><ele>1022.8</ele><time>2026-04-12T07:55:15Z</time></trkpt><trkpt lat="37.83891218445679" lon="14.720611126083446"><ele>1025.6</ele><time>2026-04-12T07:55:16Z</time></trkpt><trkpt lat="37.83897016809494" lon="14.720496829801085"><ele>1028.4</ele><time>2026-04-12T07:55:17Z</time></trkpt><trkpt lat="37.838995530742885" lon="14.720369947499792"><ele>1031.2</ele><time>2026-04-12T07:55:18Z</time></trkpt><trkpt lat="37.839008071833895" lon="14.720234279628382"><ele>1034.0</ele><time>2026-04-12T07:55:19Z</time></trkpt><trkpt lat="37.83900992310692" lon="14.720093149074874"><ele>1034.0</ele><time>2026-04-12T07:55:20Z</time></trkpt><trkpt lat="37.83900646330007" lon="14.719948142091587"><ele>1034.0</ele><time>2026-04-12T07:55:21Z</time></trkpt><trkpt lat="37.839000755134514" lon="14.719800448241912"><ele>1034.0</ele><time>2026-04-12T07:55:22Z</time></trkpt><trkpt lat="37.838989405211805" lon="14.719648913308037"><ele>1034.0</ele><time>2026-04-12T07:55:23Z</time></trkpt><trkpt lat="37.83897936949496" lon="14.719504914812735"><ele>1033.5</ele><time>2026-04-12T07:55:24Z</time></trkpt><trkpt lat="37.8389854870945" lon="14.71937937613719"><ele>1033.0</ele><time>2026-04-12T07:55:25Z</time></trkpt><trkpt lat="37.839034299966286" lon="14.719260556467955"><ele>1032.5</ele><time>2026-04-12T07:55:26Z</time></trkpt><trkpt lat="37.839136488371594" lon="14.719172314114248"><ele>1032.0</ele><time>2026-04-12T07:55:27Z</time></trkpt><trkpt lat="37.839266647589376" lon="14.719123206232423"><ele>1036.0</ele><time>2026-04-12T07:55:28Z</time></trkpt><trkpt lat="37.83941674440666" lon="14.719088115543201"><ele>1040.0</ele><time>2026-04-12T07:55:29Z</time></trkpt><trkpt lat="37.83957599705169" lon="14.719029060354927"><ele>1044.0</ele><time>2026-04-12T07:55:30Z</time></trkpt><trkpt lat="37.83973328012812" lon="14.718974128312665"><ele>1044.0</ele><time>2026-04-12T07:55:31Z</time></trkpt><trkpt lat="37.839889420845076" lon="14.718916281338021"><ele>1044.0</ele><time>2026-04-12T07:55:32Z</time></trkpt><trkpt lat="37.84003335400968" lon="14.718857719185005"><ele>1044.0</ele><time>2026-04-12T07:55:33Z</time></trkpt><trkpt lat="37.84015456844883" lon="14.71881716268233"><ele>1044.0</ele><time>2026-04-12T07:55:34Z</time></trkpt><trkpt lat="37.8402598161013" lon="14.718759418532853"><ele>1048.25</ele><time>2026-04-12T07:55:35Z</time></trkpt><trkpt lat="37.84034333484034" lon="14.71865760211042"><ele>1052.5</ele><time>2026-04-12T07:55:36Z</time></trkpt><trkpt lat="37.84039432630348" lon="14.718513441607826"><ele>1056.75</ele><time>2026-04-12T07:55:37Z</time></trkpt><trkpt lat="37.84042124670507" lon="14.718349556263263"><ele>1061.0</ele><time>2026-04-12T07:55:38Z</time></trkpt><trkpt lat="37.84043384346004" lon="14.718183372980857"><ele>1061.0</ele><time>2026-04-12T07:55:39Z</time></trkpt><trkpt lat="37.84044906003901" lon="14.718025086985833"><ele>1061.0</ele><time>2026-04-12T07:55:40Z</time></trkpt><trkpt lat="37.840463103985165" lon="14.717882587802862"><ele>1061.0</ele><time>2026-04-12T07:55:41Z</time></trkpt><trkpt lat="37.84046145883364" lon="14.717757826951411"><ele>1061.0</ele><time>2026-04-12T07:55:42Z</time></trkpt><trkpt lat="37.840439516540734" lon="14.717650959470227"><ele>1061.0</ele><time>2026-04-12T07:55:43Z</time></trkpt><trkpt lat="37.84041060647021" lon="14.71755914286395"><ele>1061.3333333333335</ele><time>2026-04-12T07:55:44Z</time></trkpt><trkpt lat="37.840384870117745" lon="14.717479902549888"><ele>1061.6666666666667</ele><time>2026-04-12T07:55:45Z</time></trkpt><trkpt lat="37.8403640232626" lon="14.717396333305134"><ele>1062.0</ele><time>2026-04-12T07:55:46Z</time></trkpt><trkpt lat="37.840338908718486" lon="14.717300933803745"><ele>1062.3333333333333</ele><time>2026-04-12T07:55:47Z</time></trkpt><trkpt lat="37.840301609752615" lon="14.717189817050324"><ele>1062.6666666666665</ele><time>2026-04-12T07:55:48Z</time></trkpt><trkpt lat="37.840259712291534" lon="14.717068623223646"><ele>1063.0</ele><time>2026-04-12T07:55:49Z</time></trkpt><trkpt lat="37.840222337534414" lon="14.716936298273936"><ele>1063.8</ele><time>2026-04-12T07:55:50Z</time></trkpt><trkpt lat="37.840191049942426" lon="14.716799649537872"><ele>1064.6</ele><time>2026-04-12T07:55:51Z</time></trkpt><trkpt lat="37.84016996872494" lon="14.716673166135426"><ele>1065.4</ele><time>2026-04-12T07:55:52Z</time></trkpt><trkpt lat="37.84017547444305" lon="14.716558176007707"><ele>1066.2</ele><time>2026-04-12T07:55:53Z</time></trkpt><trkpt lat="37.840196712176855" lon="14.716455319768492"><ele>1067.0</ele><time>2026-04-12T07:55:54Z</time></trkpt><trkpt lat="37.84023009797253" lon="14.71636736700786"><ele>1067.0</ele><time>2026-04-12T07:55:55Z</time></trkpt><trkpt lat="37.840267549697934" lon="14.716290325044241"><ele>1067.0</ele><time>2026-04-12T07:55:56Z</time></trkpt><trkpt lat="37.840310561897745" lon="14.716222356476596"><ele>1067.0</ele><time>2026-04-12T07:55:57Z</time></trkpt><trkpt lat="37.84035307301371" lon="14.716159095418702"><ele>1067.0</ele><time>2026-04-12T07:55:58Z</time></trkpt><trkpt lat="37.84044227468042" lon="14.71605818245434"><ele>1067.0</ele><time>2026-04-12T07:56:00Z</time></trkpt><trkpt lat="37.84052299038772" lon="14.715970219100413"><ele>1067.0</ele><time>2026-04-12T07:56:02Z</time></trkpt><trkpt lat="37.84058337716916" lon="14.715891046002808"><ele>1066.0</ele><time>2026-04-12T07:56:04Z</time></trkpt><trkpt lat="37.840644691585624" lon="14.715824975797089"><ele>1065.0</ele><time>2026-04-12T07:57:06Z</time></trkpt><trkpt lat="37.84070208095444" lon="14.71576322566451"><ele>1064.0</ele><time>2026-04-12T07:57:10Z</time></trkpt><trkpt lat="37.84074935232114" lon="14.7156865726622"><ele>1063.0</ele><time>2026-04-12T07:57:26Z</time></trkpt><trkpt lat="37.840785536402954" lon="14.715603129902872"><ele>1062.0</ele><time>2026-04-12T07:57:27Z</time></trkpt><trkpt lat="37.84083135850655" lon="14.71549706231594"><ele>1061.0</ele><time>2026-04-12T07:57:28Z</time></trkpt><trkpt lat="37.840869341164755" lon="14.71536592308573"><ele>1059.0</ele><time>2026-04-12T07:57:29Z</time></trkpt><trkpt lat="37.84088595849086" lon="14.715207999655046"><ele>1057.0</ele><time>2026-04-12T07:57:30Z</time></trkpt><trkpt lat="37.840891339696675" lon="14.71503572046628"><ele>1055.0</ele><time>2026-04-12T07:57:31Z</time></trkpt><trkpt lat="37.840894968215906" lon="14.714857977373365"><ele>1053.0</ele><time>2026-04-12T07:57:32Z</time></trkpt><trkpt lat="37.84090379329269" lon="14.714702956599353"><ele>1053.0</ele><time>2026-04-12T07:57:33Z</time></trkpt><trkpt lat="37.84091413457784" lon="14.714564577129805"><ele>1053.0</ele><time>2026-04-12T07:57:34Z</time></trkpt><trkpt lat="37.84092776751097" lon="14.714436856557647"><ele>1053.0</ele><time>2026-04-12T07:57:35Z</time></trkpt><trkpt lat="37.840958548168516" lon="14.714324148545353"><ele>1053.0</ele><time>2026-04-12T07:57:36Z</time></trkpt><trkpt lat="37.841004909990005" lon="14.714243419434917"><ele>1053.0</ele><time>2026-04-12T07:57:37Z</time></trkpt><trkpt lat="37.84105541936477" lon="14.714174546623955"><ele>1054.4285714285713</ele><time>2026-04-12T07:57:38Z</time></trkpt><trkpt lat="37.84111947164237" lon="14.714135932805329"><ele>1055.857142857143</ele><time>2026-04-12T07:57:39Z</time></trkpt><trkpt lat="37.84118150912632" lon="14.714100129440727"><ele>1057.2857142857142</ele><time>2026-04-12T07:57:40Z</time></trkpt><trkpt lat="37.84125374708923" lon="14.714047557210769"><ele>1058.7142857142858</ele><time>2026-04-12T07:57:41Z</time></trkpt><trkpt lat="37.84132244478282" lon="14.713998299119726"><ele>1060.142857142857</ele><time>2026-04-12T07:57:42Z</time></trkpt><trkpt lat="37.84137401222917" lon="14.7139382287735"><ele>1061.5714285714284</ele><time>2026-04-12T07:57:43Z</time></trkpt><trkpt lat="37.84139938223095" lon="14.71386269739066"><ele>1063.0</ele><time>2026-04-12T07:57:44Z</time></trkpt><trkpt lat="37.841405801770314" lon="14.713773865100947"><ele>1063.0</ele><time>2026-04-12T07:57:45Z</time></trkpt><trkpt lat="37.841401239469334" lon="14.713671442023992"><ele>1063.0</ele><time>2026-04-12T07:57:46Z</time></trkpt><trkpt lat="37.84137175438855" lon="14.713557274856216"><ele>1063.0</ele><time>2026-04-12T07:57:47Z</time></trkpt><trkpt lat="37.841321992615164" lon="14.713438273630375"><ele>1063.0</ele><time>2026-04-12T07:57:48Z</time></trkpt><trkpt lat="37.84126921173117" lon="14.713314158862785"><ele>1063.0</ele><time>2026-04-12T07:57:49Z</time></trkpt><trkpt lat="37.84123380677511" lon="14.713172580430934"><ele>1062.25</ele><time>2026-04-12T07:57:50Z</time></trkpt><trkpt lat="37.84123212834773" lon="14.713014007476112"><ele>1061.5</ele><time>2026-04-12T07:57:51Z</time></trkpt><trkpt lat="37.8412779665776" lon="14.71286642894076"><ele>1060.75</ele><time>2026-04-12T07:57:52Z</time></trkpt><trkpt lat="37.841359025042884" lon="14.712740980740854"><ele>1060.0</ele><time>2026-04-12T07:57:53Z</time></trkpt><trkpt lat="37.84145055780951" lon="14.712610645060279"><ele>1060.0</ele><time>2026-04-12T07:57:54Z</time></trkpt><trkpt lat="37.84154732831214" lon="14.712465278416552"><ele>1060.0</ele><time>2026-04-12T07:57:55Z</time></trkpt><trkpt lat="37.841642069426115" lon="14.712314572848353"><ele>1060.0</ele><time>2026-04-12T07:57:56Z</time></trkpt><trkpt lat="37.841738150734066" lon="14.7121834766283"><ele>1060.0</ele><time>2026-04-12T07:57:57Z</time></trkpt><trkpt lat="37.84181321930187" lon="14.712048522454593"><ele>1057.6</ele><time>2026-04-12T07:57:58Z</time></trkpt><trkpt lat="37.841844843086974" lon="14.711893938183772"><ele>1055.2</ele><time>2026-04-12T07:57:59Z</time></trkpt><trkpt lat="37.84184125143668" lon="14.711747033954916"><ele>1052.8</ele><time>2026-04-12T07:58:00Z</time></trkpt><trkpt lat="37.8418223242414" lon="14.71162407417515"><ele>1050.4</ele><time>2026-04-12T07:58:01Z</time></trkpt><trkpt lat="37.84181072433187" lon="14.7115184269642"><ele>1048.0</ele><time>2026-04-12T07:58:02Z</time></trkpt><trkpt lat="37.84179758427664" lon="14.7114149174573"><ele>1048.0</ele><time>2026-04-12T07:58:03Z</time></trkpt><trkpt lat="37.84179420582987" lon="14.711320698896992"><ele>1048.0</ele><time>2026-04-12T07:58:04Z</time></trkpt><trkpt lat="37.8418012432507" lon="14.711239372364354"><ele>1048.0</ele><time>2026-04-12T07:58:05Z</time></trkpt><trkpt lat="37.841803383694156" lon="14.711159541359093"><ele>1048.0</ele><time>2026-04-12T07:58:06Z</time></trkpt><trkpt lat="37.841829682147896" lon="14.711018436738925"><ele>1048.0</ele><time>2026-04-12T07:58:08Z</time></trkpt><trkpt lat="37.84188910120959" lon="14.710912971393997"><ele>1048.0</ele><time>2026-04-12T07:58:10Z</time></trkpt><trkpt lat="37.841911550276464" lon="14.710808583133785"><ele>1051.0</ele><time>2026-04-12T07:58:12Z</time></trkpt><trkpt lat="37.84199799242885" lon="14.710784520880814"><ele>1054.0</ele><time>2026-04-12T07:58:13Z</time></trkpt><trkpt lat="37.84206273832973" lon="14.71068800497749"><ele>1057.0</ele><time>2026-04-12T07:58:15Z</time></trkpt><trkpt lat="37.84212320092654" lon="14.710582137139166"><ele>1060.0</ele><time>2026-04-12T07:58:17Z</time></trkpt><trkpt lat="37.84218010897749" lon="14.710456960948868"><ele>1063.0</ele><time>2026-04-12T07:58:19Z</time></trkpt><trkpt lat="37.84224446969173" lon="14.710330315072339"><ele>1062.1666666666665</ele><time>2026-04-12T07:58:21Z</time></trkpt><trkpt lat="37.84230461701701" lon="14.710193669531579"><ele>1061.3333333333333</ele><time>2026-04-12T07:58:23Z</time></trkpt><trkpt lat="37.842369654199445" lon="14.710061042588794"><ele>1060.5</ele><time>2026-04-12T07:58:25Z</time></trkpt><trkpt lat="37.842400146307796" lon="14.709989339879842"><ele>1059.6666666666667</ele><time>2026-04-12T07:58:26Z</time></trkpt><trkpt lat="37.84243150813216" lon="14.70991699019401"><ele>1058.8333333333335</ele><time>2026-04-12T07:58:27Z</time></trkpt><trkpt lat="37.842465450389746" lon="14.709844086239764"><ele>1058.0</ele><time>2026-04-12T07:58:28Z</time></trkpt><trkpt lat="37.84249510224375" lon="14.70976564200801"><ele>1058.0</ele><time>2026-04-12T07:58:29Z</time></trkpt><trkpt lat="37.84252276781752" lon="14.709677285391416"><ele>1058.0</ele><time>2026-04-12T07:58:30Z</time></trkpt><trkpt lat="37.84256652765718" lon="14.709593004179434"><ele>1058.0</ele><time>2026-04-12T07:58:31Z</time></trkpt><trkpt lat="37.84261086709138" lon="14.709506029963068"><ele>1058.0</ele><time>2026-04-12T07:58:32Z</time></trkpt><trkpt lat="37.84265366626417" lon="14.70940650791113"><ele>1058.0</ele><time>2026-04-12T07:58:33Z</time></trkpt><trkpt lat="37.842691911870645" lon="14.709296219643099"><ele>1058.0</ele><time>2026-04-12T07:58:34Z</time></trkpt><trkpt lat="37.84271111144363" lon="14.709169005379792"><ele>1061.0</ele><time>2026-04-12T07:58:35Z</time></trkpt><trkpt lat="37.84273055290944" lon="14.70903946361386"><ele>1064.0</ele><time>2026-04-12T07:58:36Z</time></trkpt><trkpt lat="37.84274469438148" lon="14.708906812026825"><ele>1067.0</ele><time>2026-04-12T07:58:37Z</time></trkpt><trkpt lat="37.84274440292022" lon="14.708774277450981"><ele>1070.0</ele><time>2026-04-12T07:58:38Z</time></trkpt><trkpt lat="37.84272972659756" lon="14.708643539819406"><ele>1073.0</ele><time>2026-04-12T07:58:39Z</time></trkpt><trkpt lat="37.84271853033977" lon="14.708524851808406"><ele>1073.0</ele><time>2026-04-12T07:58:40Z</time></trkpt><trkpt lat="37.84270530238095" lon="14.708409032564848"><ele>1073.0</ele><time>2026-04-12T07:58:41Z</time></trkpt><trkpt lat="37.84268932460827" lon="14.70830093150521"><ele>1073.0</ele><time>2026-04-12T07:58:42Z</time></trkpt><trkpt lat="37.8426841869197" lon="14.708192185031702"><ele>1073.0</ele><time>2026-04-12T07:58:43Z</time></trkpt><trkpt lat="37.84270039860484" lon="14.708082257003483"><ele>1073.0</ele><time>2026-04-12T07:58:44Z</time></trkpt><trkpt lat="37.84273295045519" lon="14.707974767635404"><ele>1073.0</ele><time>2026-04-12T07:58:45Z</time></trkpt><trkpt lat="37.842786641744645" lon="14.707874278029527"><ele>1073.0</ele><time>2026-04-12T07:58:46Z</time></trkpt><trkpt lat="37.84285661970634" lon="14.707784412488351"><ele>1073.0</ele><time>2026-04-12T07:58:47Z</time></trkpt><trkpt lat="37.8429376899308" lon="14.707700070148285"><ele>1073.0</ele><time>2026-04-12T07:58:48Z</time></trkpt><trkpt lat="37.84302178311262" lon="14.707617208239814"><ele>1073.0</ele><time>2026-04-12T07:58:49Z</time></trkpt><trkpt lat="37.84310431340164" lon="14.707528748631995"><ele>1073.0</ele><time>2026-04-12T07:58:50Z</time></trkpt><trkpt lat="37.84318401715008" lon="14.707440443012022"><ele>1073.0</ele><time>2026-04-12T07:58:51Z</time></trkpt><trkpt lat="37.843253075424784" lon="14.707352548993102"><ele>1073.0</ele><time>2026-04-12T07:58:52Z</time></trkpt><trkpt lat="37.84330722646554" lon="14.707263014937032"><ele>1073.0</ele><time>2026-04-12T07:58:53Z</time></trkpt><trkpt lat="37.843337903962954" lon="14.707161923001935"><ele>1073.0</ele><time>2026-04-12T07:58:54Z</time></trkpt><trkpt lat="37.843326851660294" lon="14.707046728620089"><ele>1073.0</ele><time>2026-04-12T07:58:55Z</time></trkpt><trkpt lat="37.84328533540356" lon="14.706938707192357"><ele>1074.4</ele><time>2026-04-12T07:58:56Z</time></trkpt><trkpt lat="37.84322423066947" lon="14.706842995198137"><ele>1075.8</ele><time>2026-04-12T07:58:57Z</time></trkpt><trkpt lat="37.843153057026605" lon="14.706745202670659"><ele>1077.2</ele><time>2026-04-12T07:58:58Z</time></trkpt><trkpt lat="37.84307582398708" lon="14.706640233330567"><ele>1078.6</ele><time>2026-04-12T07:58:59Z</time></trkpt><trkpt lat="37.84300508374101" lon="14.706524285794323"><ele>1080.0</ele><time>2026-04-12T07:59:00Z</time></trkpt><trkpt lat="37.842932866269145" lon="14.706413345614246"><ele>1080.0</ele><time>2026-04-12T07:59:01Z</time></trkpt><trkpt lat="37.84285751509189" lon="14.706291533831735"><ele>1080.0</ele><time>2026-04-12T07:59:02Z</time></trkpt><trkpt lat="37.84280018256229" lon="14.706141126097632"><ele>1080.0</ele><time>2026-04-12T07:59:03Z</time></trkpt><trkpt lat="37.84275480718594" lon="14.705995517031912"><ele>1080.0</ele><time>2026-04-12T07:59:04Z</time></trkpt><trkpt lat="37.84271008731663" lon="14.705843732835744"><ele>1080.6</ele><time>2026-04-12T07:59:05Z</time></trkpt><trkpt lat="37.84266351255193" lon="14.705698758508241"><ele>1081.2</ele><time>2026-04-12T07:59:06Z</time></trkpt><trkpt lat="37.84262148927673" lon="14.705565534617172"><ele>1081.8</ele><time>2026-04-12T07:59:07Z</time></trkpt><trkpt lat="37.84258503472404" lon="14.705443035761931"><ele>1082.4</ele><time>2026-04-12T07:59:08Z</time></trkpt><trkpt lat="37.84255716541577" lon="14.705330837260469"><ele>1083.0</ele><time>2026-04-12T07:59:09Z</time></trkpt><trkpt lat="37.8425588978334" lon="14.705228130034058"><ele>1083.0</ele><time>2026-04-12T07:59:10Z</time></trkpt><trkpt lat="37.84259807860928" lon="14.705154524967567"><ele>1083.0</ele><time>2026-04-12T07:59:11Z</time></trkpt><trkpt lat="37.84266319111918" lon="14.705114781508076"><ele>1083.0</ele><time>2026-04-12T07:59:12Z</time></trkpt><trkpt lat="37.84274157939844" lon="14.705121965401494"><ele>1083.0</ele><time>2026-04-12T07:59:13Z</time></trkpt><trkpt lat="37.84280988834271" lon="14.705183837814918"><ele>1083.0</ele><time>2026-04-12T07:59:14Z</time></trkpt><trkpt lat="37.84286202979276" lon="14.705298480305775"><ele>1083.0</ele><time>2026-04-12T07:59:15Z</time></trkpt><trkpt lat="37.84290113014742" lon="14.70543623746357"><ele>1084.5</ele><time>2026-04-12T07:59:16Z</time></trkpt><trkpt lat="37.84295654381651" lon="14.70556843924841"><ele>1086.0</ele><time>2026-04-12T07:59:17Z</time></trkpt><trkpt lat="37.843012686445185" lon="14.705697585094843"><ele>1087.5</ele><time>2026-04-12T07:59:18Z</time></trkpt><trkpt lat="37.84306704079031" lon="14.70581909331759"><ele>1089.0</ele><time>2026-04-12T07:59:19Z</time></trkpt><trkpt lat="37.84315123586011" lon="14.705911701434603"><ele>1089.0</ele><time>2026-04-12T07:59:20Z</time></trkpt><trkpt lat="37.84325825891085" lon="14.70598606920201"><ele>1089.0</ele><time>2026-04-12T07:59:21Z</time></trkpt><trkpt lat="37.84337744015034" lon="14.706046774896052"><ele>1089.0</ele><time>2026-04-12T07:59:22Z</time></trkpt><trkpt lat="37.843502744067266" lon="14.706102128461524"><ele>1089.0</ele><time>2026-04-12T07:59:23Z</time></trkpt><trkpt lat="37.84363065417808" lon="14.70615712436687"><ele>1090.25</ele><time>2026-04-12T07:59:24Z</time></trkpt><trkpt lat="37.84375516383752" lon="14.706211618568096"><ele>1091.5</ele><time>2026-04-12T07:59:25Z</time></trkpt><trkpt lat="37.84387560165675" lon="14.706270202551876"><ele>1092.75</ele><time>2026-04-12T07:59:26Z</time></trkpt><trkpt lat="37.84398456081079" lon="14.70636078306714"><ele>1094.0</ele><time>2026-04-12T07:59:27Z</time></trkpt><trkpt lat="37.84406624911061" lon="14.70649414791013"><ele>1094.0</ele><time>2026-04-12T07:59:28Z</time></trkpt><trkpt lat="37.84413108563943" lon="14.706641345631576"><ele>1094.0</ele><time>2026-04-12T07:59:29Z</time></trkpt><trkpt lat="37.844209031192285" lon="14.70678554373661"><ele>1094.0</ele><time>2026-04-12T07:59:30Z</time></trkpt><trkpt lat="37.84428832702901" lon="14.706937684762629"><ele>1094.0</ele><time>2026-04-12T07:59:31Z</time></trkpt><trkpt lat="37.844368627879795" lon="14.707091206380388"><ele>1098.0</ele><time>2026-04-12T07:59:32Z</time></trkpt><trkpt lat="37.84444354405655" lon="14.707253523884964"><ele>1102.0</ele><time>2026-04-12T07:59:33Z</time></trkpt><trkpt lat="37.844509160738795" lon="14.707422088105565"><ele>1106.0</ele><time>2026-04-12T07:59:34Z</time></trkpt><trkpt lat="37.844577284667146" lon="14.707589695170997"><ele>1110.0</ele><time>2026-04-12T07:59:35Z</time></trkpt><trkpt lat="37.84466322483115" lon="14.707746446630177"><ele>1110.0</ele><time>2026-04-12T07:59:36Z</time></trkpt><trkpt lat="37.8447604830026" lon="14.707889656436652"><ele>1110.0</ele><time>2026-04-12T07:59:37Z</time></trkpt><trkpt lat="37.84484874217804" lon="14.70803013731425"><ele>1110.0</ele><time>2026-04-12T07:59:38Z</time></trkpt><trkpt lat="37.844908798980356" lon="14.708180088706273"><ele>1110.0</ele><time>2026-04-12T07:59:39Z</time></trkpt><trkpt lat="37.84493848521507" lon="14.708347198412671"><ele>1110.0</ele><time>2026-04-12T07:59:40Z</time></trkpt><trkpt lat="37.844936349684765" lon="14.708524059881515"><ele>1110.0</ele><time>2026-04-12T07:59:41Z</time></trkpt><trkpt lat="37.84488720188086" lon="14.708688951281914"><ele>1110.0</ele><time>2026-04-12T07:59:42Z</time></trkpt><trkpt lat="37.84484719076697" lon="14.708854411929188"><ele>1110.0</ele><time>2026-04-12T07:59:43Z</time></trkpt><trkpt lat="37.8448027489306" lon="14.708994308245146"><ele>1110.8333333333333</ele><time>2026-04-12T07:59:44Z</time></trkpt><trkpt lat="37.84476715324072" lon="14.709118569987258"><ele>1111.6666666666667</ele><time>2026-04-12T07:59:45Z</time></trkpt><trkpt lat="37.84475651323571" lon="14.709232354417477"><ele>1112.5</ele><time>2026-04-12T07:59:46Z</time></trkpt><trkpt lat="37.8447843643496" lon="14.709329237407728"><ele>1113.3333333333335</ele><time>2026-04-12T07:59:47Z</time></trkpt><trkpt lat="37.84482815765071" lon="14.709401753831353"><ele>1114.1666666666667</ele><time>2026-04-12T07:59:48Z</time></trkpt><trkpt lat="37.844894151682006" lon="14.709449541013539"><ele>1115.0</ele><time>2026-04-12T07:59:49Z</time></trkpt><trkpt lat="37.84497440335225" lon="14.709479175727438"><ele>1116.0</ele><time>2026-04-12T07:59:50Z</time></trkpt><trkpt lat="37.84504848236813" lon="14.709531412530364"><ele>1117.0</ele><time>2026-04-12T07:59:51Z</time></trkpt><trkpt lat="37.84511060402181" lon="14.709633690395162"><ele>1118.0</ele><time>2026-04-12T07:59:52Z</time></trkpt><trkpt lat="37.84513505701342" lon="14.709751548060536"><ele>1119.0</ele><time>2026-04-12T07:59:53Z</time></trkpt><trkpt lat="37.8451290724577" lon="14.70987512149451"><ele>1120.0</ele><time>2026-04-12T07:59:54Z</time></trkpt><trkpt lat="37.84510373123381" lon="14.71000560820886"><ele>1120.0</ele><time>2026-04-12T07:59:55Z</time></trkpt><trkpt lat="37.84502302280332" lon="14.710114716958818"><ele>1120.0</ele><time>2026-04-12T07:59:56Z</time></trkpt><trkpt lat="37.8449419105228" lon="14.710240477148902"><ele>1120.0</ele><time>2026-04-12T07:59:57Z</time></trkpt><trkpt lat="37.84486002196244" lon="14.710364545925652"><ele>1120.0</ele><time>2026-04-12T07:59:58Z</time></trkpt><trkpt lat="37.8447877549038" lon="14.71048336349718"><ele>1120.3333333333333</ele><time>2026-04-12T07:59:59Z</time></trkpt><trkpt lat="37.844730717684364" lon="14.71059701137265"><ele>1120.6666666666665</ele><time>2026-04-12T08:00:00Z</time></trkpt><trkpt lat="37.844688312317196" lon="14.710684684181272"><ele>1121.0</ele><time>2026-04-12T08:00:01Z</time></trkpt><trkpt lat="37.84467566240337" lon="14.71077232182327"><ele>1121.3333333333333</ele><time>2026-04-12T08:00:02Z</time></trkpt><trkpt lat="37.84470632250798" lon="14.710865378106531"><ele>1121.6666666666667</ele><time>2026-04-12T08:00:03Z</time></trkpt><trkpt lat="37.84474520408829" lon="14.710953926697893"><ele>1122.0</ele><time>2026-04-12T08:00:04Z</time></trkpt><trkpt lat="37.84478179932149" lon="14.711030331426729"><ele>1122.0</ele><time>2026-04-12T08:00:05Z</time></trkpt><trkpt lat="37.844814004754014" lon="14.711128732821892"><ele>1122.0</ele><time>2026-04-12T08:00:07Z</time></trkpt><trkpt lat="37.844849962862284" lon="14.711197600972147"><ele>1122.0</ele><time>2026-04-12T08:00:10Z</time></trkpt><trkpt lat="37.844950337974055" lon="14.71115469549295"><ele>1122.0</ele><time>2026-04-12T08:00:13Z</time></trkpt><trkpt lat="37.844982937250315" lon="14.7110719267036"><ele>1122.0</ele><time>2026-04-12T08:00:14Z</time></trkpt><trkpt lat="37.845008006754426" lon="14.710990872665928"><ele>1122.0</ele><time>2026-04-12T08:00:15Z</time></trkpt><trkpt lat="37.84506548753568" lon="14.710919247171583"><ele>1122.0</ele><time>2026-04-12T08:00:16Z</time></trkpt><trkpt lat="37.84509863947662" lon="14.71082129714751"><ele>1122.0</ele><time>2026-04-12T08:00:17Z</time></trkpt><trkpt lat="37.84513775359156" lon="14.710722574994936"><ele>1122.0</ele><time>2026-04-12T08:00:18Z</time></trkpt><trkpt lat="37.845185634660645" lon="14.71061234641207"><ele>1122.0</ele><time>2026-04-12T08:00:19Z</time></trkpt><trkpt lat="37.84523983236611" lon="14.710496151959527"><ele>1122.0</ele><time>2026-04-12T08:00:20Z</time></trkpt><trkpt lat="37.845294757792715" lon="14.710376223353204"><ele>1125.75</ele><time>2026-04-12T08:00:21Z</time></trkpt><trkpt lat="37.84534740017142" lon="14.710241506887048"><ele>1129.5</ele><time>2026-04-12T08:00:22Z</time></trkpt><trkpt lat="37.845401216346595" lon="14.710114575661413"><ele>1133.25</ele><time>2026-04-12T08:00:23Z</time></trkpt><trkpt lat="37.84546647521407" lon="14.709991522760166"><ele>1137.0</ele><time>2026-04-12T08:00:24Z</time></trkpt><trkpt lat="37.845544247032166" lon="14.709868728952587"><ele>1137.0</ele><time>2026-04-12T08:00:25Z</time></trkpt><trkpt lat="37.84558320742701" lon="14.709767632194241"><ele>1137.0</ele><time>2026-04-12T08:00:26Z</time></trkpt><trkpt lat="37.84561524783516" lon="14.709645939926343"><ele>1137.0</ele><time>2026-04-12T08:00:27Z</time></trkpt><trkpt lat="37.84562134805775" lon="14.709502487369686"><ele>1137.0</ele><time>2026-04-12T08:00:28Z</time></trkpt><trkpt lat="37.84559626052469" lon="14.709366457372587"><ele>1137.0</ele><time>2026-04-12T08:00:29Z</time></trkpt><trkpt lat="37.845552915538626" lon="14.70921793075396"><ele>1138.4</ele><time>2026-04-12T08:00:30Z</time></trkpt><trkpt lat="37.84554027425857" lon="14.709073022656531"><ele>1139.8000000000002</ele><time>2026-04-12T08:00:31Z</time></trkpt><trkpt lat="37.84553511573443" lon="14.708948799296529"><ele>1141.2</ele><time>2026-04-12T08:00:32Z</time></trkpt><trkpt lat="37.84554888707149" lon="14.708840839596274"><ele>1142.6000000000001</ele><time>2026-04-12T08:00:33Z</time></trkpt><trkpt lat="37.84558938419796" lon="14.708731895469016"><ele>1144.0</ele><time>2026-04-12T08:00:34Z</time></trkpt><trkpt lat="37.84565848920158" lon="14.708610373258963"><ele>1143.5</ele><time>2026-04-12T08:00:35Z</time></trkpt><trkpt lat="37.84571652691378" lon="14.708476666010233"><ele>1143.0</ele><time>2026-04-12T08:00:36Z</time></trkpt><trkpt lat="37.845778677542356" lon="14.70833084303173"><ele>1142.5</ele><time>2026-04-12T08:00:37Z</time></trkpt><trkpt lat="37.84583915711109" lon="14.708187349005453"><ele>1142.0</ele><time>2026-04-12T08:00:38Z</time></trkpt><trkpt lat="37.84591442276938" lon="14.70805736356058"><ele>1149.75</ele><time>2026-04-12T08:00:39Z</time></trkpt><trkpt lat="37.84598397399742" lon="14.707924933203524"><ele>1157.5</ele><time>2026-04-12T08:00:40Z</time></trkpt><trkpt lat="37.846055142526616" lon="14.707787556644327"><ele>1165.25</ele><time>2026-04-12T08:00:41Z</time></trkpt><trkpt lat="37.84612061777781" lon="14.70764390267511"><ele>1173.0</ele><time>2026-04-12T08:00:42Z</time></trkpt><trkpt lat="37.84616362565457" lon="14.707478098552155"><ele>1173.75</ele><time>2026-04-12T08:00:43Z</time></trkpt><trkpt lat="37.84616550216224" lon="14.707297733712696"><ele>1174.5</ele><time>2026-04-12T08:00:44Z</time></trkpt><trkpt lat="37.84618714849312" lon="14.70716310012126"><ele>1175.25</ele><time>2026-04-12T08:00:45Z</time></trkpt><trkpt lat="37.8461547326689" lon="14.706976179440645"><ele>1176.0</ele><time>2026-04-12T08:00:46Z</time></trkpt><trkpt lat="37.84614089489863" lon="14.706790443034324"><ele>1177.25</ele><time>2026-04-12T08:00:47Z</time></trkpt><trkpt lat="37.846174288382066" lon="14.706613088319973"><ele>1178.5</ele><time>2026-04-12T08:00:48Z</time></trkpt><trkpt lat="37.84620272732512" lon="14.706435848190619"><ele>1179.75</ele><time>2026-04-12T08:00:49Z</time></trkpt><trkpt lat="37.846200813337475" lon="14.706254009431522"><ele>1181.0</ele><time>2026-04-12T08:00:50Z</time></trkpt><trkpt lat="37.84616529316124" lon="14.706076352358457"><ele>1182.2</ele><time>2026-04-12T08:00:51Z</time></trkpt><trkpt lat="37.84613691847316" lon="14.705940412601896"><ele>1183.3999999999999</ele><time>2026-04-12T08:00:52Z</time></trkpt><trkpt lat="37.846114963020156" lon="14.705808633211005"><ele>1184.6</ele><time>2026-04-12T08:00:53Z</time></trkpt><trkpt lat="37.84608806967439" lon="14.705680949702685"><ele>1185.8</ele><time>2026-04-12T08:00:54Z</time></trkpt><trkpt lat="37.846062984888384" lon="14.705559910916126"><ele>1187.0</ele><time>2026-04-12T08:00:55Z</time></trkpt><trkpt lat="37.846042612677365" lon="14.705445127349481"><ele>1187.0</ele><time>2026-04-12T08:00:56Z</time></trkpt><trkpt lat="37.84602435626322" lon="14.70533852076066"><ele>1187.0</ele><time>2026-04-12T08:00:57Z</time></trkpt><trkpt lat="37.846005812125675" lon="14.705241508392707"><ele>1187.0</ele><time>2026-04-12T08:00:58Z</time></trkpt><trkpt lat="37.845998996700544" lon="14.705130105350031"><ele>1187.0</ele><time>2026-04-12T08:00:59Z</time></trkpt><trkpt lat="37.84600357125166" lon="14.705030240087796"><ele>1187.0</ele><time>2026-04-12T08:01:00Z</time></trkpt><trkpt lat="37.846010903916884" lon="14.704935094273955"><ele>1187.0</ele><time>2026-04-12T08:01:01Z</time></trkpt><trkpt lat="37.8460178071013" lon="14.704848636572484"><ele>1186.8</ele><time>2026-04-12T08:01:02Z</time></trkpt><trkpt lat="37.84607124426981" lon="14.704765950906092"><ele>1186.6</ele><time>2026-04-12T08:01:03Z</time></trkpt><trkpt lat="37.84610845425937" lon="14.704676997475605"><ele>1186.3999999999999</ele><time>2026-04-12T08:01:04Z</time></trkpt><trkpt lat="37.8461524745842" lon="14.704563524239868"><ele>1186.2</ele><time>2026-04-12T08:01:05Z</time></trkpt><trkpt lat="37.846227970657665" lon="14.704429653862116"><ele>1186.0</ele><time>2026-04-12T08:01:06Z</time></trkpt><trkpt lat="37.84628733124106" lon="14.704287691507277"><ele>1183.75</ele><time>2026-04-12T08:01:07Z</time></trkpt><trkpt lat="37.84630361021289" lon="14.704132026995968"><ele>1181.5</ele><time>2026-04-12T08:01:08Z</time></trkpt><trkpt lat="37.84625867040208" lon="14.703967534031998"><ele>1179.25</ele><time>2026-04-12T08:01:09Z</time></trkpt><trkpt lat="37.84619105592147" lon="14.703811304108386"><ele>1177.0</ele><time>2026-04-12T08:01:10Z</time></trkpt><trkpt lat="37.84610768173937" lon="14.703674492246542"><ele>1178.0</ele><time>2026-04-12T08:01:11Z</time></trkpt><trkpt lat="37.84602723576381" lon="14.703565550859688"><ele>1179.0</ele><time>2026-04-12T08:01:12Z</time></trkpt><trkpt lat="37.8459615086328" lon="14.703465218115818"><ele>1180.0</ele><time>2026-04-12T08:01:13Z</time></trkpt><trkpt lat="37.8459269818712" lon="14.703346070898387"><ele>1181.0</ele><time>2026-04-12T08:01:14Z</time></trkpt><trkpt lat="37.8459311539101" lon="14.703199345958094"><ele>1182.0</ele><time>2026-04-12T08:01:15Z</time></trkpt><trkpt lat="37.84596511560799" lon="14.703043936782665"><ele>1182.0</ele><time>2026-04-12T08:01:16Z</time></trkpt><trkpt lat="37.846014914168094" lon="14.702890320326766"><ele>1182.0</ele><time>2026-04-12T08:01:17Z</time></trkpt><trkpt lat="37.846072715713234" lon="14.702728557646967"><ele>1182.0</ele><time>2026-04-12T08:01:18Z</time></trkpt><trkpt lat="37.84614869438945" lon="14.70254999286212"><ele>1182.0</ele><time>2026-04-12T08:01:19Z</time></trkpt><trkpt lat="37.84621800782634" lon="14.702377796275158"><ele>1179.5</ele><time>2026-04-12T08:01:20Z</time></trkpt><trkpt lat="37.846282738593786" lon="14.702223683276937"><ele>1177.0</ele><time>2026-04-12T08:01:21Z</time></trkpt><trkpt lat="37.84632952755473" lon="14.702065507089104"><ele>1174.5</ele><time>2026-04-12T08:01:22Z</time></trkpt><trkpt lat="37.84636727743876" lon="14.701916952955397"><ele>1172.0</ele><time>2026-04-12T08:01:23Z</time></trkpt><trkpt lat="37.846404736662926" lon="14.701769733858335"><ele>1170.0</ele><time>2026-04-12T08:01:24Z</time></trkpt><trkpt lat="37.846451471361696" lon="14.701638972404957"><ele>1168.0</ele><time>2026-04-12T08:01:25Z</time></trkpt><trkpt lat="37.84654069613086" lon="14.701538251287822"><ele>1166.0</ele><time>2026-04-12T08:01:26Z</time></trkpt><trkpt lat="37.84665443501224" lon="14.701457592252218"><ele>1164.0</ele><time>2026-04-12T08:01:27Z</time></trkpt><trkpt lat="37.84675056196124" lon="14.701371885703352"><ele>1164.5</ele><time>2026-04-12T08:01:28Z</time></trkpt><trkpt lat="37.84683720917287" lon="14.701275490386672"><ele>1165.0</ele><time>2026-04-12T08:01:29Z</time></trkpt><trkpt lat="37.8468803781135" lon="14.701116802436845"><ele>1165.5</ele><time>2026-04-12T08:01:30Z</time></trkpt><trkpt lat="37.846908403206456" lon="14.700951986659854"><ele>1166.0</ele><time>2026-04-12T08:01:31Z</time></trkpt><trkpt lat="37.84692850631304" lon="14.700781222688764"><ele>1166.0</ele><time>2026-04-12T08:01:32Z</time></trkpt><trkpt lat="37.84695569129075" lon="14.700641082021392"><ele>1166.0</ele><time>2026-04-12T08:01:33Z</time></trkpt><trkpt lat="37.846974152617065" lon="14.700530965217792"><ele>1166.0</ele><time>2026-04-12T08:01:34Z</time></trkpt><trkpt lat="37.84699523341778" lon="14.700429767864396"><ele>1166.0</ele><time>2026-04-12T08:01:35Z</time></trkpt><trkpt lat="37.84701146483404" lon="14.700325249688849"><ele>1166.0</ele><time>2026-04-12T08:01:36Z</time></trkpt><trkpt lat="37.84704804394048" lon="14.700228858649169"><ele>1165.8</ele><time>2026-04-12T08:01:37Z</time></trkpt><trkpt lat="37.84714515378222" lon="14.70016162873199"><ele>1165.6</ele><time>2026-04-12T08:01:38Z</time></trkpt><trkpt lat="37.84722991171408" lon="14.700079841382296"><ele>1165.4</ele><time>2026-04-12T08:01:39Z</time></trkpt><trkpt lat="37.847309156148775" lon="14.699987182177322"><ele>1165.2</ele><time>2026-04-12T08:01:40Z</time></trkpt><trkpt lat="37.847404329040685" lon="14.699898291155277"><ele>1165.0</ele><time>2026-04-12T08:01:41Z</time></trkpt><trkpt lat="37.84751466257236" lon="14.6998145453958"><ele>1165.0</ele><time>2026-04-12T08:01:42Z</time></trkpt><trkpt lat="37.84759739380024" lon="14.699747255218426"><ele>1165.0</ele><time>2026-04-12T08:01:43Z</time></trkpt><trkpt lat="37.84766939631552" lon="14.699702722538948"><ele>1165.0</ele><time>2026-04-12T08:01:45Z</time></trkpt><trkpt lat="37.847720770615005" lon="14.699629870190408"><ele>1165.0</ele><time>2026-04-12T08:01:47Z</time></trkpt><trkpt lat="37.84777817695758" lon="14.699576298426905"><ele>1165.0</ele><time>2026-04-12T08:01:48Z</time></trkpt><trkpt lat="37.84785615576604" lon="14.699511732326012"><ele>1165.0</ele><time>2026-04-12T08:01:49Z</time></trkpt><trkpt lat="37.847947426372706" lon="14.69944925424473"><ele>1165.6</ele><time>2026-04-12T08:01:50Z</time></trkpt><trkpt lat="37.848031839282044" lon="14.69938559124603"><ele>1166.2</ele><time>2026-04-12T08:01:51Z</time></trkpt><trkpt lat="37.84810753350045" lon="14.699321930265151"><ele>1166.8</ele><time>2026-04-12T08:01:52Z</time></trkpt><trkpt lat="37.848174110158524" lon="14.699255020940413"><ele>1167.4</ele><time>2026-04-12T08:01:53Z</time></trkpt><trkpt lat="37.84825253885951" lon="14.699185905196963"><ele>1168.0</ele><time>2026-04-12T08:01:54Z</time></trkpt><trkpt lat="37.8483376369748" lon="14.699118609251881"><ele>1168.0</ele><time>2026-04-12T08:01:55Z</time></trkpt><trkpt lat="37.848435839749946" lon="14.699050005446969"><ele>1168.0</ele><time>2026-04-12T08:01:56Z</time></trkpt><trkpt lat="37.848544632658914" lon="14.698981160647842"><ele>1168.0</ele><time>2026-04-12T08:01:57Z</time></trkpt><trkpt lat="37.848652226332746" lon="14.698915342177761"><ele>1168.0</ele><time>2026-04-12T08:01:58Z</time></trkpt><trkpt lat="37.84877103225742" lon="14.698854216648304"><ele>1167.25</ele><time>2026-04-12T08:01:59Z</time></trkpt><trkpt lat="37.848870932732545" lon="14.698771731855926"><ele>1166.5</ele><time>2026-04-12T08:02:00Z</time></trkpt><trkpt lat="37.848984073208925" lon="14.69869909964454"><ele>1165.75</ele><time>2026-04-12T08:02:01Z</time></trkpt><trkpt lat="37.84909493807626" lon="14.698588623716061"><ele>1165.0</ele><time>2026-04-12T08:02:02Z</time></trkpt><trkpt lat="37.849176464830656" lon="14.698495091428677"><ele>1165.0</ele><time>2026-04-12T08:02:03Z</time></trkpt><trkpt lat="37.84927546607344" lon="14.698406641819627"><ele>1165.0</ele><time>2026-04-12T08:02:04Z</time></trkpt><trkpt lat="37.849382447198565" lon="14.698355230502258"><ele>1165.0</ele><time>2026-04-12T08:02:05Z</time></trkpt><trkpt lat="37.8494927847978" lon="14.698304295223771"><ele>1165.0</ele><time>2026-04-12T08:02:06Z</time></trkpt><trkpt lat="37.84960498011339" lon="14.698228959674147"><ele>1165.5</ele><time>2026-04-12T08:02:07Z</time></trkpt><trkpt lat="37.84971607250104" lon="14.698130974287512"><ele>1166.0</ele><time>2026-04-12T08:02:08Z</time></trkpt><trkpt lat="37.8498161111106" lon="14.697987004091443"><ele>1166.5</ele><time>2026-04-12T08:02:09Z</time></trkpt><trkpt lat="37.84991974754655" lon="14.697829204270898"><ele>1167.0</ele><time>2026-04-12T08:02:10Z</time></trkpt><trkpt lat="37.850038589864035" lon="14.697687389557448"><ele>1172.5</ele><time>2026-04-12T08:02:11Z</time></trkpt><trkpt lat="37.85014188271201" lon="14.69752643378371"><ele>1178.0</ele><time>2026-04-12T08:02:12Z</time></trkpt><trkpt lat="37.8502409201823" lon="14.697389440256057"><ele>1183.5</ele><time>2026-04-12T08:02:13Z</time></trkpt><trkpt lat="37.85032935083965" lon="14.697273506281716"><ele>1189.0</ele><time>2026-04-12T08:02:14Z</time></trkpt><trkpt lat="37.850417798324244" lon="14.697177770353688"><ele>1189.0</ele><time>2026-04-12T08:02:15Z</time></trkpt><trkpt lat="37.8505303855928" lon="14.697119938507322"><ele>1189.0</ele><time>2026-04-12T08:02:16Z</time></trkpt><trkpt lat="37.85065413839485" lon="14.697141894818985"><ele>1189.0</ele><time>2026-04-12T08:02:17Z</time></trkpt><trkpt lat="37.85077858092249" lon="14.697214673590555"><ele>1189.0</ele><time>2026-04-12T08:02:18Z</time></trkpt><trkpt lat="37.850913888880136" lon="14.697269155305955"><ele>1190.0</ele><time>2026-04-12T08:02:19Z</time></trkpt><trkpt lat="37.85105600238968" lon="14.697299391900753"><ele>1191.0</ele><time>2026-04-12T08:02:20Z</time></trkpt><trkpt lat="37.85120131328572" lon="14.697307254092607"><ele>1192.0</ele><time>2026-04-12T08:02:21Z</time></trkpt><trkpt lat="37.85135088991247" lon="14.697265687152502"><ele>1193.0</ele><time>2026-04-12T08:02:22Z</time></trkpt><trkpt lat="37.851497817976664" lon="14.697194528137453"><ele>1193.0</ele><time>2026-04-12T08:02:23Z</time></trkpt><trkpt lat="37.851640369128376" lon="14.69712510294381"><ele>1193.0</ele><time>2026-04-12T08:02:24Z</time></trkpt><trkpt lat="37.85178395391013" lon="14.697080716788973"><ele>1193.0</ele><time>2026-04-12T08:02:25Z</time></trkpt><trkpt lat="37.85192468264202" lon="14.69707034811871"><ele>1193.0</ele><time>2026-04-12T08:02:26Z</time></trkpt><trkpt lat="37.85206236917385" lon="14.697106980247518"><ele>1194.5</ele><time>2026-04-12T08:02:27Z</time></trkpt><trkpt lat="37.852196464719306" lon="14.69718330719731"><ele>1196.0</ele><time>2026-04-12T08:02:28Z</time></trkpt><trkpt lat="37.852315541032425" lon="14.697269312655145"><ele>1197.5</ele><time>2026-04-12T08:02:29Z</time></trkpt><trkpt lat="37.85242652456566" lon="14.697323884057726"><ele>1199.0</ele><time>2026-04-12T08:02:30Z</time></trkpt><trkpt lat="37.852529173773846" lon="14.697352532535037"><ele>1199.25</ele><time>2026-04-12T08:02:31Z</time></trkpt><trkpt lat="37.852630218095726" lon="14.697317743039337"><ele>1199.5</ele><time>2026-04-12T08:02:32Z</time></trkpt><trkpt lat="37.85270996282629" lon="14.697209786520126"><ele>1199.75</ele><time>2026-04-12T08:02:33Z</time></trkpt><trkpt lat="37.852762663594795" lon="14.697061150606086"><ele>1200.0</ele><time>2026-04-12T08:02:34Z</time></trkpt><trkpt lat="37.85278621511421" lon="14.696894317194067"><ele>1200.0</ele><time>2026-04-12T08:02:35Z</time></trkpt><trkpt lat="37.85281044488819" lon="14.696725884142031"><ele>1200.0</ele><time>2026-04-12T08:02:36Z</time></trkpt><trkpt lat="37.85284870860924" lon="14.696563117843962"><ele>1200.0</ele><time>2026-04-12T08:02:37Z</time></trkpt><trkpt lat="37.85289107254679" lon="14.696408752740656"><ele>1200.0</ele><time>2026-04-12T08:02:38Z</time></trkpt><trkpt lat="37.85293949442053" lon="14.696283256164484"><ele>1200.0</ele><time>2026-04-12T08:02:39Z</time></trkpt><trkpt lat="37.85299295877601" lon="14.696189433800178"><ele>1200.0</ele><time>2026-04-12T08:02:40Z</time></trkpt><trkpt lat="37.85306481603757" lon="14.696143113688484"><ele>1200.0</ele><time>2026-04-12T08:02:41Z</time></trkpt><trkpt lat="37.85315119367893" lon="14.696165963600206"><ele>1200.0</ele><time>2026-04-12T08:02:42Z</time></trkpt><trkpt lat="37.853220795927925" lon="14.696247431475262"><ele>1200.0</ele><time>2026-04-12T08:02:43Z</time></trkpt><trkpt lat="37.85327088313197" lon="14.696380854405216"><ele>1200.0</ele><time>2026-04-12T08:02:44Z</time></trkpt><trkpt lat="37.853317171689504" lon="14.696526849167356"><ele>1200.0</ele><time>2026-04-12T08:02:45Z</time></trkpt><trkpt lat="37.85337345154008" lon="14.69667954424736"><ele>1200.0</ele><time>2026-04-12T08:02:46Z</time></trkpt><trkpt lat="37.8534418525753" lon="14.696835266068092"><ele>1200.0</ele><time>2026-04-12T08:02:47Z</time></trkpt><trkpt lat="37.85351808223673" lon="14.696996843598553"><ele>1203.3333333333333</ele><time>2026-04-12T08:02:48Z</time></trkpt><trkpt lat="37.8536156747559" lon="14.697151430478854"><ele>1206.6666666666665</ele><time>2026-04-12T08:02:49Z</time></trkpt><trkpt lat="37.85372850103675" lon="14.697290798508902"><ele>1210.0</ele><time>2026-04-12T08:02:50Z</time></trkpt><trkpt lat="37.85383761085977" lon="14.69742663546129"><ele>1210.0</ele><time>2026-04-12T08:02:51Z</time></trkpt><trkpt lat="37.85394955703909" lon="14.697571213876392"><ele>1210.0</ele><time>2026-04-12T08:02:52Z</time></trkpt><trkpt lat="37.85406714645395" lon="14.697714285430092"><ele>1210.0</ele><time>2026-04-12T08:02:53Z</time></trkpt><trkpt lat="37.85420220691134" lon="14.69783223177134"><ele>1216.0</ele><time>2026-04-12T08:02:54Z</time></trkpt><trkpt lat="37.85434658823356" lon="14.69792296901939"><ele>1222.0</ele><time>2026-04-12T08:02:55Z</time></trkpt><trkpt lat="37.85448891196808" lon="14.6980005399189"><ele>1228.0</ele><time>2026-04-12T08:02:56Z</time></trkpt><trkpt lat="37.8546422165129" lon="14.698038239443127"><ele>1228.0</ele><time>2026-04-12T08:02:57Z</time></trkpt><trkpt lat="37.854799708167626" lon="14.69802798401263"><ele>1228.0</ele><time>2026-04-12T08:02:58Z</time></trkpt><trkpt lat="37.85492087896859" lon="14.698030741628775"><ele>1228.0</ele><time>2026-04-12T08:02:59Z</time></trkpt><trkpt lat="37.85505186453185" lon="14.698054281172366"><ele>1228.0</ele><time>2026-04-12T08:03:00Z</time></trkpt><trkpt lat="37.85514975885717" lon="14.698162271820738"><ele>1227.25</ele><time>2026-04-12T08:03:01Z</time></trkpt><trkpt lat="37.85521532546665" lon="14.698307050656812"><ele>1226.5</ele><time>2026-04-12T08:03:02Z</time></trkpt><trkpt lat="37.855268583940436" lon="14.698429429079908"><ele>1225.75</ele><time>2026-04-12T08:03:03Z</time></trkpt><trkpt lat="37.85536480199893" lon="14.698487209976266"><ele>1225.0</ele><time>2026-04-12T08:03:04Z</time></trkpt><trkpt lat="37.85549230608251" lon="14.698489792119867"><ele>1225.0</ele><time>2026-04-12T08:03:05Z</time></trkpt><trkpt lat="37.85562251550377" lon="14.698476051895568"><ele>1225.0</ele><time>2026-04-12T08:03:06Z</time></trkpt><trkpt lat="37.85575582148032" lon="14.698482088893403"><ele>1225.0</ele><time>2026-04-12T08:03:07Z</time></trkpt><trkpt lat="37.85589118484134" lon="14.698489175439011"><ele>1225.0</ele><time>2026-04-12T08:03:08Z</time></trkpt><trkpt lat="37.85603008938229" lon="14.69849563399475"><ele>1225.75</ele><time>2026-04-12T08:03:09Z</time></trkpt><trkpt lat="37.85616650085988" lon="14.698482175395089"><ele>1226.5</ele><time>2026-04-12T08:03:10Z</time></trkpt><trkpt lat="37.856306180895544" lon="14.698415437011095"><ele>1227.25</ele><time>2026-04-12T08:03:11Z</time></trkpt><trkpt lat="37.856442946023584" lon="14.698328254933148"><ele>1228.0</ele><time>2026-04-12T08:03:12Z</time></trkpt><trkpt lat="37.85658087972028" lon="14.698236713869028"><ele>1228.0</ele><time>2026-04-12T08:03:13Z</time></trkpt><trkpt lat="37.85670699245388" lon="14.698169212777211"><ele>1228.0</ele><time>2026-04-12T08:03:14Z</time></trkpt><trkpt lat="37.85682019277708" lon="14.698102803531576"><ele>1228.0</ele><time>2026-04-12T08:03:15Z</time></trkpt><trkpt lat="37.85691039094966" lon="14.69801189544547"><ele>1228.0</ele><time>2026-04-12T08:03:16Z</time></trkpt><trkpt lat="37.856956227286226" lon="14.697877964342643"><ele>1229.25</ele><time>2026-04-12T08:03:17Z</time></trkpt><trkpt lat="37.85695479238348" lon="14.697706808152587"><ele>1230.5</ele><time>2026-04-12T08:03:18Z</time></trkpt><trkpt lat="37.856959063079614" lon="14.697549101053182"><ele>1231.75</ele><time>2026-04-12T08:03:19Z</time></trkpt><trkpt lat="37.85703385491963" lon="14.69742018003269"><ele>1233.0</ele><time>2026-04-12T08:03:20Z</time></trkpt><trkpt lat="37.85715173122678" lon="14.697326780737933"><ele>1233.0</ele><time>2026-04-12T08:03:21Z</time></trkpt><trkpt lat="37.8572874031583" lon="14.697261511606817"><ele>1233.0</ele><time>2026-04-12T08:03:22Z</time></trkpt><trkpt lat="37.8574055858654" lon="14.697195613957831"><ele>1233.0</ele><time>2026-04-12T08:03:23Z</time></trkpt><trkpt lat="37.857514415408886" lon="14.697121933411575"><ele>1233.0</ele><time>2026-04-12T08:03:24Z</time></trkpt><trkpt lat="37.85761463476561" lon="14.69704480642418"><ele>1235.5</ele><time>2026-04-12T08:03:25Z</time></trkpt><trkpt lat="37.857696417183824" lon="14.696935452207686"><ele>1238.0</ele><time>2026-04-12T08:03:26Z</time></trkpt><trkpt lat="37.85774976077538" lon="14.696792151597103"><ele>1240.5</ele><time>2026-04-12T08:03:27Z</time></trkpt><trkpt lat="37.85779279422757" lon="14.696629755322215"><ele>1243.0</ele><time>2026-04-12T08:03:28Z</time></trkpt><trkpt lat="37.857840711989375" lon="14.696456631979554"><ele>1243.0</ele><time>2026-04-12T08:03:29Z</time></trkpt><trkpt lat="37.85789412236052" lon="14.69628341014902"><ele>1243.0</ele><time>2026-04-12T08:03:30Z</time></trkpt><trkpt lat="37.85794809988579" lon="14.696107569430938"><ele>1243.0</ele><time>2026-04-12T08:03:31Z</time></trkpt><trkpt lat="37.857996653455274" lon="14.695946444896439"><ele>1243.0</ele><time>2026-04-12T08:03:32Z</time></trkpt><trkpt lat="37.858042535502854" lon="14.695789984930057"><ele>1239.75</ele><time>2026-04-12T08:03:33Z</time></trkpt><trkpt lat="37.85809234926487" lon="14.695633313937218"><ele>1236.5</ele><time>2026-04-12T08:03:34Z</time></trkpt><trkpt lat="37.858166478506796" lon="14.695506829365115"><ele>1233.25</ele><time>2026-04-12T08:03:35Z</time></trkpt><trkpt lat="37.858268557040056" lon="14.6954275705052"><ele>1230.0</ele><time>2026-04-12T08:03:36Z</time></trkpt><trkpt lat="37.858387783507865" lon="14.69538125447904"><ele>1228.25</ele><time>2026-04-12T08:03:37Z</time></trkpt><trkpt lat="37.85851422771855" lon="14.695344000420759"><ele>1226.5</ele><time>2026-04-12T08:03:38Z</time></trkpt><trkpt lat="37.85863387629284" lon="14.69525833650566"><ele>1224.75</ele><time>2026-04-12T08:03:39Z</time></trkpt><trkpt lat="37.858724379420245" lon="14.695099794465749"><ele>1223.0</ele><time>2026-04-12T08:03:40Z</time></trkpt><trkpt lat="37.858799214590924" lon="14.694928486273279"><ele>1223.0</ele><time>2026-04-12T08:03:41Z</time></trkpt><trkpt lat="37.858893387671905" lon="14.694779223857218"><ele>1223.0</ele><time>2026-04-12T08:03:42Z</time></trkpt><trkpt lat="37.8590194570552" lon="14.694701839527925"><ele>1223.0</ele><time>2026-04-12T08:03:43Z</time></trkpt><trkpt lat="37.85916378703927" lon="14.694622919862276"><ele>1223.0</ele><time>2026-04-12T08:03:44Z</time></trkpt><trkpt lat="37.85932619777753" lon="14.694570653574436"><ele>1225.3333333333335</ele><time>2026-04-12T08:03:45Z</time></trkpt><trkpt lat="37.85947962200988" lon="14.694506368711751"><ele>1227.6666666666667</ele><time>2026-04-12T08:03:46Z</time></trkpt><trkpt lat="37.859623934327026" lon="14.69443459003007"><ele>1230.0</ele><time>2026-04-12T08:03:47Z</time></trkpt><trkpt lat="37.85976925558117" lon="14.694355898120302"><ele>1221.3333333333333</ele><time>2026-04-12T08:03:48Z</time></trkpt><trkpt lat="37.85992126124064" lon="14.694293286380466"><ele>1212.6666666666665</ele><time>2026-04-12T08:03:49Z</time></trkpt><trkpt lat="37.860075612180225" lon="14.694263805082402"><ele>1204.0</ele><time>2026-04-12T08:03:50Z</time></trkpt><trkpt lat="37.86023130380119" lon="14.694285144084889"><ele>1204.0</ele><time>2026-04-12T08:03:51Z</time></trkpt><trkpt lat="37.86037816534806" lon="14.694316777124353"><ele>1204.0</ele><time>2026-04-12T08:03:52Z</time></trkpt><trkpt lat="37.86052112130129" lon="14.69429772922495"><ele>1204.0</ele><time>2026-04-12T08:03:53Z</time></trkpt><trkpt lat="37.86065110058436" lon="14.694197468753492"><ele>1204.0</ele><time>2026-04-12T08:03:54Z</time></trkpt><trkpt lat="37.860768726845045" lon="14.694074269458024"><ele>1204.0</ele><time>2026-04-12T08:03:55Z</time></trkpt><trkpt lat="37.86090567864806" lon="14.693994635742298"><ele>1204.0</ele><time>2026-04-12T08:03:56Z</time></trkpt><trkpt lat="37.86105633271149" lon="14.69397027966019"><ele>1204.0</ele><time>2026-04-12T08:03:57Z</time></trkpt><trkpt lat="37.86120416364687" lon="14.693976152495303"><ele>1203.25</ele><time>2026-04-12T08:03:58Z</time></trkpt><trkpt lat="37.86134503682491" lon="14.694023435599297"><ele>1202.5</ele><time>2026-04-12T08:03:59Z</time></trkpt><trkpt lat="37.86149187597499" lon="14.694092354457956"><ele>1201.75</ele><time>2026-04-12T08:04:00Z</time></trkpt><trkpt lat="37.86160818647436" lon="14.694171252978524"><ele>1201.0</ele><time>2026-04-12T08:04:01Z</time></trkpt><trkpt lat="37.861727026552984" lon="14.694219553154834"><ele>1200.25</ele><time>2026-04-12T08:04:02Z</time></trkpt><trkpt lat="37.86185857090611" lon="14.694214354263362"><ele>1199.5</ele><time>2026-04-12T08:04:03Z</time></trkpt><trkpt lat="37.8619899952517" lon="14.69415357746536"><ele>1198.75</ele><time>2026-04-12T08:04:04Z</time></trkpt><trkpt lat="37.862113736140515" lon="14.694053686077265"><ele>1198.0</ele><time>2026-04-12T08:04:05Z</time></trkpt><trkpt lat="37.86224222212045" lon="14.693994515658913"><ele>1198.0</ele><time>2026-04-12T08:04:06Z</time></trkpt><trkpt lat="37.862381596608586" lon="14.694001969685717"><ele>1198.0</ele><time>2026-04-12T08:04:07Z</time></trkpt><trkpt lat="37.86251587176999" lon="14.694039730723329"><ele>1198.0</ele><time>2026-04-12T08:04:08Z</time></trkpt><trkpt lat="37.86261379357285" lon="14.694054946068103"><ele>1198.0</ele><time>2026-04-12T08:04:09Z</time></trkpt><trkpt lat="37.86269847255773" lon="14.693986066890439"><ele>1199.5</ele><time>2026-04-12T08:04:10Z</time></trkpt><trkpt lat="37.86273626646945" lon="14.69383105188063"><ele>1201.0</ele><time>2026-04-12T08:04:11Z</time></trkpt><trkpt lat="37.8627325697746" lon="14.693664017922307"><ele>1202.5</ele><time>2026-04-12T08:04:12Z</time></trkpt><trkpt lat="37.86271453954013" lon="14.69349503732146"><ele>1204.0</ele><time>2026-04-12T08:04:13Z</time></trkpt><trkpt lat="37.862703909133714" lon="14.693323537687023"><ele>1204.0</ele><time>2026-04-12T08:04:14Z</time></trkpt><trkpt lat="37.86270611433782" lon="14.693143635677293"><ele>1204.0</ele><time>2026-04-12T08:04:15Z</time></trkpt><trkpt lat="37.862709368049735" lon="14.692967573271163"><ele>1204.0</ele><time>2026-04-12T08:04:16Z</time></trkpt><trkpt lat="37.862714296860986" lon="14.692802350784076"><ele>1204.0</ele><time>2026-04-12T08:04:17Z</time></trkpt><trkpt lat="37.86271728458789" lon="14.692638758148153"><ele>1201.2</ele><time>2026-04-12T08:04:18Z</time></trkpt><trkpt lat="37.86272308599266" lon="14.692492986080783"><ele>1198.4</ele><time>2026-04-12T08:04:19Z</time></trkpt><trkpt lat="37.862748345358625" lon="14.692362613675899"><ele>1195.6</ele><time>2026-04-12T08:04:20Z</time></trkpt><trkpt lat="37.862819831123296" lon="14.692269262457895"><ele>1192.8</ele><time>2026-04-12T08:04:21Z</time></trkpt><trkpt lat="37.8629234473847" lon="14.692218423876536"><ele>1190.0</ele><time>2026-04-12T08:04:22Z</time></trkpt><trkpt lat="37.863056648411835" lon="14.692222493054357"><ele>1190.0</ele><time>2026-04-12T08:04:23Z</time></trkpt><trkpt lat="37.86319916727231" lon="14.692233366227459"><ele>1190.0</ele><time>2026-04-12T08:04:24Z</time></trkpt><trkpt lat="37.86334965331176" lon="14.692235456085193"><ele>1190.0</ele><time>2026-04-12T08:04:25Z</time></trkpt><trkpt lat="37.86350228978635" lon="14.692218858938393"><ele>1190.0</ele><time>2026-04-12T08:04:26Z</time></trkpt><trkpt lat="37.86364857561157" lon="14.692206231832209"><ele>1188.25</ele><time>2026-04-12T08:04:27Z</time></trkpt><trkpt lat="37.863798496983016" lon="14.692215499119639"><ele>1186.5</ele><time>2026-04-12T08:04:28Z</time></trkpt><trkpt lat="37.86393264629693" lon="14.692273296498474"><ele>1184.75</ele><time>2026-04-12T08:04:29Z</time></trkpt><trkpt lat="37.864049380238924" lon="14.692362937844125"><ele>1183.0</ele><time>2026-04-12T08:04:30Z</time></trkpt><trkpt lat="37.86416916222672" lon="14.692442812075349"><ele>1185.0</ele><time>2026-04-12T08:04:31Z</time></trkpt><trkpt lat="37.864283501717836" lon="14.692505174665719"><ele>1187.0</ele><time>2026-04-12T08:04:32Z</time></trkpt><trkpt lat="37.86438798950518" lon="14.692557615227171"><ele>1189.0</ele><time>2026-04-12T08:04:33Z</time></trkpt><trkpt lat="37.86449435741464" lon="14.692577854559897"><ele>1191.0</ele><time>2026-04-12T08:04:34Z</time></trkpt><trkpt lat="37.86459368631546" lon="14.692516521541261"><ele>1191.0</ele><time>2026-04-12T08:04:35Z</time></trkpt><trkpt lat="37.86465783084194" lon="14.692396222048584"><ele>1191.0</ele><time>2026-04-12T08:04:36Z</time></trkpt><trkpt lat="37.86468814053286" lon="14.692229322218578"><ele>1191.0</ele><time>2026-04-12T08:04:37Z</time></trkpt><trkpt lat="37.86470252899655" lon="14.69204641122985"><ele>1191.0</ele><time>2026-04-12T08:04:38Z</time></trkpt><trkpt lat="37.864720831269146" lon="14.691856196268967"><ele>1190.0</ele><time>2026-04-12T08:04:39Z</time></trkpt><trkpt lat="37.86475302188335" lon="14.691669171784865"><ele>1189.0</ele><time>2026-04-12T08:04:40Z</time></trkpt><trkpt lat="37.864797432612775" lon="14.691488958354325"><ele>1188.0</ele><time>2026-04-12T08:04:41Z</time></trkpt><trkpt lat="37.86486067358117" lon="14.691320031455653"><ele>1187.0</ele><time>2026-04-12T08:04:42Z</time></trkpt><trkpt lat="37.86496758543658" lon="14.691193299585752"><ele>1188.75</ele><time>2026-04-12T08:04:43Z</time></trkpt><trkpt lat="37.86505535429386" lon="14.691052126761763"><ele>1190.5</ele><time>2026-04-12T08:04:44Z</time></trkpt><trkpt lat="37.865140872793404" lon="14.69093447350538"><ele>1192.25</ele><time>2026-04-12T08:04:45Z</time></trkpt><trkpt lat="37.86522391943053" lon="14.69083519139772"><ele>1194.0</ele><time>2026-04-12T08:04:46Z</time></trkpt><trkpt lat="37.86531816462685" lon="14.690776319305405"><ele>1194.0</ele><time>2026-04-12T08:04:47Z</time></trkpt><trkpt lat="37.86543288464849" lon="14.690760411626686"><ele>1194.0</ele><time>2026-04-12T08:04:48Z</time></trkpt><trkpt lat="37.86554913634549" lon="14.690745354606861"><ele>1194.0</ele><time>2026-04-12T08:04:49Z</time></trkpt><trkpt lat="37.86566233028961" lon="14.690719110338723"><ele>1194.0</ele><time>2026-04-12T08:04:50Z</time></trkpt><trkpt lat="37.865778144419686" lon="14.69068693898294"><ele>1194.0</ele><time>2026-04-12T08:04:51Z</time></trkpt><trkpt lat="37.865898396742516" lon="14.690663578940068"><ele>1194.0</ele><time>2026-04-12T08:04:52Z</time></trkpt><trkpt lat="37.86601827785884" lon="14.690624709760435"><ele>1194.0</ele><time>2026-04-12T08:04:53Z</time></trkpt><trkpt lat="37.866133729699506" lon="14.690566398106792"><ele>1194.0</ele><time>2026-04-12T08:04:54Z</time></trkpt><trkpt lat="37.86624615763814" lon="14.690480177918952"><ele>1194.75</ele><time>2026-04-12T08:04:55Z</time></trkpt><trkpt lat="37.86635765544438" lon="14.690383310509862"><ele>1195.5</ele><time>2026-04-12T08:04:56Z</time></trkpt><trkpt lat="37.866472119161706" lon="14.690292485451698"><ele>1196.25</ele><time>2026-04-12T08:04:57Z</time></trkpt><trkpt lat="37.86658763224878" lon="14.690207144263338"><ele>1197.0</ele><time>2026-04-12T08:04:58Z</time></trkpt><trkpt lat="37.86669874986164" lon="14.690120137960577"><ele>1202.0</ele><time>2026-04-12T08:04:59Z</time></trkpt><trkpt lat="37.86678501544212" lon="14.690004857089606"><ele>1207.0</ele><time>2026-04-12T08:05:00Z</time></trkpt><trkpt lat="37.86684143781507" lon="14.689853239635692"><ele>1212.0</ele><time>2026-04-12T08:05:01Z</time></trkpt><trkpt lat="37.86684244168877" lon="14.68966217061538"><ele>1217.0</ele><time>2026-04-12T08:05:02Z</time></trkpt><trkpt lat="37.866864004617504" lon="14.689490642673112"><ele>1215.75</ele><time>2026-04-12T08:05:03Z</time></trkpt><trkpt lat="37.86688107913231" lon="14.689319719407957"><ele>1214.5</ele><time>2026-04-12T08:05:04Z</time></trkpt><trkpt lat="37.86690045500762" lon="14.689161331250626"><ele>1213.25</ele><time>2026-04-12T08:05:05Z</time></trkpt><trkpt lat="37.866922270737234" lon="14.689010496395346"><ele>1212.0</ele><time>2026-04-12T08:05:06Z</time></trkpt><trkpt lat="37.86696568084315" lon="14.688871829490525"><ele>1212.0</ele><time>2026-04-12T08:05:07Z</time></trkpt><trkpt lat="37.86704178167869" lon="14.688757276866834"><ele>1212.0</ele><time>2026-04-12T08:05:08Z</time></trkpt><trkpt lat="37.867148265088346" lon="14.688672668380157"><ele>1212.0</ele><time>2026-04-12T08:05:09Z</time></trkpt><trkpt lat="37.86726534803297" lon="14.688602959284571"><ele>1212.0</ele><time>2026-04-12T08:05:10Z</time></trkpt><trkpt lat="37.86738271088295" lon="14.688512743062844"><ele>1210.8</ele><time>2026-04-12T08:05:11Z</time></trkpt><trkpt lat="37.86748934541899" lon="14.688427737418868"><ele>1209.6</ele><time>2026-04-12T08:05:12Z</time></trkpt><trkpt lat="37.86759509766208" lon="14.68835603328557"><ele>1208.3999999999999</ele><time>2026-04-12T08:05:13Z</time></trkpt><trkpt lat="37.86768768698298" lon="14.688286407408222"><ele>1207.2</ele><time>2026-04-12T08:05:14Z</time></trkpt><trkpt lat="37.867751654724046" lon="14.688199219625904"><ele>1206.0</ele><time>2026-04-12T08:05:15Z</time></trkpt><trkpt lat="37.8677782704021" lon="14.688079855369221"><ele>1210.25</ele><time>2026-04-12T08:05:16Z</time></trkpt><trkpt lat="37.867759730524256" lon="14.687938841904753"><ele>1214.5</ele><time>2026-04-12T08:05:17Z</time></trkpt><trkpt lat="37.86770023424535" lon="14.687797562282928"><ele>1218.75</ele><time>2026-04-12T08:05:18Z</time></trkpt><trkpt lat="37.86765664283824" lon="14.687651457891624"><ele>1223.0</ele><time>2026-04-12T08:05:19Z</time></trkpt><trkpt lat="37.86761044326108" lon="14.687514511919046"><ele>1223.6</ele><time>2026-04-12T08:05:20Z</time></trkpt><trkpt lat="37.86755653500984" lon="14.687395626473888"><ele>1224.1999999999998</ele><time>2026-04-12T08:05:21Z</time></trkpt><trkpt lat="37.86753489083357" lon="14.687276047372862"><ele>1224.8</ele><time>2026-04-12T08:05:22Z</time></trkpt><trkpt lat="37.8675492625643" lon="14.687149294589693"><ele>1225.3999999999999</ele><time>2026-04-12T08:05:23Z</time></trkpt><trkpt lat="37.86760209159366" lon="14.687026223167132"><ele>1226.0</ele><time>2026-04-12T08:05:24Z</time></trkpt><trkpt lat="37.86766015439719" lon="14.686898427654432"><ele>1226.0</ele><time>2026-04-12T08:05:25Z</time></trkpt><trkpt lat="37.86772426372808" lon="14.68675965969135"><ele>1226.0</ele><time>2026-04-12T08:05:26Z</time></trkpt><trkpt lat="37.8677869279508" lon="14.68662097154894"><ele>1226.0</ele><time>2026-04-12T08:05:27Z</time></trkpt><trkpt lat="37.86784875708484" lon="14.686484936153969"><ele>1226.0</ele><time>2026-04-12T08:05:28Z</time></trkpt><trkpt lat="37.86791635946786" lon="14.686353526267382"><ele>1226.0</ele><time>2026-04-12T08:05:29Z</time></trkpt><trkpt lat="37.86798083089444" lon="14.686231847705361"><ele>1226.0</ele><time>2026-04-12T08:05:30Z</time></trkpt><trkpt lat="37.86805552337827" lon="14.68613304187493"><ele>1226.0</ele><time>2026-04-12T08:05:31Z</time></trkpt><trkpt lat="37.868142782249244" lon="14.686062829896624"><ele>1226.0</ele><time>2026-04-12T08:05:32Z</time></trkpt><trkpt lat="37.86821802579591" lon="14.685971117824456"><ele>1226.0</ele><time>2026-04-12T08:05:33Z</time></trkpt><trkpt lat="37.86824375427179" lon="14.68583639469843"><ele>1225.5</ele><time>2026-04-12T08:05:34Z</time></trkpt><trkpt lat="37.86821782929051" lon="14.685700735889943"><ele>1225.0</ele><time>2026-04-12T08:05:35Z</time></trkpt><trkpt lat="37.868172957044834" lon="14.685567901238445"><ele>1224.5</ele><time>2026-04-12T08:05:36Z</time></trkpt><trkpt lat="37.86808825376545" lon="14.685454973792469"><ele>1224.0</ele><time>2026-04-12T08:05:37Z</time></trkpt><trkpt lat="37.8680004704396" lon="14.685354208621714"><ele>1224.4</ele><time>2026-04-12T08:05:38Z</time></trkpt><trkpt lat="37.86791880994008" lon="14.685256693307535"><ele>1224.8000000000002</ele><time>2026-04-12T08:05:39Z</time></trkpt><trkpt lat="37.867863298433804" lon="14.685161669462682"><ele>1225.1999999999998</ele><time>2026-04-12T08:05:40Z</time></trkpt><trkpt lat="37.86786862877174" lon="14.685053722356415"><ele>1225.6</ele><time>2026-04-12T08:05:41Z</time></trkpt><trkpt lat="37.86791147485111" lon="14.68496198826858"><ele>1226.0</ele><time>2026-04-12T08:05:42Z</time></trkpt><trkpt lat="37.867991767182545" lon="14.684886740660806"><ele>1226.0</ele><time>2026-04-12T08:05:43Z</time></trkpt><trkpt lat="37.86808680998764" lon="14.684820125687404"><ele>1226.0</ele><time>2026-04-12T08:05:44Z</time></trkpt><trkpt lat="37.86818986542786" lon="14.684735837542116"><ele>1226.0</ele><time>2026-04-12T08:05:45Z</time></trkpt><trkpt lat="37.86829414659685" lon="14.684642801561205"><ele>1226.0</ele><time>2026-04-12T08:05:46Z</time></trkpt><trkpt lat="37.86840129908194" lon="14.684547783242568"><ele>1226.0</ele><time>2026-04-12T08:05:47Z</time></trkpt><trkpt lat="37.86850849641023" lon="14.684457294123135"><ele>1226.0</ele><time>2026-04-12T08:05:48Z</time></trkpt><trkpt lat="37.86860052262827" lon="14.684376141046647"><ele>1226.0</ele><time>2026-04-12T08:05:49Z</time></trkpt><trkpt lat="37.86867673896791" lon="14.684301494496593"><ele>1226.0</ele><time>2026-04-12T08:05:50Z</time></trkpt><trkpt lat="37.8687365553904" lon="14.684227237194136"><ele>1226.0</ele><time>2026-04-12T08:05:51Z</time></trkpt><trkpt lat="37.868795006900356" lon="14.684173101967568"><ele>1226.0</ele><time>2026-04-12T08:05:52Z</time></trkpt><trkpt lat="37.86880362023212" lon="14.68406721208548"><ele>1226.0</ele><time>2026-04-12T08:05:53Z</time></trkpt><trkpt lat="37.86880816022856" lon="14.683953262932443"><ele>1226.0</ele><time>2026-04-12T08:05:55Z</time></trkpt><trkpt lat="37.86881682794761" lon="14.683869451993495"><ele>1226.0</ele><time>2026-04-12T08:05:57Z</time></trkpt><trkpt lat="37.86883430457514" lon="14.683786621620332"><ele>1226.0</ele><time>2026-04-12T08:05:59Z</time></trkpt><trkpt lat="37.86885318144888" lon="14.683642443653783"><ele>1226.0</ele><time>2026-04-12T08:06:01Z</time></trkpt><trkpt lat="37.86888420357024" lon="14.683563898345156"><ele>1227.1666666666667</ele><time>2026-04-12T08:06:02Z</time></trkpt><trkpt lat="37.86893021184656" lon="14.683490236132846"><ele>1228.3333333333335</ele><time>2026-04-12T08:06:03Z</time></trkpt><trkpt lat="37.86899048744607" lon="14.68342694633751"><ele>1229.5</ele><time>2026-04-12T08:06:04Z</time></trkpt><trkpt lat="37.869064028657" lon="14.683373991254593"><ele>1230.6666666666667</ele><time>2026-04-12T08:06:05Z</time></trkpt><trkpt lat="37.869147851397145" lon="14.683329611496974"><ele>1231.8333333333333</ele><time>2026-04-12T08:06:06Z</time></trkpt><trkpt lat="37.869242642847205" lon="14.68328650377306"><ele>1233.0</ele><time>2026-04-12T08:06:07Z</time></trkpt><trkpt lat="37.8693375448511" lon="14.683239940400094"><ele>1233.0</ele><time>2026-04-12T08:06:08Z</time></trkpt><trkpt lat="37.8694322359781" lon="14.683195762674183"><ele>1233.0</ele><time>2026-04-12T08:06:09Z</time></trkpt><trkpt lat="37.86954093514105" lon="14.683142350230767"><ele>1233.0</ele><time>2026-04-12T08:06:10Z</time></trkpt><trkpt lat="37.86965550449965" lon="14.68308475168979"><ele>1233.0</ele><time>2026-04-12T08:06:11Z</time></trkpt><trkpt lat="37.86976862805091" lon="14.683011262990055"><ele>1233.0</ele><time>2026-04-12T08:06:12Z</time></trkpt><trkpt lat="37.86987556646238" lon="14.682914703471305"><ele>1233.0</ele><time>2026-04-12T08:06:13Z</time></trkpt><trkpt lat="37.86998117982553" lon="14.682804534582685"><ele>1233.0</ele><time>2026-04-12T08:06:14Z</time></trkpt><trkpt lat="37.870079856106415" lon="14.682695380932621"><ele>1233.0</ele><time>2026-04-12T08:06:15Z</time></trkpt><trkpt lat="37.87017862405206" lon="14.682596520256281"><ele>1233.75</ele><time>2026-04-12T08:06:16Z</time></trkpt><trkpt lat="37.87027130323628" lon="14.682487393115489"><ele>1234.5</ele><time>2026-04-12T08:06:17Z</time></trkpt><trkpt lat="37.87034626191489" lon="14.682358032029873"><ele>1235.25</ele><time>2026-04-12T08:06:18Z</time></trkpt><trkpt lat="37.87037997306729" lon="14.682192043804793"><ele>1236.0</ele><time>2026-04-12T08:06:19Z</time></trkpt><trkpt lat="37.87040477048248" lon="14.682025304799204"><ele>1238.75</ele><time>2026-04-12T08:06:20Z</time></trkpt><trkpt lat="37.87041498441904" lon="14.681875496353655"><ele>1241.5</ele><time>2026-04-12T08:06:21Z</time></trkpt><trkpt lat="37.87049006906004" lon="14.681778375618133"><ele>1244.25</ele><time>2026-04-12T08:06:22Z</time></trkpt><trkpt lat="37.870602544116174" lon="14.681726872736514"><ele>1247.0</ele><time>2026-04-12T08:06:23Z</time></trkpt><trkpt lat="37.87071344807609" lon="14.681693624829617"><ele>1247.0</ele><time>2026-04-12T08:06:24Z</time></trkpt><trkpt lat="37.87083318286715" lon="14.681640288596785"><ele>1247.0</ele><time>2026-04-12T08:06:25Z</time></trkpt><trkpt lat="37.870950127491994" lon="14.681578473538682"><ele>1247.0</ele><time>2026-04-12T08:06:26Z</time></trkpt><trkpt lat="37.87106361830902" lon="14.681511199671515"><ele>1247.0</ele><time>2026-04-12T08:06:27Z</time></trkpt><trkpt lat="37.871164269280364" lon="14.681410814262309"><ele>1246.25</ele><time>2026-04-12T08:06:28Z</time></trkpt><trkpt lat="37.87124228655576" lon="14.681274807732372"><ele>1245.5</ele><time>2026-04-12T08:06:29Z</time></trkpt><trkpt lat="37.871300819103745" lon="14.681116218177388"><ele>1244.75</ele><time>2026-04-12T08:06:30Z</time></trkpt><trkpt lat="37.87132919684881" lon="14.680940408280863"><ele>1244.0</ele><time>2026-04-12T08:06:31Z</time></trkpt><trkpt lat="37.871315750846335" lon="14.680762124113539"><ele>1244.0</ele><time>2026-04-12T08:06:32Z</time></trkpt><trkpt lat="37.871262252044914" lon="14.68058940695257"><ele>1244.0</ele><time>2026-04-12T08:06:33Z</time></trkpt><trkpt lat="37.87119482501885" lon="14.68042396685058"><ele>1244.0</ele><time>2026-04-12T08:06:34Z</time></trkpt><trkpt lat="37.8711390400862" lon="14.680247338061212"><ele>1244.0</ele><time>2026-04-12T08:06:35Z</time></trkpt><trkpt lat="37.87105547644344" lon="14.68008518905145"><ele>1243.3333333333335</ele><time>2026-04-12T08:06:36Z</time></trkpt><trkpt lat="37.87098566952428" lon="14.67990849274572"><ele>1242.6666666666667</ele><time>2026-04-12T08:06:37Z</time></trkpt><trkpt lat="37.870918670743265" lon="14.67973001363943"><ele>1242.0</ele><time>2026-04-12T08:06:38Z</time></trkpt><trkpt lat="37.870852468107486" lon="14.679550996035989"><ele>1246.0</ele><time>2026-04-12T08:06:39Z</time></trkpt><trkpt lat="37.87078333307082" lon="14.67936914483051"><ele>1250.0</ele><time>2026-04-12T08:06:40Z</time></trkpt><trkpt lat="37.870708520179484" lon="14.679187712684614"><ele>1254.0</ele><time>2026-04-12T08:06:41Z</time></trkpt><trkpt lat="37.87063523844726" lon="14.679007185925295"><ele>1254.0</ele><time>2026-04-12T08:06:42Z</time></trkpt><trkpt lat="37.87056348581017" lon="14.678826960068632"><ele>1254.0</ele><time>2026-04-12T08:06:43Z</time></trkpt><trkpt lat="37.87049142910979" lon="14.67864761561519"><ele>1254.0</ele><time>2026-04-12T08:06:44Z</time></trkpt><trkpt lat="37.870421841492735" lon="14.678468090136976"><ele>1255.3333333333333</ele><time>2026-04-12T08:06:45Z</time></trkpt><trkpt lat="37.870349497948574" lon="14.678287104870835"><ele>1256.6666666666665</ele><time>2026-04-12T08:06:46Z</time></trkpt><trkpt lat="37.8702805775345" lon="14.678104247568093"><ele>1258.0</ele><time>2026-04-12T08:06:47Z</time></trkpt><trkpt lat="37.87021056236951" lon="14.677922693386256"><ele>1262.0</ele><time>2026-04-12T08:06:48Z</time></trkpt><trkpt lat="37.870139391596666" lon="14.677744338262341"><ele>1266.0</ele><time>2026-04-12T08:06:49Z</time></trkpt><trkpt lat="37.87006401523747" lon="14.677568941924848"><ele>1270.0</ele><time>2026-04-12T08:06:50Z</time></trkpt><trkpt lat="37.86998930926612" lon="14.677394459854115"><ele>1270.0</ele><time>2026-04-12T08:06:51Z</time></trkpt><trkpt lat="37.8699109798122" lon="14.677223151742522"><ele>1270.0</ele><time>2026-04-12T08:06:52Z</time></trkpt><trkpt lat="37.86981640554086" lon="14.677066827464216"><ele>1270.0</ele><time>2026-04-12T08:06:53Z</time></trkpt><trkpt lat="37.86969714063684" lon="14.676932762328498"><ele>1273.6666666666665</ele><time>2026-04-12T08:06:54Z</time></trkpt><trkpt lat="37.86956368684506" lon="14.676814479681891"><ele>1277.3333333333333</ele><time>2026-04-12T08:06:55Z</time></trkpt><trkpt lat="37.86942367527947" lon="14.676706054616488"><ele>1281.0</ele><time>2026-04-12T08:06:56Z</time></trkpt><trkpt lat="37.86928585884901" lon="14.676593042757416"><ele>1278.5</ele><time>2026-04-12T08:06:57Z</time></trkpt><trkpt lat="37.86915199597055" lon="14.67647831165168"><ele>1276.0</ele><time>2026-04-12T08:06:58Z</time></trkpt><trkpt lat="37.869036329323784" lon="14.676377379375602"><ele>1273.5</ele><time>2026-04-12T08:06:59Z</time></trkpt><trkpt lat="37.868944579639916" lon="14.676298988012086"><ele>1271.0</ele><time>2026-04-12T08:07:00Z</time></trkpt><trkpt lat="37.8688852678854" lon="14.676224071690566"><ele>1271.0</ele><time>2026-04-12T08:07:01Z</time></trkpt><trkpt lat="37.868858994469505" lon="14.676133884237201"><ele>1271.0</ele><time>2026-04-12T08:07:02Z</time></trkpt><trkpt lat="37.8689405891331" lon="14.676040125545894"><ele>1271.0</ele><time>2026-04-12T08:07:04Z</time></trkpt><trkpt lat="37.869010833738784" lon="14.676040103563228"><ele>1271.0</ele><time>2026-04-12T08:07:05Z</time></trkpt><trkpt lat="37.8690815526781" lon="14.676100723329146"><ele>1271.0</ele><time>2026-04-12T08:07:06Z</time></trkpt><trkpt lat="37.86914629777557" lon="14.676162645460264"><ele>1271.0</ele><time>2026-04-12T08:07:07Z</time></trkpt><trkpt lat="37.86922496481146" lon="14.676219270734903"><ele>1273.0</ele><time>2026-04-12T08:07:08Z</time></trkpt><trkpt lat="37.869309113685716" lon="14.676281059584099"><ele>1275.0</ele><time>2026-04-12T08:07:09Z</time></trkpt><trkpt lat="37.86939602892083" lon="14.67634303764438"><ele>1277.0</ele><time>2026-04-12T08:07:10Z</time></trkpt><trkpt lat="37.86949158376308" lon="14.67640689922467"><ele>1279.0</ele><time>2026-04-12T08:07:11Z</time></trkpt><trkpt lat="37.869590384273565" lon="14.676479824778891"><ele>1281.0</ele><time>2026-04-12T08:07:12Z</time></trkpt><trkpt lat="37.86969617314611" lon="14.676554074726988"><ele>1281.0</ele><time>2026-04-12T08:07:13Z</time></trkpt><trkpt lat="37.86980562802402" lon="14.676626221402106"><ele>1281.0</ele><time>2026-04-12T08:07:14Z</time></trkpt><trkpt lat="37.86991029033375" lon="14.676693724646878"><ele>1281.0</ele><time>2026-04-12T08:07:15Z</time></trkpt><trkpt lat="37.870022832662066" lon="14.676740425838378"><ele>1281.0</ele><time>2026-04-12T08:07:16Z</time></trkpt><trkpt lat="37.8701394426302" lon="14.67673888728337"><ele>1281.75</ele><time>2026-04-12T08:07:17Z</time></trkpt><trkpt lat="37.87025330247339" lon="14.676706072121739"><ele>1282.5</ele><time>2026-04-12T08:07:18Z</time></trkpt><trkpt lat="37.87037142349819" lon="14.676654841520493"><ele>1283.25</ele><time>2026-04-12T08:07:19Z</time></trkpt><trkpt lat="37.870493997063306" lon="14.676588004919386"><ele>1284.0</ele><time>2026-04-12T08:07:20Z</time></trkpt><trkpt lat="37.87062072181921" lon="14.67652841685339"><ele>1284.0</ele><time>2026-04-12T08:07:21Z</time></trkpt><trkpt lat="37.870756542936206" lon="14.676472825244392"><ele>1284.0</ele><time>2026-04-12T08:07:22Z</time></trkpt><trkpt lat="37.870892258084325" lon="14.67641021166774"><ele>1284.0</ele><time>2026-04-12T08:07:23Z</time></trkpt><trkpt lat="37.87103124297935" lon="14.67634845110646"><ele>1284.0</ele><time>2026-04-12T08:07:24Z</time></trkpt><trkpt lat="37.87117666074302" lon="14.676283793762881"><ele>1283.6666666666667</ele><time>2026-04-12T08:07:25Z</time></trkpt><trkpt lat="37.871320102800986" lon="14.676216028867117"><ele>1283.3333333333335</ele><time>2026-04-12T08:07:26Z</time></trkpt><trkpt lat="37.87145873984731" lon="14.67615016531783"><ele>1283.0</ele><time>2026-04-12T08:07:27Z</time></trkpt><trkpt lat="37.871600994220884" lon="14.676081063444181"><ele>1285.3333333333335</ele><time>2026-04-12T08:07:28Z</time></trkpt><trkpt lat="37.87174225327345" lon="14.676001921418289"><ele>1287.6666666666667</ele><time>2026-04-12T08:07:29Z</time></trkpt><trkpt lat="37.87187989757872" lon="14.67590329924822"><ele>1290.0</ele><time>2026-04-12T08:07:30Z</time></trkpt><trkpt lat="37.87200749885757" lon="14.675791748079325"><ele>1290.0</ele><time>2026-04-12T08:07:31Z</time></trkpt><trkpt lat="37.872130997762135" lon="14.67566953695928"><ele>1290.0</ele><time>2026-04-12T08:07:32Z</time></trkpt><trkpt lat="37.87225292082526" lon="14.67554838822701"><ele>1290.0</ele><time>2026-04-12T08:07:33Z</time></trkpt><trkpt lat="37.87237414834938" lon="14.675427495363296"><ele>1290.0</ele><time>2026-04-12T08:07:34Z</time></trkpt><trkpt lat="37.872492938040686" lon="14.675312973152197"><ele>1290.0</ele><time>2026-04-12T08:07:35Z</time></trkpt><trkpt lat="37.872611254524905" lon="14.675218137031289"><ele>1290.0</ele><time>2026-04-12T08:07:36Z</time></trkpt><trkpt lat="37.872733753870236" lon="14.675146257545522"><ele>1290.0</ele><time>2026-04-12T08:07:37Z</time></trkpt><trkpt lat="37.8728584343786" lon="14.675114210528031"><ele>1291.25</ele><time>2026-04-12T08:07:38Z</time></trkpt><trkpt lat="37.87297363703474" lon="14.67507311678415"><ele>1292.5</ele><time>2026-04-12T08:07:39Z</time></trkpt><trkpt lat="37.87305786164919" lon="14.674969294786083"><ele>1293.75</ele><time>2026-04-12T08:07:40Z</time></trkpt><trkpt lat="37.873108478040784" lon="14.674832273842302"><ele>1295.0</ele><time>2026-04-12T08:07:41Z</time></trkpt><trkpt lat="37.873149108638465" lon="14.674690017160199"><ele>1295.0</ele><time>2026-04-12T08:07:42Z</time></trkpt><trkpt lat="37.873208602775755" lon="14.67455433221575"><ele>1295.0</ele><time>2026-04-12T08:07:43Z</time></trkpt><trkpt lat="37.87324451939767" lon="14.674404451574722"><ele>1295.0</ele><time>2026-04-12T08:07:44Z</time></trkpt><trkpt lat="37.8733178997441" lon="14.674279861221754"><ele>1295.0</ele><time>2026-04-12T08:07:45Z</time></trkpt><trkpt lat="37.87338603915694" lon="14.674153226065592"><ele>1297.0</ele><time>2026-04-12T08:07:46Z</time></trkpt><trkpt lat="37.873422553112526" lon="14.674003976579568"><ele>1299.0</ele><time>2026-04-12T08:07:47Z</time></trkpt><trkpt lat="37.87342917348205" lon="14.673843131336122"><ele>1301.0</ele><time>2026-04-12T08:07:48Z</time></trkpt><trkpt lat="37.87343866415285" lon="14.673680593884445"><ele>1303.0</ele><time>2026-04-12T08:07:49Z</time></trkpt><trkpt lat="37.87343797310982" lon="14.673523861150409"><ele>1304.5</ele><time>2026-04-12T08:07:50Z</time></trkpt><trkpt lat="37.87343021491207" lon="14.673364708223637"><ele>1306.0</ele><time>2026-04-12T08:07:51Z</time></trkpt><trkpt lat="37.87342638913703" lon="14.67319749178212"><ele>1307.5</ele><time>2026-04-12T08:07:52Z</time></trkpt><trkpt lat="37.87342818243396" lon="14.673033659323123"><ele>1309.0</ele><time>2026-04-12T08:07:53Z</time></trkpt><trkpt lat="37.873430289138604" lon="14.672868228511135"><ele>1310.0</ele><time>2026-04-12T08:07:54Z</time></trkpt><trkpt lat="37.873432382818805" lon="14.672702283009805"><ele>1311.0</ele><time>2026-04-12T08:07:55Z</time></trkpt><trkpt lat="37.87343379544191" lon="14.672533086531342"><ele>1312.0</ele><time>2026-04-12T08:07:56Z</time></trkpt><trkpt lat="37.87343464896094" lon="14.672368430200198"><ele>1313.0</ele><time>2026-04-12T08:07:57Z</time></trkpt><trkpt lat="37.873427420803665" lon="14.672215086922574"><ele>1313.0</ele><time>2026-04-12T08:07:58Z</time></trkpt><trkpt lat="37.87338749311862" lon="14.67206829488184"><ele>1313.0</ele><time>2026-04-12T08:07:59Z</time></trkpt><trkpt lat="37.873313576204886" lon="14.67193473335753"><ele>1313.0</ele><time>2026-04-12T08:08:00Z</time></trkpt><trkpt lat="37.87322270099094" lon="14.671814230473355"><ele>1313.0</ele><time>2026-04-12T08:08:01Z</time></trkpt><trkpt lat="37.87314642605778" lon="14.671679297300102"><ele>1313.25</ele><time>2026-04-12T08:08:02Z</time></trkpt><trkpt lat="37.87305205743675" lon="14.671569282211927"><ele>1313.5</ele><time>2026-04-12T08:08:03Z</time></trkpt><trkpt lat="37.87298451204533" lon="14.671435155430968"><ele>1313.75</ele><time>2026-04-12T08:08:04Z</time></trkpt><trkpt lat="37.87295721545312" lon="14.671283048094708"><ele>1314.0</ele><time>2026-04-12T08:08:05Z</time></trkpt><trkpt lat="37.87296385862457" lon="14.671131257811373"><ele>1314.75</ele><time>2026-04-12T08:08:06Z</time></trkpt><trkpt lat="37.8729650051858" lon="14.670976338059871"><ele>1315.5</ele><time>2026-04-12T08:08:07Z</time></trkpt><trkpt lat="37.872959622345505" lon="14.670812339792088"><ele>1316.25</ele><time>2026-04-12T08:08:08Z</time></trkpt><trkpt lat="37.87295369972823" lon="14.67064928429833"><ele>1317.0</ele><time>2026-04-12T08:08:09Z</time></trkpt><trkpt lat="37.87296065776134" lon="14.670485795972752"><ele>1317.0</ele><time>2026-04-12T08:08:10Z</time></trkpt><trkpt lat="37.8729970251173" lon="14.670325961094255"><ele>1317.0</ele><time>2026-04-12T08:08:11Z</time></trkpt><trkpt lat="37.87307562694448" lon="14.67019298910057"><ele>1317.0</ele><time>2026-04-12T08:08:12Z</time></trkpt><trkpt lat="37.87317149002974" lon="14.670081366039287"><ele>1317.0</ele><time>2026-04-12T08:08:13Z</time></trkpt><trkpt lat="37.873259259455565" lon="14.669948740118919"><ele>1317.0</ele><time>2026-04-12T08:08:14Z</time></trkpt><trkpt lat="37.87334200150837" lon="14.669816708307277"><ele>1317.0</ele><time>2026-04-12T08:08:15Z</time></trkpt><trkpt lat="37.873419483095915" lon="14.669697206986312"><ele>1317.0</ele><time>2026-04-12T08:08:16Z</time></trkpt><trkpt lat="37.87347585812163" lon="14.669576163744242"><ele>1317.0</ele><time>2026-04-12T08:08:17Z</time></trkpt><trkpt lat="37.873490198213844" lon="14.669437395548895"><ele>1317.0</ele><time>2026-04-12T08:08:18Z</time></trkpt><trkpt lat="37.87345221470783" lon="14.669292391234755"><ele>1317.0</ele><time>2026-04-12T08:08:19Z</time></trkpt><trkpt lat="37.873399934843256" lon="14.669156319356219"><ele>1317.0</ele><time>2026-04-12T08:08:20Z</time></trkpt><trkpt lat="37.873343219395736" lon="14.669017489388015"><ele>1317.0</ele><time>2026-04-12T08:08:21Z</time></trkpt><trkpt lat="37.87328149422537" lon="14.668867438107723"><ele>1319.0</ele><time>2026-04-12T08:08:22Z</time></trkpt><trkpt lat="37.873226204152395" lon="14.668714744167751"><ele>1321.0</ele><time>2026-04-12T08:08:23Z</time></trkpt><trkpt lat="37.87318047256041" lon="14.668576891308733"><ele>1323.0</ele><time>2026-04-12T08:08:24Z</time></trkpt><trkpt lat="37.87315974219007" lon="14.668439784168328"><ele>1325.0</ele><time>2026-04-12T08:08:25Z</time></trkpt><trkpt lat="37.87320026276053" lon="14.668314844599813"><ele>1325.2</ele><time>2026-04-12T08:08:26Z</time></trkpt><trkpt lat="37.873273035684285" lon="14.668222962755621"><ele>1325.4</ele><time>2026-04-12T08:08:27Z</time></trkpt><trkpt lat="37.8733766930305" lon="14.66817731304042"><ele>1325.6</ele><time>2026-04-12T08:08:28Z</time></trkpt><trkpt lat="37.87348780598731" lon="14.668162027825096"><ele>1325.8</ele><time>2026-04-12T08:08:29Z</time></trkpt><trkpt lat="37.873601708532746" lon="14.668128130758726"><ele>1326.0</ele><time>2026-04-12T08:08:30Z</time></trkpt><trkpt lat="37.873722721656286" lon="14.668076682191211"><ele>1326.0</ele><time>2026-04-12T08:08:31Z</time></trkpt><trkpt lat="37.87384734803484" lon="14.66803175645687"><ele>1326.0</ele><time>2026-04-12T08:08:32Z</time></trkpt><trkpt lat="37.873979184559495" lon="14.667981872541741"><ele>1326.0</ele><time>2026-04-12T08:08:33Z</time></trkpt><trkpt lat="37.874117093310524" lon="14.667932197408163"><ele>1326.0</ele><time>2026-04-12T08:08:34Z</time></trkpt><trkpt lat="37.87425144989838" lon="14.667885620151857"><ele>1325.75</ele><time>2026-04-12T08:08:35Z</time></trkpt><trkpt lat="37.87437945422562" lon="14.667832881796794"><ele>1325.5</ele><time>2026-04-12T08:08:36Z</time></trkpt><trkpt lat="37.87448775045604" lon="14.667760372059856"><ele>1325.25</ele><time>2026-04-12T08:08:37Z</time></trkpt><trkpt lat="37.87456972083883" lon="14.667656596081343"><ele>1325.0</ele><time>2026-04-12T08:08:38Z</time></trkpt><trkpt lat="37.8746304889255" lon="14.667525202547372"><ele>1325.0</ele><time>2026-04-12T08:08:39Z</time></trkpt><trkpt lat="37.87467582946057" lon="14.667388860569266"><ele>1325.0</ele><time>2026-04-12T08:08:40Z</time></trkpt><trkpt lat="37.874726676743954" lon="14.667244437621513"><ele>1325.0</ele><time>2026-04-12T08:08:41Z</time></trkpt><trkpt lat="37.874786200853826" lon="14.667091955993186"><ele>1325.0</ele><time>2026-04-12T08:08:42Z</time></trkpt><trkpt lat="37.87484530843485" lon="14.666937487570307"><ele>1326.75</ele><time>2026-04-12T08:08:43Z</time></trkpt><trkpt lat="37.874902257902974" lon="14.66677329487097"><ele>1328.5</ele><time>2026-04-12T08:08:44Z</time></trkpt><trkpt lat="37.874964036491804" lon="14.666606037084007"><ele>1330.25</ele><time>2026-04-12T08:08:45Z</time></trkpt><trkpt lat="37.87502100898511" lon="14.666434806271095"><ele>1332.0</ele><time>2026-04-12T08:08:46Z</time></trkpt><trkpt lat="37.875085140108325" lon="14.666266786553438"><ele>1329.6666666666667</ele><time>2026-04-12T08:08:47Z</time></trkpt><trkpt lat="37.87515342313412" lon="14.666095409543908"><ele>1327.3333333333335</ele><time>2026-04-12T08:08:48Z</time></trkpt><trkpt lat="37.875234920446296" lon="14.66592815774045"><ele>1325.0</ele><time>2026-04-12T08:08:49Z</time></trkpt><trkpt lat="37.8753244446742" lon="14.665763267547423"><ele>1325.0</ele><time>2026-04-12T08:08:50Z</time></trkpt><trkpt lat="37.87541895970901" lon="14.66559816018007"><ele>1325.0</ele><time>2026-04-12T08:08:51Z</time></trkpt><trkpt lat="37.875519161493244" lon="14.665435284732018"><ele>1325.0</ele><time>2026-04-12T08:08:52Z</time></trkpt><trkpt lat="37.87561921263204" lon="14.665265406652454"><ele>1329.0</ele><time>2026-04-12T08:08:53Z</time></trkpt><trkpt lat="37.87572106674079" lon="14.665092627205254"><ele>1333.0</ele><time>2026-04-12T08:08:54Z</time></trkpt><trkpt lat="37.875825378486056" lon="14.664916187175175"><ele>1337.0</ele><time>2026-04-12T08:08:55Z</time></trkpt><trkpt lat="37.87592884087279" lon="14.66474003602858"><ele>1334.3333333333335</ele><time>2026-04-12T08:08:56Z</time></trkpt><trkpt lat="37.876028481591874" lon="14.664568053848276"><ele>1331.6666666666667</ele><time>2026-04-12T08:08:57Z</time></trkpt><trkpt lat="37.87612710487873" lon="14.664401285843983"><ele>1329.0</ele><time>2026-04-12T08:08:58Z</time></trkpt><trkpt lat="37.87622166054651" lon="14.664229849177431"><ele>1329.0</ele><time>2026-04-12T08:08:59Z</time></trkpt><trkpt lat="37.876321019932455" lon="14.6640625181955"><ele>1329.0</ele><time>2026-04-12T08:09:00Z</time></trkpt><trkpt lat="37.876428289320366" lon="14.66390085816928"><ele>1329.0</ele><time>2026-04-12T08:09:01Z</time></trkpt><trkpt lat="37.87654625737762" lon="14.663750316890079"><ele>1329.0</ele><time>2026-04-12T08:09:02Z</time></trkpt><trkpt lat="37.87667760696119" lon="14.66361998692349"><ele>1329.0</ele><time>2026-04-12T08:09:03Z</time></trkpt><trkpt lat="37.8768079652601" lon="14.663494668241748"><ele>1329.0</ele><time>2026-04-12T08:09:04Z</time></trkpt><trkpt lat="37.87694166122299" lon="14.663362343885012"><ele>1328.3333333333333</ele><time>2026-04-12T08:09:05Z</time></trkpt><trkpt lat="37.87707256236442" lon="14.663227220795074"><ele>1327.6666666666665</ele><time>2026-04-12T08:09:06Z</time></trkpt><trkpt lat="37.87720294486717" lon="14.663092319762216"><ele>1327.0</ele><time>2026-04-12T08:09:07Z</time></trkpt><trkpt lat="37.87733016711958" lon="14.662953066331827"><ele>1327.0</ele><time>2026-04-12T08:09:08Z</time></trkpt><trkpt lat="37.87745072601135" lon="14.662800529650982"><ele>1327.0</ele><time>2026-04-12T08:09:09Z</time></trkpt><trkpt lat="37.87756552600805" lon="14.662633005715895"><ele>1327.0</ele><time>2026-04-12T08:09:10Z</time></trkpt><trkpt lat="37.877669483858114" lon="14.662453036295554"><ele>1325.3333333333333</ele><time>2026-04-12T08:09:11Z</time></trkpt><trkpt lat="37.87776677841053" lon="14.66226714536536"><ele>1323.6666666666667</ele><time>2026-04-12T08:09:12Z</time></trkpt><trkpt lat="37.87785866481053" lon="14.662086120245455"><ele>1322.0</ele><time>2026-04-12T08:09:13Z</time></trkpt><trkpt lat="37.87794635597538" lon="14.661910005615965"><ele>1324.5</ele><time>2026-04-12T08:09:14Z</time></trkpt><trkpt lat="37.878032248169475" lon="14.66174455913938"><ele>1327.0</ele><time>2026-04-12T08:09:15Z</time></trkpt><trkpt lat="37.87811523151732" lon="14.661592538190488"><ele>1329.5</ele><time>2026-04-12T08:09:16Z</time></trkpt><trkpt lat="37.87821279926303" lon="14.661465281817415"><ele>1332.0</ele><time>2026-04-12T08:09:17Z</time></trkpt><trkpt lat="37.87832782355687" lon="14.661384448936781"><ele>1330.0</ele><time>2026-04-12T08:09:18Z</time></trkpt><trkpt lat="37.87846094321971" lon="14.661348882777519"><ele>1328.0</ele><time>2026-04-12T08:09:19Z</time></trkpt><trkpt lat="37.878600260633924" lon="14.661329582350232"><ele>1326.0</ele><time>2026-04-12T08:09:20Z</time></trkpt><trkpt lat="37.87874448384689" lon="14.661287054145312"><ele>1324.0</ele><time>2026-04-12T08:09:21Z</time></trkpt><trkpt lat="37.87889416302768" lon="14.661238352241869"><ele>1324.0</ele><time>2026-04-12T08:09:22Z</time></trkpt><trkpt lat="37.8790541057688" lon="14.661183817767137"><ele>1324.0</ele><time>2026-04-12T08:09:23Z</time></trkpt><trkpt lat="37.87921274551771" lon="14.661133320574375"><ele>1324.0</ele><time>2026-04-12T08:09:24Z</time></trkpt><trkpt lat="37.87937207624595" lon="14.661082108517238"><ele>1326.0</ele><time>2026-04-12T08:09:25Z</time></trkpt><trkpt lat="37.879524361894134" lon="14.661031115534199"><ele>1328.0</ele><time>2026-04-12T08:09:26Z</time></trkpt><trkpt lat="37.879665889914385" lon="14.660971101329693"><ele>1330.0</ele><time>2026-04-12T08:09:27Z</time></trkpt><trkpt lat="37.8797893062917" lon="14.66088208261111"><ele>1332.0</ele><time>2026-04-12T08:09:28Z</time></trkpt><trkpt lat="37.879894393876654" lon="14.660755825774645"><ele>1332.0</ele><time>2026-04-12T08:09:29Z</time></trkpt><trkpt lat="37.87998721140096" lon="14.660614787506566"><ele>1332.0</ele><time>2026-04-12T08:09:30Z</time></trkpt><trkpt lat="37.88008703383083" lon="14.660478272408765"><ele>1332.0</ele><time>2026-04-12T08:09:31Z</time></trkpt><trkpt lat="37.8801915500055" lon="14.660354623865592"><ele>1332.0</ele><time>2026-04-12T08:09:32Z</time></trkpt><trkpt lat="37.88031124880708" lon="14.660244962509726"><ele>1331.3333333333333</ele><time>2026-04-12T08:09:33Z</time></trkpt><trkpt lat="37.88044579543589" lon="14.660157605915447"><ele>1330.6666666666665</ele><time>2026-04-12T08:09:34Z</time></trkpt><trkpt lat="37.88058306168644" lon="14.660081232406744"><ele>1330.0</ele><time>2026-04-12T08:09:35Z</time></trkpt><trkpt lat="37.880726089374335" lon="14.659999795360081"><ele>1330.0</ele><time>2026-04-12T08:09:36Z</time></trkpt><trkpt lat="37.880864559550844" lon="14.65991902279935"><ele>1330.0</ele><time>2026-04-12T08:09:37Z</time></trkpt><trkpt lat="37.88099245521376" lon="14.659847488094217"><ele>1330.0</ele><time>2026-04-12T08:09:38Z</time></trkpt><trkpt lat="37.88111682906191" lon="14.65977971623141"><ele>1330.0</ele><time>2026-04-12T08:09:39Z</time></trkpt><trkpt lat="37.88124327799508" lon="14.659771700441702"><ele>1329.75</ele><time>2026-04-12T08:09:40Z</time></trkpt><trkpt lat="37.88135798555979" lon="14.659821335799817"><ele>1329.5</ele><time>2026-04-12T08:09:41Z</time></trkpt><trkpt lat="37.88145979483344" lon="14.659891106455884"><ele>1329.25</ele><time>2026-04-12T08:09:42Z</time></trkpt><trkpt lat="37.88157965235783" lon="14.659935599528898"><ele>1329.0</ele><time>2026-04-12T08:09:43Z</time></trkpt><trkpt lat="37.88170652390578" lon="14.659973939769088"><ele>1330.0</ele><time>2026-04-12T08:09:44Z</time></trkpt><trkpt lat="37.88182648789877" lon="14.6600214186132"><ele>1331.0</ele><time>2026-04-12T08:09:45Z</time></trkpt><trkpt lat="37.8819536108256" lon="14.660072265972577"><ele>1332.0</ele><time>2026-04-12T08:09:46Z</time></trkpt><trkpt lat="37.88209179623365" lon="14.660101904937699"><ele>1333.0</ele><time>2026-04-12T08:09:47Z</time></trkpt><trkpt lat="37.88223043773699" lon="14.660100723820516"><ele>1333.0</ele><time>2026-04-12T08:09:48Z</time></trkpt><trkpt lat="37.8823690556539" lon="14.66006979269819"><ele>1333.0</ele><time>2026-04-12T08:09:49Z</time></trkpt><trkpt lat="37.88250549599003" lon="14.660023698149159"><ele>1333.0</ele><time>2026-04-12T08:09:50Z</time></trkpt><trkpt lat="37.882643806823786" lon="14.65997588825892"><ele>1333.0</ele><time>2026-04-12T08:09:51Z</time></trkpt><trkpt lat="37.882790719893535" lon="14.65994956545724"><ele>1333.0</ele><time>2026-04-12T08:09:52Z</time></trkpt><trkpt lat="37.882940525187394" lon="14.659965537143215"><ele>1333.0</ele><time>2026-04-12T08:09:53Z</time></trkpt><trkpt lat="37.883089155600494" lon="14.660023820913459"><ele>1333.0</ele><time>2026-04-12T08:09:54Z</time></trkpt><trkpt lat="37.88322035640553" lon="14.660116721309487"><ele>1333.0</ele><time>2026-04-12T08:09:55Z</time></trkpt><trkpt lat="37.88333844936852" lon="14.660228007605761"><ele>1333.0</ele><time>2026-04-12T08:09:56Z</time></trkpt><trkpt lat="37.88345742772726" lon="14.660296814727724"><ele>1333.0</ele><time>2026-04-12T08:09:57Z</time></trkpt><trkpt lat="37.8835829042435" lon="14.660317781823323"><ele>1333.0</ele><time>2026-04-12T08:09:58Z</time></trkpt><trkpt lat="37.8837123907634" lon="14.660287232164587"><ele>1332.0</ele><time>2026-04-12T08:09:59Z</time></trkpt><trkpt lat="37.883836856934956" lon="14.660222409322822"><ele>1331.0</ele><time>2026-04-12T08:10:00Z</time></trkpt><trkpt lat="37.883952520527295" lon="14.66011798968088"><ele>1330.0</ele><time>2026-04-12T08:10:01Z</time></trkpt><trkpt lat="37.88404898018014" lon="14.65997396081506"><ele>1329.0</ele><time>2026-04-12T08:10:02Z</time></trkpt><trkpt lat="37.88413266350439" lon="14.659810839185639"><ele>1329.0</ele><time>2026-04-12T08:10:03Z</time></trkpt><trkpt lat="37.88421852072882" lon="14.659649722957816"><ele>1329.0</ele><time>2026-04-12T08:10:04Z</time></trkpt><trkpt lat="37.88429436841164" lon="14.65948542386903"><ele>1329.0</ele><time>2026-04-12T08:10:05Z</time></trkpt><trkpt lat="37.884370855610726" lon="14.659327097727235"><ele>1326.25</ele><time>2026-04-12T08:10:06Z</time></trkpt><trkpt lat="37.88444285538642" lon="14.65918212532052"><ele>1323.5</ele><time>2026-04-12T08:10:07Z</time></trkpt><trkpt lat="37.88450472173695" lon="14.659040866041739"><ele>1320.75</ele><time>2026-04-12T08:10:08Z</time></trkpt><trkpt lat="37.88454017382169" lon="14.658891520156754"><ele>1318.0</ele><time>2026-04-12T08:10:09Z</time></trkpt><trkpt lat="37.884525751521856" lon="14.65873864652421"><ele>1317.5</ele><time>2026-04-12T08:10:10Z</time></trkpt><trkpt lat="37.884468852437166" lon="14.658595063869685"><ele>1317.0</ele><time>2026-04-12T08:10:11Z</time></trkpt><trkpt lat="37.88442576782899" lon="14.658441859660234"><ele>1316.5</ele><time>2026-04-12T08:10:12Z</time></trkpt><trkpt lat="37.88437191905997" lon="14.658292235690574"><ele>1316.0</ele><time>2026-04-12T08:10:13Z</time></trkpt><trkpt lat="37.884386676543336" lon="14.658118963580064"><ele>1316.0</ele><time>2026-04-12T08:10:14Z</time></trkpt><trkpt lat="37.88440023033486" lon="14.657943257159658"><ele>1316.0</ele><time>2026-04-12T08:10:15Z</time></trkpt><trkpt lat="37.88442173953098" lon="14.657766333584501"><ele>1316.0</ele><time>2026-04-12T08:10:16Z</time></trkpt><trkpt lat="37.884437091646404" lon="14.657582517584276"><ele>1316.0</ele><time>2026-04-12T08:10:17Z</time></trkpt><trkpt lat="37.88445456811277" lon="14.657392482909772"><ele>1317.0</ele><time>2026-04-12T08:10:18Z</time></trkpt><trkpt lat="37.88447142475201" lon="14.65721473094525"><ele>1318.0</ele><time>2026-04-12T08:10:19Z</time></trkpt><trkpt lat="37.8844865461337" lon="14.657041050645672"><ele>1319.0</ele><time>2026-04-12T08:10:20Z</time></trkpt><trkpt lat="37.88450264603858" lon="14.656873868470324"><ele>1320.0</ele><time>2026-04-12T08:10:21Z</time></trkpt><trkpt lat="37.88453337537098" lon="14.656722744504618"><ele>1322.6</ele><time>2026-04-12T08:10:22Z</time></trkpt><trkpt lat="37.88458424286648" lon="14.656587325985571"><ele>1325.2</ele><time>2026-04-12T08:10:23Z</time></trkpt><trkpt lat="37.88466116116877" lon="14.656493304987489"><ele>1327.8000000000002</ele><time>2026-04-12T08:10:24Z</time></trkpt><trkpt lat="37.88475765613955" lon="14.656464559924418"><ele>1330.4</ele><time>2026-04-12T08:10:25Z</time></trkpt><trkpt lat="37.884854131961916" lon="14.656505325919651"><ele>1333.0</ele><time>2026-04-12T08:10:26Z</time></trkpt><trkpt lat="37.88493237721972" lon="14.656565685436762"><ele>1333.0</ele><time>2026-04-12T08:10:27Z</time></trkpt><trkpt lat="37.88502213537579" lon="14.65661601471579"><ele>1333.0</ele><time>2026-04-12T08:10:28Z</time></trkpt><trkpt lat="37.88511926316153" lon="14.656656443874576"><ele>1333.0</ele><time>2026-04-12T08:10:29Z</time></trkpt><trkpt lat="37.88521867332836" lon="14.65670541061904"><ele>1333.0</ele><time>2026-04-12T08:10:30Z</time></trkpt><trkpt lat="37.88532375239718" lon="14.656740713991628"><ele>1333.0</ele><time>2026-04-12T08:10:31Z</time></trkpt><trkpt lat="37.88543676469611" lon="14.65674435224004"><ele>1332.0</ele><time>2026-04-12T08:10:32Z</time></trkpt><trkpt lat="37.885552562709535" lon="14.656699910898993"><ele>1331.0</ele><time>2026-04-12T08:10:33Z</time></trkpt><trkpt lat="37.885664919424194" lon="14.656626361752384"><ele>1330.0</ele><time>2026-04-12T08:10:34Z</time></trkpt><trkpt lat="37.88578588832153" lon="14.6565609292052"><ele>1329.0</ele><time>2026-04-12T08:10:35Z</time></trkpt><trkpt lat="37.885914951261604" lon="14.656497489139035"><ele>1326.75</ele><time>2026-04-12T08:10:36Z</time></trkpt><trkpt lat="37.88604861072618" lon="14.656431498755055"><ele>1324.5</ele><time>2026-04-12T08:10:37Z</time></trkpt><trkpt lat="37.88618519537716" lon="14.656354383743498"><ele>1322.25</ele><time>2026-04-12T08:10:38Z</time></trkpt><trkpt lat="37.88631420367287" lon="14.656286750814814"><ele>1320.0</ele><time>2026-04-12T08:10:39Z</time></trkpt><trkpt lat="37.8864361028562" lon="14.656220357853433"><ele>1320.0</ele><time>2026-04-12T08:10:40Z</time></trkpt><trkpt lat="37.88655824565309" lon="14.656140620834925"><ele>1320.0</ele><time>2026-04-12T08:10:41Z</time></trkpt><trkpt lat="37.88666307215166" lon="14.656037567179412"><ele>1320.0</ele><time>2026-04-12T08:10:42Z</time></trkpt><trkpt lat="37.886740273725636" lon="14.655886948166705"><ele>1320.0</ele><time>2026-04-12T08:10:43Z</time></trkpt><trkpt lat="37.88679280463668" lon="14.655720193612218"><ele>1318.25</ele><time>2026-04-12T08:10:44Z</time></trkpt><trkpt lat="37.88685501641703" lon="14.655554839839404"><ele>1316.5</ele><time>2026-04-12T08:10:45Z</time></trkpt><trkpt lat="37.88694771716661" lon="14.6554101269737"><ele>1314.75</ele><time>2026-04-12T08:10:46Z</time></trkpt><trkpt lat="37.88705821713187" lon="14.655284616815594"><ele>1313.0</ele><time>2026-04-12T08:10:47Z</time></trkpt><trkpt lat="37.88717830682252" lon="14.65517336232111"><ele>1320.6666666666667</ele><time>2026-04-12T08:10:48Z</time></trkpt><trkpt lat="37.887304975775535" lon="14.655054738951158"><ele>1328.3333333333333</ele><time>2026-04-12T08:10:49Z</time></trkpt><trkpt lat="37.88743070237397" lon="14.654934809772772"><ele>1336.0</ele><time>2026-04-12T08:10:50Z</time></trkpt><trkpt lat="37.887556893456306" lon="14.654812815028007"><ele>1336.0</ele><time>2026-04-12T08:10:51Z</time></trkpt><trkpt lat="37.887689842951715" lon="14.654681158294927"><ele>1336.0</ele><time>2026-04-12T08:10:52Z</time></trkpt><trkpt lat="37.887820335176386" lon="14.654557560572309"><ele>1336.0</ele><time>2026-04-12T08:10:53Z</time></trkpt><trkpt lat="37.88794567180421" lon="14.654430881353116"><ele>1336.0</ele><time>2026-04-12T08:10:54Z</time></trkpt><trkpt lat="37.88806630358996" lon="14.654302169988958"><ele>1336.0</ele><time>2026-04-12T08:10:55Z</time></trkpt><trkpt lat="37.888184244972535" lon="14.654182856774835"><ele>1336.0</ele><time>2026-04-12T08:10:56Z</time></trkpt><trkpt lat="37.88829642904889" lon="14.654073062737176"><ele>1336.0</ele><time>2026-04-12T08:10:57Z</time></trkpt><trkpt lat="37.88840394116631" lon="14.653970211318907"><ele>1336.0</ele><time>2026-04-12T08:10:58Z</time></trkpt><trkpt lat="37.88851214611545" lon="14.653887784438721"><ele>1336.0</ele><time>2026-04-12T08:10:59Z</time></trkpt><trkpt lat="37.88863034232069" lon="14.65384232826973"><ele>1336.0</ele><time>2026-04-12T08:11:00Z</time></trkpt><trkpt lat="37.88875442866372" lon="14.65386509199746"><ele>1332.5</ele><time>2026-04-12T08:11:01Z</time></trkpt><trkpt lat="37.888868736305" lon="14.653915098294656"><ele>1329.0</ele><time>2026-04-12T08:11:02Z</time></trkpt><trkpt lat="37.8889921823445" lon="14.653906939053272"><ele>1325.5</ele><time>2026-04-12T08:11:03Z</time></trkpt><trkpt lat="37.88911649062661" lon="14.65384804113544"><ele>1322.0</ele><time>2026-04-12T08:11:04Z</time></trkpt><trkpt lat="37.88922277416188" lon="14.65373666812091"><ele>1323.5</ele><time>2026-04-12T08:11:05Z</time></trkpt><trkpt lat="37.88929567809856" lon="14.653581073598234"><ele>1325.0</ele><time>2026-04-12T08:11:06Z</time></trkpt><trkpt lat="37.88934624628284" lon="14.653410588900973"><ele>1326.5</ele><time>2026-04-12T08:11:07Z</time></trkpt><trkpt lat="37.889383964605074" lon="14.65323121318094"><ele>1328.0</ele><time>2026-04-12T08:11:08Z</time></trkpt><trkpt lat="37.88942895730069" lon="14.653052486451424"><ele>1328.0</ele><time>2026-04-12T08:11:09Z</time></trkpt><trkpt lat="37.889481447731214" lon="14.652872777230828"><ele>1328.0</ele><time>2026-04-12T08:11:10Z</time></trkpt><trkpt lat="37.88954409616609" lon="14.652696039006017"><ele>1328.0</ele><time>2026-04-12T08:11:11Z</time></trkpt><trkpt lat="37.889617090899236" lon="14.65252477507264"><ele>1331.6666666666667</ele><time>2026-04-12T08:11:12Z</time></trkpt><trkpt lat="37.889700649586125" lon="14.65235438942618"><ele>1335.3333333333333</ele><time>2026-04-12T08:11:13Z</time></trkpt><trkpt lat="37.88979620366672" lon="14.652191680446489"><ele>1339.0</ele><time>2026-04-12T08:11:14Z</time></trkpt><trkpt lat="37.88989487446399" lon="14.652039227651011"><ele>1341.0</ele><time>2026-04-12T08:11:15Z</time></trkpt><trkpt lat="37.88997323251072" lon="14.651875852559511"><ele>1343.0</ele><time>2026-04-12T08:11:16Z</time></trkpt><trkpt lat="37.89003424550198" lon="14.651704222107764"><ele>1345.0</ele><time>2026-04-12T08:11:17Z</time></trkpt><trkpt lat="37.89008084637525" lon="14.651526631621547"><ele>1347.0</ele><time>2026-04-12T08:11:18Z</time></trkpt><trkpt lat="37.8901181664072" lon="14.651347664235459"><ele>1344.5</ele><time>2026-04-12T08:11:19Z</time></trkpt><trkpt lat="37.89015724249033" lon="14.651174933138053"><ele>1342.0</ele><time>2026-04-12T08:11:20Z</time></trkpt><trkpt lat="37.89020150013194" lon="14.651009644860181"><ele>1339.5</ele><time>2026-04-12T08:11:21Z</time></trkpt><trkpt lat="37.89025494480293" lon="14.650863266489699"><ele>1337.0</ele><time>2026-04-12T08:11:22Z</time></trkpt><trkpt lat="37.89031231988608" lon="14.650731143447066"><ele>1337.0</ele><time>2026-04-12T08:11:23Z</time></trkpt><trkpt lat="37.89039158237232" lon="14.650619982114769"><ele>1337.0</ele><time>2026-04-12T08:11:24Z</time></trkpt><trkpt lat="37.89050379957944" lon="14.650549960456667"><ele>1337.0</ele><time>2026-04-12T08:11:25Z</time></trkpt><trkpt lat="37.890615111617755" lon="14.650497976245482"><ele>1337.0</ele><time>2026-04-12T08:11:26Z</time></trkpt><trkpt lat="37.890726860323674" lon="14.650432284068476"><ele>1337.0</ele><time>2026-04-12T08:11:27Z</time></trkpt><trkpt lat="37.890821385896686" lon="14.650349177759454"><ele>1337.0</ele><time>2026-04-12T08:11:28Z</time></trkpt><trkpt lat="37.89089659368714" lon="14.650241606615898"><ele>1337.0</ele><time>2026-04-12T08:11:29Z</time></trkpt><trkpt lat="37.89094518582282" lon="14.650099084371025"><ele>1337.0</ele><time>2026-04-12T08:11:30Z</time></trkpt><trkpt lat="37.89098329290796" lon="14.649936493454382"><ele>1338.75</ele><time>2026-04-12T08:11:31Z</time></trkpt><trkpt lat="37.891036897951345" lon="14.64977269542276"><ele>1340.5</ele><time>2026-04-12T08:11:32Z</time></trkpt><trkpt lat="37.89110757019809" lon="14.649626361273226"><ele>1342.25</ele><time>2026-04-12T08:11:33Z</time></trkpt><trkpt lat="37.89114644162097" lon="14.64946781327593"><ele>1344.0</ele><time>2026-04-12T08:11:34Z</time></trkpt><trkpt lat="37.891137504357786" lon="14.64931663254341"><ele>1345.0</ele><time>2026-04-12T08:11:35Z</time></trkpt><trkpt lat="37.891157374133115" lon="14.64918780430064"><ele>1346.0</ele><time>2026-04-12T08:11:36Z</time></trkpt><trkpt lat="37.89115875210416" lon="14.649076896915583"><ele>1347.0</ele><time>2026-04-12T08:11:37Z</time></trkpt><trkpt lat="37.89121444707188" lon="14.64899238134201"><ele>1348.0</ele><time>2026-04-12T08:11:38Z</time></trkpt><trkpt lat="37.89129364328149" lon="14.648960174940168"><ele>1349.0</ele><time>2026-04-12T08:11:39Z</time></trkpt><trkpt lat="37.89137011505313" lon="14.64894953426452"><ele>1350.0</ele><time>2026-04-12T08:11:40Z</time></trkpt><trkpt lat="37.89145692984382" lon="14.64893671723852"><ele>1350.0</ele><time>2026-04-12T08:11:41Z</time></trkpt><trkpt lat="37.891548485848105" lon="14.64892109479545"><ele>1350.0</ele><time>2026-04-12T08:11:42Z</time></trkpt><trkpt lat="37.89164509614664" lon="14.648934346599491"><ele>1350.0</ele><time>2026-04-12T08:11:43Z</time></trkpt><trkpt lat="37.891726805495594" lon="14.649006697675082"><ele>1350.0</ele><time>2026-04-12T08:11:44Z</time></trkpt><trkpt lat="37.89177058633429" lon="14.649120519388594"><ele>1350.0</ele><time>2026-04-12T08:11:45Z</time></trkpt><trkpt lat="37.891780183326105" lon="14.649241375830883"><ele>1353.8</ele><time>2026-04-12T08:11:46Z</time></trkpt><trkpt lat="37.89177477169898" lon="14.649368037400675"><ele>1357.6</ele><time>2026-04-12T08:11:47Z</time></trkpt><trkpt lat="37.89177871370172" lon="14.649498958162606"><ele>1361.4</ele><time>2026-04-12T08:11:48Z</time></trkpt><trkpt lat="37.89181118315475" lon="14.64963278270969"><ele>1365.2</ele><time>2026-04-12T08:11:49Z</time></trkpt><trkpt lat="37.89187033645185" lon="14.649761280378968"><ele>1369.0</ele><time>2026-04-12T08:11:50Z</time></trkpt><trkpt lat="37.89193316754815" lon="14.649873004658039"><ele>1369.0</ele><time>2026-04-12T08:11:51Z</time></trkpt><trkpt lat="37.89202689303606" lon="14.650001507992407"><ele>1369.0</ele><time>2026-04-12T08:11:52Z</time></trkpt><trkpt lat="37.892112057459585" lon="14.65012802861509"><ele>1369.0</ele><time>2026-04-12T08:11:53Z</time></trkpt><trkpt lat="37.892197024837586" lon="14.650247927423036"><ele>1369.0</ele><time>2026-04-12T08:11:54Z</time></trkpt><trkpt lat="37.892267750994094" lon="14.650383220032019"><ele>1366.5</ele><time>2026-04-12T08:11:55Z</time></trkpt><trkpt lat="37.89232686645549" lon="14.650525882892925"><ele>1364.0</ele><time>2026-04-12T08:11:56Z</time></trkpt><trkpt lat="37.89237067383975" lon="14.650663477540393"><ele>1361.5</ele><time>2026-04-12T08:11:57Z</time></trkpt><trkpt lat="37.89243118748331" lon="14.650798238573453"><ele>1359.0</ele><time>2026-04-12T08:11:58Z</time></trkpt><trkpt lat="37.892532974181535" lon="14.650894126259573"><ele>1365.25</ele><time>2026-04-12T08:11:59Z</time></trkpt><trkpt lat="37.89265712384619" lon="14.650937437599817"><ele>1371.5</ele><time>2026-04-12T08:12:00Z</time></trkpt><trkpt lat="37.892770804912836" lon="14.650975509342082"><ele>1377.75</ele><time>2026-04-12T08:12:01Z</time></trkpt><trkpt lat="37.89288156487699" lon="14.651039886142463"><ele>1384.0</ele><time>2026-04-12T08:12:02Z</time></trkpt><trkpt lat="37.89299970253209" lon="14.651082469941857"><ele>1384.0</ele><time>2026-04-12T08:12:03Z</time></trkpt><trkpt lat="37.893125165534585" lon="14.651103528096964"><ele>1384.0</ele><time>2026-04-12T08:12:04Z</time></trkpt><trkpt lat="37.8932504347795" lon="14.651128384752258"><ele>1384.0</ele><time>2026-04-12T08:12:05Z</time></trkpt><trkpt lat="37.89336478626375" lon="14.651194073082413"><ele>1384.0</ele><time>2026-04-12T08:12:06Z</time></trkpt><trkpt lat="37.893468951608675" lon="14.651278278957006"><ele>1383.2</ele><time>2026-04-12T08:12:07Z</time></trkpt><trkpt lat="37.89358320600136" lon="14.651335327190642"><ele>1382.4</ele><time>2026-04-12T08:12:08Z</time></trkpt><trkpt lat="37.89370067508926" lon="14.65134755627447"><ele>1381.6</ele><time>2026-04-12T08:12:09Z</time></trkpt><trkpt lat="37.8938020412703" lon="14.65135740734647"><ele>1380.8</ele><time>2026-04-12T08:12:10Z</time></trkpt><trkpt lat="37.893879293923526" lon="14.651391353066456"><ele>1380.0</ele><time>2026-04-12T08:12:11Z</time></trkpt><trkpt lat="37.89393175356538" lon="14.651464716456205"><ele>1380.0</ele><time>2026-04-12T08:12:12Z</time></trkpt><trkpt lat="37.893952445600995" lon="14.65156146924798"><ele>1380.0</ele><time>2026-04-12T08:12:13Z</time></trkpt><trkpt lat="37.89391893148709" lon="14.651683667378686"><ele>1380.0</ele><time>2026-04-12T08:12:14Z</time></trkpt><trkpt lat="37.89389012054553" lon="14.651787508743357"><ele>1380.0</ele><time>2026-04-12T08:12:15Z</time></trkpt><trkpt lat="37.893832158723505" lon="14.651885325031474"><ele>1380.0</ele><time>2026-04-12T08:12:16Z</time></trkpt><trkpt lat="37.8937410433317" lon="14.651940973728847"><ele>1379.8</ele><time>2026-04-12T08:12:17Z</time></trkpt><trkpt lat="37.89363918506244" lon="14.65196731794855"><ele>1379.6</ele><time>2026-04-12T08:12:18Z</time></trkpt><trkpt lat="37.89353422236817" lon="14.65203183293604"><ele>1379.4</ele><time>2026-04-12T08:12:19Z</time></trkpt><trkpt lat="37.893455850635284" lon="14.652134392267431"><ele>1379.2</ele><time>2026-04-12T08:12:20Z</time></trkpt><trkpt lat="37.89341460992587" lon="14.652257956067299"><ele>1379.0</ele><time>2026-04-12T08:12:21Z</time></trkpt><trkpt lat="37.89341141300059" lon="14.65240039399101"><ele>1379.0</ele><time>2026-04-12T08:12:22Z</time></trkpt><trkpt lat="37.893377688999" lon="14.652516969602258"><ele>1379.0</ele><time>2026-04-12T08:12:23Z</time></trkpt><trkpt lat="37.89329034995636" lon="14.652570099993321"><ele>1379.0</ele><time>2026-04-12T08:12:24Z</time></trkpt><trkpt lat="37.89317688838838" lon="14.652584714135326"><ele>1379.0</ele><time>2026-04-12T08:12:25Z</time></trkpt><trkpt lat="37.893063794247965" lon="14.652584764587413"><ele>1379.0</ele><time>2026-04-12T08:12:26Z</time></trkpt><trkpt lat="37.892953442884696" lon="14.652570599349644"><ele>1379.0</ele><time>2026-04-12T08:12:27Z</time></trkpt><trkpt lat="37.892829753476626" lon="14.652567862700966"><ele>1379.0</ele><time>2026-04-12T08:12:28Z</time></trkpt><trkpt lat="37.89270410682981" lon="14.652586102464868"><ele>1379.0</ele><time>2026-04-12T08:12:29Z</time></trkpt><trkpt lat="37.89258610087697" lon="14.652627346009034"><ele>1379.0</ele><time>2026-04-12T08:12:30Z</time></trkpt><trkpt lat="37.89248412122579" lon="14.652710460279984"><ele>1381.25</ele><time>2026-04-12T08:12:31Z</time></trkpt><trkpt lat="37.892382510237105" lon="14.652838105342116"><ele>1383.5</ele><time>2026-04-12T08:12:32Z</time></trkpt><trkpt lat="37.89229479326517" lon="14.652956654200187"><ele>1385.75</ele><time>2026-04-12T08:12:33Z</time></trkpt><trkpt lat="37.8922160538897" lon="14.653059660155668"><ele>1388.0</ele><time>2026-04-12T08:12:34Z</time></trkpt><trkpt lat="37.892144186975194" lon="14.653137011501052"><ele>1388.0</ele><time>2026-04-12T08:12:35Z</time></trkpt><trkpt lat="37.89209753735977" lon="14.653212954772295"><ele>1388.0</ele><time>2026-04-12T08:12:36Z</time></trkpt><trkpt lat="37.892160768897604" lon="14.653351914191388"><ele>1388.0</ele><time>2026-04-12T08:12:38Z</time></trkpt><trkpt lat="37.892221158086066" lon="14.65340361310267"><ele>1388.0</ele><time>2026-04-12T08:12:39Z</time></trkpt><trkpt lat="37.892320771350285" lon="14.653386712865576"><ele>1388.0</ele><time>2026-04-12T08:12:40Z</time></trkpt><trkpt lat="37.89239718842476" lon="14.653275759966503"><ele>1388.0</ele><time>2026-04-12T08:12:41Z</time></trkpt><trkpt lat="37.892471874772305" lon="14.65318334262688"><ele>1388.0</ele><time>2026-04-12T08:12:42Z</time></trkpt><trkpt lat="37.89254870090215" lon="14.653080136227942"><ele>1388.0</ele><time>2026-04-12T08:12:43Z</time></trkpt><trkpt lat="37.89263057033214" lon="14.652986334638117"><ele>1388.0</ele><time>2026-04-12T08:12:44Z</time></trkpt><trkpt lat="37.89273566145279" lon="14.652931346623971"><ele>1388.0</ele><time>2026-04-12T08:12:45Z</time></trkpt><trkpt lat="37.892851456780235" lon="14.652971685448296"><ele>1391.0</ele><time>2026-04-12T08:12:46Z</time></trkpt><trkpt lat="37.892944945442174" lon="14.653027949722192"><ele>1394.0</ele><time>2026-04-12T08:12:47Z</time></trkpt><trkpt lat="37.893045514712085" lon="14.653098082332347"><ele>1397.0</ele><time>2026-04-12T08:12:48Z</time></trkpt><trkpt lat="37.89315985339088" lon="14.653167174968688"><ele>1400.0</ele><time>2026-04-12T08:12:49Z</time></trkpt><trkpt lat="37.893273885834674" lon="14.653233044028259"><ele>1400.0</ele><time>2026-04-12T08:12:50Z</time></trkpt><trkpt lat="37.893382827505" lon="14.653295052291597"><ele>1400.0</ele><time>2026-04-12T08:12:51Z</time></trkpt><trkpt lat="37.89349430259071" lon="14.653336392433756"><ele>1400.0</ele><time>2026-04-12T08:12:52Z</time></trkpt><trkpt lat="37.89360500966178" lon="14.653325671335624"><ele>1400.0</ele><time>2026-04-12T08:12:53Z</time></trkpt><trkpt lat="37.893711623886134" lon="14.653221166194863"><ele>1402.0</ele><time>2026-04-12T08:12:54Z</time></trkpt><trkpt lat="37.8938176610122" lon="14.653129118928014"><ele>1404.0</ele><time>2026-04-12T08:12:55Z</time></trkpt><trkpt lat="37.89390062385306" lon="14.653032460699439"><ele>1406.0</ele><time>2026-04-12T08:12:56Z</time></trkpt><trkpt lat="37.894027211586476" lon="14.652983467409463"><ele>1408.0</ele><time>2026-04-12T08:12:57Z</time></trkpt><trkpt lat="37.894163442345274" lon="14.652948171368774"><ele>1409.75</ele><time>2026-04-12T08:12:58Z</time></trkpt><trkpt lat="37.89430558424928" lon="14.652906069847102"><ele>1411.5</ele><time>2026-04-12T08:12:59Z</time></trkpt><trkpt lat="37.89445071458634" lon="14.652880068234564"><ele>1413.25</ele><time>2026-04-12T08:13:00Z</time></trkpt><trkpt lat="37.89458542200039" lon="14.65288246998986"><ele>1415.0</ele><time>2026-04-12T08:13:01Z</time></trkpt><trkpt lat="37.89471856085092" lon="14.65294589502307"><ele>1415.0</ele><time>2026-04-12T08:13:02Z</time></trkpt><trkpt lat="37.89483282360516" lon="14.653037064867686"><ele>1415.0</ele><time>2026-04-12T08:13:03Z</time></trkpt><trkpt lat="37.89494458752192" lon="14.65311157112927"><ele>1415.0</ele><time>2026-04-12T08:13:04Z</time></trkpt><trkpt lat="37.89508947092308" lon="14.653109712699163"><ele>1415.0</ele><time>2026-04-12T08:13:05Z</time></trkpt><trkpt lat="37.89523304337512" lon="14.653065267152096"><ele>1417.6666666666667</ele><time>2026-04-12T08:13:06Z</time></trkpt><trkpt lat="37.89538105060123" lon="14.653013814421831"><ele>1420.3333333333333</ele><time>2026-04-12T08:13:07Z</time></trkpt><trkpt lat="37.895534759682725" lon="14.652997721028939"><ele>1423.0</ele><time>2026-04-12T08:13:08Z</time></trkpt><trkpt lat="37.89567544264602" lon="14.653027004371067"><ele>1423.0</ele><time>2026-04-12T08:13:09Z</time></trkpt><trkpt lat="37.895818076077845" lon="14.653080754706176"><ele>1423.0</ele><time>2026-04-12T08:13:10Z</time></trkpt><trkpt lat="37.895955938345104" lon="14.653102282310371"><ele>1423.0</ele><time>2026-04-12T08:13:11Z</time></trkpt><trkpt lat="37.896089347931564" lon="14.653054718758602"><ele>1423.0</ele><time>2026-04-12T08:13:12Z</time></trkpt><trkpt lat="37.89620571243604" lon="14.652950526259787"><ele>1420.75</ele><time>2026-04-12T08:13:13Z</time></trkpt><trkpt lat="37.896317625406276" lon="14.652829597814058"><ele>1418.5</ele><time>2026-04-12T08:13:14Z</time></trkpt><trkpt lat="37.89641088921211" lon="14.652713871510318"><ele>1416.25</ele><time>2026-04-12T08:13:15Z</time></trkpt><trkpt lat="37.896492502288275" lon="14.652616011288782"><ele>1414.0</ele><time>2026-04-12T08:13:16Z</time></trkpt><trkpt lat="37.89655990538705" lon="14.652528139568865"><ele>1414.0</ele><time>2026-04-12T08:13:17Z</time></trkpt><trkpt lat="37.89665038040664" lon="14.652529826321759"><ele>1414.0</ele><time>2026-04-12T08:13:18Z</time></trkpt><trkpt lat="37.89670541810775" lon="14.65258720058799"><ele>1414.0</ele><time>2026-04-12T08:13:19Z</time></trkpt><trkpt lat="37.89672214576465" lon="14.652737477327374"><ele>1414.0</ele><time>2026-04-12T08:13:21Z</time></trkpt><trkpt lat="37.896681033370854" lon="14.65281798315195"><ele>1414.0</ele><time>2026-04-12T08:13:22Z</time></trkpt><trkpt lat="37.89662156710347" lon="14.652885567578647"><ele>1414.0</ele><time>2026-04-12T08:13:23Z</time></trkpt><trkpt lat="37.89654302220442" lon="14.652949280272496"><ele>1419.25</ele><time>2026-04-12T08:13:24Z</time></trkpt><trkpt lat="37.89644601278244" lon="14.653008180357046"><ele>1424.5</ele><time>2026-04-12T08:13:25Z</time></trkpt><trkpt lat="37.896344772676095" lon="14.653085541308142"><ele>1429.75</ele><time>2026-04-12T08:13:26Z</time></trkpt><trkpt lat="37.89623663038444" lon="14.653163370110422"><ele>1435.0</ele><time>2026-04-12T08:13:27Z</time></trkpt><trkpt lat="37.89611196038498" lon="14.653247005809583"><ele>1435.0</ele><time>2026-04-12T08:13:28Z</time></trkpt><trkpt lat="37.8959830909416" lon="14.653322765937439"><ele>1435.0</ele><time>2026-04-12T08:13:29Z</time></trkpt><trkpt lat="37.89584609513379" lon="14.653398923661914"><ele>1435.0</ele><time>2026-04-12T08:13:30Z</time></trkpt><trkpt lat="37.895710531892284" lon="14.653477258919965"><ele>1435.0</ele><time>2026-04-12T08:13:31Z</time></trkpt><trkpt lat="37.895573562608874" lon="14.653551593016138"><ele>1440.3333333333333</ele><time>2026-04-12T08:13:32Z</time></trkpt><trkpt lat="37.89543555995475" lon="14.653642093326358"><ele>1445.6666666666667</ele><time>2026-04-12T08:13:33Z</time></trkpt><trkpt lat="37.895315111889424" lon="14.653751097468259"><ele>1451.0</ele><time>2026-04-12T08:13:34Z</time></trkpt><trkpt lat="37.895223660357644" lon="14.653908120767973"><ele>1451.0</ele><time>2026-04-12T08:13:35Z</time></trkpt><trkpt lat="37.895149402231084" lon="14.654089983888943"><ele>1451.0</ele><time>2026-04-12T08:13:36Z</time></trkpt><trkpt lat="37.895057528240194" lon="14.65422219820482"><ele>1451.0</ele><time>2026-04-12T08:13:37Z</time></trkpt><trkpt lat="37.89496137408213" lon="14.654338895415744"><ele>1451.0</ele><time>2026-04-12T08:13:38Z</time></trkpt><trkpt lat="37.89485303830413" lon="14.654407781674054"><ele>1453.0</ele><time>2026-04-12T08:13:39Z</time></trkpt><trkpt lat="37.89472768362976" lon="14.65442520632086"><ele>1455.0</ele><time>2026-04-12T08:13:40Z</time></trkpt><trkpt lat="37.89462286550698" lon="14.654447281771283"><ele>1457.0</ele><time>2026-04-12T08:13:41Z</time></trkpt><trkpt lat="37.89446741883323" lon="14.654453841829508"><ele>1459.0</ele><time>2026-04-12T08:13:42Z</time></trkpt><trkpt lat="37.89431263454559" lon="14.654476971254981"><ele>1456.5</ele><time>2026-04-12T08:13:43Z</time></trkpt><trkpt lat="37.89418185127139" lon="14.654505947890241"><ele>1454.0</ele><time>2026-04-12T08:13:44Z</time></trkpt><trkpt lat="37.89402973189857" lon="14.654545609014349"><ele>1451.5</ele><time>2026-04-12T08:13:45Z</time></trkpt><trkpt lat="37.89388577183734" lon="14.654588499960774"><ele>1449.0</ele><time>2026-04-12T08:13:46Z</time></trkpt><trkpt lat="37.89375681673037" lon="14.654623095182316"><ele>1449.0</ele><time>2026-04-12T08:13:47Z</time></trkpt><trkpt lat="37.89364030450099" lon="14.654640778572725"><ele>1449.0</ele><time>2026-04-12T08:13:48Z</time></trkpt><trkpt lat="37.89353909311105" lon="14.654650373692666"><ele>1449.0</ele><time>2026-04-12T08:13:49Z</time></trkpt><trkpt lat="37.89344849324731" lon="14.654654325471409"><ele>1449.0</ele><time>2026-04-12T08:13:50Z</time></trkpt><trkpt lat="37.89339145672634" lon="14.654709891618207"><ele>1449.0</ele><time>2026-04-12T08:13:51Z</time></trkpt><trkpt lat="37.89336611292993" lon="14.65480808233857"><ele>1449.0</ele><time>2026-04-12T08:13:52Z</time></trkpt><trkpt lat="37.89338295463795" lon="14.654903763369642"><ele>1449.0</ele><time>2026-04-12T08:13:53Z</time></trkpt><trkpt lat="37.89350891401711" lon="14.654967868438943"><ele>1449.0</ele><time>2026-04-12T08:13:55Z</time></trkpt><trkpt lat="37.893590399477276" lon="14.65494017428856"><ele>1449.0</ele><time>2026-04-12T08:13:56Z</time></trkpt><trkpt lat="37.89368360393806" lon="14.654894289119547"><ele>1449.0</ele><time>2026-04-12T08:13:57Z</time></trkpt><trkpt lat="37.89378663414504" lon="14.65486498645201"><ele>1449.0</ele><time>2026-04-12T08:13:58Z</time></trkpt><trkpt lat="37.89390529925324" lon="14.654834024432512"><ele>1449.0</ele><time>2026-04-12T08:13:59Z</time></trkpt><trkpt lat="37.89403818872469" lon="14.654810215762014"><ele>1449.0</ele><time>2026-04-12T08:14:00Z</time></trkpt><trkpt lat="37.894179820907866" lon="14.65480675697878"><ele>1449.0</ele><time>2026-04-12T08:14:01Z</time></trkpt><trkpt lat="37.89431775967325" lon="14.654824145788242"><ele>1451.5</ele><time>2026-04-12T08:14:02Z</time></trkpt><trkpt lat="37.89446972493458" lon="14.65482931411921"><ele>1454.0</ele><time>2026-04-12T08:14:03Z</time></trkpt><trkpt lat="37.894615211710786" lon="14.654832839240937"><ele>1456.5</ele><time>2026-04-12T08:14:04Z</time></trkpt><trkpt lat="37.89475640340861" lon="14.654828319420481"><ele>1459.0</ele><time>2026-04-12T08:14:05Z</time></trkpt><trkpt lat="37.89490202871521" lon="14.654795989377687"><ele>1459.0</ele><time>2026-04-12T08:14:06Z</time></trkpt><trkpt lat="37.895038658416375" lon="14.654730742238526"><ele>1459.0</ele><time>2026-04-12T08:14:07Z</time></trkpt><trkpt lat="37.895186131795604" lon="14.65462302942158"><ele>1459.0</ele><time>2026-04-12T08:14:08Z</time></trkpt><trkpt lat="37.89531920429736" lon="14.654504485859519"><ele>1456.3333333333333</ele><time>2026-04-12T08:14:09Z</time></trkpt><trkpt lat="37.895454885420094" lon="14.654397043795424"><ele>1453.6666666666667</ele><time>2026-04-12T08:14:10Z</time></trkpt><trkpt lat="37.89560473253535" lon="14.654315746857401"><ele>1451.0</ele><time>2026-04-12T08:14:11Z</time></trkpt><trkpt lat="37.89576452846121" lon="14.654255533852622"><ele>1453.3333333333335</ele><time>2026-04-12T08:14:12Z</time></trkpt><trkpt lat="37.89593088589975" lon="14.654207464217373"><ele>1455.6666666666667</ele><time>2026-04-12T08:14:13Z</time></trkpt><trkpt lat="37.89609647477846" lon="14.654180023078503"><ele>1458.0</ele><time>2026-04-12T08:14:14Z</time></trkpt><trkpt lat="37.896266926848135" lon="14.654169901419241"><ele>1458.0</ele><time>2026-04-12T08:14:15Z</time></trkpt><trkpt lat="37.89643345048591" lon="14.654180952372512"><ele>1458.0</ele><time>2026-04-12T08:14:16Z</time></trkpt><trkpt lat="37.89660368862122" lon="14.654219373759071"><ele>1458.0</ele><time>2026-04-12T08:14:17Z</time></trkpt><trkpt lat="37.896755101595026" lon="14.654264262871516"><ele>1457.0</ele><time>2026-04-12T08:14:18Z</time></trkpt><trkpt lat="37.89691933551123" lon="14.654314662945742"><ele>1456.0</ele><time>2026-04-12T08:14:19Z</time></trkpt><trkpt lat="37.897066231634355" lon="14.654402563690734"><ele>1455.0</ele><time>2026-04-12T08:14:20Z</time></trkpt><trkpt lat="37.89719862629675" lon="14.654518239394196"><ele>1459.3333333333333</ele><time>2026-04-12T08:14:21Z</time></trkpt><trkpt lat="37.897323365039625" lon="14.654652360389834"><ele>1463.6666666666665</ele><time>2026-04-12T08:14:22Z</time></trkpt><trkpt lat="37.89745042858198" lon="14.654778473944674"><ele>1468.0</ele><time>2026-04-12T08:14:23Z</time></trkpt><trkpt lat="37.89757989709218" lon="14.654893896710592"><ele>1467.5</ele><time>2026-04-12T08:14:24Z</time></trkpt><trkpt lat="37.89770032931763" lon="14.655002355745909"><ele>1467.0</ele><time>2026-04-12T08:14:25Z</time></trkpt><trkpt lat="37.897815789514596" lon="14.655115713578773"><ele>1466.5</ele><time>2026-04-12T08:14:26Z</time></trkpt><trkpt lat="37.897927975220966" lon="14.655214294946749"><ele>1466.0</ele><time>2026-04-12T08:14:27Z</time></trkpt><trkpt lat="37.89804787438568" lon="14.655286814610681"><ele>1466.5</ele><time>2026-04-12T08:14:28Z</time></trkpt><trkpt lat="37.89817999517571" lon="14.65531486530495"><ele>1467.0</ele><time>2026-04-12T08:14:29Z</time></trkpt><trkpt lat="37.89831767563225" lon="14.655287927003114"><ele>1467.5</ele><time>2026-04-12T08:14:30Z</time></trkpt><trkpt lat="37.898451738904804" lon="14.655222333263279"><ele>1468.0</ele><time>2026-04-12T08:14:31Z</time></trkpt><trkpt lat="37.89858630858832" lon="14.655146142633624"><ele>1468.0</ele><time>2026-04-12T08:14:32Z</time></trkpt><trkpt lat="37.89872501231992" lon="14.655090800190452"><ele>1468.0</ele><time>2026-04-12T08:14:33Z</time></trkpt><trkpt lat="37.89887383480642" lon="14.65506080270619"><ele>1468.0</ele><time>2026-04-12T08:14:34Z</time></trkpt><trkpt lat="37.89902499241462" lon="14.655041918635156"><ele>1468.0</ele><time>2026-04-12T08:14:35Z</time></trkpt><trkpt lat="37.89916996503359" lon="14.655037274548523"><ele>1467.25</ele><time>2026-04-12T08:14:36Z</time></trkpt><trkpt lat="37.899304990834835" lon="14.655037943611232"><ele>1466.5</ele><time>2026-04-12T08:14:37Z</time></trkpt><trkpt lat="37.89943484778585" lon="14.655026797321026"><ele>1465.75</ele><time>2026-04-12T08:14:38Z</time></trkpt><trkpt lat="37.89955988196715" lon="14.654975841457931"><ele>1465.0</ele><time>2026-04-12T08:14:39Z</time></trkpt><trkpt lat="37.89967325248856" lon="14.654876923210894"><ele>1465.0</ele><time>2026-04-12T08:14:40Z</time></trkpt><trkpt lat="37.89977871592033" lon="14.654754386464074"><ele>1465.0</ele><time>2026-04-12T08:14:41Z</time></trkpt><trkpt lat="37.89989028193937" lon="14.654636081974347"><ele>1465.0</ele><time>2026-04-12T08:14:42Z</time></trkpt><trkpt lat="37.90000910629019" lon="14.65451739008538"><ele>1465.0</ele><time>2026-04-12T08:14:43Z</time></trkpt><trkpt lat="37.90012757558523" lon="14.654392991116598"><ele>1466.3333333333333</ele><time>2026-04-12T08:14:44Z</time></trkpt><trkpt lat="37.90025153084552" lon="14.654265466928132"><ele>1467.6666666666667</ele><time>2026-04-12T08:14:45Z</time></trkpt><trkpt lat="37.90038033722604" lon="14.65413824310124"><ele>1469.0</ele><time>2026-04-12T08:14:46Z</time></trkpt><trkpt lat="37.90051627918575" lon="14.654015696792086"><ele>1469.0</ele><time>2026-04-12T08:14:47Z</time></trkpt><trkpt lat="37.90066098635877" lon="14.653903973730351"><ele>1469.0</ele><time>2026-04-12T08:14:48Z</time></trkpt><trkpt lat="37.900810161453826" lon="14.65379661139992"><ele>1469.0</ele><time>2026-04-12T08:14:49Z</time></trkpt><trkpt lat="37.900956316880404" lon="14.653684427848583"><ele>1471.0</ele><time>2026-04-12T08:14:50Z</time></trkpt><trkpt lat="37.901100208127176" lon="14.65358263234236"><ele>1473.0</ele><time>2026-04-12T08:14:51Z</time></trkpt><trkpt lat="37.90123414249188" lon="14.653486298325966"><ele>1475.0</ele><time>2026-04-12T08:14:52Z</time></trkpt><trkpt lat="37.90135180847427" lon="14.653387416281252"><ele>1475.0</ele><time>2026-04-12T08:14:53Z</time></trkpt><trkpt lat="37.90144591351306" lon="14.653268073218568"><ele>1475.0</ele><time>2026-04-12T08:14:54Z</time></trkpt><trkpt lat="37.90151402909708" lon="14.653118931436458"><ele>1475.0</ele><time>2026-04-12T08:14:55Z</time></trkpt><trkpt lat="37.90156174344179" lon="14.652962052426316"><ele>1475.0</ele><time>2026-04-12T08:14:56Z</time></trkpt><trkpt lat="37.90163766031398" lon="14.652815865847028"><ele>1476.0</ele><time>2026-04-12T08:14:57Z</time></trkpt><trkpt lat="37.90174984795103" lon="14.6527011972871"><ele>1477.0</ele><time>2026-04-12T08:14:58Z</time></trkpt><trkpt lat="37.90188105205691" lon="14.65260993586687"><ele>1478.0</ele><time>2026-04-12T08:14:59Z</time></trkpt><trkpt lat="37.902014774705094" lon="14.65251656576533"><ele>1479.0</ele><time>2026-04-12T08:15:00Z</time></trkpt><trkpt lat="37.90214513235769" lon="14.652407982199254"><ele>1479.0</ele><time>2026-04-12T08:15:01Z</time></trkpt><trkpt lat="37.902269293749754" lon="14.65231017513004"><ele>1479.0</ele><time>2026-04-12T08:15:02Z</time></trkpt><trkpt lat="37.902392560461536" lon="14.652221943572997"><ele>1479.0</ele><time>2026-04-12T08:15:03Z</time></trkpt><trkpt lat="37.90251676529325" lon="14.652147799971399"><ele>1479.0</ele><time>2026-04-12T08:15:04Z</time></trkpt><trkpt lat="37.90265450406341" lon="14.652102482526622"><ele>1478.0</ele><time>2026-04-12T08:15:05Z</time></trkpt><trkpt lat="37.90280244632518" lon="14.652096903194492"><ele>1477.0</ele><time>2026-04-12T08:15:06Z</time></trkpt><trkpt lat="37.90295468048843" lon="14.6521211732995"><ele>1476.0</ele><time>2026-04-12T08:15:07Z</time></trkpt><trkpt lat="37.903110229355434" lon="14.652156777877453"><ele>1476.0</ele><time>2026-04-12T08:15:08Z</time></trkpt><trkpt lat="37.90326331443215" lon="14.652190500529443"><ele>1476.0</ele><time>2026-04-12T08:15:09Z</time></trkpt><trkpt lat="37.90342527283866" lon="14.652210896060271"><ele>1476.0</ele><time>2026-04-12T08:15:10Z</time></trkpt><trkpt lat="37.90358851316053" lon="14.652234573759234"><ele>1476.6666666666667</ele><time>2026-04-12T08:15:11Z</time></trkpt><trkpt lat="37.903749936261775" lon="14.652259951707848"><ele>1477.3333333333335</ele><time>2026-04-12T08:15:12Z</time></trkpt><trkpt lat="37.90391184535834" lon="14.652277274990908"><ele>1478.0</ele><time>2026-04-12T08:15:13Z</time></trkpt><trkpt lat="37.90408125919937" lon="14.65228775466872"><ele>1481.6666666666667</ele><time>2026-04-12T08:15:14Z</time></trkpt><trkpt lat="37.90424974250755" lon="14.652313087307059"><ele>1485.3333333333333</ele><time>2026-04-12T08:15:15Z</time></trkpt><trkpt lat="37.90440426118447" lon="14.652382613719627"><ele>1489.0</ele><time>2026-04-12T08:15:16Z</time></trkpt><trkpt lat="37.90455031157159" lon="14.652491690060025"><ele>1489.0</ele><time>2026-04-12T08:15:17Z</time></trkpt><trkpt lat="37.90468790783392" lon="14.652641241759955"><ele>1489.0</ele><time>2026-04-12T08:15:18Z</time></trkpt><trkpt lat="37.90483699005949" lon="14.652786365950073"><ele>1489.0</ele><time>2026-04-12T08:15:19Z</time></trkpt><trkpt lat="37.90499808892114" lon="14.652931562981136"><ele>1489.3333333333333</ele><time>2026-04-12T08:15:20Z</time></trkpt><trkpt lat="37.90516761881692" lon="14.653080735955799"><ele>1489.6666666666667</ele><time>2026-04-12T08:15:21Z</time></trkpt><trkpt lat="37.905345832863546" lon="14.653228544311192"><ele>1490.0</ele><time>2026-04-12T08:15:22Z</time></trkpt><trkpt lat="37.905521197245406" lon="14.65337327232549"><ele>1490.0</ele><time>2026-04-12T08:15:23Z</time></trkpt><trkpt lat="37.90569512906111" lon="14.65351895703923"><ele>1490.0</ele><time>2026-04-12T08:15:24Z</time></trkpt><trkpt lat="37.90586731286299" lon="14.65366461587547"><ele>1490.0</ele><time>2026-04-12T08:15:25Z</time></trkpt><trkpt lat="37.906043733275375" lon="14.653797424769117"><ele>1489.3333333333335</ele><time>2026-04-12T08:15:26Z</time></trkpt><trkpt lat="37.906236404167885" lon="14.65390326222656"><ele>1488.6666666666667</ele><time>2026-04-12T08:15:27Z</time></trkpt><trkpt lat="37.90643973430283" lon="14.65398126244044"><ele>1488.0</ele><time>2026-04-12T08:15:28Z</time></trkpt><trkpt lat="37.90664754742216" lon="14.654043209912231"><ele>1492.6666666666667</ele><time>2026-04-12T08:15:29Z</time></trkpt><trkpt lat="37.906858522511705" lon="14.654113001039036"><ele>1497.3333333333335</ele><time>2026-04-12T08:15:30Z</time></trkpt><trkpt lat="37.90706156711663" lon="14.6542215108978"><ele>1502.0</ele><time>2026-04-12T08:15:31Z</time></trkpt><trkpt lat="37.90726019721218" lon="14.654331003796006"><ele>1502.0</ele><time>2026-04-12T08:15:32Z</time></trkpt><trkpt lat="37.90745870287472" lon="14.654431403324956"><ele>1502.0</ele><time>2026-04-12T08:15:33Z</time></trkpt><trkpt lat="37.9076545494754" lon="14.654526113055317"><ele>1502.0</ele><time>2026-04-12T08:15:34Z</time></trkpt><trkpt lat="37.907841961702445" lon="14.65460880416505"><ele>1498.3333333333335</ele><time>2026-04-12T08:15:35Z</time></trkpt><trkpt lat="37.90802177437144" lon="14.654668092073635"><ele>1494.6666666666667</ele><time>2026-04-12T08:15:36Z</time></trkpt><trkpt lat="37.908191756321514" lon="14.654710640366048"><ele>1491.0</ele><time>2026-04-12T08:15:37Z</time></trkpt><trkpt lat="37.908354327888354" lon="14.654739338444719"><ele>1493.75</ele><time>2026-04-12T08:15:38Z</time></trkpt><trkpt lat="37.90849829939991" lon="14.654771870473828"><ele>1496.5</ele><time>2026-04-12T08:15:39Z</time></trkpt><trkpt lat="37.908631152571765" lon="14.654826935887527"><ele>1499.25</ele><time>2026-04-12T08:15:40Z</time></trkpt><trkpt lat="37.90874586973374" lon="14.654937016625246"><ele>1502.0</ele><time>2026-04-12T08:15:41Z</time></trkpt><trkpt lat="37.9088409902855" lon="14.655087491047572"><ele>1502.0</ele><time>2026-04-12T08:15:42Z</time></trkpt><trkpt lat="37.908940356193106" lon="14.655239404570635"><ele>1502.0</ele><time>2026-04-12T08:15:43Z</time></trkpt><trkpt lat="37.90904259242152" lon="14.655398356170618"><ele>1502.0</ele><time>2026-04-12T08:15:44Z</time></trkpt><trkpt lat="37.909142942119864" lon="14.655559724536019"><ele>1501.75</ele><time>2026-04-12T08:15:45Z</time></trkpt><trkpt lat="37.909243318739016" lon="14.65570856239478"><ele>1501.5</ele><time>2026-04-12T08:15:46Z</time></trkpt><trkpt lat="37.90933661959594" lon="14.655845572049138"><ele>1501.25</ele><time>2026-04-12T08:15:47Z</time></trkpt><trkpt lat="37.9094292493591" lon="14.655975461942317"><ele>1501.0</ele><time>2026-04-12T08:15:48Z</time></trkpt><trkpt lat="37.90953294826728" lon="14.65609248188334"><ele>1501.0</ele><time>2026-04-12T08:15:49Z</time></trkpt><trkpt lat="37.90965409271704" lon="14.65617000544168"><ele>1501.0</ele><time>2026-04-12T08:15:50Z</time></trkpt><trkpt lat="37.90978969618063" lon="14.656196458761325"><ele>1501.0</ele><time>2026-04-12T08:15:51Z</time></trkpt><trkpt lat="37.909926320736915" lon="14.656169651319708"><ele>1501.0</ele><time>2026-04-12T08:15:52Z</time></trkpt><trkpt lat="37.91006726770095" lon="14.656108950874183"><ele>1499.3333333333333</ele><time>2026-04-12T08:15:53Z</time></trkpt><trkpt lat="37.910213384588566" lon="14.65604388891493"><ele>1497.6666666666667</ele><time>2026-04-12T08:15:54Z</time></trkpt><trkpt lat="37.910364489245765" lon="14.655970251554582"><ele>1496.0</ele><time>2026-04-12T08:15:55Z</time></trkpt><trkpt lat="37.910509125861736" lon="14.655905987687172"><ele>1496.0</ele><time>2026-04-12T08:15:56Z</time></trkpt><trkpt lat="37.910649116872584" lon="14.655838550741386"><ele>1496.0</ele><time>2026-04-12T08:15:57Z</time></trkpt><trkpt lat="37.91078139865818" lon="14.655783906383949"><ele>1496.0</ele><time>2026-04-12T08:15:58Z</time></trkpt><trkpt lat="37.91090266291344" lon="14.655729618752572"><ele>1496.0</ele><time>2026-04-12T08:15:59Z</time></trkpt><trkpt lat="37.91101446540363" lon="14.65567884760346"><ele>1497.75</ele><time>2026-04-12T08:16:00Z</time></trkpt><trkpt lat="37.91112393064475" lon="14.655653211037487"><ele>1499.5</ele><time>2026-04-12T08:16:01Z</time></trkpt><trkpt lat="37.91123841451643" lon="14.655699706944699"><ele>1501.25</ele><time>2026-04-12T08:16:02Z</time></trkpt><trkpt lat="37.91132630616611" lon="14.65580130270581"><ele>1503.0</ele><time>2026-04-12T08:16:03Z</time></trkpt><trkpt lat="37.91137663678337" lon="14.655941002542157"><ele>1503.0</ele><time>2026-04-12T08:16:04Z</time></trkpt><trkpt lat="37.91139975365853" lon="14.65609168737566"><ele>1503.0</ele><time>2026-04-12T08:16:05Z</time></trkpt><trkpt lat="37.911432851369" lon="14.656237737448082"><ele>1503.0</ele><time>2026-04-12T08:16:06Z</time></trkpt><trkpt lat="37.911505226820076" lon="14.656386187815212"><ele>1503.0</ele><time>2026-04-12T08:16:07Z</time></trkpt><trkpt lat="37.91160287206093" lon="14.65650672042549"><ele>1501.5</ele><time>2026-04-12T08:16:08Z</time></trkpt><trkpt lat="37.911727502996726" lon="14.656588561151768"><ele>1500.0</ele><time>2026-04-12T08:16:09Z</time></trkpt><trkpt lat="37.91187144744235" lon="14.656605148583818"><ele>1498.5</ele><time>2026-04-12T08:16:10Z</time></trkpt><trkpt lat="37.91202499547159" lon="14.65658040246177"><ele>1497.0</ele><time>2026-04-12T08:16:11Z</time></trkpt><trkpt lat="37.91217887873973" lon="14.656565848129"><ele>1497.0</ele><time>2026-04-12T08:16:12Z</time></trkpt><trkpt lat="37.91233920243298" lon="14.656559547368676"><ele>1497.0</ele><time>2026-04-12T08:16:13Z</time></trkpt><trkpt lat="37.9124993199521" lon="14.656558923750971"><ele>1497.0</ele><time>2026-04-12T08:16:14Z</time></trkpt><trkpt lat="37.91265694713109" lon="14.656582015296365"><ele>1497.25</ele><time>2026-04-12T08:16:15Z</time></trkpt><trkpt lat="37.91279313553635" lon="14.656636307782835"><ele>1497.5</ele><time>2026-04-12T08:16:16Z</time></trkpt><trkpt lat="37.912917552783234" lon="14.65668647681113"><ele>1497.75</ele><time>2026-04-12T08:16:17Z</time></trkpt><trkpt lat="37.91305610334464" lon="14.65667704712461"><ele>1498.0</ele><time>2026-04-12T08:16:18Z</time></trkpt><trkpt lat="37.91318947187215" lon="14.656601937904691"><ele>1498.0</ele><time>2026-04-12T08:16:19Z</time></trkpt><trkpt lat="37.91331072074539" lon="14.656497152309214"><ele>1498.0</ele><time>2026-04-12T08:16:20Z</time></trkpt><trkpt lat="37.913429870717465" lon="14.656392168108088"><ele>1498.0</ele><time>2026-04-12T08:16:21Z</time></trkpt><trkpt lat="37.91354869574249" lon="14.656283967848404"><ele>1498.0</ele><time>2026-04-12T08:16:22Z</time></trkpt><trkpt lat="37.91367108138014" lon="14.656177370817236"><ele>1499.5</ele><time>2026-04-12T08:16:23Z</time></trkpt><trkpt lat="37.913788335316006" lon="14.656077816719701"><ele>1501.0</ele><time>2026-04-12T08:16:24Z</time></trkpt><trkpt lat="37.91390470961126" lon="14.655968170561408"><ele>1502.5</ele><time>2026-04-12T08:16:25Z</time></trkpt><trkpt lat="37.914011375300966" lon="14.655853167497092"><ele>1504.0</ele><time>2026-04-12T08:16:26Z</time></trkpt><trkpt lat="37.91410156546457" lon="14.655715944774212"><ele>1504.0</ele><time>2026-04-12T08:16:27Z</time></trkpt><trkpt lat="37.91419208606742" lon="14.65558205107887"><ele>1504.0</ele><time>2026-04-12T08:16:28Z</time></trkpt><trkpt lat="37.91426408362201" lon="14.655437509869278"><ele>1504.0</ele><time>2026-04-12T08:16:29Z</time></trkpt><trkpt lat="37.91438369690985" lon="14.655354227412893"><ele>1504.0</ele><time>2026-04-12T08:16:30Z</time></trkpt><trkpt lat="37.914516521298125" lon="14.655312282461974"><ele>1505.75</ele><time>2026-04-12T08:16:31Z</time></trkpt><trkpt lat="37.914644113491036" lon="14.655251578130647"><ele>1507.5</ele><time>2026-04-12T08:16:32Z</time></trkpt><trkpt lat="37.914771786749604" lon="14.655166852812934"><ele>1509.25</ele><time>2026-04-12T08:16:33Z</time></trkpt><trkpt lat="37.91489763087501" lon="14.6550724054616"><ele>1511.0</ele><time>2026-04-12T08:16:34Z</time></trkpt><trkpt lat="37.91503031266053" lon="14.654987293025508"><ele>1513.25</ele><time>2026-04-12T08:16:35Z</time></trkpt><trkpt lat="37.915179541301875" lon="14.654963426439066"><ele>1515.5</ele><time>2026-04-12T08:16:36Z</time></trkpt><trkpt lat="37.91532396517643" lon="14.65498450967442"><ele>1517.75</ele><time>2026-04-12T08:16:37Z</time></trkpt><trkpt lat="37.91546466965199" lon="14.655031333747306"><ele>1520.0</ele><time>2026-04-12T08:16:38Z</time></trkpt><trkpt lat="37.91560448607908" lon="14.655088004850905"><ele>1520.0</ele><time>2026-04-12T08:16:39Z</time></trkpt><trkpt lat="37.915749391804646" lon="14.655147355453929"><ele>1520.0</ele><time>2026-04-12T08:16:40Z</time></trkpt><trkpt lat="37.915900291823924" lon="14.655197646810969"><ele>1520.0</ele><time>2026-04-12T08:16:41Z</time></trkpt><trkpt lat="37.91605772809006" lon="14.655228335615533"><ele>1523.3333333333335</ele><time>2026-04-12T08:16:42Z</time></trkpt><trkpt lat="37.91621805499041" lon="14.655237476284372"><ele>1526.6666666666667</ele><time>2026-04-12T08:16:43Z</time></trkpt><trkpt lat="37.916382664545594" lon="14.655247398745379"><ele>1530.0</ele><time>2026-04-12T08:16:44Z</time></trkpt><trkpt lat="37.91652469322847" lon="14.655279682819701"><ele>1528.25</ele><time>2026-04-12T08:16:45Z</time></trkpt><trkpt lat="37.91665120353577" lon="14.65534241224458"><ele>1526.5</ele><time>2026-04-12T08:16:46Z</time></trkpt><trkpt lat="37.916763907054545" lon="14.655449954783233"><ele>1524.75</ele><time>2026-04-12T08:16:47Z</time></trkpt><trkpt lat="37.91685535791926" lon="14.655580889133754"><ele>1523.0</ele><time>2026-04-12T08:16:48Z</time></trkpt><trkpt lat="37.91695538472284" lon="14.65570424437755"><ele>1523.0</ele><time>2026-04-12T08:16:49Z</time></trkpt><trkpt lat="37.9170766386821" lon="14.655778421874773"><ele>1523.0</ele><time>2026-04-12T08:16:50Z</time></trkpt><trkpt lat="37.917204211859435" lon="14.65579770434655"><ele>1523.0</ele><time>2026-04-12T08:16:51Z</time></trkpt><trkpt lat="37.91733057873276" lon="14.655743951072406"><ele>1523.0</ele><time>2026-04-12T08:16:52Z</time></trkpt><trkpt lat="37.917446842254755" lon="14.655649859699924"><ele>1523.0</ele><time>2026-04-12T08:16:53Z</time></trkpt><trkpt lat="37.917565521363514" lon="14.655561065921619"><ele>1523.0</ele><time>2026-04-12T08:16:54Z</time></trkpt><trkpt lat="37.91769276074212" lon="14.65548645057919"><ele>1523.0</ele><time>2026-04-12T08:16:55Z</time></trkpt><trkpt lat="37.91783203562166" lon="14.655428360630873"><ele>1523.0</ele><time>2026-04-12T08:16:56Z</time></trkpt><trkpt lat="37.917975142126146" lon="14.65539601723636"><ele>1522.0</ele><time>2026-04-12T08:16:57Z</time></trkpt><trkpt lat="37.91810455795001" lon="14.655379882383047"><ele>1521.0</ele><time>2026-04-12T08:16:58Z</time></trkpt><trkpt lat="37.91822644338164" lon="14.65533638461135"><ele>1520.0</ele><time>2026-04-12T08:16:59Z</time></trkpt><trkpt lat="37.91832895788663" lon="14.655273499385935"><ele>1519.0</ele><time>2026-04-12T08:17:00Z</time></trkpt><trkpt lat="37.91841052040792" lon="14.655178968729347"><ele>1521.0</ele><time>2026-04-12T08:17:01Z</time></trkpt><trkpt lat="37.91847550735077" lon="14.655070410946278"><ele>1523.0</ele><time>2026-04-12T08:17:02Z</time></trkpt><trkpt lat="37.91853484029156" lon="14.654968539929683"><ele>1525.0</ele><time>2026-04-12T08:17:03Z</time></trkpt><trkpt lat="37.91859007301583" lon="14.654876288337135"><ele>1527.0</ele><time>2026-04-12T08:17:04Z</time></trkpt><trkpt lat="37.91864132632731" lon="14.654789704909325"><ele>1529.0</ele><time>2026-04-12T08:17:05Z</time></trkpt><trkpt lat="37.918693403961115" lon="14.65471427946193"><ele>1528.9999999999998</ele><time>2026-04-12T08:17:06Z</time></trkpt><trkpt lat="37.91874476497123" lon="14.654652848639856"><ele>1529.0</ele><time>2026-04-12T08:17:07Z</time></trkpt><trkpt lat="37.91879208831433" lon="14.654599317371982"><ele>1529.0</ele><time>2026-04-12T08:17:08Z</time></trkpt><trkpt lat="37.918857217078745" lon="14.654532878788743"><ele>1529.0</ele><time>2026-04-12T08:17:10Z</time></trkpt><trkpt lat="37.918911380444676" lon="14.654484034092633"><ele>1529.0</ele><time>2026-04-12T08:17:47Z</time></trkpt><trkpt lat="37.918855130453295" lon="14.654443231274033"><ele>1528.9999999999998</ele><time>2026-04-12T08:21:26Z</time></trkpt><trkpt lat="37.91881650821211" lon="14.654379990475185"><ele>1529.0</ele><time>2026-04-12T08:21:32Z</time></trkpt><trkpt lat="37.91885556684237" lon="14.654446169490155"><ele>1529.0</ele><time>2026-04-12T08:22:53Z</time></trkpt><trkpt lat="37.91901983517337" lon="14.654493542294436"><ele>1529.0</ele><time>2026-04-12T08:25:46Z</time></trkpt><trkpt lat="37.91909495110862" lon="14.654492939710773"><ele>1529.0</ele><time>2026-04-12T08:25:47Z</time></trkpt><trkpt lat="37.91916569859607" lon="14.654478588477067"><ele>1529.0</ele><time>2026-04-12T08:25:48Z</time></trkpt><trkpt lat="37.9192257038431" lon="14.654444469703044"><ele>1529.0</ele><time>2026-04-12T08:25:49Z</time></trkpt><trkpt lat="37.919345669188715" lon="14.654392835334283"><ele>1529.6</ele><time>2026-04-12T08:25:51Z</time></trkpt><trkpt lat="37.91942268057759" lon="14.654380922157511"><ele>1530.2</ele><time>2026-04-12T08:25:52Z</time></trkpt><trkpt lat="37.919525186110064" lon="14.654385689760835"><ele>1530.8</ele><time>2026-04-12T08:25:53Z</time></trkpt><trkpt lat="37.91960283357751" lon="14.654434286243887"><ele>1531.3999999999999</ele><time>2026-04-12T08:25:54Z</time></trkpt><trkpt lat="37.91970742957411" lon="14.654479128070147"><ele>1532.0</ele><time>2026-04-12T08:25:55Z</time></trkpt><trkpt lat="37.919807037079345" lon="14.654524176975368"><ele>1532.0</ele><time>2026-04-12T08:25:56Z</time></trkpt><trkpt lat="37.919885034042004" lon="14.654566998180924"><ele>1532.0</ele><time>2026-04-12T08:25:57Z</time></trkpt><trkpt lat="37.91998009748672" lon="14.65458028151955"><ele>1532.0</ele><time>2026-04-12T08:25:58Z</time></trkpt><trkpt lat="37.92005600305448" lon="14.654599340378867"><ele>1532.0</ele><time>2026-04-12T08:25:59Z</time></trkpt><trkpt lat="37.92013424105879" lon="14.65460621218346"><ele>1532.0</ele><time>2026-04-12T08:26:00Z</time></trkpt><trkpt lat="37.92021200494489" lon="14.654609995098996"><ele>1532.0</ele><time>2026-04-12T08:26:01Z</time></trkpt><trkpt lat="37.92029112554481" lon="14.654626867492576"><ele>1532.8333333333335</ele><time>2026-04-12T08:26:02Z</time></trkpt><trkpt lat="37.92037661465702" lon="14.65464751462148"><ele>1533.6666666666667</ele><time>2026-04-12T08:26:03Z</time></trkpt><trkpt lat="37.92046022885333" lon="14.654680412337543"><ele>1534.5</ele><time>2026-04-12T08:26:04Z</time></trkpt><trkpt lat="37.92052329544423" lon="14.654726020164995"><ele>1535.3333333333335</ele><time>2026-04-12T08:26:05Z</time></trkpt><trkpt lat="37.92057663717703" lon="14.654777399198002"><ele>1536.1666666666667</ele><time>2026-04-12T08:26:06Z</time></trkpt><trkpt lat="37.9206262851043" lon="14.654826662972482"><ele>1537.0</ele><time>2026-04-12T08:26:07Z</time></trkpt><trkpt lat="37.92070763477498" lon="14.654920456975052"><ele>1537.0</ele><time>2026-04-12T08:26:09Z</time></trkpt><trkpt lat="37.92078999265221" lon="14.654993047761186"><ele>1537.0</ele><time>2026-04-12T08:26:11Z</time></trkpt><trkpt lat="37.92086403388391" lon="14.655083447302614"><ele>1537.0</ele><time>2026-04-12T08:26:13Z</time></trkpt><trkpt lat="37.9209301202874" lon="14.655174435704438"><ele>1537.0</ele><time>2026-04-12T08:26:15Z</time></trkpt><trkpt lat="37.9209917870202" lon="14.655268360005214"><ele>1537.0</ele><time>2026-04-12T08:26:17Z</time></trkpt><trkpt lat="37.92105457556259" lon="14.655360764468817"><ele>1538.0</ele><time>2026-04-12T08:26:19Z</time></trkpt><trkpt lat="37.92112340691455" lon="14.655458475594447"><ele>1539.0</ele><time>2026-04-12T08:26:21Z</time></trkpt><trkpt lat="37.92118949981397" lon="14.655564999811716"><ele>1540.0</ele><time>2026-04-12T08:26:23Z</time></trkpt><trkpt lat="37.92125048447685" lon="14.655680254619533"><ele>1541.0</ele><time>2026-04-12T08:26:25Z</time></trkpt><trkpt lat="37.92129237526961" lon="14.65580985760595"><ele>1542.0</ele><time>2026-04-12T08:26:27Z</time></trkpt><trkpt lat="37.921357742904995" lon="14.655938548839465"><ele>1542.0</ele><time>2026-04-12T08:26:29Z</time></trkpt><trkpt lat="37.921412809706354" lon="14.656084939896719"><ele>1542.0</ele><time>2026-04-12T08:26:31Z</time></trkpt><trkpt lat="37.92144291515825" lon="14.656155878823425"><ele>1542.0</ele><time>2026-04-12T08:26:32Z</time></trkpt><trkpt lat="37.92147579456268" lon="14.656224664632914"><ele>1542.0</ele><time>2026-04-12T08:26:33Z</time></trkpt><trkpt lat="37.921518227141995" lon="14.656296799698373"><ele>1542.0</ele><time>2026-04-12T08:26:34Z</time></trkpt><trkpt lat="37.921556153091416" lon="14.656364840999725"><ele>1542.0</ele><time>2026-04-12T08:26:35Z</time></trkpt><trkpt lat="37.92160449480848" lon="14.656417371717051"><ele>1540.8</ele><time>2026-04-12T08:26:36Z</time></trkpt><trkpt lat="37.921655172948604" lon="14.65646966594993"><ele>1539.6</ele><time>2026-04-12T08:26:37Z</time></trkpt><trkpt lat="37.921757083117996" lon="14.656558087050529"><ele>1538.3999999999999</ele><time>2026-04-12T08:26:39Z</time></trkpt><trkpt lat="37.92184703003929" lon="14.656664071765803"><ele>1537.1999999999998</ele><time>2026-04-12T08:26:41Z</time></trkpt><trkpt lat="37.921936542045096" lon="14.656759712477282"><ele>1536.0</ele><time>2026-04-12T08:26:43Z</time></trkpt><trkpt lat="37.92198774164047" lon="14.65680774212886"><ele>1538.1666666666667</ele><time>2026-04-12T08:26:44Z</time></trkpt><trkpt lat="37.92207616715934" lon="14.65691240759408"><ele>1540.3333333333335</ele><time>2026-04-12T08:26:46Z</time></trkpt><trkpt lat="37.92212411344855" lon="14.65696918040976"><ele>1542.5</ele><time>2026-04-12T08:26:47Z</time></trkpt><trkpt lat="37.922167299222046" lon="14.657031670891845"><ele>1544.6666666666667</ele><time>2026-04-12T08:26:48Z</time></trkpt><trkpt lat="37.92221027545116" lon="14.657105667327404"><ele>1546.8333333333335</ele><time>2026-04-12T08:26:49Z</time></trkpt><trkpt lat="37.92225043380165" lon="14.657176651542656"><ele>1549.0</ele><time>2026-04-12T08:26:50Z</time></trkpt><trkpt lat="37.92229807381822" lon="14.657243770988842"><ele>1549.0</ele><time>2026-04-12T08:26:51Z</time></trkpt><trkpt lat="37.92235398622858" lon="14.657310928943405"><ele>1549.0</ele><time>2026-04-12T08:26:52Z</time></trkpt><trkpt lat="37.92240664941624" lon="14.657375409908179"><ele>1549.0</ele><time>2026-04-12T08:26:53Z</time></trkpt><trkpt lat="37.922456131259764" lon="14.657445775677674"><ele>1549.0</ele><time>2026-04-12T08:26:54Z</time></trkpt><trkpt lat="37.922504162518294" lon="14.65751332775493"><ele>1549.0</ele><time>2026-04-12T08:26:55Z</time></trkpt><trkpt lat="37.92255235568914" lon="14.657574254514357"><ele>1549.0</ele><time>2026-04-12T08:26:56Z</time></trkpt><trkpt lat="37.92260751767394" lon="14.657644771580067"><ele>1549.0</ele><time>2026-04-12T08:26:57Z</time></trkpt><trkpt lat="37.92266252116353" lon="14.657708990186164"><ele>1549.5000000000002</ele><time>2026-04-12T08:26:58Z</time></trkpt><trkpt lat="37.92271381745175" lon="14.657775419423302"><ele>1550.0</ele><time>2026-04-12T08:26:59Z</time></trkpt><trkpt lat="37.922774810367265" lon="14.657838217312774"><ele>1550.5</ele><time>2026-04-12T08:27:00Z</time></trkpt><trkpt lat="37.92283066642286" lon="14.657902824749998"><ele>1551.0</ele><time>2026-04-12T08:27:01Z</time></trkpt><trkpt lat="37.92288800278984" lon="14.65797035268692"><ele>1551.5000000000002</ele><time>2026-04-12T08:27:02Z</time></trkpt><trkpt lat="37.92294085124193" lon="14.658038318701589"><ele>1552.0</ele><time>2026-04-12T08:27:03Z</time></trkpt><trkpt lat="37.92301027306722" lon="14.658078979182088"><ele>1552.0000000000002</ele><time>2026-04-12T08:27:04Z</time></trkpt><trkpt lat="37.92307583503868" lon="14.658153660488377"><ele>1552.0</ele><time>2026-04-12T08:27:05Z</time></trkpt><trkpt lat="37.92315190636046" lon="14.658208477049152"><ele>1552.0</ele><time>2026-04-12T08:27:06Z</time></trkpt><trkpt lat="37.923232979376216" lon="14.658248660916868"><ele>1552.0</ele><time>2026-04-12T08:27:07Z</time></trkpt><trkpt lat="37.92332175470616" lon="14.65827649968895"><ele>1552.0000000000002</ele><time>2026-04-12T08:27:08Z</time></trkpt><trkpt lat="37.92340769881786" lon="14.658294929998338"><ele>1552.0</ele><time>2026-04-12T08:27:09Z</time></trkpt><trkpt lat="37.92349144941483" lon="14.658300214435423"><ele>1554.3333333333335</ele><time>2026-04-12T08:27:10Z</time></trkpt><trkpt lat="37.92356855175827" lon="14.658314789754199"><ele>1556.6666666666667</ele><time>2026-04-12T08:27:11Z</time></trkpt><trkpt lat="37.923641153809164" lon="14.65833614173433"><ele>1559.0</ele><time>2026-04-12T08:27:12Z</time></trkpt><trkpt lat="37.92371551930613" lon="14.658337406743751"><ele>1561.3333333333335</ele><time>2026-04-12T08:27:13Z</time></trkpt><trkpt lat="37.92378520146026" lon="14.658393160716795"><ele>1563.6666666666667</ele><time>2026-04-12T08:27:14Z</time></trkpt><trkpt lat="37.92383735639745" lon="14.658471744657733"><ele>1566.0</ele><time>2026-04-12T08:27:15Z</time></trkpt><trkpt lat="37.9238784247656" lon="14.658543909397565"><ele>1564.1666666666667</ele><time>2026-04-12T08:27:16Z</time></trkpt><trkpt lat="37.923915593789765" lon="14.658621787508105"><ele>1562.3333333333335</ele><time>2026-04-12T08:27:17Z</time></trkpt><trkpt lat="37.92395384703404" lon="14.658705566626384"><ele>1560.5</ele><time>2026-04-12T08:27:18Z</time></trkpt><trkpt lat="37.92399718269856" lon="14.658799945537263"><ele>1558.6666666666667</ele><time>2026-04-12T08:27:19Z</time></trkpt><trkpt lat="37.92404001829371" lon="14.658891405292135"><ele>1556.8333333333335</ele><time>2026-04-12T08:27:20Z</time></trkpt><trkpt lat="37.92408161696373" lon="14.658977610755363"><ele>1555.0</ele><time>2026-04-12T08:27:21Z</time></trkpt><trkpt lat="37.92412678797541" lon="14.659065838976735"><ele>1555.0000000000002</ele><time>2026-04-12T08:27:22Z</time></trkpt><trkpt lat="37.924176314125816" lon="14.659152807731305"><ele>1555.0</ele><time>2026-04-12T08:27:23Z</time></trkpt><trkpt lat="37.92422886617777" lon="14.659231825610599"><ele>1555.0</ele><time>2026-04-12T08:27:24Z</time></trkpt><trkpt lat="37.92428445204276" lon="14.659306516869124"><ele>1555.0</ele><time>2026-04-12T08:27:25Z</time></trkpt><trkpt lat="37.924342785004036" lon="14.659381038568092"><ele>1555.0000000000002</ele><time>2026-04-12T08:27:26Z</time></trkpt><trkpt lat="37.92438676887619" lon="14.659462967120678"><ele>1555.0</ele><time>2026-04-12T08:27:27Z</time></trkpt><trkpt lat="37.924439017938106" lon="14.659536786986891"><ele>1557.1666666666667</ele><time>2026-04-12T08:27:28Z</time></trkpt><trkpt lat="37.92449795117893" lon="14.659609091027509"><ele>1559.3333333333335</ele><time>2026-04-12T08:27:29Z</time></trkpt><trkpt lat="37.924527565585166" lon="14.659713697754674"><ele>1561.5</ele><time>2026-04-12T08:27:30Z</time></trkpt><trkpt lat="37.92454088503747" lon="14.659815263458249"><ele>1563.6666666666665</ele><time>2026-04-12T08:27:31Z</time></trkpt><trkpt lat="37.9245543930218" lon="14.659926126479093"><ele>1565.8333333333333</ele><time>2026-04-12T08:27:32Z</time></trkpt><trkpt lat="37.924562343799295" lon="14.660041600175985"><ele>1568.0</ele><time>2026-04-12T08:27:33Z</time></trkpt><trkpt lat="37.92457011899607" lon="14.660157508763676"><ele>1568.0</ele><time>2026-04-12T08:27:34Z</time></trkpt><trkpt lat="37.92457801660798" lon="14.660276674985637"><ele>1568.0</ele><time>2026-04-12T08:27:35Z</time></trkpt><trkpt lat="37.92458574242886" lon="14.660393248969765"><ele>1568.0</ele><time>2026-04-12T08:27:36Z</time></trkpt><trkpt lat="37.92458479996514" lon="14.66051359461971"><ele>1568.0</ele><time>2026-04-12T08:27:37Z</time></trkpt><trkpt lat="37.924592692337825" lon="14.660630461927024"><ele>1568.0</ele><time>2026-04-12T08:27:38Z</time></trkpt><trkpt lat="37.92461338281646" lon="14.660748114268122"><ele>1566.2</ele><time>2026-04-12T08:27:39Z</time></trkpt><trkpt lat="37.92462695603694" lon="14.660869459149659"><ele>1564.4</ele><time>2026-04-12T08:27:40Z</time></trkpt><trkpt lat="37.92462598262467" lon="14.660996379284938"><ele>1562.6000000000001</ele><time>2026-04-12T08:27:41Z</time></trkpt><trkpt lat="37.92462678495504" lon="14.661130945071157"><ele>1560.8000000000002</ele><time>2026-04-12T08:27:42Z</time></trkpt><trkpt lat="37.92462795940948" lon="14.661265719284483"><ele>1559.0</ele><time>2026-04-12T08:27:43Z</time></trkpt><trkpt lat="37.924641128411544" lon="14.661397547803615"><ele>1558.2</ele><time>2026-04-12T08:27:44Z</time></trkpt><trkpt lat="37.92463221895552" lon="14.66152626532709"><ele>1557.4</ele><time>2026-04-12T08:27:45Z</time></trkpt><trkpt lat="37.92460476095137" lon="14.66165472543402"><ele>1556.6</ele><time>2026-04-12T08:27:46Z</time></trkpt><trkpt lat="37.924596753168714" lon="14.66178784120452"><ele>1555.8</ele><time>2026-04-12T08:27:47Z</time></trkpt><trkpt lat="37.92458237631279" lon="14.661921069221416"><ele>1555.0</ele><time>2026-04-12T08:27:48Z</time></trkpt><trkpt lat="37.92456508001933" lon="14.662049204965752"><ele>1555.0</ele><time>2026-04-12T08:27:49Z</time></trkpt><trkpt lat="37.92454592926838" lon="14.662170573430018"><ele>1555.0</ele><time>2026-04-12T08:27:50Z</time></trkpt><trkpt lat="37.92452819877171" lon="14.66228812804017"><ele>1555.0</ele><time>2026-04-12T08:27:51Z</time></trkpt><trkpt lat="37.92451180683869" lon="14.662405461213211"><ele>1555.0</ele><time>2026-04-12T08:27:52Z</time></trkpt><trkpt lat="37.924501785070454" lon="14.662525809310237"><ele>1555.0</ele><time>2026-04-12T08:27:53Z</time></trkpt><trkpt lat="37.92449241016066" lon="14.662645929118142"><ele>1555.0</ele><time>2026-04-12T08:27:54Z</time></trkpt><trkpt lat="37.92448484412693" lon="14.662769224981776"><ele>1555.0</ele><time>2026-04-12T08:27:55Z</time></trkpt><trkpt lat="37.92447299982879" lon="14.662892167156063"><ele>1555.0</ele><time>2026-04-12T08:27:56Z</time></trkpt><trkpt lat="37.92447254478788" lon="14.663014954823302"><ele>1555.0</ele><time>2026-04-12T08:27:57Z</time></trkpt><trkpt lat="37.92448754325173" lon="14.663140883028792"><ele>1555.0</ele><time>2026-04-12T08:27:58Z</time></trkpt><trkpt lat="37.92451247428491" lon="14.663267923297285"><ele>1555.4</ele><time>2026-04-12T08:27:59Z</time></trkpt><trkpt lat="37.9245442954825" lon="14.663395657353998"><ele>1555.8</ele><time>2026-04-12T08:28:00Z</time></trkpt><trkpt lat="37.92457891042278" lon="14.663523963345384"><ele>1556.1999999999998</ele><time>2026-04-12T08:28:01Z</time></trkpt><trkpt lat="37.924620078855014" lon="14.663652445784503"><ele>1556.6</ele><time>2026-04-12T08:28:02Z</time></trkpt><trkpt lat="37.924658608536255" lon="14.663780359367134"><ele>1557.0</ele><time>2026-04-12T08:28:03Z</time></trkpt><trkpt lat="37.92469231948668" lon="14.663906987924967"><ele>1557.8</ele><time>2026-04-12T08:28:04Z</time></trkpt><trkpt lat="37.92472102723944" lon="14.664035088519526"><ele>1558.6</ele><time>2026-04-12T08:28:05Z</time></trkpt><trkpt lat="37.92473481671597" lon="14.664165479299738"><ele>1559.3999999999999</ele><time>2026-04-12T08:28:06Z</time></trkpt><trkpt lat="37.92473573907215" lon="14.664296328854574"><ele>1560.1999999999998</ele><time>2026-04-12T08:28:07Z</time></trkpt><trkpt lat="37.924718507259726" lon="14.664427739027229"><ele>1561.0</ele><time>2026-04-12T08:28:08Z</time></trkpt><trkpt lat="37.924683721316896" lon="14.664551682905723"><ele>1561.6</ele><time>2026-04-12T08:28:09Z</time></trkpt><trkpt lat="37.92465538301145" lon="14.664668978248278"><ele>1562.1999999999998</ele><time>2026-04-12T08:28:10Z</time></trkpt><trkpt lat="37.9246370640437" lon="14.664764028275004"><ele>1562.8000000000002</ele><time>2026-04-12T08:28:11Z</time></trkpt><trkpt lat="37.92463002412535" lon="14.664885686067532"><ele>1563.4</ele><time>2026-04-12T08:28:12Z</time></trkpt><trkpt lat="37.924632510185646" lon="14.66500864322807"><ele>1564.0</ele><time>2026-04-12T08:28:13Z</time></trkpt><trkpt lat="37.924651932729844" lon="14.665126773483202"><ele>1564.0</ele><time>2026-04-12T08:28:14Z</time></trkpt><trkpt lat="37.924673634221314" lon="14.665246709184634"><ele>1564.0</ele><time>2026-04-12T08:28:15Z</time></trkpt><trkpt lat="37.92469813164465" lon="14.665364673151638"><ele>1564.0</ele><time>2026-04-12T08:28:16Z</time></trkpt><trkpt lat="37.92471463082423" lon="14.66547946580766"><ele>1564.0</ele><time>2026-04-12T08:28:17Z</time></trkpt><trkpt lat="37.9247318235186" lon="14.665591734686723"><ele>1564.0</ele><time>2026-04-12T08:28:18Z</time></trkpt><trkpt lat="37.92474871989784" lon="14.66569672465842"><ele>1564.2857142857142</ele><time>2026-04-12T08:28:19Z</time></trkpt><trkpt lat="37.924768223533384" lon="14.665789182100541"><ele>1564.5714285714284</ele><time>2026-04-12T08:28:20Z</time></trkpt><trkpt lat="37.92478894635159" lon="14.665868168197962"><ele>1564.8571428571427</ele><time>2026-04-12T08:28:21Z</time></trkpt><trkpt lat="37.92479065447601" lon="14.665976419613143"><ele>1565.142857142857</ele><time>2026-04-12T08:28:23Z</time></trkpt><trkpt lat="37.924808536267506" lon="14.666055126473822"><ele>1565.4285714285716</ele><time>2026-04-12T08:28:26Z</time></trkpt><trkpt lat="37.9248326091722" lon="14.6661495436967"><ele>1565.7142857142856</ele><time>2026-04-12T08:28:28Z</time></trkpt><trkpt lat="37.92483942374244" lon="14.666234952753628"><ele>1566.0</ele><time>2026-04-12T08:28:30Z</time></trkpt><trkpt lat="37.92483781831118" lon="14.666315752278438"><ele>1567.1666666666667</ele><time>2026-04-12T08:28:32Z</time></trkpt><trkpt lat="37.92483523194911" lon="14.66640359864456"><ele>1568.3333333333335</ele><time>2026-04-12T08:28:34Z</time></trkpt><trkpt lat="37.92485483911039" lon="14.666492833100337"><ele>1569.5</ele><time>2026-04-12T08:28:36Z</time></trkpt><trkpt lat="37.924855580569094" lon="14.666598291909501"><ele>1570.6666666666667</ele><time>2026-04-12T08:28:38Z</time></trkpt><trkpt lat="37.924862350515816" lon="14.666715124725211"><ele>1571.8333333333335</ele><time>2026-04-12T08:28:40Z</time></trkpt><trkpt lat="37.92485667016467" lon="14.666834822406386"><ele>1573.0</ele><time>2026-04-12T08:28:42Z</time></trkpt><trkpt lat="37.9248738478009" lon="14.666968987287275"><ele>1574.8000000000002</ele><time>2026-04-12T08:28:44Z</time></trkpt><trkpt lat="37.92491546095449" lon="14.667090038092857"><ele>1576.6</ele><time>2026-04-12T08:28:46Z</time></trkpt><trkpt lat="37.92498018001952" lon="14.66720800304891"><ele>1578.4</ele><time>2026-04-12T08:28:48Z</time></trkpt><trkpt lat="37.92508570209434" lon="14.667279475391819"><ele>1580.1999999999998</ele><time>2026-04-12T08:28:50Z</time></trkpt><trkpt lat="37.92514795061307" lon="14.667308040786395"><ele>1582.0</ele><time>2026-04-12T08:28:51Z</time></trkpt><trkpt lat="37.92526130131523" lon="14.667357029652376"><ele>1582.1999999999998</ele><time>2026-04-12T08:28:53Z</time></trkpt><trkpt lat="37.92536395394625" lon="14.667409394327013"><ele>1582.4</ele><time>2026-04-12T08:28:55Z</time></trkpt><trkpt lat="37.925464291195915" lon="14.667458803790987"><ele>1582.6</ele><time>2026-04-12T08:28:57Z</time></trkpt><trkpt lat="37.92555996155011" lon="14.667505041061009"><ele>1582.8000000000002</ele><time>2026-04-12T08:28:59Z</time></trkpt><trkpt lat="37.925667653290525" lon="14.667553065228304"><ele>1583.0</ele><time>2026-04-12T08:29:01Z</time></trkpt><trkpt lat="37.92578827945508" lon="14.667606567725127"><ele>1582.9999999999998</ele><time>2026-04-12T08:29:03Z</time></trkpt><trkpt lat="37.92584645490698" lon="14.667645358380774"><ele>1583.0</ele><time>2026-04-12T08:29:04Z</time></trkpt><trkpt lat="37.92593773442064" lon="14.667737982557686"><ele>1583.0</ele><time>2026-04-12T08:29:06Z</time></trkpt><trkpt lat="37.925993300693584" lon="14.667828138352437"><ele>1583.0</ele><time>2026-04-12T08:29:08Z</time></trkpt><trkpt lat="37.926016963288035" lon="14.667912427623317"><ele>1582.9999999999998</ele><time>2026-04-12T08:29:10Z</time></trkpt><trkpt lat="37.926042553543134" lon="14.667992161887755"><ele>1583.0</ele><time>2026-04-12T08:29:12Z</time></trkpt><trkpt lat="37.9260549984478" lon="14.668077938531079"><ele>1583.0</ele><time>2026-04-12T08:29:14Z</time></trkpt><trkpt lat="37.92610486218189" lon="14.668170580062203"><ele>1583.0</ele><time>2026-04-12T08:29:16Z</time></trkpt><trkpt lat="37.926177579929416" lon="14.668269963070305"><ele>1583.0</ele><time>2026-04-12T08:29:18Z</time></trkpt><trkpt lat="37.926282070892704" lon="14.668329387157916"><ele>1583.0</ele><time>2026-04-12T08:29:20Z</time></trkpt><trkpt lat="37.92639447183408" lon="14.668365225873552"><ele>1583.0</ele><time>2026-04-12T08:29:22Z</time></trkpt><trkpt lat="37.926506418805666" lon="14.668380464435002"><ele>1583.0</ele><time>2026-04-12T08:29:24Z</time></trkpt><trkpt lat="37.92659593490796" lon="14.668446343222797"><ele>1583.0</ele><time>2026-04-12T08:29:26Z</time></trkpt><trkpt lat="37.926686286725314" lon="14.668522207326085"><ele>1583.0</ele><time>2026-04-12T08:29:28Z</time></trkpt><trkpt lat="37.92674905682612" lon="14.66862087363499"><ele>1583.0</ele><time>2026-04-12T08:29:30Z</time></trkpt><trkpt lat="37.9268080186961" lon="14.668705142769518"><ele>1583.0</ele><time>2026-04-12T08:29:32Z</time></trkpt><trkpt lat="37.9268411486461" lon="14.668792650405823"><ele>1582.4285714285716</ele><time>2026-04-12T08:29:34Z</time></trkpt><trkpt lat="37.92686722571866" lon="14.668890469391439"><ele>1581.857142857143</ele><time>2026-04-12T08:29:36Z</time></trkpt><trkpt lat="37.92688454341905" lon="14.668979700459412"><ele>1581.2857142857142</ele><time>2026-04-12T08:29:38Z</time></trkpt><trkpt lat="37.92690968538484" lon="14.669056844204164"><ele>1580.7142857142858</ele><time>2026-04-12T08:29:40Z</time></trkpt><trkpt lat="37.9269266345485" lon="14.669139157521913"><ele>1580.142857142857</ele><time>2026-04-12T08:29:42Z</time></trkpt><trkpt lat="37.92694698205644" lon="14.66921698588123"><ele>1579.5714285714287</ele><time>2026-04-12T08:29:44Z</time></trkpt><trkpt lat="37.92696629636568" lon="14.669313653795733"><ele>1579.0</ele><time>2026-04-12T08:29:47Z</time></trkpt><trkpt lat="37.92701317060182" lon="14.66941358942556"><ele>1578.8333333333335</ele><time>2026-04-12T08:29:50Z</time></trkpt><trkpt lat="37.927056712377826" lon="14.669478637320083"><ele>1578.6666666666667</ele><time>2026-04-12T08:29:52Z</time></trkpt><trkpt lat="37.92710111127381" lon="14.669559866539556"><ele>1578.5</ele><time>2026-04-12T08:29:55Z</time></trkpt><trkpt lat="37.927158280148134" lon="14.66963548165469"><ele>1578.3333333333335</ele><time>2026-04-12T08:29:58Z</time></trkpt><trkpt lat="37.927214497303666" lon="14.669712712255794"><ele>1578.1666666666667</ele><time>2026-04-12T08:30:01Z</time></trkpt><trkpt lat="37.92727047608502" lon="14.669762701575204"><ele>1578.0</ele><time>2026-04-12T08:30:04Z</time></trkpt><trkpt lat="37.927317380157795" lon="14.669844990110388"><ele>1577.9999999999998</ele><time>2026-04-12T08:30:07Z</time></trkpt><trkpt lat="37.92736392172108" lon="14.669912417532764"><ele>1578.0</ele><time>2026-04-12T08:30:10Z</time></trkpt><trkpt lat="37.927412583249364" lon="14.669993861643679"><ele>1578.0</ele><time>2026-04-12T08:30:13Z</time></trkpt><trkpt lat="37.92745774755769" lon="14.670055249295942"><ele>1578.0</ele><time>2026-04-12T08:30:15Z</time></trkpt><trkpt lat="37.9275064065545" lon="14.670108773532473"><ele>1578.0</ele><time>2026-04-12T08:30:17Z</time></trkpt><trkpt lat="37.92754885400254" lon="14.670173366558375"><ele>1577.9999999999998</ele><time>2026-04-12T08:30:19Z</time></trkpt><trkpt lat="37.92760743106868" lon="14.670266853006343"><ele>1578.0</ele><time>2026-04-12T08:30:22Z</time></trkpt><trkpt lat="37.927653162618746" lon="14.670354152418215"><ele>1575.8333333333333</ele><time>2026-04-12T08:30:25Z</time></trkpt><trkpt lat="37.92768598235616" lon="14.670456444096928"><ele>1573.6666666666665</ele><time>2026-04-12T08:30:28Z</time></trkpt><trkpt lat="37.927730426759155" lon="14.670549817915388"><ele>1571.5</ele><time>2026-04-12T08:30:31Z</time></trkpt><trkpt lat="37.92777570514788" lon="14.670635135957092"><ele>1569.3333333333333</ele><time>2026-04-12T08:30:34Z</time></trkpt><trkpt lat="37.927818955910894" lon="14.670721558065592"><ele>1567.1666666666665</ele><time>2026-04-12T08:30:37Z</time></trkpt><trkpt lat="37.92785665599408" lon="14.67080313215965"><ele>1565.0</ele><time>2026-04-12T08:30:40Z</time></trkpt><trkpt lat="37.92789642073776" lon="14.670901284838765"><ele>1564.9999999999998</ele><time>2026-04-12T08:30:43Z</time></trkpt><trkpt lat="37.92793519325901" lon="14.670986246077732"><ele>1565.0</ele><time>2026-04-12T08:30:46Z</time></trkpt><trkpt lat="37.92797578729846" lon="14.67109207787571"><ele>1565.0</ele><time>2026-04-12T08:30:49Z</time></trkpt><trkpt lat="37.92801297578896" lon="14.671196524292318"><ele>1565.0</ele><time>2026-04-12T08:30:52Z</time></trkpt><trkpt lat="37.92804878825096" lon="14.671263008418201"><ele>1564.9999999999998</ele><time>2026-04-12T08:30:54Z</time></trkpt><trkpt lat="37.92809503769676" lon="14.671365384272095"><ele>1565.0</ele><time>2026-04-12T08:30:57Z</time></trkpt><trkpt lat="37.92812796502135" lon="14.671471436782412"><ele>1565.2857142857144</ele><time>2026-04-12T08:31:00Z</time></trkpt><trkpt lat="37.92815864693624" lon="14.671546744271545"><ele>1565.5714285714287</ele><time>2026-04-12T08:31:02Z</time></trkpt><trkpt lat="37.92818884711489" lon="14.67162862766766"><ele>1565.857142857143</ele><time>2026-04-12T08:31:04Z</time></trkpt><trkpt lat="37.92821689643061" lon="14.671713868885949"><ele>1566.1428571428573</ele><time>2026-04-12T08:31:06Z</time></trkpt><trkpt lat="37.92824392469295" lon="14.671804567870526"><ele>1566.4285714285713</ele><time>2026-04-12T08:31:08Z</time></trkpt><trkpt lat="37.92826947557643" lon="14.671890396287084"><ele>1566.7142857142858</ele><time>2026-04-12T08:31:10Z</time></trkpt><trkpt lat="37.928288542926914" lon="14.671976446236059"><ele>1567.0</ele><time>2026-04-12T08:31:12Z</time></trkpt><trkpt lat="37.92830634735469" lon="14.672077449135633"><ele>1567.0000000000002</ele><time>2026-04-12T08:31:15Z</time></trkpt><trkpt lat="37.92831800843112" lon="14.672185796140173"><ele>1567.0</ele><time>2026-04-12T08:31:19Z</time></trkpt><trkpt lat="37.92832505672216" lon="14.672266170479652"><ele>1567.0</ele><time>2026-04-12T08:31:22Z</time></trkpt><trkpt lat="37.92833298226961" lon="14.672358712995301"><ele>1567.0</ele><time>2026-04-12T08:31:25Z</time></trkpt><trkpt lat="37.928341013941875" lon="14.672475622999652"><ele>1567.0000000000002</ele><time>2026-04-12T08:31:28Z</time></trkpt><trkpt lat="37.92833189253596" lon="14.6725638123317"><ele>1567.0</ele><time>2026-04-12T08:31:30Z</time></trkpt><trkpt lat="37.9283521063646" lon="14.672642103785979"><ele>1567.0</ele><time>2026-04-12T08:31:32Z</time></trkpt><trkpt lat="37.928351866541085" lon="14.672759964431753"><ele>1567.0</ele><time>2026-04-12T08:31:35Z</time></trkpt><trkpt lat="37.928379671124276" lon="14.672837210905014"><ele>1567.0</ele><time>2026-04-12T08:31:37Z</time></trkpt><trkpt lat="37.928405440254316" lon="14.672912319302679"><ele>1567.0</ele><time>2026-04-12T08:31:39Z</time></trkpt><trkpt lat="37.928442055723856" lon="14.672983627414208"><ele>1567.0</ele><time>2026-04-12T08:31:41Z</time></trkpt><trkpt lat="37.928493343300325" lon="14.673053957072717"><ele>1567.0</ele><time>2026-04-12T08:31:43Z</time></trkpt><trkpt lat="37.92854783431949" lon="14.673121779287447"><ele>1567.0</ele><time>2026-04-12T08:31:45Z</time></trkpt><trkpt lat="37.928610346549206" lon="14.673187989882765"><ele>1564.6666666666667</ele><time>2026-04-12T08:31:47Z</time></trkpt><trkpt lat="37.928668638503225" lon="14.673255489716352"><ele>1562.3333333333335</ele><time>2026-04-12T08:31:49Z</time></trkpt><trkpt lat="37.92871210162632" lon="14.673315234395336"><ele>1560.0</ele><time>2026-04-12T08:31:51Z</time></trkpt><trkpt lat="37.92877123598" lon="14.673396680716177"><ele>1557.6666666666665</ele><time>2026-04-12T08:31:54Z</time></trkpt><trkpt lat="37.92882436530712" lon="14.673477604828173"><ele>1555.3333333333333</ele><time>2026-04-12T08:31:57Z</time></trkpt><trkpt lat="37.92887616367632" lon="14.673541092711455"><ele>1553.0</ele><time>2026-04-12T08:32:00Z</time></trkpt><trkpt lat="37.928928864295784" lon="14.673618872730607"><ele>1552.9999999999998</ele><time>2026-04-12T08:32:03Z</time></trkpt><trkpt lat="37.928977901655955" lon="14.673675936705497"><ele>1553.0</ele><time>2026-04-12T08:32:06Z</time></trkpt><trkpt lat="37.9290450795111" lon="14.673754550225427"><ele>1553.0</ele><time>2026-04-12T08:32:31Z</time></trkpt><trkpt lat="37.929104016277016" lon="14.67383328262409"><ele>1553.0</ele><time>2026-04-12T08:32:33Z</time></trkpt><trkpt lat="37.92918549533751" lon="14.673900318947124"><ele>1552.9999999999998</ele><time>2026-04-12T08:32:35Z</time></trkpt><trkpt lat="37.92925121195729" lon="14.673993782683988"><ele>1553.0</ele><time>2026-04-12T08:32:37Z</time></trkpt><trkpt lat="37.92932931644077" lon="14.674075440898196"><ele>1549.0</ele><time>2026-04-12T08:32:39Z</time></trkpt><trkpt lat="37.9294073436561" lon="14.67416618039471"><ele>1545.0</ele><time>2026-04-12T08:32:41Z</time></trkpt><trkpt lat="37.9294927483098" lon="14.674266717857522"><ele>1541.0</ele><time>2026-04-12T08:32:43Z</time></trkpt><trkpt lat="37.9295814131856" lon="14.674349316127834"><ele>1537.0</ele><time>2026-04-12T08:32:45Z</time></trkpt><trkpt lat="37.92969373936209" lon="14.674411042449801"><ele>1537.0</ele><time>2026-04-12T08:32:47Z</time></trkpt><trkpt lat="37.92975610571819" lon="14.674428248303165"><ele>1537.0</ele><time>2026-04-12T08:32:48Z</time></trkpt><trkpt lat="37.929879582930425" lon="14.674450610537395"><ele>1537.0</ele><time>2026-04-12T08:32:50Z</time></trkpt><trkpt lat="37.92998972104081" lon="14.674462700462568"><ele>1537.0</ele><time>2026-04-12T08:32:52Z</time></trkpt><trkpt lat="37.930082281013505" lon="14.674488826583586"><ele>1537.0</ele><time>2026-04-12T08:32:54Z</time></trkpt><trkpt lat="37.93016569524948" lon="14.67451774967571"><ele>1535.0000000000002</ele><time>2026-04-12T08:32:56Z</time></trkpt><trkpt lat="37.93023861136606" lon="14.67454539259737"><ele>1533.0</ele><time>2026-04-12T08:32:58Z</time></trkpt><trkpt lat="37.930309943690695" lon="14.674572435971921"><ele>1531.0</ele><time>2026-04-12T08:33:00Z</time></trkpt><trkpt lat="37.930377089552195" lon="14.67463317998084"><ele>1529.0</ele><time>2026-04-12T08:33:02Z</time></trkpt><trkpt lat="37.930446817690814" lon="14.674697838125375"><ele>1527.0</ele><time>2026-04-12T08:33:04Z</time></trkpt><trkpt lat="37.93050926003531" lon="14.67476441769741"><ele>1525.0</ele><time>2026-04-12T08:33:06Z</time></trkpt><trkpt lat="37.93057332421547" lon="14.67484347611958"><ele>1525.0</ele><time>2026-04-12T08:33:08Z</time></trkpt><trkpt lat="37.93061915948728" lon="14.674927620675957"><ele>1525.0</ele><time>2026-04-12T08:33:10Z</time></trkpt><trkpt lat="37.930663067352704" lon="14.675017698546087"><ele>1525.0</ele><time>2026-04-12T08:33:12Z</time></trkpt><trkpt lat="37.93073092186277" lon="14.675094739795073"><ele>1525.0</ele><time>2026-04-12T08:33:14Z</time></trkpt><trkpt lat="37.930805011353996" lon="14.675164413769986"><ele>1525.0</ele><time>2026-04-12T08:33:16Z</time></trkpt><trkpt lat="37.93090271084798" lon="14.675187248944274"><ele>1525.0</ele><time>2026-04-12T08:33:18Z</time></trkpt><trkpt lat="37.93101516352422" lon="14.6751839353414"><ele>1523.6666666666665</ele><time>2026-04-12T08:33:20Z</time></trkpt><trkpt lat="37.93113765370349" lon="14.67517375895126"><ele>1522.3333333333333</ele><time>2026-04-12T08:33:22Z</time></trkpt><trkpt lat="37.93120085981834" lon="14.675168832023724"><ele>1521.0</ele><time>2026-04-12T08:33:23Z</time></trkpt><trkpt lat="37.93126991205413" lon="14.675167764874296"><ele>1519.6666666666667</ele><time>2026-04-12T08:33:24Z</time></trkpt><trkpt lat="37.9313361592564" lon="14.675156662703433"><ele>1518.3333333333335</ele><time>2026-04-12T08:33:25Z</time></trkpt><trkpt lat="37.931402351906364" lon="14.675147205166503"><ele>1517.0</ele><time>2026-04-12T08:33:26Z</time></trkpt><trkpt lat="37.93152421779478" lon="14.675154499708677"><ele>1517.0</ele><time>2026-04-12T08:33:28Z</time></trkpt><trkpt lat="37.93158829879846" lon="14.675142104907884"><ele>1517.0</ele><time>2026-04-12T08:33:29Z</time></trkpt><trkpt lat="37.93170962428331" lon="14.67514570774893"><ele>1517.0</ele><time>2026-04-12T08:33:31Z</time></trkpt><trkpt lat="37.931812366475" lon="14.675165829414965"><ele>1517.0</ele><time>2026-04-12T08:33:33Z</time></trkpt><trkpt lat="37.93191862998444" lon="14.67517340085425"><ele>1517.0</ele><time>2026-04-12T08:33:35Z</time></trkpt><trkpt lat="37.932017303211595" lon="14.675163630032621"><ele>1516.3999999999999</ele><time>2026-04-12T08:33:37Z</time></trkpt><trkpt lat="37.93211853268952" lon="14.675133782374486"><ele>1515.8</ele><time>2026-04-12T08:33:39Z</time></trkpt><trkpt lat="37.93221814460891" lon="14.675060780434812"><ele>1515.2</ele><time>2026-04-12T08:33:41Z</time></trkpt><trkpt lat="37.9323079924597" lon="14.674965791988491"><ele>1514.6</ele><time>2026-04-12T08:33:43Z</time></trkpt><trkpt lat="37.93238035122218" lon="14.674882847035525"><ele>1514.0</ele><time>2026-04-12T08:33:45Z</time></trkpt><trkpt lat="37.93244581789334" lon="14.674798566152905"><ele>1514.0</ele><time>2026-04-12T08:33:47Z</time></trkpt><trkpt lat="37.93252349233599" lon="14.674739299024163"><ele>1514.0</ele><time>2026-04-12T08:33:49Z</time></trkpt><trkpt lat="37.9325765865816" lon="14.674680830512749"><ele>1514.0</ele><time>2026-04-12T08:33:51Z</time></trkpt><trkpt lat="37.93264837200716" lon="14.674624114111886"><ele>1514.0</ele><time>2026-04-12T08:33:53Z</time></trkpt><trkpt lat="37.93272554768879" lon="14.674560847564962"><ele>1514.0</ele><time>2026-04-12T08:33:55Z</time></trkpt><trkpt lat="37.932808355404944" lon="14.674517961147778"><ele>1514.0</ele><time>2026-04-12T08:33:57Z</time></trkpt><trkpt lat="37.93288984034886" lon="14.674514587169638"><ele>1513.5</ele><time>2026-04-12T08:34:00Z</time></trkpt><trkpt lat="37.93297641292213" lon="14.674493153238409"><ele>1513.0</ele><time>2026-04-12T08:34:03Z</time></trkpt><trkpt lat="37.93306477867325" lon="14.67447694839042"><ele>1512.5</ele><time>2026-04-12T08:34:06Z</time></trkpt><trkpt lat="37.933157458089205" lon="14.674450209121156"><ele>1512.0</ele><time>2026-04-12T08:34:09Z</time></trkpt><trkpt lat="37.93322082777626" lon="14.674439679071101"><ele>1511.5</ele><time>2026-04-12T08:34:11Z</time></trkpt><trkpt lat="37.93328545539579" lon="14.67443005307966"><ele>1511.0</ele><time>2026-04-12T08:34:13Z</time></trkpt><trkpt lat="37.933354318791025" lon="14.674419711493075"><ele>1510.0</ele><time>2026-04-12T08:34:15Z</time></trkpt><trkpt lat="37.93342369548576" lon="14.674437429405499"><ele>1509.0</ele><time>2026-04-12T08:34:17Z</time></trkpt><trkpt lat="37.93349773941208" lon="14.674438233098302"><ele>1508.0</ele><time>2026-04-12T08:34:19Z</time></trkpt><trkpt lat="37.93357563109181" lon="14.674467935625735"><ele>1507.0</ele><time>2026-04-12T08:34:21Z</time></trkpt><trkpt lat="37.933639158191546" lon="14.674508462016398"><ele>1506.0</ele><time>2026-04-12T08:34:23Z</time></trkpt><trkpt lat="37.93369765462144" lon="14.674562204248385"><ele>1505.0</ele><time>2026-04-12T08:34:25Z</time></trkpt><trkpt lat="37.93374757656135" lon="14.674630296479602"><ele>1504.0</ele><time>2026-04-12T08:34:27Z</time></trkpt><trkpt lat="37.933797414270295" lon="14.674698189471616"><ele>1504.0</ele><time>2026-04-12T08:34:29Z</time></trkpt><trkpt lat="37.933866931360356" lon="14.674776122991812"><ele>1504.0</ele><time>2026-04-12T08:34:32Z</time></trkpt><trkpt lat="37.933918400837264" lon="14.674840238784453"><ele>1504.0</ele><time>2026-04-12T08:34:34Z</time></trkpt><trkpt lat="37.93398351925148" lon="14.674862802968434"><ele>1504.0</ele><time>2026-04-12T08:34:36Z</time></trkpt><trkpt lat="37.93405671170803" lon="14.674876138580625"><ele>1504.0</ele><time>2026-04-12T08:34:38Z</time></trkpt><trkpt lat="37.93415292323355" lon="14.674882676150721"><ele>1504.0</ele><time>2026-04-12T08:34:41Z</time></trkpt><trkpt lat="37.934227861964516" lon="14.67487039075814"><ele>1503.8333333333333</ele><time>2026-04-12T08:34:43Z</time></trkpt><trkpt lat="37.934305375750725" lon="14.674881699764828"><ele>1503.6666666666665</ele><time>2026-04-12T08:34:45Z</time></trkpt><trkpt lat="37.93438050123616" lon="14.67487665758356"><ele>1503.5</ele><time>2026-04-12T08:34:47Z</time></trkpt><trkpt lat="37.9344508342024" lon="14.674880463284353"><ele>1503.3333333333333</ele><time>2026-04-12T08:34:49Z</time></trkpt><trkpt lat="37.93453721205643" lon="14.674890234759712"><ele>1503.1666666666667</ele><time>2026-04-12T08:34:52Z</time></trkpt><trkpt lat="37.934614503387024" lon="14.674860125491199"><ele>1503.0</ele><time>2026-04-12T08:34:54Z</time></trkpt><trkpt lat="37.934691293032294" lon="14.674797355008497"><ele>1503.0</ele><time>2026-04-12T08:34:56Z</time></trkpt><trkpt lat="37.934759661283444" lon="14.674725130076986"><ele>1503.0</ele><time>2026-04-12T08:34:58Z</time></trkpt><trkpt lat="37.934823698773094" lon="14.674645727356994"><ele>1503.0</ele><time>2026-04-12T08:35:00Z</time></trkpt><trkpt lat="37.93487756369838" lon="14.674560425236283"><ele>1503.0</ele><time>2026-04-12T08:35:02Z</time></trkpt><trkpt lat="37.93492218913291" lon="14.674462478214876"><ele>1503.0</ele><time>2026-04-12T08:35:04Z</time></trkpt><trkpt lat="37.934980163113245" lon="14.674376964331602"><ele>1503.0</ele><time>2026-04-12T08:35:06Z</time></trkpt><trkpt lat="37.93505011807356" lon="14.674317582973355"><ele>1502.4</ele><time>2026-04-12T08:35:08Z</time></trkpt><trkpt lat="37.935110374597905" lon="14.674239335410308"><ele>1501.8000000000002</ele><time>2026-04-12T08:35:10Z</time></trkpt><trkpt lat="37.93519592245849" lon="14.674210513578513"><ele>1501.2</ele><time>2026-04-12T08:35:12Z</time></trkpt><trkpt lat="37.93527246732118" lon="14.674164329813179"><ele>1500.6</ele><time>2026-04-12T08:35:14Z</time></trkpt><trkpt lat="37.935364475211465" lon="14.67413465720354"><ele>1500.0</ele><time>2026-04-12T08:35:16Z</time></trkpt><trkpt lat="37.93546653740575" lon="14.674098844498804"><ele>1500.0</ele><time>2026-04-12T08:35:18Z</time></trkpt><trkpt lat="37.93555666739459" lon="14.674068106125548"><ele>1500.0</ele><time>2026-04-12T08:35:20Z</time></trkpt><trkpt lat="37.93564418567321" lon="14.674032435375693"><ele>1500.0</ele><time>2026-04-12T08:35:22Z</time></trkpt><trkpt lat="37.93570953473395" lon="14.674025426009413"><ele>1500.0</ele><time>2026-04-12T08:35:24Z</time></trkpt><trkpt lat="37.9357730542861" lon="14.674017282789391"><ele>1500.0</ele><time>2026-04-12T08:35:26Z</time></trkpt><trkpt lat="37.93583835448082" lon="14.673998177763654"><ele>1500.0</ele><time>2026-04-12T08:35:28Z</time></trkpt><trkpt lat="37.93593734040632" lon="14.673959937325472"><ele>1500.8333333333333</ele><time>2026-04-12T08:35:31Z</time></trkpt><trkpt lat="37.936013313198416" lon="14.673947752723468"><ele>1501.6666666666667</ele><time>2026-04-12T08:35:33Z</time></trkpt><trkpt lat="37.93610145009318" lon="14.673947907732593"><ele>1502.5</ele><time>2026-04-12T08:35:36Z</time></trkpt><trkpt lat="37.936172510581315" lon="14.673933122901142"><ele>1503.3333333333335</ele><time>2026-04-12T08:35:38Z</time></trkpt><trkpt lat="37.93625028015255" lon="14.673904490934179"><ele>1504.1666666666667</ele><time>2026-04-12T08:35:40Z</time></trkpt><trkpt lat="37.93634262309973" lon="14.67384345120764"><ele>1505.0</ele><time>2026-04-12T08:35:42Z</time></trkpt><trkpt lat="37.93641654757547" lon="14.673755069571788"><ele>1505.0</ele><time>2026-04-12T08:35:44Z</time></trkpt><trkpt lat="37.936473811072645" lon="14.673643372355064"><ele>1505.0</ele><time>2026-04-12T08:35:46Z</time></trkpt><trkpt lat="37.936555425145926" lon="14.673529347905198"><ele>1505.0</ele><time>2026-04-12T08:35:48Z</time></trkpt><trkpt lat="37.93664465451628" lon="14.673433146253014"><ele>1505.0</ele><time>2026-04-12T08:35:50Z</time></trkpt><trkpt lat="37.936737603373295" lon="14.673346421477106"><ele>1502.8</ele><time>2026-04-12T08:35:52Z</time></trkpt><trkpt lat="37.93684067567107" lon="14.673300749158946"><ele>1500.6</ele><time>2026-04-12T08:35:54Z</time></trkpt><trkpt lat="37.936921546760324" lon="14.673206348272547"><ele>1498.4</ele><time>2026-04-12T08:35:56Z</time></trkpt><trkpt lat="37.93697540693877" lon="14.673140108929397"><ele>1496.2</ele><time>2026-04-12T08:35:58Z</time></trkpt><trkpt lat="37.93702787955672" lon="14.673082903591204"><ele>1494.0</ele><time>2026-04-12T08:36:01Z</time></trkpt><trkpt lat="37.93712434898523" lon="14.673028290483078"><ele>1494.0</ele><time>2026-04-12T08:36:04Z</time></trkpt><trkpt lat="37.93721504433833" lon="14.672979457558428"><ele>1494.0</ele><time>2026-04-12T08:36:06Z</time></trkpt><trkpt lat="37.93728039642088" lon="14.672915939650178"><ele>1494.0</ele><time>2026-04-12T08:36:08Z</time></trkpt><trkpt lat="37.93734263092511" lon="14.672821252971238"><ele>1494.0</ele><time>2026-04-12T08:36:10Z</time></trkpt><trkpt lat="37.937406137131106" lon="14.672725552049862"><ele>1494.0</ele><time>2026-04-12T08:36:12Z</time></trkpt><trkpt lat="37.93747554955045" lon="14.672635779325839"><ele>1492.6</ele><time>2026-04-12T08:36:14Z</time></trkpt><trkpt lat="37.9375693912337" lon="14.6725933753803"><ele>1491.2</ele><time>2026-04-12T08:36:16Z</time></trkpt><trkpt lat="37.937649040401844" lon="14.672513009876049"><ele>1489.8</ele><time>2026-04-12T08:36:18Z</time></trkpt><trkpt lat="37.93772223810885" lon="14.672433324252543"><ele>1488.3999999999999</ele><time>2026-04-12T08:36:20Z</time></trkpt><trkpt lat="37.93778958213093" lon="14.672356981751186"><ele>1487.0</ele><time>2026-04-12T08:36:22Z</time></trkpt><trkpt lat="37.937847932132186" lon="14.67225302608289"><ele>1487.0</ele><time>2026-04-12T08:36:24Z</time></trkpt><trkpt lat="37.937910675397255" lon="14.672156463096451"><ele>1487.0</ele><time>2026-04-12T08:36:26Z</time></trkpt><trkpt lat="37.93796318954233" lon="14.67205686675716"><ele>1487.0</ele><time>2026-04-12T08:36:28Z</time></trkpt><trkpt lat="37.937993098392" lon="14.67195699499671"><ele>1487.0</ele><time>2026-04-12T08:36:30Z</time></trkpt><trkpt lat="37.93805794378027" lon="14.671874707705733"><ele>1487.0</ele><time>2026-04-12T08:36:32Z</time></trkpt><trkpt lat="37.93812695282696" lon="14.671789700667084"><ele>1485.8333333333335</ele><time>2026-04-12T08:36:34Z</time></trkpt><trkpt lat="37.938201156927605" lon="14.671712681564772"><ele>1484.6666666666667</ele><time>2026-04-12T08:36:36Z</time></trkpt><trkpt lat="37.938275909539655" lon="14.67164456776308"><ele>1483.5</ele><time>2026-04-12T08:36:38Z</time></trkpt><trkpt lat="37.93834763949279" lon="14.67158143017687"><ele>1482.3333333333333</ele><time>2026-04-12T08:36:40Z</time></trkpt><trkpt lat="37.93838652639472" lon="14.671514997195036"><ele>1481.1666666666665</ele><time>2026-04-12T08:36:42Z</time></trkpt><trkpt lat="37.93843160465448" lon="14.671455490831468"><ele>1480.0</ele><time>2026-04-12T08:36:45Z</time></trkpt><trkpt lat="37.93845059349601" lon="14.67137175492175"><ele>1478.6666666666665</ele><time>2026-04-12T08:36:48Z</time></trkpt><trkpt lat="37.938497958025614" lon="14.671286460367453"><ele>1477.3333333333333</ele><time>2026-04-12T08:36:51Z</time></trkpt><trkpt lat="37.938544966312044" lon="14.671213871243737"><ele>1476.0</ele><time>2026-04-12T08:36:54Z</time></trkpt><trkpt lat="37.93862122115017" lon="14.671165180453793"><ele>1474.6666666666667</ele><time>2026-04-12T08:36:57Z</time></trkpt><trkpt lat="37.938700524619215" lon="14.671149256410066"><ele>1473.3333333333335</ele><time>2026-04-12T08:36:59Z</time></trkpt><trkpt lat="37.93878711037929" lon="14.671114820962917"><ele>1472.0</ele><time>2026-04-12T08:37:01Z</time></trkpt><trkpt lat="37.93887605441982" lon="14.671084198432261"><ele>1470.1666666666667</ele><time>2026-04-12T08:37:03Z</time></trkpt><trkpt lat="37.938951315448435" lon="14.671040309204585"><ele>1468.3333333333335</ele><time>2026-04-12T08:37:05Z</time></trkpt><trkpt lat="37.93901934213271" lon="14.67102909930354"><ele>1466.5</ele><time>2026-04-12T08:37:07Z</time></trkpt><trkpt lat="37.93911923462681" lon="14.671021619109577"><ele>1464.6666666666667</ele><time>2026-04-12T08:37:10Z</time></trkpt><trkpt lat="37.939213539891334" lon="14.67101749038465"><ele>1462.8333333333333</ele><time>2026-04-12T08:37:12Z</time></trkpt><trkpt lat="37.939295825100075" lon="14.6709764849139"><ele>1461.0</ele><time>2026-04-12T08:37:14Z</time></trkpt><trkpt lat="37.939341218624776" lon="14.670871449327299"><ele>1460.1999999999998</ele><time>2026-04-12T08:37:16Z</time></trkpt><trkpt lat="37.93938417020281" lon="14.670762643628885"><ele>1459.3999999999999</ele><time>2026-04-12T08:37:18Z</time></trkpt><trkpt lat="37.939447327250186" lon="14.67063756692425"><ele>1458.6</ele><time>2026-04-12T08:37:20Z</time></trkpt><trkpt lat="37.939520837046025" lon="14.670540910828947"><ele>1457.8</ele><time>2026-04-12T08:37:22Z</time></trkpt><trkpt lat="37.93958104445179" lon="14.670478328390338"><ele>1457.0</ele><time>2026-04-12T08:37:24Z</time></trkpt><trkpt lat="37.93963525321105" lon="14.670421849397908"><ele>1457.0</ele><time>2026-04-12T08:37:26Z</time></trkpt><trkpt lat="37.93969894626931" lon="14.67037193353259"><ele>1457.0</ele><time>2026-04-12T08:37:28Z</time></trkpt><trkpt lat="37.939765386244765" lon="14.670382770759426"><ele>1457.0</ele><time>2026-04-12T08:37:30Z</time></trkpt><trkpt lat="37.93984114521887" lon="14.670384276513069"><ele>1457.0</ele><time>2026-04-12T08:37:32Z</time></trkpt><trkpt lat="37.93992445964246" lon="14.670408639032528"><ele>1457.0</ele><time>2026-04-12T08:37:34Z</time></trkpt><trkpt lat="37.94001147457052" lon="14.670423351979144"><ele>1457.0</ele><time>2026-04-12T08:37:36Z</time></trkpt><trkpt lat="37.94011945984238" lon="14.670436252500387"><ele>1456.8</ele><time>2026-04-12T08:37:38Z</time></trkpt><trkpt lat="37.94023553434309" lon="14.670468813942449"><ele>1456.6</ele><time>2026-04-12T08:37:40Z</time></trkpt><trkpt lat="37.94033995172927" lon="14.670498740138662"><ele>1456.3999999999999</ele><time>2026-04-12T08:37:42Z</time></trkpt><trkpt lat="37.94043796400912" lon="14.670529701063009"><ele>1456.1999999999998</ele><time>2026-04-12T08:37:44Z</time></trkpt><trkpt lat="37.94053721054306" lon="14.670557543119896"><ele>1456.0</ele><time>2026-04-12T08:37:46Z</time></trkpt><trkpt lat="37.940640902573236" lon="14.670551526435268"><ele>1456.0</ele><time>2026-04-12T08:37:48Z</time></trkpt><trkpt lat="37.94073705487072" lon="14.670561913917584"><ele>1456.0</ele><time>2026-04-12T08:37:50Z</time></trkpt><trkpt lat="37.94082999232233" lon="14.67056701060459"><ele>1456.0</ele><time>2026-04-12T08:37:52Z</time></trkpt><trkpt lat="37.94092026326303" lon="14.670559633851187"><ele>1456.0</ele><time>2026-04-12T08:37:54Z</time></trkpt><trkpt lat="37.94102621919152" lon="14.670568047045741"><ele>1456.0</ele><time>2026-04-12T08:37:56Z</time></trkpt><trkpt lat="37.94112263418646" lon="14.67058253843612"><ele>1456.1666666666665</ele><time>2026-04-12T08:37:58Z</time></trkpt><trkpt lat="37.94119099479854" lon="14.67060751043397"><ele>1456.3333333333333</ele><time>2026-04-12T08:38:00Z</time></trkpt><trkpt lat="37.94126766649658" lon="14.67062811722045"><ele>1456.5</ele><time>2026-04-12T08:38:03Z</time></trkpt><trkpt lat="37.94133160342311" lon="14.670637576513935"><ele>1456.6666666666667</ele><time>2026-04-12T08:38:05Z</time></trkpt><trkpt lat="37.94141299630128" lon="14.670671563860383"><ele>1456.8333333333335</ele><time>2026-04-12T08:38:08Z</time></trkpt><trkpt lat="37.94148463714014" lon="14.670705677530835"><ele>1457.0</ele><time>2026-04-12T08:38:11Z</time></trkpt><trkpt lat="37.941580299377925" lon="14.67067188186762"><ele>1457.0</ele><time>2026-04-12T08:38:59Z</time></trkpt><trkpt lat="37.94167350479803" lon="14.670641674867742"><ele>1457.0</ele><time>2026-04-12T08:39:01Z</time></trkpt><trkpt lat="37.94177002671667" lon="14.67063748677769"><ele>1457.0</ele><time>2026-04-12T08:39:04Z</time></trkpt><trkpt lat="37.941861715327015" lon="14.670643665989077"><ele>1457.0</ele><time>2026-04-12T08:39:06Z</time></trkpt><trkpt lat="37.94192765488355" lon="14.670664490328548"><ele>1457.0</ele><time>2026-04-12T08:39:08Z</time></trkpt><trkpt lat="37.94199913159659" lon="14.670669723001431"><ele>1457.0</ele><time>2026-04-12T08:39:10Z</time></trkpt><trkpt lat="37.94209127478828" lon="14.670683325446292"><ele>1457.6</ele><time>2026-04-12T08:39:12Z</time></trkpt><trkpt lat="37.942182375780334" lon="14.670699509697549"><ele>1458.1999999999998</ele><time>2026-04-12T08:39:14Z</time></trkpt><trkpt lat="37.94226791671968" lon="14.670728338640894"><ele>1458.8</ele><time>2026-04-12T08:39:16Z</time></trkpt><trkpt lat="37.94235215487288" lon="14.670774985247983"><ele>1459.4</ele><time>2026-04-12T08:39:18Z</time></trkpt><trkpt lat="37.94243828876406" lon="14.670816513765779"><ele>1460.0</ele><time>2026-04-12T08:39:20Z</time></trkpt><trkpt lat="37.94251698095352" lon="14.670897271633603"><ele>1460.2</ele><time>2026-04-12T08:39:22Z</time></trkpt><trkpt lat="37.942568103495" lon="14.670986126339898"><ele>1460.4</ele><time>2026-04-12T08:39:24Z</time></trkpt><trkpt lat="37.94265088305936" lon="14.671042699372842"><ele>1460.6</ele><time>2026-04-12T08:39:26Z</time></trkpt><trkpt lat="37.942727233784" lon="14.671123116126276"><ele>1460.8</ele><time>2026-04-12T08:39:28Z</time></trkpt><trkpt lat="37.9427989787745" lon="14.671198017446944"><ele>1461.0</ele><time>2026-04-12T08:39:30Z</time></trkpt><trkpt lat="37.94286259293735" lon="14.67126207467499"><ele>1461.0</ele><time>2026-04-12T08:39:32Z</time></trkpt><trkpt lat="37.94292287315607" lon="14.671288932581833"><ele>1461.0</ele><time>2026-04-12T08:39:34Z</time></trkpt><trkpt lat="37.94298421574751" lon="14.671335516495656"><ele>1461.0</ele><time>2026-04-12T08:39:36Z</time></trkpt><trkpt lat="37.94303575092345" lon="14.671405838108253"><ele>1461.0</ele><time>2026-04-12T08:39:38Z</time></trkpt><trkpt lat="37.943102998454265" lon="14.671462037641192"><ele>1461.0</ele><time>2026-04-12T08:39:40Z</time></trkpt><trkpt lat="37.94317215472861" lon="14.671528115878287"><ele>1461.0</ele><time>2026-04-12T08:39:42Z</time></trkpt><trkpt lat="37.9432476404732" lon="14.671616936888327"><ele>1461.0</ele><time>2026-04-12T08:39:44Z</time></trkpt><trkpt lat="37.94333087779023" lon="14.671688563985885"><ele>1461.0</ele><time>2026-04-12T08:39:46Z</time></trkpt><trkpt lat="37.9434064361987" lon="14.671748917309994"><ele>1461.0</ele><time>2026-04-12T08:39:48Z</time></trkpt><trkpt lat="37.94346911841698" lon="14.671802991417097"><ele>1461.0</ele><time>2026-04-12T08:39:50Z</time></trkpt><trkpt lat="37.943526847003284" lon="14.671871352326438"><ele>1461.0</ele><time>2026-04-12T08:39:53Z</time></trkpt><trkpt lat="37.943567280304634" lon="14.671935775538572"><ele>1461.0</ele><time>2026-04-12T08:39:56Z</time></trkpt><trkpt lat="37.94351244458006" lon="14.672009007066402"><ele>1459.5</ele><time>2026-04-12T08:40:35Z</time></trkpt><trkpt lat="37.94344575043431" lon="14.672038683834796"><ele>1458.0</ele><time>2026-04-12T08:40:37Z</time></trkpt><trkpt lat="37.94338890589096" lon="14.672079447404233"><ele>1456.5</ele><time>2026-04-12T08:40:39Z</time></trkpt><trkpt lat="37.94330358872376" lon="14.672145331617578"><ele>1455.0</ele><time>2026-04-12T08:40:42Z</time></trkpt><trkpt lat="37.94322829819517" lon="14.6722049151919"><ele>1453.5</ele><time>2026-04-12T08:40:45Z</time></trkpt><trkpt lat="37.94316263156165" lon="14.6722382536299"><ele>1452.0</ele><time>2026-04-12T08:40:47Z</time></trkpt><trkpt lat="37.9430915451409" lon="14.672304959383839"><ele>1451.9999999999998</ele><time>2026-04-12T08:40:50Z</time></trkpt><trkpt lat="37.94303937335051" lon="14.672352746220085"><ele>1452.0</ele><time>2026-04-12T08:40:52Z</time></trkpt><trkpt lat="37.94299040115126" lon="14.67240412757869"><ele>1452.0</ele><time>2026-04-12T08:40:54Z</time></trkpt><trkpt lat="37.94290883520746" lon="14.67244973864399"><ele>1452.0</ele><time>2026-04-12T08:40:57Z</time></trkpt><trkpt lat="37.94285903483008" lon="14.672500345128569"><ele>1452.0</ele><time>2026-04-12T08:40:59Z</time></trkpt><trkpt lat="37.94280482700277" lon="14.672543254169923"><ele>1451.9999999999998</ele><time>2026-04-12T08:41:01Z</time></trkpt><trkpt lat="37.94275124567152" lon="14.672593032277254"><ele>1452.0</ele><time>2026-04-12T08:41:03Z</time></trkpt><trkpt lat="37.94269070093096" lon="14.672641876556018"><ele>1452.0</ele><time>2026-04-12T08:41:05Z</time></trkpt><trkpt lat="37.94262733672513" lon="14.67268396298805"><ele>1452.0</ele><time>2026-04-12T08:41:07Z</time></trkpt><trkpt lat="37.94256551566599" lon="14.672745238704225"><ele>1452.0</ele><time>2026-04-12T08:41:09Z</time></trkpt><trkpt lat="37.9425007414659" lon="14.67279883921976"><ele>1452.0</ele><time>2026-04-12T08:41:11Z</time></trkpt><trkpt lat="37.94243348944735" lon="14.67285041541366"><ele>1452.0</ele><time>2026-04-12T08:41:13Z</time></trkpt><trkpt lat="37.94237059044521" lon="14.672909017238961"><ele>1452.0</ele><time>2026-04-12T08:41:15Z</time></trkpt><trkpt lat="37.942295728129025" lon="14.672964840793334"><ele>1451.5</ele><time>2026-04-12T08:41:17Z</time></trkpt><trkpt lat="37.94222155375104" lon="14.673010906403237"><ele>1451.0</ele><time>2026-04-12T08:41:19Z</time></trkpt><trkpt lat="37.94214545719267" lon="14.673063414998046"><ele>1450.5</ele><time>2026-04-12T08:41:21Z</time></trkpt><trkpt lat="37.94205938878636" lon="14.673117892848513"><ele>1450.0</ele><time>2026-04-12T08:41:23Z</time></trkpt><trkpt lat="37.94199428385132" lon="14.673181346303602"><ele>1449.5</ele><time>2026-04-12T08:41:25Z</time></trkpt><trkpt lat="37.94192802161591" lon="14.673235621705437"><ele>1449.0</ele><time>2026-04-12T08:41:27Z</time></trkpt><trkpt lat="37.94185982965551" lon="14.67328220580987"><ele>1449.0</ele><time>2026-04-12T08:41:29Z</time></trkpt><trkpt lat="37.94178632324205" lon="14.673329490316016"><ele>1449.0</ele><time>2026-04-12T08:41:31Z</time></trkpt><trkpt lat="37.941708981680485" lon="14.673365874232642"><ele>1449.0</ele><time>2026-04-12T08:41:33Z</time></trkpt><trkpt lat="37.94164667365184" lon="14.673413181918901"><ele>1449.0</ele><time>2026-04-12T08:41:35Z</time></trkpt><trkpt lat="37.941584023684705" lon="14.673429259324026"><ele>1449.0</ele><time>2026-04-12T08:41:37Z</time></trkpt><trkpt lat="37.941512838782785" lon="14.673420389771906"><ele>1449.0</ele><time>2026-04-12T08:41:40Z</time></trkpt><trkpt lat="37.94148725864744" lon="14.67334401731311"><ele>1449.0</ele><time>2026-04-12T08:44:17Z</time></trkpt><trkpt lat="37.94149859622899" lon="14.673257748002678"><ele>1450.0</ele><time>2026-04-12T08:44:55Z</time></trkpt><trkpt lat="37.94149124971451" lon="14.673340856510773"><ele>1451.0</ele><time>2026-04-12T08:45:47Z</time></trkpt><trkpt lat="37.94145576798723" lon="14.67340906628087"><ele>1452.0</ele><time>2026-04-12T08:46:02Z</time></trkpt><trkpt lat="37.941526238057776" lon="14.673438980214362"><ele>1453.0</ele><time>2026-04-12T08:48:35Z</time></trkpt><trkpt lat="37.941476903086404" lon="14.673388874688866"><ele>1454.0</ele><time>2026-04-12T08:50:34Z</time></trkpt><trkpt lat="37.94141873382615" lon="14.673424364384063"><ele>1455.0</ele><time>2026-04-12T08:50:37Z</time></trkpt><trkpt lat="37.94146113219282" lon="14.673490685325103"><ele>1456.0</ele><time>2026-04-12T08:50:40Z</time></trkpt><trkpt lat="37.94153619980362" lon="14.673492925730857"><ele>1456.0</ele><time>2026-04-12T08:50:43Z</time></trkpt><trkpt lat="37.94161628495298" lon="14.673465006230016"><ele>1456.0</ele><time>2026-04-12T08:50:47Z</time></trkpt><trkpt lat="37.94167183459773" lon="14.673418666652866"><ele>1456.0</ele><time>2026-04-12T08:50:51Z</time></trkpt><trkpt lat="37.94172777563695" lon="14.67336875158308"><ele>1456.0</ele><time>2026-04-12T08:50:54Z</time></trkpt><trkpt lat="37.94181501156432" lon="14.67332853154879"><ele>1456.0</ele><time>2026-04-12T08:50:57Z</time></trkpt><trkpt lat="37.94187554362752" lon="14.67330305573317"><ele>1456.0</ele><time>2026-04-12T08:50:59Z</time></trkpt><trkpt lat="37.941932738324354" lon="14.67326732973551"><ele>1456.0</ele><time>2026-04-12T08:51:01Z</time></trkpt><trkpt lat="37.941984331494126" lon="14.67321571276682"><ele>1455.0</ele><time>2026-04-12T08:51:03Z</time></trkpt><trkpt lat="37.94204255894931" lon="14.673169177825432"><ele>1454.0</ele><time>2026-04-12T08:51:05Z</time></trkpt><trkpt lat="37.94210303008508" lon="14.673122324889102"><ele>1453.0</ele><time>2026-04-12T08:51:07Z</time></trkpt><trkpt lat="37.942162517235445" lon="14.673078955751567"><ele>1452.0</ele><time>2026-04-12T08:51:09Z</time></trkpt><trkpt lat="37.942225234719636" lon="14.67303828057911"><ele>1451.0</ele><time>2026-04-12T08:51:11Z</time></trkpt><trkpt lat="37.942300430213606" lon="14.672979002477657"><ele>1450.0</ele><time>2026-04-12T08:51:14Z</time></trkpt><trkpt lat="37.94236080085986" lon="14.67292381335615"><ele>1449.0</ele><time>2026-04-12T08:51:16Z</time></trkpt><trkpt lat="37.94242352925326" lon="14.672872584823402"><ele>1449.0</ele><time>2026-04-12T08:51:18Z</time></trkpt><trkpt lat="37.9424922176603" lon="14.672816027343744"><ele>1449.0</ele><time>2026-04-12T08:51:20Z</time></trkpt><trkpt lat="37.9425615345491" lon="14.672764860126932"><ele>1449.0</ele><time>2026-04-12T08:51:22Z</time></trkpt><trkpt lat="37.942643093156335" lon="14.672692344319824"><ele>1449.0</ele><time>2026-04-12T08:51:25Z</time></trkpt><trkpt lat="37.942707960990255" lon="14.672648721054316"><ele>1449.0</ele><time>2026-04-12T08:51:27Z</time></trkpt><trkpt lat="37.9427788681165" lon="14.672593398308145"><ele>1449.0</ele><time>2026-04-12T08:51:29Z</time></trkpt><trkpt lat="37.942848501317805" lon="14.67253452589176"><ele>1449.5</ele><time>2026-04-12T08:51:31Z</time></trkpt><trkpt lat="37.942924397660164" lon="14.672469667943151"><ele>1450.0</ele><time>2026-04-12T08:51:33Z</time></trkpt><trkpt lat="37.94298359267961" lon="14.672430633793285"><ele>1450.5</ele><time>2026-04-12T08:51:35Z</time></trkpt><trkpt lat="37.94305532313498" lon="14.672370919506116"><ele>1451.0</ele><time>2026-04-12T08:51:38Z</time></trkpt><trkpt lat="37.94310751235524" lon="14.672322441671126"><ele>1451.5</ele><time>2026-04-12T08:51:40Z</time></trkpt><trkpt lat="37.943160221300595" lon="14.672277903780092"><ele>1452.0</ele><time>2026-04-12T08:51:42Z</time></trkpt><trkpt lat="37.94324102321613" lon="14.672218663133506"><ele>1452.0</ele><time>2026-04-12T08:51:45Z</time></trkpt><trkpt lat="37.94330523423648" lon="14.672166851774286"><ele>1452.0</ele><time>2026-04-12T08:51:47Z</time></trkpt><trkpt lat="37.94338414175803" lon="14.672110702728807"><ele>1452.0</ele><time>2026-04-12T08:51:50Z</time></trkpt><trkpt lat="37.94344044246132" lon="14.672070209937157"><ele>1452.0</ele><time>2026-04-12T08:51:52Z</time></trkpt><trkpt lat="37.94350125571017" lon="14.67202747091699"><ele>1452.0</ele><time>2026-04-12T08:51:54Z</time></trkpt><trkpt lat="37.943559181384714" lon="14.671959445770192"><ele>1452.0</ele><time>2026-04-12T08:51:57Z</time></trkpt><trkpt lat="37.94357085439507" lon="14.671850403327038"><ele>1453.5</ele><time>2026-04-12T08:52:00Z</time></trkpt><trkpt lat="37.943508305507734" lon="14.671767855734187"><ele>1455.0</ele><time>2026-04-12T08:52:02Z</time></trkpt><trkpt lat="37.94344304974524" lon="14.671708697241158"><ele>1456.5</ele><time>2026-04-12T08:52:04Z</time></trkpt><trkpt lat="37.943375310321485" lon="14.671648483138679"><ele>1458.0</ele><time>2026-04-12T08:52:06Z</time></trkpt><trkpt lat="37.94332056598453" lon="14.671568613427524"><ele>1459.5</ele><time>2026-04-12T08:52:08Z</time></trkpt><trkpt lat="37.94326066157331" lon="14.671510372947248"><ele>1461.0</ele><time>2026-04-12T08:52:10Z</time></trkpt><trkpt lat="37.943205721939705" lon="14.671460257337413"><ele>1461.0</ele><time>2026-04-12T08:52:12Z</time></trkpt><trkpt lat="37.94314922594873" lon="14.671398652989685"><ele>1461.0</ele><time>2026-04-12T08:52:14Z</time></trkpt><trkpt lat="37.943091425841374" lon="14.671343054597566"><ele>1461.0</ele><time>2026-04-12T08:52:16Z</time></trkpt><trkpt lat="37.943048685413224" lon="14.671283556277029"><ele>1461.0</ele><time>2026-04-12T08:52:18Z</time></trkpt><trkpt lat="37.94299096087637" lon="14.671228266004984"><ele>1461.0</ele><time>2026-04-12T08:52:21Z</time></trkpt><trkpt lat="37.94293387999747" lon="14.671176656886539"><ele>1461.0</ele><time>2026-04-12T08:52:24Z</time></trkpt><trkpt lat="37.94287470099049" lon="14.671114873396633"><ele>1461.0</ele><time>2026-04-12T08:52:27Z</time></trkpt><trkpt lat="37.94281008925922" lon="14.671042107615706"><ele>1460.8333333333333</ele><time>2026-04-12T08:52:29Z</time></trkpt><trkpt lat="37.94273444698958" lon="14.670983493232715"><ele>1460.6666666666667</ele><time>2026-04-12T08:52:31Z</time></trkpt><trkpt lat="37.942641758185665" lon="14.670927969906383"><ele>1460.5</ele><time>2026-04-12T08:52:34Z</time></trkpt><trkpt lat="37.94257228869877" lon="14.67084894871523"><ele>1460.3333333333335</ele><time>2026-04-12T08:52:37Z</time></trkpt><trkpt lat="37.942499932147626" lon="14.670771916864263"><ele>1460.1666666666667</ele><time>2026-04-12T08:52:40Z</time></trkpt><trkpt lat="37.94244811196477" lon="14.670725273504772"><ele>1460.0</ele><time>2026-04-12T08:52:42Z</time></trkpt><trkpt lat="37.94233042180501" lon="14.670666113609874"><ele>1460.0</ele><time>2026-04-12T08:52:43Z</time></trkpt><trkpt lat="37.9422213276683" lon="14.67063020808075"><ele>1460.0</ele><time>2026-04-12T08:52:45Z</time></trkpt><trkpt lat="37.942132794991885" lon="14.670599448832949"><ele>1460.0</ele><time>2026-04-12T08:52:47Z</time></trkpt><trkpt lat="37.94204971196763" lon="14.670587250763026"><ele>1460.0</ele><time>2026-04-12T08:52:49Z</time></trkpt><trkpt lat="37.941934032401264" lon="14.670556041071713"><ele>1460.0</ele><time>2026-04-12T08:52:51Z</time></trkpt><trkpt lat="37.94184489590213" lon="14.670556367089311"><ele>1460.0</ele><time>2026-04-12T08:52:53Z</time></trkpt><trkpt lat="37.94172705592448" lon="14.670553238364668"><ele>1460.0</ele><time>2026-04-12T08:52:56Z</time></trkpt><trkpt lat="37.941650016751055" lon="14.670536961942483"><ele>1460.0</ele><time>2026-04-12T08:52:58Z</time></trkpt><trkpt lat="37.94155787415009" lon="14.67054042005059"><ele>1460.0</ele><time>2026-04-12T08:53:00Z</time></trkpt><trkpt lat="37.941485050472906" lon="14.670558128499087"><ele>1460.0</ele><time>2026-04-12T08:53:02Z</time></trkpt><trkpt lat="37.941410038282804" lon="14.670546132203206"><ele>1460.0</ele><time>2026-04-12T08:53:04Z</time></trkpt><trkpt lat="37.94132944389784" lon="14.670554215141347"><ele>1459.4</ele><time>2026-04-12T08:53:06Z</time></trkpt><trkpt lat="37.94125027908755" lon="14.670535109776369"><ele>1458.8</ele><time>2026-04-12T08:53:08Z</time></trkpt><trkpt lat="37.94116091306069" lon="14.670517578247155"><ele>1458.1999999999998</ele><time>2026-04-12T08:53:11Z</time></trkpt><trkpt lat="37.94107266024754" lon="14.670497016870753"><ele>1457.6</ele><time>2026-04-12T08:53:13Z</time></trkpt><trkpt lat="37.9409718998087" lon="14.670480541778298"><ele>1457.0</ele><time>2026-04-12T08:53:15Z</time></trkpt><trkpt lat="37.94087982987995" lon="14.670503403879328"><ele>1456.8</ele><time>2026-04-12T08:53:17Z</time></trkpt><trkpt lat="37.94079174861076" lon="14.670478517332308"><ele>1456.6</ele><time>2026-04-12T08:53:19Z</time></trkpt><trkpt lat="37.94070304340644" lon="14.67046027237541"><ele>1456.3999999999999</ele><time>2026-04-12T08:53:21Z</time></trkpt><trkpt lat="37.94060661358759" lon="14.670474247944881"><ele>1456.1999999999998</ele><time>2026-04-12T08:53:23Z</time></trkpt><trkpt lat="37.940508171861836" lon="14.670484100082039"><ele>1456.0</ele><time>2026-04-12T08:53:25Z</time></trkpt><trkpt lat="37.94040249259115" lon="14.670448232922853"><ele>1456.0</ele><time>2026-04-12T08:53:27Z</time></trkpt><trkpt lat="37.940319220365396" lon="14.67041764776616"><ele>1456.0</ele><time>2026-04-12T08:53:29Z</time></trkpt><trkpt lat="37.94022355706107" lon="14.670387680298711"><ele>1456.0</ele><time>2026-04-12T08:53:31Z</time></trkpt><trkpt lat="37.94013909894738" lon="14.670381251510747"><ele>1456.0</ele><time>2026-04-12T08:53:33Z</time></trkpt><trkpt lat="37.940047146649135" lon="14.670358588434562"><ele>1456.0</ele><time>2026-04-12T08:53:35Z</time></trkpt><trkpt lat="37.93995821311602" lon="14.670326603518438"><ele>1456.1666666666665</ele><time>2026-04-12T08:53:37Z</time></trkpt><trkpt lat="37.93986354324267" lon="14.67033436746542"><ele>1456.3333333333333</ele><time>2026-04-12T08:53:39Z</time></trkpt><trkpt lat="37.93977288482035" lon="14.670317714586009"><ele>1456.5</ele><time>2026-04-12T08:53:41Z</time></trkpt><trkpt lat="37.939683770605136" lon="14.670360694615063"><ele>1456.6666666666667</ele><time>2026-04-12T08:53:44Z</time></trkpt><trkpt lat="37.93960810676187" lon="14.670406791010803"><ele>1456.8333333333335</ele><time>2026-04-12T08:53:46Z</time></trkpt><trkpt lat="37.939543758433835" lon="14.670467054378816"><ele>1457.0</ele><time>2026-04-12T08:53:48Z</time></trkpt><trkpt lat="37.939492702408465" lon="14.670537663760156"><ele>1457.0</ele><time>2026-04-12T08:53:50Z</time></trkpt><trkpt lat="37.939436987209504" lon="14.670615001060908"><ele>1457.0</ele><time>2026-04-12T08:53:52Z</time></trkpt><trkpt lat="37.939389590374965" lon="14.670720698578517"><ele>1457.0</ele><time>2026-04-12T08:53:54Z</time></trkpt><trkpt lat="37.93935842179305" lon="14.670833902341597"><ele>1457.0</ele><time>2026-04-12T08:53:56Z</time></trkpt><trkpt lat="37.93930573793896" lon="14.670911073036796"><ele>1457.0</ele><time>2026-04-12T08:53:58Z</time></trkpt><trkpt lat="37.93923067941085" lon="14.670938613514197"><ele>1457.0</ele><time>2026-04-12T08:54:00Z</time></trkpt><trkpt lat="37.939144145478465" lon="14.670943354578368"><ele>1457.8</ele><time>2026-04-12T08:54:02Z</time></trkpt><trkpt lat="37.939052700421506" lon="14.670927702918954"><ele>1458.6</ele><time>2026-04-12T08:54:04Z</time></trkpt><trkpt lat="37.938967465918594" lon="14.670955027553092"><ele>1459.3999999999999</ele><time>2026-04-12T08:54:06Z</time></trkpt><trkpt lat="37.93887554499936" lon="14.6709654672341"><ele>1460.1999999999998</ele><time>2026-04-12T08:54:08Z</time></trkpt><trkpt lat="37.93878920720731" lon="14.67100120066571"><ele>1461.0</ele><time>2026-04-12T08:54:10Z</time></trkpt><trkpt lat="37.93867722548704" lon="14.671035263250106"><ele>1461.0</ele><time>2026-04-12T08:54:12Z</time></trkpt><trkpt lat="37.9386014605681" lon="14.67106239627022"><ele>1461.0</ele><time>2026-04-12T08:54:14Z</time></trkpt><trkpt lat="37.93853332535598" lon="14.67112527487962"><ele>1461.0</ele><time>2026-04-12T08:54:17Z</time></trkpt><trkpt lat="37.93847861626652" lon="14.671230565852763"><ele>1461.0</ele><time>2026-04-12T08:54:19Z</time></trkpt><trkpt lat="37.9384316115061" lon="14.671299696968694"><ele>1461.0</ele><time>2026-04-12T08:54:21Z</time></trkpt><trkpt lat="37.93841383302282" lon="14.671386958879118"><ele>1461.0</ele><time>2026-04-12T08:54:23Z</time></trkpt><trkpt lat="37.93836090131825" lon="14.671474117523479"><ele>1463.7142857142856</ele><time>2026-04-12T08:54:26Z</time></trkpt><trkpt lat="37.9382926066865" lon="14.671501978191376"><ele>1466.4285714285716</ele><time>2026-04-12T08:54:28Z</time></trkpt><trkpt lat="37.93823494375387" lon="14.671552833907366"><ele>1469.142857142857</ele><time>2026-04-12T08:54:30Z</time></trkpt><trkpt lat="37.93819178726557" lon="14.671615545257097"><ele>1471.8571428571427</ele><time>2026-04-12T08:54:32Z</time></trkpt><trkpt lat="37.938150148570365" lon="14.671682105562834"><ele>1474.5714285714284</ele><time>2026-04-12T08:54:34Z</time></trkpt><trkpt lat="37.938097376779425" lon="14.671743311612126"><ele>1477.2857142857142</ele><time>2026-04-12T08:54:36Z</time></trkpt><trkpt lat="37.93804359427622" lon="14.671796166658266"><ele>1480.0</ele><time>2026-04-12T08:54:38Z</time></trkpt><trkpt lat="37.93798688323671" lon="14.6718855261089"><ele>1481.1666666666665</ele><time>2026-04-12T08:54:41Z</time></trkpt><trkpt lat="37.93794030506658" lon="14.671985478427997"><ele>1482.3333333333333</ele><time>2026-04-12T08:54:44Z</time></trkpt><trkpt lat="37.937902967283776" lon="14.672053566927087"><ele>1483.5</ele><time>2026-04-12T08:54:46Z</time></trkpt><trkpt lat="37.937850646279614" lon="14.672142755897635"><ele>1484.6666666666667</ele><time>2026-04-12T08:54:49Z</time></trkpt><trkpt lat="37.9377993645335" lon="14.672214279412067"><ele>1485.8333333333335</ele><time>2026-04-12T08:55:02Z</time></trkpt><trkpt lat="37.937760681364786" lon="14.672278580130932"><ele>1487.0</ele><time>2026-04-12T08:55:04Z</time></trkpt><trkpt lat="37.93770433902994" lon="14.672373301323697"><ele>1487.0</ele><time>2026-04-12T08:55:07Z</time></trkpt><trkpt lat="37.93764412479822" lon="14.672416698330043"><ele>1487.0</ele><time>2026-04-12T08:55:09Z</time></trkpt><trkpt lat="37.93756993517706" lon="14.672485100359838"><ele>1487.0</ele><time>2026-04-12T08:55:11Z</time></trkpt><trkpt lat="37.937503369955344" lon="14.67253979615303"><ele>1487.0</ele><time>2026-04-12T08:55:13Z</time></trkpt><trkpt lat="37.93743464925843" lon="14.672600262118557"><ele>1487.0</ele><time>2026-04-12T08:55:15Z</time></trkpt><trkpt lat="37.93737846115012" lon="14.672699158017306"><ele>1487.0</ele><time>2026-04-12T08:55:17Z</time></trkpt><trkpt lat="37.93732134998205" lon="14.672779363472214"><ele>1488.3999999999999</ele><time>2026-04-12T08:55:19Z</time></trkpt><trkpt lat="37.937245559082456" lon="14.672871408440377"><ele>1489.8</ele><time>2026-04-12T08:55:21Z</time></trkpt><trkpt lat="37.93715857150828" lon="14.672921413598267"><ele>1491.2</ele><time>2026-04-12T08:55:23Z</time></trkpt><trkpt lat="37.93710247610369" lon="14.672962511490402"><ele>1492.6</ele><time>2026-04-12T08:55:24Z</time></trkpt><trkpt lat="37.93702129551296" lon="14.672996044358982"><ele>1494.0</ele><time>2026-04-12T08:55:26Z</time></trkpt><trkpt lat="37.93693461106565" lon="14.673079517867102"><ele>1494.0</ele><time>2026-04-12T08:55:28Z</time></trkpt><trkpt lat="37.93683990239738" lon="14.673163286042884"><ele>1494.0</ele><time>2026-04-12T08:55:30Z</time></trkpt><trkpt lat="37.93674412831236" lon="14.673236328005455"><ele>1494.0</ele><time>2026-04-12T08:55:32Z</time></trkpt><trkpt lat="37.93664967017866" lon="14.673318590733281"><ele>1494.0</ele><time>2026-04-12T08:55:34Z</time></trkpt><trkpt lat="37.93656788097171" lon="14.673427456589048"><ele>1493.2</ele><time>2026-04-12T08:55:36Z</time></trkpt><trkpt lat="37.93652550954167" lon="14.67348666584334"><ele>1492.4</ele><time>2026-04-12T08:55:37Z</time></trkpt><trkpt lat="37.93646219746205" lon="14.673610309845996"><ele>1491.6</ele><time>2026-04-12T08:55:39Z</time></trkpt><trkpt lat="37.93638958539164" lon="14.673719590682076"><ele>1490.8</ele><time>2026-04-12T08:55:41Z</time></trkpt><trkpt lat="37.936281341914984" lon="14.673769685663268"><ele>1490.0</ele><time>2026-04-12T08:55:43Z</time></trkpt><trkpt lat="37.93620805875136" lon="14.673786638938951"><ele>1491.6666666666667</ele><time>2026-04-12T08:55:45Z</time></trkpt><trkpt lat="37.93613705836495" lon="14.673808962116043"><ele>1493.3333333333335</ele><time>2026-04-12T08:55:47Z</time></trkpt><trkpt lat="37.936060613807236" lon="14.673845768311955"><ele>1495.0</ele><time>2026-04-12T08:55:49Z</time></trkpt><trkpt lat="37.93597867073917" lon="14.673859373242493"><ele>1496.6666666666667</ele><time>2026-04-12T08:55:51Z</time></trkpt><trkpt lat="37.935914707926884" lon="14.673868898511127"><ele>1498.3333333333333</ele><time>2026-04-12T08:55:53Z</time></trkpt><trkpt lat="37.935846579186915" lon="14.673880593551774"><ele>1500.0</ele><time>2026-04-12T08:55:55Z</time></trkpt><trkpt lat="37.93576800247123" lon="14.673904299038243"><ele>1500.0</ele><time>2026-04-12T08:55:57Z</time></trkpt><trkpt lat="37.935694407364124" lon="14.673924748653926"><ele>1500.0</ele><time>2026-04-12T08:55:59Z</time></trkpt><trkpt lat="37.93562535560867" lon="14.673951103128779"><ele>1500.0</ele><time>2026-04-12T08:56:01Z</time></trkpt><trkpt lat="37.93554787602126" lon="14.673991075185102"><ele>1500.0</ele><time>2026-04-12T08:56:03Z</time></trkpt><trkpt lat="37.935457437596945" lon="14.674010125995226"><ele>1500.0</ele><time>2026-04-12T08:56:05Z</time></trkpt><trkpt lat="37.93535799626924" lon="14.674045221361713"><ele>1500.0</ele><time>2026-04-12T08:56:07Z</time></trkpt><trkpt lat="37.9352621598239" lon="14.674065639906994"><ele>1500.0</ele><time>2026-04-12T08:56:09Z</time></trkpt><trkpt lat="37.935169728993316" lon="14.67408475605253"><ele>1500.0</ele><time>2026-04-12T08:56:11Z</time></trkpt><trkpt lat="37.935075337433425" lon="14.674161319004854"><ele>1500.0</ele><time>2026-04-12T08:56:13Z</time></trkpt><trkpt lat="37.93499546936778" lon="14.674262685059407"><ele>1500.0</ele><time>2026-04-12T08:56:15Z</time></trkpt><trkpt lat="37.93495098700839" lon="14.674326748347667"><ele>1500.0</ele><time>2026-04-12T08:56:16Z</time></trkpt><trkpt lat="37.9348888365486" lon="14.6744437414511"><ele>1500.6</ele><time>2026-04-12T08:56:18Z</time></trkpt><trkpt lat="37.93482485924361" lon="14.674568359489724"><ele>1501.2</ele><time>2026-04-12T08:56:20Z</time></trkpt><trkpt lat="37.93474863187582" lon="14.674677618760109"><ele>1501.8000000000002</ele><time>2026-04-12T08:56:22Z</time></trkpt><trkpt lat="37.934666615739005" lon="14.67476892856663"><ele>1502.4</ele><time>2026-04-12T08:56:24Z</time></trkpt><trkpt lat="37.93458339399337" lon="14.674817656100577"><ele>1503.0</ele><time>2026-04-12T08:56:26Z</time></trkpt><trkpt lat="37.934482909838586" lon="14.674820027998338"><ele>1503.0</ele><time>2026-04-12T08:56:28Z</time></trkpt><trkpt lat="37.9343946989823" lon="14.674805048983242"><ele>1503.0</ele><time>2026-04-12T08:56:30Z</time></trkpt><trkpt lat="37.934287596762495" lon="14.674775805936848"><ele>1503.0</ele><time>2026-04-12T08:56:32Z</time></trkpt><trkpt lat="37.934170335933544" lon="14.674767023262246"><ele>1503.0</ele><time>2026-04-12T08:56:34Z</time></trkpt><trkpt lat="37.93406797208731" lon="14.674787360515651"><ele>1503.0</ele><time>2026-04-12T08:56:36Z</time></trkpt><trkpt lat="37.93395159445524" lon="14.674750708621321"><ele>1503.2</ele><time>2026-04-12T08:56:38Z</time></trkpt><trkpt lat="37.93387500773518" lon="14.67467419000135"><ele>1503.4</ele><time>2026-04-12T08:56:40Z</time></trkpt><trkpt lat="37.93385185857539" lon="14.674585506819076"><ele>1503.6000000000001</ele><time>2026-04-12T08:56:42Z</time></trkpt><trkpt lat="37.93377767128097" lon="14.674503374352717"><ele>1503.8000000000002</ele><time>2026-04-12T08:56:44Z</time></trkpt><trkpt lat="37.933677430076976" lon="14.674437617801225"><ele>1504.0</ele><time>2026-04-12T08:56:46Z</time></trkpt><trkpt lat="37.933593246932986" lon="14.67437648334542"><ele>1503.142857142857</ele><time>2026-04-12T08:56:48Z</time></trkpt><trkpt lat="37.933531877688615" lon="14.674344917832105"><ele>1502.2857142857142</ele><time>2026-04-12T08:56:49Z</time></trkpt><trkpt lat="37.93346775586061" lon="14.674324867374864"><ele>1501.4285714285716</ele><time>2026-04-12T08:56:50Z</time></trkpt><trkpt lat="37.933393225314575" lon="14.674320796748257"><ele>1500.5714285714284</ele><time>2026-04-12T08:56:51Z</time></trkpt><trkpt lat="37.93332117128354" lon="14.674331421397651"><ele>1499.7142857142858</ele><time>2026-04-12T08:56:52Z</time></trkpt><trkpt lat="37.933254089816664" lon="14.674347636119444"><ele>1498.857142857143</ele><time>2026-04-12T08:56:53Z</time></trkpt><trkpt lat="37.93318923100454" lon="14.674374181817905"><ele>1498.0</ele><time>2026-04-12T08:56:54Z</time></trkpt><trkpt lat="37.933080963487456" lon="14.674410129132541"><ele>1498.0</ele><time>2026-04-12T08:56:56Z</time></trkpt><trkpt lat="37.93296455743395" lon="14.674440271919321"><ele>1498.0</ele><time>2026-04-12T08:56:58Z</time></trkpt><trkpt lat="37.93285123722459" lon="14.674434265743436"><ele>1498.0</ele><time>2026-04-12T08:57:00Z</time></trkpt><trkpt lat="37.932746648691406" lon="14.674477557000364"><ele>1498.0</ele><time>2026-04-12T08:57:02Z</time></trkpt><trkpt lat="37.93264553613004" lon="14.674554201319744"><ele>1501.2</ele><time>2026-04-12T08:57:04Z</time></trkpt><trkpt lat="37.932534306788796" lon="14.674638142551576"><ele>1504.4</ele><time>2026-04-12T08:57:06Z</time></trkpt><trkpt lat="37.93243837212698" lon="14.674751717312537"><ele>1507.6000000000001</ele><time>2026-04-12T08:57:08Z</time></trkpt><trkpt lat="37.93238785135469" lon="14.674802465941967"><ele>1510.8000000000002</ele><time>2026-04-12T08:57:09Z</time></trkpt><trkpt lat="37.93229606942862" lon="14.674886947051428"><ele>1514.0</ele><time>2026-04-12T08:57:11Z</time></trkpt><trkpt lat="37.93224475178791" lon="14.67493848543155"><ele>1514.0</ele><time>2026-04-12T08:57:12Z</time></trkpt><trkpt lat="37.93215671413767" lon="14.675024405574014"><ele>1514.0</ele><time>2026-04-12T08:57:14Z</time></trkpt><trkpt lat="37.932074707775755" lon="14.675078327183883"><ele>1514.0</ele><time>2026-04-12T08:57:16Z</time></trkpt><trkpt lat="37.93197384049631" lon="14.67511420977881"><ele>1514.0</ele><time>2026-04-12T08:57:18Z</time></trkpt><trkpt lat="37.93186705731551" lon="14.675115054995919"><ele>1514.0</ele><time>2026-04-12T08:57:20Z</time></trkpt><trkpt lat="37.93176986376702" lon="14.675114340561015"><ele>1514.6</ele><time>2026-04-12T08:57:22Z</time></trkpt><trkpt lat="37.93168232933777" lon="14.675106774478435"><ele>1515.2</ele><time>2026-04-12T08:57:24Z</time></trkpt><trkpt lat="37.93158853978256" lon="14.675088664995396"><ele>1515.8</ele><time>2026-04-12T08:57:26Z</time></trkpt><trkpt lat="37.93147429215544" lon="14.675107412331737"><ele>1516.3999999999999</ele><time>2026-04-12T08:57:28Z</time></trkpt><trkpt lat="37.93136005450587" lon="14.675115128158183"><ele>1517.0</ele><time>2026-04-12T08:57:30Z</time></trkpt><trkpt lat="37.93123832459155" lon="14.675137574978764"><ele>1517.0</ele><time>2026-04-12T08:57:32Z</time></trkpt><trkpt lat="37.931111781589834" lon="14.675135580010487"><ele>1517.0</ele><time>2026-04-12T08:57:34Z</time></trkpt><trkpt lat="37.931049059146744" lon="14.675144129167151"><ele>1517.0</ele><time>2026-04-12T08:57:35Z</time></trkpt><trkpt lat="37.930931844429274" lon="14.675157149164574"><ele>1517.0</ele><time>2026-04-12T08:57:37Z</time></trkpt><trkpt lat="37.930838459930065" lon="14.675122758983152"><ele>1517.0</ele><time>2026-04-12T08:57:39Z</time></trkpt><trkpt lat="37.930756820547366" lon="14.67506322177092"><ele>1519.0</ele><time>2026-04-12T08:57:41Z</time></trkpt><trkpt lat="37.93068924890448" lon="14.674951106252697"><ele>1521.0</ele><time>2026-04-12T08:57:43Z</time></trkpt><trkpt lat="37.93060118287098" lon="14.674855147986817"><ele>1523.0</ele><time>2026-04-12T08:57:45Z</time></trkpt><trkpt lat="37.93053146524786" lon="14.67474372085969"><ele>1525.0</ele><time>2026-04-12T08:57:47Z</time></trkpt><trkpt lat="37.93046161202896" lon="14.674626035110318"><ele>1525.0</ele><time>2026-04-12T08:57:49Z</time></trkpt><trkpt lat="37.93040738696761" lon="14.674571363344985"><ele>1525.0</ele><time>2026-04-12T08:57:50Z</time></trkpt><trkpt lat="37.93034253319896" lon="14.674525280807666"><ele>1525.0</ele><time>2026-04-12T08:57:51Z</time></trkpt><trkpt lat="37.930275743185845" lon="14.674493561407596"><ele>1525.0</ele><time>2026-04-12T08:57:52Z</time></trkpt><trkpt lat="37.93021058576167" lon="14.674470423183834"><ele>1525.0</ele><time>2026-04-12T08:57:53Z</time></trkpt><trkpt lat="37.93014829284984" lon="14.674455852669318"><ele>1525.0</ele><time>2026-04-12T08:57:54Z</time></trkpt><trkpt lat="37.93003128347009" lon="14.674421682804507"><ele>1527.0</ele><time>2026-04-12T08:57:56Z</time></trkpt><trkpt lat="37.92991513115077" lon="14.674404784618725"><ele>1529.0</ele><time>2026-04-12T08:57:58Z</time></trkpt><trkpt lat="37.92980155248936" lon="14.674390641682772"><ele>1531.0</ele><time>2026-04-12T08:58:00Z</time></trkpt><trkpt lat="37.929737742625285" lon="14.674373231129122"><ele>1533.0</ele><time>2026-04-12T08:58:01Z</time></trkpt><trkpt lat="37.92966990727159" lon="14.674346659770885"><ele>1535.0000000000002</ele><time>2026-04-12T08:58:02Z</time></trkpt><trkpt lat="37.92959975877682" lon="14.67431168432777"><ele>1537.0</ele><time>2026-04-12T08:58:03Z</time></trkpt><trkpt lat="37.929537816200806" lon="14.674249661905385"><ele>1537.0000000000002</ele><time>2026-04-12T08:58:04Z</time></trkpt><trkpt lat="37.92949074082034" lon="14.674188166130264"><ele>1537.0</ele><time>2026-04-12T08:58:05Z</time></trkpt><trkpt lat="37.92944116396773" lon="14.674121407501747"><ele>1537.0</ele><time>2026-04-12T08:58:06Z</time></trkpt><trkpt lat="37.92939034936512" lon="14.674056996913976"><ele>1537.0</ele><time>2026-04-12T08:58:07Z</time></trkpt><trkpt lat="37.929336240574315" lon="14.673990497162713"><ele>1537.0</ele><time>2026-04-12T08:58:08Z</time></trkpt><trkpt lat="37.92928063303922" lon="14.673925349339855"><ele>1537.0000000000002</ele><time>2026-04-12T08:58:09Z</time></trkpt><trkpt lat="37.92922563315468" lon="14.673861075774065"><ele>1537.0</ele><time>2026-04-12T08:58:10Z</time></trkpt><trkpt lat="37.9291741495078" lon="14.673802122400632"><ele>1538.6666666666667</ele><time>2026-04-12T08:58:11Z</time></trkpt><trkpt lat="37.92912253089294" lon="14.673743003201778"><ele>1540.3333333333335</ele><time>2026-04-12T08:58:12Z</time></trkpt><trkpt lat="37.92906034756583" lon="14.673697619260103"><ele>1542.0</ele><time>2026-04-12T08:58:13Z</time></trkpt><trkpt lat="37.929013255659164" lon="14.673642254639137"><ele>1543.6666666666665</ele><time>2026-04-12T08:58:14Z</time></trkpt><trkpt lat="37.92897734028481" lon="14.67356886702632"><ele>1545.3333333333333</ele><time>2026-04-12T08:58:15Z</time></trkpt><trkpt lat="37.92893175900639" lon="14.673512620985028"><ele>1547.0</ele><time>2026-04-12T08:58:16Z</time></trkpt><trkpt lat="37.928832850330096" lon="14.673414794781321"><ele>1546.9999999999998</ele><time>2026-04-12T08:58:18Z</time></trkpt><trkpt lat="37.928785401863166" lon="14.673354398247747"><ele>1547.0</ele><time>2026-04-12T08:58:19Z</time></trkpt><trkpt lat="37.92873264022379" lon="14.673290009392176"><ele>1547.0</ele><time>2026-04-12T08:58:20Z</time></trkpt><trkpt lat="37.928683230558555" lon="14.67323104394058"><ele>1547.0</ele><time>2026-04-12T08:58:21Z</time></trkpt><trkpt lat="37.92864130971199" lon="14.673160292039729"><ele>1546.9999999999998</ele><time>2026-04-12T08:58:22Z</time></trkpt><trkpt lat="37.92855735902919" lon="14.673058552915068"><ele>1547.0</ele><time>2026-04-12T08:58:24Z</time></trkpt><trkpt lat="37.928488004456355" lon="14.672963722571664"><ele>1546.9999999999998</ele><time>2026-04-12T08:58:26Z</time></trkpt><trkpt lat="37.928430049582545" lon="14.67287300281676"><ele>1547.0</ele><time>2026-04-12T08:58:28Z</time></trkpt><trkpt lat="37.92840208633342" lon="14.672753343401883"><ele>1547.0</ele><time>2026-04-12T08:58:30Z</time></trkpt><trkpt lat="37.92839280668478" lon="14.672660383192378"><ele>1547.0</ele><time>2026-04-12T08:58:32Z</time></trkpt><trkpt lat="37.928409972829094" lon="14.672571740291174"><ele>1546.9999999999998</ele><time>2026-04-12T08:58:34Z</time></trkpt><trkpt lat="37.92840875730864" lon="14.672458532927037"><ele>1547.0</ele><time>2026-04-12T08:58:36Z</time></trkpt><trkpt lat="37.9283872991545" lon="14.672332545787237"><ele>1551.0</ele><time>2026-04-12T08:58:39Z</time></trkpt><trkpt lat="37.928378661480856" lon="14.672205737272572"><ele>1555.0</ele><time>2026-04-12T08:58:41Z</time></trkpt><trkpt lat="37.92837336874116" lon="14.672083614751001"><ele>1559.0</ele><time>2026-04-12T08:58:43Z</time></trkpt><trkpt lat="37.92836746274642" lon="14.671967507839133"><ele>1563.0</ele><time>2026-04-12T08:58:45Z</time></trkpt><trkpt lat="37.92832267523907" lon="14.671823124704886"><ele>1567.0</ele><time>2026-04-12T08:58:47Z</time></trkpt><trkpt lat="37.92829745434578" lon="14.671734354978184"><ele>1567.3999999999999</ele><time>2026-04-12T08:58:48Z</time></trkpt><trkpt lat="37.928268402674505" lon="14.67164145658398"><ele>1567.8</ele><time>2026-04-12T08:58:49Z</time></trkpt><trkpt lat="37.92825121589759" lon="14.671547752492579"><ele>1568.2</ele><time>2026-04-12T08:58:50Z</time></trkpt><trkpt lat="37.928209991897425" lon="14.671486272440433"><ele>1568.6</ele><time>2026-04-12T08:58:51Z</time></trkpt><trkpt lat="37.928149537672425" lon="14.671352904879216"><ele>1569.0</ele><time>2026-04-12T08:58:53Z</time></trkpt><trkpt lat="37.92809827559914" lon="14.671229187254038"><ele>1568.2</ele><time>2026-04-12T08:58:55Z</time></trkpt><trkpt lat="37.928038383591606" lon="14.671084641535833"><ele>1567.4</ele><time>2026-04-12T08:58:57Z</time></trkpt><trkpt lat="37.92800216941187" lon="14.670997240776547"><ele>1566.6</ele><time>2026-04-12T08:58:58Z</time></trkpt><trkpt lat="37.92797041025468" lon="14.670920592017811"><ele>1565.8</ele><time>2026-04-12T08:58:59Z</time></trkpt><trkpt lat="37.92791555579665" lon="14.670788483327314"><ele>1565.0</ele><time>2026-04-12T08:59:01Z</time></trkpt><trkpt lat="37.92786996330997" lon="14.67063605326534"><ele>1565.0000000000002</ele><time>2026-04-12T08:59:03Z</time></trkpt><trkpt lat="37.927837734718324" lon="14.670559443182096"><ele>1565.0</ele><time>2026-04-12T08:59:04Z</time></trkpt><trkpt lat="37.92779897183065" lon="14.670485039341502"><ele>1565.0</ele><time>2026-04-12T08:59:05Z</time></trkpt><trkpt lat="37.92774771086552" lon="14.67041056928232"><ele>1565.0</ele><time>2026-04-12T08:59:06Z</time></trkpt><trkpt lat="37.927702662688425" lon="14.670336237349026"><ele>1565.0</ele><time>2026-04-12T08:59:07Z</time></trkpt><trkpt lat="37.92766009670505" lon="14.670259172966658"><ele>1565.0000000000002</ele><time>2026-04-12T08:59:08Z</time></trkpt><trkpt lat="37.927622555963595" lon="14.67019391010585"><ele>1565.0</ele><time>2026-04-12T08:59:09Z</time></trkpt><trkpt lat="37.92754212576801" lon="14.670086544184814"><ele>1568.25</ele><time>2026-04-12T08:59:11Z</time></trkpt><trkpt lat="37.927467097669044" lon="14.669971586071362"><ele>1571.5</ele><time>2026-04-12T08:59:13Z</time></trkpt><trkpt lat="37.92738567082099" lon="14.669852413392254"><ele>1574.75</ele><time>2026-04-12T08:59:15Z</time></trkpt><trkpt lat="37.92730682293156" lon="14.669737859479609"><ele>1578.0</ele><time>2026-04-12T08:59:17Z</time></trkpt><trkpt lat="37.92723956885285" lon="14.66963463527175"><ele>1578.0</ele><time>2026-04-12T08:59:19Z</time></trkpt><trkpt lat="37.92718592022105" lon="14.669519452939815"><ele>1578.0</ele><time>2026-04-12T08:59:21Z</time></trkpt><trkpt lat="37.92712319950542" lon="14.669429372713733"><ele>1578.0</ele><time>2026-04-12T08:59:23Z</time></trkpt><trkpt lat="37.92707084358104" lon="14.669319851635136"><ele>1578.0</ele><time>2026-04-12T08:59:25Z</time></trkpt><trkpt lat="37.92701432419938" lon="14.669206756982703"><ele>1578.0</ele><time>2026-04-12T08:59:27Z</time></trkpt><trkpt lat="37.92699332358913" lon="14.669064999109413"><ele>1578.2</ele><time>2026-04-12T08:59:29Z</time></trkpt><trkpt lat="37.92696031595921" lon="14.668929398572073"><ele>1578.4</ele><time>2026-04-12T08:59:31Z</time></trkpt><trkpt lat="37.92692834462421" lon="14.668822402791065"><ele>1578.6000000000001</ele><time>2026-04-12T08:59:33Z</time></trkpt><trkpt lat="37.926892992492355" lon="14.668706935349725"><ele>1578.8000000000002</ele><time>2026-04-12T08:59:35Z</time></trkpt><trkpt lat="37.92686111912837" lon="14.668609119500974"><ele>1579.0</ele><time>2026-04-12T08:59:37Z</time></trkpt><trkpt lat="37.92680321954776" lon="14.668558664528916"><ele>1579.8000000000002</ele><time>2026-04-12T09:00:28Z</time></trkpt><trkpt lat="37.92673414644514" lon="14.668479343680318"><ele>1580.6000000000001</ele><time>2026-04-12T09:00:30Z</time></trkpt><trkpt lat="37.92665222646885" lon="14.668387547035906"><ele>1581.4</ele><time>2026-04-12T09:00:32Z</time></trkpt><trkpt lat="37.926575866884576" lon="14.66837649340758"><ele>1582.2</ele><time>2026-04-12T09:00:34Z</time></trkpt><trkpt lat="37.92650854399424" lon="14.668324334760854"><ele>1583.0</ele><time>2026-04-12T09:00:36Z</time></trkpt><trkpt lat="37.92641212317693" lon="14.668294843510456"><ele>1583.0</ele><time>2026-04-12T09:00:38Z</time></trkpt><trkpt lat="37.926326649009795" lon="14.668268909028617"><ele>1583.0</ele><time>2026-04-12T09:00:40Z</time></trkpt><trkpt lat="37.92624499675666" lon="14.668211199248294"><ele>1583.0</ele><time>2026-04-12T09:00:42Z</time></trkpt><trkpt lat="37.926193164076636" lon="14.668163628760409"><ele>1583.0</ele><time>2026-04-12T09:00:44Z</time></trkpt><trkpt lat="37.92615348295808" lon="14.66810063973756"><ele>1583.0</ele><time>2026-04-12T09:00:46Z</time></trkpt><trkpt lat="37.926131114949015" lon="14.668013219703958"><ele>1583.0</ele><time>2026-04-12T09:00:48Z</time></trkpt><trkpt lat="37.92609878566044" lon="14.667939530492408"><ele>1583.0</ele><time>2026-04-12T09:00:50Z</time></trkpt><trkpt lat="37.92606585470668" lon="14.667828340948356"><ele>1583.0</ele><time>2026-04-12T09:00:53Z</time></trkpt><trkpt lat="37.92602267794999" lon="14.667718173239757"><ele>1583.0</ele><time>2026-04-12T09:00:56Z</time></trkpt><trkpt lat="37.925956128141415" lon="14.667641003622458"><ele>1583.0</ele><time>2026-04-12T09:00:58Z</time></trkpt><trkpt lat="37.92586951095655" lon="14.66757664828462"><ele>1583.0</ele><time>2026-04-12T09:01:00Z</time></trkpt><trkpt lat="37.92576051004914" lon="14.667518165325784"><ele>1583.0</ele><time>2026-04-12T09:01:02Z</time></trkpt><trkpt lat="37.925647177639355" lon="14.66748583412309"><ele>1583.0</ele><time>2026-04-12T09:01:04Z</time></trkpt><trkpt lat="37.92555491254385" lon="14.667422010488334"><ele>1583.0</ele><time>2026-04-12T09:01:06Z</time></trkpt><trkpt lat="37.92545204270041" lon="14.667379373093535"><ele>1583.0</ele><time>2026-04-12T09:01:08Z</time></trkpt><trkpt lat="37.92534856794246" lon="14.667340991108675"><ele>1583.0</ele><time>2026-04-12T09:01:10Z</time></trkpt><trkpt lat="37.92525366710757" lon="14.66728961145157"><ele>1583.0</ele><time>2026-04-12T09:01:12Z</time></trkpt><trkpt lat="37.92516984484055" lon="14.667256592149881"><ele>1583.0</ele><time>2026-04-12T09:01:14Z</time></trkpt><trkpt lat="37.925077718118644" lon="14.667198029395594"><ele>1583.0</ele><time>2026-04-12T09:01:17Z</time></trkpt><trkpt lat="37.924998543358114" lon="14.667099649197592"><ele>1583.0</ele><time>2026-04-12T09:01:19Z</time></trkpt><trkpt lat="37.92494261812233" lon="14.666977637405317"><ele>1583.0</ele><time>2026-04-12T09:01:21Z</time></trkpt><trkpt lat="37.924932538425836" lon="14.666839310728346"><ele>1583.0</ele><time>2026-04-12T09:01:23Z</time></trkpt><trkpt lat="37.92492345146756" lon="14.666702191013513"><ele>1581.0</ele><time>2026-04-12T09:01:25Z</time></trkpt><trkpt lat="37.92491537049164" lon="14.666576620977501"><ele>1579.0</ele><time>2026-04-12T09:01:27Z</time></trkpt><trkpt lat="37.92491282328235" lon="14.666457554457972"><ele>1577.0</ele><time>2026-04-12T09:01:29Z</time></trkpt><trkpt lat="37.924911700469316" lon="14.666336660849597"><ele>1575.0</ele><time>2026-04-12T09:01:31Z</time></trkpt><trkpt lat="37.92490670249973" lon="14.666235467914152"><ele>1573.0</ele><time>2026-04-12T09:01:33Z</time></trkpt><trkpt lat="37.92489712149332" lon="14.666119812535173"><ele>1571.8333333333335</ele><time>2026-04-12T09:01:35Z</time></trkpt><trkpt lat="37.92487520343555" lon="14.666021961209015"><ele>1570.6666666666667</ele><time>2026-04-12T09:01:37Z</time></trkpt><trkpt lat="37.92484959047619" lon="14.665919148617476"><ele>1569.5</ele><time>2026-04-12T09:01:40Z</time></trkpt><trkpt lat="37.92484718402884" lon="14.665817061888324"><ele>1568.3333333333335</ele><time>2026-04-12T09:01:42Z</time></trkpt><trkpt lat="37.924826331744434" lon="14.665717888443565"><ele>1567.1666666666667</ele><time>2026-04-12T09:01:44Z</time></trkpt><trkpt lat="37.92480217150187" lon="14.665625290588997"><ele>1566.0</ele><time>2026-04-12T09:01:46Z</time></trkpt><trkpt lat="37.924795216215394" lon="14.665518011599474"><ele>1566.0</ele><time>2026-04-12T09:01:48Z</time></trkpt><trkpt lat="37.924768606913766" lon="14.665400636188274"><ele>1566.0</ele><time>2026-04-12T09:01:50Z</time></trkpt><trkpt lat="37.924746545760996" lon="14.665274302404345"><ele>1566.0</ele><time>2026-04-12T09:01:52Z</time></trkpt><trkpt lat="37.92472885454473" lon="14.665141398659722"><ele>1566.0</ele><time>2026-04-12T09:01:54Z</time></trkpt><trkpt lat="37.92470327725434" lon="14.665005705768774"><ele>1566.0</ele><time>2026-04-12T09:01:56Z</time></trkpt><trkpt lat="37.92470772599876" lon="14.664865590304087"><ele>1565.6</ele><time>2026-04-12T09:01:58Z</time></trkpt><trkpt lat="37.92473636542422" lon="14.664727085919118"><ele>1565.1999999999998</ele><time>2026-04-12T09:02:00Z</time></trkpt><trkpt lat="37.92477471493517" lon="14.664585217582662"><ele>1564.8000000000002</ele><time>2026-04-12T09:02:02Z</time></trkpt><trkpt lat="37.92479843557331" lon="14.664445754825385"><ele>1564.4</ele><time>2026-04-12T09:02:04Z</time></trkpt><trkpt lat="37.92479662160799" lon="14.66431337262761"><ele>1564.0</ele><time>2026-04-12T09:02:06Z</time></trkpt><trkpt lat="37.92479734963113" lon="14.664230902400043"><ele>1563.5000000000002</ele><time>2026-04-12T09:02:07Z</time></trkpt><trkpt lat="37.924776658715444" lon="14.664101915610422"><ele>1563.0</ele><time>2026-04-12T09:02:09Z</time></trkpt><trkpt lat="37.92476028170661" lon="14.66399048479933"><ele>1562.5</ele><time>2026-04-12T09:02:11Z</time></trkpt><trkpt lat="37.924740314238306" lon="14.663867986660858"><ele>1562.0</ele><time>2026-04-12T09:02:13Z</time></trkpt><trkpt lat="37.92470387256587" lon="14.663795009571281"><ele>1561.5000000000002</ele><time>2026-04-12T09:02:15Z</time></trkpt><trkpt lat="37.92468062885779" lon="14.663715435694062"><ele>1561.0</ele><time>2026-04-12T09:02:17Z</time></trkpt><trkpt lat="37.924658466357315" lon="14.663639929895313"><ele>1560.3333333333335</ele><time>2026-04-12T09:02:21Z</time></trkpt><trkpt lat="37.92463210400251" lon="14.66352623715192"><ele>1559.6666666666667</ele><time>2026-04-12T09:02:24Z</time></trkpt><trkpt lat="37.92460020013332" lon="14.66342583729478"><ele>1559.0</ele><time>2026-04-12T09:02:26Z</time></trkpt><trkpt lat="37.92457974981517" lon="14.66332205631285"><ele>1558.3333333333335</ele><time>2026-04-12T09:02:28Z</time></trkpt><trkpt lat="37.92455821934828" lon="14.663218768026207"><ele>1557.6666666666667</ele><time>2026-04-12T09:02:30Z</time></trkpt><trkpt lat="37.924543378692455" lon="14.66311467836307"><ele>1557.0</ele><time>2026-04-12T09:02:32Z</time></trkpt><trkpt lat="37.92453420183966" lon="14.662987138414978"><ele>1557.0</ele><time>2026-04-12T09:02:34Z</time></trkpt><trkpt lat="37.92453563785195" lon="14.662842208591186"><ele>1557.0</ele><time>2026-04-12T09:02:36Z</time></trkpt><trkpt lat="37.9245434255265" lon="14.66275925777399"><ele>1557.0</ele><time>2026-04-12T09:02:37Z</time></trkpt><trkpt lat="37.92455608566473" lon="14.662678814101692"><ele>1557.0</ele><time>2026-04-12T09:02:38Z</time></trkpt><trkpt lat="37.924561016073895" lon="14.662598012380318"><ele>1557.0</ele><time>2026-04-12T09:02:39Z</time></trkpt><trkpt lat="37.92456985203373" lon="14.662441862999897"><ele>1557.0</ele><time>2026-04-12T09:02:41Z</time></trkpt><trkpt lat="37.92458980698239" lon="14.662284165003388"><ele>1556.6</ele><time>2026-04-12T09:02:43Z</time></trkpt><trkpt lat="37.92460172124776" lon="14.6622056681934"><ele>1556.1999999999998</ele><time>2026-04-12T09:02:44Z</time></trkpt><trkpt lat="37.92462012174257" lon="14.662053380554724"><ele>1555.8</ele><time>2026-04-12T09:02:46Z</time></trkpt><trkpt lat="37.92463316878926" lon="14.661902727627014"><ele>1555.4</ele><time>2026-04-12T09:02:48Z</time></trkpt><trkpt lat="37.924658516005145" lon="14.6617602794318"><ele>1555.0</ele><time>2026-04-12T09:02:50Z</time></trkpt><trkpt lat="37.924674454967196" lon="14.661608560415841"><ele>1554.6666666666667</ele><time>2026-04-12T09:02:52Z</time></trkpt><trkpt lat="37.924678907691096" lon="14.661527317171226"><ele>1554.3333333333335</ele><time>2026-04-12T09:02:53Z</time></trkpt><trkpt lat="37.92468166447927" lon="14.661444778600044"><ele>1554.0</ele><time>2026-04-12T09:02:54Z</time></trkpt><trkpt lat="37.92468812061712" lon="14.661363885251408"><ele>1553.6666666666665</ele><time>2026-04-12T09:02:55Z</time></trkpt><trkpt lat="37.92469156548869" lon="14.661204659660978"><ele>1553.3333333333333</ele><time>2026-04-12T09:02:57Z</time></trkpt><trkpt lat="37.92468525444408" lon="14.661119331203064"><ele>1553.0</ele><time>2026-04-12T09:02:58Z</time></trkpt><trkpt lat="37.92467334824363" lon="14.660960098691342"><ele>1554.2</ele><time>2026-04-12T09:03:00Z</time></trkpt><trkpt lat="37.924656164915596" lon="14.66081058343176"><ele>1555.4</ele><time>2026-04-12T09:03:02Z</time></trkpt><trkpt lat="37.92464120758835" lon="14.66068255256037"><ele>1556.6000000000001</ele><time>2026-04-12T09:03:04Z</time></trkpt><trkpt lat="37.92463632354963" lon="14.660575833910618"><ele>1557.8000000000002</ele><time>2026-04-12T09:03:06Z</time></trkpt><trkpt lat="37.924632913292186" lon="14.660486907106458"><ele>1559.0</ele><time>2026-04-12T09:03:08Z</time></trkpt><trkpt lat="37.924629394730225" lon="14.660386172693663"><ele>1559.0</ele><time>2026-04-12T09:03:11Z</time></trkpt><trkpt lat="37.924653941090426" lon="14.660292185453349"><ele>1559.0</ele><time>2026-04-12T09:04:14Z</time></trkpt><trkpt lat="37.92464078277388" lon="14.66020782836462"><ele>1559.0</ele><time>2026-04-12T09:04:16Z</time></trkpt><trkpt lat="37.92462821338372" lon="14.660084093875978"><ele>1559.0</ele><time>2026-04-12T09:04:18Z</time></trkpt><trkpt lat="37.924608978897666" lon="14.659945543506975"><ele>1559.0</ele><time>2026-04-12T09:04:20Z</time></trkpt><trkpt lat="37.92459598539016" lon="14.659795606659838"><ele>1560.2857142857142</ele><time>2026-04-12T09:04:22Z</time></trkpt><trkpt lat="37.92458735294207" lon="14.659714799809953"><ele>1561.5714285714287</ele><time>2026-04-12T09:04:23Z</time></trkpt><trkpt lat="37.924566136860776" lon="14.659630985656909"><ele>1562.857142857143</ele><time>2026-04-12T09:04:24Z</time></trkpt><trkpt lat="37.924535467575645" lon="14.659547349008502"><ele>1564.142857142857</ele><time>2026-04-12T09:04:25Z</time></trkpt><trkpt lat="37.92448711779069" lon="14.659471637815662"><ele>1565.4285714285716</ele><time>2026-04-12T09:04:26Z</time></trkpt><trkpt lat="37.92443031425656" lon="14.65939784866807"><ele>1566.7142857142858</ele><time>2026-04-12T09:04:27Z</time></trkpt><trkpt lat="37.924377219178105" lon="14.659336468274054"><ele>1568.0</ele><time>2026-04-12T09:04:28Z</time></trkpt><trkpt lat="37.92432731535032" lon="14.659274069322075"><ele>1568.4285714285713</ele><time>2026-04-12T09:04:29Z</time></trkpt><trkpt lat="37.92427671342891" lon="14.659207084931918"><ele>1568.857142857143</ele><time>2026-04-12T09:04:30Z</time></trkpt><trkpt lat="37.92422947334631" lon="14.659138018801357"><ele>1569.2857142857142</ele><time>2026-04-12T09:04:31Z</time></trkpt><trkpt lat="37.924187266587445" lon="14.659064083569833"><ele>1569.7142857142858</ele><time>2026-04-12T09:04:32Z</time></trkpt><trkpt lat="37.92414463515614" lon="14.65898354444733"><ele>1570.142857142857</ele><time>2026-04-12T09:04:33Z</time></trkpt><trkpt lat="37.92410779176004" lon="14.658898430625149"><ele>1570.5714285714284</ele><time>2026-04-12T09:04:34Z</time></trkpt><trkpt lat="37.92407145282035" lon="14.658809672720723"><ele>1571.0</ele><time>2026-04-12T09:04:35Z</time></trkpt><trkpt lat="37.92403574659167" lon="14.658726563139176"><ele>1570.2857142857142</ele><time>2026-04-12T09:04:36Z</time></trkpt><trkpt lat="37.92399984146164" lon="14.658647864820681"><ele>1569.5714285714284</ele><time>2026-04-12T09:04:37Z</time></trkpt><trkpt lat="37.92396110368337" lon="14.658576351248268"><ele>1568.8571428571427</ele><time>2026-04-12T09:04:38Z</time></trkpt><trkpt lat="37.923924903696026" lon="14.658501237313939"><ele>1568.142857142857</ele><time>2026-04-12T09:04:39Z</time></trkpt><trkpt lat="37.923893155730056" lon="14.658426812052767"><ele>1567.4285714285716</ele><time>2026-04-12T09:04:40Z</time></trkpt><trkpt lat="37.92386054447332" lon="14.658357328299838"><ele>1566.7142857142856</ele><time>2026-04-12T09:04:41Z</time></trkpt><trkpt lat="37.92381063461637" lon="14.658297525056362"><ele>1566.0</ele><time>2026-04-12T09:04:42Z</time></trkpt><trkpt lat="37.923750475688536" lon="14.658259937724116"><ele>1566.0</ele><time>2026-04-12T09:04:43Z</time></trkpt><trkpt lat="37.92363438867035" lon="14.658232881401666"><ele>1566.0</ele><time>2026-04-12T09:04:45Z</time></trkpt><trkpt lat="37.923571557364255" lon="14.658213253860717"><ele>1566.0</ele><time>2026-04-12T09:04:46Z</time></trkpt><trkpt lat="37.92349265753003" lon="14.658204056817498"><ele>1566.0</ele><time>2026-04-12T09:04:47Z</time></trkpt><trkpt lat="37.923421655773964" lon="14.6581909517655"><ele>1566.0</ele><time>2026-04-12T09:04:48Z</time></trkpt><trkpt lat="37.923348400287" lon="14.65817210930047"><ele>1566.0</ele><time>2026-04-12T09:04:49Z</time></trkpt><trkpt lat="37.92327856687548" lon="14.65815328901111"><ele>1564.0</ele><time>2026-04-12T09:04:50Z</time></trkpt><trkpt lat="37.923214935502074" lon="14.658120984037163"><ele>1562.0</ele><time>2026-04-12T09:04:51Z</time></trkpt><trkpt lat="37.923158659675515" lon="14.658075337200483"><ele>1560.0</ele><time>2026-04-12T09:04:52Z</time></trkpt><trkpt lat="37.92308860230474" lon="14.658044202457907"><ele>1558.0</ele><time>2026-04-12T09:04:53Z</time></trkpt><trkpt lat="37.92303027978023" lon="14.65799315516265"><ele>1556.0</ele><time>2026-04-12T09:04:54Z</time></trkpt><trkpt lat="37.92298151927739" lon="14.65792254771962"><ele>1554.0</ele><time>2026-04-12T09:04:55Z</time></trkpt><trkpt lat="37.92292019433554" lon="14.657874987860708"><ele>1552.0</ele><time>2026-04-12T09:04:56Z</time></trkpt><trkpt lat="37.922864375815905" lon="14.657818934095754"><ele>1551.5000000000002</ele><time>2026-04-12T09:04:57Z</time></trkpt><trkpt lat="37.92281392189596" lon="14.657757570249215"><ele>1551.0</ele><time>2026-04-12T09:04:58Z</time></trkpt><trkpt lat="37.922761863157604" lon="14.657686870066854"><ele>1550.5</ele><time>2026-04-12T09:04:59Z</time></trkpt><trkpt lat="37.92270514032417" lon="14.657623393503085"><ele>1550.0</ele><time>2026-04-12T09:05:00Z</time></trkpt><trkpt lat="37.92264783947518" lon="14.657556783475977"><ele>1549.5000000000002</ele><time>2026-04-12T09:05:01Z</time></trkpt><trkpt lat="37.922594096271936" lon="14.657489288269662"><ele>1549.0</ele><time>2026-04-12T09:05:02Z</time></trkpt><trkpt lat="37.92253902508159" lon="14.657426127268296"><ele>1549.0</ele><time>2026-04-12T09:05:03Z</time></trkpt><trkpt lat="37.92249035541215" lon="14.657361644062572"><ele>1549.0</ele><time>2026-04-12T09:05:04Z</time></trkpt><trkpt lat="37.922443400480915" lon="14.657298685960619"><ele>1549.0</ele><time>2026-04-12T09:05:05Z</time></trkpt><trkpt lat="37.92235702891273" lon="14.657185400800126"><ele>1549.0</ele><time>2026-04-12T09:05:07Z</time></trkpt><trkpt lat="37.92227672808759" lon="14.65707192071238"><ele>1549.0</ele><time>2026-04-12T09:05:09Z</time></trkpt><trkpt lat="37.92221057187961" lon="14.65694790316573"><ele>1549.6</ele><time>2026-04-12T09:05:11Z</time></trkpt><trkpt lat="37.922123726554396" lon="14.656842989406824"><ele>1550.2</ele><time>2026-04-12T09:05:13Z</time></trkpt><trkpt lat="37.922048571264824" lon="14.656726812249397"><ele>1550.8</ele><time>2026-04-12T09:05:15Z</time></trkpt><trkpt lat="37.92199683646406" lon="14.656674712388778"><ele>1551.3999999999999</ele><time>2026-04-12T09:05:16Z</time></trkpt><trkpt lat="37.921945021467806" lon="14.656625672829323"><ele>1552.0</ele><time>2026-04-12T09:05:17Z</time></trkpt><trkpt lat="37.92184396000264" lon="14.656544408859947"><ele>1552.0000000000002</ele><time>2026-04-12T09:05:19Z</time></trkpt><trkpt lat="37.92174499181787" lon="14.656461310014757"><ele>1552.0</ele><time>2026-04-12T09:05:21Z</time></trkpt><trkpt lat="37.92169218725903" lon="14.656413697234498"><ele>1552.0</ele><time>2026-04-12T09:05:22Z</time></trkpt><trkpt lat="37.921602287117445" lon="14.65630440364076"><ele>1552.0</ele><time>2026-04-12T09:05:24Z</time></trkpt><trkpt lat="37.921560617419956" lon="14.656244529077098"><ele>1552.0000000000002</ele><time>2026-04-12T09:05:25Z</time></trkpt><trkpt lat="37.92151883283653" lon="14.656183570497522"><ele>1552.0</ele><time>2026-04-12T09:05:26Z</time></trkpt><trkpt lat="37.92148134323601" lon="14.656114625587147"><ele>1550.0</ele><time>2026-04-12T09:05:27Z</time></trkpt><trkpt lat="37.921426760649744" lon="14.655982811626858"><ele>1548.0</ele><time>2026-04-12T09:05:29Z</time></trkpt><trkpt lat="37.921406243193026" lon="14.655891947645081"><ele>1546.0</ele><time>2026-04-12T09:05:31Z</time></trkpt><trkpt lat="37.92139429213383" lon="14.655795515077568"><ele>1544.0</ele><time>2026-04-12T09:05:33Z</time></trkpt><trkpt lat="37.92134606084804" lon="14.655702956623596"><ele>1542.0</ele><time>2026-04-12T09:05:35Z</time></trkpt><trkpt lat="37.92129010995613" lon="14.655576489600064"><ele>1542.0</ele><time>2026-04-12T09:05:37Z</time></trkpt><trkpt lat="37.92122702971283" lon="14.655451096152834"><ele>1542.0</ele><time>2026-04-12T09:05:39Z</time></trkpt><trkpt lat="37.921167122631324" lon="14.655355268820834"><ele>1542.0</ele><time>2026-04-12T09:05:41Z</time></trkpt><trkpt lat="37.92109986500725" lon="14.655280232357732"><ele>1542.0</ele><time>2026-04-12T09:05:43Z</time></trkpt><trkpt lat="37.92105520465567" lon="14.655189503297978"><ele>1542.0</ele><time>2026-04-12T09:05:45Z</time></trkpt><trkpt lat="37.920996613799836" lon="14.655117557050017"><ele>1541.0</ele><time>2026-04-12T09:05:47Z</time></trkpt><trkpt lat="37.920931134694705" lon="14.65501954217751"><ele>1540.0</ele><time>2026-04-12T09:05:49Z</time></trkpt><trkpt lat="37.92087200853366" lon="14.654922603789082"><ele>1539.0</ele><time>2026-04-12T09:05:51Z</time></trkpt><trkpt lat="37.92080495318343" lon="14.654848520561647"><ele>1538.0</ele><time>2026-04-12T09:05:53Z</time></trkpt><trkpt lat="37.920723973045554" lon="14.65478070296386"><ele>1537.0</ele><time>2026-04-12T09:05:55Z</time></trkpt><trkpt lat="37.920649769084505" lon="14.654707032887186"><ele>1537.0000000000002</ele><time>2026-04-12T09:05:57Z</time></trkpt><trkpt lat="37.92057672617872" lon="14.65464623073571"><ele>1537.0</ele><time>2026-04-12T09:05:59Z</time></trkpt><trkpt lat="37.92049076319193" lon="14.654595373529236"><ele>1537.0</ele><time>2026-04-12T09:06:01Z</time></trkpt><trkpt lat="37.92037701268486" lon="14.654547754293231"><ele>1537.0</ele><time>2026-04-12T09:06:03Z</time></trkpt><trkpt lat="37.92030426244835" lon="14.654532187044971"><ele>1537.0000000000002</ele><time>2026-04-12T09:06:04Z</time></trkpt><trkpt lat="37.92023689570394" lon="14.654517791034003"><ele>1537.0</ele><time>2026-04-12T09:06:05Z</time></trkpt><trkpt lat="37.92016085246178" lon="14.654513539041673"><ele>1537.0</ele><time>2026-04-12T09:06:06Z</time></trkpt><trkpt lat="37.92007011027652" lon="14.654497462803171"><ele>1537.0</ele><time>2026-04-12T09:06:07Z</time></trkpt><trkpt lat="37.91998096419505" lon="14.654464135619428"><ele>1537.0</ele><time>2026-04-12T09:06:08Z</time></trkpt><trkpt lat="37.91981962466156" lon="14.654435248999462"><ele>1537.0</ele><time>2026-04-12T09:06:10Z</time></trkpt><trkpt lat="37.919755871666005" lon="14.654399398305237"><ele>1537.0</ele><time>2026-04-12T09:06:11Z</time></trkpt><trkpt lat="37.91968349565505" lon="14.654364540348858"><ele>1536.5714285714287</ele><time>2026-04-12T09:06:12Z</time></trkpt><trkpt lat="37.91961672954924" lon="14.654343938117451"><ele>1536.142857142857</ele><time>2026-04-12T09:06:13Z</time></trkpt><trkpt lat="37.91954768961057" lon="14.654318410067479"><ele>1535.7142857142858</ele><time>2026-04-12T09:06:14Z</time></trkpt><trkpt lat="37.91946155626424" lon="14.654318901989695"><ele>1535.2857142857142</ele><time>2026-04-12T09:06:15Z</time></trkpt><trkpt lat="37.91939569574277" lon="14.654319330288663"><ele>1534.857142857143</ele><time>2026-04-12T09:06:16Z</time></trkpt><trkpt lat="37.91932470467874" lon="14.654351210181643"><ele>1534.4285714285716</ele><time>2026-04-12T09:06:17Z</time></trkpt><trkpt lat="37.91926123387158" lon="14.654396738710616"><ele>1534.0</ele><time>2026-04-12T09:06:18Z</time></trkpt><trkpt lat="37.919193333039985" lon="14.654417120714616"><ele>1534.0</ele><time>2026-04-12T09:06:19Z</time></trkpt><trkpt lat="37.919075044301415" lon="14.65442773335799"><ele>1534.0</ele><time>2026-04-12T09:06:21Z</time></trkpt><trkpt lat="37.91897636204702" lon="14.654422084145674"><ele>1534.0</ele><time>2026-04-12T09:06:23Z</time></trkpt><trkpt lat="37.91891132338443" lon="14.65442461541847"><ele>1534.0</ele><time>2026-04-12T09:06:25Z</time></trkpt><trkpt lat="37.9188364253996" lon="14.654448508364839"><ele>1534.0</ele><time>2026-04-12T09:06:28Z</time></trkpt><trkpt lat="37.918794602665656" lon="14.654536762623827"><ele>1534.0</ele><time>2026-04-12T09:06:32Z</time></trkpt><trkpt lat="37.91874780714956" lon="14.65460385283543"><ele>1533.1666666666665</ele><time>2026-04-12T09:06:35Z</time></trkpt><trkpt lat="37.91869035874619" lon="14.654685860140384"><ele>1532.3333333333333</ele><time>2026-04-12T09:06:38Z</time></trkpt><trkpt lat="37.918651816708696" lon="14.654751585077467"><ele>1531.5</ele><time>2026-04-12T09:06:40Z</time></trkpt><trkpt lat="37.91859996078718" lon="14.65482549880328"><ele>1530.6666666666667</ele><time>2026-04-12T09:07:02Z</time></trkpt><trkpt lat="37.91852928611445" lon="14.654941070724611"><ele>1529.8333333333335</ele><time>2026-04-12T09:07:04Z</time></trkpt><trkpt lat="37.918487208403334" lon="14.655009384920866"><ele>1529.0</ele><time>2026-04-12T09:07:05Z</time></trkpt><trkpt lat="37.918416986596384" lon="14.655102473128114"><ele>1529.5</ele><time>2026-04-12T09:07:07Z</time></trkpt><trkpt lat="37.91835439863226" lon="14.655176138223641"><ele>1530.0</ele><time>2026-04-12T09:07:09Z</time></trkpt><trkpt lat="37.91829074722616" lon="14.655229679497666"><ele>1530.5</ele><time>2026-04-12T09:07:11Z</time></trkpt><trkpt lat="37.91821273700977" lon="14.655262972147668"><ele>1531.0</ele><time>2026-04-12T09:07:13Z</time></trkpt><trkpt lat="37.91813752321067" lon="14.655274395757676"><ele>1531.5</ele><time>2026-04-12T09:07:15Z</time></trkpt><trkpt lat="37.918076216714354" lon="14.655307622425363"><ele>1532.0</ele><time>2026-04-12T09:07:17Z</time></trkpt><trkpt lat="37.91801031345627" lon="14.65532554362488"><ele>1530.5</ele><time>2026-04-12T09:07:19Z</time></trkpt><trkpt lat="37.91793564138311" lon="14.655340518200877"><ele>1529.0</ele><time>2026-04-12T09:07:21Z</time></trkpt><trkpt lat="37.91781932520907" lon="14.655364852951921"><ele>1527.5</ele><time>2026-04-12T09:07:23Z</time></trkpt><trkpt lat="37.91775016139941" lon="14.655393140187954"><ele>1526.0</ele><time>2026-04-12T09:07:24Z</time></trkpt><trkpt lat="37.9176705529811" lon="14.655425278412295"><ele>1524.5</ele><time>2026-04-12T09:07:25Z</time></trkpt><trkpt lat="37.91760257922529" lon="14.655475441452342"><ele>1523.0</ele><time>2026-04-12T09:07:26Z</time></trkpt><trkpt lat="37.91752898505055" lon="14.6555293708322"><ele>1523.0</ele><time>2026-04-12T09:07:27Z</time></trkpt><trkpt lat="37.91745547376082" lon="14.655589355834255"><ele>1523.0</ele><time>2026-04-12T09:07:28Z</time></trkpt><trkpt lat="37.91737831316008" lon="14.655649155317322"><ele>1523.0</ele><time>2026-04-12T09:07:29Z</time></trkpt><trkpt lat="37.9173018639539" lon="14.655687537936045"><ele>1523.0</ele><time>2026-04-12T09:07:30Z</time></trkpt><trkpt lat="37.91721659511496" lon="14.65569705416078"><ele>1523.0</ele><time>2026-04-12T09:07:31Z</time></trkpt><trkpt lat="37.917133556684476" lon="14.65568199127863"><ele>1523.0</ele><time>2026-04-12T09:07:32Z</time></trkpt><trkpt lat="37.917045002103904" lon="14.655638475306187"><ele>1523.0</ele><time>2026-04-12T09:07:33Z</time></trkpt><trkpt lat="37.91696624432146" lon="14.655562306758144"><ele>1523.0</ele><time>2026-04-12T09:07:34Z</time></trkpt><trkpt lat="37.91689882689509" lon="14.655466272143505"><ele>1523.0</ele><time>2026-04-12T09:07:35Z</time></trkpt><trkpt lat="37.91681457651393" lon="14.655371509610623"><ele>1523.0</ele><time>2026-04-12T09:07:36Z</time></trkpt><trkpt lat="37.91672459757748" lon="14.65529166186318"><ele>1523.0</ele><time>2026-04-12T09:07:37Z</time></trkpt><trkpt lat="37.91662753111897" lon="14.655226836218779"><ele>1524.75</ele><time>2026-04-12T09:07:38Z</time></trkpt><trkpt lat="37.91651716453928" lon="14.655193521773631"><ele>1526.5</ele><time>2026-04-12T09:07:39Z</time></trkpt><trkpt lat="37.91639975647792" lon="14.655188214054702"><ele>1528.25</ele><time>2026-04-12T09:07:40Z</time></trkpt><trkpt lat="37.91628376332195" lon="14.655181079525741"><ele>1530.0</ele><time>2026-04-12T09:07:41Z</time></trkpt><trkpt lat="37.9161628964884" lon="14.655156897432063"><ele>1530.0</ele><time>2026-04-12T09:07:42Z</time></trkpt><trkpt lat="37.91603855410209" lon="14.655150444751477"><ele>1530.0</ele><time>2026-04-12T09:07:43Z</time></trkpt><trkpt lat="37.915909256225014" lon="14.655110162674575"><ele>1530.0</ele><time>2026-04-12T09:07:44Z</time></trkpt><trkpt lat="37.915782331003385" lon="14.655063149209012"><ele>1530.0</ele><time>2026-04-12T09:07:45Z</time></trkpt><trkpt lat="37.915676042003916" lon="14.655012627594019"><ele>1528.0</ele><time>2026-04-12T09:07:46Z</time></trkpt><trkpt lat="37.91556528443337" lon="14.654963225075473"><ele>1526.0</ele><time>2026-04-12T09:07:47Z</time></trkpt><trkpt lat="37.91545773561416" lon="14.654926379932261"><ele>1524.0</ele><time>2026-04-12T09:07:48Z</time></trkpt><trkpt lat="37.91535498754624" lon="14.654905530451346"><ele>1522.0</ele><time>2026-04-12T09:07:49Z</time></trkpt><trkpt lat="37.915245684200876" lon="14.654892863336372"><ele>1520.0</ele><time>2026-04-12T09:07:50Z</time></trkpt><trkpt lat="37.91512940979833" lon="14.654901599075941"><ele>1517.75</ele><time>2026-04-12T09:07:51Z</time></trkpt><trkpt lat="37.91500851340241" lon="14.654944784181454"><ele>1515.5</ele><time>2026-04-12T09:07:52Z</time></trkpt><trkpt lat="37.91489871661994" lon="14.655012838143431"><ele>1513.25</ele><time>2026-04-12T09:07:53Z</time></trkpt><trkpt lat="37.914789854176966" lon="14.655096560198729"><ele>1511.0</ele><time>2026-04-12T09:07:54Z</time></trkpt><trkpt lat="37.9146799118669" lon="14.655177805696532"><ele>1511.0</ele><time>2026-04-12T09:07:55Z</time></trkpt><trkpt lat="37.914565218000156" lon="14.65523312147683"><ele>1511.0</ele><time>2026-04-12T09:07:56Z</time></trkpt><trkpt lat="37.91445821432725" lon="14.65527187867324"><ele>1511.0</ele><time>2026-04-12T09:07:57Z</time></trkpt><trkpt lat="37.914354209496814" lon="14.655309812829966"><ele>1511.0</ele><time>2026-04-12T09:07:58Z</time></trkpt><trkpt lat="37.91426603899765" lon="14.655409158820897"><ele>1509.25</ele><time>2026-04-12T09:07:59Z</time></trkpt><trkpt lat="37.914192126431416" lon="14.655535353084112"><ele>1507.5</ele><time>2026-04-12T09:08:00Z</time></trkpt><trkpt lat="37.91412051424043" lon="14.655673707749582"><ele>1505.75</ele><time>2026-04-12T09:08:01Z</time></trkpt><trkpt lat="37.91402794813763" lon="14.655802539702476"><ele>1504.0</ele><time>2026-04-12T09:08:02Z</time></trkpt><trkpt lat="37.91390423695297" lon="14.655910178007534"><ele>1504.0</ele><time>2026-04-12T09:08:03Z</time></trkpt><trkpt lat="37.91377527048279" lon="14.656027804875494"><ele>1504.0</ele><time>2026-04-12T09:08:04Z</time></trkpt><trkpt lat="37.91365410046378" lon="14.656134770075242"><ele>1504.0</ele><time>2026-04-12T09:08:05Z</time></trkpt><trkpt lat="37.91353323279539" lon="14.656235616164892"><ele>1502.5</ele><time>2026-04-12T09:08:06Z</time></trkpt><trkpt lat="37.913407001674805" lon="14.65632410981646"><ele>1501.0</ele><time>2026-04-12T09:08:07Z</time></trkpt><trkpt lat="37.91328960228574" lon="14.656420400458096"><ele>1499.5</ele><time>2026-04-12T09:08:08Z</time></trkpt><trkpt lat="37.913175469741745" lon="14.656521206484648"><ele>1498.0</ele><time>2026-04-12T09:08:09Z</time></trkpt><trkpt lat="37.913061857354464" lon="14.65657038053341"><ele>1498.0</ele><time>2026-04-12T09:08:10Z</time></trkpt><trkpt lat="37.91294058756917" lon="14.656566821755108"><ele>1498.0</ele><time>2026-04-12T09:08:11Z</time></trkpt><trkpt lat="37.91281823078452" lon="14.656516946586615"><ele>1498.0</ele><time>2026-04-12T09:08:12Z</time></trkpt><trkpt lat="37.91270871450716" lon="14.656482746221684"><ele>1498.0</ele><time>2026-04-12T09:08:13Z</time></trkpt><trkpt lat="37.91258804735462" lon="14.656471147947913"><ele>1497.75</ele><time>2026-04-12T09:08:14Z</time></trkpt><trkpt lat="37.912446320685376" lon="14.656476055152778"><ele>1497.5</ele><time>2026-04-12T09:08:15Z</time></trkpt><trkpt lat="37.91229759842008" lon="14.656487434161196"><ele>1497.25</ele><time>2026-04-12T09:08:16Z</time></trkpt><trkpt lat="37.91215598572684" lon="14.656502801903931"><ele>1497.0</ele><time>2026-04-12T09:08:17Z</time></trkpt><trkpt lat="37.91202414243719" lon="14.65652034952068"><ele>1497.0</ele><time>2026-04-12T09:08:18Z</time></trkpt><trkpt lat="37.91190492551221" lon="14.656531410608606"><ele>1497.0</ele><time>2026-04-12T09:08:19Z</time></trkpt><trkpt lat="37.91177747204475" lon="14.656523309480813"><ele>1497.0</ele><time>2026-04-12T09:08:20Z</time></trkpt><trkpt lat="37.91166064873141" lon="14.656467000016091"><ele>1497.0</ele><time>2026-04-12T09:08:21Z</time></trkpt><trkpt lat="37.911567140545166" lon="14.656370068701147"><ele>1498.5</ele><time>2026-04-12T09:08:22Z</time></trkpt><trkpt lat="37.91150679201647" lon="14.656233171328399"><ele>1500.0</ele><time>2026-04-12T09:08:23Z</time></trkpt><trkpt lat="37.91147203367857" lon="14.656089943663739"><ele>1501.5</ele><time>2026-04-12T09:08:24Z</time></trkpt><trkpt lat="37.91144342922807" lon="14.655931424468895"><ele>1503.0</ele><time>2026-04-12T09:08:25Z</time></trkpt><trkpt lat="37.91139192476065" lon="14.65578712104708"><ele>1503.0</ele><time>2026-04-12T09:08:26Z</time></trkpt><trkpt lat="37.91132482501227" lon="14.655674006372987"><ele>1503.0</ele><time>2026-04-12T09:08:27Z</time></trkpt><trkpt lat="37.91123366303726" lon="14.655604545450727"><ele>1503.0</ele><time>2026-04-12T09:08:28Z</time></trkpt><trkpt lat="37.91113092116111" lon="14.65559148508747"><ele>1503.0</ele><time>2026-04-12T09:08:29Z</time></trkpt><trkpt lat="37.91101922926429" lon="14.65562752050832"><ele>1503.0</ele><time>2026-04-12T09:08:30Z</time></trkpt><trkpt lat="37.910905658150455" lon="14.65568264613165"><ele>1501.25</ele><time>2026-04-12T09:08:31Z</time></trkpt><trkpt lat="37.91078128668766" lon="14.65574009529649"><ele>1499.5</ele><time>2026-04-12T09:08:32Z</time></trkpt><trkpt lat="37.91064570964669" lon="14.65580400508066"><ele>1497.75</ele><time>2026-04-12T09:08:33Z</time></trkpt><trkpt lat="37.91048686878787" lon="14.655883087109633"><ele>1496.0</ele><time>2026-04-12T09:08:34Z</time></trkpt><trkpt lat="37.91033446177491" lon="14.655954330308012"><ele>1496.0</ele><time>2026-04-12T09:08:35Z</time></trkpt><trkpt lat="37.9101899663797" lon="14.656018646936971"><ele>1496.0</ele><time>2026-04-12T09:08:36Z</time></trkpt><trkpt lat="37.91005638678303" lon="14.656078950307693"><ele>1496.0</ele><time>2026-04-12T09:08:37Z</time></trkpt><trkpt lat="37.90992781735587" lon="14.656115645686596"><ele>1496.0</ele><time>2026-04-12T09:08:38Z</time></trkpt><trkpt lat="37.909793833571975" lon="14.656109295685686"><ele>1497.25</ele><time>2026-04-12T09:08:39Z</time></trkpt><trkpt lat="37.909672577563015" lon="14.656067316230653"><ele>1498.5</ele><time>2026-04-12T09:08:40Z</time></trkpt><trkpt lat="37.90956051084532" lon="14.655985993681082"><ele>1499.75</ele><time>2026-04-12T09:08:41Z</time></trkpt><trkpt lat="37.909461979843584" lon="14.65587007930358"><ele>1501.0</ele><time>2026-04-12T09:08:42Z</time></trkpt><trkpt lat="37.909370918169444" lon="14.655733919045211"><ele>1501.0</ele><time>2026-04-12T09:08:43Z</time></trkpt><trkpt lat="37.90926967205915" lon="14.655578684049198"><ele>1501.0</ele><time>2026-04-12T09:08:44Z</time></trkpt><trkpt lat="37.909167777009415" lon="14.655426881000466"><ele>1501.0</ele><time>2026-04-12T09:08:45Z</time></trkpt><trkpt lat="37.90907441733169" lon="14.65525843841724"><ele>1501.3333333333333</ele><time>2026-04-12T09:08:46Z</time></trkpt><trkpt lat="37.90897473948087" lon="14.655098672110455"><ele>1501.6666666666667</ele><time>2026-04-12T09:08:47Z</time></trkpt><trkpt lat="37.908875181844294" lon="14.654949496650998"><ele>1502.0</ele><time>2026-04-12T09:08:48Z</time></trkpt><trkpt lat="37.90876218888979" lon="14.654825963013263"><ele>1502.0</ele><time>2026-04-12T09:08:49Z</time></trkpt><trkpt lat="37.908632900403475" lon="14.654742615772863"><ele>1502.0</ele><time>2026-04-12T09:08:50Z</time></trkpt><trkpt lat="37.90848971622863" lon="14.654705752118941"><ele>1502.0</ele><time>2026-04-12T09:08:51Z</time></trkpt><trkpt lat="37.90833342523718" lon="14.654689302249691"><ele>1502.0</ele><time>2026-04-12T09:08:52Z</time></trkpt><trkpt lat="37.908181374299026" lon="14.654653516979444"><ele>1504.0</ele><time>2026-04-12T09:08:53Z</time></trkpt><trkpt lat="37.90801088263476" lon="14.654601825829978"><ele>1506.0</ele><time>2026-04-12T09:08:54Z</time></trkpt><trkpt lat="37.9078409440117" lon="14.654530196617515"><ele>1508.0</ele><time>2026-04-12T09:08:55Z</time></trkpt><trkpt lat="37.90765738047738" lon="14.654443858267738"><ele>1506.0</ele><time>2026-04-12T09:08:56Z</time></trkpt><trkpt lat="37.90747978229443" lon="14.654356203415787"><ele>1504.0</ele><time>2026-04-12T09:08:57Z</time></trkpt><trkpt lat="37.90730386797311" lon="14.65425872296712"><ele>1502.0</ele><time>2026-04-12T09:08:58Z</time></trkpt><trkpt lat="37.907118318882624" lon="14.654158361123052"><ele>1502.0</ele><time>2026-04-12T09:08:59Z</time></trkpt><trkpt lat="37.906921364254" lon="14.654063205789845"><ele>1502.0</ele><time>2026-04-12T09:09:00Z</time></trkpt><trkpt lat="37.90671387570886" lon="14.653979106905183"><ele>1502.0</ele><time>2026-04-12T09:09:01Z</time></trkpt><trkpt lat="37.90652407744028" lon="14.653919100755735"><ele>1497.3333333333335</ele><time>2026-04-12T09:09:02Z</time></trkpt><trkpt lat="37.90633829085611" lon="14.653856233135762"><ele>1492.6666666666667</ele><time>2026-04-12T09:09:03Z</time></trkpt><trkpt lat="37.90616987358216" lon="14.653766834808188"><ele>1488.0</ele><time>2026-04-12T09:09:04Z</time></trkpt><trkpt lat="37.90600994657267" lon="14.653652272261112"><ele>1488.6666666666667</ele><time>2026-04-12T09:09:05Z</time></trkpt><trkpt lat="37.905860953394125" lon="14.65351534479603"><ele>1489.3333333333335</ele><time>2026-04-12T09:09:06Z</time></trkpt><trkpt lat="37.90571124554069" lon="14.653385603370417"><ele>1490.0</ele><time>2026-04-12T09:09:07Z</time></trkpt><trkpt lat="37.905556416976616" lon="14.653263461549532"><ele>1490.0</ele><time>2026-04-12T09:09:08Z</time></trkpt><trkpt lat="37.90540530565504" lon="14.653138226759928"><ele>1490.0</ele><time>2026-04-12T09:09:09Z</time></trkpt><trkpt lat="37.905254779476174" lon="14.653008258445496"><ele>1490.0</ele><time>2026-04-12T09:09:10Z</time></trkpt><trkpt lat="37.90510487791199" lon="14.652872391078354"><ele>1489.6666666666667</ele><time>2026-04-12T09:09:11Z</time></trkpt><trkpt lat="37.904954097623765" lon="14.652733986778003"><ele>1489.3333333333333</ele><time>2026-04-12T09:09:12Z</time></trkpt><trkpt lat="37.90480614574088" lon="14.652592933997294"><ele>1489.0</ele><time>2026-04-12T09:09:13Z</time></trkpt><trkpt lat="37.904665185855" lon="14.652458369343815"><ele>1489.0</ele><time>2026-04-12T09:09:14Z</time></trkpt><trkpt lat="37.904524463937186" lon="14.65234345758423"><ele>1489.0</ele><time>2026-04-12T09:09:15Z</time></trkpt><trkpt lat="37.904374062681796" lon="14.652261728248524"><ele>1489.0</ele><time>2026-04-12T09:09:16Z</time></trkpt><trkpt lat="37.90421273086639" lon="14.652215405953692"><ele>1485.3333333333333</ele><time>2026-04-12T09:09:17Z</time></trkpt><trkpt lat="37.904042276354176" lon="14.652204757291175"><ele>1481.6666666666667</ele><time>2026-04-12T09:09:18Z</time></trkpt><trkpt lat="37.90385053174223" lon="14.65220902450478"><ele>1478.0</ele><time>2026-04-12T09:09:19Z</time></trkpt><trkpt lat="37.90367794413947" lon="14.652183039726802"><ele>1478.0</ele><time>2026-04-12T09:09:20Z</time></trkpt><trkpt lat="37.90349986426715" lon="14.652146109859324"><ele>1478.0</ele><time>2026-04-12T09:09:21Z</time></trkpt><trkpt lat="37.90331663742191" lon="14.652108115611329"><ele>1478.0</ele><time>2026-04-12T09:09:22Z</time></trkpt><trkpt lat="37.90314803332618" lon="14.652083146739834"><ele>1477.3333333333335</ele><time>2026-04-12T09:09:23Z</time></trkpt><trkpt lat="37.90298365316327" lon="14.652062626536276"><ele>1476.6666666666667</ele><time>2026-04-12T09:09:24Z</time></trkpt><trkpt lat="37.902820191681585" lon="14.652041967281072"><ele>1476.0</ele><time>2026-04-12T09:09:25Z</time></trkpt><trkpt lat="37.90266236627861" lon="14.65205130869428"><ele>1477.0</ele><time>2026-04-12T09:09:26Z</time></trkpt><trkpt lat="37.902509034465695" lon="14.652114883158681"><ele>1478.0</ele><time>2026-04-12T09:09:27Z</time></trkpt><trkpt lat="37.90237480127486" lon="14.652218069270438"><ele>1479.0</ele><time>2026-04-12T09:09:28Z</time></trkpt><trkpt lat="37.902233272855504" lon="14.652306570516108"><ele>1479.0</ele><time>2026-04-12T09:09:29Z</time></trkpt><trkpt lat="37.90210511647447" lon="14.652426207856841"><ele>1479.0</ele><time>2026-04-12T09:09:30Z</time></trkpt><trkpt lat="37.90196063836866" lon="14.652524272541058"><ele>1479.0</ele><time>2026-04-12T09:09:31Z</time></trkpt><trkpt lat="37.90181863726905" lon="14.652625577650067"><ele>1480.3333333333333</ele><time>2026-04-12T09:09:32Z</time></trkpt><trkpt lat="37.90168859237731" lon="14.652747760476501"><ele>1481.6666666666665</ele><time>2026-04-12T09:09:33Z</time></trkpt><trkpt lat="37.90157661722098" lon="14.65288252610436"><ele>1483.0</ele><time>2026-04-12T09:09:34Z</time></trkpt><trkpt lat="37.90150597176952" lon="14.65305664956633"><ele>1480.3333333333333</ele><time>2026-04-12T09:09:35Z</time></trkpt><trkpt lat="37.90143477648718" lon="14.653222792275038"><ele>1477.6666666666667</ele><time>2026-04-12T09:09:36Z</time></trkpt><trkpt lat="37.90131820523814" lon="14.653358368063603"><ele>1475.0</ele><time>2026-04-12T09:09:37Z</time></trkpt><trkpt lat="37.90117349515471" lon="14.6534649209806"><ele>1475.0</ele><time>2026-04-12T09:09:38Z</time></trkpt><trkpt lat="37.90102979534507" lon="14.65358032950733"><ele>1475.0</ele><time>2026-04-12T09:09:39Z</time></trkpt><trkpt lat="37.9008710312863" lon="14.65369733198932"><ele>1475.0</ele><time>2026-04-12T09:09:40Z</time></trkpt><trkpt lat="37.90070910926765" lon="14.653813333893142"><ele>1473.0</ele><time>2026-04-12T09:09:41Z</time></trkpt><trkpt lat="37.9005462336693" lon="14.65393285025848"><ele>1471.0</ele><time>2026-04-12T09:09:42Z</time></trkpt><trkpt lat="37.90038366925903" lon="14.65406974115308"><ele>1469.0</ele><time>2026-04-12T09:09:43Z</time></trkpt><trkpt lat="37.90023898113409" lon="14.654217917617627"><ele>1469.0</ele><time>2026-04-12T09:09:44Z</time></trkpt><trkpt lat="37.90010024105444" lon="14.654382683986933"><ele>1469.0</ele><time>2026-04-12T09:09:45Z</time></trkpt><trkpt lat="37.89994906847255" lon="14.654530122542884"><ele>1469.0</ele><time>2026-04-12T09:09:46Z</time></trkpt><trkpt lat="37.89981130038809" lon="14.654681762005204"><ele>1467.6666666666667</ele><time>2026-04-12T09:09:47Z</time></trkpt><trkpt lat="37.89968519861377" lon="14.654833306586406"><ele>1466.3333333333333</ele><time>2026-04-12T09:09:48Z</time></trkpt><trkpt lat="37.89953782889935" lon="14.654935805464934"><ele>1465.0</ele><time>2026-04-12T09:09:49Z</time></trkpt><trkpt lat="37.899378745017835" lon="14.65495762961147"><ele>1466.0</ele><time>2026-04-12T09:09:50Z</time></trkpt><trkpt lat="37.8992250348695" lon="14.654978180904674"><ele>1467.0</ele><time>2026-04-12T09:09:51Z</time></trkpt><trkpt lat="37.89907015995764" lon="14.654968958828103"><ele>1468.0</ele><time>2026-04-12T09:09:52Z</time></trkpt><trkpt lat="37.89890705499632" lon="14.654990035980365"><ele>1468.0</ele><time>2026-04-12T09:09:53Z</time></trkpt><trkpt lat="37.89873883132336" lon="14.655045524161952"><ele>1468.0</ele><time>2026-04-12T09:09:54Z</time></trkpt><trkpt lat="37.89857510235504" lon="14.655118878081606"><ele>1468.0</ele><time>2026-04-12T09:09:55Z</time></trkpt><trkpt lat="37.89843144716338" lon="14.655190536553244"><ele>1467.5</ele><time>2026-04-12T09:09:56Z</time></trkpt><trkpt lat="37.89830423143029" lon="14.655235533133581"><ele>1467.0</ele><time>2026-04-12T09:09:57Z</time></trkpt><trkpt lat="37.898184072345934" lon="14.65524434229706"><ele>1466.5</ele><time>2026-04-12T09:09:58Z</time></trkpt><trkpt lat="37.898064315741294" lon="14.655201014552919"><ele>1466.0</ele><time>2026-04-12T09:09:59Z</time></trkpt><trkpt lat="37.897949118002266" lon="14.655116153206121"><ele>1466.0</ele><time>2026-04-12T09:10:00Z</time></trkpt><trkpt lat="37.89783025564789" lon="14.654984915045869"><ele>1466.0</ele><time>2026-04-12T09:10:01Z</time></trkpt><trkpt lat="37.89770197386846" lon="14.65486730413822"><ele>1466.0</ele><time>2026-04-12T09:10:02Z</time></trkpt><trkpt lat="37.89755905398705" lon="14.654737822164908"><ele>1466.6666666666667</ele><time>2026-04-12T09:10:03Z</time></trkpt><trkpt lat="37.89741444830203" lon="14.654589549764667"><ele>1467.3333333333333</ele><time>2026-04-12T09:10:04Z</time></trkpt><trkpt lat="37.89727869734055" lon="14.654456153085896"><ele>1468.0</ele><time>2026-04-12T09:10:05Z</time></trkpt><trkpt lat="37.897142453498795" lon="14.654335807284514"><ele>1464.6666666666665</ele><time>2026-04-12T09:10:06Z</time></trkpt><trkpt lat="37.89699940875086" lon="14.654243599589265"><ele>1461.3333333333333</ele><time>2026-04-12T09:10:07Z</time></trkpt><trkpt lat="37.896849394111975" lon="14.654179431252356"><ele>1458.0</ele><time>2026-04-12T09:10:08Z</time></trkpt><trkpt lat="37.896694358261335" lon="14.654140804481363"><ele>1458.0</ele><time>2026-04-12T09:10:09Z</time></trkpt><trkpt lat="37.89653313431339" lon="14.654110689652127"><ele>1458.0</ele><time>2026-04-12T09:10:10Z</time></trkpt><trkpt lat="37.89636897810607" lon="14.654106906882202"><ele>1458.0</ele><time>2026-04-12T09:10:11Z</time></trkpt><trkpt lat="37.89618605348747" lon="14.654116669462816"><ele>1458.0</ele><time>2026-04-12T09:10:12Z</time></trkpt><trkpt lat="37.89600899019026" lon="14.654138169601207"><ele>1458.0</ele><time>2026-04-12T09:10:13Z</time></trkpt><trkpt lat="37.89583670293628" lon="14.654179196537312"><ele>1458.0</ele><time>2026-04-12T09:10:14Z</time></trkpt><trkpt lat="37.89567555296261" lon="14.654234169234847"><ele>1455.6666666666667</ele><time>2026-04-12T09:10:15Z</time></trkpt><trkpt lat="37.89552638771281" lon="14.65430794792126"><ele>1453.3333333333335</ele><time>2026-04-12T09:10:16Z</time></trkpt><trkpt lat="37.895385637661406" lon="14.654413158124493"><ele>1451.0</ele><time>2026-04-12T09:10:17Z</time></trkpt><trkpt lat="37.89525539185562" lon="14.654538171425989"><ele>1453.6666666666667</ele><time>2026-04-12T09:10:18Z</time></trkpt><trkpt lat="37.895116303431074" lon="14.654636048206646"><ele>1456.3333333333333</ele><time>2026-04-12T09:10:19Z</time></trkpt><trkpt lat="37.89496912862605" lon="14.654693078247105"><ele>1459.0</ele><time>2026-04-12T09:10:20Z</time></trkpt><trkpt lat="37.89482032235618" lon="14.654724207187972"><ele>1459.0</ele><time>2026-04-12T09:10:21Z</time></trkpt><trkpt lat="37.89466804618914" lon="14.65474778775491"><ele>1459.0</ele><time>2026-04-12T09:10:22Z</time></trkpt><trkpt lat="37.894517296183245" lon="14.654744826868406"><ele>1459.0</ele><time>2026-04-12T09:10:23Z</time></trkpt><trkpt lat="37.89435922584805" lon="14.654728835618153"><ele>1456.5</ele><time>2026-04-12T09:10:24Z</time></trkpt><trkpt lat="37.894206045874" lon="14.654725733550341"><ele>1454.0</ele><time>2026-04-12T09:10:25Z</time></trkpt><trkpt lat="37.89405929879267" lon="14.65473815471702"><ele>1451.5</ele><time>2026-04-12T09:10:26Z</time></trkpt><trkpt lat="37.89391380391533" lon="14.65477583247401"><ele>1449.0</ele><time>2026-04-12T09:10:27Z</time></trkpt><trkpt lat="37.893783892278755" lon="14.654834091412617"><ele>1449.0</ele><time>2026-04-12T09:10:28Z</time></trkpt><trkpt lat="37.89367264961119" lon="14.654881207805813"><ele>1449.0</ele><time>2026-04-12T09:10:29Z</time></trkpt><trkpt lat="37.89358218768867" lon="14.654921434188802"><ele>1449.0</ele><time>2026-04-12T09:10:30Z</time></trkpt><trkpt lat="37.893504592153434" lon="14.65493652564401"><ele>1449.0</ele><time>2026-04-12T09:10:31Z</time></trkpt><trkpt lat="37.89342048740082" lon="14.654861212571735"><ele>1449.0</ele><time>2026-04-12T09:10:33Z</time></trkpt><trkpt lat="37.89341534024106" lon="14.654781591148613"><ele>1449.0</ele><time>2026-04-12T09:10:34Z</time></trkpt><trkpt lat="37.89344770391355" lon="14.654710494224757"><ele>1449.0</ele><time>2026-04-12T09:10:35Z</time></trkpt><trkpt lat="37.89352614020577" lon="14.654715096411854"><ele>1449.0</ele><time>2026-04-12T09:10:36Z</time></trkpt><trkpt lat="37.89359921753057" lon="14.65471107812315"><ele>1449.0</ele><time>2026-04-12T09:10:37Z</time></trkpt><trkpt lat="37.89368236058742" lon="14.65468151575826"><ele>1449.0</ele><time>2026-04-12T09:10:38Z</time></trkpt><trkpt lat="37.89378005692148" lon="14.654673699499687"><ele>1449.0</ele><time>2026-04-12T09:10:39Z</time></trkpt><trkpt lat="37.89388739502318" lon="14.654642765917067"><ele>1449.0</ele><time>2026-04-12T09:10:40Z</time></trkpt><trkpt lat="37.89400755458168" lon="14.654601077673961"><ele>1449.0</ele><time>2026-04-12T09:10:41Z</time></trkpt><trkpt lat="37.89414132050748" lon="14.654568971514031"><ele>1449.0</ele><time>2026-04-12T09:10:42Z</time></trkpt><trkpt lat="37.8942797192057" lon="14.654547878808032"><ele>1449.0</ele><time>2026-04-12T09:10:43Z</time></trkpt><trkpt lat="37.8944206731029" lon="14.654529360551368"><ele>1451.5</ele><time>2026-04-12T09:10:44Z</time></trkpt><trkpt lat="37.89456302883159" lon="14.654507541586808"><ele>1454.0</ele><time>2026-04-12T09:10:45Z</time></trkpt><trkpt lat="37.89470354851294" lon="14.65448991618805"><ele>1456.5</ele><time>2026-04-12T09:10:46Z</time></trkpt><trkpt lat="37.89483914977693" lon="14.654461697105688"><ele>1459.0</ele><time>2026-04-12T09:10:47Z</time></trkpt><trkpt lat="37.89496906990542" lon="14.654397125419557"><ele>1457.0</ele><time>2026-04-12T09:10:48Z</time></trkpt><trkpt lat="37.895079574968996" lon="14.654289195620036"><ele>1455.0</ele><time>2026-04-12T09:10:49Z</time></trkpt><trkpt lat="37.895169397558895" lon="14.65414203516354"><ele>1453.0</ele><time>2026-04-12T09:10:50Z</time></trkpt><trkpt lat="37.89526070237972" lon="14.653990462802819"><ele>1451.0</ele><time>2026-04-12T09:10:51Z</time></trkpt><trkpt lat="37.895360433936624" lon="14.653834852167474"><ele>1451.0</ele><time>2026-04-12T09:10:52Z</time></trkpt><trkpt lat="37.89547126154957" lon="14.653673839895188"><ele>1451.0</ele><time>2026-04-12T09:10:53Z</time></trkpt><trkpt lat="37.89562272670968" lon="14.653572112789975"><ele>1451.0</ele><time>2026-04-12T09:10:54Z</time></trkpt><trkpt lat="37.8957858534406" lon="14.653484961173332"><ele>1445.6666666666667</ele><time>2026-04-12T09:10:55Z</time></trkpt><trkpt lat="37.89595492168526" lon="14.65339010476645"><ele>1440.3333333333333</ele><time>2026-04-12T09:10:56Z</time></trkpt><trkpt lat="37.89611727746855" lon="14.653299353160092"><ele>1435.0</ele><time>2026-04-12T09:10:57Z</time></trkpt><trkpt lat="37.89626555496615" lon="14.653205402603238"><ele>1435.0</ele><time>2026-04-12T09:10:58Z</time></trkpt><trkpt lat="37.89639829180964" lon="14.65310596156929"><ele>1435.0</ele><time>2026-04-12T09:10:59Z</time></trkpt><trkpt lat="37.89651071369963" lon="14.653021766456124"><ele>1435.0</ele><time>2026-04-12T09:11:00Z</time></trkpt><trkpt lat="37.89660119899238" lon="14.652942532963252"><ele>1435.0</ele><time>2026-04-12T09:11:01Z</time></trkpt><trkpt lat="37.89668845599019" lon="14.652877811553052"><ele>1435.1666666666665</ele><time>2026-04-12T09:11:02Z</time></trkpt><trkpt lat="37.896761944251054" lon="14.652805248681199"><ele>1435.3333333333333</ele><time>2026-04-12T09:11:03Z</time></trkpt><trkpt lat="37.8968010400196" lon="14.65270876317393"><ele>1435.5</ele><time>2026-04-12T09:11:04Z</time></trkpt><trkpt lat="37.89679413258893" lon="14.6526047057771"><ele>1435.6666666666667</ele><time>2026-04-12T09:11:05Z</time></trkpt><trkpt lat="37.896747227481214" lon="14.6525195559599"><ele>1435.8333333333335</ele><time>2026-04-12T09:11:06Z</time></trkpt><trkpt lat="37.8966677754596" lon="14.65247114154513"><ele>1436.0</ele><time>2026-04-12T09:11:07Z</time></trkpt><trkpt lat="37.8965772092403" lon="14.652482986661951"><ele>1435.75</ele><time>2026-04-12T09:11:08Z</time></trkpt><trkpt lat="37.89649192163453" lon="14.652554581284003"><ele>1435.5</ele><time>2026-04-12T09:11:09Z</time></trkpt><trkpt lat="37.89641734635548" lon="14.652676426634663"><ele>1435.25</ele><time>2026-04-12T09:11:10Z</time></trkpt><trkpt lat="37.8963122595717" lon="14.652777273854646"><ele>1435.0</ele><time>2026-04-12T09:11:11Z</time></trkpt><trkpt lat="37.89621545739284" lon="14.652896229226519"><ele>1435.0</ele><time>2026-04-12T09:11:12Z</time></trkpt><trkpt lat="37.89612486051608" lon="14.652993894102943"><ele>1435.0</ele><time>2026-04-12T09:11:13Z</time></trkpt><trkpt lat="37.89600291576955" lon="14.653024977599312"><ele>1435.0</ele><time>2026-04-12T09:11:14Z</time></trkpt><trkpt lat="37.8958710852837" lon="14.653009187520095"><ele>1435.0</ele><time>2026-04-12T09:11:15Z</time></trkpt><trkpt lat="37.895733292317104" lon="14.652958888348094"><ele>1431.0</ele><time>2026-04-12T09:11:16Z</time></trkpt><trkpt lat="37.895581436383694" lon="14.652929234973511"><ele>1427.0</ele><time>2026-04-12T09:11:17Z</time></trkpt><trkpt lat="37.895424830003044" lon="14.652966844971571"><ele>1423.0</ele><time>2026-04-12T09:11:18Z</time></trkpt><trkpt lat="37.89526980809264" lon="14.653021022086564"><ele>1423.0</ele><time>2026-04-12T09:11:19Z</time></trkpt><trkpt lat="37.895121864998536" lon="14.653048385121114"><ele>1423.0</ele><time>2026-04-12T09:11:20Z</time></trkpt><trkpt lat="37.89497924027748" lon="14.653045875527429"><ele>1423.0</ele><time>2026-04-12T09:11:21Z</time></trkpt><trkpt lat="37.89484802593395" lon="14.652983077499943"><ele>1423.0</ele><time>2026-04-12T09:11:22Z</time></trkpt><trkpt lat="37.8947359545178" lon="14.652886175281406"><ele>1421.0</ele><time>2026-04-12T09:11:23Z</time></trkpt><trkpt lat="37.894615925125215" lon="14.65280389922142"><ele>1419.0</ele><time>2026-04-12T09:11:24Z</time></trkpt><trkpt lat="37.894478986856015" lon="14.652799531670153"><ele>1417.0</ele><time>2026-04-12T09:11:25Z</time></trkpt><trkpt lat="37.89432309486612" lon="14.652850217582383"><ele>1415.0</ele><time>2026-04-12T09:11:26Z</time></trkpt><trkpt lat="37.8941752884102" lon="14.652881725136771"><ele>1413.25</ele><time>2026-04-12T09:11:27Z</time></trkpt><trkpt lat="37.89403362591128" lon="14.652908107236666"><ele>1411.5</ele><time>2026-04-12T09:11:28Z</time></trkpt><trkpt lat="37.89390571838924" lon="14.652969481072812"><ele>1409.75</ele><time>2026-04-12T09:11:29Z</time></trkpt><trkpt lat="37.893785706233665" lon="14.653091816719494"><ele>1408.0</ele><time>2026-04-12T09:11:30Z</time></trkpt><trkpt lat="37.893694769488484" lon="14.653201963538681"><ele>1408.0</ele><time>2026-04-12T09:11:31Z</time></trkpt><trkpt lat="37.89360678222556" lon="14.65326413920097"><ele>1408.0</ele><time>2026-04-12T09:11:32Z</time></trkpt><trkpt lat="37.893500091298634" lon="14.653289169689804"><ele>1408.0</ele><time>2026-04-12T09:11:33Z</time></trkpt><trkpt lat="37.89340906139077" lon="14.653246428922518"><ele>1408.0</ele><time>2026-04-12T09:11:34Z</time></trkpt><trkpt lat="37.89333721153828" lon="14.653194892363228"><ele>1408.0</ele><time>2026-04-12T09:11:35Z</time></trkpt><trkpt lat="37.89319626103608" lon="14.653090953704451"><ele>1406.0</ele><time>2026-04-12T09:11:36Z</time></trkpt><trkpt lat="37.893073690597255" lon="14.65302056606055"><ele>1404.0</ele><time>2026-04-12T09:11:37Z</time></trkpt><trkpt lat="37.89294906638471" lon="14.652950585967245"><ele>1402.0</ele><time>2026-04-12T09:11:38Z</time></trkpt><trkpt lat="37.89282584043124" lon="14.652890409550269"><ele>1400.0</ele><time>2026-04-12T09:11:39Z</time></trkpt><trkpt lat="37.89270482197" lon="14.652891353570228"><ele>1400.0</ele><time>2026-04-12T09:11:40Z</time></trkpt><trkpt lat="37.89259079160406" lon="14.652956604819053"><ele>1400.0</ele><time>2026-04-12T09:11:41Z</time></trkpt><trkpt lat="37.892509746838385" lon="14.653078626487828"><ele>1400.0</ele><time>2026-04-12T09:11:42Z</time></trkpt><trkpt lat="37.89243718875572" lon="14.653169795982096"><ele>1400.0</ele><time>2026-04-12T09:11:43Z</time></trkpt><trkpt lat="37.892368572945934" lon="14.653249648162046"><ele>1400.0</ele><time>2026-04-12T09:11:44Z</time></trkpt><trkpt lat="37.892310662003446" lon="14.65331704268622"><ele>1397.6</ele><time>2026-04-12T09:11:45Z</time></trkpt><trkpt lat="37.892208423234734" lon="14.653342834116097"><ele>1395.2</ele><time>2026-04-12T09:11:47Z</time></trkpt><trkpt lat="37.89216905765327" lon="14.653276224946048"><ele>1392.8000000000002</ele><time>2026-04-12T09:11:48Z</time></trkpt><trkpt lat="37.89216149765254" lon="14.653176140487682"><ele>1390.4</ele><time>2026-04-12T09:11:49Z</time></trkpt><trkpt lat="37.89219480553508" lon="14.653076433436118"><ele>1388.0</ele><time>2026-04-12T09:11:50Z</time></trkpt><trkpt lat="37.892319070434056" lon="14.653014663108822"><ele>1388.0</ele><time>2026-04-12T09:11:51Z</time></trkpt><trkpt lat="37.89240035101623" lon="14.652909787173488"><ele>1388.0</ele><time>2026-04-12T09:11:52Z</time></trkpt><trkpt lat="37.89249391688639" lon="14.652786702773028"><ele>1388.0</ele><time>2026-04-12T09:11:53Z</time></trkpt><trkpt lat="37.89261147766477" lon="14.652690394762049"><ele>1388.0</ele><time>2026-04-12T09:11:54Z</time></trkpt><trkpt lat="37.89274433627746" lon="14.652634065803275"><ele>1385.75</ele><time>2026-04-12T09:11:55Z</time></trkpt><trkpt lat="37.89289306136607" lon="14.652642282644845"><ele>1383.5</ele><time>2026-04-12T09:11:56Z</time></trkpt><trkpt lat="37.893034155033355" lon="14.652641408755086"><ele>1381.25</ele><time>2026-04-12T09:11:57Z</time></trkpt><trkpt lat="37.89316671835882" lon="14.652625944253543"><ele>1379.0</ele><time>2026-04-12T09:11:58Z</time></trkpt><trkpt lat="37.89328298241952" lon="14.652625451671744"><ele>1379.0</ele><time>2026-04-12T09:11:59Z</time></trkpt><trkpt lat="37.89338778867017" lon="14.652594592219591"><ele>1379.0</ele><time>2026-04-12T09:12:00Z</time></trkpt><trkpt lat="37.89347136315875" lon="14.652502030485094"><ele>1379.0</ele><time>2026-04-12T09:12:01Z</time></trkpt><trkpt lat="37.893495766220894" lon="14.652310417498985"><ele>1379.0</ele><time>2026-04-12T09:12:02Z</time></trkpt><trkpt lat="37.893531678315654" lon="14.652146926923313"><ele>1379.25</ele><time>2026-04-12T09:12:03Z</time></trkpt><trkpt lat="37.893620046829064" lon="14.65201102149899"><ele>1379.5</ele><time>2026-04-12T09:12:04Z</time></trkpt><trkpt lat="37.89375420166124" lon="14.65197437381375"><ele>1379.75</ele><time>2026-04-12T09:12:05Z</time></trkpt><trkpt lat="37.893865433080855" lon="14.651892814015175"><ele>1380.0</ele><time>2026-04-12T09:12:06Z</time></trkpt><trkpt lat="37.893959297767026" lon="14.651813997149862"><ele>1380.0</ele><time>2026-04-12T09:12:07Z</time></trkpt><trkpt lat="37.89400399566673" lon="14.65168945781251"><ele>1380.0</ele><time>2026-04-12T09:12:08Z</time></trkpt><trkpt lat="37.89399722407366" lon="14.651542025501922"><ele>1380.0</ele><time>2026-04-12T09:12:09Z</time></trkpt><trkpt lat="37.89395666632758" lon="14.651402991906584"><ele>1380.0</ele><time>2026-04-12T09:12:10Z</time></trkpt><trkpt lat="37.893883788760455" lon="14.651312319782976"><ele>1380.0</ele><time>2026-04-12T09:12:11Z</time></trkpt><trkpt lat="37.89379035252784" lon="14.651280413176702"><ele>1380.0</ele><time>2026-04-12T09:12:12Z</time></trkpt><trkpt lat="37.893678061061955" lon="14.651280800046596"><ele>1380.0</ele><time>2026-04-12T09:12:13Z</time></trkpt><trkpt lat="37.89355850487778" lon="14.651266173138778"><ele>1380.0</ele><time>2026-04-12T09:12:14Z</time></trkpt><trkpt lat="37.893412174297985" lon="14.651195748922612"><ele>1380.0</ele><time>2026-04-12T09:12:15Z</time></trkpt><trkpt lat="37.89329018092747" lon="14.651106458391071"><ele>1381.3333333333333</ele><time>2026-04-12T09:12:16Z</time></trkpt><trkpt lat="37.89312381960347" lon="14.651039853900937"><ele>1382.6666666666665</ele><time>2026-04-12T09:12:17Z</time></trkpt><trkpt lat="37.8929529366443" lon="14.651020892460815"><ele>1384.0</ele><time>2026-04-12T09:12:18Z</time></trkpt><trkpt lat="37.89280741399209" lon="14.650960166823653"><ele>1384.0</ele><time>2026-04-12T09:12:19Z</time></trkpt><trkpt lat="37.89269723743766" lon="14.650879494696907"><ele>1384.0</ele><time>2026-04-12T09:12:20Z</time></trkpt><trkpt lat="37.89260847656883" lon="14.650838138975523"><ele>1384.0</ele><time>2026-04-12T09:12:21Z</time></trkpt><trkpt lat="37.89251811610053" lon="14.650824215376499"><ele>1384.0</ele><time>2026-04-12T09:12:22Z</time></trkpt><trkpt lat="37.89244301686238" lon="14.650712659547322"><ele>1384.0</ele><time>2026-04-12T09:12:23Z</time></trkpt><trkpt lat="37.89239337677046" lon="14.650573667556715"><ele>1379.0</ele><time>2026-04-12T09:12:24Z</time></trkpt><trkpt lat="37.89234682187597" lon="14.65042267827176"><ele>1374.0</ele><time>2026-04-12T09:12:25Z</time></trkpt><trkpt lat="37.89227300855059" lon="14.650247694272187"><ele>1369.0</ele><time>2026-04-12T09:12:26Z</time></trkpt><trkpt lat="37.892145000249116" lon="14.650096702069714"><ele>1369.0</ele><time>2026-04-12T09:12:27Z</time></trkpt><trkpt lat="37.89203705695606" lon="14.649953913405087"><ele>1369.0</ele><time>2026-04-12T09:12:28Z</time></trkpt><trkpt lat="37.891946349058365" lon="14.649809812690357"><ele>1369.0</ele><time>2026-04-12T09:12:29Z</time></trkpt><trkpt lat="37.89187322001347" lon="14.649656448936527"><ele>1369.0</ele><time>2026-04-12T09:12:30Z</time></trkpt><trkpt lat="37.89182541472071" lon="14.649504086737469"><ele>1371.5</ele><time>2026-04-12T09:12:31Z</time></trkpt><trkpt lat="37.89180205945938" lon="14.649336751209997"><ele>1374.0</ele><time>2026-04-12T09:12:32Z</time></trkpt><trkpt lat="37.891811347454656" lon="14.64919284815358"><ele>1376.5</ele><time>2026-04-12T09:12:33Z</time></trkpt><trkpt lat="37.89176535989628" lon="14.649040721746585"><ele>1379.0</ele><time>2026-04-12T09:12:34Z</time></trkpt><trkpt lat="37.89170913932118" lon="14.648939578329095"><ele>1373.2</ele><time>2026-04-12T09:12:35Z</time></trkpt><trkpt lat="37.891628705104715" lon="14.648863644630918"><ele>1367.4</ele><time>2026-04-12T09:12:36Z</time></trkpt><trkpt lat="37.89154003124975" lon="14.648843015406936"><ele>1361.6</ele><time>2026-04-12T09:12:37Z</time></trkpt><trkpt lat="37.891437544597075" lon="14.64889389865753"><ele>1355.8</ele><time>2026-04-12T09:12:38Z</time></trkpt><trkpt lat="37.89134673502031" lon="14.64892090619225"><ele>1350.0</ele><time>2026-04-12T09:12:39Z</time></trkpt><trkpt lat="37.89125241619677" lon="14.648919765462853"><ele>1350.0</ele><time>2026-04-12T09:12:40Z</time></trkpt><trkpt lat="37.89117633930687" lon="14.648986018020148"><ele>1350.0</ele><time>2026-04-12T09:12:41Z</time></trkpt><trkpt lat="37.891139246362535" lon="14.64908605960017"><ele>1350.0</ele><time>2026-04-12T09:12:42Z</time></trkpt><trkpt lat="37.891126702809075" lon="14.64918291482914"><ele>1350.0</ele><time>2026-04-12T09:12:43Z</time></trkpt><trkpt lat="37.891120152498985" lon="14.649279905649447"><ele>1350.0</ele><time>2026-04-12T09:12:44Z</time></trkpt><trkpt lat="37.89111022321982" lon="14.649382603311432"><ele>1350.0</ele><time>2026-04-12T09:12:45Z</time></trkpt><trkpt lat="37.891095970829646" lon="14.6494898544891"><ele>1348.5</ele><time>2026-04-12T09:12:46Z</time></trkpt><trkpt lat="37.891070667610904" lon="14.649600467197843"><ele>1347.0</ele><time>2026-04-12T09:12:47Z</time></trkpt><trkpt lat="37.89103436352437" lon="14.649733762251314"><ele>1345.5</ele><time>2026-04-12T09:12:48Z</time></trkpt><trkpt lat="37.89098959485502" lon="14.649870249122898"><ele>1344.0</ele><time>2026-04-12T09:12:49Z</time></trkpt><trkpt lat="37.89092472336911" lon="14.650021984507305"><ele>1342.25</ele><time>2026-04-12T09:12:50Z</time></trkpt><trkpt lat="37.89088833512476" lon="14.650173080476097"><ele>1340.5</ele><time>2026-04-12T09:12:51Z</time></trkpt><trkpt lat="37.89080282565215" lon="14.650285194649436"><ele>1338.75</ele><time>2026-04-12T09:12:52Z</time></trkpt><trkpt lat="37.890703573131304" lon="14.65036198202566"><ele>1337.0</ele><time>2026-04-12T09:12:53Z</time></trkpt><trkpt lat="37.89060509016882" lon="14.650427091096551"><ele>1337.0</ele><time>2026-04-12T09:12:54Z</time></trkpt><trkpt lat="37.89048306990052" lon="14.650479626457365"><ele>1337.0</ele><time>2026-04-12T09:12:55Z</time></trkpt><trkpt lat="37.890366305440494" lon="14.650585773363053"><ele>1337.0</ele><time>2026-04-12T09:12:56Z</time></trkpt><trkpt lat="37.890274404846046" lon="14.650742626232518"><ele>1337.0</ele><time>2026-04-12T09:12:57Z</time></trkpt><trkpt lat="37.89020685847456" lon="14.650925177287897"><ele>1334.0</ele><time>2026-04-12T09:12:58Z</time></trkpt><trkpt lat="37.89016008233053" lon="14.651125046930643"><ele>1331.0</ele><time>2026-04-12T09:12:59Z</time></trkpt><trkpt lat="37.8901126291882" lon="14.651330324028573"><ele>1328.0</ele><time>2026-04-12T09:13:00Z</time></trkpt><trkpt lat="37.890061141441116" lon="14.651527076108984"><ele>1331.6666666666667</ele><time>2026-04-12T09:13:01Z</time></trkpt><trkpt lat="37.89000084762224" lon="14.651712348261297"><ele>1335.3333333333333</ele><time>2026-04-12T09:13:02Z</time></trkpt><trkpt lat="37.889914972123506" lon="14.651896632958032"><ele>1339.0</ele><time>2026-04-12T09:13:03Z</time></trkpt><trkpt lat="37.8898048122436" lon="14.652069797122827"><ele>1339.0</ele><time>2026-04-12T09:13:04Z</time></trkpt><trkpt lat="37.8896895298017" lon="14.652251365357834"><ele>1339.0</ele><time>2026-04-12T09:13:05Z</time></trkpt><trkpt lat="37.8895852093843" lon="14.652460138581791"><ele>1339.0</ele><time>2026-04-12T09:13:06Z</time></trkpt><trkpt lat="37.88950801622531" lon="14.65268286580092"><ele>1335.3333333333333</ele><time>2026-04-12T09:13:07Z</time></trkpt><trkpt lat="37.88944530401453" lon="14.652894974461613"><ele>1331.6666666666667</ele><time>2026-04-12T09:13:08Z</time></trkpt><trkpt lat="37.88939722460906" lon="14.653113089688489"><ele>1328.0</ele><time>2026-04-12T09:13:09Z</time></trkpt><trkpt lat="37.88935181501928" lon="14.653311185426874"><ele>1328.0</ele><time>2026-04-12T09:13:10Z</time></trkpt><trkpt lat="37.88929432296075" lon="14.653494259575583"><ele>1328.0</ele><time>2026-04-12T09:13:11Z</time></trkpt><trkpt lat="37.88921147018899" lon="14.6536559790921"><ele>1328.0</ele><time>2026-04-12T09:13:12Z</time></trkpt><trkpt lat="37.88910748008111" lon="14.653767669140287"><ele>1328.0</ele><time>2026-04-12T09:13:13Z</time></trkpt><trkpt lat="37.888987279706015" lon="14.653828030664126"><ele>1326.5</ele><time>2026-04-12T09:13:14Z</time></trkpt><trkpt lat="37.88885723092468" lon="14.653832282381588"><ele>1325.0</ele><time>2026-04-12T09:13:15Z</time></trkpt><trkpt lat="37.8887300289053" lon="14.65378566717875"><ele>1323.5</ele><time>2026-04-12T09:13:16Z</time></trkpt><trkpt lat="37.88861509296836" lon="14.653784761796526"><ele>1322.0</ele><time>2026-04-12T09:13:17Z</time></trkpt><trkpt lat="37.888500734002406" lon="14.653846750897468"><ele>1326.6666666666667</ele><time>2026-04-12T09:13:18Z</time></trkpt><trkpt lat="37.88837573701952" lon="14.653935314599972"><ele>1331.3333333333333</ele><time>2026-04-12T09:13:19Z</time></trkpt><trkpt lat="37.88824653742511" lon="14.654045100434178"><ele>1336.0</ele><time>2026-04-12T09:13:20Z</time></trkpt><trkpt lat="37.888109830615036" lon="14.654190041218033"><ele>1336.0</ele><time>2026-04-12T09:13:21Z</time></trkpt><trkpt lat="37.887963452748586" lon="14.654341967251687"><ele>1336.0</ele><time>2026-04-12T09:13:22Z</time></trkpt><trkpt lat="37.88779031022752" lon="14.654509643802841"><ele>1336.0</ele><time>2026-04-12T09:13:23Z</time></trkpt><trkpt lat="37.88760974174765" lon="14.654680990387085"><ele>1336.0</ele><time>2026-04-12T09:13:24Z</time></trkpt><trkpt lat="37.88744787440419" lon="14.654847517027594"><ele>1336.0</ele><time>2026-04-12T09:13:25Z</time></trkpt><trkpt lat="37.887285129351156" lon="14.654995978622837"><ele>1336.0</ele><time>2026-04-12T09:13:26Z</time></trkpt><trkpt lat="37.88712640151857" lon="14.655143604003415"><ele>1328.3333333333333</ele><time>2026-04-12T09:13:27Z</time></trkpt><trkpt lat="37.88698552267422" lon="14.65529222226697"><ele>1320.6666666666667</ele><time>2026-04-12T09:13:28Z</time></trkpt><trkpt lat="37.88687922941991" lon="14.655464629557471"><ele>1313.0</ele><time>2026-04-12T09:13:29Z</time></trkpt><trkpt lat="37.88678526215227" lon="14.655644916700158"><ele>1314.75</ele><time>2026-04-12T09:13:30Z</time></trkpt><trkpt lat="37.886737463621586" lon="14.655826957930783"><ele>1316.5</ele><time>2026-04-12T09:13:31Z</time></trkpt><trkpt lat="37.88665289377268" lon="14.655969412271093"><ele>1318.25</ele><time>2026-04-12T09:13:32Z</time></trkpt><trkpt lat="37.88654194608402" lon="14.65607287673085"><ele>1320.0</ele><time>2026-04-12T09:13:33Z</time></trkpt><trkpt lat="37.88641279747485" lon="14.656146078266865"><ele>1320.0</ele><time>2026-04-12T09:13:34Z</time></trkpt><trkpt lat="37.88625873923925" lon="14.656228872674577"><ele>1320.0</ele><time>2026-04-12T09:13:35Z</time></trkpt><trkpt lat="37.88609848053306" lon="14.656313382482306"><ele>1320.0</ele><time>2026-04-12T09:13:36Z</time></trkpt><trkpt lat="37.88593420650043" lon="14.656412679133927"><ele>1323.0</ele><time>2026-04-12T09:13:37Z</time></trkpt><trkpt lat="37.88576671508446" lon="14.656505484100613"><ele>1326.0</ele><time>2026-04-12T09:13:38Z</time></trkpt><trkpt lat="37.8856117146568" lon="14.656584921938855"><ele>1329.0</ele><time>2026-04-12T09:13:39Z</time></trkpt><trkpt lat="37.885469956423414" lon="14.656648548868262"><ele>1329.0</ele><time>2026-04-12T09:13:40Z</time></trkpt><trkpt lat="37.88532208227414" lon="14.656665568551306"><ele>1329.0</ele><time>2026-04-12T09:13:41Z</time></trkpt><trkpt lat="37.885182204115296" lon="14.656627852277998"><ele>1329.0</ele><time>2026-04-12T09:13:42Z</time></trkpt><trkpt lat="37.88505020010952" lon="14.656561648683347"><ele>1329.0</ele><time>2026-04-12T09:13:43Z</time></trkpt><trkpt lat="37.88492937964445" lon="14.65649402074296"><ele>1329.8000000000002</ele><time>2026-04-12T09:13:44Z</time></trkpt><trkpt lat="37.88482528762636" lon="14.656437355257792"><ele>1330.6000000000001</ele><time>2026-04-12T09:13:45Z</time></trkpt><trkpt lat="37.884728999103594" lon="14.656414787545202"><ele>1331.4</ele><time>2026-04-12T09:13:46Z</time></trkpt><trkpt lat="37.884630256484876" lon="14.656456572599923"><ele>1332.2</ele><time>2026-04-12T09:13:47Z</time></trkpt><trkpt lat="37.88454942757858" lon="14.656549575941906"><ele>1333.0</ele><time>2026-04-12T09:13:48Z</time></trkpt><trkpt lat="37.88449651160834" lon="14.656681681568287"><ele>1333.0</ele><time>2026-04-12T09:13:49Z</time></trkpt><trkpt lat="37.884481664264996" lon="14.656859633239797"><ele>1333.0</ele><time>2026-04-12T09:13:50Z</time></trkpt><trkpt lat="37.8844679881843" lon="14.657050715892911"><ele>1333.0</ele><time>2026-04-12T09:13:51Z</time></trkpt><trkpt lat="37.88444444242595" lon="14.657258071623813"><ele>1328.6666666666665</ele><time>2026-04-12T09:13:52Z</time></trkpt><trkpt lat="37.88442331764826" lon="14.657483986385415"><ele>1324.3333333333333</ele><time>2026-04-12T09:13:53Z</time></trkpt><trkpt lat="37.88439982550549" lon="14.657719933830391"><ele>1320.0</ele><time>2026-04-12T09:13:54Z</time></trkpt><trkpt lat="37.884371221057485" lon="14.657930185580737"><ele>1318.6666666666667</ele><time>2026-04-12T09:13:55Z</time></trkpt><trkpt lat="37.88435124723889" lon="14.65812981005735"><ele>1317.3333333333335</ele><time>2026-04-12T09:13:56Z</time></trkpt><trkpt lat="37.88437087441768" lon="14.65832206704155"><ele>1316.0</ele><time>2026-04-12T09:13:57Z</time></trkpt><trkpt lat="37.88441780379491" lon="14.65851962793232"><ele>1316.5</ele><time>2026-04-12T09:13:58Z</time></trkpt><trkpt lat="37.88448738963997" lon="14.65870974589472"><ele>1317.0</ele><time>2026-04-12T09:13:59Z</time></trkpt><trkpt lat="37.884522582542125" lon="14.658869416673609"><ele>1317.5</ele><time>2026-04-12T09:14:00Z</time></trkpt><trkpt lat="37.8844871789738" lon="14.65903240718869"><ele>1318.0</ele><time>2026-04-12T09:14:01Z</time></trkpt><trkpt lat="37.8844152416036" lon="14.659185967802735"><ele>1318.0</ele><time>2026-04-12T09:14:02Z</time></trkpt><trkpt lat="37.88433059277747" lon="14.659344028747634"><ele>1318.0</ele><time>2026-04-12T09:14:03Z</time></trkpt><trkpt lat="37.88424437868755" lon="14.659520411109321"><ele>1318.0</ele><time>2026-04-12T09:14:04Z</time></trkpt><trkpt lat="37.884158804007015" lon="14.659697988488592"><ele>1320.75</ele><time>2026-04-12T09:14:05Z</time></trkpt><trkpt lat="37.884078656799794" lon="14.65986302235129"><ele>1323.5</ele><time>2026-04-12T09:14:06Z</time></trkpt><trkpt lat="37.88398880348256" lon="14.660000868744522"><ele>1326.25</ele><time>2026-04-12T09:14:07Z</time></trkpt><trkpt lat="37.883880308386374" lon="14.660110139059842"><ele>1329.0</ele><time>2026-04-12T09:14:08Z</time></trkpt><trkpt lat="37.883750471965065" lon="14.660184442597217"><ele>1329.0</ele><time>2026-04-12T09:14:09Z</time></trkpt><trkpt lat="37.88360801267822" lon="14.660228102378229"><ele>1329.0</ele><time>2026-04-12T09:14:10Z</time></trkpt><trkpt lat="37.883467494120175" lon="14.660213291713697"><ele>1329.0</ele><time>2026-04-12T09:14:11Z</time></trkpt><trkpt lat="37.88333037929199" lon="14.660140451893634"><ele>1329.0</ele><time>2026-04-12T09:14:12Z</time></trkpt><trkpt lat="37.883206093116435" lon="14.66003198256529"><ele>1330.3333333333333</ele><time>2026-04-12T09:14:13Z</time></trkpt><trkpt lat="37.88306440175918" lon="14.659922692103757"><ele>1331.6666666666665</ele><time>2026-04-12T09:14:14Z</time></trkpt><trkpt lat="37.88290446085905" lon="14.659871585363014"><ele>1333.0</ele><time>2026-04-12T09:14:15Z</time></trkpt><trkpt lat="37.88273438979983" lon="14.659881177570904"><ele>1333.0</ele><time>2026-04-12T09:14:16Z</time></trkpt><trkpt lat="37.88255268870333" lon="14.659949637867875"><ele>1333.0</ele><time>2026-04-12T09:14:17Z</time></trkpt><trkpt lat="37.882381332992104" lon="14.660009688625586"><ele>1333.0</ele><time>2026-04-12T09:14:18Z</time></trkpt><trkpt lat="37.88220455325303" lon="14.660022514933882"><ele>1333.0</ele><time>2026-04-12T09:14:19Z</time></trkpt><trkpt lat="37.88203902429552" lon="14.659996628356971"><ele>1333.0</ele><time>2026-04-12T09:14:20Z</time></trkpt><trkpt lat="37.88187592824614" lon="14.659948158903793"><ele>1333.0</ele><time>2026-04-12T09:14:21Z</time></trkpt><trkpt lat="37.88171478059164" lon="14.659874949982262"><ele>1332.0</ele><time>2026-04-12T09:14:22Z</time></trkpt><trkpt lat="37.88156332863556" lon="14.659811659795446"><ele>1331.0</ele><time>2026-04-12T09:14:23Z</time></trkpt><trkpt lat="37.88142056217171" lon="14.659755215699791"><ele>1330.0</ele><time>2026-04-12T09:14:24Z</time></trkpt><trkpt lat="37.88129175989474" lon="14.659719583313754"><ele>1329.0</ele><time>2026-04-12T09:14:25Z</time></trkpt><trkpt lat="37.8811581264444" lon="14.65971959403494"><ele>1329.0</ele><time>2026-04-12T09:14:26Z</time></trkpt><trkpt lat="37.88102295401999" lon="14.659771955064125"><ele>1329.0</ele><time>2026-04-12T09:14:27Z</time></trkpt><trkpt lat="37.88088350141272" lon="14.659857885905907"><ele>1329.0</ele><time>2026-04-12T09:14:28Z</time></trkpt><trkpt lat="37.88073334864882" lon="14.65993927061276"><ele>1329.3333333333333</ele><time>2026-04-12T09:14:29Z</time></trkpt><trkpt lat="37.880572902907765" lon="14.660037463032229"><ele>1329.6666666666665</ele><time>2026-04-12T09:14:30Z</time></trkpt><trkpt lat="37.88041307579303" lon="14.660132863187275"><ele>1330.0</ele><time>2026-04-12T09:14:31Z</time></trkpt><trkpt lat="37.880253389280895" lon="14.660251384368822"><ele>1330.6666666666665</ele><time>2026-04-12T09:14:32Z</time></trkpt><trkpt lat="37.88011339148731" lon="14.660410481094171"><ele>1331.3333333333333</ele><time>2026-04-12T09:14:33Z</time></trkpt><trkpt lat="37.87999850103537" lon="14.660577591065334"><ele>1332.0</ele><time>2026-04-12T09:14:34Z</time></trkpt><trkpt lat="37.879889120097396" lon="14.660720391154374"><ele>1332.0</ele><time>2026-04-12T09:14:35Z</time></trkpt><trkpt lat="37.87977009283189" lon="14.66084283302082"><ele>1332.0</ele><time>2026-04-12T09:14:36Z</time></trkpt><trkpt lat="37.87961938944503" lon="14.660941467756311"><ele>1332.0</ele><time>2026-04-12T09:14:37Z</time></trkpt><trkpt lat="37.87943617688988" lon="14.66098063601606"><ele>1334.0</ele><time>2026-04-12T09:14:38Z</time></trkpt><trkpt lat="37.87925228826105" lon="14.661019175427993"><ele>1336.0</ele><time>2026-04-12T09:14:39Z</time></trkpt><trkpt lat="37.8790550909122" lon="14.661076479275435"><ele>1338.0</ele><time>2026-04-12T09:14:40Z</time></trkpt><trkpt lat="37.87885442753066" lon="14.661152836017248"><ele>1336.0</ele><time>2026-04-12T09:14:41Z</time></trkpt><trkpt lat="37.87866303518892" lon="14.661212365674304"><ele>1334.0</ele><time>2026-04-12T09:14:42Z</time></trkpt><trkpt lat="37.878493617767305" lon="14.661261058523403"><ele>1332.0</ele><time>2026-04-12T09:14:43Z</time></trkpt><trkpt lat="37.87834676615894" lon="14.661308915023834"><ele>1332.0</ele><time>2026-04-12T09:14:44Z</time></trkpt><trkpt lat="37.87821913954057" lon="14.66139615478762"><ele>1332.0</ele><time>2026-04-12T09:14:45Z</time></trkpt><trkpt lat="37.87810533026929" lon="14.66152565746984"><ele>1332.0</ele><time>2026-04-12T09:14:46Z</time></trkpt><trkpt lat="37.87800909312869" lon="14.661696988404833"><ele>1332.0</ele><time>2026-04-12T09:14:47Z</time></trkpt><trkpt lat="37.87791824356633" lon="14.661890046595447"><ele>1332.0</ele><time>2026-04-12T09:14:48Z</time></trkpt><trkpt lat="37.87782099340724" lon="14.662093999351566"><ele>1332.0</ele><time>2026-04-12T09:14:49Z</time></trkpt><trkpt lat="37.87771683325048" lon="14.662304485299133"><ele>1333.3333333333333</ele><time>2026-04-12T09:14:50Z</time></trkpt><trkpt lat="37.87761310338627" lon="14.662499645684024"><ele>1334.6666666666665</ele><time>2026-04-12T09:14:51Z</time></trkpt><trkpt lat="37.87749307714533" lon="14.662677855421283"><ele>1336.0</ele><time>2026-04-12T09:14:52Z</time></trkpt><trkpt lat="37.87735884807687" lon="14.662845978664325"><ele>1333.0</ele><time>2026-04-12T09:14:53Z</time></trkpt><trkpt lat="37.8772058293424" lon="14.663005758521534"><ele>1330.0</ele><time>2026-04-12T09:14:54Z</time></trkpt><trkpt lat="37.87704837223887" lon="14.663162817493792"><ele>1327.0</ele><time>2026-04-12T09:14:55Z</time></trkpt><trkpt lat="37.87688567023974" lon="14.66332476191032"><ele>1327.6666666666665</ele><time>2026-04-12T09:14:56Z</time></trkpt><trkpt lat="37.87671973111286" lon="14.663491566040634"><ele>1328.3333333333333</ele><time>2026-04-12T09:14:57Z</time></trkpt><trkpt lat="37.876555290444585" lon="14.663672889917608"><ele>1329.0</ele><time>2026-04-12T09:14:58Z</time></trkpt><trkpt lat="37.876401181044166" lon="14.663878882454965"><ele>1329.0</ele><time>2026-04-12T09:14:59Z</time></trkpt><trkpt lat="37.87625808454381" lon="14.664109364593706"><ele>1329.0</ele><time>2026-04-12T09:15:00Z</time></trkpt><trkpt lat="37.87611378590042" lon="14.664352945920943"><ele>1326.0</ele><time>2026-04-12T09:15:01Z</time></trkpt><trkpt lat="37.87596444639985" lon="14.664605475471198"><ele>1323.0</ele><time>2026-04-12T09:15:02Z</time></trkpt><trkpt lat="37.87581296913305" lon="14.664856077732626"><ele>1324.0</ele><time>2026-04-12T09:15:03Z</time></trkpt><trkpt lat="37.87566102315475" lon="14.665104582073116"><ele>1325.0</ele><time>2026-04-12T09:15:04Z</time></trkpt><trkpt lat="37.8755099559495" lon="14.6653485783352"><ele>1325.0</ele><time>2026-04-12T09:15:05Z</time></trkpt><trkpt lat="37.8753682448207" lon="14.665582564029954"><ele>1325.0</ele><time>2026-04-12T09:15:06Z</time></trkpt><trkpt lat="37.87523768065058" lon="14.665827253581087"><ele>1325.0</ele><time>2026-04-12T09:15:07Z</time></trkpt><trkpt lat="37.87512059492193" lon="14.666081135333247"><ele>1325.0</ele><time>2026-04-12T09:15:08Z</time></trkpt><trkpt lat="37.87501792036919" lon="14.666345446297072"><ele>1328.5</ele><time>2026-04-12T09:15:09Z</time></trkpt><trkpt lat="37.87492063628085" lon="14.666611387395893"><ele>1332.0</ele><time>2026-04-12T09:15:10Z</time></trkpt><trkpt lat="37.874831164276856" lon="14.66686591368715"><ele>1329.6666666666667</ele><time>2026-04-12T09:15:11Z</time></trkpt><trkpt lat="37.87474634909246" lon="14.667108631441195"><ele>1327.3333333333335</ele><time>2026-04-12T09:15:12Z</time></trkpt><trkpt lat="37.87466956058125" lon="14.667314176048896"><ele>1325.0</ele><time>2026-04-12T09:15:13Z</time></trkpt><trkpt lat="37.874602720787315" lon="14.667484547497974"><ele>1325.0</ele><time>2026-04-12T09:15:14Z</time></trkpt><trkpt lat="37.87452220872461" lon="14.667615696755053"><ele>1325.0</ele><time>2026-04-12T09:15:15Z</time></trkpt><trkpt lat="37.87441673139298" lon="14.667721577883803"><ele>1325.0</ele><time>2026-04-12T09:15:16Z</time></trkpt><trkpt lat="37.874284481689955" lon="14.66778822099792"><ele>1325.0</ele><time>2026-04-12T09:15:17Z</time></trkpt><trkpt lat="37.87412716909278" lon="14.667837086494904"><ele>1325.3333333333335</ele><time>2026-04-12T09:15:18Z</time></trkpt><trkpt lat="37.873958870467966" lon="14.66789565536513"><ele>1325.6666666666667</ele><time>2026-04-12T09:15:19Z</time></trkpt><trkpt lat="37.87379006193723" lon="14.667956921888761"><ele>1326.0</ele><time>2026-04-12T09:15:20Z</time></trkpt><trkpt lat="37.87363326662046" lon="14.668011353346726"><ele>1326.0</ele><time>2026-04-12T09:15:21Z</time></trkpt><trkpt lat="37.87348729935533" lon="14.668067979854568"><ele>1326.0</ele><time>2026-04-12T09:15:22Z</time></trkpt><trkpt lat="37.8733652329552" lon="14.668112998201986"><ele>1326.0</ele><time>2026-04-12T09:15:23Z</time></trkpt><trkpt lat="37.873265375433114" lon="14.6681650568389"><ele>1326.0</ele><time>2026-04-12T09:15:24Z</time></trkpt><trkpt lat="37.87318357587405" lon="14.668257594379753"><ele>1325.75</ele><time>2026-04-12T09:15:25Z</time></trkpt><trkpt lat="37.87313705334615" lon="14.668391161547063"><ele>1325.5</ele><time>2026-04-12T09:15:26Z</time></trkpt><trkpt lat="37.87313899050269" lon="14.668541667826048"><ele>1325.25</ele><time>2026-04-12T09:15:27Z</time></trkpt><trkpt lat="37.87318806865799" lon="14.668695037989018"><ele>1325.0</ele><time>2026-04-12T09:15:28Z</time></trkpt><trkpt lat="37.873265932537734" lon="14.668850256597732"><ele>1325.0</ele><time>2026-04-12T09:15:29Z</time></trkpt><trkpt lat="37.87332166865025" lon="14.669039895009963"><ele>1325.0</ele><time>2026-04-12T09:15:30Z</time></trkpt><trkpt lat="37.87338046680525" lon="14.669197024697391"><ele>1325.0</ele><time>2026-04-12T09:15:31Z</time></trkpt><trkpt lat="37.873429552431666" lon="14.669320085913903"><ele>1325.0</ele><time>2026-04-12T09:15:32Z</time></trkpt><trkpt lat="37.87343649598569" lon="14.669453250031145"><ele>1324.5</ele><time>2026-04-12T09:15:33Z</time></trkpt><trkpt lat="37.873414189413" lon="14.669587480193199"><ele>1324.0</ele><time>2026-04-12T09:15:34Z</time></trkpt><trkpt lat="37.87335253173078" lon="14.669719146737268"><ele>1323.5</ele><time>2026-04-12T09:15:35Z</time></trkpt><trkpt lat="37.873257205571036" lon="14.669847368944044"><ele>1323.0</ele><time>2026-04-12T09:15:36Z</time></trkpt><trkpt lat="37.87315092164177" lon="14.66997818323397"><ele>1323.0</ele><time>2026-04-12T09:15:37Z</time></trkpt><trkpt lat="37.873049639688325" lon="14.670133151356756"><ele>1323.0</ele><time>2026-04-12T09:15:38Z</time></trkpt><trkpt lat="37.87296104578393" lon="14.670301374325264"><ele>1323.0</ele><time>2026-04-12T09:15:39Z</time></trkpt><trkpt lat="37.87291921653815" lon="14.670503317873113"><ele>1321.0</ele><time>2026-04-12T09:15:40Z</time></trkpt><trkpt lat="37.87291373931134" lon="14.670722306793381"><ele>1319.0</ele><time>2026-04-12T09:15:41Z</time></trkpt><trkpt lat="37.87292967609137" lon="14.670945879539026"><ele>1317.0</ele><time>2026-04-12T09:15:42Z</time></trkpt><trkpt lat="37.87293215061231" lon="14.671154742487658"><ele>1316.0</ele><time>2026-04-12T09:15:43Z</time></trkpt><trkpt lat="37.87295058715383" lon="14.67135386278849"><ele>1315.0</ele><time>2026-04-12T09:15:44Z</time></trkpt><trkpt lat="37.87301357073847" lon="14.67153799232883"><ele>1314.0</ele><time>2026-04-12T09:15:45Z</time></trkpt><trkpt lat="37.87312094488374" lon="14.671703747343834"><ele>1314.0</ele><time>2026-04-12T09:15:46Z</time></trkpt><trkpt lat="37.87322895414131" lon="14.671862970870825"><ele>1314.0</ele><time>2026-04-12T09:15:47Z</time></trkpt><trkpt lat="37.87333948626017" lon="14.672001666773776"><ele>1314.0</ele><time>2026-04-12T09:15:48Z</time></trkpt><trkpt lat="37.873398392654444" lon="14.672175004959973"><ele>1313.6666666666667</ele><time>2026-04-12T09:15:49Z</time></trkpt><trkpt lat="37.87340923575832" lon="14.672367896030734"><ele>1313.3333333333335</ele><time>2026-04-12T09:15:50Z</time></trkpt><trkpt lat="37.87339861064144" lon="14.672578170212084"><ele>1313.0</ele><time>2026-04-12T09:15:51Z</time></trkpt><trkpt lat="37.87339674088222" lon="14.672792053176186"><ele>1311.6666666666667</ele><time>2026-04-12T09:15:52Z</time></trkpt><trkpt lat="37.87339887071783" lon="14.67302557476503"><ele>1310.3333333333333</ele><time>2026-04-12T09:15:53Z</time></trkpt><trkpt lat="37.873402332801255" lon="14.673271312377093"><ele>1309.0</ele><time>2026-04-12T09:15:54Z</time></trkpt><trkpt lat="37.873403363787496" lon="14.673506448696806"><ele>1307.0</ele><time>2026-04-12T09:15:55Z</time></trkpt><trkpt lat="37.8734037698353" lon="14.673717885602736"><ele>1305.0</ele><time>2026-04-12T09:15:56Z</time></trkpt><trkpt lat="37.87339726434423" lon="14.673912556626409"><ele>1303.0</ele><time>2026-04-12T09:15:57Z</time></trkpt><trkpt lat="37.873360702893876" lon="14.674108697285966"><ele>1303.0</ele><time>2026-04-12T09:15:58Z</time></trkpt><trkpt lat="37.87327479065242" lon="14.674303861303223"><ele>1303.0</ele><time>2026-04-12T09:15:59Z</time></trkpt><trkpt lat="37.873193205785235" lon="14.674510134144152"><ele>1303.0</ele><time>2026-04-12T09:16:00Z</time></trkpt><trkpt lat="37.873128058333265" lon="14.674709954441377"><ele>1301.0</ele><time>2026-04-12T09:16:01Z</time></trkpt><trkpt lat="37.87306260920605" lon="14.674874952368603"><ele>1299.0</ele><time>2026-04-12T09:16:02Z</time></trkpt><trkpt lat="37.87297082787088" lon="14.674988977155161"><ele>1297.0</ele><time>2026-04-12T09:16:03Z</time></trkpt><trkpt lat="37.87284200289639" lon="14.675070150095932"><ele>1295.0</ele><time>2026-04-12T09:16:04Z</time></trkpt><trkpt lat="37.87268472433467" lon="14.675118800064961"><ele>1293.3333333333335</ele><time>2026-04-12T09:16:05Z</time></trkpt><trkpt lat="37.872522383511786" lon="14.675229206846291"><ele>1291.6666666666667</ele><time>2026-04-12T09:16:06Z</time></trkpt><trkpt lat="37.87235237987012" lon="14.675387481015182"><ele>1290.0</ele><time>2026-04-12T09:16:07Z</time></trkpt><trkpt lat="37.87217139474091" lon="14.675571272786083"><ele>1290.0</ele><time>2026-04-12T09:16:08Z</time></trkpt><trkpt lat="37.87197299129776" lon="14.67574728035667"><ele>1290.0</ele><time>2026-04-12T09:16:09Z</time></trkpt><trkpt lat="37.87177352460233" lon="14.675892091337541"><ele>1292.0</ele><time>2026-04-12T09:16:10Z</time></trkpt><trkpt lat="37.87157258426492" lon="14.676004008740339"><ele>1294.0</ele><time>2026-04-12T09:16:11Z</time></trkpt><trkpt lat="37.87136385128143" lon="14.676111001246266"><ele>1296.0</ele><time>2026-04-12T09:16:12Z</time></trkpt><trkpt lat="37.87114988209823" lon="14.676212572084582"><ele>1292.0</ele><time>2026-04-12T09:16:13Z</time></trkpt><trkpt lat="37.870939419164976" lon="14.676312936395409"><ele>1288.0</ele><time>2026-04-12T09:16:14Z</time></trkpt><trkpt lat="37.87074117384959" lon="14.67641161850631"><ele>1284.0</ele><time>2026-04-12T09:16:15Z</time></trkpt><trkpt lat="37.870561622725866" lon="14.676497055736066"><ele>1284.0</ele><time>2026-04-12T09:16:16Z</time></trkpt><trkpt lat="37.870404907640285" lon="14.676571185776119"><ele>1284.0</ele><time>2026-04-12T09:16:17Z</time></trkpt><trkpt lat="37.87026259873017" lon="14.6766367907155"><ele>1284.0</ele><time>2026-04-12T09:16:18Z</time></trkpt><trkpt lat="37.87011493875379" lon="14.676669148192325"><ele>1283.0</ele><time>2026-04-12T09:16:19Z</time></trkpt><trkpt lat="37.86997085765539" lon="14.676640796434473"><ele>1282.0</ele><time>2026-04-12T09:16:20Z</time></trkpt><trkpt lat="37.86982390120443" lon="14.676561607390784"><ele>1281.0</ele><time>2026-04-12T09:16:21Z</time></trkpt><trkpt lat="37.86968020019875" lon="14.676447807890783"><ele>1281.0</ele><time>2026-04-12T09:16:22Z</time></trkpt><trkpt lat="37.8695167207128" lon="14.676338500296902"><ele>1281.0</ele><time>2026-04-12T09:16:23Z</time></trkpt><trkpt lat="37.86935944331097" lon="14.676233030428453"><ele>1281.0</ele><time>2026-04-12T09:16:24Z</time></trkpt><trkpt lat="37.86922529751545" lon="14.67613410378697"><ele>1282.4</ele><time>2026-04-12T09:16:25Z</time></trkpt><trkpt lat="37.86910892653599" lon="14.676054890390178"><ele>1283.8</ele><time>2026-04-12T09:16:26Z</time></trkpt><trkpt lat="37.869014996770375" lon="14.67598932379917"><ele>1285.2</ele><time>2026-04-12T09:16:27Z</time></trkpt><trkpt lat="37.86893850077569" lon="14.675973949887686"><ele>1286.6000000000001</ele><time>2026-04-12T09:16:28Z</time></trkpt><trkpt lat="37.868859658322066" lon="14.676035040082981"><ele>1288.0</ele><time>2026-04-12T09:16:29Z</time></trkpt><trkpt lat="37.86882578410986" lon="14.676136790167531"><ele>1284.6000000000001</ele><time>2026-04-12T09:16:30Z</time></trkpt><trkpt lat="37.86884809302138" lon="14.676239447783777"><ele>1281.2</ele><time>2026-04-12T09:16:31Z</time></trkpt><trkpt lat="37.868919842689834" lon="14.676316121280651"><ele>1277.8</ele><time>2026-04-12T09:16:32Z</time></trkpt><trkpt lat="37.869018803788784" lon="14.67638141672578"><ele>1274.4</ele><time>2026-04-12T09:16:33Z</time></trkpt><trkpt lat="37.86912432371951" lon="14.676494170544053"><ele>1271.0</ele><time>2026-04-12T09:16:34Z</time></trkpt><trkpt lat="37.86925458107804" lon="14.676590923915034"><ele>1270.6666666666667</ele><time>2026-04-12T09:16:35Z</time></trkpt><trkpt lat="37.8693904333758" lon="14.676718600366266"><ele>1270.3333333333333</ele><time>2026-04-12T09:16:36Z</time></trkpt><trkpt lat="37.869543172749424" lon="14.67683778619202"><ele>1270.0</ele><time>2026-04-12T09:16:37Z</time></trkpt><trkpt lat="37.86969552601577" lon="14.676979596215961"><ele>1270.0</ele><time>2026-04-12T09:16:38Z</time></trkpt><trkpt lat="37.8698373394652" lon="14.677156465326597"><ele>1270.0</ele><time>2026-04-12T09:16:39Z</time></trkpt><trkpt lat="37.869952959037086" lon="14.677368437584901"><ele>1270.0</ele><time>2026-04-12T09:16:40Z</time></trkpt><trkpt lat="37.87005227951613" lon="14.67761607368707"><ele>1264.0</ele><time>2026-04-12T09:16:41Z</time></trkpt><trkpt lat="37.87015354659294" lon="14.677898585732336"><ele>1258.0</ele><time>2026-04-12T09:16:42Z</time></trkpt><trkpt lat="37.87027636850913" lon="14.67821068185263"><ele>1258.0</ele><time>2026-04-12T09:16:43Z</time></trkpt><trkpt lat="37.8704120238072" lon="14.678536233852206"><ele>1258.0</ele><time>2026-04-12T09:16:44Z</time></trkpt><trkpt lat="37.8705488425417" lon="14.678870667695502"><ele>1257.0</ele><time>2026-04-12T09:16:45Z</time></trkpt><trkpt lat="37.87067441847908" lon="14.679177668213626"><ele>1256.0</ele><time>2026-04-12T09:16:46Z</time></trkpt><trkpt lat="37.87079264811084" lon="14.679467461759126"><ele>1256.0</ele><time>2026-04-12T09:16:47Z</time></trkpt><trkpt lat="37.87090199362918" lon="14.679742579472999"><ele>1256.0</ele><time>2026-04-12T09:16:48Z</time></trkpt><trkpt lat="37.87100698909786" lon="14.680001948008163"><ele>1252.0</ele><time>2026-04-12T09:16:49Z</time></trkpt><trkpt lat="37.87110569011673" lon="14.680241747248647"><ele>1248.0</ele><time>2026-04-12T09:16:50Z</time></trkpt><trkpt lat="37.87119211292168" lon="14.68045313133563"><ele>1244.0</ele><time>2026-04-12T09:16:51Z</time></trkpt><trkpt lat="37.87125862432497" lon="14.680646686813777"><ele>1244.0</ele><time>2026-04-12T09:16:52Z</time></trkpt><trkpt lat="37.871296246523286" lon="14.68083940880909"><ele>1244.0</ele><time>2026-04-12T09:16:53Z</time></trkpt><trkpt lat="37.87128700426273" lon="14.681033819367402"><ele>1244.0</ele><time>2026-04-12T09:16:54Z</time></trkpt><trkpt lat="37.871237420406935" lon="14.681209611732706"><ele>1245.0</ele><time>2026-04-12T09:16:55Z</time></trkpt><trkpt lat="37.87113589282259" lon="14.681370295484887"><ele>1246.0</ele><time>2026-04-12T09:16:56Z</time></trkpt><trkpt lat="37.87101312538489" lon="14.681479952137456"><ele>1247.0</ele><time>2026-04-12T09:16:57Z</time></trkpt><trkpt lat="37.87086654543775" lon="14.681545372277004"><ele>1247.0</ele><time>2026-04-12T09:16:58Z</time></trkpt><trkpt lat="37.87071086396769" lon="14.681592611353002"><ele>1247.0</ele><time>2026-04-12T09:16:59Z</time></trkpt><trkpt lat="37.87057436334115" lon="14.68165172662148"><ele>1247.0</ele><time>2026-04-12T09:17:00Z</time></trkpt><trkpt lat="37.870471599367846" lon="14.681724799625387"><ele>1247.0</ele><time>2026-04-12T09:17:01Z</time></trkpt><trkpt lat="37.87040411643342" lon="14.681848472024932"><ele>1244.25</ele><time>2026-04-12T09:17:02Z</time></trkpt><trkpt lat="37.8703725523364" lon="14.681999352149786"><ele>1241.5</ele><time>2026-04-12T09:17:03Z</time></trkpt><trkpt lat="37.870361463142345" lon="14.682151700794892"><ele>1238.75</ele><time>2026-04-12T09:17:04Z</time></trkpt><trkpt lat="37.87031964953225" lon="14.682295331087547"><ele>1236.0</ele><time>2026-04-12T09:17:05Z</time></trkpt><trkpt lat="37.87022947843887" lon="14.682437645702187"><ele>1236.0</ele><time>2026-04-12T09:17:06Z</time></trkpt><trkpt lat="37.870110611604744" lon="14.682576199824192"><ele>1236.0</ele><time>2026-04-12T09:17:07Z</time></trkpt><trkpt lat="37.8699805666557" lon="14.682730406702577"><ele>1236.0</ele><time>2026-04-12T09:17:08Z</time></trkpt><trkpt lat="37.869842594338714" lon="14.682876109918848"><ele>1235.0</ele><time>2026-04-12T09:17:09Z</time></trkpt><trkpt lat="37.86967229217315" lon="14.682989534924856"><ele>1234.0</ele><time>2026-04-12T09:17:10Z</time></trkpt><trkpt lat="37.86948589338812" lon="14.683077711945106"><ele>1233.0</ele><time>2026-04-12T09:17:11Z</time></trkpt><trkpt lat="37.86931144341368" lon="14.683150999771513"><ele>1235.0</ele><time>2026-04-12T09:17:12Z</time></trkpt><trkpt lat="37.86914701945122" lon="14.683229496226112"><ele>1237.0</ele><time>2026-04-12T09:17:13Z</time></trkpt><trkpt lat="37.869000084814125" lon="14.683318564932705"><ele>1239.0</ele><time>2026-04-12T09:17:14Z</time></trkpt><trkpt lat="37.86889404615629" lon="14.683438725336076"><ele>1235.75</ele><time>2026-04-12T09:17:15Z</time></trkpt><trkpt lat="37.868829519245274" lon="14.683598184806243"><ele>1232.5</ele><time>2026-04-12T09:17:16Z</time></trkpt><trkpt lat="37.86879684509565" lon="14.683760819209818"><ele>1229.25</ele><time>2026-04-12T09:17:17Z</time></trkpt><trkpt lat="37.86877369967055" lon="14.683887771398883"><ele>1226.0</ele><time>2026-04-12T09:17:18Z</time></trkpt><trkpt lat="37.86875587853194" lon="14.683986968383449"><ele>1226.0</ele><time>2026-04-12T09:17:19Z</time></trkpt><trkpt lat="37.86871560244949" lon="14.68410042571588"><ele>1226.0</ele><time>2026-04-12T09:17:21Z</time></trkpt><trkpt lat="37.86871476407906" lon="14.684202227584453"><ele>1226.0</ele><time>2026-04-12T09:17:24Z</time></trkpt><trkpt lat="37.8686496233435" lon="14.684256389606062"><ele>1226.0</ele><time>2026-04-12T09:17:27Z</time></trkpt><trkpt lat="37.86856180745613" lon="14.68432110612843"><ele>1226.0</ele><time>2026-04-12T09:17:29Z</time></trkpt><trkpt lat="37.86849962596484" lon="14.684368654950358"><ele>1226.0</ele><time>2026-04-12T09:17:30Z</time></trkpt><trkpt lat="37.868435816716875" lon="14.684429424050824"><ele>1226.0</ele><time>2026-04-12T09:17:31Z</time></trkpt><trkpt lat="37.868366128719" lon="14.68449616124815"><ele>1226.0</ele><time>2026-04-12T09:17:32Z</time></trkpt><trkpt lat="37.868285356465364" lon="14.684563735095722"><ele>1226.0</ele><time>2026-04-12T09:17:33Z</time></trkpt><trkpt lat="37.868205542637725" lon="14.684627720851168"><ele>1226.0</ele><time>2026-04-12T09:17:34Z</time></trkpt><trkpt lat="37.86812859767224" lon="14.684696499516722"><ele>1226.0</ele><time>2026-04-12T09:17:35Z</time></trkpt><trkpt lat="37.86805061186463" lon="14.684766389047951"><ele>1226.0</ele><time>2026-04-12T09:17:36Z</time></trkpt><trkpt lat="37.86797155839673" lon="14.684835649887235"><ele>1226.0</ele><time>2026-04-12T09:17:37Z</time></trkpt><trkpt lat="37.867893170034776" lon="14.684912616379597"><ele>1226.0</ele><time>2026-04-12T09:17:38Z</time></trkpt><trkpt lat="37.867831381514115" lon="14.684993542285795"><ele>1226.0</ele><time>2026-04-12T09:17:39Z</time></trkpt><trkpt lat="37.86781936031639" lon="14.685100938003638"><ele>1226.0</ele><time>2026-04-12T09:17:40Z</time></trkpt><trkpt lat="37.867845272106635" lon="14.685212940059285"><ele>1225.5</ele><time>2026-04-12T09:17:41Z</time></trkpt><trkpt lat="37.86791149916288" lon="14.685322207564303"><ele>1225.0</ele><time>2026-04-12T09:17:42Z</time></trkpt><trkpt lat="37.868005051564595" lon="14.685416313374665"><ele>1224.5</ele><time>2026-04-12T09:17:43Z</time></trkpt><trkpt lat="37.86808903516595" lon="14.685516194801364"><ele>1224.0</ele><time>2026-04-12T09:17:44Z</time></trkpt><trkpt lat="37.868160695110376" lon="14.68561690833863"><ele>1224.0</ele><time>2026-04-12T09:17:45Z</time></trkpt><trkpt lat="37.86820257950027" lon="14.685714358625292"><ele>1224.0</ele><time>2026-04-12T09:17:46Z</time></trkpt><trkpt lat="37.86821019562199" lon="14.685839746557178"><ele>1224.0</ele><time>2026-04-12T09:17:47Z</time></trkpt><trkpt lat="37.86816872546963" lon="14.685960141627554"><ele>1224.0</ele><time>2026-04-12T09:17:48Z</time></trkpt><trkpt lat="37.86807663015772" lon="14.686052916769999"><ele>1224.0</ele><time>2026-04-12T09:17:49Z</time></trkpt><trkpt lat="37.86798128548122" lon="14.686148560952827"><ele>1224.5</ele><time>2026-04-12T09:17:50Z</time></trkpt><trkpt lat="37.86789509392917" lon="14.686311838001478"><ele>1225.0</ele><time>2026-04-12T09:17:51Z</time></trkpt><trkpt lat="37.86782343486058" lon="14.6864637291892"><ele>1225.5</ele><time>2026-04-12T09:17:52Z</time></trkpt><trkpt lat="37.86774579595499" lon="14.686620086660923"><ele>1226.0</ele><time>2026-04-12T09:17:53Z</time></trkpt><trkpt lat="37.86766914178992" lon="14.686779641917623"><ele>1221.25</ele><time>2026-04-12T09:17:54Z</time></trkpt><trkpt lat="37.867602727125245" lon="14.686930763933747"><ele>1216.5</ele><time>2026-04-12T09:17:55Z</time></trkpt><trkpt lat="37.86753923695002" lon="14.687079397811322"><ele>1211.75</ele><time>2026-04-12T09:17:56Z</time></trkpt><trkpt lat="37.86751048482787" lon="14.687234748211031"><ele>1207.0</ele><time>2026-04-12T09:17:57Z</time></trkpt><trkpt lat="37.86753721320949" lon="14.687391138302026"><ele>1207.0</ele><time>2026-04-12T09:17:58Z</time></trkpt><trkpt lat="37.867592067760164" lon="14.687540951232924"><ele>1207.0</ele><time>2026-04-12T09:17:59Z</time></trkpt><trkpt lat="37.86763813001878" lon="14.687703457840088"><ele>1207.0</ele><time>2026-04-12T09:18:00Z</time></trkpt><trkpt lat="37.867691080033836" lon="14.68785826841893"><ele>1207.0</ele><time>2026-04-12T09:18:01Z</time></trkpt><trkpt lat="37.86772524178234" lon="14.687992753972553"><ele>1206.75</ele><time>2026-04-12T09:18:02Z</time></trkpt><trkpt lat="37.86775349359067" lon="14.68810753148494"><ele>1206.5</ele><time>2026-04-12T09:18:03Z</time></trkpt><trkpt lat="37.86771212644295" lon="14.688222882050091"><ele>1206.25</ele><time>2026-04-12T09:18:04Z</time></trkpt><trkpt lat="37.867602091498966" lon="14.688287553809385"><ele>1206.0</ele><time>2026-04-12T09:18:05Z</time></trkpt><trkpt lat="37.86748861661347" lon="14.688377839620651"><ele>1206.0</ele><time>2026-04-12T09:18:06Z</time></trkpt><trkpt lat="37.86734506658725" lon="14.688456500517297"><ele>1206.0</ele><time>2026-04-12T09:18:07Z</time></trkpt><trkpt lat="37.86720733398376" lon="14.688554195696652"><ele>1206.0</ele><time>2026-04-12T09:18:08Z</time></trkpt><trkpt lat="37.86708741299225" lon="14.688643588781995"><ele>1207.5</ele><time>2026-04-12T09:18:09Z</time></trkpt><trkpt lat="37.86698584861402" lon="14.688717453421294"><ele>1209.0</ele><time>2026-04-12T09:18:10Z</time></trkpt><trkpt lat="37.86691546243652" lon="14.688835891736767"><ele>1210.5</ele><time>2026-04-12T09:18:11Z</time></trkpt><trkpt lat="37.86687802726288" lon="14.688997226093113"><ele>1212.0</ele><time>2026-04-12T09:18:12Z</time></trkpt><trkpt lat="37.86686958993693" lon="14.689181781597592"><ele>1212.0</ele><time>2026-04-12T09:18:13Z</time></trkpt><trkpt lat="37.86685656497832" lon="14.689374742873005"><ele>1212.0</ele><time>2026-04-12T09:18:14Z</time></trkpt><trkpt lat="37.86682032770322" lon="14.689565474162862"><ele>1212.0</ele><time>2026-04-12T09:18:15Z</time></trkpt><trkpt lat="37.86679226334418" lon="14.689752072469838"><ele>1208.25</ele><time>2026-04-12T09:18:16Z</time></trkpt><trkpt lat="37.86676124677825" lon="14.689916927785251"><ele>1204.5</ele><time>2026-04-12T09:18:17Z</time></trkpt><trkpt lat="37.86669275996892" lon="14.690040700961335"><ele>1200.75</ele><time>2026-04-12T09:18:18Z</time></trkpt><trkpt lat="37.86658480982415" lon="14.690132978845982"><ele>1197.0</ele><time>2026-04-12T09:18:19Z</time></trkpt><trkpt lat="37.86646379935335" lon="14.69023545699047"><ele>1200.6666666666667</ele><time>2026-04-12T09:18:20Z</time></trkpt><trkpt lat="37.866326440946246" lon="14.690319259134046"><ele>1204.3333333333335</ele><time>2026-04-12T09:18:21Z</time></trkpt><trkpt lat="37.86618822766891" lon="14.690430761527276"><ele>1208.0</ele><time>2026-04-12T09:18:22Z</time></trkpt><trkpt lat="37.866038640514226" lon="14.690548992449145"><ele>1203.3333333333335</ele><time>2026-04-12T09:18:23Z</time></trkpt><trkpt lat="37.86585883917106" lon="14.690617194827503"><ele>1198.6666666666667</ele><time>2026-04-12T09:18:24Z</time></trkpt><trkpt lat="37.86567919219716" lon="14.690650644348159"><ele>1194.0</ele><time>2026-04-12T09:18:25Z</time></trkpt><trkpt lat="37.865515469643576" lon="14.690669228300171"><ele>1194.0</ele><time>2026-04-12T09:18:26Z</time></trkpt><trkpt lat="37.865364907612374" lon="14.690702051772512"><ele>1194.0</ele><time>2026-04-12T09:18:27Z</time></trkpt><trkpt lat="37.86523465621814" lon="14.690757577801314"><ele>1194.0</ele><time>2026-04-12T09:18:28Z</time></trkpt><trkpt lat="37.8651192550092" lon="14.690872403753653"><ele>1194.0</ele><time>2026-04-12T09:18:29Z</time></trkpt><trkpt lat="37.86502052644629" lon="14.691027130077137"><ele>1191.6666666666667</ele><time>2026-04-12T09:18:30Z</time></trkpt><trkpt lat="37.86491952780954" lon="14.69117980276718"><ele>1189.3333333333335</ele><time>2026-04-12T09:18:31Z</time></trkpt><trkpt lat="37.864826430867396" lon="14.691339032789962"><ele>1187.0</ele><time>2026-04-12T09:18:32Z</time></trkpt><trkpt lat="37.864758536230944" lon="14.69151402110758"><ele>1187.0</ele><time>2026-04-12T09:18:33Z</time></trkpt><trkpt lat="37.86472509379743" lon="14.691719443175476"><ele>1187.0</ele><time>2026-04-12T09:18:34Z</time></trkpt><trkpt lat="37.86468582982633" lon="14.6919258340622"><ele>1187.0</ele><time>2026-04-12T09:18:35Z</time></trkpt><trkpt lat="37.8646590520341" lon="14.692112515527244"><ele>1187.8</ele><time>2026-04-12T09:18:36Z</time></trkpt><trkpt lat="37.86463177191102" lon="14.69227142985489"><ele>1188.6</ele><time>2026-04-12T09:18:37Z</time></trkpt><trkpt lat="37.864593519977426" lon="14.692393609203528"><ele>1189.3999999999999</ele><time>2026-04-12T09:18:38Z</time></trkpt><trkpt lat="37.864522754785945" lon="14.692486579705216"><ele>1190.2</ele><time>2026-04-12T09:18:39Z</time></trkpt><trkpt lat="37.86441709158894" lon="14.692514354656184"><ele>1191.0</ele><time>2026-04-12T09:18:40Z</time></trkpt><trkpt lat="37.86431464741933" lon="14.692473286273824"><ele>1189.0</ele><time>2026-04-12T09:18:41Z</time></trkpt><trkpt lat="37.86420718468854" lon="14.692391703657616"><ele>1187.0</ele><time>2026-04-12T09:18:42Z</time></trkpt><trkpt lat="37.86408945677381" lon="14.692305616781791"><ele>1185.0</ele><time>2026-04-12T09:18:43Z</time></trkpt><trkpt lat="37.863959421207134" lon="14.692227472671059"><ele>1183.0</ele><time>2026-04-12T09:18:44Z</time></trkpt><trkpt lat="37.8638164683659" lon="14.692153738327123"><ele>1183.0</ele><time>2026-04-12T09:18:45Z</time></trkpt><trkpt lat="37.863655641592736" lon="14.692119625274444"><ele>1183.0</ele><time>2026-04-12T09:18:46Z</time></trkpt><trkpt lat="37.86347965079113" lon="14.692129723228945"><ele>1183.0</ele><time>2026-04-12T09:18:47Z</time></trkpt><trkpt lat="37.86330317687481" lon="14.692154660281213"><ele>1184.75</ele><time>2026-04-12T09:18:48Z</time></trkpt><trkpt lat="37.86313614125729" lon="14.692169912973668"><ele>1186.5</ele><time>2026-04-12T09:18:49Z</time></trkpt><trkpt lat="37.86298814060644" lon="14.692178152870293"><ele>1188.25</ele><time>2026-04-12T09:18:50Z</time></trkpt><trkpt lat="37.8628642306844" lon="14.692187494622143"><ele>1190.0</ele><time>2026-04-12T09:18:51Z</time></trkpt><trkpt lat="37.86277776001907" lon="14.692244604011101"><ele>1190.0</ele><time>2026-04-12T09:18:52Z</time></trkpt><trkpt lat="37.862722629167386" lon="14.69236989770355"><ele>1190.0</ele><time>2026-04-12T09:18:53Z</time></trkpt><trkpt lat="37.862697550821196" lon="14.692529869849787"><ele>1190.0</ele><time>2026-04-12T09:18:54Z</time></trkpt><trkpt lat="37.8626913834295" lon="14.692710702420278"><ele>1190.0</ele><time>2026-04-12T09:18:55Z</time></trkpt><trkpt lat="37.86270037484178" lon="14.692915183222453"><ele>1194.6666666666667</ele><time>2026-04-12T09:18:56Z</time></trkpt><trkpt lat="37.86268454284159" lon="14.693130358799952"><ele>1199.3333333333333</ele><time>2026-04-12T09:18:57Z</time></trkpt><trkpt lat="37.86268068569642" lon="14.6933465618215"><ele>1204.0</ele><time>2026-04-12T09:18:58Z</time></trkpt><trkpt lat="37.86267732278065" lon="14.693535062266399"><ele>1205.0</ele><time>2026-04-12T09:18:59Z</time></trkpt><trkpt lat="37.86267465295304" lon="14.693700700273336"><ele>1206.0</ele><time>2026-04-12T09:19:00Z</time></trkpt><trkpt lat="37.86266870671033" lon="14.693828614064172"><ele>1207.0</ele><time>2026-04-12T09:19:01Z</time></trkpt><trkpt lat="37.86264111919453" lon="14.69392027036082"><ele>1208.0</ele><time>2026-04-12T09:19:02Z</time></trkpt><trkpt lat="37.86258461649873" lon="14.693990169474416"><ele>1209.0</ele><time>2026-04-12T09:19:03Z</time></trkpt><trkpt lat="37.86247744891791" lon="14.694001389977977"><ele>1206.25</ele><time>2026-04-12T09:19:04Z</time></trkpt><trkpt lat="37.86236348291106" lon="14.693966573413471"><ele>1203.5</ele><time>2026-04-12T09:19:05Z</time></trkpt><trkpt lat="37.86222551627325" lon="14.693944910266696"><ele>1200.75</ele><time>2026-04-12T09:19:06Z</time></trkpt><trkpt lat="37.8620827218359" lon="14.693995350684153"><ele>1198.0</ele><time>2026-04-12T09:19:07Z</time></trkpt><trkpt lat="37.861933228996186" lon="14.69408326755981"><ele>1198.0</ele><time>2026-04-12T09:19:08Z</time></trkpt><trkpt lat="37.861789778587564" lon="14.694140455736173"><ele>1198.0</ele><time>2026-04-12T09:19:09Z</time></trkpt><trkpt lat="37.86165212901021" lon="14.694130834540973"><ele>1198.0</ele><time>2026-04-12T09:19:10Z</time></trkpt><trkpt lat="37.861519530608454" lon="14.694040804256634"><ele>1198.0</ele><time>2026-04-12T09:19:11Z</time></trkpt><trkpt lat="37.86137371196722" lon="14.693974513996768"><ele>1199.0</ele><time>2026-04-12T09:19:12Z</time></trkpt><trkpt lat="37.86121546323824" lon="14.693923007849993"><ele>1200.0</ele><time>2026-04-12T09:19:13Z</time></trkpt><trkpt lat="37.86104858020143" lon="14.693901143262028"><ele>1201.0</ele><time>2026-04-12T09:19:14Z</time></trkpt><trkpt lat="37.86089607244625" lon="14.693913024803955"><ele>1202.0</ele><time>2026-04-12T09:19:15Z</time></trkpt><trkpt lat="37.860752393582935" lon="14.693978909282798"><ele>1203.0</ele><time>2026-04-12T09:19:16Z</time></trkpt><trkpt lat="37.86061552600425" lon="14.694091526663662"><ele>1204.0</ele><time>2026-04-12T09:19:17Z</time></trkpt><trkpt lat="37.86048132426162" lon="14.694218483036902"><ele>1204.0</ele><time>2026-04-12T09:19:18Z</time></trkpt><trkpt lat="37.86033228315108" lon="14.694283563758669"><ele>1204.0</ele><time>2026-04-12T09:19:19Z</time></trkpt><trkpt lat="37.860173171844394" lon="14.694264676020811"><ele>1204.0</ele><time>2026-04-12T09:19:20Z</time></trkpt><trkpt lat="37.86001352196907" lon="14.694218591319128"><ele>1202.6666666666665</ele><time>2026-04-12T09:19:21Z</time></trkpt><trkpt lat="37.85984343738641" lon="14.694235819067693"><ele>1201.3333333333333</ele><time>2026-04-12T09:19:22Z</time></trkpt><trkpt lat="37.85966360359545" lon="14.69431856523173"><ele>1200.0</ele><time>2026-04-12T09:19:23Z</time></trkpt><trkpt lat="37.85948826915752" lon="14.694423066057933"><ele>1207.6666666666667</ele><time>2026-04-12T09:19:24Z</time></trkpt><trkpt lat="37.859321662143586" lon="14.694504379831566"><ele>1215.3333333333335</ele><time>2026-04-12T09:19:25Z</time></trkpt><trkpt lat="37.85915654282172" lon="14.694573428651738"><ele>1223.0</ele><time>2026-04-12T09:19:26Z</time></trkpt><trkpt lat="37.858996509362974" lon="14.69464156712864"><ele>1223.0</ele><time>2026-04-12T09:19:27Z</time></trkpt><trkpt lat="37.858858755369944" lon="14.694741252311614"><ele>1223.0</ele><time>2026-04-12T09:19:28Z</time></trkpt><trkpt lat="37.85875985689601" lon="14.69487482743934"><ele>1223.0</ele><time>2026-04-12T09:19:29Z</time></trkpt><trkpt lat="37.85869247964821" lon="14.695030884665218"><ele>1223.0</ele><time>2026-04-12T09:19:30Z</time></trkpt><trkpt lat="37.85861171998497" lon="14.695183522494832"><ele>1225.3333333333335</ele><time>2026-04-12T09:19:31Z</time></trkpt><trkpt lat="37.85848784755339" lon="14.69529815507644"><ele>1227.6666666666667</ele><time>2026-04-12T09:19:32Z</time></trkpt><trkpt lat="37.85833968921142" lon="14.695369816125838"><ele>1230.0</ele><time>2026-04-12T09:19:33Z</time></trkpt><trkpt lat="37.85819886325141" lon="14.695406356636317"><ele>1230.0</ele><time>2026-04-12T09:19:34Z</time></trkpt><trkpt lat="37.858089563935806" lon="14.695500722483995"><ele>1230.0</ele><time>2026-04-12T09:19:35Z</time></trkpt><trkpt lat="37.858026789794415" lon="14.695645792635334"><ele>1230.0</ele><time>2026-04-12T09:19:36Z</time></trkpt><trkpt lat="37.85798380709605" lon="14.695815111395644"><ele>1230.0</ele><time>2026-04-12T09:19:37Z</time></trkpt><trkpt lat="37.85794964429436" lon="14.696005319766629"><ele>1234.3333333333333</ele><time>2026-04-12T09:19:38Z</time></trkpt><trkpt lat="37.85790237812912" lon="14.696201462060811"><ele>1238.6666666666665</ele><time>2026-04-12T09:19:39Z</time></trkpt><trkpt lat="37.85784386243981" lon="14.696400111606714"><ele>1243.0</ele><time>2026-04-12T09:19:40Z</time></trkpt><trkpt lat="37.85777539846007" lon="14.696576345670199"><ele>1243.0</ele><time>2026-04-12T09:19:41Z</time></trkpt><trkpt lat="37.85772288532604" lon="14.696745718862113"><ele>1243.0</ele><time>2026-04-12T09:19:42Z</time></trkpt><trkpt lat="37.85767930924884" lon="14.69691374276216"><ele>1243.0</ele><time>2026-04-12T09:19:43Z</time></trkpt><trkpt lat="37.857581223897846" lon="14.697025186722907"><ele>1243.0</ele><time>2026-04-12T09:19:44Z</time></trkpt><trkpt lat="37.857454926151156" lon="14.697107823542996"><ele>1240.5</ele><time>2026-04-12T09:19:45Z</time></trkpt><trkpt lat="37.857312015146796" lon="14.697168392811403"><ele>1238.0</ele><time>2026-04-12T09:19:46Z</time></trkpt><trkpt lat="37.85718072035178" lon="14.697242399793394"><ele>1235.5</ele><time>2026-04-12T09:19:47Z</time></trkpt><trkpt lat="37.85707112476752" lon="14.697310732134106"><ele>1233.0</ele><time>2026-04-12T09:19:48Z</time></trkpt><trkpt lat="37.856976933695634" lon="14.697398173925496"><ele>1233.0</ele><time>2026-04-12T09:19:49Z</time></trkpt><trkpt lat="37.85691327711874" lon="14.69753300436801"><ele>1233.0</ele><time>2026-04-12T09:19:50Z</time></trkpt><trkpt lat="37.85690071085594" lon="14.697710430910027"><ele>1233.0</ele><time>2026-04-12T09:19:51Z</time></trkpt><trkpt lat="37.85689858940443" lon="14.697883923269503"><ele>1233.0</ele><time>2026-04-12T09:19:52Z</time></trkpt><trkpt lat="37.85684123503619" lon="14.698026538027234"><ele>1231.75</ele><time>2026-04-12T09:19:53Z</time></trkpt><trkpt lat="37.8567335848152" lon="14.698114696344879"><ele>1230.5</ele><time>2026-04-12T09:19:54Z</time></trkpt><trkpt lat="37.85659952476284" lon="14.698158272315691"><ele>1229.25</ele><time>2026-04-12T09:19:55Z</time></trkpt><trkpt lat="37.856461813510705" lon="14.698228378063071"><ele>1228.0</ele><time>2026-04-12T09:19:56Z</time></trkpt><trkpt lat="37.85632622170619" lon="14.698321300364041"><ele>1228.0</ele><time>2026-04-12T09:19:57Z</time></trkpt><trkpt lat="37.85618136053872" lon="14.698403596204015"><ele>1228.0</ele><time>2026-04-12T09:19:58Z</time></trkpt><trkpt lat="37.856026030691176" lon="14.698437034424892"><ele>1228.0</ele><time>2026-04-12T09:19:59Z</time></trkpt><trkpt lat="37.85586369567461" lon="14.69842642721959"><ele>1227.0</ele><time>2026-04-12T09:20:00Z</time></trkpt><trkpt lat="37.85569561486172" lon="14.698413532914124"><ele>1226.0</ele><time>2026-04-12T09:20:01Z</time></trkpt><trkpt lat="37.85553746881091" lon="14.698412675976185"><ele>1225.0</ele><time>2026-04-12T09:20:02Z</time></trkpt><trkpt lat="37.85540373441253" lon="14.698395147231414"><ele>1225.0</ele><time>2026-04-12T09:20:03Z</time></trkpt><trkpt lat="37.85530242570841" lon="14.698353752973812"><ele>1225.0</ele><time>2026-04-12T09:20:04Z</time></trkpt><trkpt lat="37.855217286379606" lon="14.69828900559259"><ele>1225.0</ele><time>2026-04-12T09:20:05Z</time></trkpt><trkpt lat="37.85515804913835" lon="14.69816732067935"><ele>1225.0</ele><time>2026-04-12T09:20:06Z</time></trkpt><trkpt lat="37.85510982844113" lon="14.698032497448752"><ele>1225.0</ele><time>2026-04-12T09:20:07Z</time></trkpt><trkpt lat="37.85501679577521" lon="14.697945852370879"><ele>1226.0</ele><time>2026-04-12T09:20:08Z</time></trkpt><trkpt lat="37.85486458962892" lon="14.697926090123149"><ele>1227.0</ele><time>2026-04-12T09:20:09Z</time></trkpt><trkpt lat="37.854697703944524" lon="14.697949162907065"><ele>1228.0</ele><time>2026-04-12T09:20:10Z</time></trkpt><trkpt lat="37.85455084837206" lon="14.697954494625625"><ele>1228.0</ele><time>2026-04-12T09:20:11Z</time></trkpt><trkpt lat="37.85442483898224" lon="14.697913023473248"><ele>1228.0</ele><time>2026-04-12T09:20:12Z</time></trkpt><trkpt lat="37.85429413247127" lon="14.697832904802638"><ele>1228.0</ele><time>2026-04-12T09:20:13Z</time></trkpt><trkpt lat="37.854167538302704" lon="14.697719379038112"><ele>1228.0</ele><time>2026-04-12T09:20:14Z</time></trkpt><trkpt lat="37.854033269564745" lon="14.697595320237843"><ele>1222.0</ele><time>2026-04-12T09:20:15Z</time></trkpt><trkpt lat="37.853903801056475" lon="14.697453860040195"><ele>1216.0</ele><time>2026-04-12T09:20:16Z</time></trkpt><trkpt lat="37.853782429125786" lon="14.697285333738726"><ele>1210.0</ele><time>2026-04-12T09:20:17Z</time></trkpt><trkpt lat="37.85366339906728" lon="14.697112582345374"><ele>1210.0</ele><time>2026-04-12T09:20:18Z</time></trkpt><trkpt lat="37.853547553053325" lon="14.696942446817708"><ele>1210.0</ele><time>2026-04-12T09:20:19Z</time></trkpt><trkpt lat="37.853450629937846" lon="14.696760283372816"><ele>1210.0</ele><time>2026-04-12T09:20:20Z</time></trkpt><trkpt lat="37.853378345747906" lon="14.69656804417853"><ele>1207.5</ele><time>2026-04-12T09:20:21Z</time></trkpt><trkpt lat="37.853315396098424" lon="14.69638686395933"><ele>1205.0</ele><time>2026-04-12T09:20:22Z</time></trkpt><trkpt lat="37.853261948355566" lon="14.696249501971435"><ele>1202.5</ele><time>2026-04-12T09:20:23Z</time></trkpt><trkpt lat="37.85320528008022" lon="14.696151155517482"><ele>1200.0</ele><time>2026-04-12T09:20:24Z</time></trkpt><trkpt lat="37.85312617573628" lon="14.69609627581925"><ele>1200.0</ele><time>2026-04-12T09:20:25Z</time></trkpt><trkpt lat="37.853032627962534" lon="14.696094732086495"><ele>1200.0</ele><time>2026-04-12T09:20:26Z</time></trkpt><trkpt lat="37.85294195587236" lon="14.696152684024732"><ele>1200.0</ele><time>2026-04-12T09:20:27Z</time></trkpt><trkpt lat="37.85287824740418" lon="14.696278477944933"><ele>1200.0</ele><time>2026-04-12T09:20:28Z</time></trkpt><trkpt lat="37.85285123079504" lon="14.69644990312131"><ele>1200.0</ele><time>2026-04-12T09:20:29Z</time></trkpt><trkpt lat="37.85280677478982" lon="14.696633124845592"><ele>1200.0</ele><time>2026-04-12T09:20:30Z</time></trkpt><trkpt lat="37.8527624171439" lon="14.696827532090877"><ele>1200.0</ele><time>2026-04-12T09:20:31Z</time></trkpt><trkpt lat="37.85272032858544" lon="14.697011994897146"><ele>1199.8</ele><time>2026-04-12T09:20:32Z</time></trkpt><trkpt lat="37.852686847760715" lon="14.697133907606366"><ele>1199.6</ele><time>2026-04-12T09:20:33Z</time></trkpt><trkpt lat="37.852653453352815" lon="14.697238556003546"><ele>1199.4</ele><time>2026-04-12T09:20:34Z</time></trkpt><trkpt lat="37.852555389785266" lon="14.69728996387586"><ele>1199.2</ele><time>2026-04-12T09:20:35Z</time></trkpt><trkpt lat="37.85244521892867" lon="14.697306105249098"><ele>1199.0</ele><time>2026-04-12T09:20:36Z</time></trkpt><trkpt lat="37.85233797105165" lon="14.69723313199248"><ele>1199.0</ele><time>2026-04-12T09:20:37Z</time></trkpt><trkpt lat="37.85222130984308" lon="14.697144049573707"><ele>1199.0</ele><time>2026-04-12T09:20:38Z</time></trkpt><trkpt lat="37.852082652534335" lon="14.69705239082008"><ele>1199.0</ele><time>2026-04-12T09:20:39Z</time></trkpt><trkpt lat="37.85193381507916" lon="14.696993458466494"><ele>1199.0</ele><time>2026-04-12T09:20:40Z</time></trkpt><trkpt lat="37.851767543291764" lon="14.697006284191529"><ele>1197.0</ele><time>2026-04-12T09:20:41Z</time></trkpt><trkpt lat="37.85159676901915" lon="14.697070525371222"><ele>1195.0</ele><time>2026-04-12T09:20:42Z</time></trkpt><trkpt lat="37.85143267410413" lon="14.697170827583218"><ele>1193.0</ele><time>2026-04-12T09:20:43Z</time></trkpt><trkpt lat="37.85128478878863" lon="14.697229156323132"><ele>1193.0</ele><time>2026-04-12T09:20:44Z</time></trkpt><trkpt lat="37.851154551396746" lon="14.697250259365866"><ele>1193.0</ele><time>2026-04-12T09:20:45Z</time></trkpt><trkpt lat="37.85104673446639" lon="14.697248041346155"><ele>1193.0</ele><time>2026-04-12T09:20:46Z</time></trkpt><trkpt lat="37.85096503869649" lon="14.697227376594853"><ele>1193.0</ele><time>2026-04-12T09:20:47Z</time></trkpt><trkpt lat="37.850899721502245" lon="14.697187246886443"><ele>1193.0</ele><time>2026-04-12T09:20:48Z</time></trkpt><trkpt lat="37.850836810793524" lon="14.697167209731115"><ele>1192.3333333333335</ele><time>2026-04-12T09:20:49Z</time></trkpt><trkpt lat="37.850770671244156" lon="14.697154248240214"><ele>1191.6666666666667</ele><time>2026-04-12T09:20:50Z</time></trkpt><trkpt lat="37.85069984448322" lon="14.697139241591135"><ele>1191.0</ele><time>2026-04-12T09:20:51Z</time></trkpt><trkpt lat="37.85062588142311" lon="14.697110326745182"><ele>1190.3333333333333</ele><time>2026-04-12T09:20:52Z</time></trkpt><trkpt lat="37.85055093011632" lon="14.697088889668217"><ele>1189.6666666666665</ele><time>2026-04-12T09:20:53Z</time></trkpt><trkpt lat="37.85046304057554" lon="14.697097152196976"><ele>1189.0</ele><time>2026-04-12T09:20:54Z</time></trkpt><trkpt lat="37.85037186130872" lon="14.697144300715484"><ele>1189.0</ele><time>2026-04-12T09:20:55Z</time></trkpt><trkpt lat="37.85028386742449" lon="14.697254695001066"><ele>1189.0</ele><time>2026-04-12T09:20:56Z</time></trkpt><trkpt lat="37.85020352393267" lon="14.69738806671134"><ele>1189.0</ele><time>2026-04-12T09:20:57Z</time></trkpt><trkpt lat="37.85011826539853" lon="14.697529532030845"><ele>1189.0</ele><time>2026-04-12T09:20:58Z</time></trkpt><trkpt lat="37.850017128404765" lon="14.697674924171528"><ele>1188.6666666666665</ele><time>2026-04-12T09:20:59Z</time></trkpt><trkpt lat="37.8499085547112" lon="14.697825099317281"><ele>1188.3333333333333</ele><time>2026-04-12T09:21:00Z</time></trkpt><trkpt lat="37.84980676642407" lon="14.69797230763338"><ele>1188.0</ele><time>2026-04-12T09:21:01Z</time></trkpt><trkpt lat="37.849705740437344" lon="14.698113249032557"><ele>1188.0</ele><time>2026-04-12T09:21:02Z</time></trkpt><trkpt lat="37.84958538553914" lon="14.698233873169071"><ele>1188.0</ele><time>2026-04-12T09:21:03Z</time></trkpt><trkpt lat="37.84943495765508" lon="14.698305123890604"><ele>1188.0</ele><time>2026-04-12T09:21:04Z</time></trkpt><trkpt lat="37.8493119952392" lon="14.698379748739013"><ele>1185.0</ele><time>2026-04-12T09:21:05Z</time></trkpt><trkpt lat="37.849219366188514" lon="14.698419323127165"><ele>1182.0</ele><time>2026-04-12T09:21:06Z</time></trkpt><trkpt lat="37.84914287972501" lon="14.69848988532332"><ele>1179.0</ele><time>2026-04-12T09:21:07Z</time></trkpt><trkpt lat="37.849063891493245" lon="14.698559842838366"><ele>1176.0</ele><time>2026-04-12T09:21:08Z</time></trkpt><trkpt lat="37.84898980236783" lon="14.698649610220187"><ele>1173.0</ele><time>2026-04-12T09:21:09Z</time></trkpt><trkpt lat="37.84891016603779" lon="14.698703624776732"><ele>1173.0</ele><time>2026-04-12T09:21:10Z</time></trkpt><trkpt lat="37.84883454436299" lon="14.6987657707154"><ele>1173.0</ele><time>2026-04-12T09:21:11Z</time></trkpt><trkpt lat="37.8487568735628" lon="14.698823604769316"><ele>1173.0</ele><time>2026-04-12T09:21:12Z</time></trkpt><trkpt lat="37.848684237698585" lon="14.698860674132439"><ele>1173.0</ele><time>2026-04-12T09:21:13Z</time></trkpt><trkpt lat="37.84861314671721" lon="14.698890974882584"><ele>1173.0</ele><time>2026-04-12T09:21:14Z</time></trkpt><trkpt lat="37.84854768361638" lon="14.698917985130908"><ele>1173.0</ele><time>2026-04-12T09:21:15Z</time></trkpt><trkpt lat="37.848486258468554" lon="14.6989461145385"><ele>1171.75</ele><time>2026-04-12T09:21:16Z</time></trkpt><trkpt lat="37.8483865591926" lon="14.699024913814775"><ele>1170.5</ele><time>2026-04-12T09:21:18Z</time></trkpt><trkpt lat="37.848281272311674" lon="14.699085915286789"><ele>1169.25</ele><time>2026-04-12T09:21:20Z</time></trkpt><trkpt lat="37.84818044404003" lon="14.699171433404787"><ele>1168.0</ele><time>2026-04-12T09:21:22Z</time></trkpt><trkpt lat="37.84808140962789" lon="14.69925005933897"><ele>1168.0</ele><time>2026-04-12T09:21:24Z</time></trkpt><trkpt lat="37.84802409295644" lon="14.699309549886157"><ele>1168.0</ele><time>2026-04-12T09:21:25Z</time></trkpt><trkpt lat="37.847970935189636" lon="14.699360733017164"><ele>1168.0</ele><time>2026-04-12T09:21:26Z</time></trkpt><trkpt lat="37.847871443659365" lon="14.699449068234486"><ele>1168.0</ele><time>2026-04-12T09:21:28Z</time></trkpt><trkpt lat="37.84777217545923" lon="14.699516303143344"><ele>1168.0</ele><time>2026-04-12T09:21:30Z</time></trkpt><trkpt lat="37.847683143088304" lon="14.699586018213077"><ele>1167.4</ele><time>2026-04-12T09:21:32Z</time></trkpt><trkpt lat="37.84759766600668" lon="14.69966049826228"><ele>1166.8</ele><time>2026-04-12T09:21:34Z</time></trkpt><trkpt lat="37.847502690567666" lon="14.699727265042407"><ele>1166.2</ele><time>2026-04-12T09:21:36Z</time></trkpt><trkpt lat="37.847411981632575" lon="14.699788754594865"><ele>1165.6</ele><time>2026-04-12T09:21:38Z</time></trkpt><trkpt lat="37.847337075710016" lon="14.699860161976252"><ele>1165.0</ele><time>2026-04-12T09:21:40Z</time></trkpt><trkpt lat="37.84725724060084" lon="14.69993381947743"><ele>1165.0</ele><time>2026-04-12T09:21:42Z</time></trkpt><trkpt lat="37.847190260829734" lon="14.700009237744359"><ele>1165.0</ele><time>2026-04-12T09:21:44Z</time></trkpt><trkpt lat="37.84713395496491" lon="14.700080274608974"><ele>1165.0</ele><time>2026-04-12T09:21:46Z</time></trkpt><trkpt lat="37.847076598112814" lon="14.700153607196945"><ele>1165.0</ele><time>2026-04-12T09:21:48Z</time></trkpt><trkpt lat="37.84701693353431" lon="14.700239743714711"><ele>1165.0</ele><time>2026-04-12T09:21:50Z</time></trkpt><trkpt lat="37.846960571022485" lon="14.700331033261312"><ele>1165.0</ele><time>2026-04-12T09:21:52Z</time></trkpt><trkpt lat="37.84693101118547" lon="14.70044354102287"><ele>1165.2</ele><time>2026-04-12T09:21:54Z</time></trkpt><trkpt lat="37.84691270011847" lon="14.70056451961294"><ele>1165.4</ele><time>2026-04-12T09:21:56Z</time></trkpt><trkpt lat="37.846887550901265" lon="14.700688740626482"><ele>1165.6</ele><time>2026-04-12T09:21:58Z</time></trkpt><trkpt lat="37.8468580721923" lon="14.700815343848038"><ele>1165.8</ele><time>2026-04-12T09:22:00Z</time></trkpt><trkpt lat="37.84683686587265" lon="14.700947944615583"><ele>1166.0</ele><time>2026-04-12T09:22:02Z</time></trkpt><trkpt lat="37.846806762923855" lon="14.701092111414777"><ele>1165.6666666666667</ele><time>2026-04-12T09:22:04Z</time></trkpt><trkpt lat="37.8467490682503" lon="14.701236376716508"><ele>1165.3333333333335</ele><time>2026-04-12T09:22:06Z</time></trkpt><trkpt lat="37.84670465027576" lon="14.701300252384666"><ele>1165.0</ele><time>2026-04-12T09:22:07Z</time></trkpt><trkpt lat="37.846647766663516" lon="14.701352366269218"><ele>1164.6666666666667</ele><time>2026-04-12T09:22:08Z</time></trkpt><trkpt lat="37.84659889977278" lon="14.701412797910873"><ele>1164.3333333333333</ele><time>2026-04-12T09:22:09Z</time></trkpt><trkpt lat="37.84654440139593" lon="14.701455423666888"><ele>1164.0</ele><time>2026-04-12T09:22:10Z</time></trkpt><trkpt lat="37.84645165815609" lon="14.701550226701023"><ele>1164.0</ele><time>2026-04-12T09:22:12Z</time></trkpt><trkpt lat="37.84640574897717" lon="14.701607336350675"><ele>1164.0</ele><time>2026-04-12T09:22:13Z</time></trkpt><trkpt lat="37.846369645475775" lon="14.701694907087035"><ele>1164.0</ele><time>2026-04-12T09:22:14Z</time></trkpt><trkpt lat="37.846335783748835" lon="14.70179731705584"><ele>1164.0</ele><time>2026-04-12T09:22:15Z</time></trkpt><trkpt lat="37.84630856357597" lon="14.701904354232921"><ele>1164.0</ele><time>2026-04-12T09:22:16Z</time></trkpt><trkpt lat="37.846281643937346" lon="14.70201136710161"><ele>1164.0</ele><time>2026-04-12T09:22:17Z</time></trkpt><trkpt lat="37.84625212470124" lon="14.702121597703783"><ele>1165.6000000000001</ele><time>2026-04-12T09:22:18Z</time></trkpt><trkpt lat="37.84622308557223" lon="14.702229083962752"><ele>1167.2</ele><time>2026-04-12T09:22:19Z</time></trkpt><trkpt lat="37.84618850983517" lon="14.702332526566318"><ele>1168.8000000000002</ele><time>2026-04-12T09:22:20Z</time></trkpt><trkpt lat="37.84614634914875" lon="14.702432780254782"><ele>1170.4</ele><time>2026-04-12T09:22:21Z</time></trkpt><trkpt lat="37.84610344867051" lon="14.702535224582016"><ele>1172.0</ele><time>2026-04-12T09:22:22Z</time></trkpt><trkpt lat="37.84606353146073" lon="14.70264174473404"><ele>1170.8</ele><time>2026-04-12T09:22:23Z</time></trkpt><trkpt lat="37.84602283372672" lon="14.702748224990195"><ele>1169.6</ele><time>2026-04-12T09:22:24Z</time></trkpt><trkpt lat="37.8459819813144" lon="14.702856107543885"><ele>1168.3999999999999</ele><time>2026-04-12T09:22:25Z</time></trkpt><trkpt lat="37.84594646067217" lon="14.702968594606963"><ele>1167.2</ele><time>2026-04-12T09:22:26Z</time></trkpt><trkpt lat="37.845919846722694" lon="14.703082986813895"><ele>1166.0</ele><time>2026-04-12T09:22:27Z</time></trkpt><trkpt lat="37.845905181700765" lon="14.703203190968463"><ele>1166.0</ele><time>2026-04-12T09:22:28Z</time></trkpt><trkpt lat="37.845889479150934" lon="14.703322549129075"><ele>1166.0</ele><time>2026-04-12T09:22:29Z</time></trkpt><trkpt lat="37.845919065024404" lon="14.703446210620532"><ele>1166.0</ele><time>2026-04-12T09:22:30Z</time></trkpt><trkpt lat="37.84598820854434" lon="14.703539742674632"><ele>1166.0</ele><time>2026-04-12T09:22:31Z</time></trkpt><trkpt lat="37.84604174440997" lon="14.703651320372497"><ele>1166.0</ele><time>2026-04-12T09:22:32Z</time></trkpt><trkpt lat="37.84610760804457" lon="14.703757725462458"><ele>1168.75</ele><time>2026-04-12T09:22:33Z</time></trkpt><trkpt lat="37.84616416833428" lon="14.70387874335249"><ele>1171.5</ele><time>2026-04-12T09:22:34Z</time></trkpt><trkpt lat="37.846222427404804" lon="14.704010799190362"><ele>1174.25</ele><time>2026-04-12T09:22:35Z</time></trkpt><trkpt lat="37.84623841327589" lon="14.704156829374279"><ele>1177.0</ele><time>2026-04-12T09:22:36Z</time></trkpt><trkpt lat="37.84622713245165" lon="14.70429351842843"><ele>1179.25</ele><time>2026-04-12T09:22:37Z</time></trkpt><trkpt lat="37.846191357245445" lon="14.704421844413146"><ele>1181.5</ele><time>2026-04-12T09:22:38Z</time></trkpt><trkpt lat="37.84612701870025" lon="14.704535876394267"><ele>1183.75</ele><time>2026-04-12T09:22:39Z</time></trkpt><trkpt lat="37.846039995955444" lon="14.704645618509044"><ele>1186.0</ele><time>2026-04-12T09:22:40Z</time></trkpt><trkpt lat="37.84598808485128" lon="14.704792333351087"><ele>1186.0</ele><time>2026-04-12T09:22:41Z</time></trkpt><trkpt lat="37.84597327836649" lon="14.704963151766533"><ele>1186.0</ele><time>2026-04-12T09:22:42Z</time></trkpt><trkpt lat="37.84596781184323" lon="14.70512704215229"><ele>1186.0</ele><time>2026-04-12T09:22:43Z</time></trkpt><trkpt lat="37.845974732069514" lon="14.705274121031152"><ele>1186.0</ele><time>2026-04-12T09:22:44Z</time></trkpt><trkpt lat="37.84599206362347" lon="14.705419993919119"><ele>1186.2</ele><time>2026-04-12T09:22:45Z</time></trkpt><trkpt lat="37.84601254337986" lon="14.70555880758659"><ele>1186.3999999999999</ele><time>2026-04-12T09:22:46Z</time></trkpt><trkpt lat="37.84603018873709" lon="14.705691959237575"><ele>1186.6</ele><time>2026-04-12T09:22:47Z</time></trkpt><trkpt lat="37.84604844091452" lon="14.705824723104094"><ele>1186.8</ele><time>2026-04-12T09:22:48Z</time></trkpt><trkpt lat="37.84607230305378" lon="14.705962643908487"><ele>1187.0</ele><time>2026-04-12T09:22:49Z</time></trkpt><trkpt lat="37.84609883503857" lon="14.706104912823518"><ele>1185.8</ele><time>2026-04-12T09:22:50Z</time></trkpt><trkpt lat="37.846124005229726" lon="14.706242644965211"><ele>1184.6</ele><time>2026-04-12T09:22:51Z</time></trkpt><trkpt lat="37.84614078678428" lon="14.706377279415479"><ele>1183.3999999999999</ele><time>2026-04-12T09:22:52Z</time></trkpt><trkpt lat="37.846137039391536" lon="14.706513308526302"><ele>1182.2</ele><time>2026-04-12T09:22:53Z</time></trkpt><trkpt lat="37.84611999802201" lon="14.706643520979325"><ele>1181.0</ele><time>2026-04-12T09:22:54Z</time></trkpt><trkpt lat="37.8460903009142" lon="14.70676683845586"><ele>1181.0</ele><time>2026-04-12T09:22:55Z</time></trkpt><trkpt lat="37.84608353061637" lon="14.70689659818748"><ele>1181.0</ele><time>2026-04-12T09:22:56Z</time></trkpt><trkpt lat="37.84609877500104" lon="14.707028374147926"><ele>1181.0</ele><time>2026-04-12T09:22:57Z</time></trkpt><trkpt lat="37.84611303450049" lon="14.707149121686244"><ele>1181.0</ele><time>2026-04-12T09:22:58Z</time></trkpt><trkpt lat="37.84612439242926" lon="14.707259223474304"><ele>1181.0</ele><time>2026-04-12T09:22:59Z</time></trkpt><trkpt lat="37.84612738873786" lon="14.707370244634525"><ele>1180.1666666666667</ele><time>2026-04-12T09:23:00Z</time></trkpt><trkpt lat="37.846109092113466" lon="14.707478502391366"><ele>1179.3333333333335</ele><time>2026-04-12T09:23:01Z</time></trkpt><trkpt lat="37.84607260813345" lon="14.707578882688576"><ele>1178.5</ele><time>2026-04-12T09:23:02Z</time></trkpt><trkpt lat="37.8460301461965" lon="14.707672691061543"><ele>1177.6666666666667</ele><time>2026-04-12T09:23:03Z</time></trkpt><trkpt lat="37.84598399685898" lon="14.70776339082749"><ele>1176.8333333333333</ele><time>2026-04-12T09:23:04Z</time></trkpt><trkpt lat="37.84593767900357" lon="14.707853586594828"><ele>1176.0</ele><time>2026-04-12T09:23:05Z</time></trkpt><trkpt lat="37.84589082807359" lon="14.707943148952946"><ele>1170.3333333333333</ele><time>2026-04-12T09:23:06Z</time></trkpt><trkpt lat="37.84584306577569" lon="14.708031555614792"><ele>1164.6666666666667</ele><time>2026-04-12T09:23:07Z</time></trkpt><trkpt lat="37.84579722517953" lon="14.708121854488471"><ele>1159.0</ele><time>2026-04-12T09:23:08Z</time></trkpt><trkpt lat="37.84575255013812" lon="14.708215355523418"><ele>1153.3333333333335</ele><time>2026-04-12T09:23:09Z</time></trkpt><trkpt lat="37.84571512275748" lon="14.708312214673962"><ele>1147.6666666666667</ele><time>2026-04-12T09:23:10Z</time></trkpt><trkpt lat="37.84567948243628" lon="14.708412255137683"><ele>1142.0</ele><time>2026-04-12T09:23:11Z</time></trkpt><trkpt lat="37.84563996394347" lon="14.708510568793093"><ele>1142.3333333333335</ele><time>2026-04-12T09:23:12Z</time></trkpt><trkpt lat="37.845590414635026" lon="14.708604353224343"><ele>1142.6666666666667</ele><time>2026-04-12T09:23:13Z</time></trkpt><trkpt lat="37.84554118901293" lon="14.708698073709304"><ele>1143.0</ele><time>2026-04-12T09:23:14Z</time></trkpt><trkpt lat="37.845503101012284" lon="14.708800621858417"><ele>1143.3333333333333</ele><time>2026-04-12T09:23:15Z</time></trkpt><trkpt lat="37.84548343242568" lon="14.708911700714975"><ele>1143.6666666666665</ele><time>2026-04-12T09:23:16Z</time></trkpt><trkpt lat="37.84549338874571" lon="14.709024597376882"><ele>1144.0</ele><time>2026-04-12T09:23:17Z</time></trkpt><trkpt lat="37.845516820243965" lon="14.709132153332497"><ele>1144.0</ele><time>2026-04-12T09:23:18Z</time></trkpt><trkpt lat="37.84554202562885" lon="14.709238284159"><ele>1144.0</ele><time>2026-04-12T09:23:19Z</time></trkpt><trkpt lat="37.845569028102425" lon="14.709345626619156"><ele>1144.0</ele><time>2026-04-12T09:23:20Z</time></trkpt><trkpt lat="37.84558693060332" lon="14.709453707920877"><ele>1144.0</ele><time>2026-04-12T09:23:21Z</time></trkpt><trkpt lat="37.845587263973336" lon="14.709565739986493"><ele>1144.0</ele><time>2026-04-12T09:23:22Z</time></trkpt><trkpt lat="37.845563508850745" lon="14.7096750668649"><ele>1144.0</ele><time>2026-04-12T09:23:23Z</time></trkpt><trkpt lat="37.845518244113826" lon="14.709771984399099"><ele>1144.8333333333333</ele><time>2026-04-12T09:23:24Z</time></trkpt><trkpt lat="37.845469469887156" lon="14.709865424545685"><ele>1145.6666666666665</ele><time>2026-04-12T09:23:25Z</time></trkpt><trkpt lat="37.84542130736596" lon="14.709960811276012"><ele>1146.5</ele><time>2026-04-12T09:23:26Z</time></trkpt><trkpt lat="37.84537394066194" lon="14.710057832209326"><ele>1147.3333333333333</ele><time>2026-04-12T09:23:27Z</time></trkpt><trkpt lat="37.845330960560574" lon="14.71015874120617"><ele>1148.1666666666667</ele><time>2026-04-12T09:23:28Z</time></trkpt><trkpt lat="37.84529128554367" lon="14.710260696758082"><ele>1149.0</ele><time>2026-04-12T09:23:29Z</time></trkpt><trkpt lat="37.84525097754262" lon="14.710363795135224"><ele>1149.0</ele><time>2026-04-12T09:23:30Z</time></trkpt><trkpt lat="37.84520522718747" lon="14.710458684804932"><ele>1149.0</ele><time>2026-04-12T09:23:31Z</time></trkpt><trkpt lat="37.845158189658356" lon="14.710552132183794"><ele>1149.0</ele><time>2026-04-12T09:23:32Z</time></trkpt><trkpt lat="37.84511259469705" lon="14.710647302981018"><ele>1149.0</ele><time>2026-04-12T09:23:33Z</time></trkpt><trkpt lat="37.845077220286996" lon="14.710727432977032"><ele>1149.0</ele><time>2026-04-12T09:23:34Z</time></trkpt><trkpt lat="37.84502092262466" lon="14.710854712471795"><ele>1144.5</ele><time>2026-04-12T09:23:36Z</time></trkpt><trkpt lat="37.84496659543561" lon="14.710970197125418"><ele>1140.0</ele><time>2026-04-12T09:23:38Z</time></trkpt><trkpt lat="37.844926592302855" lon="14.711055581289457"><ele>1135.5</ele><time>2026-04-12T09:23:40Z</time></trkpt><trkpt lat="37.84485676173512" lon="14.711071271636381"><ele>1131.0</ele><time>2026-04-12T09:23:42Z</time></trkpt><trkpt lat="37.84478683655774" lon="14.710950498658939"><ele>1126.5</ele><time>2026-04-12T09:23:44Z</time></trkpt><trkpt lat="37.84476166971021" lon="14.710862460219312"><ele>1122.0</ele><time>2026-04-12T09:23:45Z</time></trkpt><trkpt lat="37.844730672397816" lon="14.710770778978146"><ele>1122.0</ele><time>2026-04-12T09:23:46Z</time></trkpt><trkpt lat="37.844727262810295" lon="14.710681303038298"><ele>1122.0</ele><time>2026-04-12T09:23:47Z</time></trkpt><trkpt lat="37.84474749792422" lon="14.710595039024634"><ele>1122.0</ele><time>2026-04-12T09:23:48Z</time></trkpt><trkpt lat="37.8448460124189" lon="14.710463192715686"><ele>1122.0</ele><time>2026-04-12T09:23:50Z</time></trkpt><trkpt lat="37.84489745232643" lon="14.710382534401159"><ele>1122.0</ele><time>2026-04-12T09:23:51Z</time></trkpt><trkpt lat="37.84494585206999" lon="14.710301941385824"><ele>1122.0</ele><time>2026-04-12T09:23:52Z</time></trkpt><trkpt lat="37.84499376097455" lon="14.710230392171582"><ele>1121.6666666666667</ele><time>2026-04-12T09:23:53Z</time></trkpt><trkpt lat="37.84503646155815" lon="14.710161345669865"><ele>1121.3333333333333</ele><time>2026-04-12T09:23:54Z</time></trkpt><trkpt lat="37.845087663866174" lon="14.71009166517344"><ele>1121.0</ele><time>2026-04-12T09:23:55Z</time></trkpt><trkpt lat="37.84513831481522" lon="14.710015097564831"><ele>1120.6666666666665</ele><time>2026-04-12T09:23:56Z</time></trkpt><trkpt lat="37.84517426736583" lon="14.7099220291659"><ele>1120.3333333333333</ele><time>2026-04-12T09:23:57Z</time></trkpt><trkpt lat="37.84518725543969" lon="14.709810081309204"><ele>1120.0</ele><time>2026-04-12T09:23:58Z</time></trkpt><trkpt lat="37.84518364783819" lon="14.709697870952718"><ele>1120.0</ele><time>2026-04-12T09:23:59Z</time></trkpt><trkpt lat="37.84516598529864" lon="14.709578503596102"><ele>1120.0</ele><time>2026-04-12T09:24:00Z</time></trkpt><trkpt lat="37.8451202085579" lon="14.70947481964927"><ele>1120.0</ele><time>2026-04-12T09:24:01Z</time></trkpt><trkpt lat="37.845043712025294" lon="14.709400887165248"><ele>1120.0</ele><time>2026-04-12T09:24:02Z</time></trkpt><trkpt lat="37.84494844052419" lon="14.709360364414545"><ele>1120.0</ele><time>2026-04-12T09:24:03Z</time></trkpt><trkpt lat="37.8448520728901" lon="14.70932572339752"><ele>1119.0</ele><time>2026-04-12T09:24:04Z</time></trkpt><trkpt lat="37.84478582527426" lon="14.709247603454083"><ele>1118.0</ele><time>2026-04-12T09:24:05Z</time></trkpt><trkpt lat="37.844770314361696" lon="14.709137730209537"><ele>1117.0</ele><time>2026-04-12T09:24:06Z</time></trkpt><trkpt lat="37.84479552866124" lon="14.709019042474468"><ele>1116.0</ele><time>2026-04-12T09:24:07Z</time></trkpt><trkpt lat="37.84485321062244" lon="14.708906974069073"><ele>1115.0</ele><time>2026-04-12T09:24:08Z</time></trkpt><trkpt lat="37.844909261632786" lon="14.70878479103872"><ele>1115.0</ele><time>2026-04-12T09:24:09Z</time></trkpt><trkpt lat="37.84494100203427" lon="14.708651816069816"><ele>1115.0</ele><time>2026-04-12T09:24:10Z</time></trkpt><trkpt lat="37.844966825000135" lon="14.708527682900833"><ele>1115.0</ele><time>2026-04-12T09:24:11Z</time></trkpt><trkpt lat="37.84497269002592" lon="14.708395895130826"><ele>1115.0</ele><time>2026-04-12T09:24:12Z</time></trkpt><trkpt lat="37.8449730983692" lon="14.708281575683445"><ele>1115.0</ele><time>2026-04-12T09:24:13Z</time></trkpt><trkpt lat="37.844956799444425" lon="14.708156286998836"><ele>1114.75</ele><time>2026-04-12T09:24:14Z</time></trkpt><trkpt lat="37.84492046045254" lon="14.70803416810314"><ele>1114.5</ele><time>2026-04-12T09:24:15Z</time></trkpt><trkpt lat="37.844859487473926" lon="14.707905712457356"><ele>1114.25</ele><time>2026-04-12T09:24:16Z</time></trkpt><trkpt lat="37.844771976571046" lon="14.707775878840778"><ele>1114.0</ele><time>2026-04-12T09:24:17Z</time></trkpt><trkpt lat="37.8446959005526" lon="14.707648429418233"><ele>1114.0</ele><time>2026-04-12T09:24:18Z</time></trkpt><trkpt lat="37.844619029810815" lon="14.70752025742759"><ele>1114.0</ele><time>2026-04-12T09:24:19Z</time></trkpt><trkpt lat="37.844560470759525" lon="14.707378173096023"><ele>1114.0</ele><time>2026-04-12T09:24:20Z</time></trkpt><trkpt lat="37.844508610067344" lon="14.70722170490126"><ele>1114.0</ele><time>2026-04-12T09:24:21Z</time></trkpt><trkpt lat="37.84445019897669" lon="14.707067358000316"><ele>1114.0</ele><time>2026-04-12T09:24:22Z</time></trkpt><trkpt lat="37.84436861298124" lon="14.706921612193419"><ele>1114.0</ele><time>2026-04-12T09:24:23Z</time></trkpt><trkpt lat="37.844280175731775" lon="14.706777215230618"><ele>1114.0</ele><time>2026-04-12T09:24:24Z</time></trkpt><trkpt lat="37.84420696993052" lon="14.706622338076544"><ele>1114.0</ele><time>2026-04-12T09:24:25Z</time></trkpt><trkpt lat="37.84412549347884" lon="14.706470139696599"><ele>1109.0</ele><time>2026-04-12T09:24:26Z</time></trkpt><trkpt lat="37.84403292024725" lon="14.706324180751764"><ele>1104.0</ele><time>2026-04-12T09:24:27Z</time></trkpt><trkpt lat="37.84391726893054" lon="14.706209285758641"><ele>1099.0</ele><time>2026-04-12T09:24:28Z</time></trkpt><trkpt lat="37.84377587211997" lon="14.706152748667455"><ele>1094.0</ele><time>2026-04-12T09:24:29Z</time></trkpt><trkpt lat="37.84363806928612" lon="14.706098178019081"><ele>1092.75</ele><time>2026-04-12T09:24:30Z</time></trkpt><trkpt lat="37.84350669901996" lon="14.70603674342263"><ele>1091.5</ele><time>2026-04-12T09:24:31Z</time></trkpt><trkpt lat="37.843386845091175" lon="14.705974541947855"><ele>1090.25</ele><time>2026-04-12T09:24:32Z</time></trkpt><trkpt lat="37.843262046245094" lon="14.705903161001048"><ele>1089.0</ele><time>2026-04-12T09:24:33Z</time></trkpt><trkpt lat="37.84314904293756" lon="14.705813649891688"><ele>1089.0</ele><time>2026-04-12T09:24:34Z</time></trkpt><trkpt lat="37.8430617645843" lon="14.705684171896614"><ele>1089.0</ele><time>2026-04-12T09:24:35Z</time></trkpt><trkpt lat="37.843006764825205" lon="14.705531934491068"><ele>1089.0</ele><time>2026-04-12T09:24:36Z</time></trkpt><trkpt lat="37.84295265743925" lon="14.70538275614847"><ele>1089.0</ele><time>2026-04-12T09:24:37Z</time></trkpt><trkpt lat="37.84289900629347" lon="14.705249536566114"><ele>1087.8</ele><time>2026-04-12T09:24:38Z</time></trkpt><trkpt lat="37.842847646915324" lon="14.70513323838524"><ele>1086.6000000000001</ele><time>2026-04-12T09:24:39Z</time></trkpt><trkpt lat="37.8427815468067" lon="14.705052109739537"><ele>1085.4</ele><time>2026-04-12T09:24:40Z</time></trkpt><trkpt lat="37.84269315647437" lon="14.705022456035966"><ele>1084.2</ele><time>2026-04-12T09:24:41Z</time></trkpt><trkpt lat="37.8426029327934" lon="14.705061858074469"><ele>1083.0</ele><time>2026-04-12T09:24:42Z</time></trkpt><trkpt lat="37.84252817036278" lon="14.70513637209902"><ele>1084.2</ele><time>2026-04-12T09:24:43Z</time></trkpt><trkpt lat="37.842500875143195" lon="14.705268357067489"><ele>1085.4</ele><time>2026-04-12T09:24:44Z</time></trkpt><trkpt lat="37.84254170248719" lon="14.705399736011028"><ele>1086.6000000000001</ele><time>2026-04-12T09:24:45Z</time></trkpt><trkpt lat="37.84257489716682" lon="14.70552819752355"><ele>1087.8</ele><time>2026-04-12T09:24:46Z</time></trkpt><trkpt lat="37.842616304553545" lon="14.705666653419211"><ele>1089.0</ele><time>2026-04-12T09:24:47Z</time></trkpt><trkpt lat="37.84267121611086" lon="14.7058036330335"><ele>1089.0</ele><time>2026-04-12T09:24:48Z</time></trkpt><trkpt lat="37.84271403364806" lon="14.70595300202574"><ele>1089.0</ele><time>2026-04-12T09:24:49Z</time></trkpt><trkpt lat="37.84275787822707" lon="14.70610685870285"><ele>1089.0</ele><time>2026-04-12T09:24:50Z</time></trkpt><trkpt lat="37.84280089377658" lon="14.706271653100268"><ele>1089.0</ele><time>2026-04-12T09:24:51Z</time></trkpt><trkpt lat="37.84289553743673" lon="14.706405154726133"><ele>1086.75</ele><time>2026-04-12T09:24:52Z</time></trkpt><trkpt lat="37.842981689971054" lon="14.706550115375943"><ele>1084.5</ele><time>2026-04-12T09:24:53Z</time></trkpt><trkpt lat="37.84307260186189" lon="14.706683379928146"><ele>1082.25</ele><time>2026-04-12T09:24:54Z</time></trkpt><trkpt lat="37.84315457536183" lon="14.706809985410969"><ele>1080.0</ele><time>2026-04-12T09:24:55Z</time></trkpt><trkpt lat="37.84322410836555" lon="14.706921877411492"><ele>1078.6</ele><time>2026-04-12T09:24:56Z</time></trkpt><trkpt lat="37.84328798628329" lon="14.707027767310105"><ele>1077.2</ele><time>2026-04-12T09:24:57Z</time></trkpt><trkpt lat="37.84329167961318" lon="14.707164883217146"><ele>1075.8</ele><time>2026-04-12T09:24:58Z</time></trkpt><trkpt lat="37.843245318222145" lon="14.707289057776197"><ele>1074.4</ele><time>2026-04-12T09:24:59Z</time></trkpt><trkpt lat="37.84316275608097" lon="14.707376839409438"><ele>1073.0</ele><time>2026-04-12T09:25:00Z</time></trkpt><trkpt lat="37.84307124123279" lon="14.707463507039012"><ele>1073.0</ele><time>2026-04-12T09:25:01Z</time></trkpt><trkpt lat="37.84297778197325" lon="14.70756967464502"><ele>1073.0</ele><time>2026-04-12T09:25:02Z</time></trkpt><trkpt lat="37.842876362946384" lon="14.707680432201146"><ele>1073.0</ele><time>2026-04-12T09:25:03Z</time></trkpt><trkpt lat="37.84276670773543" lon="14.707800876146365"><ele>1073.0</ele><time>2026-04-12T09:25:04Z</time></trkpt><trkpt lat="37.842680714928015" lon="14.70794865297751"><ele>1073.0</ele><time>2026-04-12T09:25:05Z</time></trkpt><trkpt lat="37.84264104378923" lon="14.708124384891615"><ele>1073.0</ele><time>2026-04-12T09:25:06Z</time></trkpt><trkpt lat="37.842646570001264" lon="14.708316415642093"><ele>1073.0</ele><time>2026-04-12T09:25:07Z</time></trkpt><trkpt lat="37.84266554681936" lon="14.708523018240422"><ele>1073.0</ele><time>2026-04-12T09:25:08Z</time></trkpt><trkpt lat="37.842693860093746" lon="14.708705727449964"><ele>1073.0</ele><time>2026-04-12T09:25:09Z</time></trkpt><trkpt lat="37.84271337537478" lon="14.708860309779306"><ele>1073.0</ele><time>2026-04-12T09:25:10Z</time></trkpt><trkpt lat="37.8427002221627" lon="14.708991115476714"><ele>1073.0</ele><time>2026-04-12T09:25:11Z</time></trkpt><trkpt lat="37.84267458137178" lon="14.709116069264851"><ele>1073.0</ele><time>2026-04-12T09:25:12Z</time></trkpt><trkpt lat="37.842651814207294" lon="14.70922742025603"><ele>1073.0</ele><time>2026-04-12T09:25:13Z</time></trkpt><trkpt lat="37.842624645206804" lon="14.709326315614824"><ele>1073.0</ele><time>2026-04-12T09:25:14Z</time></trkpt><trkpt lat="37.8425950469482" lon="14.70941180712331"><ele>1073.0</ele><time>2026-04-12T09:25:15Z</time></trkpt><trkpt lat="37.84256567411949" lon="14.709484211735157"><ele>1073.0</ele><time>2026-04-12T09:25:16Z</time></trkpt><trkpt lat="37.84251934513075" lon="14.709564095203602"><ele>1073.0</ele><time>2026-04-12T09:25:18Z</time></trkpt><trkpt lat="37.84258320926476" lon="14.709622973101675"><ele>1069.25</ele><time>2026-04-12T09:25:19Z</time></trkpt><trkpt lat="37.842607761796806" lon="14.709709914819443"><ele>1065.5</ele><time>2026-04-12T09:25:22Z</time></trkpt><trkpt lat="37.842480944275806" lon="14.709651557322193"><ele>1061.75</ele><time>2026-04-12T09:25:24Z</time></trkpt><trkpt lat="37.84260634631643" lon="14.70972436230652"><ele>1058.0</ele><time>2026-04-12T09:25:34Z</time></trkpt><trkpt lat="37.8424914470493" lon="14.709627636146413"><ele>1058.0</ele><time>2026-04-12T09:25:39Z</time></trkpt><trkpt lat="37.84262086277619" lon="14.709717720951117"><ele>1058.0</ele><time>2026-04-12T09:25:41Z</time></trkpt><trkpt lat="37.84264012111276" lon="14.709796732852645"><ele>1058.0</ele><time>2026-04-12T09:27:53Z</time></trkpt><trkpt lat="37.842547461586314" lon="14.709788811295109"><ele>1058.0</ele><time>2026-04-12T09:31:17Z</time></trkpt><trkpt lat="37.84254787252515" lon="14.709881710308272"><ele>1058.0</ele><time>2026-04-12T09:33:29Z</time></trkpt><trkpt lat="37.84259501071234" lon="14.709825318108347"><ele>1058.0</ele><time>2026-04-12T09:33:34Z</time></trkpt><trkpt lat="37.84251857127728" lon="14.709832741382078"><ele>1058.0</ele><time>2026-04-12T09:34:12Z</time></trkpt><trkpt lat="37.84242723902027" lon="14.70983737805633"><ele>1058.0</ele><time>2026-04-12T09:34:16Z</time></trkpt><trkpt lat="37.84235021176827" lon="14.709969937661132"><ele>1058.0</ele><time>2026-04-12T09:34:18Z</time></trkpt><trkpt lat="37.842305361540554" lon="14.710062304613603"><ele>1058.0</ele><time>2026-04-12T09:34:19Z</time></trkpt><trkpt lat="37.84226801643017" lon="14.710149252375167"><ele>1058.0</ele><time>2026-04-12T09:34:20Z</time></trkpt><trkpt lat="37.842228480938175" lon="14.710228034741933"><ele>1058.8333333333335</ele><time>2026-04-12T09:34:21Z</time></trkpt><trkpt lat="37.84219209434401" lon="14.710303577040543"><ele>1059.6666666666667</ele><time>2026-04-12T09:34:22Z</time></trkpt><trkpt lat="37.84215869409699" lon="14.710376793444881"><ele>1060.5</ele><time>2026-04-12T09:34:23Z</time></trkpt><trkpt lat="37.842123593408935" lon="14.710443128543867"><ele>1061.3333333333333</ele><time>2026-04-12T09:34:24Z</time></trkpt><trkpt lat="37.84204934294166" lon="14.710564111048726"><ele>1062.1666666666665</ele><time>2026-04-12T09:34:26Z</time></trkpt><trkpt lat="37.84197134287478" lon="14.710675618799591"><ele>1063.0</ele><time>2026-04-12T09:34:28Z</time></trkpt><trkpt lat="37.841883934463176" lon="14.710757107914956"><ele>1063.0</ele><time>2026-04-12T09:34:30Z</time></trkpt><trkpt lat="37.84180659888553" lon="14.710819753764646"><ele>1063.0</ele><time>2026-04-12T09:34:32Z</time></trkpt><trkpt lat="37.84174459051762" lon="14.710895935028221"><ele>1063.0</ele><time>2026-04-12T09:34:34Z</time></trkpt><trkpt lat="37.841736555043774" lon="14.711019252204542"><ele>1063.0</ele><time>2026-04-12T09:34:36Z</time></trkpt><trkpt lat="37.84174569592171" lon="14.711107460541422"><ele>1063.0</ele><time>2026-04-12T09:34:38Z</time></trkpt><trkpt lat="37.84178651469673" lon="14.711168784990958"><ele>1063.0</ele><time>2026-04-12T09:34:40Z</time></trkpt><trkpt lat="37.84184469490449" lon="14.711127803387491"><ele>1065.6</ele><time>2026-04-12T09:36:35Z</time></trkpt><trkpt lat="37.841762644575326" lon="14.711100614199594"><ele>1068.1999999999998</ele><time>2026-04-12T09:36:51Z</time></trkpt><trkpt lat="37.84183395443456" lon="14.711105142725664"><ele>1070.8</ele><time>2026-04-12T09:36:56Z</time></trkpt><trkpt lat="37.84177621113989" lon="14.711052829652031"><ele>1073.3999999999999</ele><time>2026-04-12T09:38:07Z</time></trkpt><trkpt lat="37.841586353756064" lon="14.711108222055087"><ele>1076.0</ele><time>2026-04-12T09:38:12Z</time></trkpt><trkpt lat="37.84167043467362" lon="14.711089854004596"><ele>1076.0</ele><time>2026-04-12T09:38:26Z</time></trkpt><trkpt lat="37.84168854147897" lon="14.711003980318496"><ele>1076.0</ele><time>2026-04-12T09:38:31Z</time></trkpt><trkpt lat="37.84175078251062" lon="14.711060854014592"><ele>1076.0</ele><time>2026-04-12T09:38:52Z</time></trkpt><trkpt lat="37.84181575681741" lon="14.71109424460433"><ele>1076.0</ele><time>2026-04-12T09:38:57Z</time></trkpt><trkpt lat="37.841754503049856" lon="14.711058799286796"><ele>1076.0</ele><time>2026-04-12T09:39:07Z</time></trkpt><trkpt lat="37.841936498915786" lon="14.711084458990687"><ele>1076.0</ele><time>2026-04-12T09:40:07Z</time></trkpt><trkpt lat="37.84176039842191" lon="14.711133129712234"><ele>1076.0</ele><time>2026-04-12T09:40:10Z</time></trkpt><trkpt lat="37.841823165312015" lon="14.71108003755728"><ele>1076.0</ele><time>2026-04-12T09:41:08Z</time></trkpt><trkpt lat="37.84188729173285" lon="14.711098721832677"><ele>1076.0</ele><time>2026-04-12T09:41:12Z</time></trkpt><trkpt lat="37.841823816802176" lon="14.711102883443026"><ele>1076.0</ele><time>2026-04-12T09:41:54Z</time></trkpt><trkpt lat="37.84179228946674" lon="14.711195760854707"><ele>1071.3333333333335</ele><time>2026-04-12T09:49:54Z</time></trkpt><trkpt lat="37.841787607818155" lon="14.711283637139902"><ele>1066.6666666666667</ele><time>2026-04-12T09:49:56Z</time></trkpt><trkpt lat="37.84176502179706" lon="14.711375143508612"><ele>1062.0</ele><time>2026-04-12T09:49:58Z</time></trkpt><trkpt lat="37.84175602153192" lon="14.711461105089189"><ele>1057.3333333333333</ele><time>2026-04-12T09:49:59Z</time></trkpt><trkpt lat="37.84175841104498" lon="14.711579291910953"><ele>1052.6666666666665</ele><time>2026-04-12T09:50:00Z</time></trkpt><trkpt lat="37.84176378016549" lon="14.711721503846414"><ele>1048.0</ele><time>2026-04-12T09:50:01Z</time></trkpt><trkpt lat="37.841763407825546" lon="14.711882770506756"><ele>1050.4</ele><time>2026-04-12T09:50:02Z</time></trkpt><trkpt lat="37.84175324497692" lon="14.712009491407615"><ele>1052.8</ele><time>2026-04-12T09:50:03Z</time></trkpt><trkpt lat="37.84171585300482" lon="14.712116978695954"><ele>1055.2</ele><time>2026-04-12T09:50:04Z</time></trkpt><trkpt lat="37.84165132997216" lon="14.712221863415582"><ele>1057.6</ele><time>2026-04-12T09:50:05Z</time></trkpt><trkpt lat="37.84157235107759" lon="14.712320120223458"><ele>1060.0</ele><time>2026-04-12T09:50:06Z</time></trkpt><trkpt lat="37.841500087478494" lon="14.712419825333459"><ele>1060.0</ele><time>2026-04-12T09:50:07Z</time></trkpt><trkpt lat="37.84142440179172" lon="14.712524661848262"><ele>1060.0</ele><time>2026-04-12T09:50:08Z</time></trkpt><trkpt lat="37.84135903753976" lon="14.712645529085213"><ele>1060.0</ele><time>2026-04-12T09:50:09Z</time></trkpt><trkpt lat="37.841294968770065" lon="14.712765987682465"><ele>1060.0</ele><time>2026-04-12T09:50:10Z</time></trkpt><trkpt lat="37.84123023169536" lon="14.712877602468849"><ele>1062.5</ele><time>2026-04-12T09:50:11Z</time></trkpt><trkpt lat="37.841186140882286" lon="14.712993924026096"><ele>1065.0</ele><time>2026-04-12T09:50:12Z</time></trkpt><trkpt lat="37.8411749037682" lon="14.713133648309064"><ele>1067.5</ele><time>2026-04-12T09:50:13Z</time></trkpt><trkpt lat="37.841203876086695" lon="14.713281024387962"><ele>1070.0</ele><time>2026-04-12T09:50:14Z</time></trkpt><trkpt lat="37.841268686845936" lon="14.713417183506415"><ele>1070.0</ele><time>2026-04-12T09:50:15Z</time></trkpt><trkpt lat="37.84133412799637" lon="14.713544772728884"><ele>1070.0</ele><time>2026-04-12T09:50:16Z</time></trkpt><trkpt lat="37.841378465048045" lon="14.713682684919641"><ele>1070.0</ele><time>2026-04-12T09:50:17Z</time></trkpt><trkpt lat="37.84137980642649" lon="14.71381998134568"><ele>1070.0</ele><time>2026-04-12T09:50:18Z</time></trkpt><trkpt lat="37.84132486570669" lon="14.71395142257439"><ele>1068.25</ele><time>2026-04-12T09:50:19Z</time></trkpt><trkpt lat="37.8412071171147" lon="14.71401518660897"><ele>1066.5</ele><time>2026-04-12T09:50:20Z</time></trkpt><trkpt lat="37.84109843684144" lon="14.71408000534799"><ele>1064.75</ele><time>2026-04-12T09:50:21Z</time></trkpt><trkpt lat="37.84098902751075" lon="14.714144365061074"><ele>1063.0</ele><time>2026-04-12T09:50:22Z</time></trkpt><trkpt lat="37.84090952667434" lon="14.714273722363924"><ele>1060.5</ele><time>2026-04-12T09:50:23Z</time></trkpt><trkpt lat="37.84086084896547" lon="14.714429393476822"><ele>1058.0</ele><time>2026-04-12T09:50:24Z</time></trkpt><trkpt lat="37.84084665995871" lon="14.71460261468495"><ele>1055.5</ele><time>2026-04-12T09:50:25Z</time></trkpt><trkpt lat="37.84084496343624" lon="14.71478447649517"><ele>1053.0</ele><time>2026-04-12T09:50:26Z</time></trkpt><trkpt lat="37.840842231891656" lon="14.714959888813636"><ele>1053.0</ele><time>2026-04-12T09:50:27Z</time></trkpt><trkpt lat="37.84083734305049" lon="14.715118988045548"><ele>1053.0</ele><time>2026-04-12T09:50:28Z</time></trkpt><trkpt lat="37.840825574127756" lon="14.715273198559181"><ele>1053.0</ele><time>2026-04-12T09:50:29Z</time></trkpt><trkpt lat="37.8408067232638" lon="14.715422873969818"><ele>1053.0</ele><time>2026-04-12T09:50:30Z</time></trkpt><trkpt lat="37.84077102371359" lon="14.71556001427063"><ele>1055.0</ele><time>2026-04-12T09:50:31Z</time></trkpt><trkpt lat="37.84068994532382" lon="14.715679918009876"><ele>1057.0</ele><time>2026-04-12T09:50:32Z</time></trkpt><trkpt lat="37.84058709727828" lon="14.715782330086274"><ele>1059.0</ele><time>2026-04-12T09:50:33Z</time></trkpt><trkpt lat="37.84047830007417" lon="14.715898802434982"><ele>1061.0</ele><time>2026-04-12T09:50:34Z</time></trkpt><trkpt lat="37.84037750143992" lon="14.71602392165543"><ele>1062.5</ele><time>2026-04-12T09:50:35Z</time></trkpt><trkpt lat="37.84027077701687" lon="14.716150292395694"><ele>1064.0</ele><time>2026-04-12T09:50:36Z</time></trkpt><trkpt lat="37.84017276312022" lon="14.71628559100928"><ele>1065.5</ele><time>2026-04-12T09:50:37Z</time></trkpt><trkpt lat="37.84011354384834" lon="14.716436304791891"><ele>1067.0</ele><time>2026-04-12T09:50:38Z</time></trkpt><trkpt lat="37.84009593789458" lon="14.716599060295712"><ele>1066.0</ele><time>2026-04-12T09:50:39Z</time></trkpt><trkpt lat="37.84012698133096" lon="14.716772937135206"><ele>1065.0</ele><time>2026-04-12T09:50:40Z</time></trkpt><trkpt lat="37.84017927813977" lon="14.716948224154498"><ele>1064.0</ele><time>2026-04-12T09:50:41Z</time></trkpt><trkpt lat="37.84024158585087" lon="14.717123231009735"><ele>1063.0</ele><time>2026-04-12T09:50:42Z</time></trkpt><trkpt lat="37.84029900373292" lon="14.717326093249993"><ele>1063.0</ele><time>2026-04-12T09:50:43Z</time></trkpt><trkpt lat="37.84035549900426" lon="14.71752388196438"><ele>1063.0</ele><time>2026-04-12T09:50:44Z</time></trkpt><trkpt lat="37.84040726266234" lon="14.717723166562989"><ele>1063.0</ele><time>2026-04-12T09:50:45Z</time></trkpt><trkpt lat="37.8404151594804" lon="14.717927254703092"><ele>1062.5</ele><time>2026-04-12T09:50:46Z</time></trkpt><trkpt lat="37.840391507933205" lon="14.718116391833972"><ele>1062.0</ele><time>2026-04-12T09:50:47Z</time></trkpt><trkpt lat="37.84037713809829" lon="14.718305355389562"><ele>1061.5</ele><time>2026-04-12T09:50:48Z</time></trkpt><trkpt lat="37.84033512467247" lon="14.718478962185458"><ele>1061.0</ele><time>2026-04-12T09:50:49Z</time></trkpt><trkpt lat="37.84027383923884" lon="14.718628955887226"><ele>1062.5</ele><time>2026-04-12T09:50:50Z</time></trkpt><trkpt lat="37.840183592391796" lon="14.718740496458507"><ele>1064.0</ele><time>2026-04-12T09:50:51Z</time></trkpt><trkpt lat="37.840051548433884" lon="14.71876916834607"><ele>1065.5</ele><time>2026-04-12T09:50:52Z</time></trkpt><trkpt lat="37.83991584217901" lon="14.718818296040947"><ele>1067.0</ele><time>2026-04-12T09:50:53Z</time></trkpt><trkpt lat="37.83976929321143" lon="14.718860659580269"><ele>1059.3333333333335</ele><time>2026-04-12T09:50:54Z</time></trkpt><trkpt lat="37.83962002982906" lon="14.71891378603879"><ele>1051.6666666666667</ele><time>2026-04-12T09:50:55Z</time></trkpt><trkpt lat="37.839467826418925" lon="14.71897309288761"><ele>1044.0</ele><time>2026-04-12T09:50:56Z</time></trkpt><trkpt lat="37.83931307208044" lon="14.719025986793085"><ele>1041.0</ele><time>2026-04-12T09:50:57Z</time></trkpt><trkpt lat="37.83917376230649" lon="14.719076443076391"><ele>1038.0</ele><time>2026-04-12T09:50:58Z</time></trkpt><trkpt lat="37.83905793473553" lon="14.719132981165277"><ele>1035.0</ele><time>2026-04-12T09:50:59Z</time></trkpt><trkpt lat="37.838972756296" lon="14.719221026887094"><ele>1032.0</ele><time>2026-04-12T09:51:00Z</time></trkpt><trkpt lat="37.838926814523056" lon="14.719348716199656"><ele>1032.4</ele><time>2026-04-12T09:51:01Z</time></trkpt><trkpt lat="37.8389213135274" lon="14.719486584701576"><ele>1032.8000000000002</ele><time>2026-04-12T09:51:02Z</time></trkpt><trkpt lat="37.83893483980484" lon="14.719616867654022"><ele>1033.2</ele><time>2026-04-12T09:51:03Z</time></trkpt><trkpt lat="37.83895059528936" lon="14.719747665085633"><ele>1033.6000000000001</ele><time>2026-04-12T09:51:04Z</time></trkpt><trkpt lat="37.8389589296909" lon="14.719879204751082"><ele>1034.0</ele><time>2026-04-12T09:51:05Z</time></trkpt><trkpt lat="37.838960696928204" lon="14.720014110086245"><ele>1034.0</ele><time>2026-04-12T09:51:06Z</time></trkpt><trkpt lat="37.838957764364075" lon="14.720151579006474"><ele>1034.0</ele><time>2026-04-12T09:51:07Z</time></trkpt><trkpt lat="37.83894954776845" lon="14.7202876360222"><ele>1034.0</ele><time>2026-04-12T09:51:08Z</time></trkpt><trkpt lat="37.83892991453942" lon="14.720416465934239"><ele>1034.0</ele><time>2026-04-12T09:51:09Z</time></trkpt><trkpt lat="37.838884981063984" lon="14.720533284956758"><ele>1034.0</ele><time>2026-04-12T09:51:10Z</time></trkpt><trkpt lat="37.83881007888634" lon="14.720624236090462"><ele>1035.5</ele><time>2026-04-12T09:51:11Z</time></trkpt><trkpt lat="37.838701251363545" lon="14.72065066470841"><ele>1037.0</ele><time>2026-04-12T09:51:12Z</time></trkpt><trkpt lat="37.83859226928575" lon="14.720648564048325"><ele>1038.5</ele><time>2026-04-12T09:51:13Z</time></trkpt><trkpt lat="37.83847759270635" lon="14.720667592637598"><ele>1040.0</ele><time>2026-04-12T09:51:14Z</time></trkpt><trkpt lat="37.838363968758685" lon="14.72073123789255"><ele>1035.0</ele><time>2026-04-12T09:51:15Z</time></trkpt><trkpt lat="37.83826560104586" lon="14.720829108393131"><ele>1030.0</ele><time>2026-04-12T09:51:16Z</time></trkpt><trkpt lat="37.83819026974658" lon="14.720963183206562"><ele>1025.0</ele><time>2026-04-12T09:51:17Z</time></trkpt><trkpt lat="37.838145267601135" lon="14.721115848232078"><ele>1020.0</ele><time>2026-04-12T09:51:18Z</time></trkpt><trkpt lat="37.83814187958879" lon="14.721283683569304"><ele>1018.75</ele><time>2026-04-12T09:51:19Z</time></trkpt><trkpt lat="37.83817363796334" lon="14.721449167549812"><ele>1017.5</ele><time>2026-04-12T09:51:20Z</time></trkpt><trkpt lat="37.83824645486627" lon="14.72159767470529"><ele>1016.25</ele><time>2026-04-12T09:51:21Z</time></trkpt><trkpt lat="37.83835675714033" lon="14.721707333770462"><ele>1015.0</ele><time>2026-04-12T09:51:22Z</time></trkpt><trkpt lat="37.83848429800611" lon="14.72178231545092"><ele>1017.25</ele><time>2026-04-12T09:51:23Z</time></trkpt><trkpt lat="37.83859428227269" lon="14.72188533928887"><ele>1019.5</ele><time>2026-04-12T09:51:24Z</time></trkpt><trkpt lat="37.83865974869307" lon="14.722031742313282"><ele>1021.75</ele><time>2026-04-12T09:51:25Z</time></trkpt><trkpt lat="37.83869437335402" lon="14.722183731564277"><ele>1024.0</ele><time>2026-04-12T09:51:26Z</time></trkpt><trkpt lat="37.838713849330574" lon="14.722332101569943"><ele>1024.0</ele><time>2026-04-12T09:51:27Z</time></trkpt><trkpt lat="37.83870957960533" lon="14.722481348786511"><ele>1024.0</ele><time>2026-04-12T09:51:28Z</time></trkpt><trkpt lat="37.83870420868864" lon="14.722632077571118"><ele>1024.0</ele><time>2026-04-12T09:51:29Z</time></trkpt><trkpt lat="37.838702446060374" lon="14.722786255007007"><ele>1024.0</ele><time>2026-04-12T09:51:30Z</time></trkpt><trkpt lat="37.838702425853214" lon="14.722943227701048"><ele>1023.0</ele><time>2026-04-12T09:51:31Z</time></trkpt><trkpt lat="37.838689544436725" lon="14.723104956205368"><ele>1022.0</ele><time>2026-04-12T09:51:32Z</time></trkpt><trkpt lat="37.83865930477324" lon="14.723265947347343"><ele>1021.0</ele><time>2026-04-12T09:51:33Z</time></trkpt><trkpt lat="37.83862026977548" lon="14.723427430335335"><ele>1020.0</ele><time>2026-04-12T09:51:34Z</time></trkpt><trkpt lat="37.83858154762578" lon="14.723604790551128"><ele>1019.0</ele><time>2026-04-12T09:51:35Z</time></trkpt><trkpt lat="37.8385509048263" lon="14.723789359852528"><ele>1018.0</ele><time>2026-04-12T09:51:36Z</time></trkpt><trkpt lat="37.83852725546845" lon="14.723973108331611"><ele>1017.0</ele><time>2026-04-12T09:51:37Z</time></trkpt><trkpt lat="37.83851582148385" lon="14.724143987891"><ele>1016.0</ele><time>2026-04-12T09:51:38Z</time></trkpt><trkpt lat="37.83850250248213" lon="14.724284685818114"><ele>1015.5</ele><time>2026-04-12T09:51:39Z</time></trkpt><trkpt lat="37.83846103729222" lon="14.724404026181753"><ele>1015.0</ele><time>2026-04-12T09:51:40Z</time></trkpt><trkpt lat="37.83837910030342" lon="14.724490839935854"><ele>1014.5</ele><time>2026-04-12T09:51:41Z</time></trkpt><trkpt lat="37.83826579520027" lon="14.7245479398443"><ele>1014.0</ele><time>2026-04-12T09:51:42Z</time></trkpt><trkpt lat="37.83813769936567" lon="14.724591912324517"><ele>1014.0</ele><time>2026-04-12T09:51:43Z</time></trkpt><trkpt lat="37.837996199874354" lon="14.72464085723755"><ele>1014.0</ele><time>2026-04-12T09:51:44Z</time></trkpt><trkpt lat="37.83785161385623" lon="14.72469066012781"><ele>1014.0</ele><time>2026-04-12T09:51:45Z</time></trkpt><trkpt lat="37.837717418496226" lon="14.724736430129582"><ele>1014.0</ele><time>2026-04-12T09:51:46Z</time></trkpt><trkpt lat="37.83759026928801" lon="14.724762827194859"><ele>1010.8000000000001</ele><time>2026-04-12T09:51:47Z</time></trkpt><trkpt lat="37.83747586396626" lon="14.724729050136322"><ele>1007.6000000000001</ele><time>2026-04-12T09:51:48Z</time></trkpt><trkpt lat="37.83737142428828" lon="14.724673911472049"><ele>1004.4</ele><time>2026-04-12T09:51:49Z</time></trkpt><trkpt lat="37.83728174281977" lon="14.724596356998589"><ele>1001.2</ele><time>2026-04-12T09:51:50Z</time></trkpt><trkpt lat="37.837194979353384" lon="14.724567854853005"><ele>998.0</ele><time>2026-04-12T09:51:51Z</time></trkpt><trkpt lat="37.8371125650075" lon="14.724596867828106"><ele>998.0</ele><time>2026-04-12T09:51:52Z</time></trkpt><trkpt lat="37.83705877968561" lon="14.724686803378043"><ele>998.0</ele><time>2026-04-12T09:51:53Z</time></trkpt><trkpt lat="37.83705073355708" lon="14.724806014843645"><ele>998.0</ele><time>2026-04-12T09:51:54Z</time></trkpt><trkpt lat="37.837070624642166" lon="14.724935245169668"><ele>998.0</ele><time>2026-04-12T09:51:55Z</time></trkpt><trkpt lat="37.83710262115516" lon="14.725076298266586"><ele>998.0</ele><time>2026-04-12T09:51:56Z</time></trkpt><trkpt lat="37.83713600973028" lon="14.725235089452118"><ele>998.5999999999999</ele><time>2026-04-12T09:51:57Z</time></trkpt><trkpt lat="37.83718145263068" lon="14.725388573527955"><ele>999.1999999999999</ele><time>2026-04-12T09:51:58Z</time></trkpt><trkpt lat="37.837229993730865" lon="14.725517795917318"><ele>999.8</ele><time>2026-04-12T09:51:59Z</time></trkpt><trkpt lat="37.83726154171861" lon="14.725628535058078"><ele>1000.4</ele><time>2026-04-12T09:52:00Z</time></trkpt><trkpt lat="37.83725595417493" lon="14.725746811472554"><ele>1001.0</ele><time>2026-04-12T09:52:01Z</time></trkpt><trkpt lat="37.83719257769534" lon="14.725847335957258"><ele>1001.0</ele><time>2026-04-12T09:52:02Z</time></trkpt><trkpt lat="37.83709936184312" lon="14.725912891649637"><ele>1001.0</ele><time>2026-04-12T09:52:03Z</time></trkpt><trkpt lat="37.83699838033742" lon="14.725976178148489"><ele>1001.0</ele><time>2026-04-12T09:52:04Z</time></trkpt><trkpt lat="37.8368947769306" lon="14.726047784552362"><ele>1001.0</ele><time>2026-04-12T09:52:05Z</time></trkpt><trkpt lat="37.83678180506632" lon="14.726127158095066"><ele>1000.0</ele><time>2026-04-12T09:52:06Z</time></trkpt><trkpt lat="37.836655805722614" lon="14.726198993074513"><ele>999.0</ele><time>2026-04-12T09:52:07Z</time></trkpt><trkpt lat="37.83652658840125" lon="14.726248176314671"><ele>998.0</ele><time>2026-04-12T09:52:08Z</time></trkpt><trkpt lat="37.8363941909965" lon="14.726259603798859"><ele>997.0</ele><time>2026-04-12T09:52:09Z</time></trkpt><trkpt lat="37.83626547119127" lon="14.72623698700556"><ele>997.0</ele><time>2026-04-12T09:52:10Z</time></trkpt><trkpt lat="37.83615024227951" lon="14.726162065311055"><ele>997.0</ele><time>2026-04-12T09:52:11Z</time></trkpt><trkpt lat="37.836044819294706" lon="14.726072660180705"><ele>997.0</ele><time>2026-04-12T09:52:12Z</time></trkpt><trkpt lat="37.835918364716115" lon="14.726057502605016"><ele>997.0</ele><time>2026-04-12T09:52:13Z</time></trkpt><trkpt lat="37.83578528117786" lon="14.72610131773865"><ele>994.0</ele><time>2026-04-12T09:52:14Z</time></trkpt><trkpt lat="37.835660307686034" lon="14.72619382764886"><ele>991.0</ele><time>2026-04-12T09:52:15Z</time></trkpt><trkpt lat="37.835538669345105" lon="14.726308949365656"><ele>988.0</ele><time>2026-04-12T09:52:16Z</time></trkpt><trkpt lat="37.835410509219415" lon="14.726430997103067"><ele>988.0</ele><time>2026-04-12T09:52:17Z</time></trkpt><trkpt lat="37.83527810024118" lon="14.726551283816361"><ele>988.0</ele><time>2026-04-12T09:52:18Z</time></trkpt><trkpt lat="37.83514361303051" lon="14.72666979813925"><ele>988.0</ele><time>2026-04-12T09:52:19Z</time></trkpt><trkpt lat="37.83500988642341" lon="14.726787928089154"><ele>987.3333333333333</ele><time>2026-04-12T09:52:20Z</time></trkpt><trkpt lat="37.834874947923886" lon="14.726899021314445"><ele>986.6666666666667</ele><time>2026-04-12T09:52:21Z</time></trkpt><trkpt lat="37.83473162995982" lon="14.726999704304793"><ele>986.0</ele><time>2026-04-12T09:52:22Z</time></trkpt><trkpt lat="37.83457290201047" lon="14.727052919707996"><ele>986.0</ele><time>2026-04-12T09:52:23Z</time></trkpt><trkpt lat="37.83440803109888" lon="14.727053290072718"><ele>986.0</ele><time>2026-04-12T09:52:24Z</time></trkpt><trkpt lat="37.834248410870536" lon="14.726999594644843"><ele>986.0</ele><time>2026-04-12T09:52:25Z</time></trkpt><trkpt lat="37.834089143059735" lon="14.726941708142183"><ele>982.6666666666667</ele><time>2026-04-12T09:52:26Z</time></trkpt><trkpt lat="37.833924543469685" lon="14.726953592800848"><ele>979.3333333333333</ele><time>2026-04-12T09:52:27Z</time></trkpt><trkpt lat="37.8337672404377" lon="14.727017632604205"><ele>976.0</ele><time>2026-04-12T09:52:28Z</time></trkpt><trkpt lat="37.83362150200116" lon="14.727125217634768"><ele>976.0</ele><time>2026-04-12T09:52:29Z</time></trkpt><trkpt lat="37.83349720789011" lon="14.727274468419928"><ele>976.0</ele><time>2026-04-12T09:52:30Z</time></trkpt><trkpt lat="37.833406703613946" lon="14.727462950767615"><ele>976.0</ele><time>2026-04-12T09:52:31Z</time></trkpt><trkpt lat="37.83335165899285" lon="14.727670606516643"><ele>971.6666666666666</ele><time>2026-04-12T09:52:32Z</time></trkpt><trkpt lat="37.833316965795866" lon="14.727876927677341"><ele>967.3333333333333</ele><time>2026-04-12T09:52:33Z</time></trkpt><trkpt lat="37.83324674553228" lon="14.728063675072296"><ele>963.0</ele><time>2026-04-12T09:52:34Z</time></trkpt><trkpt lat="37.833131749430024" lon="14.728203394201497"><ele>963.0</ele><time>2026-04-12T09:52:35Z</time></trkpt><trkpt lat="37.83299266129713" lon="14.728290281445181"><ele>963.0</ele><time>2026-04-12T09:52:36Z</time></trkpt><trkpt lat="37.83285308426708" lon="14.728361610374204"><ele>963.0</ele><time>2026-04-12T09:52:37Z</time></trkpt><trkpt lat="37.832704495045995" lon="14.728441264844225"><ele>961.3333333333333</ele><time>2026-04-12T09:52:38Z</time></trkpt><trkpt lat="37.83255545195241" lon="14.728536133491499"><ele>959.6666666666666</ele><time>2026-04-12T09:52:39Z</time></trkpt><trkpt lat="37.832414254174566" lon="14.728656518255969"><ele>958.0</ele><time>2026-04-12T09:52:40Z</time></trkpt><trkpt lat="37.83228822958833" lon="14.728809996626206"><ele>958.0</ele><time>2026-04-12T09:52:41Z</time></trkpt><trkpt lat="37.83218345609802" lon="14.72899801701062"><ele>958.0</ele><time>2026-04-12T09:52:42Z</time></trkpt><trkpt lat="37.83209217494392" lon="14.729208430557856"><ele>958.0</ele><time>2026-04-12T09:52:43Z</time></trkpt><trkpt lat="37.83200464598644" lon="14.72943532928817"><ele>959.6666666666666</ele><time>2026-04-12T09:52:44Z</time></trkpt><trkpt lat="37.83192326530353" lon="14.72965956698562"><ele>961.3333333333333</ele><time>2026-04-12T09:52:45Z</time></trkpt><trkpt lat="37.831830419477036" lon="14.729893622621727"><ele>963.0</ele><time>2026-04-12T09:52:46Z</time></trkpt><trkpt lat="37.83173387018137" lon="14.73013203323138"><ele>959.3333333333333</ele><time>2026-04-12T09:52:47Z</time></trkpt><trkpt lat="37.83163018967118" lon="14.730367039585353"><ele>955.6666666666666</ele><time>2026-04-12T09:52:48Z</time></trkpt><trkpt lat="37.83152526722709" lon="14.730584821229062"><ele>952.0</ele><time>2026-04-12T09:52:49Z</time></trkpt><trkpt lat="37.83141702380228" lon="14.730789979134158"><ele>952.0</ele><time>2026-04-12T09:52:50Z</time></trkpt><trkpt lat="37.83131188986231" lon="14.730985364162024"><ele>952.0</ele><time>2026-04-12T09:52:51Z</time></trkpt><trkpt lat="37.831213271108176" lon="14.731169506719745"><ele>952.0</ele><time>2026-04-12T09:52:52Z</time></trkpt><trkpt lat="37.831124661935306" lon="14.731338894516714"><ele>953.5</ele><time>2026-04-12T09:52:53Z</time></trkpt><trkpt lat="37.83103868247638" lon="14.73148033275509"><ele>955.0</ele><time>2026-04-12T09:52:54Z</time></trkpt><trkpt lat="37.83093674453722" lon="14.731584035721927"><ele>956.5</ele><time>2026-04-12T09:52:55Z</time></trkpt><trkpt lat="37.8308081564948" lon="14.731632165361646"><ele>958.0</ele><time>2026-04-12T09:52:56Z</time></trkpt><trkpt lat="37.83067006712282" lon="14.731620248387348"><ele>950.6666666666666</ele><time>2026-04-12T09:52:57Z</time></trkpt><trkpt lat="37.83052205271503" lon="14.731570448350773"><ele>943.3333333333333</ele><time>2026-04-12T09:52:58Z</time></trkpt><trkpt lat="37.8303698375434" lon="14.731515909101171"><ele>936.0</ele><time>2026-04-12T09:52:59Z</time></trkpt><trkpt lat="37.83021868445762" lon="14.731455458164458"><ele>934.25</ele><time>2026-04-12T09:53:00Z</time></trkpt><trkpt lat="37.83008139326566" lon="14.731389116161248"><ele>932.5</ele><time>2026-04-12T09:53:01Z</time></trkpt><trkpt lat="37.829962096406376" lon="14.731304094718855"><ele>930.75</ele><time>2026-04-12T09:53:02Z</time></trkpt><trkpt lat="37.829861250196856" lon="14.731247066174479"><ele>929.0</ele><time>2026-04-12T09:53:03Z</time></trkpt><trkpt lat="37.829749664856706" lon="14.731244509426478"><ele>929.0</ele><time>2026-04-12T09:53:04Z</time></trkpt><trkpt lat="37.82965095028298" lon="14.73131923762999"><ele>929.0</ele><time>2026-04-12T09:53:05Z</time></trkpt><trkpt lat="37.82958552178695" lon="14.731445829836474"><ele>929.0</ele><time>2026-04-12T09:53:06Z</time></trkpt><trkpt lat="37.82954795573434" lon="14.731600996474839"><ele>929.0</ele><time>2026-04-12T09:53:07Z</time></trkpt><trkpt lat="37.82952830296774" lon="14.731773267291898"><ele>926.5</ele><time>2026-04-12T09:53:08Z</time></trkpt><trkpt lat="37.82954609426167" lon="14.731948219258008"><ele>924.0</ele><time>2026-04-12T09:53:09Z</time></trkpt><trkpt lat="37.82961417838336" lon="14.732097198879911"><ele>921.5</ele><time>2026-04-12T09:53:10Z</time></trkpt><trkpt lat="37.829724898757604" lon="14.73219265921374"><ele>919.0</ele><time>2026-04-12T09:53:11Z</time></trkpt><trkpt lat="37.82984975508322" lon="14.73222967926532"><ele>919.0</ele><time>2026-04-12T09:53:12Z</time></trkpt><trkpt lat="37.829971953027496" lon="14.732240111073375"><ele>919.0</ele><time>2026-04-12T09:53:13Z</time></trkpt><trkpt lat="37.830085267202634" lon="14.732266251932089"><ele>919.0</ele><time>2026-04-12T09:53:14Z</time></trkpt><trkpt lat="37.830189258086676" lon="14.73232500681051"><ele>919.0</ele><time>2026-04-12T09:53:15Z</time></trkpt><trkpt lat="37.83026185691957" lon="14.732433412688009"><ele>921.75</ele><time>2026-04-12T09:53:16Z</time></trkpt><trkpt lat="37.83030306627509" lon="14.732573625635798"><ele>924.5</ele><time>2026-04-12T09:53:17Z</time></trkpt><trkpt lat="37.83028334272007" lon="14.732738951190749"><ele>927.25</ele><time>2026-04-12T09:53:18Z</time></trkpt><trkpt lat="37.830292910055405" lon="14.732917171889797"><ele>930.0</ele><time>2026-04-12T09:53:19Z</time></trkpt><trkpt lat="37.83029376450239" lon="14.733107056272722"><ele>930.0</ele><time>2026-04-12T09:53:20Z</time></trkpt><trkpt lat="37.830303780501616" lon="14.733300094198972"><ele>930.0</ele><time>2026-04-12T09:53:21Z</time></trkpt><trkpt lat="37.830309053101004" lon="14.73348929176234"><ele>930.0</ele><time>2026-04-12T09:53:22Z</time></trkpt><trkpt lat="37.83030183536538" lon="14.733675786817718"><ele>929.3333333333333</ele><time>2026-04-12T09:53:23Z</time></trkpt><trkpt lat="37.83026663206624" lon="14.733868784254435"><ele>928.6666666666666</ele><time>2026-04-12T09:53:24Z</time></trkpt><trkpt lat="37.83019764587549" lon="14.73405409548339"><ele>928.0</ele><time>2026-04-12T09:53:25Z</time></trkpt><trkpt lat="37.83012138825598" lon="14.734249248104993"><ele>923.0</ele><time>2026-04-12T09:53:26Z</time></trkpt><trkpt lat="37.83005341301378" lon="14.73446547740007"><ele>918.0</ele><time>2026-04-12T09:53:27Z</time></trkpt><trkpt lat="37.82996015343895" lon="14.734680519761616"><ele>913.0</ele><time>2026-04-12T09:53:28Z</time></trkpt><trkpt lat="37.829852162404315" lon="14.734881490576358"><ele>913.0</ele><time>2026-04-12T09:53:29Z</time></trkpt><trkpt lat="37.82974135672481" lon="14.735072824432505"><ele>913.0</ele><time>2026-04-12T09:53:30Z</time></trkpt><trkpt lat="37.829630155510266" lon="14.73525623269529"><ele>913.0</ele><time>2026-04-12T09:53:31Z</time></trkpt><trkpt lat="37.8295020167293" lon="14.735413773441223"><ele>915.6666666666666</ele><time>2026-04-12T09:53:32Z</time></trkpt><trkpt lat="37.82935637241183" lon="14.73553265803253"><ele>918.3333333333333</ele><time>2026-04-12T09:53:33Z</time></trkpt><trkpt lat="37.82920139700241" lon="14.735617976204553"><ele>921.0</ele><time>2026-04-12T09:53:34Z</time></trkpt><trkpt lat="37.82904806690715" lon="14.735696493433766"><ele>917.3333333333333</ele><time>2026-04-12T09:53:35Z</time></trkpt><trkpt lat="37.828900450528195" lon="14.735793543784068"><ele>913.6666666666666</ele><time>2026-04-12T09:53:36Z</time></trkpt><trkpt lat="37.828771986339405" lon="14.735937100589938"><ele>910.0</ele><time>2026-04-12T09:53:37Z</time></trkpt><trkpt lat="37.82866250625152" lon="14.73610962299662"><ele>910.0</ele><time>2026-04-12T09:53:38Z</time></trkpt><trkpt lat="37.828573671304795" lon="14.736311174197239"><ele>910.0</ele><time>2026-04-12T09:53:39Z</time></trkpt><trkpt lat="37.82848258955797" lon="14.736516259878856"><ele>910.0</ele><time>2026-04-12T09:53:40Z</time></trkpt><trkpt lat="37.82838623103604" lon="14.736703479877438"><ele>904.0</ele><time>2026-04-12T09:53:41Z</time></trkpt><trkpt lat="37.828295050375196" lon="14.736882259709796"><ele>898.0</ele><time>2026-04-12T09:53:42Z</time></trkpt><trkpt lat="37.82822184402744" lon="14.73707063595126"><ele>892.0</ele><time>2026-04-12T09:53:43Z</time></trkpt><trkpt lat="37.828171204017494" lon="14.737267572952844"><ele>891.6666666666666</ele><time>2026-04-12T09:53:44Z</time></trkpt><trkpt lat="37.82814773191328" lon="14.73747657366286"><ele>891.3333333333333</ele><time>2026-04-12T09:53:45Z</time></trkpt><trkpt lat="37.82815544518859" lon="14.737695875869603"><ele>891.0</ele><time>2026-04-12T09:53:46Z</time></trkpt><trkpt lat="37.8281623393923" lon="14.73791810891155"><ele>888.6666666666667</ele><time>2026-04-12T09:53:47Z</time></trkpt><trkpt lat="37.82815297113534" lon="14.738130351861571"><ele>886.3333333333334</ele><time>2026-04-12T09:53:48Z</time></trkpt><trkpt lat="37.828150614865216" lon="14.738327878327308"><ele>884.0</ele><time>2026-04-12T09:53:49Z</time></trkpt><trkpt lat="37.82817663450419" lon="14.738487304735889"><ele>883.0</ele><time>2026-04-12T09:53:50Z</time></trkpt><trkpt lat="37.82824510588237" lon="14.738622092858815"><ele>882.0</ele><time>2026-04-12T09:53:51Z</time></trkpt><trkpt lat="37.82835786848061" lon="14.738717947818904"><ele>881.0</ele><time>2026-04-12T09:53:52Z</time></trkpt><trkpt lat="37.82849433595011" lon="14.738768624240592"><ele>880.0</ele><time>2026-04-12T09:53:53Z</time></trkpt><trkpt lat="37.82864068816622" lon="14.73879401403524"><ele>880.0</ele><time>2026-04-12T09:53:54Z</time></trkpt><trkpt lat="37.828788635543205" lon="14.738824290242166"><ele>880.0</ele><time>2026-04-12T09:53:55Z</time></trkpt><trkpt lat="37.82893899160832" lon="14.738871423767813"><ele>880.0</ele><time>2026-04-12T09:53:56Z</time></trkpt><trkpt lat="37.82908097640609" lon="14.738956837973268"><ele>880.0</ele><time>2026-04-12T09:53:57Z</time></trkpt><trkpt lat="37.82920527371294" lon="14.739076496030155"><ele>880.0</ele><time>2026-04-12T09:53:58Z</time></trkpt><trkpt lat="37.82930255445473" lon="14.739235827420902"><ele>880.0</ele><time>2026-04-12T09:53:59Z</time></trkpt><trkpt lat="37.82935773466737" lon="14.739435745620785"><ele>884.0</ele><time>2026-04-12T09:54:00Z</time></trkpt><trkpt lat="37.829380401226985" lon="14.739648406375128"><ele>888.0</ele><time>2026-04-12T09:54:01Z</time></trkpt><trkpt lat="37.829389331574205" lon="14.739869743272948"><ele>892.0</ele><time>2026-04-12T09:54:02Z</time></trkpt><trkpt lat="37.829407650187974" lon="14.740098082686863"><ele>890.3333333333333</ele><time>2026-04-12T09:54:03Z</time></trkpt><trkpt lat="37.82943611104798" lon="14.740333446281"><ele>888.6666666666667</ele><time>2026-04-12T09:54:04Z</time></trkpt><trkpt lat="37.82946495697967" lon="14.740570194249871"><ele>887.0</ele><time>2026-04-12T09:54:05Z</time></trkpt><trkpt lat="37.82949250440115" lon="14.740810820875692"><ele>886.3333333333334</ele><time>2026-04-12T09:54:06Z</time></trkpt><trkpt lat="37.82951801460403" lon="14.74105049221249"><ele>885.6666666666667</ele><time>2026-04-12T09:54:07Z</time></trkpt><trkpt lat="37.82953028784389" lon="14.741284114466007"><ele>885.0</ele><time>2026-04-12T09:54:08Z</time></trkpt><trkpt lat="37.82950831221982" lon="14.741509382777696"><ele>885.0</ele><time>2026-04-12T09:54:09Z</time></trkpt><trkpt lat="37.82943860279525" lon="14.741719864665802"><ele>885.0</ele><time>2026-04-12T09:54:10Z</time></trkpt><trkpt lat="37.82936158632262" lon="14.741931243276548"><ele>885.0</ele><time>2026-04-12T09:54:11Z</time></trkpt><trkpt lat="37.82928948852037" lon="14.742150780789895"><ele>879.0</ele><time>2026-04-12T09:54:12Z</time></trkpt><trkpt lat="37.829245569827876" lon="14.742387397432594"><ele>873.0</ele><time>2026-04-12T09:54:13Z</time></trkpt><trkpt lat="37.82922725753225" lon="14.742633285682293"><ele>867.0</ele><time>2026-04-12T09:54:14Z</time></trkpt><trkpt lat="37.82923034859187" lon="14.742874362747216"><ele>866.3333333333333</ele><time>2026-04-12T09:54:15Z</time></trkpt><trkpt lat="37.829248277246975" lon="14.743107027906058"><ele>865.6666666666666</ele><time>2026-04-12T09:54:16Z</time></trkpt><trkpt lat="37.8292835090335" lon="14.743325452272453"><ele>865.0</ele><time>2026-04-12T09:54:17Z</time></trkpt><trkpt lat="37.82935592963209" lon="14.743523940360506"><ele>869.3333333333333</ele><time>2026-04-12T09:54:18Z</time></trkpt><trkpt lat="37.829460091939914" lon="14.74369265445978"><ele>873.6666666666667</ele><time>2026-04-12T09:54:19Z</time></trkpt><trkpt lat="37.82956242522667" lon="14.743856244569946"><ele>878.0</ele><time>2026-04-12T09:54:20Z</time></trkpt><trkpt lat="37.82964546525153" lon="14.744015274230323"><ele>878.0</ele><time>2026-04-12T09:54:21Z</time></trkpt><trkpt lat="37.829708607604616" lon="14.74417058887206"><ele>878.0</ele><time>2026-04-12T09:54:22Z</time></trkpt><trkpt lat="37.829734636500376" lon="14.744340325733578"><ele>878.0</ele><time>2026-04-12T09:54:23Z</time></trkpt><trkpt lat="37.829705290608615" lon="14.74449678987748"><ele>878.0</ele><time>2026-04-12T09:54:24Z</time></trkpt><trkpt lat="37.82964918726703" lon="14.744661131784252"><ele>878.3333333333334</ele><time>2026-04-12T09:54:25Z</time></trkpt><trkpt lat="37.829606448335795" lon="14.744837594591992"><ele>878.6666666666667</ele><time>2026-04-12T09:54:26Z</time></trkpt><trkpt lat="37.829557247741064" lon="14.745026280556461"><ele>879.0</ele><time>2026-04-12T09:54:27Z</time></trkpt><trkpt lat="37.82950873898458" lon="14.745221882920584"><ele>879.0</ele><time>2026-04-12T09:54:28Z</time></trkpt><trkpt lat="37.829465755883504" lon="14.745420813921756"><ele>879.0</ele><time>2026-04-12T09:54:29Z</time></trkpt><trkpt lat="37.82942595509658" lon="14.745588716065887"><ele>879.0</ele><time>2026-04-12T09:54:30Z</time></trkpt><trkpt lat="37.82942171341132" lon="14.745767909612594"><ele>879.0</ele><time>2026-04-12T09:54:31Z</time></trkpt><trkpt lat="37.82945827595063" lon="14.74594596437996"><ele>874.6666666666667</ele><time>2026-04-12T09:54:32Z</time></trkpt><trkpt lat="37.82952123367433" lon="14.746121837052597"><ele>870.3333333333334</ele><time>2026-04-12T09:54:33Z</time></trkpt><trkpt lat="37.829610680914556" lon="14.746290176702361"><ele>866.0</ele><time>2026-04-12T09:54:34Z</time></trkpt><trkpt lat="37.829693516690845" lon="14.746466081274336"><ele>866.0</ele><time>2026-04-12T09:54:35Z</time></trkpt><trkpt lat="37.829787682204454" lon="14.74663883485228"><ele>866.0</ele><time>2026-04-12T09:54:36Z</time></trkpt><trkpt lat="37.82992390589316" lon="14.746773476146068"><ele>866.0</ele><time>2026-04-12T09:54:37Z</time></trkpt><trkpt lat="37.83006999575825" lon="14.74689614155846"><ele>864.3333333333334</ele><time>2026-04-12T09:54:38Z</time></trkpt><trkpt lat="37.83021899755419" lon="14.747020679871348"><ele>862.6666666666667</ele><time>2026-04-12T09:54:39Z</time></trkpt><trkpt lat="37.830354670390214" lon="14.747145740756855"><ele>861.0</ele><time>2026-04-12T09:54:40Z</time></trkpt><trkpt lat="37.8304791831094" lon="14.747274334037165"><ele>861.0</ele><time>2026-04-12T09:54:41Z</time></trkpt><trkpt lat="37.83058199059403" lon="14.747428220739124"><ele>861.0</ele><time>2026-04-12T09:54:42Z</time></trkpt><trkpt lat="37.83066845371547" lon="14.747604589683753"><ele>861.0</ele><time>2026-04-12T09:54:43Z</time></trkpt><trkpt lat="37.830745635774946" lon="14.747791216966341"><ele>859.0</ele><time>2026-04-12T09:54:44Z</time></trkpt><trkpt lat="37.83081457845888" lon="14.747988283864789"><ele>857.0</ele><time>2026-04-12T09:54:45Z</time></trkpt><trkpt lat="37.830862681085925" lon="14.748201985143298"><ele>855.0</ele><time>2026-04-12T09:54:46Z</time></trkpt><trkpt lat="37.83087985494218" lon="14.748427827089467"><ele>854.6666666666667</ele><time>2026-04-12T09:54:47Z</time></trkpt><trkpt lat="37.830873266459015" lon="14.748659841526365"><ele>854.3333333333334</ele><time>2026-04-12T09:54:48Z</time></trkpt><trkpt lat="37.830849579257034" lon="14.748893960503613"><ele>854.0</ele><time>2026-04-12T09:54:49Z</time></trkpt><trkpt lat="37.83080740258204" lon="14.749112260796807"><ele>854.0</ele><time>2026-04-12T09:54:50Z</time></trkpt><trkpt lat="37.83074229813461" lon="14.749319533248443"><ele>854.0</ele><time>2026-04-12T09:54:51Z</time></trkpt><trkpt lat="37.83064113036689" lon="14.749511789930988"><ele>854.0</ele><time>2026-04-12T09:54:52Z</time></trkpt><trkpt lat="37.830528161813724" lon="14.74968164237354"><ele>853.75</ele><time>2026-04-12T09:54:53Z</time></trkpt><trkpt lat="37.830433342721676" lon="14.74985332827049"><ele>853.5</ele><time>2026-04-12T09:54:54Z</time></trkpt><trkpt lat="37.83039024696479" lon="14.75002009680321"><ele>853.25</ele><time>2026-04-12T09:54:55Z</time></trkpt><trkpt lat="37.830392624340845" lon="14.750182804180582"><ele>853.0</ele><time>2026-04-12T09:54:56Z</time></trkpt><trkpt lat="37.83044682505094" lon="14.75033737898534"><ele>849.6666666666666</ele><time>2026-04-12T09:54:57Z</time></trkpt><trkpt lat="37.83054455718183" lon="14.750480394119265"><ele>846.3333333333333</ele><time>2026-04-12T09:54:58Z</time></trkpt><trkpt lat="37.8306608801587" lon="14.750619083066432"><ele>843.0</ele><time>2026-04-12T09:54:59Z</time></trkpt><trkpt lat="37.83077824419158" lon="14.750773864283504"><ele>843.0</ele><time>2026-04-12T09:55:00Z</time></trkpt><trkpt lat="37.83091385021702" lon="14.750926256754923"><ele>843.0</ele><time>2026-04-12T09:55:01Z</time></trkpt><trkpt lat="37.83106824475006" lon="14.751056516868774"><ele>843.0</ele><time>2026-04-12T09:55:02Z</time></trkpt><trkpt lat="37.831222193156265" lon="14.751180547575148"><ele>841.3333333333333</ele><time>2026-04-12T09:55:03Z</time></trkpt><trkpt lat="37.8313716020122" lon="14.751297163513703"><ele>839.6666666666666</ele><time>2026-04-12T09:55:04Z</time></trkpt><trkpt lat="37.83151555496372" lon="14.751417066982787"><ele>838.0</ele><time>2026-04-12T09:55:05Z</time></trkpt><trkpt lat="37.83163888954339" lon="14.751563726682038"><ele>838.0</ele><time>2026-04-12T09:55:06Z</time></trkpt><trkpt lat="37.83172373268254" lon="14.751752876046229"><ele>838.0</ele><time>2026-04-12T09:55:07Z</time></trkpt><trkpt lat="37.83176199111479" lon="14.751970262818809"><ele>838.0</ele><time>2026-04-12T09:55:08Z</time></trkpt><trkpt lat="37.83179434357749" lon="14.752191528550519"><ele>841.3333333333333</ele><time>2026-04-12T09:55:09Z</time></trkpt><trkpt lat="37.831838706524124" lon="14.752420389384966"><ele>844.6666666666667</ele><time>2026-04-12T09:55:10Z</time></trkpt><trkpt lat="37.831883052376945" lon="14.752652359622994"><ele>848.0</ele><time>2026-04-12T09:55:11Z</time></trkpt><trkpt lat="37.83192190823645" lon="14.75287705907673"><ele>848.0</ele><time>2026-04-12T09:55:12Z</time></trkpt><trkpt lat="37.83196479365997" lon="14.753080167368466"><ele>848.0</ele><time>2026-04-12T09:55:13Z</time></trkpt><trkpt lat="37.8320388112743" lon="14.753254736179032"><ele>848.0</ele><time>2026-04-12T09:55:14Z</time></trkpt><trkpt lat="37.832154269359" lon="14.753390329521043"><ele>848.0</ele><time>2026-04-12T09:55:15Z</time></trkpt><trkpt lat="37.832298181643075" lon="14.753479183737646"><ele>848.0</ele><time>2026-04-12T09:55:16Z</time></trkpt><trkpt lat="37.83244375739381" lon="14.753557451844278"><ele>848.0</ele><time>2026-04-12T09:55:17Z</time></trkpt><trkpt lat="37.832562449176386" lon="14.753674921967312"><ele>849.0</ele><time>2026-04-12T09:55:18Z</time></trkpt><trkpt lat="37.83263938232313" lon="14.753829334637283"><ele>850.0</ele><time>2026-04-12T09:55:19Z</time></trkpt><trkpt lat="37.8326815687916" lon="14.754004706172234"><ele>851.0</ele><time>2026-04-12T09:55:20Z</time></trkpt><trkpt lat="37.83270906850785" lon="14.75420500517712"><ele>850.6666666666667</ele><time>2026-04-12T09:55:21Z</time></trkpt><trkpt lat="37.832740351229546" lon="14.754416811102168"><ele>850.3333333333333</ele><time>2026-04-12T09:55:22Z</time></trkpt><trkpt lat="37.83275844961196" lon="14.754641752875639"><ele>850.0</ele><time>2026-04-12T09:55:23Z</time></trkpt><trkpt lat="37.8327745664993" lon="14.75487368882563"><ele>850.0</ele><time>2026-04-12T09:55:24Z</time></trkpt><trkpt lat="37.832808739803504" lon="14.755106977770568"><ele>850.0</ele><time>2026-04-12T09:55:25Z</time></trkpt><trkpt lat="37.832863221554945" lon="14.75534027638241"><ele>850.0</ele><time>2026-04-12T09:55:26Z</time></trkpt><trkpt lat="37.8329473102882" lon="14.755565641083406"><ele>845.3333333333333</ele><time>2026-04-12T09:55:27Z</time></trkpt><trkpt lat="37.83303264757656" lon="14.755781535408438"><ele>840.6666666666667</ele><time>2026-04-12T09:55:28Z</time></trkpt><trkpt lat="37.833105127148684" lon="14.755985021530751"><ele>836.0</ele><time>2026-04-12T09:55:29Z</time></trkpt><trkpt lat="37.83315775663809" lon="14.756184790882866"><ele>834.0</ele><time>2026-04-12T09:55:30Z</time></trkpt><trkpt lat="37.83317039811693" lon="14.756386222466196"><ele>832.0</ele><time>2026-04-12T09:55:31Z</time></trkpt><trkpt lat="37.83313915868238" lon="14.7565858543378"><ele>830.0</ele><time>2026-04-12T09:55:32Z</time></trkpt><trkpt lat="37.83309889374489" lon="14.75679998660603"><ele>830.6666666666667</ele><time>2026-04-12T09:55:33Z</time></trkpt><trkpt lat="37.833061478472544" lon="14.7570270645537"><ele>831.3333333333333</ele><time>2026-04-12T09:55:34Z</time></trkpt><trkpt lat="37.83302237094365" lon="14.757258507577621"><ele>832.0</ele><time>2026-04-12T09:55:35Z</time></trkpt><trkpt lat="37.83297444213805" lon="14.757504309375854"><ele>832.3333333333333</ele><time>2026-04-12T09:55:36Z</time></trkpt><trkpt lat="37.83292102009135" lon="14.757749695465309"><ele>832.6666666666667</ele><time>2026-04-12T09:55:37Z</time></trkpt><trkpt lat="37.8328745029274" lon="14.757982821095819"><ele>833.0</ele><time>2026-04-12T09:55:38Z</time></trkpt><trkpt lat="37.83283627318118" lon="14.758205395537132"><ele>833.0</ele><time>2026-04-12T09:55:39Z</time></trkpt><trkpt lat="37.83281910024564" lon="14.758424660244486"><ele>833.0</ele><time>2026-04-12T09:55:40Z</time></trkpt><trkpt lat="37.83283883944186" lon="14.758641054819737"><ele>833.0</ele><time>2026-04-12T09:55:41Z</time></trkpt><trkpt lat="37.832891653418216" lon="14.758854750022456"><ele>832.6666666666667</ele><time>2026-04-12T09:55:42Z</time></trkpt><trkpt lat="37.83295233102984" lon="14.759070280249812"><ele>832.3333333333333</ele><time>2026-04-12T09:55:43Z</time></trkpt><trkpt lat="37.832988588935315" lon="14.759260213842254"><ele>832.0</ele><time>2026-04-12T09:55:44Z</time></trkpt><trkpt lat="37.83301364978488" lon="14.759426686072167"><ele>832.0</ele><time>2026-04-12T09:55:45Z</time></trkpt><trkpt lat="37.83300483615974" lon="14.759587363346723"><ele>832.0</ele><time>2026-04-12T09:55:46Z</time></trkpt><trkpt lat="37.83294279501662" lon="14.759736200545502"><ele>832.0</ele><time>2026-04-12T09:55:47Z</time></trkpt><trkpt lat="37.83283990963782" lon="14.759833494425019"><ele>832.0</ele><time>2026-04-12T09:55:48Z</time></trkpt><trkpt lat="37.832733885084714" lon="14.759943592602477"><ele>828.5</ele><time>2026-04-12T09:55:49Z</time></trkpt><trkpt lat="37.83261765102299" lon="14.760028437682475"><ele>825.0</ele><time>2026-04-12T09:55:50Z</time></trkpt><trkpt lat="37.83251450604871" lon="14.760122290281704"><ele>821.5</ele><time>2026-04-12T09:55:51Z</time></trkpt><trkpt lat="37.83241883570235" lon="14.760238606012646"><ele>818.0</ele><time>2026-04-12T09:55:52Z</time></trkpt><trkpt lat="37.83233953552188" lon="14.760383665401376"><ele>818.0</ele><time>2026-04-12T09:55:53Z</time></trkpt><trkpt lat="37.832277492083655" lon="14.760552111094462"><ele>818.0</ele><time>2026-04-12T09:55:54Z</time></trkpt><trkpt lat="37.83222489635551" lon="14.760719556711113"><ele>818.0</ele><time>2026-04-12T09:55:55Z</time></trkpt><trkpt lat="37.832161121248255" lon="14.76087121302493"><ele>818.0</ele><time>2026-04-12T09:55:56Z</time></trkpt><trkpt lat="37.832069967818626" lon="14.760994450350058"><ele>817.75</ele><time>2026-04-12T09:55:57Z</time></trkpt><trkpt lat="37.831953817272904" lon="14.761075630981251"><ele>817.5</ele><time>2026-04-12T09:55:58Z</time></trkpt><trkpt lat="37.831827537312826" lon="14.761092036035986"><ele>817.25</ele><time>2026-04-12T09:55:59Z</time></trkpt><trkpt lat="37.831705670676236" lon="14.761053678494447"><ele>817.0</ele><time>2026-04-12T09:56:00Z</time></trkpt><trkpt lat="37.83157909159435" lon="14.761012220241323"><ele>814.5</ele><time>2026-04-12T09:56:01Z</time></trkpt><trkpt lat="37.831444644280296" lon="14.761042432625077"><ele>812.0</ele><time>2026-04-12T09:56:02Z</time></trkpt><trkpt lat="37.83131408152806" lon="14.761119612367091"><ele>809.5</ele><time>2026-04-12T09:56:03Z</time></trkpt><trkpt lat="37.831214428666435" lon="14.7612394176376"><ele>807.0</ele><time>2026-04-12T09:56:04Z</time></trkpt><trkpt lat="37.83115861287508" lon="14.761388535541561"><ele>807.0</ele><time>2026-04-12T09:56:05Z</time></trkpt><trkpt lat="37.83114016461544" lon="14.761546622303761"><ele>807.0</ele><time>2026-04-12T09:56:06Z</time></trkpt><trkpt lat="37.831165011269135" lon="14.761709278652841"><ele>807.0</ele><time>2026-04-12T09:56:07Z</time></trkpt><trkpt lat="37.83122218225891" lon="14.761865993403612"><ele>807.0</ele><time>2026-04-12T09:56:08Z</time></trkpt><trkpt lat="37.8313183369744" lon="14.76200888743042"><ele>803.3333333333333</ele><time>2026-04-12T09:56:09Z</time></trkpt><trkpt lat="37.831443439790704" lon="14.762130312108367"><ele>799.6666666666666</ele><time>2026-04-12T09:56:10Z</time></trkpt><trkpt lat="37.83159194095779" lon="14.762230308922476"><ele>796.0</ele><time>2026-04-12T09:56:11Z</time></trkpt><trkpt lat="37.831733075375055" lon="14.76233503877789"><ele>797.0</ele><time>2026-04-12T09:56:12Z</time></trkpt><trkpt lat="37.83185864786044" lon="14.762443905050992"><ele>798.0</ele><time>2026-04-12T09:56:13Z</time></trkpt><trkpt lat="37.83195343558957" lon="14.762552034203033"><ele>799.0</ele><time>2026-04-12T09:56:14Z</time></trkpt><trkpt lat="37.83201434333014" lon="14.76268678849119"><ele>800.0</ele><time>2026-04-12T09:56:15Z</time></trkpt><trkpt lat="37.83201970957308" lon="14.762839105517168"><ele>800.0</ele><time>2026-04-12T09:56:16Z</time></trkpt><trkpt lat="37.8319983288215" lon="14.76298991350822"><ele>800.0</ele><time>2026-04-12T09:56:17Z</time></trkpt><trkpt lat="37.8319857472263" lon="14.763153707129584"><ele>800.0</ele><time>2026-04-12T09:56:18Z</time></trkpt><trkpt lat="37.8319898745651" lon="14.763330410736424"><ele>800.0</ele><time>2026-04-12T09:56:19Z</time></trkpt><trkpt lat="37.832014399011605" lon="14.763504889471395"><ele>796.75</ele><time>2026-04-12T09:56:20Z</time></trkpt><trkpt lat="37.83208218737015" lon="14.76366152271266"><ele>793.5</ele><time>2026-04-12T09:56:21Z</time></trkpt><trkpt lat="37.83218750960099" lon="14.763793270677597"><ele>790.25</ele><time>2026-04-12T09:56:22Z</time></trkpt><trkpt lat="37.832325437394815" lon="14.763896067067357"><ele>787.0</ele><time>2026-04-12T09:56:23Z</time></trkpt><trkpt lat="37.832486304546826" lon="14.763984794924047"><ele>789.0</ele><time>2026-04-12T09:56:24Z</time></trkpt><trkpt lat="37.832650762270205" lon="14.764094140681928"><ele>791.0</ele><time>2026-04-12T09:56:25Z</time></trkpt><trkpt lat="37.8328194503807" lon="14.764219562303344"><ele>793.0</ele><time>2026-04-12T09:56:26Z</time></trkpt><trkpt lat="37.8329940771431" lon="14.764346271841662"><ele>789.0</ele><time>2026-04-12T09:56:27Z</time></trkpt><trkpt lat="37.833162716196675" lon="14.764475144594163"><ele>785.0</ele><time>2026-04-12T09:56:28Z</time></trkpt><trkpt lat="37.83331241717689" lon="14.764612896023676"><ele>781.0</ele><time>2026-04-12T09:56:29Z</time></trkpt><trkpt lat="37.833437400653956" lon="14.764767542489228"><ele>783.6666666666666</ele><time>2026-04-12T09:56:30Z</time></trkpt><trkpt lat="37.83355219891271" lon="14.764918494074678"><ele>786.3333333333333</ele><time>2026-04-12T09:56:31Z</time></trkpt><trkpt lat="37.833663970175756" lon="14.765059169122965"><ele>789.0</ele><time>2026-04-12T09:56:32Z</time></trkpt><trkpt lat="37.83377788502574" lon="14.765176650074494"><ele>782.6666666666667</ele><time>2026-04-12T09:56:33Z</time></trkpt><trkpt lat="37.833912745866776" lon="14.765264614984119"><ele>776.3333333333334</ele><time>2026-04-12T09:56:34Z</time></trkpt><trkpt lat="37.83406837124556" lon="14.765309071362472"><ele>770.0</ele><time>2026-04-12T09:56:35Z</time></trkpt><trkpt lat="37.83423460945045" lon="14.765322345076346"><ele>772.3333333333334</ele><time>2026-04-12T09:56:36Z</time></trkpt><trkpt lat="37.83440377356846" lon="14.765341454522227"><ele>774.6666666666667</ele><time>2026-04-12T09:56:37Z</time></trkpt><trkpt lat="37.834575046821705" lon="14.765361139298571"><ele>777.0</ele><time>2026-04-12T09:56:38Z</time></trkpt><trkpt lat="37.83474280786228" lon="14.765395234997262"><ele>777.0</ele><time>2026-04-12T09:56:39Z</time></trkpt><trkpt lat="37.83488713900451" lon="14.765450374989237"><ele>777.0</ele><time>2026-04-12T09:56:40Z</time></trkpt><trkpt lat="37.83501338956263" lon="14.765521855044112"><ele>777.0</ele><time>2026-04-12T09:56:41Z</time></trkpt><trkpt lat="37.835116163279096" lon="14.76560545189739"><ele>777.0</ele><time>2026-04-12T09:56:42Z</time></trkpt><trkpt lat="37.83518509143083" lon="14.76572676325283"><ele>781.5</ele><time>2026-04-12T09:56:43Z</time></trkpt><trkpt lat="37.83520268539248" lon="14.76587717025065"><ele>786.0</ele><time>2026-04-12T09:56:44Z</time></trkpt><trkpt lat="37.83519242409117" lon="14.766047626648417"><ele>790.5</ele><time>2026-04-12T09:56:45Z</time></trkpt><trkpt lat="37.835183325279004" lon="14.766232169953314"><ele>795.0</ele><time>2026-04-12T09:56:46Z</time></trkpt><trkpt lat="37.83517885815692" lon="14.766431596917114"><ele>795.6666666666667</ele><time>2026-04-12T09:56:47Z</time></trkpt><trkpt lat="37.835171123333254" lon="14.766638759633244"><ele>796.3333333333334</ele><time>2026-04-12T09:56:48Z</time></trkpt><trkpt lat="37.83516168249763" lon="14.766842517598638"><ele>797.0</ele><time>2026-04-12T09:56:49Z</time></trkpt><trkpt lat="37.83514395964679" lon="14.767026961607115"><ele>791.0</ele><time>2026-04-12T09:56:50Z</time></trkpt><trkpt lat="37.83509987524535" lon="14.767202962624484"><ele>785.0</ele><time>2026-04-12T09:56:51Z</time></trkpt><trkpt lat="37.8350230204497" lon="14.767373564548972"><ele>779.0</ele><time>2026-04-12T09:56:52Z</time></trkpt><trkpt lat="37.834911473852436" lon="14.767528764808647"><ele>779.0</ele><time>2026-04-12T09:56:53Z</time></trkpt><trkpt lat="37.83478032851177" lon="14.767674010919924"><ele>779.0</ele><time>2026-04-12T09:56:54Z</time></trkpt><trkpt lat="37.83466299393498" lon="14.767839812105278"><ele>779.0</ele><time>2026-04-12T09:56:55Z</time></trkpt><trkpt lat="37.83455568699006" lon="14.768016696810266"><ele>781.6666666666667</ele><time>2026-04-12T09:56:56Z</time></trkpt><trkpt lat="37.83445475850733" lon="14.768194517676905"><ele>784.3333333333333</ele><time>2026-04-12T09:56:57Z</time></trkpt><trkpt lat="37.83435510206961" lon="14.768369865347779"><ele>787.0</ele><time>2026-04-12T09:56:58Z</time></trkpt><trkpt lat="37.834244164589904" lon="14.76853186047241"><ele>787.0</ele><time>2026-04-12T09:56:59Z</time></trkpt><trkpt lat="37.83410356644146" lon="14.768651317585958"><ele>787.0</ele><time>2026-04-12T09:57:00Z</time></trkpt><trkpt lat="37.833958439004306" lon="14.768749720558239"><ele>787.0</ele><time>2026-04-12T09:57:01Z</time></trkpt><trkpt lat="37.833822854935555" lon="14.768866608945226"><ele>787.0</ele><time>2026-04-12T09:57:02Z</time></trkpt><trkpt lat="37.83368134914802" lon="14.768989909625944"><ele>787.0</ele><time>2026-04-12T09:57:03Z</time></trkpt><trkpt lat="37.83355176685488" lon="14.76912645159265"><ele>787.0</ele><time>2026-04-12T09:57:04Z</time></trkpt><trkpt lat="37.83343026423854" lon="14.76924780035169"><ele>783.5</ele><time>2026-04-12T09:57:05Z</time></trkpt><trkpt lat="37.8333023367136" lon="14.769327670731014"><ele>780.0</ele><time>2026-04-12T09:57:06Z</time></trkpt><trkpt lat="37.83315548906563" lon="14.769339438693237"><ele>776.5</ele><time>2026-04-12T09:57:07Z</time></trkpt><trkpt lat="37.83300571589163" lon="14.76928471247848"><ele>773.0</ele><time>2026-04-12T09:57:08Z</time></trkpt><trkpt lat="37.83284859878618" lon="14.769239442261409"><ele>773.0</ele><time>2026-04-12T09:57:09Z</time></trkpt><trkpt lat="37.83267968160241" lon="14.769194091157065"><ele>773.0</ele><time>2026-04-12T09:57:10Z</time></trkpt><trkpt lat="37.832498460539654" lon="14.769184739317"><ele>773.0</ele><time>2026-04-12T09:57:11Z</time></trkpt><trkpt lat="37.83231641664062" lon="14.769186960341573"><ele>771.3333333333334</ele><time>2026-04-12T09:57:12Z</time></trkpt><trkpt lat="37.83214368882241" lon="14.769192348245028"><ele>769.6666666666667</ele><time>2026-04-12T09:57:13Z</time></trkpt><trkpt lat="37.831985053334115" lon="14.769197457235007"><ele>768.0</ele><time>2026-04-12T09:57:14Z</time></trkpt><trkpt lat="37.83185291661616" lon="14.769195671025132"><ele>767.0</ele><time>2026-04-12T09:57:15Z</time></trkpt><trkpt lat="37.831738199196515" lon="14.769201757136546"><ele>766.0</ele><time>2026-04-12T09:57:16Z</time></trkpt><trkpt lat="37.83163362274576" lon="14.769258947269101"><ele>765.0</ele><time>2026-04-12T09:57:17Z</time></trkpt><trkpt lat="37.83155002122512" lon="14.769381070399595"><ele>764.0</ele><time>2026-04-12T09:57:18Z</time></trkpt><trkpt lat="37.83150957332084" lon="14.769544621130134"><ele>768.3333333333333</ele><time>2026-04-12T09:57:19Z</time></trkpt><trkpt lat="37.83150091742394" lon="14.769732707815518"><ele>772.6666666666666</ele><time>2026-04-12T09:57:20Z</time></trkpt><trkpt lat="37.83147468856871" lon="14.769930589673693"><ele>777.0</ele><time>2026-04-12T09:57:21Z</time></trkpt><trkpt lat="37.83142753288652" lon="14.770142212671516"><ele>777.3333333333333</ele><time>2026-04-12T09:57:22Z</time></trkpt><trkpt lat="37.83138881158233" lon="14.770371277412087"><ele>777.6666666666666</ele><time>2026-04-12T09:57:23Z</time></trkpt><trkpt lat="37.83135485007243" lon="14.770612747903302"><ele>778.0</ele><time>2026-04-12T09:57:24Z</time></trkpt><trkpt lat="37.831313222610405" lon="14.770863089381036"><ele>777.6666666666666</ele><time>2026-04-12T09:57:25Z</time></trkpt><trkpt lat="37.831266535798036" lon="14.77112550949841"><ele>777.3333333333333</ele><time>2026-04-12T09:57:26Z</time></trkpt><trkpt lat="37.83122106400766" lon="14.771397619293612"><ele>777.0</ele><time>2026-04-12T09:57:27Z</time></trkpt><trkpt lat="37.83117993899747" lon="14.771671836752713"><ele>777.3333333333333</ele><time>2026-04-12T09:57:28Z</time></trkpt><trkpt lat="37.83114695517132" lon="14.771938549687249"><ele>777.6666666666666</ele><time>2026-04-12T09:57:29Z</time></trkpt><trkpt lat="37.8311419876817" lon="14.772194654606007"><ele>778.0</ele><time>2026-04-12T09:57:30Z</time></trkpt><trkpt lat="37.83115004670335" lon="14.772442721701323"><ele>777.6666666666666</ele><time>2026-04-12T09:57:31Z</time></trkpt><trkpt lat="37.831131510731794" lon="14.772694592095101"><ele>777.3333333333333</ele><time>2026-04-12T09:57:32Z</time></trkpt><trkpt lat="37.831072511852376" lon="14.77292018994243"><ele>777.0</ele><time>2026-04-12T09:57:33Z</time></trkpt><trkpt lat="37.831000090973816" lon="14.773125732831486"><ele>767.6666666666666</ele><time>2026-04-12T09:57:34Z</time></trkpt><trkpt lat="37.83095401538862" lon="14.773335260484675"><ele>758.3333333333333</ele><time>2026-04-12T09:57:35Z</time></trkpt><trkpt lat="37.830943987106224" lon="14.773558210596747"><ele>749.0</ele><time>2026-04-12T09:57:36Z</time></trkpt><trkpt lat="37.83096317288562" lon="14.773784676416936"><ele>755.0</ele><time>2026-04-12T09:57:37Z</time></trkpt><trkpt lat="37.83099115062648" lon="14.774014381844776"><ele>761.0</ele><time>2026-04-12T09:57:38Z</time></trkpt><trkpt lat="37.83101627447434" lon="14.774245801320179"><ele>767.0</ele><time>2026-04-12T09:57:39Z</time></trkpt><trkpt lat="37.831036670845386" lon="14.774478257178036"><ele>767.0</ele><time>2026-04-12T09:57:40Z</time></trkpt><trkpt lat="37.831046255471456" lon="14.77471071804654"><ele>767.0</ele><time>2026-04-12T09:57:41Z</time></trkpt><trkpt lat="37.83104438599882" lon="14.774931674498458"><ele>767.0</ele><time>2026-04-12T09:57:42Z</time></trkpt><trkpt lat="37.831030746386205" lon="14.775140901066568"><ele>769.3333333333333</ele><time>2026-04-12T09:57:43Z</time></trkpt><trkpt lat="37.83099471373805" lon="14.775333946418856"><ele>771.6666666666666</ele><time>2026-04-12T09:57:44Z</time></trkpt><trkpt lat="37.830923595274285" lon="14.775507456197381"><ele>774.0</ele><time>2026-04-12T09:57:45Z</time></trkpt><trkpt lat="37.83080818085798" lon="14.77564817423447"><ele>768.3333333333334</ele><time>2026-04-12T09:57:46Z</time></trkpt><trkpt lat="37.830678439102044" lon="14.77578075572515"><ele>762.6666666666667</ele><time>2026-04-12T09:57:47Z</time></trkpt><trkpt lat="37.83055299400334" lon="14.775923166308187"><ele>757.0</ele><time>2026-04-12T09:57:48Z</time></trkpt><trkpt lat="37.830437306455515" lon="14.776076379901136"><ele>757.0</ele><time>2026-04-12T09:57:49Z</time></trkpt><trkpt lat="37.83033243677918" lon="14.776244043161398"><ele>757.0</ele><time>2026-04-12T09:57:50Z</time></trkpt><trkpt lat="37.830247683806824" lon="14.776437059323596"><ele>757.0</ele><time>2026-04-12T09:57:51Z</time></trkpt><trkpt lat="37.83018921599344" lon="14.776644069766421"><ele>757.0</ele><time>2026-04-12T09:57:52Z</time></trkpt><trkpt lat="37.83016098455561" lon="14.77686819316197"><ele>757.0</ele><time>2026-04-12T09:57:53Z</time></trkpt><trkpt lat="37.83017237604705" lon="14.77710008514667"><ele>757.0</ele><time>2026-04-12T09:57:54Z</time></trkpt><trkpt lat="37.830197732312165" lon="14.77732152378818"><ele>757.0</ele><time>2026-04-12T09:57:55Z</time></trkpt><trkpt lat="37.830210301613135" lon="14.777517946373766"><ele>757.0</ele><time>2026-04-12T09:57:56Z</time></trkpt><trkpt lat="37.83021016618154" lon="14.77769200548681"><ele>757.0</ele><time>2026-04-12T09:57:57Z</time></trkpt><trkpt lat="37.83018240182846" lon="14.777857310763334"><ele>757.0</ele><time>2026-04-12T09:57:58Z</time></trkpt><trkpt lat="37.830117224551685" lon="14.777995406639867"><ele>751.75</ele><time>2026-04-12T09:57:59Z</time></trkpt><trkpt lat="37.83002380984937" lon="14.778108045051704"><ele>746.5</ele><time>2026-04-12T09:58:00Z</time></trkpt><trkpt lat="37.82989927931713" lon="14.778186729360378"><ele>741.25</ele><time>2026-04-12T09:58:01Z</time></trkpt><trkpt lat="37.82975217676499" lon="14.778222234487918"><ele>736.0</ele><time>2026-04-12T09:58:02Z</time></trkpt><trkpt lat="37.82959487800288" lon="14.778208532426156"><ele>736.0</ele><time>2026-04-12T09:58:03Z</time></trkpt><trkpt lat="37.82943352068555" lon="14.778193561883219"><ele>736.0</ele><time>2026-04-12T09:58:04Z</time></trkpt><trkpt lat="37.82927433324582" lon="14.77820705877493"><ele>736.0</ele><time>2026-04-12T09:58:05Z</time></trkpt><trkpt lat="37.82912109854369" lon="14.778271827246044"><ele>737.3333333333334</ele><time>2026-04-12T09:58:06Z</time></trkpt><trkpt lat="37.828978200595905" lon="14.778388962534498"><ele>738.6666666666666</ele><time>2026-04-12T09:58:07Z</time></trkpt><trkpt lat="37.82882783001184" lon="14.778497454791331"><ele>740.0</ele><time>2026-04-12T09:58:08Z</time></trkpt><trkpt lat="37.828656241515766" lon="14.778568174312984"><ele>737.0</ele><time>2026-04-12T09:58:09Z</time></trkpt><trkpt lat="37.828469670813796" lon="14.778583960997427"><ele>734.0</ele><time>2026-04-12T09:58:10Z</time></trkpt><trkpt lat="37.828278363845726" lon="14.778604217882913"><ele>731.0</ele><time>2026-04-12T09:58:11Z</time></trkpt><trkpt lat="37.828083077204354" lon="14.778639571485469"><ele>731.0</ele><time>2026-04-12T09:58:12Z</time></trkpt><trkpt lat="37.82789471662456" lon="14.778671570818686"><ele>731.0</ele><time>2026-04-12T09:58:13Z</time></trkpt><trkpt lat="37.82771878569874" lon="14.778702339525092"><ele>731.0</ele><time>2026-04-12T09:58:14Z</time></trkpt><trkpt lat="37.82755682444787" lon="14.778724721007487"><ele>732.0</ele><time>2026-04-12T09:58:15Z</time></trkpt><trkpt lat="37.8274138772274" lon="14.778746857828752"><ele>733.0</ele><time>2026-04-12T09:58:16Z</time></trkpt><trkpt lat="37.82730701566984" lon="14.778782895898248"><ele>734.0</ele><time>2026-04-12T09:58:17Z</time></trkpt><trkpt lat="37.82722273355972" lon="14.778826791153001"><ele>735.0</ele><time>2026-04-12T09:58:18Z</time></trkpt><trkpt lat="37.82715700093869" lon="14.778865429766888"><ele>736.0</ele><time>2026-04-12T09:58:19Z</time></trkpt><trkpt lat="37.827097959832905" lon="14.778917890426888"><ele>736.0</ele><time>2026-04-12T09:58:21Z</time></trkpt><trkpt lat="37.82709698943475" lon="14.779002385168232"><ele>736.0</ele><time>2026-04-12T09:58:24Z</time></trkpt><trkpt lat="37.82710601432818" lon="14.77913966084376"><ele>736.0</ele><time>2026-04-12T09:58:26Z</time></trkpt><trkpt lat="37.82710081009163" lon="14.779268920266789"><ele>736.0</ele><time>2026-04-12T09:58:27Z</time></trkpt><trkpt lat="37.82709631611765" lon="14.779428908250088"><ele>736.0</ele><time>2026-04-12T09:58:28Z</time></trkpt><trkpt lat="37.827092582688564" lon="14.77961328017671"><ele>732.0</ele><time>2026-04-12T09:58:29Z</time></trkpt><trkpt lat="37.82707979524534" lon="14.779832029570068"><ele>728.0</ele><time>2026-04-12T09:58:30Z</time></trkpt><trkpt lat="37.827071632548936" lon="14.78004871565594"><ele>724.0</ele><time>2026-04-12T09:58:31Z</time></trkpt><trkpt lat="37.8270714097238" lon="14.780276786804011"><ele>721.6666666666667</ele><time>2026-04-12T09:58:32Z</time></trkpt><trkpt lat="37.82707857614852" lon="14.780520543375657"><ele>719.3333333333334</ele><time>2026-04-12T09:58:33Z</time></trkpt><trkpt lat="37.827092735482225" lon="14.780750547341453"><ele>717.0</ele><time>2026-04-12T09:58:34Z</time></trkpt><trkpt lat="37.82710948736017" lon="14.780968711758907"><ele>716.6666666666666</ele><time>2026-04-12T09:58:35Z</time></trkpt><trkpt lat="37.82712924112503" lon="14.78117998247268"><ele>716.3333333333333</ele><time>2026-04-12T09:58:36Z</time></trkpt><trkpt lat="37.82715018750865" lon="14.781392849712363"><ele>716.0</ele><time>2026-04-12T09:58:37Z</time></trkpt><trkpt lat="37.827164426154965" lon="14.781613417243472"><ele>716.0</ele><time>2026-04-12T09:58:38Z</time></trkpt><trkpt lat="37.82717276421037" lon="14.781846786690735"><ele>716.0</ele><time>2026-04-12T09:58:39Z</time></trkpt><trkpt lat="37.82717433368308" lon="14.782084108386375"><ele>716.0</ele><time>2026-04-12T09:58:40Z</time></trkpt><trkpt lat="37.8271696373528" lon="14.782308998452855"><ele>715.3333333333333</ele><time>2026-04-12T09:58:41Z</time></trkpt><trkpt lat="37.82715399102613" lon="14.782523121834707"><ele>714.6666666666666</ele><time>2026-04-12T09:58:42Z</time></trkpt><trkpt lat="37.827126077771986" lon="14.782716754279196"><ele>714.0</ele><time>2026-04-12T09:58:43Z</time></trkpt><trkpt lat="37.82707213961354" lon="14.782874330787413"><ele>712.8000000000001</ele><time>2026-04-12T09:58:44Z</time></trkpt><trkpt lat="37.82700926459734" lon="14.782988171066517"><ele>711.6</ele><time>2026-04-12T09:58:45Z</time></trkpt><trkpt lat="37.82697209418844" lon="14.783098009236062"><ele>710.4</ele><time>2026-04-12T09:58:46Z</time></trkpt><trkpt lat="37.826984149453516" lon="14.783214859809332"><ele>709.2</ele><time>2026-04-12T09:58:47Z</time></trkpt><trkpt lat="37.82704799774397" lon="14.78331196359598"><ele>708.0</ele><time>2026-04-12T09:58:48Z</time></trkpt><trkpt lat="37.82713830109776" lon="14.783361131989254"><ele>708.0</ele><time>2026-04-12T09:58:49Z</time></trkpt><trkpt lat="37.82723099773979" lon="14.78335719937825"><ele>708.0</ele><time>2026-04-12T09:58:50Z</time></trkpt><trkpt lat="37.827321065109494" lon="14.783330946756447"><ele>708.0</ele><time>2026-04-12T09:58:51Z</time></trkpt><trkpt lat="37.8273720563862" lon="14.783206998003825"><ele>708.0</ele><time>2026-04-12T09:58:52Z</time></trkpt><trkpt lat="37.82740883281762" lon="14.783075020396415"><ele>708.0</ele><time>2026-04-12T09:58:53Z</time></trkpt><trkpt lat="37.82744446115818" lon="14.782918565041681"><ele>708.0</ele><time>2026-04-12T09:58:54Z</time></trkpt><trkpt lat="37.827477936229876" lon="14.782739627108292"><ele>708.0</ele><time>2026-04-12T09:58:55Z</time></trkpt><trkpt lat="37.82751433796866" lon="14.782553003408509"><ele>708.0</ele><time>2026-04-12T09:58:56Z</time></trkpt><trkpt lat="37.82754454193603" lon="14.782384685394893"><ele>708.0</ele><time>2026-04-12T09:58:57Z</time></trkpt><trkpt lat="37.827630670599206" lon="14.782252657916175"><ele>706.0</ele><time>2026-04-12T09:58:58Z</time></trkpt><trkpt lat="37.827746598992164" lon="14.78217932716728"><ele>704.0</ele><time>2026-04-12T09:58:59Z</time></trkpt><trkpt lat="37.82787191763118" lon="14.782163682878302"><ele>702.0</ele><time>2026-04-12T09:59:00Z</time></trkpt><trkpt lat="37.827988367292846" lon="14.78219407890754"><ele>700.0</ele><time>2026-04-12T09:59:01Z</time></trkpt><trkpt lat="37.82808022989838" lon="14.78228321473277"><ele>700.0</ele><time>2026-04-12T09:59:02Z</time></trkpt><trkpt lat="37.82813955854726" lon="14.782403852066562"><ele>700.0</ele><time>2026-04-12T09:59:03Z</time></trkpt><trkpt lat="37.82817465004694" lon="14.782541174490907"><ele>700.0</ele><time>2026-04-12T09:59:04Z</time></trkpt><trkpt lat="37.82817763801262" lon="14.782693794092213"><ele>700.0</ele><time>2026-04-12T09:59:05Z</time></trkpt><trkpt lat="37.82813985930187" lon="14.782849381735852"><ele>698.0</ele><time>2026-04-12T09:59:06Z</time></trkpt><trkpt lat="37.8280553325305" lon="14.78300213386518"><ele>696.0</ele><time>2026-04-12T09:59:07Z</time></trkpt><trkpt lat="37.827971495291244" lon="14.783195425640313"><ele>694.0</ele><time>2026-04-12T09:59:08Z</time></trkpt><trkpt lat="37.82790232937046" lon="14.783404400317853"><ele>690.6666666666667</ele><time>2026-04-12T09:59:09Z</time></trkpt><trkpt lat="37.8278352581631" lon="14.783615462916124"><ele>687.3333333333334</ele><time>2026-04-12T09:59:10Z</time></trkpt><trkpt lat="37.82777769534945" lon="14.783818222001557"><ele>684.0</ele><time>2026-04-12T09:59:11Z</time></trkpt><trkpt lat="37.82772458924648" lon="14.784013974556775"><ele>684.0</ele><time>2026-04-12T09:59:12Z</time></trkpt><trkpt lat="37.827678735403666" lon="14.784202335985446"><ele>684.0</ele><time>2026-04-12T09:59:13Z</time></trkpt><trkpt lat="37.82763891811454" lon="14.784364852909993"><ele>684.0</ele><time>2026-04-12T09:59:14Z</time></trkpt><trkpt lat="37.82761496063478" lon="14.784500797890416"><ele>684.0</ele><time>2026-04-12T09:59:15Z</time></trkpt><trkpt lat="37.82761765711189" lon="14.784633894428836"><ele>683.8000000000001</ele><time>2026-04-12T09:59:16Z</time></trkpt><trkpt lat="37.82767198656245" lon="14.784757252852332"><ele>683.6</ele><time>2026-04-12T09:59:17Z</time></trkpt><trkpt lat="37.82776132879445" lon="14.784835666540854"><ele>683.4</ele><time>2026-04-12T09:59:18Z</time></trkpt><trkpt lat="37.82786664987188" lon="14.784856352833582"><ele>683.2</ele><time>2026-04-12T09:59:19Z</time></trkpt><trkpt lat="37.82797469741558" lon="14.78482549510103"><ele>683.0</ele><time>2026-04-12T09:59:20Z</time></trkpt><trkpt lat="37.82807308771531" lon="14.784731848343057"><ele>683.0</ele><time>2026-04-12T09:59:21Z</time></trkpt><trkpt lat="37.82815796416703" lon="14.784588450807911"><ele>683.0</ele><time>2026-04-12T09:59:22Z</time></trkpt><trkpt lat="37.82825054255905" lon="14.784408451515741"><ele>683.0</ele><time>2026-04-12T09:59:23Z</time></trkpt><trkpt lat="37.82836410727326" lon="14.784214052178267"><ele>680.0</ele><time>2026-04-12T09:59:24Z</time></trkpt><trkpt lat="37.82849283289397" lon="14.78399983030423"><ele>677.0</ele><time>2026-04-12T09:59:25Z</time></trkpt><trkpt lat="37.82863643990665" lon="14.783762194679127"><ele>674.0</ele><time>2026-04-12T09:59:26Z</time></trkpt><trkpt lat="37.82877906654991" lon="14.783517641238246"><ele>675.3333333333333</ele><time>2026-04-12T09:59:27Z</time></trkpt><trkpt lat="37.828908887122836" lon="14.78329528201158"><ele>676.6666666666666</ele><time>2026-04-12T09:59:28Z</time></trkpt><trkpt lat="37.82904492214414" lon="14.783100599088469"><ele>678.0</ele><time>2026-04-12T09:59:29Z</time></trkpt><trkpt lat="37.829142322074496" lon="14.782905168944842"><ele>678.0</ele><time>2026-04-12T09:59:30Z</time></trkpt><trkpt lat="37.829246929370704" lon="14.78274637188294"><ele>678.0</ele><time>2026-04-12T09:59:31Z</time></trkpt><trkpt lat="37.82936216928523" lon="14.782610151025622"><ele>678.0</ele><time>2026-04-12T09:59:32Z</time></trkpt><trkpt lat="37.829497389991644" lon="14.782531417825984"><ele>677.75</ele><time>2026-04-12T09:59:33Z</time></trkpt><trkpt lat="37.8296212616453" lon="14.782519411568078"><ele>677.5</ele><time>2026-04-12T09:59:34Z</time></trkpt><trkpt lat="37.82974390367263" lon="14.782562824009936"><ele>677.25</ele><time>2026-04-12T09:59:35Z</time></trkpt><trkpt lat="37.82986882856754" lon="14.78265003645499"><ele>677.0</ele><time>2026-04-12T09:59:36Z</time></trkpt><trkpt lat="37.829991041624055" lon="14.782744804310745"><ele>676.0</ele><time>2026-04-12T09:59:37Z</time></trkpt><trkpt lat="37.83009423702111" lon="14.782854029249751"><ele>675.0</ele><time>2026-04-12T09:59:38Z</time></trkpt><trkpt lat="37.83017359796527" lon="14.782983793970416"><ele>674.0</ele><time>2026-04-12T09:59:39Z</time></trkpt><trkpt lat="37.83021501079747" lon="14.783133820247826"><ele>673.0</ele><time>2026-04-12T09:59:40Z</time></trkpt><trkpt lat="37.83022943255015" lon="14.783308404222188"><ele>674.0</ele><time>2026-04-12T09:59:41Z</time></trkpt><trkpt lat="37.83022635015536" lon="14.78350098234667"><ele>675.0</ele><time>2026-04-12T09:59:42Z</time></trkpt><trkpt lat="37.830247171491095" lon="14.78370759482334"><ele>676.0</ele><time>2026-04-12T09:59:43Z</time></trkpt><trkpt lat="37.83029513821248" lon="14.783923847797428"><ele>676.0</ele><time>2026-04-12T09:59:44Z</time></trkpt><trkpt lat="37.830364015501324" lon="14.78415226295138"><ele>676.0</ele><time>2026-04-12T09:59:45Z</time></trkpt><trkpt lat="37.830441893810985" lon="14.784402497246209"><ele>676.0</ele><time>2026-04-12T09:59:46Z</time></trkpt><trkpt lat="37.830513609059544" lon="14.784645525589376"><ele>673.6666666666667</ele><time>2026-04-12T09:59:47Z</time></trkpt><trkpt lat="37.83058167307748" lon="14.784890275177743"><ele>671.3333333333334</ele><time>2026-04-12T09:59:48Z</time></trkpt><trkpt lat="37.830651924062884" lon="14.785134634870117"><ele>669.0</ele><time>2026-04-12T09:59:49Z</time></trkpt><trkpt lat="37.830722508205255" lon="14.78537718642831"><ele>666.0</ele><time>2026-04-12T09:59:50Z</time></trkpt><trkpt lat="37.83080425553285" lon="14.785613787646737"><ele>663.0</ele><time>2026-04-12T09:59:51Z</time></trkpt><trkpt lat="37.830898536254125" lon="14.785838663558975"><ele>660.0</ele><time>2026-04-12T09:59:52Z</time></trkpt><trkpt lat="37.83100941551405" lon="14.786049971959674"><ele>660.0</ele><time>2026-04-12T09:59:53Z</time></trkpt><trkpt lat="37.83113670226683" lon="14.786249810607249"><ele>660.0</ele><time>2026-04-12T09:59:54Z</time></trkpt><trkpt lat="37.83128209665562" lon="14.786432830430284"><ele>660.0</ele><time>2026-04-12T09:59:55Z</time></trkpt><trkpt lat="37.83144209970524" lon="14.786594831995446"><ele>660.0</ele><time>2026-04-12T09:59:56Z</time></trkpt><trkpt lat="37.83160404615627" lon="14.7867436692791"><ele>660.0</ele><time>2026-04-12T09:59:57Z</time></trkpt><trkpt lat="37.831740830025915" lon="14.786911623400322"><ele>660.0</ele><time>2026-04-12T09:59:58Z</time></trkpt><trkpt lat="37.831840304857614" lon="14.78710851608084"><ele>662.6666666666666</ele><time>2026-04-12T09:59:59Z</time></trkpt><trkpt lat="37.83189791585771" lon="14.787328558054574"><ele>665.3333333333333</ele><time>2026-04-12T10:00:00Z</time></trkpt><trkpt lat="37.83194240098969" lon="14.787560023224415"><ele>668.0</ele><time>2026-04-12T10:00:01Z</time></trkpt><trkpt lat="37.83202002309438" lon="14.787783844036415"><ele>661.6666666666666</ele><time>2026-04-12T10:00:02Z</time></trkpt><trkpt lat="37.832119423326276" lon="14.788000663827185"><ele>655.3333333333334</ele><time>2026-04-12T10:00:03Z</time></trkpt><trkpt lat="37.832242884780044" lon="14.788201840210856"><ele>649.0</ele><time>2026-04-12T10:00:04Z</time></trkpt><trkpt lat="37.83239473665747" lon="14.788381245033317"><ele>645.0</ele><time>2026-04-12T10:00:05Z</time></trkpt><trkpt lat="37.832568342719384" lon="14.788538643897446"><ele>641.0</ele><time>2026-04-12T10:00:06Z</time></trkpt><trkpt lat="37.83275860751676" lon="14.78867514887177"><ele>637.0</ele><time>2026-04-12T10:00:07Z</time></trkpt><trkpt lat="37.83296356831354" lon="14.788788210558206"><ele>637.0</ele><time>2026-04-12T10:00:08Z</time></trkpt><trkpt lat="37.83317687067605" lon="14.788882921774604"><ele>637.0</ele><time>2026-04-12T10:00:09Z</time></trkpt><trkpt lat="37.8333858150497" lon="14.78895520494717"><ele>637.0</ele><time>2026-04-12T10:00:10Z</time></trkpt><trkpt lat="37.83358952995559" lon="14.788996754844492"><ele>636.6666666666667</ele><time>2026-04-12T10:00:11Z</time></trkpt><trkpt lat="37.83378162395726" lon="14.789015382514938"><ele>636.3333333333334</ele><time>2026-04-12T10:00:12Z</time></trkpt><trkpt lat="37.833957907440414" lon="14.789022251485536"><ele>636.0</ele><time>2026-04-12T10:00:13Z</time></trkpt><trkpt lat="37.834114909266894" lon="14.78902561522984"><ele>636.0</ele><time>2026-04-12T10:00:14Z</time></trkpt><trkpt lat="37.83424405987048" lon="14.789022686027028"><ele>636.0</ele><time>2026-04-12T10:00:15Z</time></trkpt><trkpt lat="37.834348687570724" lon="14.789019368507466"><ele>636.0</ele><time>2026-04-12T10:00:16Z</time></trkpt><trkpt lat="37.83443857404476" lon="14.78902836876776"><ele>636.0</ele><time>2026-04-12T10:00:17Z</time></trkpt><trkpt lat="37.83450222488332" lon="14.78908811803354"><ele>636.0</ele><time>2026-04-12T10:00:18Z</time></trkpt><trkpt lat="37.834527178444155" lon="14.789189769135723"><ele>635.5</ele><time>2026-04-12T10:00:19Z</time></trkpt><trkpt lat="37.834492308538266" lon="14.789293055572912"><ele>635.0</ele><time>2026-04-12T10:00:20Z</time></trkpt><trkpt lat="37.834408690255216" lon="14.78936049498718"><ele>634.5</ele><time>2026-04-12T10:00:21Z</time></trkpt><trkpt lat="37.83428605585492" lon="14.78939004904861"><ele>634.0</ele><time>2026-04-12T10:00:22Z</time></trkpt><trkpt lat="37.834139911865556" lon="14.789394933526092"><ele>629.6666666666667</ele><time>2026-04-12T10:00:23Z</time></trkpt><trkpt lat="37.83397462605579" lon="14.789448381722817"><ele>625.3333333333334</ele><time>2026-04-12T10:00:24Z</time></trkpt><trkpt lat="37.833817724032144" lon="14.789551671757463"><ele>621.0</ele><time>2026-04-12T10:00:25Z</time></trkpt><trkpt lat="37.83366275422053" lon="14.789683748892813"><ele>621.0</ele><time>2026-04-12T10:00:26Z</time></trkpt><trkpt lat="37.83350854868393" lon="14.789836694551154"><ele>621.0</ele><time>2026-04-12T10:00:27Z</time></trkpt><trkpt lat="37.833357098870515" lon="14.7900039274405"><ele>621.0</ele><time>2026-04-12T10:00:28Z</time></trkpt><trkpt lat="37.8332200759093" lon="14.790173167946929"><ele>619.3333333333334</ele><time>2026-04-12T10:00:29Z</time></trkpt><trkpt lat="37.833095750305304" lon="14.790332051960393"><ele>617.6666666666667</ele><time>2026-04-12T10:00:30Z</time></trkpt><trkpt lat="37.832989520032925" lon="14.790505175724375"><ele>616.0</ele><time>2026-04-12T10:00:31Z</time></trkpt><trkpt lat="37.83290529885069" lon="14.79069829650574"><ele>616.0</ele><time>2026-04-12T10:00:32Z</time></trkpt><trkpt lat="37.83284794830647" lon="14.790912153396334"><ele>616.0</ele><time>2026-04-12T10:00:33Z</time></trkpt><trkpt lat="37.832814557970565" lon="14.791135888733047"><ele>616.0</ele><time>2026-04-12T10:00:34Z</time></trkpt><trkpt lat="37.832807067350245" lon="14.791365181751663"><ele>616.3333333333334</ele><time>2026-04-12T10:00:35Z</time></trkpt><trkpt lat="37.83283424508858" lon="14.791611267571152"><ele>616.6666666666666</ele><time>2026-04-12T10:00:36Z</time></trkpt><trkpt lat="37.83289226510312" lon="14.791864145426432"><ele>617.0</ele><time>2026-04-12T10:00:37Z</time></trkpt><trkpt lat="37.83295439779191" lon="14.792127974807823"><ele>617.0</ele><time>2026-04-12T10:00:38Z</time></trkpt><trkpt lat="37.83300922200169" lon="14.792410268213551"><ele>617.0</ele><time>2026-04-12T10:00:39Z</time></trkpt><trkpt lat="37.8330707575524" lon="14.792711644083147"><ele>614.5</ele><time>2026-04-12T10:00:40Z</time></trkpt><trkpt lat="37.833135066227655" lon="14.793040705710355"><ele>612.0</ele><time>2026-04-12T10:00:41Z</time></trkpt><trkpt lat="37.83320186011145" lon="14.79337738860795"><ele>612.0</ele><time>2026-04-12T10:00:42Z</time></trkpt><trkpt lat="37.83326198069816" lon="14.793698176667704"><ele>612.0</ele><time>2026-04-12T10:00:43Z</time></trkpt><trkpt lat="37.83332566149054" lon="14.794004785404566"><ele>612.0</ele><time>2026-04-12T10:00:44Z</time></trkpt><trkpt lat="37.83338588448686" lon="14.7942925606122"><ele>612.0</ele><time>2026-04-12T10:00:45Z</time></trkpt><trkpt lat="37.8334401111071" lon="14.794560781292535"><ele>613.0</ele><time>2026-04-12T10:00:46Z</time></trkpt><trkpt lat="37.83349092717308" lon="14.794816942475057"><ele>614.0</ele><time>2026-04-12T10:00:47Z</time></trkpt><trkpt lat="37.83353846442266" lon="14.795059620110539"><ele>615.0</ele><time>2026-04-12T10:00:48Z</time></trkpt><trkpt lat="37.83358278341229" lon="14.795288803353326"><ele>616.0</ele><time>2026-04-12T10:00:49Z</time></trkpt><trkpt lat="37.83362997636208" lon="14.795504028282465"><ele>617.0</ele><time>2026-04-12T10:00:50Z</time></trkpt><trkpt lat="37.83367222297183" lon="14.795704862133473"><ele>618.0</ele><time>2026-04-12T10:00:51Z</time></trkpt><trkpt lat="37.83372401662971" lon="14.79588658013796"><ele>623.0</ele><time>2026-04-12T10:00:52Z</time></trkpt><trkpt lat="37.83381511837783" lon="14.796036348410885"><ele>628.0</ele><time>2026-04-12T10:00:53Z</time></trkpt><trkpt lat="37.833938500506484" lon="14.796137361614845"><ele>633.0</ele><time>2026-04-12T10:00:54Z</time></trkpt><trkpt lat="37.83408190382992" lon="14.796210573525094"><ele>633.0</ele><time>2026-04-12T10:00:55Z</time></trkpt><trkpt lat="37.83423051252507" lon="14.796269047517164"><ele>633.0</ele><time>2026-04-12T10:00:56Z</time></trkpt><trkpt lat="37.83437540020341" lon="14.796311541027102"><ele>633.0</ele><time>2026-04-12T10:00:57Z</time></trkpt><trkpt lat="37.83451599458771" lon="14.796336609818024"><ele>633.0</ele><time>2026-04-12T10:00:58Z</time></trkpt><trkpt lat="37.83463707790281" lon="14.796361188746076"><ele>632.5</ele><time>2026-04-12T10:00:59Z</time></trkpt><trkpt lat="37.83474586953243" lon="14.79639164341942"><ele>632.0</ele><time>2026-04-12T10:01:00Z</time></trkpt><trkpt lat="37.83485959682291" lon="14.79643945940321"><ele>631.5</ele><time>2026-04-12T10:01:01Z</time></trkpt><trkpt lat="37.83497728491836" lon="14.796493780380388"><ele>631.0</ele><time>2026-04-12T10:01:02Z</time></trkpt><trkpt lat="37.83509818581842" lon="14.796557565089488"><ele>630.0</ele><time>2026-04-12T10:01:03Z</time></trkpt><trkpt lat="37.83521691443194" lon="14.796631805727978"><ele>629.0</ele><time>2026-04-12T10:01:04Z</time></trkpt><trkpt lat="37.83533943598075" lon="14.796705607506727"><ele>628.0</ele><time>2026-04-12T10:01:05Z</time></trkpt><trkpt lat="37.83546273949853" lon="14.796787881023144"><ele>627.0</ele><time>2026-04-12T10:01:06Z</time></trkpt><trkpt lat="37.83558555134149" lon="14.796883190660003"><ele>630.25</ele><time>2026-04-12T10:01:07Z</time></trkpt><trkpt lat="37.83569283581695" lon="14.797002248788965"><ele>633.5</ele><time>2026-04-12T10:01:08Z</time></trkpt><trkpt lat="37.83577533872091" lon="14.797128249492863"><ele>636.75</ele><time>2026-04-12T10:01:09Z</time></trkpt><trkpt lat="37.83585117093933" lon="14.797266310166668"><ele>640.0</ele><time>2026-04-12T10:01:10Z</time></trkpt><trkpt lat="37.83593725516032" lon="14.79740408376117"><ele>639.3333333333334</ele><time>2026-04-12T10:01:11Z</time></trkpt><trkpt lat="37.83602997848699" lon="14.797544264482655"><ele>638.6666666666666</ele><time>2026-04-12T10:01:12Z</time></trkpt><trkpt lat="37.83612436605398" lon="14.797695735203405"><ele>638.0</ele><time>2026-04-12T10:01:13Z</time></trkpt><trkpt lat="37.836219466673334" lon="14.797854408354041"><ele>638.0</ele><time>2026-04-12T10:01:14Z</time></trkpt><trkpt lat="37.83632522762044" lon="14.798032357516366"><ele>638.0</ele><time>2026-04-12T10:01:15Z</time></trkpt><trkpt lat="37.83643847752288" lon="14.798221815840787"><ele>638.0</ele><time>2026-04-12T10:01:16Z</time></trkpt><trkpt lat="37.836560162421385" lon="14.798417002566188"><ele>638.3333333333333</ele><time>2026-04-12T10:01:17Z</time></trkpt><trkpt lat="37.836686146567594" lon="14.798626200444245"><ele>638.6666666666666</ele><time>2026-04-12T10:01:18Z</time></trkpt><trkpt lat="37.836819306861" lon="14.798845141850709"><ele>639.0</ele><time>2026-04-12T10:01:19Z</time></trkpt><trkpt lat="37.83695618431662" lon="14.799071101935631"><ele>639.0</ele><time>2026-04-12T10:01:20Z</time></trkpt><trkpt lat="37.83708048155873" lon="14.799276284534603"><ele>639.0</ele><time>2026-04-12T10:01:21Z</time></trkpt><trkpt lat="37.837202356782946" lon="14.79947332695811"><ele>639.0</ele><time>2026-04-12T10:01:22Z</time></trkpt><trkpt lat="37.8373184084785" lon="14.799664737815187"><ele>640.6666666666666</ele><time>2026-04-12T10:01:23Z</time></trkpt><trkpt lat="37.83742971345083" lon="14.799849205964128"><ele>642.3333333333333</ele><time>2026-04-12T10:01:24Z</time></trkpt><trkpt lat="37.837539741743726" lon="14.800029534661087"><ele>644.0</ele><time>2026-04-12T10:01:25Z</time></trkpt><trkpt lat="37.837655257273575" lon="14.800204077606432"><ele>645.0</ele><time>2026-04-12T10:01:26Z</time></trkpt><trkpt lat="37.8377907039694" lon="14.800353369293955"><ele>646.0</ele><time>2026-04-12T10:01:27Z</time></trkpt><trkpt lat="37.837947300811436" lon="14.800469816293264"><ele>647.0</ele><time>2026-04-12T10:01:28Z</time></trkpt><trkpt lat="37.838120307438196" lon="14.800546737567101"><ele>647.0</ele><time>2026-04-12T10:01:29Z</time></trkpt><trkpt lat="37.83830804254568" lon="14.800578637404707"><ele>647.0</ele><time>2026-04-12T10:01:30Z</time></trkpt><trkpt lat="37.83850435208204" lon="14.800570567137068"><ele>647.0</ele><time>2026-04-12T10:01:31Z</time></trkpt><trkpt lat="37.83870696576059" lon="14.800540718810034"><ele>648.3333333333333</ele><time>2026-04-12T10:01:32Z</time></trkpt><trkpt lat="37.83892049710702" lon="14.800507503004955"><ele>649.6666666666666</ele><time>2026-04-12T10:01:33Z</time></trkpt><trkpt lat="37.839141626356515" lon="14.800484461356902"><ele>651.0</ele><time>2026-04-12T10:01:34Z</time></trkpt><trkpt lat="37.83936900477184" lon="14.80046076649647"><ele>653.0</ele><time>2026-04-12T10:01:35Z</time></trkpt><trkpt lat="37.83960386705341" lon="14.800433780809575"><ele>655.0</ele><time>2026-04-12T10:01:36Z</time></trkpt><trkpt lat="37.83984527542667" lon="14.800407305743196"><ele>655.0</ele><time>2026-04-12T10:01:37Z</time></trkpt><trkpt lat="37.84008792288137" lon="14.800381778203448"><ele>655.0</ele><time>2026-04-12T10:01:38Z</time></trkpt><trkpt lat="37.84032684413515" lon="14.800369520408516"><ele>657.5</ele><time>2026-04-12T10:01:39Z</time></trkpt><trkpt lat="37.840566997945054" lon="14.800380908096319"><ele>660.0</ele><time>2026-04-12T10:01:40Z</time></trkpt><trkpt lat="37.840803347805526" lon="14.800401779849938"><ele>661.0</ele><time>2026-04-12T10:01:41Z</time></trkpt><trkpt lat="37.84104131017344" lon="14.800434511884117"><ele>662.0</ele><time>2026-04-12T10:01:42Z</time></trkpt><trkpt lat="37.84127831139769" lon="14.800482030511992"><ele>662.0</ele><time>2026-04-12T10:01:43Z</time></trkpt><trkpt lat="37.841518527008326" lon="14.800543927671695"><ele>662.0</ele><time>2026-04-12T10:01:44Z</time></trkpt><trkpt lat="37.841765008953516" lon="14.800618529276884"><ele>661.0</ele><time>2026-04-12T10:01:45Z</time></trkpt><trkpt lat="37.842015993828475" lon="14.800697253233201"><ele>660.0</ele><time>2026-04-12T10:01:46Z</time></trkpt><trkpt lat="37.842242772474215" lon="14.800766712869743"><ele>660.0</ele><time>2026-04-12T10:01:47Z</time></trkpt><trkpt lat="37.84244664773954" lon="14.800827430523627"><ele>660.0</ele><time>2026-04-12T10:01:48Z</time></trkpt><trkpt lat="37.842634599037936" lon="14.800888006446499"><ele>660.0</ele><time>2026-04-12T10:01:49Z</time></trkpt><trkpt lat="37.84280835658327" lon="14.80094867542709"><ele>663.6666666666666</ele><time>2026-04-12T10:01:50Z</time></trkpt><trkpt lat="37.84296672281881" lon="14.801036867962855"><ele>667.3333333333333</ele><time>2026-04-12T10:01:51Z</time></trkpt><trkpt lat="37.84311290076309" lon="14.801152994805696"><ele>671.0</ele><time>2026-04-12T10:01:52Z</time></trkpt><trkpt lat="37.843244225091595" lon="14.801307074707967"><ele>671.0</ele><time>2026-04-12T10:01:53Z</time></trkpt><trkpt lat="37.843356348807376" lon="14.801500107321747"><ele>671.0</ele><time>2026-04-12T10:01:54Z</time></trkpt><trkpt lat="37.843501688367006" lon="14.801683614365535"><ele>671.0</ele><time>2026-04-12T10:01:55Z</time></trkpt><trkpt lat="37.843664793736544" lon="14.801860668059115"><ele>672.5</ele><time>2026-04-12T10:01:56Z</time></trkpt><trkpt lat="37.84384086751354" lon="14.802039673312331"><ele>674.0</ele><time>2026-04-12T10:01:57Z</time></trkpt><trkpt lat="37.84403735685747" lon="14.802211393731135"><ele>674.0</ele><time>2026-04-12T10:01:58Z</time></trkpt><trkpt lat="37.84424553345538" lon="14.80238345946272"><ele>674.0</ele><time>2026-04-12T10:01:59Z</time></trkpt><trkpt lat="37.84445786388985" lon="14.802570197588272"><ele>678.0</ele><time>2026-04-12T10:02:00Z</time></trkpt><trkpt lat="37.844675510468974" lon="14.802757325440647"><ele>682.0</ele><time>2026-04-12T10:02:01Z</time></trkpt><trkpt lat="37.84486883202142" lon="14.80292058435271"><ele>682.0</ele><time>2026-04-12T10:02:02Z</time></trkpt><trkpt lat="37.84504239170006" lon="14.803061890138368"><ele>682.0</ele><time>2026-04-12T10:02:03Z</time></trkpt><trkpt lat="37.84520254751344" lon="14.803201003622009"><ele>682.0</ele><time>2026-04-12T10:02:04Z</time></trkpt><trkpt lat="37.845352924015245" lon="14.803351187114927"><ele>681.0</ele><time>2026-04-12T10:02:05Z</time></trkpt><trkpt lat="37.84548900367595" lon="14.803520414644424"><ele>680.0</ele><time>2026-04-12T10:02:06Z</time></trkpt><trkpt lat="37.84561360309211" lon="14.803709605400872"><ele>679.0</ele><time>2026-04-12T10:02:07Z</time></trkpt><trkpt lat="37.84572708618585" lon="14.803914293000156"><ele>679.0</ele><time>2026-04-12T10:02:08Z</time></trkpt><trkpt lat="37.84582938198155" lon="14.804129654818608"><ele>679.0</ele><time>2026-04-12T10:02:09Z</time></trkpt><trkpt lat="37.845940450570126" lon="14.804344372401255"><ele>679.0</ele><time>2026-04-12T10:02:10Z</time></trkpt><trkpt lat="37.84605190118708" lon="14.80456293321549"><ele>678.6666666666667</ele><time>2026-04-12T10:02:11Z</time></trkpt><trkpt lat="37.84615698387834" lon="14.804785916263185"><ele>678.3333333333334</ele><time>2026-04-12T10:02:12Z</time></trkpt><trkpt lat="37.84626263210718" lon="14.804999866625085"><ele>678.0</ele><time>2026-04-12T10:02:13Z</time></trkpt><trkpt lat="37.8463711221139" lon="14.805208901200789"><ele>680.3333333333334</ele><time>2026-04-12T10:02:14Z</time></trkpt><trkpt lat="37.846474480319344" lon="14.805416953856255"><ele>682.6666666666667</ele><time>2026-04-12T10:02:15Z</time></trkpt><trkpt lat="37.84655606955535" lon="14.805635111790895"><ele>685.0</ele><time>2026-04-12T10:02:16Z</time></trkpt><trkpt lat="37.84661948573946" lon="14.805863615813514"><ele>686.6666666666667</ele><time>2026-04-12T10:02:17Z</time></trkpt><trkpt lat="37.84666640605521" lon="14.80609289867507"><ele>688.3333333333334</ele><time>2026-04-12T10:02:18Z</time></trkpt><trkpt lat="37.84668358420582" lon="14.806329251397516"><ele>690.0</ele><time>2026-04-12T10:02:19Z</time></trkpt><trkpt lat="37.8466766791618" lon="14.80657160195693"><ele>690.0</ele><time>2026-04-12T10:02:20Z</time></trkpt><trkpt lat="37.84666556257203" lon="14.806808908312352"><ele>690.0</ele><time>2026-04-12T10:02:21Z</time></trkpt><trkpt lat="37.84666906857599" lon="14.807025720680494"><ele>690.0</ele><time>2026-04-12T10:02:22Z</time></trkpt><trkpt lat="37.84667322291069" lon="14.807225947382422"><ele>690.75</ele><time>2026-04-12T10:02:23Z</time></trkpt><trkpt lat="37.846691719149376" lon="14.807400865425551"><ele>691.5</ele><time>2026-04-12T10:02:24Z</time></trkpt><trkpt lat="37.84673825596285" lon="14.80755319975518"><ele>692.25</ele><time>2026-04-12T10:02:25Z</time></trkpt><trkpt lat="37.84681001371321" lon="14.807685862352294"><ele>693.0</ele><time>2026-04-12T10:02:26Z</time></trkpt><trkpt lat="37.846916627071344" lon="14.807788018744859"><ele>695.5</ele><time>2026-04-12T10:02:27Z</time></trkpt><trkpt lat="37.84704379213976" lon="14.80785252625084"><ele>698.0</ele><time>2026-04-12T10:02:28Z</time></trkpt><trkpt lat="37.84718455618953" lon="14.807873343274894"><ele>700.5</ele><time>2026-04-12T10:02:29Z</time></trkpt><trkpt lat="37.84733437843582" lon="14.807836582897144"><ele>703.0</ele><time>2026-04-12T10:02:30Z</time></trkpt><trkpt lat="37.84748488193434" lon="14.807769502901456"><ele>704.0</ele><time>2026-04-12T10:02:31Z</time></trkpt><trkpt lat="37.8476345490244" lon="14.807702722560304"><ele>705.0</ele><time>2026-04-12T10:02:32Z</time></trkpt><trkpt lat="37.847780358799916" lon="14.80765409797241"><ele>706.0</ele><time>2026-04-12T10:02:33Z</time></trkpt><trkpt lat="37.84793036633554" lon="14.807636296639135"><ele>706.0</ele><time>2026-04-12T10:02:34Z</time></trkpt><trkpt lat="37.84808094710546" lon="14.807660620089173"><ele>706.0</ele><time>2026-04-12T10:02:35Z</time></trkpt><trkpt lat="37.8482279534766" lon="14.807717352395574"><ele>706.0</ele><time>2026-04-12T10:02:36Z</time></trkpt><trkpt lat="37.8483694664988" lon="14.807796285233284"><ele>699.6666666666667</ele><time>2026-04-12T10:02:37Z</time></trkpt><trkpt lat="37.848488017532425" lon="14.80793574455753"><ele>693.3333333333334</ele><time>2026-04-12T10:02:38Z</time></trkpt><trkpt lat="37.848583210419655" lon="14.80810341011998"><ele>687.0</ele><time>2026-04-12T10:02:39Z</time></trkpt><trkpt lat="37.8486522224739" lon="14.808293928932265"><ele>688.6666666666666</ele><time>2026-04-12T10:02:40Z</time></trkpt><trkpt lat="37.848687532801115" lon="14.808503021428448"><ele>690.3333333333333</ele><time>2026-04-12T10:02:41Z</time></trkpt><trkpt lat="37.8486777275326" lon="14.808719749763064"><ele>692.0</ele><time>2026-04-12T10:02:42Z</time></trkpt><trkpt lat="37.848640565942596" lon="14.808930668055403"><ele>692.0</ele><time>2026-04-12T10:02:43Z</time></trkpt><trkpt lat="37.84856100551618" lon="14.80913311124982"><ele>692.0</ele><time>2026-04-12T10:02:44Z</time></trkpt><trkpt lat="37.84844708455974" lon="14.80932058954481"><ele>692.0</ele><time>2026-04-12T10:02:45Z</time></trkpt><trkpt lat="37.848321325407134" lon="14.809516672923458"><ele>695.6666666666666</ele><time>2026-04-12T10:02:46Z</time></trkpt><trkpt lat="37.848196687413704" lon="14.809728777189987"><ele>699.3333333333334</ele><time>2026-04-12T10:02:47Z</time></trkpt><trkpt lat="37.848065364783906" lon="14.809954883542364"><ele>703.0</ele><time>2026-04-12T10:02:48Z</time></trkpt><trkpt lat="37.84792364420726" lon="14.810183958364087"><ele>703.0</ele><time>2026-04-12T10:02:49Z</time></trkpt><trkpt lat="37.84778707555198" lon="14.81040645310239"><ele>703.0</ele><time>2026-04-12T10:02:50Z</time></trkpt><trkpt lat="37.84767089323482" lon="14.8106004767209"><ele>703.0</ele><time>2026-04-12T10:02:51Z</time></trkpt><trkpt lat="37.84757626551623" lon="14.810773131101696"><ele>707.6666666666667</ele><time>2026-04-12T10:02:52Z</time></trkpt><trkpt lat="37.84750495388453" lon="14.810943684400371"><ele>712.3333333333334</ele><time>2026-04-12T10:02:53Z</time></trkpt><trkpt lat="37.84747065607045" lon="14.811128258176948"><ele>717.0</ele><time>2026-04-12T10:02:54Z</time></trkpt><trkpt lat="37.84746091547948" lon="14.81132576951771"><ele>718.0</ele><time>2026-04-12T10:02:55Z</time></trkpt><trkpt lat="37.84747745943611" lon="14.811526237194176"><ele>719.0</ele><time>2026-04-12T10:02:56Z</time></trkpt><trkpt lat="37.84752619015491" lon="14.811725187148939"><ele>720.0</ele><time>2026-04-12T10:02:57Z</time></trkpt><trkpt lat="37.84761643297867" lon="14.811914984061312"><ele>720.0</ele><time>2026-04-12T10:02:58Z</time></trkpt><trkpt lat="37.84773507864566" lon="14.812090347172802"><ele>720.0</ele><time>2026-04-12T10:02:59Z</time></trkpt><trkpt lat="37.847878455629825" lon="14.812247771750162"><ele>720.0</ele><time>2026-04-12T10:03:00Z</time></trkpt><trkpt lat="37.848042402430536" lon="14.812379673209009"><ele>720.0</ele><time>2026-04-12T10:03:01Z</time></trkpt><trkpt lat="37.84821399624458" lon="14.812486989544503"><ele>720.0</ele><time>2026-04-12T10:03:02Z</time></trkpt><trkpt lat="37.84837126734219" lon="14.8126146313246"><ele>720.0</ele><time>2026-04-12T10:03:03Z</time></trkpt><trkpt lat="37.848502090513946" lon="14.812789981978993"><ele>718.0</ele><time>2026-04-12T10:03:04Z</time></trkpt><trkpt lat="37.84860332142697" lon="14.812986093921053"><ele>716.0</ele><time>2026-04-12T10:03:05Z</time></trkpt><trkpt lat="37.84867125338679" lon="14.813194384747346"><ele>714.0</ele><time>2026-04-12T10:03:06Z</time></trkpt><trkpt lat="37.8486939191931" lon="14.813411329217185"><ele>714.3333333333334</ele><time>2026-04-12T10:03:07Z</time></trkpt><trkpt lat="37.848692448707666" lon="14.813643224278936"><ele>714.6666666666667</ele><time>2026-04-12T10:03:08Z</time></trkpt><trkpt lat="37.84865466298376" lon="14.813873874353531"><ele>715.0</ele><time>2026-04-12T10:03:09Z</time></trkpt><trkpt lat="37.84858518521789" lon="14.81410081254102"><ele>715.0</ele><time>2026-04-12T10:03:10Z</time></trkpt><trkpt lat="37.84851287298198" lon="14.814329928183723"><ele>715.0</ele><time>2026-04-12T10:03:11Z</time></trkpt><trkpt lat="37.84844563526397" lon="14.814572292736266"><ele>715.0</ele><time>2026-04-12T10:03:12Z</time></trkpt><trkpt lat="37.84838062755967" lon="14.814824827294084"><ele>719.0</ele><time>2026-04-12T10:03:13Z</time></trkpt><trkpt lat="37.848308592222" lon="14.815077467986349"><ele>723.0</ele><time>2026-04-12T10:03:14Z</time></trkpt><trkpt lat="37.84821935009875" lon="14.815323451166465"><ele>727.0</ele><time>2026-04-12T10:03:15Z</time></trkpt><trkpt lat="37.848119246009645" lon="14.815552911131377"><ele>727.0</ele><time>2026-04-12T10:03:16Z</time></trkpt><trkpt lat="37.84801163192979" lon="14.815773182853693"><ele>727.0</ele><time>2026-04-12T10:03:17Z</time></trkpt><trkpt lat="37.84789614755235" lon="14.815983273241313"><ele>727.0</ele><time>2026-04-12T10:03:18Z</time></trkpt><trkpt lat="37.847775546366684" lon="14.816194863617433"><ele>726.0</ele><time>2026-04-12T10:03:19Z</time></trkpt><trkpt lat="37.84765429967908" lon="14.816410697622928"><ele>725.0</ele><time>2026-04-12T10:03:20Z</time></trkpt><trkpt lat="37.84752994403268" lon="14.816610947737093"><ele>724.0</ele><time>2026-04-12T10:03:21Z</time></trkpt><trkpt lat="37.84740752936481" lon="14.816784884140008"><ele>728.6666666666667</ele><time>2026-04-12T10:03:22Z</time></trkpt><trkpt lat="37.84731595305511" lon="14.816958047318868"><ele>733.3333333333334</ele><time>2026-04-12T10:03:23Z</time></trkpt><trkpt lat="37.847248902277364" lon="14.817141860298674"><ele>738.0</ele><time>2026-04-12T10:03:24Z</time></trkpt><trkpt lat="37.84722747683516" lon="14.817343143741956"><ele>738.0</ele><time>2026-04-12T10:03:25Z</time></trkpt><trkpt lat="37.84723729658336" lon="14.817553157769131"><ele>738.0</ele><time>2026-04-12T10:03:26Z</time></trkpt><trkpt lat="37.84728168927127" lon="14.817760645479124"><ele>738.0</ele><time>2026-04-12T10:03:27Z</time></trkpt><trkpt lat="37.84735980907555" lon="14.817963066494231"><ele>741.0</ele><time>2026-04-12T10:03:28Z</time></trkpt><trkpt lat="37.84746194986615" lon="14.818166359055065"><ele>744.0</ele><time>2026-04-12T10:03:29Z</time></trkpt><trkpt lat="37.84756646200717" lon="14.818383096850937"><ele>747.0</ele><time>2026-04-12T10:03:30Z</time></trkpt><trkpt lat="37.84767266339455" lon="14.818616464558922"><ele>748.0</ele><time>2026-04-12T10:03:31Z</time></trkpt><trkpt lat="37.84778331933426" lon="14.818858854352374"><ele>749.0</ele><time>2026-04-12T10:03:32Z</time></trkpt><trkpt lat="37.84789831430038" lon="14.819108801101766"><ele>750.0</ele><time>2026-04-12T10:03:33Z</time></trkpt><trkpt lat="37.84801577862107" lon="14.8193611826679"><ele>752.5</ele><time>2026-04-12T10:03:34Z</time></trkpt><trkpt lat="37.84813510378944" lon="14.81961046835736"><ele>755.0</ele><time>2026-04-12T10:03:35Z</time></trkpt><trkpt lat="37.84824979445473" lon="14.81985870904869"><ele>755.0</ele><time>2026-04-12T10:03:36Z</time></trkpt><trkpt lat="37.84836000461708" lon="14.820111942401788"><ele>755.0</ele><time>2026-04-12T10:03:37Z</time></trkpt><trkpt lat="37.84846030710869" lon="14.820367002787611"><ele>753.6666666666666</ele><time>2026-04-12T10:03:38Z</time></trkpt><trkpt lat="37.848540039630265" lon="14.820608565710561"><ele>752.3333333333334</ele><time>2026-04-12T10:03:39Z</time></trkpt><trkpt lat="37.848593208385786" lon="14.820838159258287"><ele>751.0</ele><time>2026-04-12T10:03:40Z</time></trkpt><trkpt lat="37.84862698939854" lon="14.821081882625782"><ele>754.0</ele><time>2026-04-12T10:03:41Z</time></trkpt><trkpt lat="37.84863281147648" lon="14.821340446656471"><ele>757.0</ele><time>2026-04-12T10:03:42Z</time></trkpt><trkpt lat="37.84861909413661" lon="14.821607181394297"><ele>760.0</ele><time>2026-04-12T10:03:43Z</time></trkpt><trkpt lat="37.848587771530184" lon="14.821885457889037"><ele>761.5</ele><time>2026-04-12T10:03:44Z</time></trkpt><trkpt lat="37.84855747442166" lon="14.822175932889559"><ele>763.0</ele><time>2026-04-12T10:03:45Z</time></trkpt><trkpt lat="37.84852915686828" lon="14.822478656619184"><ele>763.5</ele><time>2026-04-12T10:03:46Z</time></trkpt><trkpt lat="37.84850044976249" lon="14.82279148388562"><ele>764.0</ele><time>2026-04-12T10:03:47Z</time></trkpt><trkpt lat="37.848471343992195" lon="14.823112926926107"><ele>768.5</ele><time>2026-04-12T10:03:48Z</time></trkpt><trkpt lat="37.84844274122741" lon="14.82344106890921"><ele>773.0</ele><time>2026-04-12T10:03:49Z</time></trkpt><trkpt lat="37.84841172156025" lon="14.82378062872872"><ele>773.0</ele><time>2026-04-12T10:03:50Z</time></trkpt><trkpt lat="37.8483781611911" lon="14.824129920792753"><ele>773.0</ele><time>2026-04-12T10:03:51Z</time></trkpt><trkpt lat="37.8483480785334" lon="14.824477684185425"><ele>772.5</ele><time>2026-04-12T10:03:52Z</time></trkpt><trkpt lat="37.848319249921076" lon="14.824815713311523"><ele>772.0</ele><time>2026-04-12T10:03:53Z</time></trkpt><trkpt lat="37.84828433320467" lon="14.82514658187189"><ele>775.5</ele><time>2026-04-12T10:03:54Z</time></trkpt><trkpt lat="37.848250007173334" lon="14.825469816853765"><ele>779.0</ele><time>2026-04-12T10:03:55Z</time></trkpt><trkpt lat="37.84821966977169" lon="14.825788321591821"><ele>782.5</ele><time>2026-04-12T10:03:56Z</time></trkpt><trkpt lat="37.848191529601344" lon="14.826102675264709"><ele>786.0</ele><time>2026-04-12T10:03:57Z</time></trkpt><trkpt lat="37.84816362333613" lon="14.826414442203545"><ele>786.0</ele><time>2026-04-12T10:03:58Z</time></trkpt><trkpt lat="37.84813397280566" lon="14.826728199881623"><ele>786.0</ele><time>2026-04-12T10:03:59Z</time></trkpt><trkpt lat="37.848103554069574" lon="14.82704153218071"><ele>788.0</ele><time>2026-04-12T10:04:00Z</time></trkpt><trkpt lat="37.84807399665364" lon="14.827358767064545"><ele>790.0</ele><time>2026-04-12T10:04:01Z</time></trkpt><trkpt lat="37.84804484095474" lon="14.827678277022178"><ele>792.5</ele><time>2026-04-12T10:04:02Z</time></trkpt><trkpt lat="37.848017646834634" lon="14.828000231972803"><ele>795.0</ele><time>2026-04-12T10:04:03Z</time></trkpt><trkpt lat="37.847990826306365" lon="14.828322822653572"><ele>798.5</ele><time>2026-04-12T10:04:04Z</time></trkpt><trkpt lat="37.84796504203673" lon="14.828635455833176"><ele>802.0</ele><time>2026-04-12T10:04:05Z</time></trkpt><trkpt lat="37.84793659967823" lon="14.828934088089971"><ele>802.0</ele><time>2026-04-12T10:04:06Z</time></trkpt><trkpt lat="37.84790706062061" lon="14.829214108760429"><ele>802.0</ele><time>2026-04-12T10:04:07Z</time></trkpt><trkpt lat="37.84788045173408" lon="14.829478151336616"><ele>802.0</ele><time>2026-04-12T10:04:08Z</time></trkpt><trkpt lat="37.847858001692224" lon="14.829734287290307"><ele>803.3333333333333</ele><time>2026-04-12T10:04:09Z</time></trkpt><trkpt lat="37.84783853352721" lon="14.829985589364687"><ele>804.6666666666667</ele><time>2026-04-12T10:04:10Z</time></trkpt><trkpt lat="37.847837781892295" lon="14.830236622376805"><ele>806.0</ele><time>2026-04-12T10:04:11Z</time></trkpt><trkpt lat="37.84786516245643" lon="14.830488758732246"><ele>806.0</ele><time>2026-04-12T10:04:12Z</time></trkpt><trkpt lat="37.84785149653049" lon="14.830744636686951"><ele>806.0</ele><time>2026-04-12T10:04:13Z</time></trkpt><trkpt lat="37.84786077053318" lon="14.830997572715846"><ele>806.0</ele><time>2026-04-12T10:04:14Z</time></trkpt><trkpt lat="37.848084573692816" lon="14.83125028215065"><ele>807.5</ele><time>2026-04-12T10:04:15Z</time></trkpt><trkpt lat="37.84817543430856" lon="14.831512198884122"><ele>809.0</ele><time>2026-04-12T10:04:16Z</time></trkpt><trkpt lat="37.84826821455982" lon="14.83178492580048"><ele>811.0</ele><time>2026-04-12T10:04:17Z</time></trkpt><trkpt lat="37.848367190909876" lon="14.832066501925985"><ele>813.0</ele><time>2026-04-12T10:04:18Z</time></trkpt><trkpt lat="37.8484701404925" lon="14.832354692137"><ele>815.5</ele><time>2026-04-12T10:04:19Z</time></trkpt><trkpt lat="37.84857194256578" lon="14.832646964623049"><ele>818.0</ele><time>2026-04-12T10:04:20Z</time></trkpt><trkpt lat="37.848672764895205" lon="14.832946545269264"><ele>818.0</ele><time>2026-04-12T10:04:21Z</time></trkpt><trkpt lat="37.84876618168042" lon="14.83325483622138"><ele>818.0</ele><time>2026-04-12T10:04:22Z</time></trkpt><trkpt lat="37.84885297171273" lon="14.833579069377386"><ele>817.0</ele><time>2026-04-12T10:04:23Z</time></trkpt><trkpt lat="37.84894051853674" lon="14.833920271461539"><ele>816.0</ele><time>2026-04-12T10:04:24Z</time></trkpt><trkpt lat="37.8490285295597" lon="14.834274259127234"><ele>815.5</ele><time>2026-04-12T10:04:25Z</time></trkpt><trkpt lat="37.84911518876469" lon="14.834645787821787"><ele>815.0</ele><time>2026-04-12T10:04:26Z</time></trkpt><trkpt lat="37.849206327713624" lon="14.835033929704759"><ele>818.0</ele><time>2026-04-12T10:04:27Z</time></trkpt><trkpt lat="37.8493022909604" lon="14.835436328241023"><ele>821.0</ele><time>2026-04-12T10:04:28Z</time></trkpt><trkpt lat="37.84939894924189" lon="14.835848460631198"><ele>821.0</ele><time>2026-04-12T10:04:29Z</time></trkpt><trkpt lat="37.8494967203425" lon="14.836274314178937"><ele>821.0</ele><time>2026-04-12T10:04:30Z</time></trkpt><trkpt lat="37.84959875670142" lon="14.83671349747782"><ele>821.5</ele><time>2026-04-12T10:04:31Z</time></trkpt><trkpt lat="37.84970297253052" lon="14.837163014805437"><ele>822.0</ele><time>2026-04-12T10:04:32Z</time></trkpt><trkpt lat="37.84981070624497" lon="14.837622167677333"><ele>822.0</ele><time>2026-04-12T10:04:33Z</time></trkpt><trkpt lat="37.84992321931627" lon="14.83808875832758"><ele>822.0</ele><time>2026-04-12T10:04:34Z</time></trkpt><trkpt lat="37.850032911470784" lon="14.838542227991082"><ele>823.0</ele><time>2026-04-12T10:04:35Z</time></trkpt><trkpt lat="37.85013513008567" lon="14.838957381990113"><ele>824.0</ele><time>2026-04-12T10:04:36Z</time></trkpt><trkpt lat="37.85022554632943" lon="14.839347447479003"><ele>824.5</ele><time>2026-04-12T10:04:37Z</time></trkpt><trkpt lat="37.8503091631288" lon="14.839712039812396"><ele>825.0</ele><time>2026-04-12T10:04:38Z</time></trkpt><trkpt lat="37.85039099484638" lon="14.84004713723062"><ele>825.5</ele><time>2026-04-12T10:04:39Z</time></trkpt><trkpt lat="37.85047642164922" lon="14.840355383029332"><ele>826.0</ele><time>2026-04-12T10:04:40Z</time></trkpt><trkpt lat="37.850584688976795" lon="14.840646498035612"><ele>826.0</ele><time>2026-04-12T10:04:41Z</time></trkpt><trkpt lat="37.85071974992492" lon="14.840938245260405"><ele>826.0</ele><time>2026-04-12T10:04:42Z</time></trkpt><trkpt lat="37.850876303562785" lon="14.84122559064733"><ele>827.0</ele><time>2026-04-12T10:04:43Z</time></trkpt><trkpt lat="37.85104477014399" lon="14.841518330517841"><ele>828.0</ele><time>2026-04-12T10:04:44Z</time></trkpt><trkpt lat="37.85121243995973" lon="14.841829200797697"><ele>829.0</ele><time>2026-04-12T10:04:45Z</time></trkpt><trkpt lat="37.85138522407862" lon="14.84215086847094"><ele>830.0</ele><time>2026-04-12T10:04:46Z</time></trkpt><trkpt lat="37.85156473953657" lon="14.84248158025985"><ele>830.5</ele><time>2026-04-12T10:04:47Z</time></trkpt><trkpt lat="37.851745355511035" lon="14.842824905867488"><ele>831.0</ele><time>2026-04-12T10:04:48Z</time></trkpt><trkpt lat="37.851932379988554" lon="14.843177695634061"><ele>833.0</ele><time>2026-04-12T10:04:49Z</time></trkpt><trkpt lat="37.852127662570915" lon="14.843539155680869"><ele>835.0</ele><time>2026-04-12T10:04:50Z</time></trkpt><trkpt lat="37.85233023762352" lon="14.843909060862167"><ele>835.0</ele><time>2026-04-12T10:04:51Z</time></trkpt><trkpt lat="37.852535743440775" lon="14.844285473412276"><ele>835.0</ele><time>2026-04-12T10:04:52Z</time></trkpt><trkpt lat="37.8527337687299" lon="14.844654067249895"><ele>837.5</ele><time>2026-04-12T10:04:53Z</time></trkpt><trkpt lat="37.852921341356755" lon="14.845005417199172"><ele>840.0</ele><time>2026-04-12T10:04:54Z</time></trkpt><trkpt lat="37.85309946565244" lon="14.845337370275786"><ele>841.0</ele><time>2026-04-12T10:04:55Z</time></trkpt><trkpt lat="37.85327576110199" lon="14.845662406963536"><ele>842.0</ele><time>2026-04-12T10:04:56Z</time></trkpt><trkpt lat="37.85345387380151" lon="14.8459912987777"><ele>841.5</ele><time>2026-04-12T10:04:57Z</time></trkpt><trkpt lat="37.853633500850364" lon="14.846324482874532"><ele>841.0</ele><time>2026-04-12T10:04:58Z</time></trkpt><trkpt lat="37.85381489298517" lon="14.84666303585717"><ele>842.0</ele><time>2026-04-12T10:04:59Z</time></trkpt><trkpt lat="37.85399935514178" lon="14.847002385956918"><ele>843.0</ele><time>2026-04-12T10:05:00Z</time></trkpt><trkpt lat="37.854184197477686" lon="14.847344370408482"><ele>843.0</ele><time>2026-04-12T10:05:01Z</time></trkpt><trkpt lat="37.85436616830276" lon="14.847684505328221"><ele>843.0</ele><time>2026-04-12T10:05:02Z</time></trkpt><trkpt lat="37.854547766666826" lon="14.848019781986945"><ele>843.0</ele><time>2026-04-12T10:05:03Z</time></trkpt><trkpt lat="37.854728407120895" lon="14.848354069492993"><ele>843.0</ele><time>2026-04-12T10:05:04Z</time></trkpt><trkpt lat="37.8549074950893" lon="14.848690918689975"><ele>844.0</ele><time>2026-04-12T10:05:05Z</time></trkpt><trkpt lat="37.855088842193" lon="14.849027888198615"><ele>845.0</ele><time>2026-04-12T10:05:06Z</time></trkpt><trkpt lat="37.85527042444174" lon="14.849364906353454"><ele>847.0</ele><time>2026-04-12T10:05:07Z</time></trkpt><trkpt lat="37.85545205039807" lon="14.849705593218939"><ele>849.0</ele><time>2026-04-12T10:05:08Z</time></trkpt><trkpt lat="37.855632220903146" lon="14.850044641083686"><ele>849.0</ele><time>2026-04-12T10:05:09Z</time></trkpt><trkpt lat="37.855813422681344" lon="14.850379492550653"><ele>849.0</ele><time>2026-04-12T10:05:10Z</time></trkpt><trkpt lat="37.85599557352586" lon="14.850712652501349"><ele>850.0</ele><time>2026-04-12T10:05:11Z</time></trkpt><trkpt lat="37.85617668503431" lon="14.851046277522963"><ele>851.0</ele><time>2026-04-12T10:05:12Z</time></trkpt><trkpt lat="37.85635681954618" lon="14.851378801440328"><ele>851.0</ele><time>2026-04-12T10:05:13Z</time></trkpt><trkpt lat="37.85653546763404" lon="14.851714817412093"><ele>851.0</ele><time>2026-04-12T10:05:14Z</time></trkpt><trkpt lat="37.85671390336174" lon="14.852051425716688"><ele>851.5</ele><time>2026-04-12T10:05:15Z</time></trkpt><trkpt lat="37.85689295235586" lon="14.852389222678024"><ele>852.0</ele><time>2026-04-12T10:05:16Z</time></trkpt><trkpt lat="37.85707441664466" lon="14.85272789717656"><ele>854.0</ele><time>2026-04-12T10:05:17Z</time></trkpt><trkpt lat="37.8572575163797" lon="14.85306564303035"><ele>856.0</ele><time>2026-04-12T10:05:18Z</time></trkpt><trkpt lat="37.857436818377295" lon="14.85339803205929"><ele>857.0</ele><time>2026-04-12T10:05:19Z</time></trkpt><trkpt lat="37.857606232280176" lon="14.853710387483538"><ele>858.0</ele><time>2026-04-12T10:05:20Z</time></trkpt><trkpt lat="37.8577683239159" lon="14.854018463380541"><ele>859.0</ele><time>2026-04-12T10:05:21Z</time></trkpt><trkpt lat="37.85793145395728" lon="14.85432229116835"><ele>860.0</ele><time>2026-04-12T10:05:22Z</time></trkpt><trkpt lat="37.85809260948276" lon="14.854623708291683"><ele>860.0</ele><time>2026-04-12T10:05:23Z</time></trkpt><trkpt lat="37.8582533679712" lon="14.854922711403551"><ele>860.0</ele><time>2026-04-12T10:05:24Z</time></trkpt><trkpt lat="37.858411179888975" lon="14.855220371523341"><ele>861.0</ele><time>2026-04-12T10:05:25Z</time></trkpt><trkpt lat="37.85856831210732" lon="14.855515238148076"><ele>862.0</ele><time>2026-04-12T10:05:26Z</time></trkpt><trkpt lat="37.85872649327788" lon="14.8558047452489"><ele>863.5</ele><time>2026-04-12T10:05:27Z</time></trkpt><trkpt lat="37.858882957560745" lon="14.856092047495917"><ele>865.0</ele><time>2026-04-12T10:05:28Z</time></trkpt><trkpt lat="37.859038083639845" lon="14.856378400964802"><ele>865.0</ele><time>2026-04-12T10:05:29Z</time></trkpt><trkpt lat="37.85919012428083" lon="14.856664560066342"><ele>865.0</ele><time>2026-04-12T10:05:30Z</time></trkpt><trkpt lat="37.85934363804054" lon="14.856951722230777"><ele>866.0</ele><time>2026-04-12T10:05:31Z</time></trkpt><trkpt lat="37.859500295848946" lon="14.857243033038607"><ele>867.0</ele><time>2026-04-12T10:05:32Z</time></trkpt><trkpt lat="37.859665968393784" lon="14.857541149191233"><ele>867.0</ele><time>2026-04-12T10:05:33Z</time></trkpt><trkpt lat="37.8598331751039" lon="14.857848417879579"><ele>867.0</ele><time>2026-04-12T10:05:34Z</time></trkpt><trkpt lat="37.86000336023428" lon="14.858163667701588"><ele>867.0</ele><time>2026-04-12T10:05:35Z</time></trkpt><trkpt lat="37.860177024920226" lon="14.858480927546749"><ele>867.0</ele><time>2026-04-12T10:05:36Z</time></trkpt><trkpt lat="37.86035362323512" lon="14.85880127742322"><ele>867.0</ele><time>2026-04-12T10:05:37Z</time></trkpt><trkpt lat="37.86052588647694" lon="14.859118606392743"><ele>867.0</ele><time>2026-04-12T10:05:38Z</time></trkpt><trkpt lat="37.860698286796456" lon="14.859443082307243"><ele>868.0</ele><time>2026-04-12T10:05:39Z</time></trkpt><trkpt lat="37.86085049407452" lon="14.85977122945764"><ele>869.0</ele><time>2026-04-12T10:05:40Z</time></trkpt><trkpt lat="37.86097081928359" lon="14.860090756486679"><ele>870.0</ele><time>2026-04-12T10:05:41Z</time></trkpt><trkpt lat="37.86106193224792" lon="14.8604226217691"><ele>871.0</ele><time>2026-04-12T10:05:42Z</time></trkpt><trkpt lat="37.8611271212372" lon="14.860765164142888"><ele>872.5</ele><time>2026-04-12T10:05:43Z</time></trkpt><trkpt lat="37.86116647959951" lon="14.861121963746466"><ele>874.0</ele><time>2026-04-12T10:05:44Z</time></trkpt><trkpt lat="37.86119126230578" lon="14.86148596778997"><ele>873.5</ele><time>2026-04-12T10:05:45Z</time></trkpt><trkpt lat="37.861201589170115" lon="14.861852558870936"><ele>873.0</ele><time>2026-04-12T10:05:46Z</time></trkpt><trkpt lat="37.86120946789515" lon="14.862220559835851"><ele>873.0</ele><time>2026-04-12T10:05:47Z</time></trkpt><trkpt lat="37.86122560671986" lon="14.862585227718673"><ele>873.0</ele><time>2026-04-12T10:05:48Z</time></trkpt><trkpt lat="37.86123964957556" lon="14.862946509477293"><ele>874.0</ele><time>2026-04-12T10:05:49Z</time></trkpt><trkpt lat="37.86125416360587" lon="14.863307379667384"><ele>875.0</ele><time>2026-04-12T10:05:50Z</time></trkpt><trkpt lat="37.86127143020061" lon="14.863665469446579"><ele>876.5</ele><time>2026-04-12T10:05:51Z</time></trkpt><trkpt lat="37.86128643417102" lon="14.864024165987818"><ele>878.0</ele><time>2026-04-12T10:05:52Z</time></trkpt><trkpt lat="37.8612976573307" lon="14.86438559734444"><ele>879.0</ele><time>2026-04-12T10:05:53Z</time></trkpt><trkpt lat="37.86130673606591" lon="14.8647475265685"><ele>880.0</ele><time>2026-04-12T10:05:54Z</time></trkpt><trkpt lat="37.8613167271827" lon="14.865111883721308"><ele>880.5</ele><time>2026-04-12T10:05:55Z</time></trkpt><trkpt lat="37.86132667492107" lon="14.865478092606196"><ele>881.0</ele><time>2026-04-12T10:05:56Z</time></trkpt><trkpt lat="37.8613367244032" lon="14.865845165427725"><ele>882.0</ele><time>2026-04-12T10:05:57Z</time></trkpt><trkpt lat="37.8613480302026" lon="14.866212858334263"><ele>883.0</ele><time>2026-04-12T10:05:58Z</time></trkpt><trkpt lat="37.86135945798225" lon="14.866581480633975"><ele>884.0</ele><time>2026-04-12T10:05:59Z</time></trkpt><trkpt lat="37.86137374280849" lon="14.866948767555892"><ele>885.0</ele><time>2026-04-12T10:06:00Z</time></trkpt><trkpt lat="37.86140265834424" lon="14.86731527959333"><ele>885.0</ele><time>2026-04-12T10:06:01Z</time></trkpt><trkpt lat="37.861471294356775" lon="14.867673643464578"><ele>885.0</ele><time>2026-04-12T10:06:02Z</time></trkpt><trkpt lat="37.86155821701472" lon="14.86803124758431"><ele>885.0</ele><time>2026-04-12T10:06:03Z</time></trkpt><trkpt lat="37.86163872115624" lon="14.868377793598752"><ele>885.0</ele><time>2026-04-12T10:06:04Z</time></trkpt><trkpt lat="37.86170737707536" lon="14.868711911951923"><ele>884.5</ele><time>2026-04-12T10:06:05Z</time></trkpt><trkpt lat="37.861786256319924" lon="14.869037484141206"><ele>884.0</ele><time>2026-04-12T10:06:06Z</time></trkpt><trkpt lat="37.861884562336535" lon="14.869360385833255"><ele>884.0</ele><time>2026-04-12T10:06:07Z</time></trkpt><trkpt lat="37.86198997480185" lon="14.869687786340213"><ele>884.0</ele><time>2026-04-12T10:06:08Z</time></trkpt><trkpt lat="37.86209849010535" lon="14.870019087887048"><ele>882.5</ele><time>2026-04-12T10:06:09Z</time></trkpt><trkpt lat="37.862203563745595" lon="14.870351458166907"><ele>881.0</ele><time>2026-04-12T10:06:10Z</time></trkpt><trkpt lat="37.862305837889224" lon="14.87068263819286"><ele>880.5</ele><time>2026-04-12T10:06:11Z</time></trkpt><trkpt lat="37.86241350682551" lon="14.871011880037809"><ele>880.0</ele><time>2026-04-12T10:06:12Z</time></trkpt><trkpt lat="37.862521749758656" lon="14.871345047379874"><ele>880.5</ele><time>2026-04-12T10:06:13Z</time></trkpt><trkpt lat="37.86262843411309" lon="14.871684363462204"><ele>881.0</ele><time>2026-04-12T10:06:14Z</time></trkpt><trkpt lat="37.862737093662325" lon="14.872028549618298"><ele>881.0</ele><time>2026-04-12T10:06:15Z</time></trkpt><trkpt lat="37.862846332898826" lon="14.872374582504925"><ele>881.0</ele><time>2026-04-12T10:06:16Z</time></trkpt><trkpt lat="37.862959509932516" lon="14.87272206841027"><ele>881.0</ele><time>2026-04-12T10:06:17Z</time></trkpt><trkpt lat="37.86307250465477" lon="14.87307423356518"><ele>881.0</ele><time>2026-04-12T10:06:18Z</time></trkpt><trkpt lat="37.863186624681376" lon="14.873430673365826"><ele>880.5</ele><time>2026-04-12T10:06:19Z</time></trkpt><trkpt lat="37.86330348439244" lon="14.873790748073827"><ele>880.0</ele><time>2026-04-12T10:06:20Z</time></trkpt><trkpt lat="37.863420370117964" lon="14.87415190646211"><ele>880.0</ele><time>2026-04-12T10:06:21Z</time></trkpt><trkpt lat="37.86353627583056" lon="14.874514154865462"><ele>880.0</ele><time>2026-04-12T10:06:22Z</time></trkpt><trkpt lat="37.86364972336585" lon="14.874877520516536"><ele>880.0</ele><time>2026-04-12T10:06:23Z</time></trkpt><trkpt lat="37.86376542838564" lon="14.875242115846673"><ele>880.0</ele><time>2026-04-12T10:06:24Z</time></trkpt><trkpt lat="37.86387964914841" lon="14.875603760934911"><ele>880.0</ele><time>2026-04-12T10:06:25Z</time></trkpt><trkpt lat="37.86399274283752" lon="14.875960593987218"><ele>880.0</ele><time>2026-04-12T10:06:26Z</time></trkpt><trkpt lat="37.86410441950022" lon="14.876310923607873"><ele>880.0</ele><time>2026-04-12T10:06:27Z</time></trkpt><trkpt lat="37.86421234515678" lon="14.876657760913517"><ele>880.0</ele><time>2026-04-12T10:06:28Z</time></trkpt><trkpt lat="37.86431562730941" lon="14.877002968280618"><ele>881.5</ele><time>2026-04-12T10:06:29Z</time></trkpt><trkpt lat="37.864421572664014" lon="14.877337050709798"><ele>883.0</ele><time>2026-04-12T10:06:30Z</time></trkpt><trkpt lat="37.864527109793556" lon="14.877651261626859"><ele>883.0</ele><time>2026-04-12T10:06:31Z</time></trkpt><trkpt lat="37.86463954826151" lon="14.877951318121296"><ele>883.0</ele><time>2026-04-12T10:06:32Z</time></trkpt><trkpt lat="37.86476549689712" lon="14.87825307510463"><ele>881.0</ele><time>2026-04-12T10:06:33Z</time></trkpt><trkpt lat="37.86490442212649" lon="14.878557341163223"><ele>879.0</ele><time>2026-04-12T10:06:34Z</time></trkpt><trkpt lat="37.86505407397225" lon="14.87886458596887"><ele>879.5</ele><time>2026-04-12T10:06:35Z</time></trkpt><trkpt lat="37.865204100350084" lon="14.879179378077342"><ele>880.0</ele><time>2026-04-12T10:06:36Z</time></trkpt><trkpt lat="37.8653507266885" lon="14.879498891119464"><ele>878.5</ele><time>2026-04-12T10:06:37Z</time></trkpt><trkpt lat="37.865496469906965" lon="14.879820279457173"><ele>877.0</ele><time>2026-04-12T10:06:38Z</time></trkpt><trkpt lat="37.86564425948723" lon="14.880144385147172"><ele>875.5</ele><time>2026-04-12T10:06:39Z</time></trkpt><trkpt lat="37.865791200292996" lon="14.880471979306213"><ele>874.0</ele><time>2026-04-12T10:06:40Z</time></trkpt><trkpt lat="37.86594111723899" lon="14.880797098578624"><ele>875.0</ele><time>2026-04-12T10:06:41Z</time></trkpt><trkpt lat="37.86608754267943" lon="14.881124946898689"><ele>876.0</ele><time>2026-04-12T10:06:42Z</time></trkpt><trkpt lat="37.86623608016431" lon="14.881451171994092"><ele>876.0</ele><time>2026-04-12T10:06:43Z</time></trkpt><trkpt lat="37.86638751973913" lon="14.881778093971382"><ele>876.0</ele><time>2026-04-12T10:06:44Z</time></trkpt><trkpt lat="37.866538406189456" lon="14.882103728994299"><ele>876.0</ele><time>2026-04-12T10:06:45Z</time></trkpt><trkpt lat="37.866687308825135" lon="14.8824316237874"><ele>876.0</ele><time>2026-04-12T10:06:46Z</time></trkpt><trkpt lat="37.86683582759409" lon="14.88276092540968"><ele>875.5</ele><time>2026-04-12T10:06:47Z</time></trkpt><trkpt lat="37.86698669728465" lon="14.883089814322995"><ele>875.0</ele><time>2026-04-12T10:06:48Z</time></trkpt><trkpt lat="37.86713869106756" lon="14.883418063123376"><ele>874.5</ele><time>2026-04-12T10:06:49Z</time></trkpt><trkpt lat="37.867289495157245" lon="14.883747365433663"><ele>874.0</ele><time>2026-04-12T10:06:50Z</time></trkpt><trkpt lat="37.867439777177154" lon="14.884074422724908"><ele>873.0</ele><time>2026-04-12T10:06:51Z</time></trkpt><trkpt lat="37.867588276815106" lon="14.88439964521152"><ele>872.0</ele><time>2026-04-12T10:06:52Z</time></trkpt><trkpt lat="37.86773637876055" lon="14.884724960662703"><ele>872.0</ele><time>2026-04-12T10:06:53Z</time></trkpt><trkpt lat="37.86788368674561" lon="14.885047857668551"><ele>872.0</ele><time>2026-04-12T10:06:54Z</time></trkpt><trkpt lat="37.86802812017072" lon="14.88536849331247"><ele>871.5</ele><time>2026-04-12T10:06:55Z</time></trkpt><trkpt lat="37.86816963368164" lon="14.885684798689455"><ele>871.0</ele><time>2026-04-12T10:06:56Z</time></trkpt><trkpt lat="37.86830926200565" lon="14.885992337167231"><ele>871.0</ele><time>2026-04-12T10:06:57Z</time></trkpt><trkpt lat="37.8684475738337" lon="14.886282497468645"><ele>871.0</ele><time>2026-04-12T10:06:58Z</time></trkpt><trkpt lat="37.86859233132658" lon="14.886561840218063"><ele>871.0</ele><time>2026-04-12T10:06:59Z</time></trkpt><trkpt lat="37.86874604301953" lon="14.886836516147628"><ele>871.0</ele><time>2026-04-12T10:07:00Z</time></trkpt><trkpt lat="37.86890844859952" lon="14.887107434811975"><ele>871.0</ele><time>2026-04-12T10:07:01Z</time></trkpt><trkpt lat="37.86907167947911" lon="14.887384615839737"><ele>871.0</ele><time>2026-04-12T10:07:02Z</time></trkpt><trkpt lat="37.86923067270579" lon="14.887658816436003"><ele>869.0</ele><time>2026-04-12T10:07:03Z</time></trkpt><trkpt lat="37.8693789794267" lon="14.887910250642872"><ele>867.0</ele><time>2026-04-12T10:07:04Z</time></trkpt><trkpt lat="37.86951919452692" lon="14.888151619337583"><ele>867.0</ele><time>2026-04-12T10:07:05Z</time></trkpt><trkpt lat="37.869650057880314" lon="14.888385837910318"><ele>867.0</ele><time>2026-04-12T10:07:06Z</time></trkpt><trkpt lat="37.869779124093" lon="14.888602711290597"><ele>867.0</ele><time>2026-04-12T10:07:07Z</time></trkpt><trkpt lat="37.8699003849654" lon="14.888811877382887"><ele>868.0</ele><time>2026-04-12T10:07:08Z</time></trkpt><trkpt lat="37.870019160134184" lon="14.889021504086502"><ele>869.0</ele><time>2026-04-12T10:07:09Z</time></trkpt><trkpt lat="37.87013143529994" lon="14.889247219735607"><ele>870.0</ele><time>2026-04-12T10:07:10Z</time></trkpt><trkpt lat="37.870218923031125" lon="14.889497487560826"><ele>873.0</ele><time>2026-04-12T10:07:11Z</time></trkpt><trkpt lat="37.87027062122012" lon="14.889766107548636"><ele>876.0</ele><time>2026-04-12T10:07:12Z</time></trkpt><trkpt lat="37.870294246180634" lon="14.8900446377122"><ele>879.0</ele><time>2026-04-12T10:07:13Z</time></trkpt><trkpt lat="37.87028492567247" lon="14.890322059162582"><ele>879.0</ele><time>2026-04-12T10:07:14Z</time></trkpt><trkpt lat="37.87024329298644" lon="14.890594776443619"><ele>879.0</ele><time>2026-04-12T10:07:15Z</time></trkpt><trkpt lat="37.87017631247816" lon="14.890863371798533"><ele>879.0</ele><time>2026-04-12T10:07:16Z</time></trkpt><trkpt lat="37.87009022182581" lon="14.891125060315165"><ele>879.0</ele><time>2026-04-12T10:07:17Z</time></trkpt><trkpt lat="37.86998221587497" lon="14.891375428208226"><ele>879.0</ele><time>2026-04-12T10:07:18Z</time></trkpt><trkpt lat="37.86987810590009" lon="14.891627589442251"><ele>878.6666666666667</ele><time>2026-04-12T10:07:19Z</time></trkpt><trkpt lat="37.86978094337745" lon="14.891865913781144"><ele>878.3333333333334</ele><time>2026-04-12T10:07:20Z</time></trkpt><trkpt lat="37.869686343464394" lon="14.892091606631782"><ele>878.0</ele><time>2026-04-12T10:07:21Z</time></trkpt><trkpt lat="37.86959133986181" lon="14.892302726716828"><ele>878.0</ele><time>2026-04-12T10:07:22Z</time></trkpt><trkpt lat="37.86949098984623" lon="14.892501198478612"><ele>878.0</ele><time>2026-04-12T10:07:23Z</time></trkpt><trkpt lat="37.86938586706091" lon="14.892693076643111"><ele>878.0</ele><time>2026-04-12T10:07:24Z</time></trkpt><trkpt lat="37.86927990746102" lon="14.892887960166846"><ele>875.3333333333334</ele><time>2026-04-12T10:07:25Z</time></trkpt><trkpt lat="37.86918183635244" lon="14.893072483356605"><ele>872.6666666666667</ele><time>2026-04-12T10:07:26Z</time></trkpt><trkpt lat="37.869098901171675" lon="14.893238913448226"><ele>870.0</ele><time>2026-04-12T10:07:27Z</time></trkpt><trkpt lat="37.86902755272572" lon="14.893382199330079"><ele>871.25</ele><time>2026-04-12T10:07:28Z</time></trkpt><trkpt lat="37.868954398913004" lon="14.8935184020595"><ele>872.5</ele><time>2026-04-12T10:07:29Z</time></trkpt><trkpt lat="37.86888173833052" lon="14.893643631995804"><ele>873.75</ele><time>2026-04-12T10:07:30Z</time></trkpt><trkpt lat="37.86880936057684" lon="14.893765535026583"><ele>875.0</ele><time>2026-04-12T10:07:31Z</time></trkpt><trkpt lat="37.86873915396718" lon="14.89389401770504"><ele>875.0</ele><time>2026-04-12T10:07:32Z</time></trkpt><trkpt lat="37.868676661842926" lon="14.894019993818558"><ele>875.0</ele><time>2026-04-12T10:07:33Z</time></trkpt><trkpt lat="37.86861873119902" lon="14.894140020924842"><ele>875.0</ele><time>2026-04-12T10:07:34Z</time></trkpt><trkpt lat="37.868556965920355" lon="14.89426542038583"><ele>875.0</ele><time>2026-04-12T10:07:35Z</time></trkpt><trkpt lat="37.86849615372718" lon="14.894395050878572"><ele>874.25</ele><time>2026-04-12T10:07:36Z</time></trkpt><trkpt lat="37.868441388544056" lon="14.894532124155926"><ele>873.5</ele><time>2026-04-12T10:07:37Z</time></trkpt><trkpt lat="37.868390591506646" lon="14.894677165474013"><ele>872.75</ele><time>2026-04-12T10:07:38Z</time></trkpt><trkpt lat="37.86835113317244" lon="14.89483279080537"><ele>872.0</ele><time>2026-04-12T10:07:39Z</time></trkpt><trkpt lat="37.86831853454374" lon="14.894995712083235"><ele>871.6666666666667</ele><time>2026-04-12T10:07:40Z</time></trkpt><trkpt lat="37.868293435684954" lon="14.89518302428979"><ele>871.3333333333333</ele><time>2026-04-12T10:07:41Z</time></trkpt><trkpt lat="37.868258201376996" lon="14.895406383873624"><ele>871.0</ele><time>2026-04-12T10:07:42Z</time></trkpt><trkpt lat="37.868254703701034" lon="14.895667447975262"><ele>869.0</ele><time>2026-04-12T10:07:43Z</time></trkpt><trkpt lat="37.86823299611134" lon="14.8959680629093"><ele>867.0</ele><time>2026-04-12T10:07:44Z</time></trkpt><trkpt lat="37.868210457821355" lon="14.896308435806104"><ele>867.0</ele><time>2026-04-12T10:07:45Z</time></trkpt><trkpt lat="37.86818735829669" lon="14.896690415548514"><ele>867.0</ele><time>2026-04-12T10:07:46Z</time></trkpt><trkpt lat="37.86815914213333" lon="14.897101743627159"><ele>865.5</ele><time>2026-04-12T10:07:47Z</time></trkpt><trkpt lat="37.868135889499555" lon="14.897541700938877"><ele>864.0</ele><time>2026-04-12T10:07:48Z</time></trkpt><trkpt lat="37.86810918549152" lon="14.897999442770157"><ele>863.0</ele><time>2026-04-12T10:07:49Z</time></trkpt><trkpt lat="37.868085624543575" lon="14.898474546907883"><ele>862.0</ele><time>2026-04-12T10:07:50Z</time></trkpt><trkpt lat="37.868061885852356" lon="14.89896195080076"><ele>862.5</ele><time>2026-04-12T10:07:51Z</time></trkpt><trkpt lat="37.86804354192811" lon="14.89946770078395"><ele>863.0</ele><time>2026-04-12T10:07:52Z</time></trkpt><trkpt lat="37.86802180874656" lon="14.89998128248507"><ele>863.5</ele><time>2026-04-12T10:07:53Z</time></trkpt><trkpt lat="37.86799232511863" lon="14.90049827369352"><ele>864.0</ele><time>2026-04-12T10:07:54Z</time></trkpt><trkpt lat="37.867963812057205" lon="14.901023382636655"><ele>864.0</ele><time>2026-04-12T10:07:55Z</time></trkpt><trkpt lat="37.86794000143025" lon="14.901556128870132"><ele>864.0</ele><time>2026-04-12T10:07:56Z</time></trkpt><trkpt lat="37.8679222452112" lon="14.902068969225239"><ele>862.5</ele><time>2026-04-12T10:07:57Z</time></trkpt><trkpt lat="37.86789761032698" lon="14.902551596076568"><ele>861.0</ele><time>2026-04-12T10:07:58Z</time></trkpt><trkpt lat="37.86786608676752" lon="14.903019591871999"><ele>860.0</ele><time>2026-04-12T10:07:59Z</time></trkpt><trkpt lat="37.86783654648577" lon="14.903476549178905"><ele>859.0</ele><time>2026-04-12T10:08:00Z</time></trkpt><trkpt lat="37.86781355779702" lon="14.90389826013318"><ele>860.0</ele><time>2026-04-12T10:08:01Z</time></trkpt><trkpt lat="37.86779618785295" lon="14.904271256800044"><ele>861.0</ele><time>2026-04-12T10:08:02Z</time></trkpt><trkpt lat="37.86777818279776" lon="14.904615245804449"><ele>861.0</ele><time>2026-04-12T10:08:03Z</time></trkpt><trkpt lat="37.86776042224179" lon="14.904938849051847"><ele>861.0</ele><time>2026-04-12T10:08:04Z</time></trkpt><trkpt lat="37.86774281066945" lon="14.90524618782915"><ele>861.0</ele><time>2026-04-12T10:08:05Z</time></trkpt><trkpt lat="37.867728228044164" lon="14.905538979039415"><ele>861.0</ele><time>2026-04-12T10:08:06Z</time></trkpt><trkpt lat="37.86771487800652" lon="14.905819036755462"><ele>861.3333333333333</ele><time>2026-04-12T10:08:07Z</time></trkpt><trkpt lat="37.86770065832533" lon="14.906084065735879"><ele>861.6666666666666</ele><time>2026-04-12T10:08:08Z</time></trkpt><trkpt lat="37.867684818144845" lon="14.906346392101687"><ele>862.0</ele><time>2026-04-12T10:08:09Z</time></trkpt><trkpt lat="37.86766101504162" lon="14.906607821874376"><ele>861.6666666666666</ele><time>2026-04-12T10:08:10Z</time></trkpt><trkpt lat="37.867624584082044" lon="14.906860772994541"><ele>861.3333333333333</ele><time>2026-04-12T10:08:11Z</time></trkpt><trkpt lat="37.867570512812335" lon="14.907098303332294"><ele>861.0</ele><time>2026-04-12T10:08:12Z</time></trkpt><trkpt lat="37.86750218321978" lon="14.907338112879689"><ele>861.6666666666667</ele><time>2026-04-12T10:08:13Z</time></trkpt><trkpt lat="37.867430505932965" lon="14.907580023875965"><ele>862.3333333333334</ele><time>2026-04-12T10:08:14Z</time></trkpt><trkpt lat="37.867356483171825" lon="14.907824729672742"><ele>863.0</ele><time>2026-04-12T10:08:15Z</time></trkpt><trkpt lat="37.867277724987936" lon="14.908065131194162"><ele>863.0</ele><time>2026-04-12T10:08:16Z</time></trkpt><trkpt lat="37.86719445825621" lon="14.908303307207627"><ele>863.0</ele><time>2026-04-12T10:08:17Z</time></trkpt><trkpt lat="37.86711296138874" lon="14.908542701754618"><ele>863.0</ele><time>2026-04-12T10:08:18Z</time></trkpt><trkpt lat="37.8670336694885" lon="14.908783124787764"><ele>861.3333333333334</ele><time>2026-04-12T10:08:19Z</time></trkpt><trkpt lat="37.86695432678301" lon="14.909025557422872"><ele>859.6666666666667</ele><time>2026-04-12T10:08:20Z</time></trkpt><trkpt lat="37.86687176216311" lon="14.909266306721769"><ele>858.0</ele><time>2026-04-12T10:08:21Z</time></trkpt><trkpt lat="37.86678826514799" lon="14.909510379415071"><ele>857.6666666666667</ele><time>2026-04-12T10:08:22Z</time></trkpt><trkpt lat="37.86670538431515" lon="14.909757821629476"><ele>857.3333333333334</ele><time>2026-04-12T10:08:23Z</time></trkpt><trkpt lat="37.86662149292071" lon="14.91000740056309"><ele>857.0</ele><time>2026-04-12T10:08:24Z</time></trkpt><trkpt lat="37.86653684469376" lon="14.910259309066154"><ele>857.0</ele><time>2026-04-12T10:08:25Z</time></trkpt><trkpt lat="37.86644925608454" lon="14.910512708988483"><ele>857.0</ele><time>2026-04-12T10:08:26Z</time></trkpt><trkpt lat="37.866360712179635" lon="14.910769857730067"><ele>857.0</ele><time>2026-04-12T10:08:27Z</time></trkpt><trkpt lat="37.866272318298876" lon="14.911034666703067"><ele>855.5</ele><time>2026-04-12T10:08:28Z</time></trkpt><trkpt lat="37.86617878544953" lon="14.911302472740784"><ele>854.0</ele><time>2026-04-12T10:08:29Z</time></trkpt><trkpt lat="37.86608400812784" lon="14.911577699933243"><ele>854.5</ele><time>2026-04-12T10:08:30Z</time></trkpt><trkpt lat="37.86598827401938" lon="14.911860327584428"><ele>855.0</ele><time>2026-04-12T10:08:31Z</time></trkpt><trkpt lat="37.865890999102106" lon="14.912141207208208"><ele>855.0</ele><time>2026-04-12T10:08:32Z</time></trkpt><trkpt lat="37.865805309044944" lon="14.912422318095752"><ele>855.0</ele><time>2026-04-12T10:08:33Z</time></trkpt><trkpt lat="37.86574480439431" lon="14.912703897057948"><ele>855.0</ele><time>2026-04-12T10:08:34Z</time></trkpt><trkpt lat="37.86571209591068" lon="14.91299038547872"><ele>855.0</ele><time>2026-04-12T10:08:35Z</time></trkpt><trkpt lat="37.865710152563445" lon="14.913282789969044"><ele>853.5</ele><time>2026-04-12T10:08:36Z</time></trkpt><trkpt lat="37.8657416460616" lon="14.913577902273824"><ele>852.0</ele><time>2026-04-12T10:08:37Z</time></trkpt><trkpt lat="37.865794348957955" lon="14.91387466059115"><ele>852.0</ele><time>2026-04-12T10:08:38Z</time></trkpt><trkpt lat="37.86585455607444" lon="14.914183293921402"><ele>852.0</ele><time>2026-04-12T10:08:39Z</time></trkpt><trkpt lat="37.86590861381023" lon="14.914504309999673"><ele>849.5</ele><time>2026-04-12T10:08:40Z</time></trkpt><trkpt lat="37.8659631965314" lon="14.9148264682795"><ele>847.0</ele><time>2026-04-12T10:08:41Z</time></trkpt><trkpt lat="37.866012841610406" lon="14.915131737407007"><ele>846.0</ele><time>2026-04-12T10:08:42Z</time></trkpt><trkpt lat="37.866056836340206" lon="14.91541491369856"><ele>845.0</ele><time>2026-04-12T10:08:43Z</time></trkpt><trkpt lat="37.866098619023774" lon="14.915674231866692"><ele>844.0</ele><time>2026-04-12T10:08:44Z</time></trkpt><trkpt lat="37.86613944003187" lon="14.915922489741181"><ele>843.0</ele><time>2026-04-12T10:08:45Z</time></trkpt><trkpt lat="37.86617872902636" lon="14.916165177755037"><ele>842.0</ele><time>2026-04-12T10:08:46Z</time></trkpt><trkpt lat="37.86621656549262" lon="14.916414493138754"><ele>841.0</ele><time>2026-04-12T10:08:47Z</time></trkpt><trkpt lat="37.86626375336801" lon="14.916669831872172"><ele>840.6666666666666</ele><time>2026-04-12T10:08:48Z</time></trkpt><trkpt lat="37.86634312480269" lon="14.916924409167976"><ele>840.3333333333333</ele><time>2026-04-12T10:08:49Z</time></trkpt><trkpt lat="37.86644089973834" lon="14.917181162007102"><ele>840.0</ele><time>2026-04-12T10:08:50Z</time></trkpt><trkpt lat="37.8665417278611" lon="14.917453172364725"><ele>839.0</ele><time>2026-04-12T10:08:51Z</time></trkpt><trkpt lat="37.866643703441895" lon="14.917732306626277"><ele>838.0</ele><time>2026-04-12T10:08:52Z</time></trkpt><trkpt lat="37.866744546023966" lon="14.918011782635931"><ele>837.0</ele><time>2026-04-12T10:08:53Z</time></trkpt><trkpt lat="37.866846959062286" lon="14.918295531413646"><ele>836.0</ele><time>2026-04-12T10:08:54Z</time></trkpt><trkpt lat="37.86694717483541" lon="14.918571385171322"><ele>835.5</ele><time>2026-04-12T10:08:55Z</time></trkpt><trkpt lat="37.86704439582128" lon="14.918838996994038"><ele>835.0</ele><time>2026-04-12T10:08:56Z</time></trkpt><trkpt lat="37.86713730451038" lon="14.919099108421968"><ele>835.0</ele><time>2026-04-12T10:08:57Z</time></trkpt><trkpt lat="37.867226049389025" lon="14.919350741454846"><ele>835.0</ele><time>2026-04-12T10:08:58Z</time></trkpt><trkpt lat="37.86730893976605" lon="14.919589997634702"><ele>835.0</ele><time>2026-04-12T10:08:59Z</time></trkpt><trkpt lat="37.867391509660365" lon="14.9198176504504"><ele>835.0</ele><time>2026-04-12T10:09:00Z</time></trkpt><trkpt lat="37.86747341574067" lon="14.920042440022435"><ele>835.0</ele><time>2026-04-12T10:09:01Z</time></trkpt><trkpt lat="37.867556374338825" lon="14.920270393962939"><ele>835.0</ele><time>2026-04-12T10:09:02Z</time></trkpt><trkpt lat="37.8676409365616" lon="14.92050214256907"><ele>833.6666666666666</ele><time>2026-04-12T10:09:03Z</time></trkpt><trkpt lat="37.867728642145835" lon="14.920738235613365"><ele>832.3333333333333</ele><time>2026-04-12T10:09:04Z</time></trkpt><trkpt lat="37.867815397402794" lon="14.92097602296673"><ele>831.0</ele><time>2026-04-12T10:09:05Z</time></trkpt><trkpt lat="37.86790393259182" lon="14.921219331503618"><ele>830.6666666666667</ele><time>2026-04-12T10:09:06Z</time></trkpt><trkpt lat="37.867992302963316" lon="14.92147121722603"><ele>830.3333333333334</ele><time>2026-04-12T10:09:07Z</time></trkpt><trkpt lat="37.86808315646131" lon="14.92172721452371"><ele>830.0</ele><time>2026-04-12T10:09:08Z</time></trkpt><trkpt lat="37.86817610226972" lon="14.921981236682443"><ele>830.0</ele><time>2026-04-12T10:09:09Z</time></trkpt><trkpt lat="37.8682682168572" lon="14.922235262751114"><ele>830.0</ele><time>2026-04-12T10:09:10Z</time></trkpt><trkpt lat="37.868361660852365" lon="14.922490299980753"><ele>830.0</ele><time>2026-04-12T10:09:11Z</time></trkpt><trkpt lat="37.868451755154325" lon="14.922739564541354"><ele>829.3333333333334</ele><time>2026-04-12T10:09:12Z</time></trkpt><trkpt lat="37.86854096647142" lon="14.922982541203494"><ele>828.6666666666667</ele><time>2026-04-12T10:09:13Z</time></trkpt><trkpt lat="37.86862681963163" lon="14.923220445388816"><ele>828.0</ele><time>2026-04-12T10:09:14Z</time></trkpt><trkpt lat="37.868710510621874" lon="14.923451421248757"><ele>827.6666666666667</ele><time>2026-04-12T10:09:15Z</time></trkpt><trkpt lat="37.868794717798075" lon="14.923680240384883"><ele>827.3333333333334</ele><time>2026-04-12T10:09:16Z</time></trkpt><trkpt lat="37.86888056969615" lon="14.923913536961104"><ele>827.0</ele><time>2026-04-12T10:09:17Z</time></trkpt><trkpt lat="37.86896359858896" lon="14.924146010215622"><ele>827.3333333333334</ele><time>2026-04-12T10:09:18Z</time></trkpt><trkpt lat="37.86904584617009" lon="14.924378245419627"><ele>827.6666666666667</ele><time>2026-04-12T10:09:19Z</time></trkpt><trkpt lat="37.869129484003736" lon="14.924610945102161"><ele>828.0</ele><time>2026-04-12T10:09:20Z</time></trkpt><trkpt lat="37.86921525599526" lon="14.924846558613423"><ele>827.3333333333333</ele><time>2026-04-12T10:09:21Z</time></trkpt><trkpt lat="37.869302859536816" lon="14.925083708195455"><ele>826.6666666666666</ele><time>2026-04-12T10:09:22Z</time></trkpt><trkpt lat="37.869390350699824" lon="14.925323194315869"><ele>826.0</ele><time>2026-04-12T10:09:23Z</time></trkpt><trkpt lat="37.86947809957693" lon="14.925563655685304"><ele>826.0</ele><time>2026-04-12T10:09:24Z</time></trkpt><trkpt lat="37.869565400734615" lon="14.925797264949384"><ele>826.0</ele><time>2026-04-12T10:09:25Z</time></trkpt><trkpt lat="37.86965050310916" lon="14.926025256945493"><ele>826.0</ele><time>2026-04-12T10:09:26Z</time></trkpt><trkpt lat="37.869733310421694" lon="14.926250518433386"><ele>824.3333333333333</ele><time>2026-04-12T10:09:27Z</time></trkpt><trkpt lat="37.869815709768055" lon="14.92647607933359"><ele>822.6666666666667</ele><time>2026-04-12T10:09:28Z</time></trkpt><trkpt lat="37.86989528357999" lon="14.926710275571477"><ele>821.0</ele><time>2026-04-12T10:09:29Z</time></trkpt><trkpt lat="37.86996042661738" lon="14.926955426935303"><ele>820.3333333333334</ele><time>2026-04-12T10:09:30Z</time></trkpt><trkpt lat="37.86999574820119" lon="14.927217437569798"><ele>819.6666666666667</ele><time>2026-04-12T10:09:31Z</time></trkpt><trkpt lat="37.87000562535544" lon="14.927484806272467"><ele>819.0</ele><time>2026-04-12T10:09:32Z</time></trkpt><trkpt lat="37.87000670697795" lon="14.927747118804907"><ele>819.0</ele><time>2026-04-12T10:09:33Z</time></trkpt><trkpt lat="37.87001161251053" lon="14.92799875738737"><ele>819.0</ele><time>2026-04-12T10:09:34Z</time></trkpt><trkpt lat="37.870018273526505" lon="14.928244670524572"><ele>819.0</ele><time>2026-04-12T10:09:35Z</time></trkpt><trkpt lat="37.87002832137022" lon="14.92848695600721"><ele>818.5</ele><time>2026-04-12T10:09:36Z</time></trkpt><trkpt lat="37.87003660143458" lon="14.928718439263925"><ele>818.0</ele><time>2026-04-12T10:09:37Z</time></trkpt><trkpt lat="37.870042384268714" lon="14.928899321315987"><ele>817.5</ele><time>2026-04-12T10:09:38Z</time></trkpt><trkpt lat="37.87004595053034" lon="14.929042492850288"><ele>817.0</ele><time>2026-04-12T10:09:39Z</time></trkpt><trkpt lat="37.87005256373153" lon="14.929152855061185"><ele>816.3333333333333</ele><time>2026-04-12T10:09:40Z</time></trkpt><trkpt lat="37.8700489098909" lon="14.929241600503426"><ele>815.6666666666666</ele><time>2026-04-12T10:09:41Z</time></trkpt><trkpt lat="37.870049748202504" lon="14.929394184923947"><ele>815.0</ele><time>2026-04-12T10:09:43Z</time></trkpt><trkpt lat="37.87004846847574" lon="14.929492678246637"><ele>814.3333333333333</ele><time>2026-04-12T10:09:45Z</time></trkpt><trkpt lat="37.87000558052577" lon="14.929590169912068"><ele>813.6666666666666</ele><time>2026-04-12T10:10:08Z</time></trkpt><trkpt lat="37.870016564789545" lon="14.929683754543214"><ele>813.0</ele><time>2026-04-12T10:10:09Z</time></trkpt><trkpt lat="37.870036860435306" lon="14.929800696636594"><ele>813.0</ele><time>2026-04-12T10:10:10Z</time></trkpt><trkpt lat="37.870052369809656" lon="14.929944742538916"><ele>813.0</ele><time>2026-04-12T10:10:11Z</time></trkpt><trkpt lat="37.87008519637629" lon="14.930121522403363"><ele>813.0</ele><time>2026-04-12T10:10:12Z</time></trkpt><trkpt lat="37.87013968349958" lon="14.930299714401048"><ele>813.0</ele><time>2026-04-12T10:10:13Z</time></trkpt><trkpt lat="37.87022023013576" lon="14.930502865098711"><ele>812.0</ele><time>2026-04-12T10:10:14Z</time></trkpt><trkpt lat="37.87032119153268" lon="14.930708837046865"><ele>811.0</ele><time>2026-04-12T10:10:15Z</time></trkpt><trkpt lat="37.87043762349709" lon="14.93090848849938"><ele>810.0</ele><time>2026-04-12T10:10:16Z</time></trkpt><trkpt lat="37.87057662648504" lon="14.931097016198564"><ele>810.0</ele><time>2026-04-12T10:10:17Z</time></trkpt><trkpt lat="37.870738977887065" lon="14.93126218677783"><ele>810.0</ele><time>2026-04-12T10:10:18Z</time></trkpt><trkpt lat="37.870908820268106" lon="14.93140048996655"><ele>810.0</ele><time>2026-04-12T10:10:19Z</time></trkpt><trkpt lat="37.87107993178508" lon="14.931518820285765"><ele>809.0</ele><time>2026-04-12T10:10:20Z</time></trkpt><trkpt lat="37.87124746626284" lon="14.931615494243815"><ele>808.0</ele><time>2026-04-12T10:10:21Z</time></trkpt><trkpt lat="37.87140574109067" lon="14.931703530357812"><ele>807.0</ele><time>2026-04-12T10:10:22Z</time></trkpt><trkpt lat="37.87157348553954" lon="14.931794085941005"><ele>807.0</ele><time>2026-04-12T10:10:23Z</time></trkpt><trkpt lat="37.87173703546085" lon="14.93191057595263"><ele>807.0</ele><time>2026-04-12T10:10:24Z</time></trkpt><trkpt lat="37.871876789331466" lon="14.932068459177744"><ele>807.0</ele><time>2026-04-12T10:10:25Z</time></trkpt><trkpt lat="37.87198930475082" lon="14.93225639450762"><ele>803.0</ele><time>2026-04-12T10:10:26Z</time></trkpt><trkpt lat="37.872076213372324" lon="14.932465912882481"><ele>799.0</ele><time>2026-04-12T10:10:27Z</time></trkpt><trkpt lat="37.87216969312245" lon="14.932673918173803"><ele>795.0</ele><time>2026-04-12T10:10:28Z</time></trkpt><trkpt lat="37.87223996560105" lon="14.932897092980248"><ele>795.0</ele><time>2026-04-12T10:10:29Z</time></trkpt><trkpt lat="37.872298270592175" lon="14.933131459849546"><ele>795.0</ele><time>2026-04-12T10:10:30Z</time></trkpt><trkpt lat="37.87234758149893" lon="14.933384959189251"><ele>795.0</ele><time>2026-04-12T10:10:31Z</time></trkpt><trkpt lat="37.872366302363716" lon="14.933663253407268"><ele>794.0</ele><time>2026-04-12T10:10:32Z</time></trkpt><trkpt lat="37.872362141683126" lon="14.933934907822122"><ele>793.0</ele><time>2026-04-12T10:10:33Z</time></trkpt><trkpt lat="37.87234521827075" lon="14.934202039296446"><ele>792.0</ele><time>2026-04-12T10:10:34Z</time></trkpt><trkpt lat="37.872342043844654" lon="14.93448192437973"><ele>791.3333333333333</ele><time>2026-04-12T10:10:35Z</time></trkpt><trkpt lat="37.87234835262944" lon="14.934756585666427"><ele>790.6666666666666</ele><time>2026-04-12T10:10:36Z</time></trkpt><trkpt lat="37.872359781703814" lon="14.935016456818666"><ele>790.0</ele><time>2026-04-12T10:10:37Z</time></trkpt><trkpt lat="37.87237809948595" lon="14.935264053665502"><ele>791.0</ele><time>2026-04-12T10:10:38Z</time></trkpt><trkpt lat="37.87240586669121" lon="14.935496868800223"><ele>792.0</ele><time>2026-04-12T10:10:39Z</time></trkpt><trkpt lat="37.87243263698031" lon="14.935706758596337"><ele>793.0</ele><time>2026-04-12T10:10:40Z</time></trkpt><trkpt lat="37.87243431521384" lon="14.93589979634444"><ele>793.0</ele><time>2026-04-12T10:10:41Z</time></trkpt><trkpt lat="37.8723932195763" lon="14.936119284932158"><ele>793.0</ele><time>2026-04-12T10:10:42Z</time></trkpt><trkpt lat="37.87236686652191" lon="14.936336158784961"><ele>793.0</ele><time>2026-04-12T10:10:43Z</time></trkpt><trkpt lat="37.87237431871525" lon="14.936566974605482"><ele>793.0</ele><time>2026-04-12T10:10:44Z</time></trkpt><trkpt lat="37.87240382183895" lon="14.936808225345574"><ele>793.0</ele><time>2026-04-12T10:10:45Z</time></trkpt><trkpt lat="37.872453007434906" lon="14.937046552592"><ele>793.0</ele><time>2026-04-12T10:10:46Z</time></trkpt><trkpt lat="37.87252126121635" lon="14.937277337709272"><ele>792.6666666666666</ele><time>2026-04-12T10:10:47Z</time></trkpt><trkpt lat="37.87261201308075" lon="14.937499300123983"><ele>792.3333333333333</ele><time>2026-04-12T10:10:48Z</time></trkpt><trkpt lat="37.87273147119302" lon="14.937691180537426"><ele>792.0</ele><time>2026-04-12T10:10:49Z</time></trkpt><trkpt lat="37.87288277549951" lon="14.93783653409174"><ele>794.6666666666667</ele><time>2026-04-12T10:10:50Z</time></trkpt><trkpt lat="37.873051874630136" lon="14.937939859670736"><ele>797.3333333333334</ele><time>2026-04-12T10:10:51Z</time></trkpt><trkpt lat="37.87321265500669" lon="14.93803098888907"><ele>800.0</ele><time>2026-04-12T10:10:52Z</time></trkpt><trkpt lat="37.8733607628702" lon="14.938126627478647"><ele>799.6666666666667</ele><time>2026-04-12T10:10:53Z</time></trkpt><trkpt lat="37.873493210761815" lon="14.938235314528626"><ele>799.3333333333333</ele><time>2026-04-12T10:10:54Z</time></trkpt><trkpt lat="37.873608037252886" lon="14.938377745406825"><ele>799.0</ele><time>2026-04-12T10:10:55Z</time></trkpt><trkpt lat="37.87370010403703" lon="14.938555991187302"><ele>799.0</ele><time>2026-04-12T10:10:56Z</time></trkpt><trkpt lat="37.87379102208711" lon="14.938753978697461"><ele>799.0</ele><time>2026-04-12T10:10:57Z</time></trkpt><trkpt lat="37.873883646281726" lon="14.93895976466363"><ele>799.0</ele><time>2026-04-12T10:10:58Z</time></trkpt><trkpt lat="37.87397445923058" lon="14.939166438827687"><ele>800.6666666666666</ele><time>2026-04-12T10:10:59Z</time></trkpt><trkpt lat="37.87405236735757" lon="14.93936452031606"><ele>802.3333333333333</ele><time>2026-04-12T10:11:00Z</time></trkpt><trkpt lat="37.87412533360603" lon="14.939546197122493"><ele>804.0</ele><time>2026-04-12T10:11:01Z</time></trkpt><trkpt lat="37.874193518836236" lon="14.939719441238635"><ele>804.0</ele><time>2026-04-12T10:11:02Z</time></trkpt><trkpt lat="37.874255543599546" lon="14.939887153798702"><ele>804.0</ele><time>2026-04-12T10:11:03Z</time></trkpt><trkpt lat="37.87432135318267" lon="14.94004968180345"><ele>804.0</ele><time>2026-04-12T10:11:04Z</time></trkpt><trkpt lat="37.874390416850474" lon="14.940202841022726"><ele>804.0</ele><time>2026-04-12T10:11:05Z</time></trkpt><trkpt lat="37.874448170353794" lon="14.940366026751098"><ele>801.5</ele><time>2026-04-12T10:11:06Z</time></trkpt><trkpt lat="37.87448614119101" lon="14.940537358545084"><ele>799.0</ele><time>2026-04-12T10:11:07Z</time></trkpt><trkpt lat="37.87451382229528" lon="14.940715070762955"><ele>796.5</ele><time>2026-04-12T10:11:08Z</time></trkpt><trkpt lat="37.87452802354696" lon="14.940890308180018"><ele>794.0</ele><time>2026-04-12T10:11:09Z</time></trkpt><trkpt lat="37.8745411108686" lon="14.941057332267258"><ele>793.0</ele><time>2026-04-12T10:11:10Z</time></trkpt><trkpt lat="37.874547303391786" lon="14.941219534801819"><ele>792.0</ele><time>2026-04-12T10:11:11Z</time></trkpt><trkpt lat="37.874548708312744" lon="14.941377496492587"><ele>791.0</ele><time>2026-04-12T10:11:12Z</time></trkpt><trkpt lat="37.87454687789213" lon="14.941531913710573"><ele>790.0</ele><time>2026-04-12T10:11:13Z</time></trkpt><trkpt lat="37.87454467530658" lon="14.941681177184467"><ele>788.2</ele><time>2026-04-12T10:11:14Z</time></trkpt><trkpt lat="37.87454118188651" lon="14.941824664401928"><ele>786.4</ele><time>2026-04-12T10:11:15Z</time></trkpt><trkpt lat="37.87453074476205" lon="14.941962105305548"><ele>784.5999999999999</ele><time>2026-04-12T10:11:16Z</time></trkpt><trkpt lat="37.87451923865536" lon="14.942086153593293"><ele>782.8</ele><time>2026-04-12T10:11:17Z</time></trkpt><trkpt lat="37.87450281341612" lon="14.942196744023766"><ele>781.0</ele><time>2026-04-12T10:11:18Z</time></trkpt><trkpt lat="37.874480604578885" lon="14.94229333370634"><ele>780.9999999999999</ele><time>2026-04-12T10:11:19Z</time></trkpt><trkpt lat="37.87446299941677" lon="14.942390829778496"><ele>781.0</ele><time>2026-04-12T10:11:20Z</time></trkpt><trkpt lat="37.87444689937663" lon="14.94248145514159"><ele>781.0</ele><time>2026-04-12T10:11:21Z</time></trkpt><trkpt lat="37.87443923740157" lon="14.942580837763495"><ele>781.0</ele><time>2026-04-12T10:11:22Z</time></trkpt><trkpt lat="37.87445735756636" lon="14.942685341444758"><ele>780.9999999999999</ele><time>2026-04-12T10:11:23Z</time></trkpt><trkpt lat="37.874504987825865" lon="14.942782264346867"><ele>781.0</ele><time>2026-04-12T10:11:24Z</time></trkpt><trkpt lat="37.87457223782916" lon="14.942869325963931"><ele>781.4</ele><time>2026-04-12T10:11:25Z</time></trkpt><trkpt lat="37.874627637288064" lon="14.942971985056895"><ele>781.8</ele><time>2026-04-12T10:11:26Z</time></trkpt><trkpt lat="37.874686838226026" lon="14.94307241986238"><ele>782.1999999999999</ele><time>2026-04-12T10:11:27Z</time></trkpt><trkpt lat="37.87473964270287" lon="14.943171835325472"><ele>782.5999999999999</ele><time>2026-04-12T10:11:28Z</time></trkpt><trkpt lat="37.874782340410405" lon="14.943263360415038"><ele>783.0</ele><time>2026-04-12T10:11:29Z</time></trkpt><trkpt lat="37.87482700993223" lon="14.943340096731484"><ele>784.1666666666666</ele><time>2026-04-12T10:11:30Z</time></trkpt><trkpt lat="37.874871855415364" lon="14.94341770475361"><ele>785.3333333333333</ele><time>2026-04-12T10:11:31Z</time></trkpt><trkpt lat="37.874923154308426" lon="14.94349411733721"><ele>786.5</ele><time>2026-04-12T10:11:32Z</time></trkpt><trkpt lat="37.87495792347255" lon="14.943580299966058"><ele>787.6666666666666</ele><time>2026-04-12T10:11:33Z</time></trkpt><trkpt lat="37.8749875821499" lon="14.94366118134801"><ele>788.8333333333333</ele><time>2026-04-12T10:11:34Z</time></trkpt><trkpt lat="37.87504316014891" lon="14.943786092583633"><ele>790.0</ele><time>2026-04-12T10:11:36Z</time></trkpt><trkpt lat="37.87509884091735" lon="14.94390360625104"><ele>789.3333333333333</ele><time>2026-04-12T10:11:38Z</time></trkpt><trkpt lat="37.87516230743163" lon="14.944042445305122"><ele>788.6666666666666</ele><time>2026-04-12T10:11:40Z</time></trkpt><trkpt lat="37.875195029756576" lon="14.944121050136868"><ele>788.0</ele><time>2026-04-12T10:11:41Z</time></trkpt><trkpt lat="37.8752274775777" lon="14.944209279934753"><ele>787.3333333333333</ele><time>2026-04-12T10:11:42Z</time></trkpt><trkpt lat="37.87526077325812" lon="14.944297811735051"><ele>786.6666666666666</ele><time>2026-04-12T10:11:43Z</time></trkpt><trkpt lat="37.875294563490115" lon="14.94438569182139"><ele>786.0</ele><time>2026-04-12T10:11:44Z</time></trkpt><trkpt lat="37.87532833942932" lon="14.944467819794506"><ele>786.0</ele><time>2026-04-12T10:11:45Z</time></trkpt><trkpt lat="37.87536067847677" lon="14.944548068693292"><ele>786.0</ele><time>2026-04-12T10:11:46Z</time></trkpt><trkpt lat="37.87538893089391" lon="14.944620421750896"><ele>786.0</ele><time>2026-04-12T10:11:47Z</time></trkpt><trkpt lat="37.87543961828531" lon="14.944740371871616"><ele>786.0</ele><time>2026-04-12T10:11:49Z</time></trkpt><trkpt lat="37.87547187334516" lon="14.944841098847364"><ele>786.0</ele><time>2026-04-12T10:11:51Z</time></trkpt><trkpt lat="37.87545016055597" lon="14.94491617047598"><ele>786.0</ele><time>2026-04-12T10:11:53Z</time></trkpt><trkpt lat="37.875377021130774" lon="14.944940974615463"><ele>786.0000000000001</ele><time>2026-04-12T10:11:55Z</time></trkpt><trkpt lat="37.87531604499375" lon="14.944916948615708"><ele>786.0</ele><time>2026-04-12T10:11:56Z</time></trkpt><trkpt lat="37.87525624768214" lon="14.944885890772412"><ele>786.0</ele><time>2026-04-12T10:11:57Z</time></trkpt><trkpt lat="37.87519449964273" lon="14.944866719379965"><ele>786.0</ele><time>2026-04-12T10:11:58Z</time></trkpt><trkpt lat="37.875126270283154" lon="14.94484320741197"><ele>786.0</ele><time>2026-04-12T10:11:59Z</time></trkpt><trkpt lat="37.87505877731267" lon="14.94482116270276"><ele>786.0000000000001</ele><time>2026-04-12T10:12:00Z</time></trkpt><trkpt lat="37.87494756567853" lon="14.94479934057388"><ele>786.0</ele><time>2026-04-12T10:12:02Z</time></trkpt><trkpt lat="37.87488063331855" lon="14.944871716281332"><ele>785.4</ele><time>2026-04-12T10:12:04Z</time></trkpt><trkpt lat="37.87489332581527" lon="14.944962873428745"><ele>784.8</ele><time>2026-04-12T10:12:05Z</time></trkpt><trkpt lat="37.874943689466406" lon="14.945018355252087"><ele>784.1999999999999</ele><time>2026-04-12T10:12:06Z</time></trkpt><trkpt lat="37.87502372034844" lon="14.94505390352302"><ele>783.5999999999999</ele><time>2026-04-12T10:12:07Z</time></trkpt><trkpt lat="37.875131040300396" lon="14.945119179715622"><ele>783.0</ele><time>2026-04-12T10:12:08Z</time></trkpt><trkpt lat="37.8752993690249" lon="14.94514517788789"><ele>780.0</ele><time>2026-04-12T10:12:09Z</time></trkpt><trkpt lat="37.87547838550286" lon="14.945228202747124"><ele>777.0</ele><time>2026-04-12T10:12:10Z</time></trkpt><trkpt lat="37.875644029462386" lon="14.945318465245945"><ele>774.0</ele><time>2026-04-12T10:12:11Z</time></trkpt><trkpt lat="37.87578607877068" lon="14.945413068527959"><ele>774.0</ele><time>2026-04-12T10:12:12Z</time></trkpt><trkpt lat="37.875906887208004" lon="14.945519340935595"><ele>774.0</ele><time>2026-04-12T10:12:13Z</time></trkpt><trkpt lat="37.87601650257637" lon="14.94563214771914"><ele>774.0</ele><time>2026-04-12T10:12:14Z</time></trkpt><trkpt lat="37.87610930139159" lon="14.945742522635294"><ele>774.0</ele><time>2026-04-12T10:12:15Z</time></trkpt><trkpt lat="37.87619372811471" lon="14.945846715181913"><ele>772.6</ele><time>2026-04-12T10:12:16Z</time></trkpt><trkpt lat="37.87625357965626" lon="14.94595348291401"><ele>771.2</ele><time>2026-04-12T10:12:17Z</time></trkpt><trkpt lat="37.87629872574901" lon="14.94606627711337"><ele>769.8000000000001</ele><time>2026-04-12T10:12:18Z</time></trkpt><trkpt lat="37.876308895950544" lon="14.946186272623375"><ele>768.4000000000001</ele><time>2026-04-12T10:12:19Z</time></trkpt><trkpt lat="37.87633507213481" lon="14.94628617558475"><ele>767.0</ele><time>2026-04-12T10:12:20Z</time></trkpt><trkpt lat="37.8763450486274" lon="14.946373268284097"><ele>767.0</ele><time>2026-04-12T10:12:21Z</time></trkpt><trkpt lat="37.87635020520198" lon="14.946456516948084"><ele>767.0</ele><time>2026-04-12T10:12:22Z</time></trkpt><trkpt lat="37.87635698253783" lon="14.946541370775364"><ele>767.0</ele><time>2026-04-12T10:12:23Z</time></trkpt><trkpt lat="37.87637961240463" lon="14.946693284506237"><ele>767.0</ele><time>2026-04-12T10:12:25Z</time></trkpt><trkpt lat="37.876393692310735" lon="14.946825945788497"><ele>767.0</ele><time>2026-04-12T10:12:27Z</time></trkpt><trkpt lat="37.876410390745335" lon="14.946971628510152"><ele>766.6666666666666</ele><time>2026-04-12T10:12:29Z</time></trkpt><trkpt lat="37.87642968352935" lon="14.947107721013806"><ele>766.3333333333333</ele><time>2026-04-12T10:12:31Z</time></trkpt><trkpt lat="37.87644788148266" lon="14.947184768805874"><ele>766.0</ele><time>2026-04-12T10:12:33Z</time></trkpt><trkpt lat="37.876466106561615" lon="14.947266892283556"><ele>765.6666666666666</ele><time>2026-04-12T10:12:36Z</time></trkpt><trkpt lat="37.8765009469047" lon="14.947366418078637"><ele>765.3333333333334</ele><time>2026-04-12T10:12:39Z</time></trkpt><trkpt lat="37.87653578963772" lon="14.947436810083804"><ele>765.0</ele><time>2026-04-12T10:12:41Z</time></trkpt><trkpt lat="37.87658655892938" lon="14.947541102175496"><ele>764.6666666666666</ele><time>2026-04-12T10:12:44Z</time></trkpt><trkpt lat="37.87661995951466" lon="14.947660674709935"><ele>764.3333333333334</ele><time>2026-04-12T10:12:46Z</time></trkpt><trkpt lat="37.87665175439335" lon="14.947733154059694"><ele>764.0</ele><time>2026-04-12T10:12:47Z</time></trkpt><trkpt lat="37.876684028245904" lon="14.947806725333463"><ele>763.6666666666667</ele><time>2026-04-12T10:12:48Z</time></trkpt><trkpt lat="37.87671497221904" lon="14.947877265018658"><ele>763.3333333333334</ele><time>2026-04-12T10:12:49Z</time></trkpt><trkpt lat="37.876769692011216" lon="14.947999408814493"><ele>763.0</ele><time>2026-04-12T10:12:51Z</time></trkpt><trkpt lat="37.87683079560306" lon="14.94812791820066"><ele>762.6666666666667</ele><time>2026-04-12T10:12:53Z</time></trkpt><trkpt lat="37.876869093703796" lon="14.948207927083287"><ele>762.3333333333334</ele><time>2026-04-12T10:12:54Z</time></trkpt><trkpt lat="37.876916035645024" lon="14.948274386679689"><ele>762.0</ele><time>2026-04-12T10:12:55Z</time></trkpt><trkpt lat="37.87695242444489" lon="14.948406553328995"><ele>761.6666666666666</ele><time>2026-04-12T10:12:57Z</time></trkpt><trkpt lat="37.876998813508024" lon="14.94852160534975"><ele>761.3333333333333</ele><time>2026-04-12T10:12:59Z</time></trkpt><trkpt lat="37.87703716819592" lon="14.948589079522272"><ele>761.0</ele><time>2026-04-12T10:13:00Z</time></trkpt><trkpt lat="37.87708843962257" lon="14.948681032061788"><ele>760.8333333333333</ele><time>2026-04-12T10:13:01Z</time></trkpt><trkpt lat="37.87712920212415" lon="14.948782263299545"><ele>760.6666666666666</ele><time>2026-04-12T10:13:02Z</time></trkpt><trkpt lat="37.877160734149754" lon="14.948857571290324"><ele>760.5</ele><time>2026-04-12T10:13:03Z</time></trkpt><trkpt lat="37.87721266772277" lon="14.94898315765545"><ele>760.3333333333334</ele><time>2026-04-12T10:13:05Z</time></trkpt><trkpt lat="37.877253362674146" lon="14.949077764970232"><ele>760.1666666666667</ele><time>2026-04-12T10:13:07Z</time></trkpt><trkpt lat="37.877294345393686" lon="14.949167067063199"><ele>760.0</ele><time>2026-04-12T10:13:09Z</time></trkpt><trkpt lat="37.87732288195626" lon="14.949249575814832"><ele>759.0</ele><time>2026-04-12T10:13:11Z</time></trkpt><trkpt lat="37.87736632019118" lon="14.949322041943507"><ele>758.0</ele><time>2026-04-12T10:13:14Z</time></trkpt><trkpt lat="37.8774120538009" lon="14.949397405172078"><ele>757.0</ele><time>2026-04-12T10:13:17Z</time></trkpt><trkpt lat="37.87745856081793" lon="14.949497006609432"><ele>756.0</ele><time>2026-04-12T10:13:20Z</time></trkpt><trkpt lat="37.87750801365613" lon="14.949580532499475"><ele>755.0</ele><time>2026-04-12T10:13:23Z</time></trkpt><trkpt lat="37.87754817904673" lon="14.949656876846433"><ele>754.0</ele><time>2026-04-12T10:13:28Z</time></trkpt><trkpt lat="37.87757813983417" lon="14.949731744039708"><ele>753.9999999999999</ele><time>2026-04-12T10:13:32Z</time></trkpt><trkpt lat="37.877592288301905" lon="14.949814496960395"><ele>754.0</ele><time>2026-04-12T10:13:41Z</time></trkpt><trkpt lat="37.877615729035384" lon="14.94989612480677"><ele>754.0</ele><time>2026-04-12T10:13:46Z</time></trkpt><trkpt lat="37.87763417944613" lon="14.949996353229377"><ele>754.0</ele><time>2026-04-12T10:13:51Z</time></trkpt><trkpt lat="37.87764340184291" lon="14.9500768916428"><ele>754.0</ele><time>2026-04-12T10:13:54Z</time></trkpt><trkpt lat="37.87767078558327" lon="14.950181183620494"><ele>753.9999999999999</ele><time>2026-04-12T10:13:57Z</time></trkpt><trkpt lat="37.87769233659002" lon="14.950265811882586"><ele>754.0</ele><time>2026-04-12T10:14:00Z</time></trkpt><trkpt lat="37.87768592891335" lon="14.95035031067443"><ele>754.2857142857142</ele><time>2026-04-12T10:14:07Z</time></trkpt><trkpt lat="37.87767352918769" lon="14.950430633291738"><ele>754.5714285714286</ele><time>2026-04-12T10:14:15Z</time></trkpt><trkpt lat="37.87767692998339" lon="14.950512121868687"><ele>754.8571428571429</ele><time>2026-04-12T10:14:18Z</time></trkpt><trkpt lat="37.877686633712976" lon="14.950591321180282"><ele>755.1428571428571</ele><time>2026-04-12T10:14:22Z</time></trkpt><trkpt lat="37.87769767627888" lon="14.950687898774461"><ele>755.4285714285714</ele><time>2026-04-12T10:14:26Z</time></trkpt><trkpt lat="37.877720073287485" lon="14.950786513546204"><ele>755.7142857142857</ele><time>2026-04-12T10:14:29Z</time></trkpt><trkpt lat="37.877754978074904" lon="14.95085948085307"><ele>756.0</ele><time>2026-04-12T10:14:32Z</time></trkpt><trkpt lat="37.87780918382538" lon="14.950940160468209"><ele>755.4285714285714</ele><time>2026-04-12T10:14:35Z</time></trkpt><trkpt lat="37.87785476671893" lon="14.951008904169871"><ele>754.8571428571429</ele><time>2026-04-12T10:14:37Z</time></trkpt><trkpt lat="37.87790148859449" lon="14.95108056412059"><ele>754.2857142857142</ele><time>2026-04-12T10:14:39Z</time></trkpt><trkpt lat="37.87795176003122" lon="14.951131812320906"><ele>753.7142857142858</ele><time>2026-04-12T10:14:47Z</time></trkpt><trkpt lat="37.87800807780589" lon="14.951192591711647"><ele>753.1428571428571</ele><time>2026-04-12T10:14:54Z</time></trkpt><trkpt lat="37.87804933192987" lon="14.951260781537185"><ele>752.5714285714286</ele><time>2026-04-12T10:14:56Z</time></trkpt><trkpt lat="37.87809684173473" lon="14.951323841382376"><ele>752.0</ele><time>2026-04-12T10:14:58Z</time></trkpt><trkpt lat="37.8781601801463" lon="14.951400803241278"><ele>752.0</ele><time>2026-04-12T10:15:00Z</time></trkpt><trkpt lat="37.87824377604543" lon="14.951495439660945"><ele>752.0</ele><time>2026-04-12T10:15:02Z</time></trkpt><trkpt lat="37.878323416094695" lon="14.951577312881552"><ele>752.0</ele><time>2026-04-12T10:15:04Z</time></trkpt><trkpt lat="37.87839395722474" lon="14.951654786130193"><ele>752.0</ele><time>2026-04-12T10:15:06Z</time></trkpt><trkpt lat="37.8784770190822" lon="14.951750687181317"><ele>752.0</ele><time>2026-04-12T10:15:08Z</time></trkpt><trkpt lat="37.87857280731203" lon="14.951847781363973"><ele>751.1666666666666</ele><time>2026-04-12T10:15:10Z</time></trkpt><trkpt lat="37.87862206185375" lon="14.951902006570801"><ele>750.3333333333333</ele><time>2026-04-12T10:15:11Z</time></trkpt><trkpt lat="37.87867112145703" lon="14.951953571035068"><ele>749.5</ele><time>2026-04-12T10:15:12Z</time></trkpt><trkpt lat="37.878717812051605" lon="14.952018254754575"><ele>748.6666666666666</ele><time>2026-04-12T10:15:13Z</time></trkpt><trkpt lat="37.8788164955007" lon="14.952118293421101"><ele>747.8333333333334</ele><time>2026-04-12T10:15:15Z</time></trkpt><trkpt lat="37.87887230801955" lon="14.952180119034905"><ele>747.0</ele><time>2026-04-12T10:15:16Z</time></trkpt><trkpt lat="37.87892327910503" lon="14.952233676884422"><ele>747.0</ele><time>2026-04-12T10:15:17Z</time></trkpt><trkpt lat="37.87897530263031" lon="14.952298579577409"><ele>747.0</ele><time>2026-04-12T10:15:18Z</time></trkpt><trkpt lat="37.87902172295595" lon="14.952368138908803"><ele>747.0</ele><time>2026-04-12T10:15:19Z</time></trkpt><trkpt lat="37.87908550179228" lon="14.95240593881537"><ele>747.0</ele><time>2026-04-12T10:15:20Z</time></trkpt><trkpt lat="37.87918775935955" lon="14.952519522334669"><ele>747.0</ele><time>2026-04-12T10:15:22Z</time></trkpt><trkpt lat="37.879236208538146" lon="14.952589664185"><ele>747.0</ele><time>2026-04-12T10:15:23Z</time></trkpt><trkpt lat="37.87930429170669" lon="14.952643076903847"><ele>746.1666666666666</ele><time>2026-04-12T10:15:24Z</time></trkpt><trkpt lat="37.879358607833204" lon="14.952700418175125"><ele>745.3333333333334</ele><time>2026-04-12T10:15:25Z</time></trkpt><trkpt lat="37.87940703955465" lon="14.952761280221003"><ele>744.5</ele><time>2026-04-12T10:15:26Z</time></trkpt><trkpt lat="37.87945973393959" lon="14.952808498626974"><ele>743.6666666666667</ele><time>2026-04-12T10:15:27Z</time></trkpt><trkpt lat="37.87950598670716" lon="14.952881388418524"><ele>742.8333333333334</ele><time>2026-04-12T10:15:28Z</time></trkpt><trkpt lat="37.87955366193656" lon="14.952939817147305"><ele>742.0</ele><time>2026-04-12T10:15:29Z</time></trkpt><trkpt lat="37.87964656330436" lon="14.953041846844828"><ele>742.0</ele><time>2026-04-12T10:15:31Z</time></trkpt><trkpt lat="37.87969928565826" lon="14.953107636161482"><ele>742.0</ele><time>2026-04-12T10:15:33Z</time></trkpt><trkpt lat="37.87974102119427" lon="14.953186723194872"><ele>742.0</ele><time>2026-04-12T10:15:37Z</time></trkpt><trkpt lat="37.879776710534415" lon="14.953253688094513"><ele>742.0</ele><time>2026-04-12T10:15:42Z</time></trkpt><trkpt lat="37.87983684268563" lon="14.953334136046387"><ele>742.0</ele><time>2026-04-12T10:15:47Z</time></trkpt><trkpt lat="37.87988347533844" lon="14.953463500110484"><ele>742.0</ele><time>2026-04-12T10:15:49Z</time></trkpt><trkpt lat="37.879880246110844" lon="14.953554682608587"><ele>741.8</ele><time>2026-04-12T10:15:50Z</time></trkpt><trkpt lat="37.87986915385537" lon="14.953668542924172"><ele>741.6</ele><time>2026-04-12T10:15:51Z</time></trkpt><trkpt lat="37.87985054930142" lon="14.953786719722046"><ele>741.4</ele><time>2026-04-12T10:15:52Z</time></trkpt><trkpt lat="37.879836241313996" lon="14.953917981529159"><ele>741.1999999999999</ele><time>2026-04-12T10:15:53Z</time></trkpt><trkpt lat="37.87982292168592" lon="14.954032241633781"><ele>741.0</ele><time>2026-04-12T10:15:54Z</time></trkpt><trkpt lat="37.87980231042061" lon="14.954156894770078"><ele>741.5</ele><time>2026-04-12T10:15:55Z</time></trkpt><trkpt lat="37.87978352625689" lon="14.954301824291287"><ele>742.0</ele><time>2026-04-12T10:15:56Z</time></trkpt><trkpt lat="37.87976107236729" lon="14.954459473162578"><ele>742.5</ele><time>2026-04-12T10:15:57Z</time></trkpt><trkpt lat="37.879742790876946" lon="14.954647094332948"><ele>743.0</ele><time>2026-04-12T10:15:58Z</time></trkpt><trkpt lat="37.87971849290907" lon="14.954847073867944"><ele>743.6666666666666</ele><time>2026-04-12T10:15:59Z</time></trkpt><trkpt lat="37.87970021454961" lon="14.955040916496467"><ele>744.3333333333334</ele><time>2026-04-12T10:16:00Z</time></trkpt><trkpt lat="37.879681436027695" lon="14.955228487396555"><ele>745.0</ele><time>2026-04-12T10:16:01Z</time></trkpt><trkpt lat="37.87966561579287" lon="14.955417068636697"><ele>745.0</ele><time>2026-04-12T10:16:02Z</time></trkpt><trkpt lat="37.87964859818701" lon="14.955582638716077"><ele>745.0</ele><time>2026-04-12T10:16:03Z</time></trkpt><trkpt lat="37.879642048207266" lon="14.955755175535687"><ele>745.0</ele><time>2026-04-12T10:16:04Z</time></trkpt><trkpt lat="37.879625439534365" lon="14.955916305590787"><ele>745.0</ele><time>2026-04-12T10:16:05Z</time></trkpt><trkpt lat="37.87958897295049" lon="14.956064169680946"><ele>744.8333333333334</ele><time>2026-04-12T10:16:06Z</time></trkpt><trkpt lat="37.87956675972626" lon="14.95619238604863"><ele>744.6666666666667</ele><time>2026-04-12T10:16:07Z</time></trkpt><trkpt lat="37.879550673753116" lon="14.956307650985798"><ele>744.5</ele><time>2026-04-12T10:16:08Z</time></trkpt><trkpt lat="37.879533558255105" lon="14.956410075712279"><ele>744.3333333333334</ele><time>2026-04-12T10:16:09Z</time></trkpt><trkpt lat="37.87951886809417" lon="14.956515587697968"><ele>744.1666666666666</ele><time>2026-04-12T10:16:10Z</time></trkpt><trkpt lat="37.87949672434786" lon="14.956616287094523"><ele>744.0</ele><time>2026-04-12T10:16:11Z</time></trkpt><trkpt lat="37.87947637573481" lon="14.956725481837418"><ele>743.8333333333334</ele><time>2026-04-12T10:16:12Z</time></trkpt><trkpt lat="37.87945403045257" lon="14.956823426300007"><ele>743.6666666666666</ele><time>2026-04-12T10:16:13Z</time></trkpt><trkpt lat="37.87944272599103" lon="14.956932375312634"><ele>743.5</ele><time>2026-04-12T10:16:14Z</time></trkpt><trkpt lat="37.87943094632014" lon="14.957037422284468"><ele>743.3333333333333</ele><time>2026-04-12T10:16:15Z</time></trkpt><trkpt lat="37.87941716917062" lon="14.957132501289529"><ele>743.1666666666666</ele><time>2026-04-12T10:16:16Z</time></trkpt><trkpt lat="37.879404444306665" lon="14.957223703939704"><ele>743.0</ele><time>2026-04-12T10:16:17Z</time></trkpt><trkpt lat="37.8793906577934" lon="14.957306852302864"><ele>743.0</ele><time>2026-04-12T10:16:18Z</time></trkpt><trkpt lat="37.87936989067976" lon="14.957399109945872"><ele>743.0</ele><time>2026-04-12T10:16:19Z</time></trkpt><trkpt lat="37.87934725820292" lon="14.957479492567987"><ele>743.0</ele><time>2026-04-12T10:16:20Z</time></trkpt><trkpt lat="37.87932517497445" lon="14.95756784812381"><ele>743.0</ele><time>2026-04-12T10:16:21Z</time></trkpt><trkpt lat="37.87930766903863" lon="14.957649943186343"><ele>743.0</ele><time>2026-04-12T10:16:22Z</time></trkpt><trkpt lat="37.879270234982705" lon="14.957799549346213"><ele>743.0</ele><time>2026-04-12T10:16:24Z</time></trkpt><trkpt lat="37.8792234857727" lon="14.957952283819308"><ele>743.5</ele><time>2026-04-12T10:16:26Z</time></trkpt><trkpt lat="37.879195214203406" lon="14.958040414811856"><ele>744.0</ele><time>2026-04-12T10:16:27Z</time></trkpt><trkpt lat="37.87916845544391" lon="14.958138769885002"><ele>744.5</ele><time>2026-04-12T10:16:28Z</time></trkpt><trkpt lat="37.879134433125486" lon="14.958241533610716"><ele>745.0</ele><time>2026-04-12T10:16:29Z</time></trkpt><trkpt lat="37.87910223324111" lon="14.958347487430668"><ele>745.5</ele><time>2026-04-12T10:16:30Z</time></trkpt><trkpt lat="37.879066927613174" lon="14.958464626857618"><ele>746.0</ele><time>2026-04-12T10:16:31Z</time></trkpt><trkpt lat="37.879040846659564" lon="14.958588646687918"><ele>746.0</ele><time>2026-04-12T10:16:32Z</time></trkpt><trkpt lat="37.87901508804312" lon="14.958716006485053"><ele>746.0</ele><time>2026-04-12T10:16:33Z</time></trkpt><trkpt lat="37.87898606682372" lon="14.958844647103412"><ele>746.0</ele><time>2026-04-12T10:16:34Z</time></trkpt><trkpt lat="37.878954702260536" lon="14.95897463125035"><ele>746.0</ele><time>2026-04-12T10:16:35Z</time></trkpt><trkpt lat="37.87890299068666" lon="14.959085569364289"><ele>746.0</ele><time>2026-04-12T10:16:36Z</time></trkpt><trkpt lat="37.87883906593908" lon="14.959183151526089"><ele>744.75</ele><time>2026-04-12T10:16:37Z</time></trkpt><trkpt lat="37.87877162948271" lon="14.959292496476124"><ele>743.5</ele><time>2026-04-12T10:16:38Z</time></trkpt><trkpt lat="37.87871837459884" lon="14.959423272086639"><ele>742.25</ele><time>2026-04-12T10:16:39Z</time></trkpt><trkpt lat="37.87865829426492" lon="14.959553930000082"><ele>741.0</ele><time>2026-04-12T10:16:40Z</time></trkpt><trkpt lat="37.87860182501803" lon="14.959703836393931"><ele>741.0</ele><time>2026-04-12T10:16:41Z</time></trkpt><trkpt lat="37.878567544315224" lon="14.959871997777197"><ele>741.0</ele><time>2026-04-12T10:16:42Z</time></trkpt><trkpt lat="37.878540527740505" lon="14.960035133276945"><ele>741.0</ele><time>2026-04-12T10:16:43Z</time></trkpt><trkpt lat="37.87852591824097" lon="14.960213189273547"><ele>741.0</ele><time>2026-04-12T10:16:44Z</time></trkpt><trkpt lat="37.8785162524529" lon="14.96037313872939"><ele>738.6666666666666</ele><time>2026-04-12T10:16:45Z</time></trkpt><trkpt lat="37.87851170878625" lon="14.960556204388284"><ele>736.3333333333333</ele><time>2026-04-12T10:16:46Z</time></trkpt><trkpt lat="37.87850036102068" lon="14.960749547052083"><ele>734.0</ele><time>2026-04-12T10:16:47Z</time></trkpt><trkpt lat="37.87849957709836" lon="14.96095138091056"><ele>734.0</ele><time>2026-04-12T10:16:48Z</time></trkpt><trkpt lat="37.87847960272221" lon="14.961149235975501"><ele>734.0</ele><time>2026-04-12T10:16:49Z</time></trkpt><trkpt lat="37.87846762240849" lon="14.96134257784414"><ele>734.0</ele><time>2026-04-12T10:16:50Z</time></trkpt><trkpt lat="37.87845219037867" lon="14.961524983847942"><ele>734.0</ele><time>2026-04-12T10:16:51Z</time></trkpt><trkpt lat="37.878440504790284" lon="14.961696910499299"><ele>734.0</ele><time>2026-04-12T10:16:52Z</time></trkpt><trkpt lat="37.8784324557956" lon="14.961865885544528"><ele>734.0</ele><time>2026-04-12T10:16:53Z</time></trkpt><trkpt lat="37.87842157559099" lon="14.962028545609122"><ele>734.0</ele><time>2026-04-12T10:16:54Z</time></trkpt><trkpt lat="37.87841503830511" lon="14.962186719045233"><ele>733.25</ele><time>2026-04-12T10:16:55Z</time></trkpt><trkpt lat="37.87840624507918" lon="14.962351333676645"><ele>732.5</ele><time>2026-04-12T10:16:56Z</time></trkpt><trkpt lat="37.87839693409437" lon="14.96252086042289"><ele>731.75</ele><time>2026-04-12T10:16:57Z</time></trkpt><trkpt lat="37.878387749836044" lon="14.962696176519506"><ele>731.0</ele><time>2026-04-12T10:16:58Z</time></trkpt><trkpt lat="37.878373939694974" lon="14.962872103750726"><ele>730.25</ele><time>2026-04-12T10:16:59Z</time></trkpt><trkpt lat="37.87835926083339" lon="14.96305095671061"><ele>729.5</ele><time>2026-04-12T10:17:00Z</time></trkpt><trkpt lat="37.8783431008752" lon="14.963232182731538"><ele>728.75</ele><time>2026-04-12T10:17:01Z</time></trkpt><trkpt lat="37.878327980970596" lon="14.963417429362753"><ele>728.0</ele><time>2026-04-12T10:17:02Z</time></trkpt><trkpt lat="37.87831481069638" lon="14.963605274548394"><ele>727.75</ele><time>2026-04-12T10:17:03Z</time></trkpt><trkpt lat="37.87830296243733" lon="14.96378223708738"><ele>727.5</ele><time>2026-04-12T10:17:04Z</time></trkpt><trkpt lat="37.87828785112199" lon="14.963944706313782"><ele>727.25</ele><time>2026-04-12T10:17:05Z</time></trkpt><trkpt lat="37.87827178847907" lon="14.96409392242616"><ele>727.0</ele><time>2026-04-12T10:17:06Z</time></trkpt><trkpt lat="37.87826044486636" lon="14.964228175091534"><ele>726.5</ele><time>2026-04-12T10:17:07Z</time></trkpt><trkpt lat="37.87825705495179" lon="14.964354472691223"><ele>726.0</ele><time>2026-04-12T10:17:08Z</time></trkpt><trkpt lat="37.87825296920289" lon="14.96446256864563"><ele>725.5</ele><time>2026-04-12T10:17:09Z</time></trkpt><trkpt lat="37.87824836924211" lon="14.964549612961356"><ele>725.0</ele><time>2026-04-12T10:17:10Z</time></trkpt><trkpt lat="37.8782487903869" lon="14.96471340300908"><ele>724.5</ele><time>2026-04-12T10:17:12Z</time></trkpt><trkpt lat="37.87823348171186" lon="14.964792199363966"><ele>724.0</ele><time>2026-04-12T10:17:13Z</time></trkpt><trkpt lat="37.878332441717816" lon="14.96489916451241"><ele>724.0</ele><time>2026-04-12T10:17:14Z</time></trkpt><trkpt lat="37.87837282318013" lon="14.965026870509822"><ele>724.0</ele><time>2026-04-12T10:17:15Z</time></trkpt><trkpt lat="37.87840668495423" lon="14.965174218915179"><ele>724.0</ele><time>2026-04-12T10:17:16Z</time></trkpt><trkpt lat="37.87843999129761" lon="14.965334540919235"><ele>724.0</ele><time>2026-04-12T10:17:17Z</time></trkpt><trkpt lat="37.87847469960399" lon="14.965475820135234"><ele>722.5</ele><time>2026-04-12T10:17:18Z</time></trkpt><trkpt lat="37.87850535172212" lon="14.96561254034829"><ele>721.0</ele><time>2026-04-12T10:17:19Z</time></trkpt><trkpt lat="37.87853165797694" lon="14.965754915765098"><ele>719.5</ele><time>2026-04-12T10:17:20Z</time></trkpt><trkpt lat="37.87856140966951" lon="14.965907710401426"><ele>718.0</ele><time>2026-04-12T10:17:21Z</time></trkpt><trkpt lat="37.87859711042548" lon="14.96607588578056"><ele>718.0</ele><time>2026-04-12T10:17:22Z</time></trkpt><trkpt lat="37.878632556271306" lon="14.96626304992008"><ele>718.0</ele><time>2026-04-12T10:17:23Z</time></trkpt><trkpt lat="37.878675831042216" lon="14.966471651057871"><ele>718.0</ele><time>2026-04-12T10:17:24Z</time></trkpt><trkpt lat="37.8787239088838" lon="14.966702500282885"><ele>717.3333333333334</ele><time>2026-04-12T10:17:25Z</time></trkpt><trkpt lat="37.878775735178785" lon="14.966955262336201"><ele>716.6666666666666</ele><time>2026-04-12T10:17:26Z</time></trkpt><trkpt lat="37.87882689531543" lon="14.967202740664769"><ele>716.0</ele><time>2026-04-12T10:17:27Z</time></trkpt><trkpt lat="37.87887254841184" lon="14.967457906201705"><ele>716.3333333333333</ele><time>2026-04-12T10:17:28Z</time></trkpt><trkpt lat="37.87891897651963" lon="14.96771711071078"><ele>716.6666666666666</ele><time>2026-04-12T10:17:29Z</time></trkpt><trkpt lat="37.87895856385362" lon="14.967977511853494"><ele>717.0</ele><time>2026-04-12T10:17:30Z</time></trkpt><trkpt lat="37.879009239706626" lon="14.968242907789394"><ele>717.5</ele><time>2026-04-12T10:17:31Z</time></trkpt><trkpt lat="37.879084102840665" lon="14.968510153920004"><ele>718.0</ele><time>2026-04-12T10:17:32Z</time></trkpt><trkpt lat="37.87916636482298" lon="14.968782667894343"><ele>717.0</ele><time>2026-04-12T10:17:33Z</time></trkpt><trkpt lat="37.879278578543136" lon="14.969069655810715"><ele>716.0</ele><time>2026-04-12T10:17:34Z</time></trkpt><trkpt lat="37.879400997844996" lon="14.969346970602711"><ele>715.3333333333333</ele><time>2026-04-12T10:17:35Z</time></trkpt><trkpt lat="37.879503604292275" lon="14.96958896153464"><ele>714.6666666666666</ele><time>2026-04-12T10:17:36Z</time></trkpt><trkpt lat="37.87958702598162" lon="14.969799298795293"><ele>714.0</ele><time>2026-04-12T10:17:37Z</time></trkpt><trkpt lat="37.87965120181783" lon="14.969999850573524"><ele>714.0</ele><time>2026-04-12T10:17:38Z</time></trkpt><trkpt lat="37.87969812323052" lon="14.970203473076243"><ele>714.0</ele><time>2026-04-12T10:17:39Z</time></trkpt><trkpt lat="37.87973388831151" lon="14.97042812086333"><ele>714.0</ele><time>2026-04-12T10:17:40Z</time></trkpt><trkpt lat="37.879777227973136" lon="14.97065041671205"><ele>714.0</ele><time>2026-04-12T10:17:41Z</time></trkpt><trkpt lat="37.879841999039726" lon="14.970872497511648"><ele>714.0</ele><time>2026-04-12T10:17:42Z</time></trkpt><trkpt lat="37.87990762768367" lon="14.971111293362746"><ele>714.0</ele><time>2026-04-12T10:17:43Z</time></trkpt><trkpt lat="37.879971494368064" lon="14.971355139137009"><ele>714.0</ele><time>2026-04-12T10:17:44Z</time></trkpt><trkpt lat="37.88005110756868" lon="14.971600060114508"><ele>714.0</ele><time>2026-04-12T10:17:45Z</time></trkpt><trkpt lat="37.8801514068369" lon="14.971839475912859"><ele>714.0</ele><time>2026-04-12T10:17:46Z</time></trkpt><trkpt lat="37.88025942483905" lon="14.972078548361457"><ele>712.3333333333334</ele><time>2026-04-12T10:17:47Z</time></trkpt><trkpt lat="37.88035981167767" lon="14.972323461369504"><ele>710.6666666666667</ele><time>2026-04-12T10:17:48Z</time></trkpt><trkpt lat="37.8804543298055" lon="14.9725729689858"><ele>709.0</ele><time>2026-04-12T10:17:49Z</time></trkpt><trkpt lat="37.880542236819664" lon="14.972826818008578"><ele>709.0</ele><time>2026-04-12T10:17:50Z</time></trkpt><trkpt lat="37.880619651669676" lon="14.973088678322757"><ele>709.0</ele><time>2026-04-12T10:17:51Z</time></trkpt><trkpt lat="37.88070313073257" lon="14.973349241349496"><ele>709.0</ele><time>2026-04-12T10:17:52Z</time></trkpt><trkpt lat="37.880780313306104" lon="14.973610661162404"><ele>709.6666666666667</ele><time>2026-04-12T10:17:53Z</time></trkpt><trkpt lat="37.88086244536538" lon="14.973871392805982"><ele>710.3333333333334</ele><time>2026-04-12T10:17:54Z</time></trkpt><trkpt lat="37.88095158544045" lon="14.974130970271158"><ele>711.0</ele><time>2026-04-12T10:17:55Z</time></trkpt><trkpt lat="37.88105373671709" lon="14.97438637899644"><ele>712.5</ele><time>2026-04-12T10:17:56Z</time></trkpt><trkpt lat="37.8811566589085" lon="14.974645054245794"><ele>714.0</ele><time>2026-04-12T10:17:57Z</time></trkpt><trkpt lat="37.88125759793446" lon="14.974906237139878"><ele>714.5</ele><time>2026-04-12T10:17:58Z</time></trkpt><trkpt lat="37.88135749987597" lon="14.975170982493209"><ele>715.0</ele><time>2026-04-12T10:17:59Z</time></trkpt><trkpt lat="37.88146206592937" lon="14.975443086137496"><ele>715.0</ele><time>2026-04-12T10:18:00Z</time></trkpt><trkpt lat="37.881572092905984" lon="14.975723829325151"><ele>715.0</ele><time>2026-04-12T10:18:01Z</time></trkpt><trkpt lat="37.881686820818786" lon="14.976019051523732"><ele>712.5</ele><time>2026-04-12T10:18:02Z</time></trkpt><trkpt lat="37.88180136492843" lon="14.97633070376103"><ele>710.0</ele><time>2026-04-12T10:18:03Z</time></trkpt><trkpt lat="37.8819284131348" lon="14.97665936933918"><ele>709.5</ele><time>2026-04-12T10:18:04Z</time></trkpt><trkpt lat="37.88207150934491" lon="14.977005925213314"><ele>709.0</ele><time>2026-04-12T10:18:05Z</time></trkpt><trkpt lat="37.88221748127842" lon="14.977370056830264"><ele>707.5</ele><time>2026-04-12T10:18:06Z</time></trkpt><trkpt lat="37.88235962145136" lon="14.977732349614033"><ele>706.0</ele><time>2026-04-12T10:18:07Z</time></trkpt><trkpt lat="37.882487505820656" lon="14.97806770572139"><ele>705.5</ele><time>2026-04-12T10:18:08Z</time></trkpt><trkpt lat="37.88261094122256" lon="14.978393195597235"><ele>705.0</ele><time>2026-04-12T10:18:09Z</time></trkpt><trkpt lat="37.882728873174244" lon="14.978711261086564"><ele>705.0</ele><time>2026-04-12T10:18:10Z</time></trkpt><trkpt lat="37.88284711869203" lon="14.979020321562801"><ele>705.0</ele><time>2026-04-12T10:18:11Z</time></trkpt><trkpt lat="37.88296163702839" lon="14.979326021039615"><ele>705.0</ele><time>2026-04-12T10:18:12Z</time></trkpt><trkpt lat="37.883080991160796" lon="14.979630818891378"><ele>705.0</ele><time>2026-04-12T10:18:13Z</time></trkpt><trkpt lat="37.883193625381175" lon="14.979938607365732"><ele>703.0</ele><time>2026-04-12T10:18:14Z</time></trkpt><trkpt lat="37.88330074686087" lon="14.980245126862796"><ele>701.0</ele><time>2026-04-12T10:18:15Z</time></trkpt><trkpt lat="37.88340786129089" lon="14.980553041119164"><ele>698.0</ele><time>2026-04-12T10:18:16Z</time></trkpt><trkpt lat="37.88351652738507" lon="14.980862606183706"><ele>695.0</ele><time>2026-04-12T10:18:17Z</time></trkpt><trkpt lat="37.88362632801292" lon="14.981172793505367"><ele>695.0</ele><time>2026-04-12T10:18:18Z</time></trkpt><trkpt lat="37.88373521214233" lon="14.981474781772697"><ele>695.0</ele><time>2026-04-12T10:18:19Z</time></trkpt><trkpt lat="37.883840980261446" lon="14.981768999087551"><ele>695.5</ele><time>2026-04-12T10:18:20Z</time></trkpt><trkpt lat="37.8839456909628" lon="14.98205432908743"><ele>696.0</ele><time>2026-04-12T10:18:21Z</time></trkpt><trkpt lat="37.88404849198446" lon="14.982340253333435"><ele>695.5</ele><time>2026-04-12T10:18:22Z</time></trkpt><trkpt lat="37.88415591435197" lon="14.982626442004785"><ele>695.0</ele><time>2026-04-12T10:18:23Z</time></trkpt><trkpt lat="37.88427307892867" lon="14.982918963395422"><ele>693.5</ele><time>2026-04-12T10:18:24Z</time></trkpt><trkpt lat="37.88439256119635" lon="14.98322677275102"><ele>692.0</ele><time>2026-04-12T10:18:25Z</time></trkpt><trkpt lat="37.88451357526187" lon="14.983556801461905"><ele>690.5</ele><time>2026-04-12T10:18:26Z</time></trkpt><trkpt lat="37.88463308342629" lon="14.983902320674082"><ele>689.0</ele><time>2026-04-12T10:18:27Z</time></trkpt><trkpt lat="37.88475679025224" lon="14.984243067457625"><ele>687.5</ele><time>2026-04-12T10:18:28Z</time></trkpt><trkpt lat="37.884870481797506" lon="14.984575054372792"><ele>686.0</ele><time>2026-04-12T10:18:29Z</time></trkpt><trkpt lat="37.88498425764931" lon="14.984905936162928"><ele>685.5</ele><time>2026-04-12T10:18:30Z</time></trkpt><trkpt lat="37.88509368969972" lon="14.985237150538078"><ele>685.0</ele><time>2026-04-12T10:18:31Z</time></trkpt><trkpt lat="37.885202283673806" lon="14.985570233643902"><ele>681.5</ele><time>2026-04-12T10:18:32Z</time></trkpt><trkpt lat="37.88531232800172" lon="14.985903758791983"><ele>678.0</ele><time>2026-04-12T10:18:33Z</time></trkpt><trkpt lat="37.88541846380059" lon="14.986243077569101"><ele>678.0</ele><time>2026-04-12T10:18:34Z</time></trkpt><trkpt lat="37.88553255034379" lon="14.986584363927598"><ele>678.0</ele><time>2026-04-12T10:18:35Z</time></trkpt><trkpt lat="37.88564361877868" lon="14.986920190384717"><ele>676.5</ele><time>2026-04-12T10:18:36Z</time></trkpt><trkpt lat="37.88574838923542" lon="14.987249873386995"><ele>675.0</ele><time>2026-04-12T10:18:37Z</time></trkpt><trkpt lat="37.8858455842694" lon="14.98756793490399"><ele>673.5</ele><time>2026-04-12T10:18:38Z</time></trkpt><trkpt lat="37.88593889023309" lon="14.987867781634284"><ele>672.0</ele><time>2026-04-12T10:18:39Z</time></trkpt><trkpt lat="37.886031367258916" lon="14.988159762487907"><ele>671.0</ele><time>2026-04-12T10:18:40Z</time></trkpt><trkpt lat="37.886123988296205" lon="14.988458676383393"><ele>670.0</ele><time>2026-04-12T10:18:41Z</time></trkpt><trkpt lat="37.88621505906657" lon="14.98875860664941"><ele>670.0</ele><time>2026-04-12T10:18:42Z</time></trkpt><trkpt lat="37.886309508687354" lon="14.989060408377833"><ele>670.0</ele><time>2026-04-12T10:18:43Z</time></trkpt><trkpt lat="37.88640751155127" lon="14.98936650378658"><ele>669.5</ele><time>2026-04-12T10:18:44Z</time></trkpt><trkpt lat="37.88650457355617" lon="14.989667506772328"><ele>669.0</ele><time>2026-04-12T10:18:45Z</time></trkpt><trkpt lat="37.88659769344259" lon="14.989957248485025"><ele>667.5</ele><time>2026-04-12T10:18:46Z</time></trkpt><trkpt lat="37.88668502369044" lon="14.990238584830626"><ele>666.0</ele><time>2026-04-12T10:18:47Z</time></trkpt><trkpt lat="37.886771764801935" lon="14.99051650476998"><ele>665.5</ele><time>2026-04-12T10:18:48Z</time></trkpt><trkpt lat="37.88685547703894" lon="14.990790903571492"><ele>665.0</ele><time>2026-04-12T10:18:49Z</time></trkpt><trkpt lat="37.88693798402956" lon="14.99106267358477"><ele>664.0</ele><time>2026-04-12T10:18:50Z</time></trkpt><trkpt lat="37.887020416606134" lon="14.99133234535192"><ele>663.0</ele><time>2026-04-12T10:18:51Z</time></trkpt><trkpt lat="37.88710791334536" lon="14.991596970035388"><ele>662.5</ele><time>2026-04-12T10:18:52Z</time></trkpt><trkpt lat="37.88720567636208" lon="14.991857402834933"><ele>662.0</ele><time>2026-04-12T10:18:53Z</time></trkpt><trkpt lat="37.887324467215336" lon="14.992106242739506"><ele>662.0</ele><time>2026-04-12T10:18:54Z</time></trkpt><trkpt lat="37.88747165263184" lon="14.992332598530288"><ele>662.0</ele><time>2026-04-12T10:18:55Z</time></trkpt><trkpt lat="37.887643098257136" lon="14.992528816252623"><ele>660.0</ele><time>2026-04-12T10:18:56Z</time></trkpt><trkpt lat="37.88782575256538" lon="14.9927047976659"><ele>658.0</ele><time>2026-04-12T10:18:57Z</time></trkpt><trkpt lat="37.887998080482554" lon="14.992894551201658"><ele>658.0</ele><time>2026-04-12T10:18:58Z</time></trkpt><trkpt lat="37.888148747115196" lon="14.993108843398034"><ele>658.0</ele><time>2026-04-12T10:18:59Z</time></trkpt><trkpt lat="37.88828133864973" lon="14.993339671428881"><ele>658.3333333333334</ele><time>2026-04-12T10:19:00Z</time></trkpt><trkpt lat="37.888398541355464" lon="14.993580517009509"><ele>658.6666666666666</ele><time>2026-04-12T10:19:01Z</time></trkpt><trkpt lat="37.88849939002223" lon="14.993832484584841"><ele>659.0</ele><time>2026-04-12T10:19:02Z</time></trkpt><trkpt lat="37.8885825436198" lon="14.994094217638253"><ele>656.3333333333333</ele><time>2026-04-12T10:19:03Z</time></trkpt><trkpt lat="37.888657546223165" lon="14.99436151442668"><ele>653.6666666666666</ele><time>2026-04-12T10:19:04Z</time></trkpt><trkpt lat="37.88873428774006" lon="14.994628885044825"><ele>651.0</ele><time>2026-04-12T10:19:05Z</time></trkpt><trkpt lat="37.88879759500976" lon="14.99490305108288"><ele>650.6666666666666</ele><time>2026-04-12T10:19:06Z</time></trkpt><trkpt lat="37.88882222121295" lon="14.995175558582941"><ele>650.3333333333333</ele><time>2026-04-12T10:19:07Z</time></trkpt><trkpt lat="37.88880371580595" lon="14.995446549633373"><ele>650.0</ele><time>2026-04-12T10:19:08Z</time></trkpt><trkpt lat="37.888759078245144" lon="14.99570406672561"><ele>649.0</ele><time>2026-04-12T10:19:09Z</time></trkpt><trkpt lat="37.888711529479394" lon="14.995954754588414"><ele>648.0</ele><time>2026-04-12T10:19:10Z</time></trkpt><trkpt lat="37.888681570663245" lon="14.99619235827368"><ele>647.0</ele><time>2026-04-12T10:19:11Z</time></trkpt><trkpt lat="37.88864563039343" lon="14.996416729828763"><ele>647.0</ele><time>2026-04-12T10:19:12Z</time></trkpt><trkpt lat="37.888590004408265" lon="14.996631237961733"><ele>647.0</ele><time>2026-04-12T10:19:13Z</time></trkpt><trkpt lat="37.888524155737294" lon="14.996845395640594"><ele>647.0</ele><time>2026-04-12T10:19:14Z</time></trkpt><trkpt lat="37.888459643441294" lon="14.997059649773977"><ele>647.0</ele><time>2026-04-12T10:19:15Z</time></trkpt><trkpt lat="37.888397689222174" lon="14.997276937171824"><ele>647.0</ele><time>2026-04-12T10:19:16Z</time></trkpt><trkpt lat="37.88833779131812" lon="14.997491188487894"><ele>647.0</ele><time>2026-04-12T10:19:17Z</time></trkpt><trkpt lat="37.88827716443504" lon="14.997697782816436"><ele>647.0</ele><time>2026-04-12T10:19:18Z</time></trkpt><trkpt lat="37.88821205198226" lon="14.997888285303238"><ele>647.0</ele><time>2026-04-12T10:19:19Z</time></trkpt><trkpt lat="37.88812792512302" lon="14.998054845812815"><ele>647.0</ele><time>2026-04-12T10:19:20Z</time></trkpt><trkpt lat="37.88803224867695" lon="14.99818353908079"><ele>647.0</ele><time>2026-04-12T10:19:21Z</time></trkpt><trkpt lat="37.88796330299635" lon="14.998324397191903"><ele>647.0</ele><time>2026-04-12T10:19:22Z</time></trkpt><trkpt lat="37.887947322084784" lon="14.998507973298066"><ele>647.0</ele><time>2026-04-12T10:19:23Z</time></trkpt><trkpt lat="37.88796584671856" lon="14.998702781448133"><ele>647.0</ele><time>2026-04-12T10:19:24Z</time></trkpt><trkpt lat="37.8879839638591" lon="14.998916247296059"><ele>645.3333333333333</ele><time>2026-04-12T10:19:25Z</time></trkpt><trkpt lat="37.887984576708625" lon="14.999148793751688"><ele>643.6666666666666</ele><time>2026-04-12T10:19:26Z</time></trkpt><trkpt lat="37.887985397659726" lon="14.99940313820569"><ele>642.0</ele><time>2026-04-12T10:19:27Z</time></trkpt><trkpt lat="37.88799730048861" lon="14.999673469251952"><ele>640.0</ele><time>2026-04-12T10:19:28Z</time></trkpt><trkpt lat="37.8880073094546" lon="14.99995653049322"><ele>638.0</ele><time>2026-04-12T10:19:29Z</time></trkpt><trkpt lat="37.88802622724662" lon="15.000249927368607"><ele>638.0</ele><time>2026-04-12T10:19:30Z</time></trkpt><trkpt lat="37.8880437221152" lon="15.000546642614673"><ele>638.0</ele><time>2026-04-12T10:19:31Z</time></trkpt><trkpt lat="37.8880566864726" lon="15.000842464534601"><ele>636.0</ele><time>2026-04-12T10:19:32Z</time></trkpt><trkpt lat="37.888062537305096" lon="15.001143836047081"><ele>634.0</ele><time>2026-04-12T10:19:33Z</time></trkpt><trkpt lat="37.88806401893954" lon="15.001448624368315"><ele>632.0</ele><time>2026-04-12T10:19:34Z</time></trkpt><trkpt lat="37.88806348394271" lon="15.001758032930008"><ele>630.0</ele><time>2026-04-12T10:19:35Z</time></trkpt><trkpt lat="37.88806130569956" lon="15.002069390280782"><ele>630.0</ele><time>2026-04-12T10:19:36Z</time></trkpt><trkpt lat="37.88806110853002" lon="15.00236988383245"><ele>630.0</ele><time>2026-04-12T10:19:37Z</time></trkpt><trkpt lat="37.88806128727453" lon="15.002664661961113"><ele>629.5</ele><time>2026-04-12T10:19:38Z</time></trkpt><trkpt lat="37.88805983661455" lon="15.002962277150612"><ele>629.0</ele><time>2026-04-12T10:19:39Z</time></trkpt><trkpt lat="37.888061258575725" lon="15.00326119178556"><ele>628.5</ele><time>2026-04-12T10:19:40Z</time></trkpt><trkpt lat="37.88806362871344" lon="15.003554675643828"><ele>628.0</ele><time>2026-04-12T10:19:41Z</time></trkpt><trkpt lat="37.88806517367878" lon="15.003846972425231"><ele>628.0</ele><time>2026-04-12T10:19:42Z</time></trkpt><trkpt lat="37.88806761693436" lon="15.004134102697053"><ele>628.0</ele><time>2026-04-12T10:19:43Z</time></trkpt><trkpt lat="37.88806754881004" lon="15.004417322211355"><ele>625.5</ele><time>2026-04-12T10:19:44Z</time></trkpt><trkpt lat="37.88806491454069" lon="15.004700926572546"><ele>623.0</ele><time>2026-04-12T10:19:45Z</time></trkpt><trkpt lat="37.888062802865996" lon="15.004989110619606"><ele>621.5</ele><time>2026-04-12T10:19:46Z</time></trkpt><trkpt lat="37.88806590017931" lon="15.005281218866022"><ele>620.0</ele><time>2026-04-12T10:19:47Z</time></trkpt><trkpt lat="37.88807155517205" lon="15.00557562207879"><ele>618.0</ele><time>2026-04-12T10:19:48Z</time></trkpt><trkpt lat="37.88807611266072" lon="15.005871309875944"><ele>616.0</ele><time>2026-04-12T10:19:49Z</time></trkpt><trkpt lat="37.888080596690905" lon="15.00616595860492"><ele>616.0</ele><time>2026-04-12T10:19:50Z</time></trkpt><trkpt lat="37.88807976431455" lon="15.006456406235843"><ele>616.0</ele><time>2026-04-12T10:19:51Z</time></trkpt><trkpt lat="37.888076187894" lon="15.00674357746899"><ele>615.5</ele><time>2026-04-12T10:19:52Z</time></trkpt><trkpt lat="37.888074859603975" lon="15.007032034897758"><ele>615.0</ele><time>2026-04-12T10:19:53Z</time></trkpt><trkpt lat="37.88807588558322" lon="15.007315227100547"><ele>614.6666666666666</ele><time>2026-04-12T10:19:54Z</time></trkpt><trkpt lat="37.88807549177242" lon="15.007597015232008"><ele>614.3333333333333</ele><time>2026-04-12T10:19:55Z</time></trkpt><trkpt lat="37.888077826128665" lon="15.007878646695286"><ele>614.0</ele><time>2026-04-12T10:19:56Z</time></trkpt><trkpt lat="37.88807839288265" lon="15.008158028325825"><ele>613.0</ele><time>2026-04-12T10:19:57Z</time></trkpt><trkpt lat="37.88807523865743" lon="15.008436682157392"><ele>612.0</ele><time>2026-04-12T10:19:58Z</time></trkpt><trkpt lat="37.88807214981311" lon="15.008713933181633"><ele>611.0</ele><time>2026-04-12T10:19:59Z</time></trkpt><trkpt lat="37.888074132822" lon="15.008992518656845"><ele>610.6666666666666</ele><time>2026-04-12T10:20:00Z</time></trkpt><trkpt lat="37.88807935861585" lon="15.009273733593021"><ele>610.3333333333334</ele><time>2026-04-12T10:20:01Z</time></trkpt><trkpt lat="37.888084789937665" lon="15.009556292390263"><ele>610.0</ele><time>2026-04-12T10:20:02Z</time></trkpt><trkpt lat="37.8880863356196" lon="15.009840859291453"><ele>609.0</ele><time>2026-04-12T10:20:03Z</time></trkpt><trkpt lat="37.888089512806786" lon="15.010127811166809"><ele>608.0</ele><time>2026-04-12T10:20:04Z</time></trkpt><trkpt lat="37.88808755952622" lon="15.0104136175442"><ele>608.0</ele><time>2026-04-12T10:20:05Z</time></trkpt><trkpt lat="37.88808775692063" lon="15.010702238374467"><ele>608.0</ele><time>2026-04-12T10:20:06Z</time></trkpt><trkpt lat="37.888087584708536" lon="15.01098999252843"><ele>607.5</ele><time>2026-04-12T10:20:07Z</time></trkpt><trkpt lat="37.88808908206699" lon="15.011279334343355"><ele>607.0</ele><time>2026-04-12T10:20:08Z</time></trkpt><trkpt lat="37.888090286624546" lon="15.011568468965029"><ele>606.5</ele><time>2026-04-12T10:20:09Z</time></trkpt><trkpt lat="37.88808905803832" lon="15.011858644847587"><ele>606.0</ele><time>2026-04-12T10:20:10Z</time></trkpt><trkpt lat="37.88809019118815" lon="15.01214742614706"><ele>606.0</ele><time>2026-04-12T10:20:11Z</time></trkpt><trkpt lat="37.888090856847555" lon="15.012436672925375"><ele>606.0</ele><time>2026-04-12T10:20:12Z</time></trkpt><trkpt lat="37.88809035311646" lon="15.012729171892511"><ele>606.0</ele><time>2026-04-12T10:20:13Z</time></trkpt><trkpt lat="37.888092592340364" lon="15.013021562942143"><ele>606.0</ele><time>2026-04-12T10:20:14Z</time></trkpt><trkpt lat="37.888093591911506" lon="15.013315917577293"><ele>605.5</ele><time>2026-04-12T10:20:15Z</time></trkpt><trkpt lat="37.88809387829062" lon="15.013610512088748"><ele>605.0</ele><time>2026-04-12T10:20:16Z</time></trkpt><trkpt lat="37.88809647555832" lon="15.013904254675893"><ele>604.6666666666666</ele><time>2026-04-12T10:20:17Z</time></trkpt><trkpt lat="37.88809629371041" lon="15.01418499581362"><ele>604.3333333333334</ele><time>2026-04-12T10:20:18Z</time></trkpt><trkpt lat="37.888095605173284" lon="15.014447567518143"><ele>604.0</ele><time>2026-04-12T10:20:19Z</time></trkpt><trkpt lat="37.88809588957598" lon="15.014699127760016"><ele>604.0</ele><time>2026-04-12T10:20:20Z</time></trkpt><trkpt lat="37.88809320431658" lon="15.014907532584253"><ele>604.0</ele><time>2026-04-12T10:20:21Z</time></trkpt><trkpt lat="37.88808047341561" lon="15.015108267433463"><ele>604.0</ele><time>2026-04-12T10:20:22Z</time></trkpt><trkpt lat="37.88803572787364" lon="15.015287845061653"><ele>604.0</ele><time>2026-04-12T10:20:23Z</time></trkpt><trkpt lat="37.8879586782757" lon="15.015460850661068"><ele>604.0</ele><time>2026-04-12T10:20:24Z</time></trkpt><trkpt lat="37.88785648194677" lon="15.01564576105542"><ele>604.0</ele><time>2026-04-12T10:20:25Z</time></trkpt><trkpt lat="37.887788818553915" lon="15.015846746856422"><ele>604.0</ele><time>2026-04-12T10:20:26Z</time></trkpt><trkpt lat="37.88775709594905" lon="15.01606805241156"><ele>604.0</ele><time>2026-04-12T10:20:27Z</time></trkpt><trkpt lat="37.88777735086228" lon="15.01628048604471"><ele>604.0</ele><time>2026-04-12T10:20:28Z</time></trkpt><trkpt lat="37.88782722896046" lon="15.016487556979804"><ele>603.3333333333334</ele><time>2026-04-12T10:20:29Z</time></trkpt><trkpt lat="37.887892871135975" lon="15.016706157177717"><ele>602.6666666666666</ele><time>2026-04-12T10:20:30Z</time></trkpt><trkpt lat="37.887956596301166" lon="15.016941994871985"><ele>602.0</ele><time>2026-04-12T10:20:31Z</time></trkpt><trkpt lat="37.88801420835729" lon="15.017194412200443"><ele>602.0</ele><time>2026-04-12T10:20:32Z</time></trkpt><trkpt lat="37.888076104736314" lon="15.017449046743623"><ele>602.0</ele><time>2026-04-12T10:20:33Z</time></trkpt><trkpt lat="37.8881321571098" lon="15.01768301737634"><ele>602.0</ele><time>2026-04-12T10:20:34Z</time></trkpt><trkpt lat="37.88818313524046" lon="15.017907784096359"><ele>600.6666666666666</ele><time>2026-04-12T10:20:35Z</time></trkpt><trkpt lat="37.88822909931296" lon="15.018130282041945"><ele>599.3333333333334</ele><time>2026-04-12T10:20:36Z</time></trkpt><trkpt lat="37.888269013694966" lon="15.018359229679906"><ele>598.0</ele><time>2026-04-12T10:20:37Z</time></trkpt><trkpt lat="37.888304477672634" lon="15.018596971140774"><ele>597.6666666666667</ele><time>2026-04-12T10:20:38Z</time></trkpt><trkpt lat="37.88832205254717" lon="15.018843667514234"><ele>597.3333333333334</ele><time>2026-04-12T10:20:39Z</time></trkpt><trkpt lat="37.88832867203047" lon="15.019096926525913"><ele>597.0</ele><time>2026-04-12T10:20:40Z</time></trkpt><trkpt lat="37.88835355847361" lon="15.019357322379113"><ele>596.3333333333334</ele><time>2026-04-12T10:20:41Z</time></trkpt><trkpt lat="37.888385991542236" lon="15.019614548831994"><ele>595.6666666666667</ele><time>2026-04-12T10:20:42Z</time></trkpt><trkpt lat="37.88843584909489" lon="15.019853241579957"><ele>595.0</ele><time>2026-04-12T10:20:43Z</time></trkpt><trkpt lat="37.88850108525331" lon="15.020067120850138"><ele>593.25</ele><time>2026-04-12T10:20:44Z</time></trkpt><trkpt lat="37.888566941856205" lon="15.020253490124889"><ele>591.5</ele><time>2026-04-12T10:20:45Z</time></trkpt><trkpt lat="37.88861877892126" lon="15.020418834995311"><ele>589.75</ele><time>2026-04-12T10:20:46Z</time></trkpt><trkpt lat="37.88863440928164" lon="15.020585225485378"><ele>588.0</ele><time>2026-04-12T10:20:47Z</time></trkpt><trkpt lat="37.88862268721594" lon="15.020778201395803"><ele>589.0</ele><time>2026-04-12T10:20:48Z</time></trkpt><trkpt lat="37.88862442271888" lon="15.020990481142283"><ele>590.0</ele><time>2026-04-12T10:20:49Z</time></trkpt><trkpt lat="37.88863042029123" lon="15.021218424844571"><ele>591.0</ele><time>2026-04-12T10:20:50Z</time></trkpt><trkpt lat="37.88863068773297" lon="15.021457670796096"><ele>590.0</ele><time>2026-04-12T10:20:51Z</time></trkpt><trkpt lat="37.888613606249976" lon="15.021708871818372"><ele>589.0</ele><time>2026-04-12T10:20:52Z</time></trkpt><trkpt lat="37.888613084466265" lon="15.021973212109184"><ele>588.0</ele><time>2026-04-12T10:20:53Z</time></trkpt><trkpt lat="37.88865060756224" lon="15.022248124039422"><ele>588.6666666666666</ele><time>2026-04-12T10:20:54Z</time></trkpt><trkpt lat="37.888708951196215" lon="15.022494022706924"><ele>589.3333333333333</ele><time>2026-04-12T10:20:55Z</time></trkpt><trkpt lat="37.88876341238028" lon="15.022712986350726"><ele>590.0</ele><time>2026-04-12T10:20:56Z</time></trkpt><trkpt lat="37.88879430705353" lon="15.022909500746168"><ele>590.0</ele><time>2026-04-12T10:20:57Z</time></trkpt><trkpt lat="37.888783361389336" lon="15.023104391523614"><ele>590.0</ele><time>2026-04-12T10:20:58Z</time></trkpt><trkpt lat="37.88875777970225" lon="15.023312435635672"><ele>590.0</ele><time>2026-04-12T10:20:59Z</time></trkpt><trkpt lat="37.88875823269617" lon="15.023534905404134"><ele>591.0</ele><time>2026-04-12T10:21:00Z</time></trkpt><trkpt lat="37.888749724741864" lon="15.023757490006846"><ele>592.0</ele><time>2026-04-12T10:21:01Z</time></trkpt><trkpt lat="37.888740379022046" lon="15.023974205696005"><ele>593.0</ele><time>2026-04-12T10:21:02Z</time></trkpt><trkpt lat="37.888710316736834" lon="15.024177912207827"><ele>593.0</ele><time>2026-04-12T10:21:03Z</time></trkpt><trkpt lat="37.888658638667444" lon="15.024376804559713"><ele>593.0</ele><time>2026-04-12T10:21:04Z</time></trkpt><trkpt lat="37.88860335255238" lon="15.02456731200748"><ele>593.0</ele><time>2026-04-12T10:21:05Z</time></trkpt><trkpt lat="37.88854075800727" lon="15.024753466205807"><ele>593.0</ele><time>2026-04-12T10:21:06Z</time></trkpt><trkpt lat="37.88845077293153" lon="15.02492786442015"><ele>593.0</ele><time>2026-04-12T10:21:07Z</time></trkpt><trkpt lat="37.888336385585745" lon="15.02509394218389"><ele>593.0</ele><time>2026-04-12T10:21:08Z</time></trkpt><trkpt lat="37.8882188531788" lon="15.025261684662897"><ele>593.6666666666666</ele><time>2026-04-12T10:21:09Z</time></trkpt><trkpt lat="37.88811019351725" lon="15.025415362925061"><ele>594.3333333333334</ele><time>2026-04-12T10:21:10Z</time></trkpt><trkpt lat="37.88801486539107" lon="15.02557142882004"><ele>595.0</ele><time>2026-04-12T10:21:11Z</time></trkpt><trkpt lat="37.887937149407186" lon="15.025734341088233"><ele>594.25</ele><time>2026-04-12T10:21:12Z</time></trkpt><trkpt lat="37.887913018403886" lon="15.025915110679056"><ele>593.5</ele><time>2026-04-12T10:21:13Z</time></trkpt><trkpt lat="37.887935177451425" lon="15.026090678067863"><ele>592.75</ele><time>2026-04-12T10:21:14Z</time></trkpt><trkpt lat="37.88798032543226" lon="15.026265085532742"><ele>592.0</ele><time>2026-04-12T10:21:15Z</time></trkpt><trkpt lat="37.88797558681417" lon="15.026467868050192"><ele>589.0</ele><time>2026-04-12T10:21:16Z</time></trkpt><trkpt lat="37.88791906262396" lon="15.026672672582201"><ele>586.0</ele><time>2026-04-12T10:21:17Z</time></trkpt><trkpt lat="37.88784889095205" lon="15.026877409957791"><ele>583.0</ele><time>2026-04-12T10:21:18Z</time></trkpt><trkpt lat="37.887817991887005" lon="15.027107277431892"><ele>583.0</ele><time>2026-04-12T10:21:19Z</time></trkpt><trkpt lat="37.88780328725993" lon="15.027332643290956"><ele>583.0</ele><time>2026-04-12T10:21:20Z</time></trkpt><trkpt lat="37.88777212643792" lon="15.027538681855189"><ele>583.0</ele><time>2026-04-12T10:21:21Z</time></trkpt><trkpt lat="37.88771400087942" lon="15.027718415147383"><ele>580.6666666666667</ele><time>2026-04-12T10:21:22Z</time></trkpt><trkpt lat="37.88761326760094" lon="15.027856962299278"><ele>578.3333333333334</ele><time>2026-04-12T10:21:23Z</time></trkpt><trkpt lat="37.88751707381319" lon="15.028005119399989"><ele>576.0</ele><time>2026-04-12T10:21:24Z</time></trkpt><trkpt lat="37.887445430534214" lon="15.028185936352985"><ele>579.3333333333334</ele><time>2026-04-12T10:21:25Z</time></trkpt><trkpt lat="37.88739469161474" lon="15.028387854618096"><ele>582.6666666666667</ele><time>2026-04-12T10:21:26Z</time></trkpt><trkpt lat="37.887364292898106" lon="15.028594560458934"><ele>586.0</ele><time>2026-04-12T10:21:27Z</time></trkpt><trkpt lat="37.887345240770955" lon="15.028791904401436"><ele>586.0</ele><time>2026-04-12T10:21:28Z</time></trkpt><trkpt lat="37.88733780054696" lon="15.028994453022746"><ele>586.0</ele><time>2026-04-12T10:21:29Z</time></trkpt><trkpt lat="37.88734311240077" lon="15.029202349761412"><ele>586.0</ele><time>2026-04-12T10:21:30Z</time></trkpt><trkpt lat="37.88734745800231" lon="15.029410808375905"><ele>583.3333333333334</ele><time>2026-04-12T10:21:31Z</time></trkpt><trkpt lat="37.8873334452609" lon="15.029621043965118"><ele>580.6666666666666</ele><time>2026-04-12T10:21:32Z</time></trkpt><trkpt lat="37.88730848474398" lon="15.029833220415634"><ele>578.0</ele><time>2026-04-12T10:21:33Z</time></trkpt><trkpt lat="37.887291026270304" lon="15.03004694351584"><ele>577.6666666666666</ele><time>2026-04-12T10:21:34Z</time></trkpt><trkpt lat="37.887292662469605" lon="15.03025258116321"><ele>577.3333333333334</ele><time>2026-04-12T10:21:35Z</time></trkpt><trkpt lat="37.88730733413574" lon="15.030441227992506"><ele>577.0</ele><time>2026-04-12T10:21:36Z</time></trkpt><trkpt lat="37.88728967828355" lon="15.030615948187373"><ele>577.0</ele><time>2026-04-12T10:21:37Z</time></trkpt><trkpt lat="37.88723067743157" lon="15.030795619035802"><ele>577.0</ele><time>2026-04-12T10:21:38Z</time></trkpt><trkpt lat="37.88718663873558" lon="15.030991411706907"><ele>577.0</ele><time>2026-04-12T10:21:39Z</time></trkpt><trkpt lat="37.88717224870238" lon="15.031205010444014"><ele>576.3333333333334</ele><time>2026-04-12T10:21:40Z</time></trkpt><trkpt lat="37.88718600085774" lon="15.031426286617485"><ele>575.6666666666666</ele><time>2026-04-12T10:21:41Z</time></trkpt><trkpt lat="37.88720190994775" lon="15.031649515430027"><ele>575.0</ele><time>2026-04-12T10:21:42Z</time></trkpt><trkpt lat="37.887195959550226" lon="15.03187135054264"><ele>575.6666666666666</ele><time>2026-04-12T10:21:43Z</time></trkpt><trkpt lat="37.88716752051738" lon="15.032097644702734"><ele>576.3333333333334</ele><time>2026-04-12T10:21:44Z</time></trkpt><trkpt lat="37.887141952814545" lon="15.032338714632374"><ele>577.0</ele><time>2026-04-12T10:21:45Z</time></trkpt><trkpt lat="37.88712051138242" lon="15.032596104016683"><ele>577.0</ele><time>2026-04-12T10:21:46Z</time></trkpt><trkpt lat="37.88709570170655" lon="15.03286186257166"><ele>577.0</ele><time>2026-04-12T10:21:47Z</time></trkpt><trkpt lat="37.88707199467606" lon="15.033135264717618"><ele>577.0</ele><time>2026-04-12T10:21:48Z</time></trkpt><trkpt lat="37.88704853506359" lon="15.033391375508689"><ele>574.6666666666667</ele><time>2026-04-12T10:21:49Z</time></trkpt><trkpt lat="37.88702506346784" lon="15.033632213978553"><ele>572.3333333333334</ele><time>2026-04-12T10:21:50Z</time></trkpt><trkpt lat="37.88700306373975" lon="15.033873894049739"><ele>570.0</ele><time>2026-04-12T10:21:51Z</time></trkpt><trkpt lat="37.88698761595025" lon="15.034112836464155"><ele>569.3333333333334</ele><time>2026-04-12T10:21:52Z</time></trkpt><trkpt lat="37.886993533708086" lon="15.034320588007208"><ele>568.6666666666667</ele><time>2026-04-12T10:21:53Z</time></trkpt><trkpt lat="37.887011037932076" lon="15.03450878259798"><ele>568.0</ele><time>2026-04-12T10:21:54Z</time></trkpt><trkpt lat="37.88705338113692" lon="15.034693062707293"><ele>568.0</ele><time>2026-04-12T10:21:55Z</time></trkpt><trkpt lat="37.88712874980501" lon="15.034873779327402"><ele>568.0</ele><time>2026-04-12T10:21:56Z</time></trkpt><trkpt lat="37.88720920319972" lon="15.035059180567758"><ele>568.0</ele><time>2026-04-12T10:21:57Z</time></trkpt><trkpt lat="37.88723611922859" lon="15.035249123199302"><ele>568.0</ele><time>2026-04-12T10:21:58Z</time></trkpt><trkpt lat="37.88727652593611" lon="15.035424894667113"><ele>568.0</ele><time>2026-04-12T10:21:59Z</time></trkpt><trkpt lat="37.88728161525889" lon="15.035620524932392"><ele>568.0</ele><time>2026-04-12T10:22:00Z</time></trkpt><trkpt lat="37.88726815139671" lon="15.035828096644513"><ele>567.6666666666667</ele><time>2026-04-12T10:22:01Z</time></trkpt><trkpt lat="37.88724763512004" lon="15.036048703884415"><ele>567.3333333333334</ele><time>2026-04-12T10:22:02Z</time></trkpt><trkpt lat="37.8872318630689" lon="15.036276537602623"><ele>567.0</ele><time>2026-04-12T10:22:03Z</time></trkpt><trkpt lat="37.88721700438398" lon="15.036506429071137"><ele>567.0</ele><time>2026-04-12T10:22:04Z</time></trkpt><trkpt lat="37.88719618740563" lon="15.03673761469641"><ele>567.0</ele><time>2026-04-12T10:22:05Z</time></trkpt><trkpt lat="37.88716874296651" lon="15.036970324615766"><ele>567.0</ele><time>2026-04-12T10:22:06Z</time></trkpt><trkpt lat="37.88713595276074" lon="15.03720481346231"><ele>567.0</ele><time>2026-04-12T10:22:07Z</time></trkpt><trkpt lat="37.88709097549304" lon="15.037426290790942"><ele>567.0</ele><time>2026-04-12T10:22:08Z</time></trkpt><trkpt lat="37.88704658074042" lon="15.037623676008431"><ele>567.0</ele><time>2026-04-12T10:22:09Z</time></trkpt><trkpt lat="37.8870070937584" lon="15.037807233498146"><ele>567.0</ele><time>2026-04-12T10:22:10Z</time></trkpt><trkpt lat="37.886978520758674" lon="15.037980344385774"><ele>567.0</ele><time>2026-04-12T10:22:11Z</time></trkpt><trkpt lat="37.88698286097553" lon="15.038145160013022"><ele>567.0</ele><time>2026-04-12T10:22:12Z</time></trkpt><trkpt lat="37.887032542068226" lon="15.038289755388638"><ele>567.0</ele><time>2026-04-12T10:22:13Z</time></trkpt><trkpt lat="37.887120799186164" lon="15.038441280504701"><ele>566.3333333333334</ele><time>2026-04-12T10:22:14Z</time></trkpt><trkpt lat="37.8872243581977" lon="15.038600539630522"><ele>565.6666666666667</ele><time>2026-04-12T10:22:15Z</time></trkpt><trkpt lat="37.887329998981805" lon="15.038773529076797"><ele>565.0</ele><time>2026-04-12T10:22:16Z</time></trkpt><trkpt lat="37.88743597561035" lon="15.038950225148987"><ele>565.0</ele><time>2026-04-12T10:22:17Z</time></trkpt><trkpt lat="37.887532009728965" lon="15.039106334608864"><ele>565.0</ele><time>2026-04-12T10:22:18Z</time></trkpt><trkpt lat="37.887618477223484" lon="15.039244337700383"><ele>565.0</ele><time>2026-04-12T10:22:19Z</time></trkpt><trkpt lat="37.887694789348444" lon="15.03936856700726"><ele>565.0</ele><time>2026-04-12T10:22:20Z</time></trkpt><trkpt lat="37.88774963530369" lon="15.039487969342597"><ele>563.75</ele><time>2026-04-12T10:22:21Z</time></trkpt><trkpt lat="37.887769879367845" lon="15.039620490945858"><ele>562.5</ele><time>2026-04-12T10:22:22Z</time></trkpt><trkpt lat="37.88774321247365" lon="15.039754684888782"><ele>561.25</ele><time>2026-04-12T10:22:23Z</time></trkpt><trkpt lat="37.887681509349775" lon="15.03988319359811"><ele>560.0</ele><time>2026-04-12T10:22:24Z</time></trkpt><trkpt lat="37.88759244516914" lon="15.040003379568994"><ele>562.75</ele><time>2026-04-12T10:22:25Z</time></trkpt><trkpt lat="37.88749301284023" lon="15.040127942362137"><ele>565.5</ele><time>2026-04-12T10:22:26Z</time></trkpt><trkpt lat="37.88739149705619" lon="15.040264722842236"><ele>568.25</ele><time>2026-04-12T10:22:27Z</time></trkpt><trkpt lat="37.887293925481785" lon="15.040410462917773"><ele>571.0</ele><time>2026-04-12T10:22:28Z</time></trkpt><trkpt lat="37.88721729463609" lon="15.040575450784798"><ele>571.0</ele><time>2026-04-12T10:22:29Z</time></trkpt><trkpt lat="37.88717118695392" lon="15.040770448112754"><ele>571.0</ele><time>2026-04-12T10:22:30Z</time></trkpt><trkpt lat="37.88712630336243" lon="15.040980413835372"><ele>571.0</ele><time>2026-04-12T10:22:31Z</time></trkpt><trkpt lat="37.88707745267324" lon="15.041203319547591"><ele>571.0</ele><time>2026-04-12T10:22:32Z</time></trkpt><trkpt lat="37.88701599489389" lon="15.04142790539839"><ele>571.0</ele><time>2026-04-12T10:22:33Z</time></trkpt><trkpt lat="37.886960714635705" lon="15.041674430275688"><ele>571.0</ele><time>2026-04-12T10:22:34Z</time></trkpt><trkpt lat="37.88689732511395" lon="15.041927230751806"><ele>571.0</ele><time>2026-04-12T10:22:35Z</time></trkpt><trkpt lat="37.88683184067921" lon="15.042194447512816"><ele>571.0</ele><time>2026-04-12T10:22:36Z</time></trkpt><trkpt lat="37.88676484343797" lon="15.042481056510384"><ele>572.5</ele><time>2026-04-12T10:22:37Z</time></trkpt><trkpt lat="37.886690846074835" lon="15.04278067728084"><ele>574.0</ele><time>2026-04-12T10:22:38Z</time></trkpt><trkpt lat="37.88662052668186" lon="15.043077760017075"><ele>573.0</ele><time>2026-04-12T10:22:39Z</time></trkpt><trkpt lat="37.88655226012333" lon="15.043366530003778"><ele>572.0</ele><time>2026-04-12T10:22:40Z</time></trkpt><trkpt lat="37.886486034570986" lon="15.04363278692124"><ele>572.0</ele><time>2026-04-12T10:22:41Z</time></trkpt><trkpt lat="37.88642632893684" lon="15.043882018463632"><ele>572.0</ele><time>2026-04-12T10:22:42Z</time></trkpt><trkpt lat="37.88636935971437" lon="15.04411544500577"><ele>572.0</ele><time>2026-04-12T10:22:43Z</time></trkpt><trkpt lat="37.88631529691567" lon="15.044333979840143"><ele>571.6666666666666</ele><time>2026-04-12T10:22:44Z</time></trkpt><trkpt lat="37.88626534997233" lon="15.044536144399602"><ele>571.3333333333334</ele><time>2026-04-12T10:22:45Z</time></trkpt><trkpt lat="37.88621987535454" lon="15.044727358593411"><ele>571.0</ele><time>2026-04-12T10:22:46Z</time></trkpt><trkpt lat="37.886172036527974" lon="15.044919052107744"><ele>571.6666666666667</ele><time>2026-04-12T10:22:47Z</time></trkpt><trkpt lat="37.88612577091158" lon="15.045114053423253"><ele>572.3333333333334</ele><time>2026-04-12T10:22:48Z</time></trkpt><trkpt lat="37.886077002451174" lon="15.045299967232971"><ele>573.0</ele><time>2026-04-12T10:22:49Z</time></trkpt><trkpt lat="37.88603174956413" lon="15.045489595292361"><ele>573.0</ele><time>2026-04-12T10:22:50Z</time></trkpt><trkpt lat="37.885988226072776" lon="15.045670403009066"><ele>573.0</ele><time>2026-04-12T10:22:51Z</time></trkpt><trkpt lat="37.88594977610982" lon="15.045835717843243"><ele>573.0</ele><time>2026-04-12T10:22:52Z</time></trkpt><trkpt lat="37.885913618772165" lon="15.045987651617539"><ele>573.0</ele><time>2026-04-12T10:22:53Z</time></trkpt><trkpt lat="37.88587838731963" lon="15.046124231179345"><ele>573.5</ele><time>2026-04-12T10:22:54Z</time></trkpt><trkpt lat="37.88584695394749" lon="15.046233391310315"><ele>574.0</ele><time>2026-04-12T10:22:55Z</time></trkpt><trkpt lat="37.885820456242" lon="15.046319536584166"><ele>574.5</ele><time>2026-04-12T10:22:56Z</time></trkpt><trkpt lat="37.88578387755354" lon="15.0464018231012"><ele>575.0</ele><time>2026-04-12T10:22:58Z</time></trkpt><trkpt lat="37.88573334209819" lon="15.046458823115652"><ele>575.5</ele><time>2026-04-12T10:23:02Z</time></trkpt><trkpt lat="37.88579064067341" lon="15.046561197524303"><ele>576.0</ele><time>2026-04-12T10:23:05Z</time></trkpt><trkpt lat="37.885923037543016" lon="15.046561255715233"><ele>575.2</ele><time>2026-04-12T10:23:07Z</time></trkpt><trkpt lat="37.8860038995143" lon="15.04655518163138"><ele>574.4000000000001</ele><time>2026-04-12T10:23:08Z</time></trkpt><trkpt lat="37.88609742434166" lon="15.046546004356767"><ele>573.6</ele><time>2026-04-12T10:23:09Z</time></trkpt><trkpt lat="37.886202964304886" lon="15.046540441844185"><ele>572.8000000000001</ele><time>2026-04-12T10:23:10Z</time></trkpt><trkpt lat="37.886319218690836" lon="15.046533437708199"><ele>572.0</ele><time>2026-04-12T10:23:11Z</time></trkpt><trkpt lat="37.88643707055148" lon="15.046530329166997"><ele>572.0</ele><time>2026-04-12T10:23:12Z</time></trkpt><trkpt lat="37.886559405411504" lon="15.046525786716227"><ele>572.0</ele><time>2026-04-12T10:23:13Z</time></trkpt><trkpt lat="37.886681739770516" lon="15.046521671851982"><ele>572.0</ele><time>2026-04-12T10:23:14Z</time></trkpt><trkpt lat="37.886803947777175" lon="15.046517490355583"><ele>572.0</ele><time>2026-04-12T10:23:15Z</time></trkpt><trkpt lat="37.88691848324782" lon="15.046532754483358"><ele>572.2</ele><time>2026-04-12T10:23:16Z</time></trkpt><trkpt lat="37.88701570216806" lon="15.046587692238555"><ele>572.4000000000001</ele><time>2026-04-12T10:23:17Z</time></trkpt><trkpt lat="37.88708715567212" lon="15.0466798363688"><ele>572.5999999999999</ele><time>2026-04-12T10:23:18Z</time></trkpt><trkpt lat="37.887125527057194" lon="15.046801443995959"><ele>572.8</ele><time>2026-04-12T10:23:19Z</time></trkpt><trkpt lat="37.88713908482471" lon="15.046948540845174"><ele>573.0</ele><time>2026-04-12T10:23:20Z</time></trkpt><trkpt lat="37.88713755478289" lon="15.047107223350379"><ele>572.25</ele><time>2026-04-12T10:23:21Z</time></trkpt><trkpt lat="37.88713800331657" lon="15.04726823770196"><ele>571.5</ele><time>2026-04-12T10:23:22Z</time></trkpt><trkpt lat="37.887136124319994" lon="15.04743813408124"><ele>570.75</ele><time>2026-04-12T10:23:23Z</time></trkpt><trkpt lat="37.88711757066108" lon="15.047614167785012"><ele>570.0</ele><time>2026-04-12T10:23:24Z</time></trkpt><trkpt lat="37.88707327590536" lon="15.047786633080028"><ele>568.0</ele><time>2026-04-12T10:23:25Z</time></trkpt><trkpt lat="37.88700506450656" lon="15.047948301950107"><ele>566.0</ele><time>2026-04-12T10:23:26Z</time></trkpt><trkpt lat="37.886924538598734" lon="15.048107983435466"><ele>564.0</ele><time>2026-04-12T10:23:27Z</time></trkpt><trkpt lat="37.88684660730285" lon="15.048258567037934"><ele>562.0</ele><time>2026-04-12T10:23:28Z</time></trkpt><trkpt lat="37.88677569995747" lon="15.048401942174571"><ele>563.0</ele><time>2026-04-12T10:23:29Z</time></trkpt><trkpt lat="37.88671470711948" lon="15.048529147917792"><ele>564.0</ele><time>2026-04-12T10:23:30Z</time></trkpt><trkpt lat="37.886671490868736" lon="15.048661577763603"><ele>565.0</ele><time>2026-04-12T10:23:31Z</time></trkpt><trkpt lat="37.88667261788454" lon="15.048798219827985"><ele>566.0</ele><time>2026-04-12T10:23:32Z</time></trkpt><trkpt lat="37.88671262549078" lon="15.04893470664878"><ele>565.5</ele><time>2026-04-12T10:23:33Z</time></trkpt><trkpt lat="37.88677652819131" lon="15.049062740013966"><ele>565.0</ele><time>2026-04-12T10:23:34Z</time></trkpt><trkpt lat="37.88685108178184" lon="15.049175149034257"><ele>564.5</ele><time>2026-04-12T10:23:35Z</time></trkpt><trkpt lat="37.88694504388834" lon="15.04925807076426"><ele>564.0</ele><time>2026-04-12T10:23:36Z</time></trkpt><trkpt lat="37.88705330046757" lon="15.049287648820929"><ele>564.0</ele><time>2026-04-12T10:23:37Z</time></trkpt><trkpt lat="37.88715796896501" lon="15.0492550337127"><ele>564.0</ele><time>2026-04-12T10:23:38Z</time></trkpt><trkpt lat="37.8872495235798" lon="15.049174723745983"><ele>564.0</ele><time>2026-04-12T10:23:39Z</time></trkpt><trkpt lat="37.88733762592209" lon="15.049065778690519"><ele>564.0</ele><time>2026-04-12T10:23:40Z</time></trkpt><trkpt lat="37.88742486041722" lon="15.048940922232427"><ele>563.25</ele><time>2026-04-12T10:23:41Z</time></trkpt><trkpt lat="37.887516807309915" lon="15.048816501932894"><ele>562.5</ele><time>2026-04-12T10:23:42Z</time></trkpt><trkpt lat="37.88761515640844" lon="15.048682061936072"><ele>561.75</ele><time>2026-04-12T10:23:43Z</time></trkpt><trkpt lat="37.88771464264761" lon="15.048554197127977"><ele>561.0</ele><time>2026-04-12T10:23:44Z</time></trkpt><trkpt lat="37.88781427417914" lon="15.048448658811017"><ele>560.25</ele><time>2026-04-12T10:23:45Z</time></trkpt><trkpt lat="37.887929383119854" lon="15.048361964231788"><ele>559.5</ele><time>2026-04-12T10:23:46Z</time></trkpt><trkpt lat="37.88805335511797" lon="15.048348381797693"><ele>558.75</ele><time>2026-04-12T10:23:47Z</time></trkpt><trkpt lat="37.88816429985129" lon="15.04840315177351"><ele>558.0</ele><time>2026-04-12T10:23:48Z</time></trkpt><trkpt lat="37.88826983259154" lon="15.048485665437175"><ele>558.0</ele><time>2026-04-12T10:23:49Z</time></trkpt><trkpt lat="37.88839037604931" lon="15.048525061326055"><ele>558.0</ele><time>2026-04-12T10:23:50Z</time></trkpt><trkpt lat="37.8885124776589" lon="15.048539616148368"><ele>558.0</ele><time>2026-04-12T10:23:51Z</time></trkpt><trkpt lat="37.888633227127876" lon="15.048505279846294"><ele>558.0</ele><time>2026-04-12T10:23:52Z</time></trkpt><trkpt lat="37.88874994074168" lon="15.048425400006236"><ele>557.75</ele><time>2026-04-12T10:23:53Z</time></trkpt><trkpt lat="37.88886091058446" lon="15.048320034786913"><ele>557.5</ele><time>2026-04-12T10:23:54Z</time></trkpt><trkpt lat="37.888974613903876" lon="15.048210597251467"><ele>557.25</ele><time>2026-04-12T10:23:55Z</time></trkpt><trkpt lat="37.88908671223628" lon="15.048108999295945"><ele>557.0</ele><time>2026-04-12T10:23:56Z</time></trkpt><trkpt lat="37.88918861813259" lon="15.04801564897878"><ele>555.6</ele><time>2026-04-12T10:23:57Z</time></trkpt><trkpt lat="37.88927844950567" lon="15.047942846423632"><ele>554.2</ele><time>2026-04-12T10:23:58Z</time></trkpt><trkpt lat="37.889362983105606" lon="15.04789858095213"><ele>552.8</ele><time>2026-04-12T10:23:59Z</time></trkpt><trkpt lat="37.88944447230661" lon="15.047912833758861"><ele>551.4</ele><time>2026-04-12T10:24:00Z</time></trkpt><trkpt lat="37.889507412849326" lon="15.048000987963784"><ele>550.0</ele><time>2026-04-12T10:24:01Z</time></trkpt><trkpt lat="37.8895569330577" lon="15.048118439450896"><ele>550.0</ele><time>2026-04-12T10:24:02Z</time></trkpt><trkpt lat="37.889621887637446" lon="15.048222394713145"><ele>550.0</ele><time>2026-04-12T10:24:03Z</time></trkpt><trkpt lat="37.88968982500958" lon="15.048330530819712"><ele>550.0</ele><time>2026-04-12T10:24:04Z</time></trkpt><trkpt lat="37.889765522056905" lon="15.04841633498395"><ele>550.0</ele><time>2026-04-12T10:24:05Z</time></trkpt><trkpt lat="37.88986517297363" lon="15.04845987109814"><ele>550.0</ele><time>2026-04-12T10:24:06Z</time></trkpt><trkpt lat="37.88997950025243" lon="15.048442061308348"><ele>549.8</ele><time>2026-04-12T10:24:07Z</time></trkpt><trkpt lat="37.89009307215216" lon="15.04837175075427"><ele>549.6</ele><time>2026-04-12T10:24:08Z</time></trkpt><trkpt lat="37.890197001982614" lon="15.048301932617003"><ele>549.4</ele><time>2026-04-12T10:24:09Z</time></trkpt><trkpt lat="37.89029633986399" lon="15.048287020320469"><ele>549.2</ele><time>2026-04-12T10:24:10Z</time></trkpt><trkpt lat="37.89038828763" lon="15.048319247972982"><ele>549.0</ele><time>2026-04-12T10:24:11Z</time></trkpt><trkpt lat="37.89046361475094" lon="15.048415157138876"><ele>549.0</ele><time>2026-04-12T10:24:12Z</time></trkpt><trkpt lat="37.89051223145477" lon="15.048544071067877"><ele>549.0</ele><time>2026-04-12T10:24:13Z</time></trkpt><trkpt lat="37.89061245806496" lon="15.048623925646822"><ele>549.0</ele><time>2026-04-12T10:24:14Z</time></trkpt><trkpt lat="37.890748312799914" lon="15.048662286349197"><ele>549.0</ele><time>2026-04-12T10:24:15Z</time></trkpt><trkpt lat="37.890895988777785" lon="15.048657846143932"><ele>547.75</ele><time>2026-04-12T10:24:16Z</time></trkpt><trkpt lat="37.8910370548499" lon="15.048610728698176"><ele>546.5</ele><time>2026-04-12T10:24:17Z</time></trkpt><trkpt lat="37.89116812523103" lon="15.04857262299602"><ele>545.25</ele><time>2026-04-12T10:24:18Z</time></trkpt><trkpt lat="37.8912896716025" lon="15.048576892876074"><ele>544.0</ele><time>2026-04-12T10:24:19Z</time></trkpt><trkpt lat="37.891406629478006" lon="15.048651280419309"><ele>544.0</ele><time>2026-04-12T10:24:20Z</time></trkpt><trkpt lat="37.89152535638448" lon="15.048756780485407"><ele>544.0</ele><time>2026-04-12T10:24:21Z</time></trkpt><trkpt lat="37.891641283364855" lon="15.04885662789839"><ele>544.0</ele><time>2026-04-12T10:24:22Z</time></trkpt><trkpt lat="37.89171149807703" lon="15.048956769354861"><ele>544.0</ele><time>2026-04-12T10:24:23Z</time></trkpt><trkpt lat="37.8917376875392" lon="15.049060509649545"><ele>544.6</ele><time>2026-04-12T10:24:24Z</time></trkpt><trkpt lat="37.89171033119294" lon="15.049170907297805"><ele>545.2</ele><time>2026-04-12T10:24:25Z</time></trkpt><trkpt lat="37.89164668721179" lon="15.049253011406604"><ele>545.8000000000001</ele><time>2026-04-12T10:24:26Z</time></trkpt><trkpt lat="37.89157822762706" lon="15.049335937535993"><ele>546.4</ele><time>2026-04-12T10:24:27Z</time></trkpt><trkpt lat="37.891527947793094" lon="15.049438049896564"><ele>547.0</ele><time>2026-04-12T10:24:28Z</time></trkpt><trkpt lat="37.89150448315331" lon="15.049551805749294"><ele>547.0</ele><time>2026-04-12T10:24:29Z</time></trkpt><trkpt lat="37.891531878353256" lon="15.04967558327776"><ele>547.0</ele><time>2026-04-12T10:24:30Z</time></trkpt><trkpt lat="37.89159873278032" lon="15.049785936364119"><ele>547.0</ele><time>2026-04-12T10:24:31Z</time></trkpt><trkpt lat="37.891708915368504" lon="15.049852971919337"><ele>547.0</ele><time>2026-04-12T10:24:32Z</time></trkpt><trkpt lat="37.89183755065905" lon="15.049878436832646"><ele>544.75</ele><time>2026-04-12T10:24:33Z</time></trkpt><trkpt lat="37.891977209478945" lon="15.0498461969072"><ele>542.5</ele><time>2026-04-12T10:24:34Z</time></trkpt><trkpt lat="37.89211004659118" lon="15.049789977137863"><ele>540.25</ele><time>2026-04-12T10:24:35Z</time></trkpt><trkpt lat="37.89225568942183" lon="15.049734891190472"><ele>538.0</ele><time>2026-04-12T10:24:36Z</time></trkpt><trkpt lat="37.892382391964944" lon="15.049729402988143"><ele>538.0</ele><time>2026-04-12T10:24:37Z</time></trkpt><trkpt lat="37.89250793415564" lon="15.04977259301321"><ele>538.0</ele><time>2026-04-12T10:24:38Z</time></trkpt><trkpt lat="37.89263225768349" lon="15.049864144819216"><ele>538.0</ele><time>2026-04-12T10:24:39Z</time></trkpt><trkpt lat="37.892764196080755" lon="15.049948653447895"><ele>538.0</ele><time>2026-04-12T10:24:40Z</time></trkpt><trkpt lat="37.89288467153979" lon="15.050033465075984"><ele>537.75</ele><time>2026-04-12T10:24:41Z</time></trkpt><trkpt lat="37.89297103339944" lon="15.05014734271457"><ele>537.5</ele><time>2026-04-12T10:24:42Z</time></trkpt><trkpt lat="37.893010343894304" lon="15.050295415506287"><ele>537.25</ele><time>2026-04-12T10:24:43Z</time></trkpt><trkpt lat="37.89301613764393" lon="15.050467901716756"><ele>537.0</ele><time>2026-04-12T10:24:44Z</time></trkpt><trkpt lat="37.89303420216561" lon="15.050645492440315"><ele>538.3333333333334</ele><time>2026-04-12T10:24:45Z</time></trkpt><trkpt lat="37.893103332200944" lon="15.05081761028324"><ele>539.6666666666667</ele><time>2026-04-12T10:24:46Z</time></trkpt><trkpt lat="37.89321006548791" lon="15.050969479639265"><ele>541.0</ele><time>2026-04-12T10:24:47Z</time></trkpt><trkpt lat="37.8933235516757" lon="15.051119390723464"><ele>538.0</ele><time>2026-04-12T10:24:48Z</time></trkpt><trkpt lat="37.89343919362287" lon="15.051277537938887"><ele>535.0</ele><time>2026-04-12T10:24:49Z</time></trkpt><trkpt lat="37.89357574213904" lon="15.051438519427624"><ele>532.0</ele><time>2026-04-12T10:24:50Z</time></trkpt><trkpt lat="37.89373280727284" lon="15.051589921944501"><ele>533.0</ele><time>2026-04-12T10:24:51Z</time></trkpt><trkpt lat="37.89389473210252" lon="15.05174077912382"><ele>534.0</ele><time>2026-04-12T10:24:52Z</time></trkpt><trkpt lat="37.894041362808075" lon="15.051915788629358"><ele>535.0</ele><time>2026-04-12T10:24:53Z</time></trkpt><trkpt lat="37.89418065857252" lon="15.052098519127304"><ele>534.6666666666667</ele><time>2026-04-12T10:24:54Z</time></trkpt><trkpt lat="37.89432776652463" lon="15.052262740146004"><ele>534.3333333333334</ele><time>2026-04-12T10:24:55Z</time></trkpt><trkpt lat="37.89447030574145" lon="15.052422397615242"><ele>534.0</ele><time>2026-04-12T10:24:56Z</time></trkpt><trkpt lat="37.89459517307811" lon="15.052605078189936"><ele>534.0</ele><time>2026-04-12T10:24:57Z</time></trkpt><trkpt lat="37.89469164025962" lon="15.052809139759564"><ele>534.0</ele><time>2026-04-12T10:24:58Z</time></trkpt><trkpt lat="37.894762864714075" lon="15.053007599048925"><ele>534.0</ele><time>2026-04-12T10:24:59Z</time></trkpt><trkpt lat="37.89483543698114" lon="15.05316494171316"><ele>534.0</ele><time>2026-04-12T10:25:00Z</time></trkpt><trkpt lat="37.89493631243128" lon="15.053273978019597"><ele>534.0</ele><time>2026-04-12T10:25:01Z</time></trkpt><trkpt lat="37.8950545673525" lon="15.053314198018407"><ele>534.0</ele><time>2026-04-12T10:25:02Z</time></trkpt><trkpt lat="37.89517061725553" lon="15.053295123960709"><ele>534.0</ele><time>2026-04-12T10:25:03Z</time></trkpt><trkpt lat="37.89529100730248" lon="15.053249775310366"><ele>533.25</ele><time>2026-04-12T10:25:04Z</time></trkpt><trkpt lat="37.89539937342743" lon="15.053259127253494"><ele>532.5</ele><time>2026-04-12T10:25:05Z</time></trkpt><trkpt lat="37.895505220695696" lon="15.053331540050843"><ele>531.75</ele><time>2026-04-12T10:25:06Z</time></trkpt><trkpt lat="37.89559843304665" lon="15.053444142419314"><ele>531.0</ele><time>2026-04-12T10:25:07Z</time></trkpt><trkpt lat="37.89568564862271" lon="15.053564365635133"><ele>531.0</ele><time>2026-04-12T10:25:08Z</time></trkpt><trkpt lat="37.89574558550818" lon="15.053691886747796"><ele>531.0</ele><time>2026-04-12T10:25:09Z</time></trkpt><trkpt lat="37.89577774130201" lon="15.053839956640704"><ele>531.0</ele><time>2026-04-12T10:25:10Z</time></trkpt><trkpt lat="37.89579250197936" lon="15.054008855326124"><ele>531.0</ele><time>2026-04-12T10:25:11Z</time></trkpt><trkpt lat="37.89580993074469" lon="15.054198658665959"><ele>531.0</ele><time>2026-04-12T10:25:12Z</time></trkpt><trkpt lat="37.89582920095442" lon="15.05440414052426"><ele>531.0</ele><time>2026-04-12T10:25:13Z</time></trkpt><trkpt lat="37.895850387659614" lon="15.054619543442291"><ele>531.0</ele><time>2026-04-12T10:25:14Z</time></trkpt><trkpt lat="37.8958765287618" lon="15.05484719743535"><ele>530.3333333333334</ele><time>2026-04-12T10:25:15Z</time></trkpt><trkpt lat="37.89590368139888" lon="15.055084211736077"><ele>529.6666666666667</ele><time>2026-04-12T10:25:16Z</time></trkpt><trkpt lat="37.89592753867267" lon="15.05532734212781"><ele>529.0</ele><time>2026-04-12T10:25:17Z</time></trkpt><trkpt lat="37.89595774414095" lon="15.05557582158166"><ele>527.3333333333334</ele><time>2026-04-12T10:25:18Z</time></trkpt><trkpt lat="37.89597810954022" lon="15.055825193537084"><ele>525.6666666666666</ele><time>2026-04-12T10:25:19Z</time></trkpt><trkpt lat="37.89600062462656" lon="15.056056727035042"><ele>524.0</ele><time>2026-04-12T10:25:20Z</time></trkpt><trkpt lat="37.89603695170015" lon="15.056264820419834"><ele>524.0</ele><time>2026-04-12T10:25:21Z</time></trkpt><trkpt lat="37.89609212202494" lon="15.056459467190063"><ele>524.0</ele><time>2026-04-12T10:25:22Z</time></trkpt><trkpt lat="37.89617557816291" lon="15.056633926393065"><ele>524.0</ele><time>2026-04-12T10:25:23Z</time></trkpt><trkpt lat="37.896269755151145" lon="15.056732477347932"><ele>524.0</ele><time>2026-04-12T10:25:24Z</time></trkpt><trkpt lat="37.89638290743363" lon="15.056784220691792"><ele>524.25</ele><time>2026-04-12T10:25:25Z</time></trkpt><trkpt lat="37.896493792822966" lon="15.056783533124637"><ele>524.5</ele><time>2026-04-12T10:25:26Z</time></trkpt><trkpt lat="37.896609224885566" lon="15.05675116636164"><ele>524.75</ele><time>2026-04-12T10:25:27Z</time></trkpt><trkpt lat="37.89672361938091" lon="15.056701071716738"><ele>525.0</ele><time>2026-04-12T10:25:28Z</time></trkpt><trkpt lat="37.8968288052799" lon="15.056617591084354"><ele>524.5</ele><time>2026-04-12T10:25:29Z</time></trkpt><trkpt lat="37.896917539601354" lon="15.056495319273841"><ele>524.0</ele><time>2026-04-12T10:25:30Z</time></trkpt><trkpt lat="37.896981462053496" lon="15.056347220462992"><ele>523.5</ele><time>2026-04-12T10:25:31Z</time></trkpt><trkpt lat="37.897047361956396" lon="15.056198289034738"><ele>523.0</ele><time>2026-04-12T10:25:32Z</time></trkpt><trkpt lat="37.89710608712145" lon="15.056041780444083"><ele>523.0</ele><time>2026-04-12T10:25:33Z</time></trkpt><trkpt lat="37.89716094864041" lon="15.055874817614995"><ele>523.0</ele><time>2026-04-12T10:25:34Z</time></trkpt><trkpt lat="37.89722692426188" lon="15.0557042574676"><ele>523.0</ele><time>2026-04-12T10:25:35Z</time></trkpt><trkpt lat="37.89729665294999" lon="15.055523629802693"><ele>524.0</ele><time>2026-04-12T10:25:36Z</time></trkpt><trkpt lat="37.89736946853027" lon="15.05533816612449"><ele>525.0</ele><time>2026-04-12T10:25:37Z</time></trkpt><trkpt lat="37.8974441922667" lon="15.055147580775758"><ele>526.0</ele><time>2026-04-12T10:25:38Z</time></trkpt><trkpt lat="37.89752018332016" lon="15.054952128247232"><ele>526.3333333333334</ele><time>2026-04-12T10:25:39Z</time></trkpt><trkpt lat="37.89759750277226" lon="15.054754140741466"><ele>526.6666666666666</ele><time>2026-04-12T10:25:40Z</time></trkpt><trkpt lat="37.89767393744134" lon="15.054563410296602"><ele>527.0</ele><time>2026-04-12T10:25:41Z</time></trkpt><trkpt lat="37.89775154937434" lon="15.054388167344964"><ele>527.0</ele><time>2026-04-12T10:25:42Z</time></trkpt><trkpt lat="37.89782201686919" lon="15.054223020906242"><ele>527.0</ele><time>2026-04-12T10:25:43Z</time></trkpt><trkpt lat="37.897882971967114" lon="15.054068107526456"><ele>527.0</ele><time>2026-04-12T10:25:44Z</time></trkpt><trkpt lat="37.897939785884226" lon="15.053923769188673"><ele>527.0</ele><time>2026-04-12T10:25:45Z</time></trkpt><trkpt lat="37.89799137916237" lon="15.053787631044028"><ele>527.6</ele><time>2026-04-12T10:25:46Z</time></trkpt><trkpt lat="37.89804120063423" lon="15.053663351330982"><ele>528.2</ele><time>2026-04-12T10:25:47Z</time></trkpt><trkpt lat="37.89809078730757" lon="15.0535454254663"><ele>528.8</ele><time>2026-04-12T10:25:48Z</time></trkpt><trkpt lat="37.898134994730455" lon="15.053419951995679"><ele>529.4</ele><time>2026-04-12T10:25:49Z</time></trkpt><trkpt lat="37.89818402208828" lon="15.053289959471758"><ele>530.0</ele><time>2026-04-12T10:25:50Z</time></trkpt><trkpt lat="37.89823556581136" lon="15.053154051332129"><ele>530.0</ele><time>2026-04-12T10:25:51Z</time></trkpt><trkpt lat="37.89828545113635" lon="15.053011745167133"><ele>530.0</ele><time>2026-04-12T10:25:52Z</time></trkpt><trkpt lat="37.898335990492676" lon="15.052876331785573"><ele>530.0</ele><time>2026-04-12T10:25:53Z</time></trkpt><trkpt lat="37.89839014971016" lon="15.052755125535612"><ele>530.0</ele><time>2026-04-12T10:25:54Z</time></trkpt><trkpt lat="37.89845589679795" lon="15.052655528069874"><ele>530.75</ele><time>2026-04-12T10:25:55Z</time></trkpt><trkpt lat="37.898546663486556" lon="15.052574609364855"><ele>531.5</ele><time>2026-04-12T10:25:56Z</time></trkpt><trkpt lat="37.89866199008811" lon="15.052522997219722"><ele>532.25</ele><time>2026-04-12T10:25:57Z</time></trkpt><trkpt lat="37.89878842645627" lon="15.052484628221885"><ele>533.0</ele><time>2026-04-12T10:25:58Z</time></trkpt><trkpt lat="37.898921188314404" lon="15.052442096106104"><ele>533.5</ele><time>2026-04-12T10:25:59Z</time></trkpt><trkpt lat="37.89905951784173" lon="15.052397496479534"><ele>534.0</ele><time>2026-04-12T10:26:00Z</time></trkpt><trkpt lat="37.899207439650205" lon="15.052360144965593"><ele>534.5</ele><time>2026-04-12T10:26:01Z</time></trkpt><trkpt lat="37.899351823856215" lon="15.052326559323337"><ele>535.0</ele><time>2026-04-12T10:26:02Z</time></trkpt><trkpt lat="37.89950455810612" lon="15.052294124020758"><ele>535.25</ele><time>2026-04-12T10:26:03Z</time></trkpt><trkpt lat="37.899645474162966" lon="15.052256741551277"><ele>535.5</ele><time>2026-04-12T10:26:04Z</time></trkpt><trkpt lat="37.89976608045033" lon="15.052236807012079"><ele>535.75</ele><time>2026-04-12T10:26:05Z</time></trkpt><trkpt lat="37.89987937998766" lon="15.052209036026342"><ele>536.0</ele><time>2026-04-12T10:26:06Z</time></trkpt><trkpt lat="37.899981451738306" lon="15.052175647968387"><ele>536.0</ele><time>2026-04-12T10:26:07Z</time></trkpt><trkpt lat="37.90007323721417" lon="15.052141077192019"><ele>536.0</ele><time>2026-04-12T10:26:08Z</time></trkpt><trkpt lat="37.90015704462519" lon="15.052121368532985"><ele>536.0</ele><time>2026-04-12T10:26:09Z</time></trkpt><trkpt lat="37.90023634208823" lon="15.052098639770561"><ele>536.0</ele><time>2026-04-12T10:26:10Z</time></trkpt><trkpt lat="37.90030208558397" lon="15.052089703899618"><ele>536.0</ele><time>2026-04-12T10:26:11Z</time></trkpt><trkpt lat="37.900393526083406" lon="15.052133617176667"><ele>536.0</ele><time>2026-04-12T10:26:13Z</time></trkpt><trkpt lat="37.90043276713447" lon="15.05222333817987"><ele>535.6666666666666</ele><time>2026-04-12T10:26:14Z</time></trkpt><trkpt lat="37.90045512126013" lon="15.052316668479323"><ele>535.3333333333333</ele><time>2026-04-12T10:26:15Z</time></trkpt><trkpt lat="37.900495919889615" lon="15.05239252510829"><ele>535.0</ele><time>2026-04-12T10:26:16Z</time></trkpt><trkpt lat="37.90054729959738" lon="15.05247232463307"><ele>534.6666666666666</ele><time>2026-04-12T10:26:17Z</time></trkpt><trkpt lat="37.900594305080155" lon="15.052558739382649"><ele>534.3333333333334</ele><time>2026-04-12T10:26:18Z</time></trkpt><trkpt lat="37.90064413001249" lon="15.05265286653896"><ele>534.0</ele><time>2026-04-12T10:26:19Z</time></trkpt><trkpt lat="37.90069560347969" lon="15.052756810336458"><ele>534.0</ele><time>2026-04-12T10:26:20Z</time></trkpt><trkpt lat="37.90074604134019" lon="15.052864747914313"><ele>534.0</ele><time>2026-04-12T10:26:21Z</time></trkpt><trkpt lat="37.90079872918242" lon="15.052972383322105"><ele>534.0</ele><time>2026-04-12T10:26:22Z</time></trkpt><trkpt lat="37.900848327280535" lon="15.053081472455807"><ele>534.0</ele><time>2026-04-12T10:26:23Z</time></trkpt><trkpt lat="37.90089890179925" lon="15.053194114600945"><ele>534.0</ele><time>2026-04-12T10:26:24Z</time></trkpt><trkpt lat="37.900952285620946" lon="15.053302976188654"><ele>533.25</ele><time>2026-04-12T10:26:25Z</time></trkpt><trkpt lat="37.90101333538934" lon="15.053420952475426"><ele>532.5</ele><time>2026-04-12T10:26:26Z</time></trkpt><trkpt lat="37.901069831951766" lon="15.05354239087886"><ele>531.75</ele><time>2026-04-12T10:26:27Z</time></trkpt><trkpt lat="37.90112832034292" lon="15.053670654649645"><ele>531.0</ele><time>2026-04-12T10:26:28Z</time></trkpt><trkpt lat="37.90119412773535" lon="15.053802567626718"><ele>531.0</ele><time>2026-04-12T10:26:29Z</time></trkpt><trkpt lat="37.90125741304265" lon="15.053938916760636"><ele>531.0</ele><time>2026-04-12T10:26:30Z</time></trkpt><trkpt lat="37.90132613292116" lon="15.054078885879445"><ele>531.0</ele><time>2026-04-12T10:26:31Z</time></trkpt><trkpt lat="37.90139833625798" lon="15.054222775551327"><ele>531.0</ele><time>2026-04-12T10:26:32Z</time></trkpt><trkpt lat="37.90147029952859" lon="15.054373432423281"><ele>530.75</ele><time>2026-04-12T10:26:33Z</time></trkpt><trkpt lat="37.90154306924549" lon="15.054524953628814"><ele>530.5</ele><time>2026-04-12T10:26:34Z</time></trkpt><trkpt lat="37.90160745099727" lon="15.054680845266816"><ele>530.25</ele><time>2026-04-12T10:26:35Z</time></trkpt><trkpt lat="37.90166839985281" lon="15.054844265747466"><ele>530.0</ele><time>2026-04-12T10:26:36Z</time></trkpt><trkpt lat="37.90171465881645" lon="15.055019732138378"><ele>530.0</ele><time>2026-04-12T10:26:37Z</time></trkpt><trkpt lat="37.901752463782096" lon="15.055202302999291"><ele>530.0</ele><time>2026-04-12T10:26:38Z</time></trkpt><trkpt lat="37.90178461221958" lon="15.055389610444987"><ele>530.0</ele><time>2026-04-12T10:26:39Z</time></trkpt><trkpt lat="37.90181575838524" lon="15.0555876367455"><ele>529.3333333333333</ele><time>2026-04-12T10:26:40Z</time></trkpt><trkpt lat="37.901852511421104" lon="15.05579521454494"><ele>528.6666666666666</ele><time>2026-04-12T10:26:41Z</time></trkpt><trkpt lat="37.90188731106215" lon="15.056012294204818"><ele>528.0</ele><time>2026-04-12T10:26:42Z</time></trkpt><trkpt lat="37.90192574743787" lon="15.056231827325018"><ele>528.0</ele><time>2026-04-12T10:26:43Z</time></trkpt><trkpt lat="37.90196445024914" lon="15.056454508497971"><ele>528.0</ele><time>2026-04-12T10:26:44Z</time></trkpt><trkpt lat="37.90199884924762" lon="15.056681747697432"><ele>528.0</ele><time>2026-04-12T10:26:45Z</time></trkpt><trkpt lat="37.90203277244127" lon="15.056912485216953"><ele>528.0</ele><time>2026-04-12T10:26:46Z</time></trkpt><trkpt lat="37.9020644980043" lon="15.057142350407512"><ele>528.0</ele><time>2026-04-12T10:26:47Z</time></trkpt><trkpt lat="37.902097761037155" lon="15.057369678874464"><ele>528.0</ele><time>2026-04-12T10:26:48Z</time></trkpt><trkpt lat="37.902126908779834" lon="15.057598873368063"><ele>528.0</ele><time>2026-04-12T10:26:49Z</time></trkpt><trkpt lat="37.90215822327148" lon="15.057819708980361"><ele>528.0</ele><time>2026-04-12T10:26:50Z</time></trkpt><trkpt lat="37.90218502155533" lon="15.058027656595934"><ele>528.0</ele><time>2026-04-12T10:26:51Z</time></trkpt><trkpt lat="37.90221029139008" lon="15.05822093452963"><ele>528.0</ele><time>2026-04-12T10:26:52Z</time></trkpt><trkpt lat="37.902231168052616" lon="15.058404452369635"><ele>528.0</ele><time>2026-04-12T10:26:53Z</time></trkpt><trkpt lat="37.90223673313813" lon="15.058588407822153"><ele>528.0</ele><time>2026-04-12T10:26:54Z</time></trkpt><trkpt lat="37.902215527174526" lon="15.058774501720862"><ele>528.0</ele><time>2026-04-12T10:26:55Z</time></trkpt><trkpt lat="37.902155852749765" lon="15.058962555625731"><ele>527.0</ele><time>2026-04-12T10:26:56Z</time></trkpt><trkpt lat="37.902085625404915" lon="15.059152220168558"><ele>526.0</ele><time>2026-04-12T10:26:57Z</time></trkpt><trkpt lat="37.902007765280025" lon="15.059346715791014"><ele>525.0</ele><time>2026-04-12T10:26:58Z</time></trkpt><trkpt lat="37.9019340424745" lon="15.059551346971377"><ele>525.0</ele><time>2026-04-12T10:26:59Z</time></trkpt><trkpt lat="37.9018693957649" lon="15.059768267331734"><ele>525.0</ele><time>2026-04-12T10:27:00Z</time></trkpt><trkpt lat="37.90181733440954" lon="15.05999724842631"><ele>525.0</ele><time>2026-04-12T10:27:01Z</time></trkpt><trkpt lat="37.901776937415825" lon="15.060239500497204"><ele>523.6666666666666</ele><time>2026-04-12T10:27:02Z</time></trkpt><trkpt lat="37.90174511919619" lon="15.060491383149806"><ele>522.3333333333333</ele><time>2026-04-12T10:27:03Z</time></trkpt><trkpt lat="37.901716954072896" lon="15.060753662946142"><ele>521.0</ele><time>2026-04-12T10:27:04Z</time></trkpt><trkpt lat="37.90168986835848" lon="15.061024299494878"><ele>520.6666666666666</ele><time>2026-04-12T10:27:05Z</time></trkpt><trkpt lat="37.901667242366614" lon="15.06127991406334"><ele>520.3333333333334</ele><time>2026-04-12T10:27:06Z</time></trkpt><trkpt lat="37.901642772085616" lon="15.061513916579168"><ele>520.0</ele><time>2026-04-12T10:27:07Z</time></trkpt><trkpt lat="37.90162348225025" lon="15.06173393455707"><ele>519.3333333333334</ele><time>2026-04-12T10:27:08Z</time></trkpt><trkpt lat="37.90160741050825" lon="15.061936955092433"><ele>518.6666666666666</ele><time>2026-04-12T10:27:09Z</time></trkpt><trkpt lat="37.90158189080819" lon="15.062121126287865"><ele>518.0</ele><time>2026-04-12T10:27:10Z</time></trkpt><trkpt lat="37.901529200428385" lon="15.06228795575903"><ele>518.0</ele><time>2026-04-12T10:27:11Z</time></trkpt><trkpt lat="37.90145244938201" lon="15.062436040737508"><ele>518.0</ele><time>2026-04-12T10:27:12Z</time></trkpt><trkpt lat="37.9013571710852" lon="15.062577947128656"><ele>518.0</ele><time>2026-04-12T10:27:13Z</time></trkpt><trkpt lat="37.90125657120459" lon="15.06270950751344"><ele>518.0</ele><time>2026-04-12T10:27:14Z</time></trkpt><trkpt lat="37.90116298197501" lon="15.062852424001182"><ele>517.5</ele><time>2026-04-12T10:27:15Z</time></trkpt><trkpt lat="37.90107237359782" lon="15.062998596143792"><ele>517.0</ele><time>2026-04-12T10:27:16Z</time></trkpt><trkpt lat="37.90098735540109" lon="15.063149004618293"><ele>516.5</ele><time>2026-04-12T10:27:17Z</time></trkpt><trkpt lat="37.90092952715124" lon="15.063308769530682"><ele>516.0</ele><time>2026-04-12T10:27:18Z</time></trkpt><trkpt lat="37.90089137537711" lon="15.06350891743052"><ele>515.3333333333334</ele><time>2026-04-12T10:27:19Z</time></trkpt><trkpt lat="37.90085939674729" lon="15.06373537876008"><ele>514.6666666666667</ele><time>2026-04-12T10:27:20Z</time></trkpt><trkpt lat="37.90079380462133" lon="15.063967530082119"><ele>514.0</ele><time>2026-04-12T10:27:21Z</time></trkpt><trkpt lat="37.900732033409696" lon="15.06422416370732"><ele>513.0</ele><time>2026-04-12T10:27:22Z</time></trkpt><trkpt lat="37.900672321462196" lon="15.064478137897716"><ele>512.0</ele><time>2026-04-12T10:27:23Z</time></trkpt><trkpt lat="37.90063034313817" lon="15.064715624133136"><ele>511.0</ele><time>2026-04-12T10:27:24Z</time></trkpt><trkpt lat="37.90057384514247" lon="15.064940867435473"><ele>507.33333333333337</ele><time>2026-04-12T10:27:25Z</time></trkpt><trkpt lat="37.90052378397129" lon="15.065154005271578"><ele>503.66666666666663</ele><time>2026-04-12T10:27:26Z</time></trkpt><trkpt lat="37.900469923308904" lon="15.065354933615062"><ele>500.0</ele><time>2026-04-12T10:27:27Z</time></trkpt><trkpt lat="37.900410737516324" lon="15.065521881085935"><ele>500.0</ele><time>2026-04-12T10:27:28Z</time></trkpt><trkpt lat="37.90032617857318" lon="15.065657913580928"><ele>500.0</ele><time>2026-04-12T10:27:29Z</time></trkpt><trkpt lat="37.90021249005806" lon="15.065751266874544"><ele>500.0</ele><time>2026-04-12T10:27:30Z</time></trkpt><trkpt lat="37.90008454415327" lon="15.065816990538721"><ele>500.0</ele><time>2026-04-12T10:27:31Z</time></trkpt><trkpt lat="37.89996378914314" lon="15.065854386306022"><ele>499.2</ele><time>2026-04-12T10:27:32Z</time></trkpt><trkpt lat="37.89986614763355" lon="15.065898412000942"><ele>498.4</ele><time>2026-04-12T10:27:33Z</time></trkpt><trkpt lat="37.89978000362341" lon="15.065971000815239"><ele>497.6</ele><time>2026-04-12T10:27:34Z</time></trkpt><trkpt lat="37.89973024362433" lon="15.066084950812828"><ele>496.8</ele><time>2026-04-12T10:27:35Z</time></trkpt><trkpt lat="37.89973212373605" lon="15.066219516110094"><ele>496.0</ele><time>2026-04-12T10:27:36Z</time></trkpt><trkpt lat="37.89976247447684" lon="15.06634155814574"><ele>496.0</ele><time>2026-04-12T10:27:37Z</time></trkpt><trkpt lat="37.899806690273095" lon="15.066457571933572"><ele>496.0</ele><time>2026-04-12T10:27:38Z</time></trkpt><trkpt lat="37.89988181405508" lon="15.066549988006598"><ele>496.0</ele><time>2026-04-12T10:27:39Z</time></trkpt><trkpt lat="37.89999150375927" lon="15.066605997539828"><ele>496.0</ele><time>2026-04-12T10:27:40Z</time></trkpt><trkpt lat="37.90012215434568" lon="15.066621304720798"><ele>491.33333333333337</ele><time>2026-04-12T10:27:41Z</time></trkpt><trkpt lat="37.9002622414291" lon="15.06661765437658"><ele>486.66666666666663</ele><time>2026-04-12T10:27:42Z</time></trkpt><trkpt lat="37.900413774595755" lon="15.06663987665835"><ele>482.0</ele><time>2026-04-12T10:27:43Z</time></trkpt><trkpt lat="37.90057377902906" lon="15.066629544018221"><ele>482.0</ele><time>2026-04-12T10:27:44Z</time></trkpt><trkpt lat="37.900720025391685" lon="15.066649973815425"><ele>482.0</ele><time>2026-04-12T10:27:45Z</time></trkpt><trkpt lat="37.900859206552404" lon="15.066650396818662"><ele>482.0</ele><time>2026-04-12T10:27:46Z</time></trkpt><trkpt lat="37.90099502783711" lon="15.066697258552447"><ele>482.0</ele><time>2026-04-12T10:27:47Z</time></trkpt><trkpt lat="37.9011221747" lon="15.066786262013117"><ele>481.66666666666663</ele><time>2026-04-12T10:27:48Z</time></trkpt><trkpt lat="37.90122264702428" lon="15.06693292569881"><ele>481.33333333333337</ele><time>2026-04-12T10:27:49Z</time></trkpt><trkpt lat="37.90131947711107" lon="15.067081445942613"><ele>481.0</ele><time>2026-04-12T10:27:50Z</time></trkpt><trkpt lat="37.901431887737054" lon="15.067221590388757"><ele>481.0</ele><time>2026-04-12T10:27:51Z</time></trkpt><trkpt lat="37.90155823468703" lon="15.067366627674653"><ele>481.0</ele><time>2026-04-12T10:27:52Z</time></trkpt><trkpt lat="37.901689364942406" lon="15.067522128147667"><ele>481.0</ele><time>2026-04-12T10:27:53Z</time></trkpt><trkpt lat="37.901830709747415" lon="15.067678512106486"><ele>481.0</ele><time>2026-04-12T10:27:54Z</time></trkpt><trkpt lat="37.90198202979732" lon="15.06784059608843"><ele>481.0</ele><time>2026-04-12T10:27:55Z</time></trkpt><trkpt lat="37.90213058163099" lon="15.068020680691639"><ele>481.0</ele><time>2026-04-12T10:27:56Z</time></trkpt><trkpt lat="37.902276951697665" lon="15.068215454649813"><ele>482.33333333333337</ele><time>2026-04-12T10:27:57Z</time></trkpt><trkpt lat="37.90242991938901" lon="15.068408251369554"><ele>483.66666666666663</ele><time>2026-04-12T10:27:58Z</time></trkpt><trkpt lat="37.90258252649457" lon="15.068604278456785"><ele>485.0</ele><time>2026-04-12T10:27:59Z</time></trkpt><trkpt lat="37.90273303038345" lon="15.06880280711566"><ele>485.0</ele><time>2026-04-12T10:28:00Z</time></trkpt><trkpt lat="37.90288710409565" lon="15.068996203432617"><ele>485.0</ele><time>2026-04-12T10:28:01Z</time></trkpt><trkpt lat="37.90303895326941" lon="15.069190010983306"><ele>485.0</ele><time>2026-04-12T10:28:02Z</time></trkpt><trkpt lat="37.903188342765695" lon="15.069373356507416"><ele>484.66666666666663</ele><time>2026-04-12T10:28:03Z</time></trkpt><trkpt lat="37.903328378038374" lon="15.069541593360833"><ele>484.33333333333337</ele><time>2026-04-12T10:28:04Z</time></trkpt><trkpt lat="37.903456642706054" lon="15.069698184243292"><ele>484.0</ele><time>2026-04-12T10:28:05Z</time></trkpt><trkpt lat="37.90358020473259" lon="15.069845638913945"><ele>483.0</ele><time>2026-04-12T10:28:06Z</time></trkpt><trkpt lat="37.903691840300276" lon="15.069989743849003"><ele>482.0</ele><time>2026-04-12T10:28:07Z</time></trkpt><trkpt lat="37.90380082252138" lon="15.07012116149247"><ele>481.0</ele><time>2026-04-12T10:28:08Z</time></trkpt><trkpt lat="37.903915266196655" lon="15.070226868040502"><ele>481.0</ele><time>2026-04-12T10:28:09Z</time></trkpt><trkpt lat="37.904041786406296" lon="15.07030723134338"><ele>481.0</ele><time>2026-04-12T10:28:10Z</time></trkpt><trkpt lat="37.90418329477336" lon="15.070344049436128"><ele>481.0</ele><time>2026-04-12T10:28:11Z</time></trkpt><trkpt lat="37.904337758835055" lon="15.070348867987523"><ele>481.0</ele><time>2026-04-12T10:28:12Z</time></trkpt><trkpt lat="37.90449805420146" lon="15.070351019230657"><ele>481.25</ele><time>2026-04-12T10:28:13Z</time></trkpt><trkpt lat="37.904652247487256" lon="15.070354447555323"><ele>481.5</ele><time>2026-04-12T10:28:14Z</time></trkpt><trkpt lat="37.9047900686837" lon="15.070363383175962"><ele>481.75</ele><time>2026-04-12T10:28:15Z</time></trkpt><trkpt lat="37.90491877158438" lon="15.070381472607888"><ele>482.0</ele><time>2026-04-12T10:28:16Z</time></trkpt><trkpt lat="37.90503336878865" lon="15.07043112900174"><ele>482.40000000000003</ele><time>2026-04-12T10:28:17Z</time></trkpt><trkpt lat="37.905126924496095" lon="15.070512348714422"><ele>482.80000000000007</ele><time>2026-04-12T10:28:18Z</time></trkpt><trkpt lat="37.90517894715778" lon="15.07063685028695"><ele>483.2</ele><time>2026-04-12T10:28:19Z</time></trkpt><trkpt lat="37.90520014465033" lon="15.070772463594317"><ele>483.6</ele><time>2026-04-12T10:28:20Z</time></trkpt><trkpt lat="37.90518328608673" lon="15.070901926725604"><ele>484.0</ele><time>2026-04-12T10:28:21Z</time></trkpt><trkpt lat="37.90515055532767" lon="15.071039861564195"><ele>484.0</ele><time>2026-04-12T10:28:22Z</time></trkpt><trkpt lat="37.905130035766796" lon="15.071199748282398"><ele>484.0</ele><time>2026-04-12T10:28:23Z</time></trkpt><trkpt lat="37.90511859385447" lon="15.071379921941679"><ele>484.0</ele><time>2026-04-12T10:28:24Z</time></trkpt><trkpt lat="37.905110626373826" lon="15.071575234975647"><ele>484.0</ele><time>2026-04-12T10:28:25Z</time></trkpt><trkpt lat="37.905108367384045" lon="15.071781840315083"><ele>484.0</ele><time>2026-04-12T10:28:26Z</time></trkpt><trkpt lat="37.905106382818886" lon="15.071997551819058"><ele>484.0</ele><time>2026-04-12T10:28:27Z</time></trkpt><trkpt lat="37.90509922903571" lon="15.072219759860008"><ele>484.0</ele><time>2026-04-12T10:28:28Z</time></trkpt><trkpt lat="37.90506315636481" lon="15.072439942658182"><ele>483.33333333333337</ele><time>2026-04-12T10:28:29Z</time></trkpt><trkpt lat="37.90497743511614" lon="15.072644659950566"><ele>482.66666666666663</ele><time>2026-04-12T10:28:30Z</time></trkpt><trkpt lat="37.90486902118869" lon="15.07283568130181"><ele>482.0</ele><time>2026-04-12T10:28:31Z</time></trkpt><trkpt lat="37.90474655444425" lon="15.07301691694333"><ele>482.0</ele><time>2026-04-12T10:28:32Z</time></trkpt><trkpt lat="37.90464405983564" lon="15.073227748484468"><ele>482.0</ele><time>2026-04-12T10:28:33Z</time></trkpt><trkpt lat="37.90456026950733" lon="15.073460184592646"><ele>482.0</ele><time>2026-04-12T10:28:34Z</time></trkpt><trkpt lat="37.9044873677924" lon="15.07370859026442"><ele>484.3333333333333</ele><time>2026-04-12T10:28:35Z</time></trkpt><trkpt lat="37.90441521457897" lon="15.073960149122025"><ele>486.66666666666663</ele><time>2026-04-12T10:28:36Z</time></trkpt><trkpt lat="37.904344696102875" lon="15.074201834683848"><ele>489.0</ele><time>2026-04-12T10:28:37Z</time></trkpt><trkpt lat="37.90428426761543" lon="15.074448231770747"><ele>489.0</ele><time>2026-04-12T10:28:38Z</time></trkpt><trkpt lat="37.904245271621754" lon="15.074703600983687"><ele>489.0</ele><time>2026-04-12T10:28:39Z</time></trkpt><trkpt lat="37.90423580803364" lon="15.074973536583373"><ele>489.0</ele><time>2026-04-12T10:28:40Z</time></trkpt><trkpt lat="37.90422761680508" lon="15.075256668006167"><ele>490.66666666666663</ele><time>2026-04-12T10:28:41Z</time></trkpt><trkpt lat="37.90421591618858" lon="15.075528885161349"><ele>492.3333333333333</ele><time>2026-04-12T10:28:42Z</time></trkpt><trkpt lat="37.90420968331898" lon="15.075763434584967"><ele>494.0</ele><time>2026-04-12T10:28:43Z</time></trkpt><trkpt lat="37.90420679366741" lon="15.075966905892468"><ele>495.0</ele><time>2026-04-12T10:28:44Z</time></trkpt><trkpt lat="37.90422082239598" lon="15.076137870878048"><ele>496.0</ele><time>2026-04-12T10:28:45Z</time></trkpt><trkpt lat="37.9042728247671" lon="15.076282427277926"><ele>497.0</ele><time>2026-04-12T10:28:46Z</time></trkpt><trkpt lat="37.90435934187055" lon="15.076424887073458"><ele>498.0</ele><time>2026-04-12T10:28:47Z</time></trkpt><trkpt lat="37.90447369153712" lon="15.076562391606577"><ele>503.33333333333337</ele><time>2026-04-12T10:28:48Z</time></trkpt><trkpt lat="37.904580108443206" lon="15.076723783628522"><ele>508.6666666666667</ele><time>2026-04-12T10:28:49Z</time></trkpt><trkpt lat="37.904679708928974" lon="15.076878497877853"><ele>514.0</ele><time>2026-04-12T10:28:50Z</time></trkpt><trkpt lat="37.90473343825826" lon="15.077071718418287"><ele>514.0</ele><time>2026-04-12T10:28:51Z</time></trkpt><trkpt lat="37.904772514073834" lon="15.077275355140978"><ele>514.0</ele><time>2026-04-12T10:28:52Z</time></trkpt><trkpt lat="37.90480982406854" lon="15.07748526599669"><ele>514.0</ele><time>2026-04-12T10:28:53Z</time></trkpt><trkpt lat="37.90485089436031" lon="15.077702049396757"><ele>515.3333333333334</ele><time>2026-04-12T10:28:54Z</time></trkpt><trkpt lat="37.90489383877194" lon="15.077922653596083"><ele>516.6666666666666</ele><time>2026-04-12T10:28:55Z</time></trkpt><trkpt lat="37.90493357613886" lon="15.07815546680985"><ele>518.0</ele><time>2026-04-12T10:28:56Z</time></trkpt><trkpt lat="37.90496384242468" lon="15.078391514278799"><ele>518.3333333333333</ele><time>2026-04-12T10:28:57Z</time></trkpt><trkpt lat="37.90499399104698" lon="15.078614223190758"><ele>518.6666666666666</ele><time>2026-04-12T10:28:58Z</time></trkpt><trkpt lat="37.90503232027336" lon="15.078824678159814"><ele>519.0</ele><time>2026-04-12T10:28:59Z</time></trkpt><trkpt lat="37.905086409356116" lon="15.079028664177514"><ele>522.6666666666666</ele><time>2026-04-12T10:29:00Z</time></trkpt><trkpt lat="37.9051642289785" lon="15.079226365325551"><ele>526.3333333333333</ele><time>2026-04-12T10:29:01Z</time></trkpt><trkpt lat="37.90525533739206" lon="15.079418660322917"><ele>530.0</ele><time>2026-04-12T10:29:02Z</time></trkpt><trkpt lat="37.905344447899594" lon="15.079604205404085"><ele>530.0</ele><time>2026-04-12T10:29:03Z</time></trkpt><trkpt lat="37.90542204957969" lon="15.0797977035229"><ele>530.0</ele><time>2026-04-12T10:29:04Z</time></trkpt><trkpt lat="37.90548056125691" lon="15.079980073796595"><ele>530.0</ele><time>2026-04-12T10:29:05Z</time></trkpt><trkpt lat="37.905524468061884" lon="15.080160341659887"><ele>527.6666666666666</ele><time>2026-04-12T10:29:06Z</time></trkpt><trkpt lat="37.9055594068541" lon="15.080348833725076"><ele>525.3333333333334</ele><time>2026-04-12T10:29:07Z</time></trkpt><trkpt lat="37.90558587082917" lon="15.080542144265062"><ele>523.0</ele><time>2026-04-12T10:29:08Z</time></trkpt><trkpt lat="37.905611492111596" lon="15.08072898331076"><ele>521.3333333333334</ele><time>2026-04-12T10:29:09Z</time></trkpt><trkpt lat="37.90563044050827" lon="15.080921063945453"><ele>519.6666666666666</ele><time>2026-04-12T10:29:10Z</time></trkpt><trkpt lat="37.90563345077354" lon="15.0811228485248"><ele>518.0</ele><time>2026-04-12T10:29:11Z</time></trkpt><trkpt lat="37.90561437954209" lon="15.081334653230865"><ele>518.0</ele><time>2026-04-12T10:29:12Z</time></trkpt><trkpt lat="37.90558817342436" lon="15.081549371333558"><ele>518.0</ele><time>2026-04-12T10:29:13Z</time></trkpt><trkpt lat="37.90555195519233" lon="15.081760073286771"><ele>518.0</ele><time>2026-04-12T10:29:14Z</time></trkpt><trkpt lat="37.90550682717678" lon="15.081951670036363"><ele>517.25</ele><time>2026-04-12T10:29:15Z</time></trkpt><trkpt lat="37.905462490580234" lon="15.08213773942552"><ele>516.5</ele><time>2026-04-12T10:29:16Z</time></trkpt><trkpt lat="37.90542272414796" lon="15.082319324278885"><ele>515.75</ele><time>2026-04-12T10:29:17Z</time></trkpt><trkpt lat="37.905380765828" lon="15.082494251555389"><ele>515.0</ele><time>2026-04-12T10:29:18Z</time></trkpt><trkpt lat="37.90534075025173" lon="15.082664850896574"><ele>511.5</ele><time>2026-04-12T10:29:19Z</time></trkpt><trkpt lat="37.90530304890845" lon="15.082827357543284"><ele>508.0</ele><time>2026-04-12T10:29:20Z</time></trkpt><trkpt lat="37.90526717187793" lon="15.08298213551262"><ele>504.5</ele><time>2026-04-12T10:29:21Z</time></trkpt><trkpt lat="37.90523195022513" lon="15.083128999482275"><ele>501.0</ele><time>2026-04-12T10:29:22Z</time></trkpt><trkpt lat="37.90519708928188" lon="15.08327088022792"><ele>498.6</ele><time>2026-04-12T10:29:23Z</time></trkpt><trkpt lat="37.90516868399666" lon="15.083411268338445"><ele>496.20000000000005</ele><time>2026-04-12T10:29:24Z</time></trkpt><trkpt lat="37.90513908185238" lon="15.083547159804262"><ele>493.79999999999995</ele><time>2026-04-12T10:29:25Z</time></trkpt><trkpt lat="37.90510209068816" lon="15.08366904482166"><ele>491.4</ele><time>2026-04-12T10:29:26Z</time></trkpt><trkpt lat="37.90506107383051" lon="15.083794035403015"><ele>489.0</ele><time>2026-04-12T10:29:27Z</time></trkpt><trkpt lat="37.90501887712434" lon="15.083926646550292"><ele>495.75</ele><time>2026-04-12T10:29:28Z</time></trkpt><trkpt lat="37.90499067477316" lon="15.084067839948764"><ele>502.5</ele><time>2026-04-12T10:29:29Z</time></trkpt><trkpt lat="37.90498290170342" lon="15.084210511308088"><ele>509.25</ele><time>2026-04-12T10:29:30Z</time></trkpt><trkpt lat="37.90497150492138" lon="15.084343861503184"><ele>516.0</ele><time>2026-04-12T10:29:31Z</time></trkpt><trkpt lat="37.90495845553701" lon="15.084492993328102"><ele>516.0</ele><time>2026-04-12T10:29:32Z</time></trkpt><trkpt lat="37.90493165105704" lon="15.084642407546045"><ele>516.0</ele><time>2026-04-12T10:29:33Z</time></trkpt><trkpt lat="37.90487590175343" lon="15.084787752036542"><ele>516.0</ele><time>2026-04-12T10:29:34Z</time></trkpt><trkpt lat="37.90479856472802" lon="15.084930336569753"><ele>516.0</ele><time>2026-04-12T10:29:35Z</time></trkpt><trkpt lat="37.90470200545479" lon="15.085059062715912"><ele>512.25</ele><time>2026-04-12T10:29:36Z</time></trkpt><trkpt lat="37.904594476958074" lon="15.085182179364946"><ele>508.5</ele><time>2026-04-12T10:29:37Z</time></trkpt><trkpt lat="37.90449111288946" lon="15.085299811701628"><ele>504.75</ele><time>2026-04-12T10:29:38Z</time></trkpt><trkpt lat="37.90438806246215" lon="15.085401568141842"><ele>501.0</ele><time>2026-04-12T10:29:39Z</time></trkpt><trkpt lat="37.90429425800583" lon="15.085507807730751"><ele>501.0</ele><time>2026-04-12T10:29:40Z</time></trkpt><trkpt lat="37.90422464259167" lon="15.085649010853016"><ele>501.0</ele><time>2026-04-12T10:29:41Z</time></trkpt><trkpt lat="37.90418181311201" lon="15.085818535912173"><ele>501.0</ele><time>2026-04-12T10:29:42Z</time></trkpt><trkpt lat="37.90417191664105" lon="15.086020346316078"><ele>501.0</ele><time>2026-04-12T10:29:43Z</time></trkpt><trkpt lat="37.90418572194431" lon="15.086229508303257"><ele>501.0</ele><time>2026-04-12T10:29:44Z</time></trkpt><trkpt lat="37.90420650204661" lon="15.086444642700865"><ele>501.0</ele><time>2026-04-12T10:29:45Z</time></trkpt><trkpt lat="37.90422479148987" lon="15.086661897762156"><ele>501.0</ele><time>2026-04-12T10:29:46Z</time></trkpt><trkpt lat="37.90425776568503" lon="15.086878977536985"><ele>493.66666666666663</ele><time>2026-04-12T10:29:47Z</time></trkpt><trkpt lat="37.90428725781207" lon="15.087096845182865"><ele>486.3333333333333</ele><time>2026-04-12T10:29:48Z</time></trkpt><trkpt lat="37.90432457833576" lon="15.087311984807947"><ele>479.0</ele><time>2026-04-12T10:29:49Z</time></trkpt><trkpt lat="37.90437038721677" lon="15.087514887898578"><ele>479.0</ele><time>2026-04-12T10:29:50Z</time></trkpt><trkpt lat="37.90442332418564" lon="15.087713802236383"><ele>479.0</ele><time>2026-04-12T10:29:51Z</time></trkpt><trkpt lat="37.904497361031126" lon="15.087904030021091"><ele>479.0</ele><time>2026-04-12T10:29:52Z</time></trkpt><trkpt lat="37.90460186733422" lon="15.088071797626704"><ele>479.0</ele><time>2026-04-12T10:29:53Z</time></trkpt><trkpt lat="37.90472279950209" lon="15.088227454699462"><ele>479.0</ele><time>2026-04-12T10:29:54Z</time></trkpt><trkpt lat="37.90484314021287" lon="15.088388363765766"><ele>479.0</ele><time>2026-04-12T10:29:55Z</time></trkpt><trkpt lat="37.90494956159819" lon="15.088568191378442"><ele>477.66666666666663</ele><time>2026-04-12T10:29:56Z</time></trkpt><trkpt lat="37.90503959507692" lon="15.088766254366746"><ele>476.33333333333337</ele><time>2026-04-12T10:29:57Z</time></trkpt><trkpt lat="37.905116036429874" lon="15.088979240111131"><ele>475.0</ele><time>2026-04-12T10:29:58Z</time></trkpt><trkpt lat="37.90519803220197" lon="15.08920576248475"><ele>475.0</ele><time>2026-04-12T10:29:59Z</time></trkpt><trkpt lat="37.90528054311298" lon="15.089442119113004"><ele>475.0</ele><time>2026-04-12T10:30:00Z</time></trkpt><trkpt lat="37.905364707448555" lon="15.089687350233012"><ele>475.0</ele><time>2026-04-12T10:30:01Z</time></trkpt><trkpt lat="37.90544920022374" lon="15.089917682979218"><ele>475.33333333333337</ele><time>2026-04-12T10:30:02Z</time></trkpt><trkpt lat="37.90555022116065" lon="15.09014624452678"><ele>475.66666666666663</ele><time>2026-04-12T10:30:03Z</time></trkpt><trkpt lat="37.905662326232864" lon="15.090360208847859"><ele>476.0</ele><time>2026-04-12T10:30:04Z</time></trkpt><trkpt lat="37.905777203933354" lon="15.090563747640036"><ele>476.0</ele><time>2026-04-12T10:30:05Z</time></trkpt><trkpt lat="37.905874333652534" lon="15.090756810469003"><ele>476.0</ele><time>2026-04-12T10:30:06Z</time></trkpt><trkpt lat="37.90595112774746" lon="15.090948851573861"><ele>476.0</ele><time>2026-04-12T10:30:07Z</time></trkpt><trkpt lat="37.90602572576162" lon="15.091131359452309"><ele>473.66666666666663</ele><time>2026-04-12T10:30:08Z</time></trkpt><trkpt lat="37.90612233336256" lon="15.091299375626736"><ele>471.33333333333337</ele><time>2026-04-12T10:30:09Z</time></trkpt><trkpt lat="37.90623490801715" lon="15.091447392179694"><ele>469.0</ele><time>2026-04-12T10:30:10Z</time></trkpt><trkpt lat="37.9063381029493" lon="15.09158928236428"><ele>470.5</ele><time>2026-04-12T10:30:11Z</time></trkpt><trkpt lat="37.906432154916594" lon="15.091727913836367"><ele>472.0</ele><time>2026-04-12T10:30:12Z</time></trkpt><trkpt lat="37.906503694046016" lon="15.091852814317248"><ele>473.5</ele><time>2026-04-12T10:30:13Z</time></trkpt><trkpt lat="37.906555384956455" lon="15.09197925968715"><ele>475.0</ele><time>2026-04-12T10:30:14Z</time></trkpt><trkpt lat="37.906585624448795" lon="15.092111916632696"><ele>475.0</ele><time>2026-04-12T10:30:15Z</time></trkpt><trkpt lat="37.906584033555305" lon="15.092242042108325"><ele>475.0</ele><time>2026-04-12T10:30:16Z</time></trkpt><trkpt lat="37.90655784368023" lon="15.092379234170004"><ele>475.0</ele><time>2026-04-12T10:30:17Z</time></trkpt><trkpt lat="37.9064955086869" lon="15.092511736766658"><ele>475.0</ele><time>2026-04-12T10:30:18Z</time></trkpt><trkpt lat="37.906405805875856" lon="15.09262616286873"><ele>475.0</ele><time>2026-04-12T10:30:19Z</time></trkpt><trkpt lat="37.90629654522514" lon="15.092728753096662"><ele>475.0</ele><time>2026-04-12T10:30:20Z</time></trkpt><trkpt lat="37.906181221893426" lon="15.09283497370585"><ele>475.0</ele><time>2026-04-12T10:30:21Z</time></trkpt><trkpt lat="37.906080860834074" lon="15.092950614386789"><ele>475.0</ele><time>2026-04-12T10:30:22Z</time></trkpt><trkpt lat="37.905989098604856" lon="15.093053481437446"><ele>475.0</ele><time>2026-04-12T10:30:23Z</time></trkpt><trkpt lat="37.90591343668731" lon="15.093160981991328"><ele>475.0</ele><time>2026-04-12T10:30:24Z</time></trkpt><trkpt lat="37.90587703961353" lon="15.093290687088265"><ele>475.0</ele><time>2026-04-12T10:30:25Z</time></trkpt><trkpt lat="37.90588637082587" lon="15.093430564427512"><ele>475.0</ele><time>2026-04-12T10:30:26Z</time></trkpt><trkpt lat="37.90594121465437" lon="15.093560972531813"><ele>472.75</ele><time>2026-04-12T10:30:27Z</time></trkpt><trkpt lat="37.90602471504656" lon="15.09367134182046"><ele>470.5</ele><time>2026-04-12T10:30:28Z</time></trkpt><trkpt lat="37.90610939498268" lon="15.093792317573788"><ele>468.25</ele><time>2026-04-12T10:30:29Z</time></trkpt><trkpt lat="37.90617881791197" lon="15.093925098243812"><ele>466.0</ele><time>2026-04-12T10:30:30Z</time></trkpt><trkpt lat="37.90623810608612" lon="15.094047916419417"><ele>467.0</ele><time>2026-04-12T10:30:31Z</time></trkpt><trkpt lat="37.90631133785043" lon="15.09415122415565"><ele>468.0</ele><time>2026-04-12T10:30:32Z</time></trkpt><trkpt lat="37.90639581580193" lon="15.094243328366238"><ele>469.0</ele><time>2026-04-12T10:30:33Z</time></trkpt><trkpt lat="37.90649076875011" lon="15.094315861054573"><ele>470.0</ele><time>2026-04-12T10:30:34Z</time></trkpt><trkpt lat="37.906588955613294" lon="15.094392229278197"><ele>471.0</ele><time>2026-04-12T10:30:35Z</time></trkpt><trkpt lat="37.906683879526646" lon="15.094470494654564"><ele>469.0</ele><time>2026-04-12T10:30:36Z</time></trkpt><trkpt lat="37.90678918649275" lon="15.094515059082928"><ele>467.0</ele><time>2026-04-12T10:30:37Z</time></trkpt><trkpt lat="37.9069018764918" lon="15.094523854773934"><ele>465.0</ele><time>2026-04-12T10:30:38Z</time></trkpt><trkpt lat="37.9070108464652" lon="15.094490349593888"><ele>463.0</ele><time>2026-04-12T10:30:39Z</time></trkpt><trkpt lat="37.90711213006003" lon="15.094450999341655"><ele>461.0</ele><time>2026-04-12T10:30:40Z</time></trkpt><trkpt lat="37.907216531923986" lon="15.09444322944088"><ele>461.0</ele><time>2026-04-12T10:30:41Z</time></trkpt><trkpt lat="37.90731368311894" lon="15.094490988594949"><ele>461.0</ele><time>2026-04-12T10:30:42Z</time></trkpt><trkpt lat="37.90740749676147" lon="15.094530432873723"><ele>461.0</ele><time>2026-04-12T10:30:43Z</time></trkpt><trkpt lat="37.907500340445715" lon="15.094580492078967"><ele>461.0</ele><time>2026-04-12T10:30:44Z</time></trkpt><trkpt lat="37.907587128420914" lon="15.094630658355385"><ele>461.0</ele><time>2026-04-12T10:30:45Z</time></trkpt><trkpt lat="37.90766029428725" lon="15.094692082555826"><ele>459.20000000000005</ele><time>2026-04-12T10:30:46Z</time></trkpt><trkpt lat="37.90771168883739" lon="15.094779904655782"><ele>457.40000000000003</ele><time>2026-04-12T10:30:47Z</time></trkpt><trkpt lat="37.90772839922465" lon="15.094899322333271"><ele>455.6</ele><time>2026-04-12T10:30:48Z</time></trkpt><trkpt lat="37.90771765710845" lon="15.095027454154854"><ele>453.8</ele><time>2026-04-12T10:30:49Z</time></trkpt><trkpt lat="37.907690149597975" lon="15.095151162958349"><ele>452.0</ele><time>2026-04-12T10:30:50Z</time></trkpt><trkpt lat="37.90766636629428" lon="15.095274007675567"><ele>452.0</ele><time>2026-04-12T10:30:51Z</time></trkpt><trkpt lat="37.90764717246771" lon="15.095397802295485"><ele>452.00000000000006</ele><time>2026-04-12T10:30:52Z</time></trkpt><trkpt lat="37.9076295170565" lon="15.09552500172241"><ele>452.00000000000006</ele><time>2026-04-12T10:30:53Z</time></trkpt><trkpt lat="37.90760906962769" lon="15.095653827930484"><ele>452.0</ele><time>2026-04-12T10:30:54Z</time></trkpt><trkpt lat="37.90758626220437" lon="15.095787081934343"><ele>452.0</ele><time>2026-04-12T10:30:55Z</time></trkpt><trkpt lat="37.90756308231427" lon="15.095924861662642"><ele>455.75</ele><time>2026-04-12T10:30:56Z</time></trkpt><trkpt lat="37.90753809865878" lon="15.096065614937668"><ele>459.5</ele><time>2026-04-12T10:30:57Z</time></trkpt><trkpt lat="37.90751217014692" lon="15.096209490363849"><ele>463.25</ele><time>2026-04-12T10:30:58Z</time></trkpt><trkpt lat="37.90748380308982" lon="15.096354428403265"><ele>467.0</ele><time>2026-04-12T10:30:59Z</time></trkpt><trkpt lat="37.907453728039094" lon="15.09650176928609"><ele>466.0</ele><time>2026-04-12T10:31:00Z</time></trkpt><trkpt lat="37.907421390199154" lon="15.09665162822771"><ele>465.0</ele><time>2026-04-12T10:31:01Z</time></trkpt><trkpt lat="37.90738972018207" lon="15.09680406839165"><ele>464.0</ele><time>2026-04-12T10:31:02Z</time></trkpt><trkpt lat="37.907356983813344" lon="15.096954249108002"><ele>463.0</ele><time>2026-04-12T10:31:03Z</time></trkpt><trkpt lat="37.90732310716002" lon="15.09710295012022"><ele>463.0</ele><time>2026-04-12T10:31:04Z</time></trkpt><trkpt lat="37.907309058888856" lon="15.097264576001981"><ele>463.0</ele><time>2026-04-12T10:31:05Z</time></trkpt><trkpt lat="37.907333293544134" lon="15.097415559613568"><ele>463.0</ele><time>2026-04-12T10:31:06Z</time></trkpt><trkpt lat="37.90739614401338" lon="15.097547098955387"><ele>463.0</ele><time>2026-04-12T10:31:07Z</time></trkpt><trkpt lat="37.907480039752194" lon="15.097655828665236"><ele>461.75</ele><time>2026-04-12T10:31:08Z</time></trkpt><trkpt lat="37.90757262419693" lon="15.097753320334364"><ele>460.5</ele><time>2026-04-12T10:31:09Z</time></trkpt><trkpt lat="37.90767098955731" lon="15.0978427962833"><ele>459.25</ele><time>2026-04-12T10:31:10Z</time></trkpt><trkpt lat="37.90776539097434" lon="15.097924305657065"><ele>458.0</ele><time>2026-04-12T10:31:11Z</time></trkpt><trkpt lat="37.90784391994923" lon="15.098015650025994"><ele>455.0</ele><time>2026-04-12T10:31:12Z</time></trkpt><trkpt lat="37.90789232009726" lon="15.098129851606673"><ele>451.99999999999994</ele><time>2026-04-12T10:31:13Z</time></trkpt><trkpt lat="37.9078975164681" lon="15.098245805770368"><ele>448.99999999999994</ele><time>2026-04-12T10:31:14Z</time></trkpt><trkpt lat="37.90785771288311" lon="15.0983538502241"><ele>446.0</ele><time>2026-04-12T10:31:15Z</time></trkpt><trkpt lat="37.90778619423159" lon="15.098445033257933"><ele>443.0</ele><time>2026-04-12T10:31:16Z</time></trkpt><trkpt lat="37.90769310064702" lon="15.098515880840123"><ele>443.0</ele><time>2026-04-12T10:31:17Z</time></trkpt><trkpt lat="37.907591176286196" lon="15.098577899863225"><ele>443.0</ele><time>2026-04-12T10:31:18Z</time></trkpt><trkpt lat="37.90750038943057" lon="15.098666885492197"><ele>443.0</ele><time>2026-04-12T10:31:19Z</time></trkpt><trkpt lat="37.907442205496324" lon="15.098788640312067"><ele>443.0</ele><time>2026-04-12T10:31:20Z</time></trkpt><trkpt lat="37.90743246724625" lon="15.09893070397348"><ele>442.0</ele><time>2026-04-12T10:31:21Z</time></trkpt><trkpt lat="37.90747360584053" lon="15.099070902108627"><ele>441.0</ele><time>2026-04-12T10:31:22Z</time></trkpt><trkpt lat="37.907553519603816" lon="15.099185196239933"><ele>440.0</ele><time>2026-04-12T10:31:23Z</time></trkpt><trkpt lat="37.90764701823737" lon="15.099293574170195"><ele>439.0</ele><time>2026-04-12T10:31:24Z</time></trkpt><trkpt lat="37.907732632238464" lon="15.099419910768205"><ele>439.0</ele><time>2026-04-12T10:31:25Z</time></trkpt><trkpt lat="37.90782071608407" lon="15.09953844232292"><ele>439.0</ele><time>2026-04-12T10:31:26Z</time></trkpt><trkpt lat="37.907896437133964" lon="15.099663939901394"><ele>439.0</ele><time>2026-04-12T10:31:27Z</time></trkpt><trkpt lat="37.907961795228694" lon="15.09979870035311"><ele>439.0</ele><time>2026-04-12T10:31:28Z</time></trkpt><trkpt lat="37.90799337598456" lon="15.099950750955463"><ele>438.75</ele><time>2026-04-12T10:31:29Z</time></trkpt><trkpt lat="37.90799854173079" lon="15.10010225220707"><ele>438.5</ele><time>2026-04-12T10:31:30Z</time></trkpt><trkpt lat="37.90798977506683" lon="15.100250340146474"><ele>438.25</ele><time>2026-04-12T10:31:31Z</time></trkpt><trkpt lat="37.90796983470235" lon="15.100408840136906"><ele>438.0</ele><time>2026-04-12T10:31:32Z</time></trkpt><trkpt lat="37.90798194382238" lon="15.10057274793643"><ele>438.0</ele><time>2026-04-12T10:31:33Z</time></trkpt><trkpt lat="37.90804004052639" lon="15.100732275551287"><ele>438.0</ele><time>2026-04-12T10:31:34Z</time></trkpt><trkpt lat="37.90814856686212" lon="15.100864318734592"><ele>438.0</ele><time>2026-04-12T10:31:35Z</time></trkpt><trkpt lat="37.90827626218659" lon="15.10098258518835"><ele>438.0</ele><time>2026-04-12T10:31:36Z</time></trkpt><trkpt lat="37.908408410059245" lon="15.101096751983556"><ele>433.0</ele><time>2026-04-12T10:31:37Z</time></trkpt><trkpt lat="37.90852845006895" lon="15.10122871784554"><ele>428.0</ele><time>2026-04-12T10:31:38Z</time></trkpt><trkpt lat="37.9086389656031" lon="15.101371188245656"><ele>423.0</ele><time>2026-04-12T10:31:39Z</time></trkpt><trkpt lat="37.908741153709144" lon="15.10153413706868"><ele>425.0</ele><time>2026-04-12T10:31:40Z</time></trkpt><trkpt lat="37.90884879633799" lon="15.101697841975097"><ele>427.0</ele><time>2026-04-12T10:31:41Z</time></trkpt><trkpt lat="37.90896319687604" lon="15.101862033256499"><ele>429.0</ele><time>2026-04-12T10:31:42Z</time></trkpt><trkpt lat="37.90908546657941" lon="15.102032447869346"><ele>429.0</ele><time>2026-04-12T10:31:43Z</time></trkpt><trkpt lat="37.90921261274354" lon="15.102215482759762"><ele>429.0</ele><time>2026-04-12T10:31:44Z</time></trkpt><trkpt lat="37.90934685048207" lon="15.102406272742373"><ele>429.0</ele><time>2026-04-12T10:31:45Z</time></trkpt><trkpt lat="37.90947340096604" lon="15.10259148872446"><ele>425.0</ele><time>2026-04-12T10:31:46Z</time></trkpt><trkpt lat="37.90959582257671" lon="15.102773997136332"><ele>421.0</ele><time>2026-04-12T10:31:47Z</time></trkpt><trkpt lat="37.90972086557475" lon="15.102954217566905"><ele>417.0</ele><time>2026-04-12T10:31:48Z</time></trkpt><trkpt lat="37.90984352450296" lon="15.10313021072267"><ele>420.0</ele><time>2026-04-12T10:31:49Z</time></trkpt><trkpt lat="37.90996447585827" lon="15.103305675776573"><ele>423.0</ele><time>2026-04-12T10:31:50Z</time></trkpt><trkpt lat="37.91007744486448" lon="15.103470469560056"><ele>426.0</ele><time>2026-04-12T10:31:51Z</time></trkpt><trkpt lat="37.91017908210469" lon="15.103618183131537"><ele>420.75</ele><time>2026-04-12T10:31:52Z</time></trkpt><trkpt lat="37.91026926828381" lon="15.10375155417078"><ele>415.5</ele><time>2026-04-12T10:31:53Z</time></trkpt><trkpt lat="37.91034944620546" lon="15.103877124869939"><ele>410.25</ele><time>2026-04-12T10:31:54Z</time></trkpt><trkpt lat="37.910413057203804" lon="15.104001752055382"><ele>405.0</ele><time>2026-04-12T10:31:55Z</time></trkpt><trkpt lat="37.910443636662016" lon="15.10415759045301"><ele>405.0</ele><time>2026-04-12T10:31:56Z</time></trkpt><trkpt lat="37.91044928317867" lon="15.104320540637419"><ele>405.0</ele><time>2026-04-12T10:31:57Z</time></trkpt><trkpt lat="37.910443289370725" lon="15.104480206117598"><ele>405.0</ele><time>2026-04-12T10:31:58Z</time></trkpt><trkpt lat="37.91044997571879" lon="15.104636436924498"><ele>405.0</ele><time>2026-04-12T10:31:59Z</time></trkpt><trkpt lat="37.910475617432205" lon="15.104778557972956"><ele>405.0</ele><time>2026-04-12T10:32:00Z</time></trkpt><trkpt lat="37.91053696234523" lon="15.104902949679227"><ele>405.0</ele><time>2026-04-12T10:32:01Z</time></trkpt><trkpt lat="37.91064333627756" lon="15.104976450152687"><ele>405.0</ele><time>2026-04-12T10:32:02Z</time></trkpt><trkpt lat="37.910765993964276" lon="15.1050102487305"><ele>405.0</ele><time>2026-04-12T10:32:03Z</time></trkpt><trkpt lat="37.9108866715875" lon="15.105037692941302"><ele>401.5</ele><time>2026-04-12T10:32:04Z</time></trkpt><trkpt lat="37.91100684329134" lon="15.105075250005367"><ele>398.0</ele><time>2026-04-12T10:32:05Z</time></trkpt><trkpt lat="37.911117930469445" lon="15.105118324549153"><ele>394.5</ele><time>2026-04-12T10:32:06Z</time></trkpt><trkpt lat="37.91121770835137" lon="15.105187733548199"><ele>391.0</ele><time>2026-04-12T10:32:07Z</time></trkpt><trkpt lat="37.91130232724584" lon="15.105296836950705"><ele>391.0</ele><time>2026-04-12T10:32:08Z</time></trkpt><trkpt lat="37.91137030972637" lon="15.105431330349017"><ele>391.0</ele><time>2026-04-12T10:32:09Z</time></trkpt><trkpt lat="37.91143791870868" lon="15.105572056767182"><ele>391.0</ele><time>2026-04-12T10:32:10Z</time></trkpt><trkpt lat="37.911516692219024" lon="15.10570335135428"><ele>391.0</ele><time>2026-04-12T10:32:11Z</time></trkpt><trkpt lat="37.911596882188185" lon="15.105826586345673"><ele>391.0</ele><time>2026-04-12T10:32:12Z</time></trkpt><trkpt lat="37.91168318109939" lon="15.105943253840044"><ele>391.0</ele><time>2026-04-12T10:32:13Z</time></trkpt><trkpt lat="37.91178015340972" lon="15.106053412509588"><ele>391.0</ele><time>2026-04-12T10:32:14Z</time></trkpt><trkpt lat="37.9118888509256" lon="15.106139700903547"><ele>391.0</ele><time>2026-04-12T10:32:15Z</time></trkpt><trkpt lat="37.91198591719217" lon="15.10619120625916"><ele>391.0</ele><time>2026-04-12T10:32:16Z</time></trkpt><trkpt lat="37.91206463378525" lon="15.106229057800572"><ele>391.0</ele><time>2026-04-12T10:32:17Z</time></trkpt><trkpt lat="37.91212993762143" lon="15.10625124636377"><ele>391.0</ele><time>2026-04-12T10:32:18Z</time></trkpt><trkpt lat="37.91222771554112" lon="15.106269041255302"><ele>391.0</ele><time>2026-04-12T10:32:20Z</time></trkpt><trkpt lat="37.91230766485847" lon="15.106287252035672"><ele>391.0</ele><time>2026-04-12T10:32:32Z</time></trkpt><trkpt lat="37.91239814842033" lon="15.106393142903347"><ele>391.0</ele><time>2026-04-12T10:32:34Z</time></trkpt><trkpt lat="37.91241041111455" lon="15.10650191505378"><ele>391.0</ele><time>2026-04-12T10:32:35Z</time></trkpt><trkpt lat="37.91241265287581" lon="15.106624355191633"><ele>391.0</ele><time>2026-04-12T10:32:36Z</time></trkpt><trkpt lat="37.91239280242704" lon="15.106752078964858"><ele>391.0</ele><time>2026-04-12T10:32:37Z</time></trkpt><trkpt lat="37.912383318616854" lon="15.106906563334757"><ele>391.0</ele><time>2026-04-12T10:32:38Z</time></trkpt><trkpt lat="37.91239861143787" lon="15.107071229503289"><ele>391.25</ele><time>2026-04-12T10:32:39Z</time></trkpt><trkpt lat="37.91240303161532" lon="15.107246306513247"><ele>391.5</ele><time>2026-04-12T10:32:40Z</time></trkpt><trkpt lat="37.91237100090539" lon="15.107432241994541"><ele>391.75</ele><time>2026-04-12T10:32:41Z</time></trkpt><trkpt lat="37.91229200223473" lon="15.107597654803824"><ele>392.0</ele><time>2026-04-12T10:32:42Z</time></trkpt><trkpt lat="37.91218920177043" lon="15.107698280801063"><ele>392.0</ele><time>2026-04-12T10:32:43Z</time></trkpt><trkpt lat="37.912105382057995" lon="15.107799589180427"><ele>392.0</ele><time>2026-04-12T10:32:44Z</time></trkpt><trkpt lat="37.91202808945749" lon="15.107921350089859"><ele>392.0</ele><time>2026-04-12T10:32:45Z</time></trkpt><trkpt lat="37.91195069437174" lon="15.108049861589407"><ele>392.0</ele><time>2026-04-12T10:32:46Z</time></trkpt><trkpt lat="37.91186980188112" lon="15.108213957743155"><ele>390.25</ele><time>2026-04-12T10:32:47Z</time></trkpt><trkpt lat="37.91180397603077" lon="15.10836836716417"><ele>388.5</ele><time>2026-04-12T10:32:48Z</time></trkpt><trkpt lat="37.91173925753741" lon="15.108518797147987"><ele>386.75</ele><time>2026-04-12T10:32:49Z</time></trkpt><trkpt lat="37.91165717825726" lon="15.108679513520174"><ele>385.0</ele><time>2026-04-12T10:32:50Z</time></trkpt><trkpt lat="37.91156448385128" lon="15.108851216219081"><ele>386.33333333333337</ele><time>2026-04-12T10:32:51Z</time></trkpt><trkpt lat="37.911455341316056" lon="15.109019507347965"><ele>387.66666666666663</ele><time>2026-04-12T10:32:52Z</time></trkpt><trkpt lat="37.911330569584614" lon="15.109191497069263"><ele>389.0</ele><time>2026-04-12T10:32:53Z</time></trkpt><trkpt lat="37.91120900485829" lon="15.109359501326896"><ele>389.0</ele><time>2026-04-12T10:32:54Z</time></trkpt><trkpt lat="37.91109097110039" lon="15.109531886520848"><ele>389.0</ele><time>2026-04-12T10:32:55Z</time></trkpt><trkpt lat="37.91099899016423" lon="15.109721237541462"><ele>389.0</ele><time>2026-04-12T10:32:56Z</time></trkpt><trkpt lat="37.91094977353783" lon="15.109933512734216"><ele>391.66666666666663</ele><time>2026-04-12T10:32:57Z</time></trkpt><trkpt lat="37.910941969780914" lon="15.110160498747927"><ele>394.33333333333337</ele><time>2026-04-12T10:32:58Z</time></trkpt><trkpt lat="37.910935421204506" lon="15.110380150843342"><ele>397.0</ele><time>2026-04-12T10:32:59Z</time></trkpt><trkpt lat="37.91090455118918" lon="15.110590158996285"><ele>396.33333333333337</ele><time>2026-04-12T10:33:00Z</time></trkpt><trkpt lat="37.910841019894264" lon="15.110778541830536"><ele>395.66666666666663</ele><time>2026-04-12T10:33:01Z</time></trkpt><trkpt lat="37.91074206577263" lon="15.110950630810622"><ele>395.0</ele><time>2026-04-12T10:33:02Z</time></trkpt><trkpt lat="37.91063409645272" lon="15.111094223179435"><ele>395.0</ele><time>2026-04-12T10:33:03Z</time></trkpt><trkpt lat="37.91053273482883" lon="15.111214272815257"><ele>395.0</ele><time>2026-04-12T10:33:04Z</time></trkpt><trkpt lat="37.9104654728202" lon="15.111353371016575"><ele>395.0</ele><time>2026-04-12T10:33:05Z</time></trkpt><trkpt lat="37.91044563774878" lon="15.11151311022178"><ele>395.0</ele><time>2026-04-12T10:33:06Z</time></trkpt><trkpt lat="37.91046141244407" lon="15.111684364582425"><ele>393.0</ele><time>2026-04-12T10:33:07Z</time></trkpt><trkpt lat="37.91049908461493" lon="15.111861301099212"><ele>391.0</ele><time>2026-04-12T10:33:08Z</time></trkpt><trkpt lat="37.91053764089763" lon="15.112042906602202"><ele>389.0</ele><time>2026-04-12T10:33:09Z</time></trkpt><trkpt lat="37.91056996005306" lon="15.112233199399355"><ele>387.0</ele><time>2026-04-12T10:33:10Z</time></trkpt><trkpt lat="37.910602588030336" lon="15.112427225838248"><ele>386.0</ele><time>2026-04-12T10:33:11Z</time></trkpt><trkpt lat="37.91063744506108" lon="15.112618406278477"><ele>385.0</ele><time>2026-04-12T10:33:12Z</time></trkpt><trkpt lat="37.91067287866432" lon="15.112809114280289"><ele>384.0</ele><time>2026-04-12T10:33:13Z</time></trkpt><trkpt lat="37.91070026922562" lon="15.112991992438804"><ele>384.0</ele><time>2026-04-12T10:33:14Z</time></trkpt><trkpt lat="37.91071915721479" lon="15.113162743075657"><ele>384.0</ele><time>2026-04-12T10:33:15Z</time></trkpt><trkpt lat="37.91070779331103" lon="15.113327961740405"><ele>384.0</ele><time>2026-04-12T10:33:16Z</time></trkpt><trkpt lat="37.9106712354611" lon="15.113498295489084"><ele>384.0</ele><time>2026-04-12T10:33:17Z</time></trkpt><trkpt lat="37.9105988199557" lon="15.113653290782667"><ele>383.5</ele><time>2026-04-12T10:33:18Z</time></trkpt><trkpt lat="37.910509523937336" lon="15.113782367746824"><ele>383.0</ele><time>2026-04-12T10:33:19Z</time></trkpt><trkpt lat="37.91039635496411" lon="15.11387067955452"><ele>382.5</ele><time>2026-04-12T10:33:20Z</time></trkpt><trkpt lat="37.91026080191577" lon="15.113923481628948"><ele>382.0</ele><time>2026-04-12T10:33:21Z</time></trkpt><trkpt lat="37.91012545912048" lon="15.114002552132721"><ele>384.66666666666663</ele><time>2026-04-12T10:33:22Z</time></trkpt><trkpt lat="37.909996736222794" lon="15.114110483387993"><ele>387.3333333333333</ele><time>2026-04-12T10:33:23Z</time></trkpt><trkpt lat="37.90987416661183" lon="15.114242632530415"><ele>390.0</ele><time>2026-04-12T10:33:24Z</time></trkpt><trkpt lat="37.90976642467735" lon="15.114385885070629"><ele>390.0</ele><time>2026-04-12T10:33:25Z</time></trkpt><trkpt lat="37.90968524176979" lon="15.11452695664773"><ele>390.0</ele><time>2026-04-12T10:33:26Z</time></trkpt><trkpt lat="37.9096397110905" lon="15.11465702969091"><ele>390.0</ele><time>2026-04-12T10:33:27Z</time></trkpt><trkpt lat="37.90964470853435" lon="15.114806788620264"><ele>390.0</ele><time>2026-04-12T10:33:28Z</time></trkpt><trkpt lat="37.909623682414306" lon="15.11494472670097"><ele>391.5</ele><time>2026-04-12T10:33:29Z</time></trkpt><trkpt lat="37.90953773441641" lon="15.115057692672865"><ele>393.0</ele><time>2026-04-12T10:33:30Z</time></trkpt><trkpt lat="37.90942929501606" lon="15.115140349936258"><ele>394.5</ele><time>2026-04-12T10:33:31Z</time></trkpt><trkpt lat="37.90932382476331" lon="15.115211105622171"><ele>396.0</ele><time>2026-04-12T10:33:32Z</time></trkpt><trkpt lat="37.90920165560318" lon="15.115243360856319"><ele>396.0</ele><time>2026-04-12T10:33:33Z</time></trkpt><trkpt lat="37.909100971699736" lon="15.115257430539584"><ele>396.0</ele><time>2026-04-12T10:33:34Z</time></trkpt><trkpt lat="37.90901753767562" lon="15.115366009628005"><ele>396.0</ele><time>2026-04-12T10:33:35Z</time></trkpt><trkpt lat="37.90896561277671" lon="15.115520065601398"><ele>396.0</ele><time>2026-04-12T10:33:36Z</time></trkpt><trkpt lat="37.90894877075325" lon="15.115693748165894"><ele>389.25</ele><time>2026-04-12T10:33:37Z</time></trkpt><trkpt lat="37.908955363684655" lon="15.115879796847201"><ele>382.5</ele><time>2026-04-12T10:33:38Z</time></trkpt><trkpt lat="37.90894892838405" lon="15.116062069013013"><ele>375.75</ele><time>2026-04-12T10:33:39Z</time></trkpt><trkpt lat="37.9089576915659" lon="15.11621942069604"><ele>369.0</ele><time>2026-04-12T10:33:40Z</time></trkpt><trkpt lat="37.90894973613471" lon="15.11635775908863"><ele>369.0</ele><time>2026-04-12T10:33:41Z</time></trkpt><trkpt lat="37.9088780192979" lon="15.116475358068383"><ele>369.0</ele><time>2026-04-12T10:33:42Z</time></trkpt><trkpt lat="37.9087962288697" lon="15.11658774145942"><ele>369.0</ele><time>2026-04-12T10:33:43Z</time></trkpt><trkpt lat="37.90874147925882" lon="15.116730677006451"><ele>369.0</ele><time>2026-04-12T10:33:44Z</time></trkpt><trkpt lat="37.908717334048134" lon="15.116895303915543"><ele>366.4</ele><time>2026-04-12T10:33:45Z</time></trkpt><trkpt lat="37.90869580044646" lon="15.11704917552103"><ele>363.79999999999995</ele><time>2026-04-12T10:33:46Z</time></trkpt><trkpt lat="37.908686620455654" lon="15.117190959389909"><ele>361.20000000000005</ele><time>2026-04-12T10:33:47Z</time></trkpt><trkpt lat="37.90868677375156" lon="15.117299306933376"><ele>358.6</ele><time>2026-04-12T10:33:48Z</time></trkpt><trkpt lat="37.90869767636829" lon="15.117411522555779"><ele>356.0</ele><time>2026-04-12T10:33:49Z</time></trkpt><trkpt lat="37.90867043245323" lon="15.117509544737148"><ele>353.6</ele><time>2026-04-12T10:33:50Z</time></trkpt><trkpt lat="37.90862085983876" lon="15.117603419851717"><ele>351.20000000000005</ele><time>2026-04-12T10:33:51Z</time></trkpt><trkpt lat="37.908553309724816" lon="15.117700059868486"><ele>348.79999999999995</ele><time>2026-04-12T10:33:52Z</time></trkpt><trkpt lat="37.908475743460386" lon="15.117801890417814"><ele>346.4</ele><time>2026-04-12T10:33:53Z</time></trkpt><trkpt lat="37.90838492953195" lon="15.117879192382174"><ele>344.0</ele><time>2026-04-12T10:33:54Z</time></trkpt><trkpt lat="37.908278081504314" lon="15.117958265764868"><ele>352.4</ele><time>2026-04-12T10:33:55Z</time></trkpt><trkpt lat="37.90818193118511" lon="15.118034433256998"><ele>360.79999999999995</ele><time>2026-04-12T10:33:56Z</time></trkpt><trkpt lat="37.908080344840435" lon="15.118070314418748"><ele>369.20000000000005</ele><time>2026-04-12T10:33:57Z</time></trkpt><trkpt lat="37.9079926889793" lon="15.118085260585028"><ele>377.6</ele><time>2026-04-12T10:33:58Z</time></trkpt><trkpt lat="37.90791648089591" lon="15.118067013852299"><ele>386.0</ele><time>2026-04-12T10:33:59Z</time></trkpt><trkpt lat="37.907849352573756" lon="15.118033721260863"><ele>386.0</ele><time>2026-04-12T10:34:00Z</time></trkpt><trkpt lat="37.90774415020632" lon="15.118020236778037"><ele>386.0</ele><time>2026-04-12T10:34:02Z</time></trkpt><trkpt lat="37.90767928357791" lon="15.118083518428438"><ele>386.0</ele><time>2026-04-12T10:34:03Z</time></trkpt><trkpt lat="37.90762189504273" lon="15.118191993184599"><ele>386.0</ele><time>2026-04-12T10:34:04Z</time></trkpt><trkpt lat="37.9075648701652" lon="15.118352907685894"><ele>386.0</ele><time>2026-04-12T10:34:05Z</time></trkpt><trkpt lat="37.90749257346125" lon="15.118526796869254"><ele>381.66666666666663</ele><time>2026-04-12T10:34:06Z</time></trkpt><trkpt lat="37.90741517849092" lon="15.118720324493856"><ele>377.3333333333333</ele><time>2026-04-12T10:34:07Z</time></trkpt><trkpt lat="37.90735377940994" lon="15.118939685714649"><ele>373.0</ele><time>2026-04-12T10:34:08Z</time></trkpt><trkpt lat="37.90732382863214" lon="15.119179047222994"><ele>367.3333333333333</ele><time>2026-04-12T10:34:09Z</time></trkpt><trkpt lat="37.907287753475224" lon="15.119391423130821"><ele>361.6666666666667</ele><time>2026-04-12T10:34:10Z</time></trkpt><trkpt lat="37.907236561023325" lon="15.11959694807707"><ele>356.0</ele><time>2026-04-12T10:34:11Z</time></trkpt><trkpt lat="37.907176681095585" lon="15.119791969327121"><ele>353.0</ele><time>2026-04-12T10:34:12Z</time></trkpt><trkpt lat="37.90713919271941" lon="15.119976160372667"><ele>350.0</ele><time>2026-04-12T10:34:13Z</time></trkpt><trkpt lat="37.90716664541156" lon="15.120174372270705"><ele>347.0</ele><time>2026-04-12T10:34:14Z</time></trkpt><trkpt lat="37.907188892642985" lon="15.120354521387815"><ele>347.0</ele><time>2026-04-12T10:34:15Z</time></trkpt><trkpt lat="37.90714015749882" lon="15.120526302801702"><ele>347.0</ele><time>2026-04-12T10:34:16Z</time></trkpt><trkpt lat="37.90706508637205" lon="15.120690304248525"><ele>347.0</ele><time>2026-04-12T10:34:17Z</time></trkpt><trkpt lat="37.906952926624754" lon="15.120854121969762"><ele>344.0</ele><time>2026-04-12T10:34:18Z</time></trkpt><trkpt lat="37.906840285695964" lon="15.121009133457575"><ele>341.0</ele><time>2026-04-12T10:34:19Z</time></trkpt><trkpt lat="37.906697358020814" lon="15.121125164093877"><ele>338.0</ele><time>2026-04-12T10:34:20Z</time></trkpt><trkpt lat="37.906550978270126" lon="15.121222832511194"><ele>338.6666666666667</ele><time>2026-04-12T10:34:21Z</time></trkpt><trkpt lat="37.90642848030914" lon="15.12138219268369"><ele>339.3333333333333</ele><time>2026-04-12T10:34:22Z</time></trkpt><trkpt lat="37.90635740465052" lon="15.121593864327613"><ele>340.0</ele><time>2026-04-12T10:34:23Z</time></trkpt><trkpt lat="37.906284252108556" lon="15.121777255906109"><ele>340.0</ele><time>2026-04-12T10:34:24Z</time></trkpt><trkpt lat="37.90616227263868" lon="15.12193512281223"><ele>340.0</ele><time>2026-04-12T10:34:25Z</time></trkpt><trkpt lat="37.90602070904868" lon="15.12204338151512"><ele>340.0</ele><time>2026-04-12T10:34:26Z</time></trkpt><trkpt lat="37.90590743672331" lon="15.122214184368898"><ele>341.3333333333333</ele><time>2026-04-12T10:34:27Z</time></trkpt><trkpt lat="37.905819110031445" lon="15.12239990727706"><ele>342.6666666666667</ele><time>2026-04-12T10:34:28Z</time></trkpt><trkpt lat="37.90574441456167" lon="15.122597373461137"><ele>344.0</ele><time>2026-04-12T10:34:29Z</time></trkpt><trkpt lat="37.905686848038705" lon="15.12280664816595"><ele>344.0</ele><time>2026-04-12T10:34:30Z</time></trkpt><trkpt lat="37.90565466335008" lon="15.123031526787125"><ele>344.0</ele><time>2026-04-12T10:34:31Z</time></trkpt><trkpt lat="37.905605532571464" lon="15.123256274534727"><ele>344.0</ele><time>2026-04-12T10:34:32Z</time></trkpt><trkpt lat="37.90553637734564" lon="15.123442502428004"><ele>340.33333333333337</ele><time>2026-04-12T10:34:33Z</time></trkpt><trkpt lat="37.905446821483196" lon="15.123608071485554"><ele>336.6666666666667</ele><time>2026-04-12T10:34:34Z</time></trkpt><trkpt lat="37.90533585300039" lon="15.123760410488265"><ele>333.0</ele><time>2026-04-12T10:34:35Z</time></trkpt><trkpt lat="37.905207587265174" lon="15.123911279303229"><ele>331.3333333333333</ele><time>2026-04-12T10:34:36Z</time></trkpt><trkpt lat="37.90510695572778" lon="15.124091287596489"><ele>329.66666666666663</ele><time>2026-04-12T10:34:37Z</time></trkpt><trkpt lat="37.905034959318876" lon="15.124311592560675"><ele>328.0</ele><time>2026-04-12T10:34:38Z</time></trkpt><trkpt lat="37.9049781965592" lon="15.12455290752069"><ele>331.3333333333333</ele><time>2026-04-12T10:34:39Z</time></trkpt><trkpt lat="37.904921808178855" lon="15.124793559038437"><ele>334.6666666666667</ele><time>2026-04-12T10:34:40Z</time></trkpt><trkpt lat="37.90486357184776" lon="15.125022072560661"><ele>338.0</ele><time>2026-04-12T10:34:41Z</time></trkpt><trkpt lat="37.904812562957446" lon="15.125239371255478"><ele>338.0</ele><time>2026-04-12T10:34:42Z</time></trkpt><trkpt lat="37.90477434015665" lon="15.125443947233856"><ele>338.0</ele><time>2026-04-12T10:34:43Z</time></trkpt><trkpt lat="37.9047648366057" lon="15.1256509730919"><ele>338.0</ele><time>2026-04-12T10:34:44Z</time></trkpt><trkpt lat="37.90478335131969" lon="15.125854849097191"><ele>336.0</ele><time>2026-04-12T10:34:45Z</time></trkpt><trkpt lat="37.90484362378488" lon="15.126061663661373"><ele>334.0</ele><time>2026-04-12T10:34:46Z</time></trkpt><trkpt lat="37.904897687794225" lon="15.126277997425019"><ele>332.0</ele><time>2026-04-12T10:34:47Z</time></trkpt><trkpt lat="37.90495542704691" lon="15.126495529120326"><ele>333.6666666666667</ele><time>2026-04-12T10:34:48Z</time></trkpt><trkpt lat="37.9049914661386" lon="15.12672500099701"><ele>335.3333333333333</ele><time>2026-04-12T10:34:49Z</time></trkpt><trkpt lat="37.90501030678775" lon="15.126957408752837"><ele>337.0</ele><time>2026-04-12T10:34:50Z</time></trkpt><trkpt lat="37.90498290286001" lon="15.127195945443212"><ele>335.3333333333333</ele><time>2026-04-12T10:34:51Z</time></trkpt><trkpt lat="37.90493626750652" lon="15.127427691001387"><ele>333.6666666666667</ele><time>2026-04-12T10:34:52Z</time></trkpt><trkpt lat="37.904871895330395" lon="15.12764865927022"><ele>332.0</ele><time>2026-04-12T10:34:53Z</time></trkpt><trkpt lat="37.90478044958889" lon="15.12785561119395"><ele>332.0</ele><time>2026-04-12T10:34:54Z</time></trkpt><trkpt lat="37.90469109766066" lon="15.128065434775271"><ele>332.0</ele><time>2026-04-12T10:34:55Z</time></trkpt><trkpt lat="37.90459560579672" lon="15.12826167912216"><ele>332.0</ele><time>2026-04-12T10:34:56Z</time></trkpt><trkpt lat="37.90448292554781" lon="15.128457855363532"><ele>329.6666666666667</ele><time>2026-04-12T10:34:57Z</time></trkpt><trkpt lat="37.9044163927037" lon="15.128685983326447"><ele>327.3333333333333</ele><time>2026-04-12T10:34:58Z</time></trkpt><trkpt lat="37.904358671311854" lon="15.128926294835527"><ele>325.0</ele><time>2026-04-12T10:34:59Z</time></trkpt><trkpt lat="37.90430351768867" lon="15.129180011397196"><ele>325.0</ele><time>2026-04-12T10:35:00Z</time></trkpt><trkpt lat="37.90424738814662" lon="15.129410917382954"><ele>325.0</ele><time>2026-04-12T10:35:01Z</time></trkpt><trkpt lat="37.90418946919857" lon="15.129645134839668"><ele>325.0</ele><time>2026-04-12T10:35:02Z</time></trkpt><trkpt lat="37.904128096443046" lon="15.129877628607481"><ele>327.66666666666663</ele><time>2026-04-12T10:35:03Z</time></trkpt><trkpt lat="37.904061862177564" lon="15.130103062372857"><ele>330.3333333333333</ele><time>2026-04-12T10:35:04Z</time></trkpt><trkpt lat="37.90398066158225" lon="15.130312549643266"><ele>333.0</ele><time>2026-04-12T10:35:05Z</time></trkpt><trkpt lat="37.903868448933096" lon="15.130505561018403"><ele>333.0</ele><time>2026-04-12T10:35:06Z</time></trkpt><trkpt lat="37.90374832862175" lon="15.130694502582573"><ele>333.0</ele><time>2026-04-12T10:35:07Z</time></trkpt><trkpt lat="37.903637108546114" lon="15.13088404653545"><ele>333.0</ele><time>2026-04-12T10:35:08Z</time></trkpt><trkpt lat="37.903532294685434" lon="15.131063913727791"><ele>332.6666666666667</ele><time>2026-04-12T10:35:09Z</time></trkpt><trkpt lat="37.903415518144854" lon="15.131220226301041"><ele>332.33333333333337</ele><time>2026-04-12T10:35:10Z</time></trkpt><trkpt lat="37.903277089837275" lon="15.13135057821017"><ele>332.0</ele><time>2026-04-12T10:35:11Z</time></trkpt><trkpt lat="37.90312915385986" lon="15.131471218632257"><ele>332.0</ele><time>2026-04-12T10:35:12Z</time></trkpt><trkpt lat="37.90297359036628" lon="15.131582035071274"><ele>332.0</ele><time>2026-04-12T10:35:13Z</time></trkpt><trkpt lat="37.902815554598554" lon="15.131696240546997"><ele>332.0</ele><time>2026-04-12T10:35:14Z</time></trkpt><trkpt lat="37.902657902985965" lon="15.13181768776323"><ele>333.0</ele><time>2026-04-12T10:35:15Z</time></trkpt><trkpt lat="37.90250342637663" lon="15.131946693310958"><ele>334.0</ele><time>2026-04-12T10:35:16Z</time></trkpt><trkpt lat="37.902364454084776" lon="15.132099156497897"><ele>335.0</ele><time>2026-04-12T10:35:17Z</time></trkpt><trkpt lat="37.90223752368198" lon="15.132238158346782"><ele>335.0</ele><time>2026-04-12T10:35:18Z</time></trkpt><trkpt lat="37.90211412158323" lon="15.132367933933581"><ele>335.0</ele><time>2026-04-12T10:35:19Z</time></trkpt><trkpt lat="37.90202319647296" lon="15.132513354905685"><ele>335.0</ele><time>2026-04-12T10:35:20Z</time></trkpt><trkpt lat="37.90197068792599" lon="15.132676085264885"><ele>335.0</ele><time>2026-04-12T10:35:21Z</time></trkpt><trkpt lat="37.90193907794603" lon="15.132831085919591"><ele>334.6</ele><time>2026-04-12T10:35:22Z</time></trkpt><trkpt lat="37.901909533434136" lon="15.13295859344577"><ele>334.2</ele><time>2026-04-12T10:35:23Z</time></trkpt><trkpt lat="37.901877356967745" lon="15.133068988821286"><ele>333.79999999999995</ele><time>2026-04-12T10:35:24Z</time></trkpt><trkpt lat="37.901855473376244" lon="15.133169725249068"><ele>333.4</ele><time>2026-04-12T10:35:25Z</time></trkpt><trkpt lat="37.90183535059481" lon="15.13325893099154"><ele>333.0</ele><time>2026-04-12T10:35:26Z</time></trkpt><trkpt lat="37.90179992708188" lon="15.133405010759295"><ele>333.2</ele><time>2026-04-12T10:35:28Z</time></trkpt><trkpt lat="37.90175440382254" lon="15.133554125111031"><ele>333.4</ele><time>2026-04-12T10:35:30Z</time></trkpt><trkpt lat="37.90172753224855" lon="15.13362690720291"><ele>333.59999999999997</ele><time>2026-04-12T10:35:31Z</time></trkpt><trkpt lat="37.90168093405706" lon="15.13377259932213"><ele>333.79999999999995</ele><time>2026-04-12T10:35:33Z</time></trkpt><trkpt lat="37.90164343259884" lon="15.133904315356636"><ele>334.0</ele><time>2026-04-12T10:35:35Z</time></trkpt><trkpt lat="37.901604760285274" lon="15.134060919396099"><ele>334.0</ele><time>2026-04-12T10:35:37Z</time></trkpt><trkpt lat="37.90158371810975" lon="15.134151857819072"><ele>334.0</ele><time>2026-04-12T10:35:38Z</time></trkpt><trkpt lat="37.901581360026164" lon="15.13425709843467"><ele>334.0</ele><time>2026-04-12T10:35:39Z</time></trkpt><trkpt lat="37.901572423864955" lon="15.134358008596962"><ele>334.0</ele><time>2026-04-12T10:35:40Z</time></trkpt><trkpt lat="37.901561435015886" lon="15.134456307670986"><ele>334.0</ele><time>2026-04-12T10:35:41Z</time></trkpt><trkpt lat="37.901547612358875" lon="15.134544370589213"><ele>334.0</ele><time>2026-04-12T10:35:42Z</time></trkpt><trkpt lat="37.90153458205378" lon="15.134628749910288"><ele>334.0</ele><time>2026-04-12T10:35:43Z</time></trkpt><trkpt lat="37.90152450001396" lon="15.134709264629684"><ele>334.0</ele><time>2026-04-12T10:35:44Z</time></trkpt><trkpt lat="37.90151572694222" lon="15.134788928075988"><ele>334.0</ele><time>2026-04-12T10:35:45Z</time></trkpt><trkpt lat="37.90149655051173" lon="15.134943093289438"><ele>334.0</ele><time>2026-04-12T10:35:47Z</time></trkpt><trkpt lat="37.90148602578365" lon="15.135088746573784"><ele>334.0</ele><time>2026-04-12T10:35:49Z</time></trkpt><trkpt lat="37.90148661847987" lon="15.135204443021951"><ele>334.0</ele><time>2026-04-12T10:35:51Z</time></trkpt><trkpt lat="37.9014714523822" lon="15.135330763226964"><ele>334.0</ele><time>2026-04-12T10:35:53Z</time></trkpt><trkpt lat="37.901466743624916" lon="15.135463487510465"><ele>334.0</ele><time>2026-04-12T10:35:55Z</time></trkpt><trkpt lat="37.90144840333607" lon="15.135600359184766"><ele>334.0</ele><time>2026-04-12T10:35:57Z</time></trkpt><trkpt lat="37.901432350205575" lon="15.13575688989962"><ele>334.0</ele><time>2026-04-12T10:35:59Z</time></trkpt><trkpt lat="37.901425227444385" lon="15.135908674810459"><ele>334.0</ele><time>2026-04-12T10:36:01Z</time></trkpt><trkpt lat="37.90143132520723" lon="15.135996115648085"><ele>334.0</ele><time>2026-04-12T10:36:02Z</time></trkpt><trkpt lat="37.90144252384875" lon="15.136084429234021"><ele>334.0</ele><time>2026-04-12T10:36:03Z</time></trkpt><trkpt lat="37.90146334531404" lon="15.136173430267672"><ele>334.0</ele><time>2026-04-12T10:36:04Z</time></trkpt><trkpt lat="37.901488332803055" lon="15.136259374626254"><ele>334.0</ele><time>2026-04-12T10:36:05Z</time></trkpt><trkpt lat="37.901519873540195" lon="15.136337823768917"><ele>334.0</ele><time>2026-04-12T10:36:06Z</time></trkpt><trkpt lat="37.9015545201014" lon="15.136419669461263"><ele>334.0</ele><time>2026-04-12T10:36:07Z</time></trkpt><trkpt lat="37.90158268798796" lon="15.136494732881467"><ele>333.2857142857143</ele><time>2026-04-12T10:36:08Z</time></trkpt><trkpt lat="37.901610469693956" lon="15.136574478544489"><ele>332.57142857142856</ele><time>2026-04-12T10:36:09Z</time></trkpt><trkpt lat="37.90163780243255" lon="15.136655876172368"><ele>331.8571428571429</ele><time>2026-04-12T10:36:10Z</time></trkpt><trkpt lat="37.9016566720192" lon="15.13673394967052"><ele>331.1428571428571</ele><time>2026-04-12T10:36:11Z</time></trkpt><trkpt lat="37.901672580853244" lon="15.136822838148854"><ele>330.42857142857144</ele><time>2026-04-12T10:36:12Z</time></trkpt><trkpt lat="37.90167612413266" lon="15.136917298058645"><ele>329.7142857142857</ele><time>2026-04-12T10:36:13Z</time></trkpt><trkpt lat="37.90166962944335" lon="15.137018027347915"><ele>329.0</ele><time>2026-04-12T10:36:14Z</time></trkpt><trkpt lat="37.90164344918862" lon="15.137117295673946"><ele>329.0</ele><time>2026-04-12T10:36:15Z</time></trkpt><trkpt lat="37.90160772992347" lon="15.13721385180169"><ele>329.0</ele><time>2026-04-12T10:36:16Z</time></trkpt><trkpt lat="37.9015613847559" lon="15.13730262036435"><ele>329.0</ele><time>2026-04-12T10:36:17Z</time></trkpt><trkpt lat="37.90149470666408" lon="15.137374757147509"><ele>329.0</ele><time>2026-04-12T10:36:18Z</time></trkpt><trkpt lat="37.90142196746724" lon="15.13744272562386"><ele>329.0</ele><time>2026-04-12T10:36:19Z</time></trkpt><trkpt lat="37.90135370495061" lon="15.13752794773698"><ele>329.0</ele><time>2026-04-12T10:36:20Z</time></trkpt><trkpt lat="37.901299229878504" lon="15.13764626567461"><ele>326.75</ele><time>2026-04-12T10:36:21Z</time></trkpt><trkpt lat="37.90125921175468" lon="15.137769755066484"><ele>324.5</ele><time>2026-04-12T10:36:22Z</time></trkpt><trkpt lat="37.901231709715184" lon="15.13792102942794"><ele>322.25</ele><time>2026-04-12T10:36:23Z</time></trkpt><trkpt lat="37.90121943810479" lon="15.13808497411642"><ele>320.0</ele><time>2026-04-12T10:36:24Z</time></trkpt><trkpt lat="37.90119673740507" lon="15.138248020375247"><ele>319.0</ele><time>2026-04-12T10:36:25Z</time></trkpt><trkpt lat="37.90116752305488" lon="15.138417488573115"><ele>318.0</ele><time>2026-04-12T10:36:26Z</time></trkpt><trkpt lat="37.90113998841487" lon="15.138591717423125"><ele>317.0</ele><time>2026-04-12T10:36:27Z</time></trkpt><trkpt lat="37.90111699026711" lon="15.138756158077115"><ele>316.0</ele><time>2026-04-12T10:36:28Z</time></trkpt><trkpt lat="37.901090990415966" lon="15.138906196872982"><ele>315.0</ele><time>2026-04-12T10:36:29Z</time></trkpt><trkpt lat="37.901066606481656" lon="15.139050974759304"><ele>314.0</ele><time>2026-04-12T10:36:30Z</time></trkpt><trkpt lat="37.901044710202804" lon="15.139190237457244"><ele>313.0</ele><time>2026-04-12T10:36:31Z</time></trkpt><trkpt lat="37.90103190417668" lon="15.139322821678695"><ele>312.0</ele><time>2026-04-12T10:36:32Z</time></trkpt><trkpt lat="37.901020623477535" lon="15.139457846248717"><ele>311.0</ele><time>2026-04-12T10:36:33Z</time></trkpt><trkpt lat="37.90102447484325" lon="15.139604578695225"><ele>311.0</ele><time>2026-04-12T10:36:34Z</time></trkpt><trkpt lat="37.90104981698855" lon="15.139747803647092"><ele>311.0</ele><time>2026-04-12T10:36:35Z</time></trkpt><trkpt lat="37.901094487505965" lon="15.139883240026005"><ele>311.0</ele><time>2026-04-12T10:36:36Z</time></trkpt><trkpt lat="37.901149953557386" lon="15.140005005818997"><ele>311.0</ele><time>2026-04-12T10:36:37Z</time></trkpt><trkpt lat="37.90120416441611" lon="15.140121120966025"><ele>311.0</ele><time>2026-04-12T10:36:38Z</time></trkpt><trkpt lat="37.901252561517026" lon="15.140238882753371"><ele>309.8</ele><time>2026-04-12T10:36:39Z</time></trkpt><trkpt lat="37.90130216299838" lon="15.140353038838468"><ele>308.6</ele><time>2026-04-12T10:36:40Z</time></trkpt><trkpt lat="37.90135956102464" lon="15.140471733001059"><ele>307.4</ele><time>2026-04-12T10:36:41Z</time></trkpt><trkpt lat="37.90141687260573" lon="15.140589117904085"><ele>306.2</ele><time>2026-04-12T10:36:42Z</time></trkpt><trkpt lat="37.90147483509416" lon="15.140709793338935"><ele>305.0</ele><time>2026-04-12T10:36:43Z</time></trkpt><trkpt lat="37.90153007714231" lon="15.14083040823488"><ele>304.8</ele><time>2026-04-12T10:36:44Z</time></trkpt><trkpt lat="37.90159182175406" lon="15.140951414628228"><ele>304.6</ele><time>2026-04-12T10:36:45Z</time></trkpt><trkpt lat="37.90165391000853" lon="15.141073781594889"><ele>304.4</ele><time>2026-04-12T10:36:46Z</time></trkpt><trkpt lat="37.90171482875971" lon="15.14119508379154"><ele>304.2</ele><time>2026-04-12T10:36:47Z</time></trkpt><trkpt lat="37.90176624080669" lon="15.14130583620786"><ele>304.0</ele><time>2026-04-12T10:36:48Z</time></trkpt><trkpt lat="37.9018178454182" lon="15.141415480686915"><ele>303.8</ele><time>2026-04-12T10:36:49Z</time></trkpt><trkpt lat="37.90186853086084" lon="15.141519583309012"><ele>303.59999999999997</ele><time>2026-04-12T10:36:50Z</time></trkpt><trkpt lat="37.90191606482975" lon="15.14162009626524"><ele>303.4</ele><time>2026-04-12T10:36:51Z</time></trkpt><trkpt lat="37.90196415033979" lon="15.141715607092513"><ele>303.2</ele><time>2026-04-12T10:36:52Z</time></trkpt><trkpt lat="37.902008226204174" lon="15.141814174687967"><ele>303.0</ele><time>2026-04-12T10:36:53Z</time></trkpt><trkpt lat="37.90204727818466" lon="15.141910242374028"><ele>303.0</ele><time>2026-04-12T10:36:54Z</time></trkpt><trkpt lat="37.90209016945257" lon="15.141999495071714"><ele>303.0</ele><time>2026-04-12T10:36:55Z</time></trkpt><trkpt lat="37.90213193491656" lon="15.142083798652568"><ele>303.0</ele><time>2026-04-12T10:36:56Z</time></trkpt><trkpt lat="37.90217137788455" lon="15.142162937149669"><ele>303.0</ele><time>2026-04-12T10:36:57Z</time></trkpt><trkpt lat="37.90222880150421" lon="15.14228189664507"><ele>303.0</ele><time>2026-04-12T10:36:59Z</time></trkpt><trkpt lat="37.90226204728357" lon="15.142358110946068"><ele>303.0</ele><time>2026-04-12T10:37:01Z</time></trkpt><trkpt lat="37.902278608204135" lon="15.142478046673057"><ele>301.2</ele><time>2026-04-12T10:37:04Z</time></trkpt><trkpt lat="37.90221889685756" lon="15.14256440572009"><ele>299.4</ele><time>2026-04-12T10:37:06Z</time></trkpt><trkpt lat="37.90216178497376" lon="15.142602727517882"><ele>297.59999999999997</ele><time>2026-04-12T10:37:07Z</time></trkpt><trkpt lat="37.902084877824755" lon="15.14263766992939"><ele>295.8</ele><time>2026-04-12T10:37:08Z</time></trkpt><trkpt lat="37.90199517209821" lon="15.142711719153302"><ele>294.0</ele><time>2026-04-12T10:37:09Z</time></trkpt><trkpt lat="37.90188826341837" lon="15.142800504481759"><ele>294.0</ele><time>2026-04-12T10:37:10Z</time></trkpt><trkpt lat="37.9017650786821" lon="15.142905838070677"><ele>294.0</ele><time>2026-04-12T10:37:11Z</time></trkpt><trkpt lat="37.90162270744113" lon="15.143009626034333"><ele>294.0</ele><time>2026-04-12T10:37:12Z</time></trkpt><trkpt lat="37.90148209128864" lon="15.14311151848031"><ele>294.5</ele><time>2026-04-12T10:37:13Z</time></trkpt><trkpt lat="37.901352583449764" lon="15.143213592604333"><ele>295.0</ele><time>2026-04-12T10:37:14Z</time></trkpt><trkpt lat="37.90123238742416" lon="15.143309808440836"><ele>295.5</ele><time>2026-04-12T10:37:15Z</time></trkpt><trkpt lat="37.90111833641696" lon="15.14340143994035"><ele>296.0</ele><time>2026-04-12T10:37:16Z</time></trkpt><trkpt lat="37.90101347677535" lon="15.143484851036261"><ele>294.25</ele><time>2026-04-12T10:37:17Z</time></trkpt><trkpt lat="37.90090482378806" lon="15.143568402145481"><ele>292.5</ele><time>2026-04-12T10:37:18Z</time></trkpt><trkpt lat="37.90078776544249" lon="15.14367727120691"><ele>290.75</ele><time>2026-04-12T10:37:19Z</time></trkpt><trkpt lat="37.9006508550949" lon="15.143779991600725"><ele>289.0</ele><time>2026-04-12T10:37:20Z</time></trkpt><trkpt lat="37.90049111632612" lon="15.14389128872071"><ele>289.0</ele><time>2026-04-12T10:37:21Z</time></trkpt><trkpt lat="37.90033664863713" lon="15.144012348541338"><ele>289.0</ele><time>2026-04-12T10:37:22Z</time></trkpt><trkpt lat="37.90017851217713" lon="15.144150038322236"><ele>289.0</ele><time>2026-04-12T10:37:23Z</time></trkpt><trkpt lat="37.90002788968262" lon="15.144258984300953"><ele>287.3333333333333</ele><time>2026-04-12T10:37:24Z</time></trkpt><trkpt lat="37.8998864346972" lon="15.144365683527123"><ele>285.6666666666667</ele><time>2026-04-12T10:37:25Z</time></trkpt><trkpt lat="37.8997542191168" lon="15.144474537233327"><ele>284.0</ele><time>2026-04-12T10:37:26Z</time></trkpt><trkpt lat="37.899624344947114" lon="15.144581760692105"><ele>284.0</ele><time>2026-04-12T10:37:27Z</time></trkpt><trkpt lat="37.8995038208727" lon="15.14471115638422"><ele>284.0</ele><time>2026-04-12T10:37:28Z</time></trkpt><trkpt lat="37.899393057222916" lon="15.14486010792781"><ele>284.0</ele><time>2026-04-12T10:37:29Z</time></trkpt><trkpt lat="37.899295479325666" lon="15.14502297311379"><ele>283.33333333333337</ele><time>2026-04-12T10:37:30Z</time></trkpt><trkpt lat="37.89921101179487" lon="15.145192415227626"><ele>282.6666666666667</ele><time>2026-04-12T10:37:31Z</time></trkpt><trkpt lat="37.89913933608131" lon="15.145348472468184"><ele>282.0</ele><time>2026-04-12T10:37:32Z</time></trkpt><trkpt lat="37.89906999457757" lon="15.145519093738269"><ele>281.3333333333333</ele><time>2026-04-12T10:37:33Z</time></trkpt><trkpt lat="37.89900436665575" lon="15.145717985497075"><ele>280.66666666666663</ele><time>2026-04-12T10:37:34Z</time></trkpt><trkpt lat="37.89893197042475" lon="15.145930499007525"><ele>280.0</ele><time>2026-04-12T10:37:35Z</time></trkpt><trkpt lat="37.8988573280566" lon="15.14615268635353"><ele>280.0</ele><time>2026-04-12T10:37:36Z</time></trkpt><trkpt lat="37.898786824480645" lon="15.146369933502868"><ele>280.0</ele><time>2026-04-12T10:37:37Z</time></trkpt><trkpt lat="37.89871778864005" lon="15.146576616214693"><ele>280.0</ele><time>2026-04-12T10:37:38Z</time></trkpt><trkpt lat="37.89864708868696" lon="15.146778192716164"><ele>279.66666666666663</ele><time>2026-04-12T10:37:39Z</time></trkpt><trkpt lat="37.89858028646335" lon="15.146979487577946"><ele>279.3333333333333</ele><time>2026-04-12T10:37:40Z</time></trkpt><trkpt lat="37.89851575847105" lon="15.147178557640022"><ele>279.0</ele><time>2026-04-12T10:37:41Z</time></trkpt><trkpt lat="37.89845515193156" lon="15.147371200867564"><ele>278.0</ele><time>2026-04-12T10:37:42Z</time></trkpt><trkpt lat="37.89839746975839" lon="15.14755840964245"><ele>277.0</ele><time>2026-04-12T10:37:43Z</time></trkpt><trkpt lat="37.89833168676419" lon="15.14775184702191"><ele>276.0</ele><time>2026-04-12T10:37:44Z</time></trkpt><trkpt lat="37.89825370486447" lon="15.147943025648004"><ele>276.0</ele><time>2026-04-12T10:37:45Z</time></trkpt><trkpt lat="37.89815838821381" lon="15.148122294981816"><ele>276.0</ele><time>2026-04-12T10:37:46Z</time></trkpt><trkpt lat="37.89804724113223" lon="15.148295735542614"><ele>276.0</ele><time>2026-04-12T10:37:47Z</time></trkpt><trkpt lat="37.89793103077715" lon="15.148470446233873"><ele>275.3333333333333</ele><time>2026-04-12T10:37:48Z</time></trkpt><trkpt lat="37.897809769586345" lon="15.1486438667958"><ele>274.66666666666663</ele><time>2026-04-12T10:37:49Z</time></trkpt><trkpt lat="37.89768233793543" lon="15.148817469908673"><ele>274.0</ele><time>2026-04-12T10:37:50Z</time></trkpt><trkpt lat="37.89754902758295" lon="15.148997029065756"><ele>272.3333333333333</ele><time>2026-04-12T10:37:51Z</time></trkpt><trkpt lat="37.89740758310133" lon="15.149183169551293"><ele>270.6666666666667</ele><time>2026-04-12T10:37:52Z</time></trkpt><trkpt lat="37.89727177864335" lon="15.149374736850918"><ele>269.0</ele><time>2026-04-12T10:37:53Z</time></trkpt><trkpt lat="37.89713985868713" lon="15.149581398934725"><ele>269.0</ele><time>2026-04-12T10:37:54Z</time></trkpt><trkpt lat="37.89701794516252" lon="15.149805664678253"><ele>269.0</ele><time>2026-04-12T10:37:55Z</time></trkpt><trkpt lat="37.89691089870257" lon="15.15004980933548"><ele>269.0</ele><time>2026-04-12T10:37:56Z</time></trkpt><trkpt lat="37.896801760981305" lon="15.150305097764914"><ele>267.5</ele><time>2026-04-12T10:37:57Z</time></trkpt><trkpt lat="37.896697091374676" lon="15.150577480482866"><ele>266.0</ele><time>2026-04-12T10:37:58Z</time></trkpt><trkpt lat="37.89659513376226" lon="15.150853320663854"><ele>265.0</ele><time>2026-04-12T10:37:59Z</time></trkpt><trkpt lat="37.896489960343146" lon="15.151132308854466"><ele>264.0</ele><time>2026-04-12T10:38:00Z</time></trkpt><trkpt lat="37.896382356346926" lon="15.151412580969765"><ele>263.5</ele><time>2026-04-12T10:38:01Z</time></trkpt><trkpt lat="37.8962798203077" lon="15.151693090074042"><ele>263.0</ele><time>2026-04-12T10:38:02Z</time></trkpt><trkpt lat="37.89617358742132" lon="15.151973553605195"><ele>263.0</ele><time>2026-04-12T10:38:03Z</time></trkpt><trkpt lat="37.896065953443134" lon="15.15225438986333"><ele>263.0</ele><time>2026-04-12T10:38:04Z</time></trkpt><trkpt lat="37.89596332447603" lon="15.152532620813103"><ele>261.0</ele><time>2026-04-12T10:38:05Z</time></trkpt><trkpt lat="37.89586551742688" lon="15.152803666701207"><ele>259.0</ele><time>2026-04-12T10:38:06Z</time></trkpt><trkpt lat="37.895766243895196" lon="15.15307567294163"><ele>258.5</ele><time>2026-04-12T10:38:07Z</time></trkpt><trkpt lat="37.895656652493344" lon="15.153342035975069"><ele>258.0</ele><time>2026-04-12T10:38:08Z</time></trkpt><trkpt lat="37.895531240177654" lon="15.153602311020602"><ele>258.0</ele><time>2026-04-12T10:38:09Z</time></trkpt><trkpt lat="37.895387160663645" lon="15.153853545028129"><ele>258.0</ele><time>2026-04-12T10:38:10Z</time></trkpt><trkpt lat="37.89522596298577" lon="15.15408713114131"><ele>257.5</ele><time>2026-04-12T10:38:11Z</time></trkpt><trkpt lat="37.895057654525125" lon="15.154334350824193"><ele>257.0</ele><time>2026-04-12T10:38:12Z</time></trkpt><trkpt lat="37.89488547367278" lon="15.154583194206031"><ele>257.0</ele><time>2026-04-12T10:38:13Z</time></trkpt><trkpt lat="37.894716639670825" lon="15.154827812006056"><ele>257.0</ele><time>2026-04-12T10:38:14Z</time></trkpt><trkpt lat="37.89455204898052" lon="15.155066163099917"><ele>257.0</ele><time>2026-04-12T10:38:15Z</time></trkpt><trkpt lat="37.89438976983683" lon="15.155299480588967"><ele>257.0</ele><time>2026-04-12T10:38:16Z</time></trkpt><trkpt lat="37.89424195375859" lon="15.155525452340639"><ele>256.6666666666667</ele><time>2026-04-12T10:38:17Z</time></trkpt><trkpt lat="37.89409623040137" lon="15.155723201415798"><ele>256.3333333333333</ele><time>2026-04-12T10:38:18Z</time></trkpt><trkpt lat="37.89395788211968" lon="15.155919399601423"><ele>256.0</ele><time>2026-04-12T10:38:19Z</time></trkpt><trkpt lat="37.89382379111287" lon="15.15610952930314"><ele>256.0</ele><time>2026-04-12T10:38:20Z</time></trkpt><trkpt lat="37.893682844582614" lon="15.156306586673896"><ele>256.0</ele><time>2026-04-12T10:38:21Z</time></trkpt><trkpt lat="37.89355360317351" lon="15.156504394393677"><ele>256.0</ele><time>2026-04-12T10:38:22Z</time></trkpt><trkpt lat="37.89342921560181" lon="15.15670034592529"><ele>253.33333333333331</ele><time>2026-04-12T10:38:23Z</time></trkpt><trkpt lat="37.893297010243344" lon="15.156882661199166"><ele>250.66666666666669</ele><time>2026-04-12T10:38:24Z</time></trkpt><trkpt lat="37.89315976857425" lon="15.157058808360924"><ele>248.0</ele><time>2026-04-12T10:38:25Z</time></trkpt><trkpt lat="37.893043056450296" lon="15.157262238853527"><ele>246.66666666666669</ele><time>2026-04-12T10:38:26Z</time></trkpt><trkpt lat="37.89294867158014" lon="15.15748988853925"><ele>245.33333333333331</ele><time>2026-04-12T10:38:27Z</time></trkpt><trkpt lat="37.89287799944362" lon="15.157743701449414"><ele>244.0</ele><time>2026-04-12T10:38:28Z</time></trkpt><trkpt lat="37.892828155577526" lon="15.158019234221117"><ele>242.0</ele><time>2026-04-12T10:38:29Z</time></trkpt><trkpt lat="37.89278755027099" lon="15.158311979913478"><ele>240.0</ele><time>2026-04-12T10:38:30Z</time></trkpt><trkpt lat="37.892734754395946" lon="15.158627270237735"><ele>240.0</ele><time>2026-04-12T10:38:31Z</time></trkpt><trkpt lat="37.89269408949611" lon="15.158959589109722"><ele>240.0</ele><time>2026-04-12T10:38:32Z</time></trkpt><trkpt lat="37.89265587475722" lon="15.159324931247795"><ele>237.0</ele><time>2026-04-12T10:38:33Z</time></trkpt><trkpt lat="37.892590767104494" lon="15.159713503944468"><ele>234.0</ele><time>2026-04-12T10:38:34Z</time></trkpt><trkpt lat="37.89251747081082" lon="15.1600841534229"><ele>233.0</ele><time>2026-04-12T10:38:35Z</time></trkpt><trkpt lat="37.89245988457648" lon="15.160424781853362"><ele>232.0</ele><time>2026-04-12T10:38:36Z</time></trkpt><trkpt lat="37.8924095275788" lon="15.160750076572368"><ele>232.0</ele><time>2026-04-12T10:38:37Z</time></trkpt><trkpt lat="37.8923588687135" lon="15.161060967731057"><ele>232.0</ele><time>2026-04-12T10:38:38Z</time></trkpt><trkpt lat="37.89231628634616" lon="15.161361839126755"><ele>233.0</ele><time>2026-04-12T10:38:39Z</time></trkpt><trkpt lat="37.89227738136789" lon="15.161646732823824"><ele>234.0</ele><time>2026-04-12T10:38:40Z</time></trkpt><trkpt lat="37.89223856893776" lon="15.161909263751726"><ele>235.0</ele><time>2026-04-12T10:38:41Z</time></trkpt><trkpt lat="37.89217346111015" lon="15.16215664125833"><ele>236.0</ele><time>2026-04-12T10:38:42Z</time></trkpt><trkpt lat="37.892079478106744" lon="15.16238371570106"><ele>237.0</ele><time>2026-04-12T10:38:43Z</time></trkpt><trkpt lat="37.891951388191124" lon="15.162565426165662"><ele>238.0</ele><time>2026-04-12T10:38:44Z</time></trkpt><trkpt lat="37.891810238494436" lon="15.16270430031751"><ele>238.0</ele><time>2026-04-12T10:38:45Z</time></trkpt><trkpt lat="37.89163901772219" lon="15.162813353987955"><ele>238.0</ele><time>2026-04-12T10:38:46Z</time></trkpt><trkpt lat="37.891453637546775" lon="15.162908440030414"><ele>238.0</ele><time>2026-04-12T10:38:47Z</time></trkpt><trkpt lat="37.89125922336312" lon="15.163000113929938"><ele>238.0</ele><time>2026-04-12T10:38:48Z</time></trkpt><trkpt lat="37.891067104338674" lon="15.16312421248002"><ele>238.0</ele><time>2026-04-12T10:38:49Z</time></trkpt><trkpt lat="37.89086472651603" lon="15.163249598500224"><ele>238.0</ele><time>2026-04-12T10:38:50Z</time></trkpt><trkpt lat="37.8906525380254" lon="15.163372688775196"><ele>238.0</ele><time>2026-04-12T10:38:51Z</time></trkpt><trkpt lat="37.8904365647192" lon="15.16350074359029"><ele>238.0</ele><time>2026-04-12T10:38:52Z</time></trkpt><trkpt lat="37.89022044710498" lon="15.163631216072037"><ele>235.0</ele><time>2026-04-12T10:38:53Z</time></trkpt><trkpt lat="37.89001109129578" lon="15.163751241967569"><ele>232.0</ele><time>2026-04-12T10:38:54Z</time></trkpt><trkpt lat="37.889806568208094" lon="15.16386096441475"><ele>232.0</ele><time>2026-04-12T10:38:55Z</time></trkpt><trkpt lat="37.88960857794513" lon="15.163968716624279"><ele>232.0</ele><time>2026-04-12T10:38:56Z</time></trkpt><trkpt lat="37.889415500558705" lon="15.164096710391632"><ele>232.0</ele><time>2026-04-12T10:38:57Z</time></trkpt><trkpt lat="37.88924056643667" lon="15.164244566395618"><ele>231.33333333333331</ele><time>2026-04-12T10:38:58Z</time></trkpt><trkpt lat="37.88908596228395" lon="15.164418894107795"><ele>230.66666666666669</ele><time>2026-04-12T10:38:59Z</time></trkpt><trkpt lat="37.888946152668005" lon="15.16461808843713"><ele>230.0</ele><time>2026-04-12T10:39:00Z</time></trkpt><trkpt lat="37.888814991331735" lon="15.164814240102103"><ele>228.33333333333334</ele><time>2026-04-12T10:39:01Z</time></trkpt><trkpt lat="37.88868255535924" lon="15.164993330450223"><ele>226.66666666666669</ele><time>2026-04-12T10:39:02Z</time></trkpt><trkpt lat="37.88854662926239" lon="15.165178076160009"><ele>225.0</ele><time>2026-04-12T10:39:03Z</time></trkpt><trkpt lat="37.8884250694698" lon="15.165358866527571"><ele>225.0</ele><time>2026-04-12T10:39:04Z</time></trkpt><trkpt lat="37.888301856715536" lon="15.165533335690919"><ele>225.0</ele><time>2026-04-12T10:39:05Z</time></trkpt><trkpt lat="37.888186815625865" lon="15.165697291871956"><ele>225.0</ele><time>2026-04-12T10:39:06Z</time></trkpt><trkpt lat="37.88808272293591" lon="15.165854172251644"><ele>227.0</ele><time>2026-04-12T10:39:07Z</time></trkpt><trkpt lat="37.88798403636221" lon="15.166004533041667"><ele>229.0</ele><time>2026-04-12T10:39:08Z</time></trkpt><trkpt lat="37.887888514001354" lon="15.166142815704163"><ele>231.0</ele><time>2026-04-12T10:39:09Z</time></trkpt><trkpt lat="37.8877944913797" lon="15.166274672027113"><ele>233.0</ele><time>2026-04-12T10:39:10Z</time></trkpt><trkpt lat="37.8876998579345" lon="15.166408675579858"><ele>234.5</ele><time>2026-04-12T10:39:11Z</time></trkpt><trkpt lat="37.887611085575394" lon="15.166554985235457"><ele>236.0</ele><time>2026-04-12T10:39:12Z</time></trkpt><trkpt lat="37.887514562399815" lon="15.166691679736603"><ele>237.5</ele><time>2026-04-12T10:39:13Z</time></trkpt><trkpt lat="37.88741811969584" lon="15.166834617659411"><ele>239.0</ele><time>2026-04-12T10:39:14Z</time></trkpt><trkpt lat="37.88731731942568" lon="15.166986194683076"><ele>237.0</ele><time>2026-04-12T10:39:15Z</time></trkpt><trkpt lat="37.887210934009985" lon="15.167140255360117"><ele>235.0</ele><time>2026-04-12T10:39:16Z</time></trkpt><trkpt lat="37.88710110005731" lon="15.167298949285227"><ele>233.0</ele><time>2026-04-12T10:39:17Z</time></trkpt><trkpt lat="37.88698958107251" lon="15.16745985087031"><ele>233.0</ele><time>2026-04-12T10:39:18Z</time></trkpt><trkpt lat="37.88687727519343" lon="15.167610418472762"><ele>233.0</ele><time>2026-04-12T10:39:19Z</time></trkpt><trkpt lat="37.88676357715032" lon="15.167764560739926"><ele>233.0</ele><time>2026-04-12T10:39:20Z</time></trkpt><trkpt lat="37.886646794981736" lon="15.167922961776515"><ele>231.66666666666669</ele><time>2026-04-12T10:39:21Z</time></trkpt><trkpt lat="37.88652995761595" lon="15.168081789043457"><ele>230.33333333333331</ele><time>2026-04-12T10:39:22Z</time></trkpt><trkpt lat="37.88640995441764" lon="15.16823240868776"><ele>229.0</ele><time>2026-04-12T10:39:23Z</time></trkpt><trkpt lat="37.8862926469173" lon="15.168373821273773"><ele>229.0</ele><time>2026-04-12T10:39:24Z</time></trkpt><trkpt lat="37.88617082707955" lon="15.16851919930235"><ele>229.0</ele><time>2026-04-12T10:39:25Z</time></trkpt><trkpt lat="37.88605168869262" lon="15.168669794095397"><ele>229.0</ele><time>2026-04-12T10:39:26Z</time></trkpt><trkpt lat="37.88593239999471" lon="15.168819090609544"><ele>228.0</ele><time>2026-04-12T10:39:27Z</time></trkpt><trkpt lat="37.885815673631924" lon="15.168966731409734"><ele>227.0</ele><time>2026-04-12T10:39:28Z</time></trkpt><trkpt lat="37.88569762804969" lon="15.169109711339017"><ele>226.0</ele><time>2026-04-12T10:39:29Z</time></trkpt><trkpt lat="37.88558198667174" lon="15.16925423533745"><ele>226.0</ele><time>2026-04-12T10:39:30Z</time></trkpt><trkpt lat="37.88546793007504" lon="15.169395959542541"><ele>226.0</ele><time>2026-04-12T10:39:31Z</time></trkpt><trkpt lat="37.88535759218257" lon="15.169537598259943"><ele>226.0</ele><time>2026-04-12T10:39:32Z</time></trkpt><trkpt lat="37.88524867538056" lon="15.169676221255152"><ele>226.0</ele><time>2026-04-12T10:39:33Z</time></trkpt><trkpt lat="37.88514122079782" lon="15.169814252485045"><ele>226.0</ele><time>2026-04-12T10:39:34Z</time></trkpt><trkpt lat="37.885034807470575" lon="15.1699535067655"><ele>226.0</ele><time>2026-04-12T10:39:35Z</time></trkpt><trkpt lat="37.88492628404452" lon="15.170099064624626"><ele>225.66666666666666</ele><time>2026-04-12T10:39:36Z</time></trkpt><trkpt lat="37.88481485048804" lon="15.17024974361729"><ele>225.33333333333331</ele><time>2026-04-12T10:39:37Z</time></trkpt><trkpt lat="37.88469711547201" lon="15.170401322676986"><ele>225.0</ele><time>2026-04-12T10:39:38Z</time></trkpt><trkpt lat="37.88457632668433" lon="15.170558443210709"><ele>224.66666666666669</ele><time>2026-04-12T10:39:39Z</time></trkpt><trkpt lat="37.884455749160686" lon="15.170719161630926"><ele>224.33333333333334</ele><time>2026-04-12T10:39:40Z</time></trkpt><trkpt lat="37.88433544228273" lon="15.170883557735788"><ele>224.0</ele><time>2026-04-12T10:39:41Z</time></trkpt><trkpt lat="37.88421049243761" lon="15.171043328553404"><ele>224.0</ele><time>2026-04-12T10:39:42Z</time></trkpt><trkpt lat="37.88408398721811" lon="15.171204009964649"><ele>224.0</ele><time>2026-04-12T10:39:43Z</time></trkpt><trkpt lat="37.88395491239806" lon="15.17136369675668"><ele>224.0</ele><time>2026-04-12T10:39:44Z</time></trkpt><trkpt lat="37.883823311998746" lon="15.17151964935994"><ele>223.66666666666669</ele><time>2026-04-12T10:39:45Z</time></trkpt><trkpt lat="37.88368523373385" lon="15.171671582963036"><ele>223.33333333333331</ele><time>2026-04-12T10:39:46Z</time></trkpt><trkpt lat="37.88354682580196" lon="15.171822141608843"><ele>223.0</ele><time>2026-04-12T10:39:47Z</time></trkpt><trkpt lat="37.88339480373823" lon="15.171992015566113"><ele>223.0</ele><time>2026-04-12T10:39:48Z</time></trkpt><trkpt lat="37.883239439786834" lon="15.172164313228835"><ele>223.0</ele><time>2026-04-12T10:39:49Z</time></trkpt><trkpt lat="37.883081254354686" lon="15.172352383071356"><ele>223.0</ele><time>2026-04-12T10:39:50Z</time></trkpt><trkpt lat="37.88291581422428" lon="15.172544731326585"><ele>223.0</ele><time>2026-04-12T10:39:51Z</time></trkpt><trkpt lat="37.88274387939089" lon="15.172737091085727"><ele>223.0</ele><time>2026-04-12T10:39:52Z</time></trkpt><trkpt lat="37.88256982557367" lon="15.172929708348628"><ele>220.0</ele><time>2026-04-12T10:39:53Z</time></trkpt><trkpt lat="37.882396718003974" lon="15.173119997924516"><ele>217.0</ele><time>2026-04-12T10:39:54Z</time></trkpt><trkpt lat="37.8822253612124" lon="15.173307608939433"><ele>216.66666666666666</ele><time>2026-04-12T10:39:55Z</time></trkpt><trkpt lat="37.882057933300494" lon="15.17349017219773"><ele>216.33333333333331</ele><time>2026-04-12T10:39:56Z</time></trkpt><trkpt lat="37.88189680559043" lon="15.173665542454092"><ele>216.0</ele><time>2026-04-12T10:39:57Z</time></trkpt><trkpt lat="37.88174036707297" lon="15.173836904092077"><ele>215.66666666666669</ele><time>2026-04-12T10:39:58Z</time></trkpt><trkpt lat="37.881592460348884" lon="15.173999082653586"><ele>215.33333333333334</ele><time>2026-04-12T10:39:59Z</time></trkpt><trkpt lat="37.88145265563473" lon="15.174149348785333"><ele>215.0</ele><time>2026-04-12T10:40:00Z</time></trkpt><trkpt lat="37.881313795524335" lon="15.17428237580171"><ele>215.0</ele><time>2026-04-12T10:40:01Z</time></trkpt><trkpt lat="37.881165320659896" lon="15.174378517251238"><ele>215.0</ele><time>2026-04-12T10:40:02Z</time></trkpt><trkpt lat="37.881006040664985" lon="15.174429152938028"><ele>215.0</ele><time>2026-04-12T10:40:03Z</time></trkpt><trkpt lat="37.88084515129527" lon="15.174414088067246"><ele>213.75</ele><time>2026-04-12T10:40:04Z</time></trkpt><trkpt lat="37.880697808138315" lon="15.174360055547721"><ele>212.5</ele><time>2026-04-12T10:40:05Z</time></trkpt><trkpt lat="37.88057452039128" lon="15.174298901377147"><ele>211.25</ele><time>2026-04-12T10:40:06Z</time></trkpt><trkpt lat="37.88046050454759" lon="15.174283910939778"><ele>210.0</ele><time>2026-04-12T10:40:07Z</time></trkpt><trkpt lat="37.880351893500865" lon="15.174325748133409"><ele>210.0</ele><time>2026-04-12T10:40:08Z</time></trkpt><trkpt lat="37.880257117801364" lon="15.17442606375387"><ele>210.0</ele><time>2026-04-12T10:40:09Z</time></trkpt><trkpt lat="37.88020337778935" lon="15.174561776625353"><ele>210.0</ele><time>2026-04-12T10:40:10Z</time></trkpt><trkpt lat="37.88016508010247" lon="15.174698256567613"><ele>210.0</ele><time>2026-04-12T10:40:11Z</time></trkpt><trkpt lat="37.880124917572324" lon="15.174815109171723"><ele>207.75</ele><time>2026-04-12T10:40:12Z</time></trkpt><trkpt lat="37.88007743419626" lon="15.174938936596009"><ele>205.5</ele><time>2026-04-12T10:40:13Z</time></trkpt><trkpt lat="37.8800157905678" lon="15.175076448964449"><ele>203.25</ele><time>2026-04-12T10:40:14Z</time></trkpt><trkpt lat="37.87994948863808" lon="15.175228762679875"><ele>201.0</ele><time>2026-04-12T10:40:15Z</time></trkpt><trkpt lat="37.87988098278955" lon="15.175382455831661"><ele>201.0</ele><time>2026-04-12T10:40:16Z</time></trkpt><trkpt lat="37.879801370169865" lon="15.17553117680986"><ele>201.0</ele><time>2026-04-12T10:40:17Z</time></trkpt><trkpt lat="37.8796860104491" lon="15.17565090302479"><ele>201.0</ele><time>2026-04-12T10:40:18Z</time></trkpt><trkpt lat="37.87955040697975" lon="15.175738944884852"><ele>201.0</ele><time>2026-04-12T10:40:19Z</time></trkpt><trkpt lat="37.87940350124011" lon="15.175818992356657"><ele>201.0</ele><time>2026-04-12T10:40:20Z</time></trkpt><trkpt lat="37.87924988803366" lon="15.175906585760032"><ele>201.0</ele><time>2026-04-12T10:40:21Z</time></trkpt><trkpt lat="37.87910975824327" lon="15.175998968867592"><ele>201.0</ele><time>2026-04-12T10:40:22Z</time></trkpt><trkpt lat="37.87897770314497" lon="15.176088403762282"><ele>201.0</ele><time>2026-04-12T10:40:23Z</time></trkpt><trkpt lat="37.87885799877469" lon="15.176168388348335"><ele>201.0</ele><time>2026-04-12T10:40:24Z</time></trkpt><trkpt lat="37.8787446156375" lon="15.176246462085478"><ele>201.0</ele><time>2026-04-12T10:40:25Z</time></trkpt><trkpt lat="37.87863335053729" lon="15.176318950801345"><ele>201.0</ele><time>2026-04-12T10:40:26Z</time></trkpt><trkpt lat="37.87851413986658" lon="15.17639764294617"><ele>199.0</ele><time>2026-04-12T10:40:27Z</time></trkpt><trkpt lat="37.87837164504719" lon="15.176487468797323"><ele>197.0</ele><time>2026-04-12T10:40:28Z</time></trkpt><trkpt lat="37.878206795222546" lon="15.176569623303516"><ele>195.0</ele><time>2026-04-12T10:40:29Z</time></trkpt><trkpt lat="37.87803086197714" lon="15.176668879363685"><ele>195.0</ele><time>2026-04-12T10:40:30Z</time></trkpt><trkpt lat="37.87784537322673" lon="15.176784033217286"><ele>195.0</ele><time>2026-04-12T10:40:31Z</time></trkpt><trkpt lat="37.87766130985518" lon="15.176901376969072"><ele>195.0</ele><time>2026-04-12T10:40:32Z</time></trkpt><trkpt lat="37.87748079167641" lon="15.17701522856851"><ele>193.33333333333334</ele><time>2026-04-12T10:40:33Z</time></trkpt><trkpt lat="37.87731160693712" lon="15.177148529077897"><ele>191.66666666666669</ele><time>2026-04-12T10:40:34Z</time></trkpt><trkpt lat="37.87715230288518" lon="15.17732078680672"><ele>190.0</ele><time>2026-04-12T10:40:35Z</time></trkpt><trkpt lat="37.87700757864461" lon="15.177522805166799"><ele>189.33333333333334</ele><time>2026-04-12T10:40:36Z</time></trkpt><trkpt lat="37.876876503631514" lon="15.177731240146711"><ele>188.66666666666666</ele><time>2026-04-12T10:40:37Z</time></trkpt><trkpt lat="37.87674686183473" lon="15.17791743748804"><ele>188.0</ele><time>2026-04-12T10:40:38Z</time></trkpt><trkpt lat="37.876617842815676" lon="15.178089595600321"><ele>185.33333333333331</ele><time>2026-04-12T10:40:39Z</time></trkpt><trkpt lat="37.876502037944256" lon="15.178261942348565"><ele>182.66666666666666</ele><time>2026-04-12T10:40:40Z</time></trkpt><trkpt lat="37.87639688484457" lon="15.17842601423591"><ele>180.0</ele><time>2026-04-12T10:40:41Z</time></trkpt><trkpt lat="37.8763159819801" lon="15.178598603318086"><ele>180.0</ele><time>2026-04-12T10:40:42Z</time></trkpt><trkpt lat="37.87626434162892" lon="15.178785194192557"><ele>180.0</ele><time>2026-04-12T10:40:43Z</time></trkpt><trkpt lat="37.876247016880185" lon="15.178993109979888"><ele>180.0</ele><time>2026-04-12T10:40:44Z</time></trkpt><trkpt lat="37.87625666382652" lon="15.17921427809647"><ele>179.33333333333334</ele><time>2026-04-12T10:40:45Z</time></trkpt><trkpt lat="37.8762999838289" lon="15.179433489668773"><ele>178.66666666666669</ele><time>2026-04-12T10:40:46Z</time></trkpt><trkpt lat="37.87637241153787" lon="15.179649067066832"><ele>178.0</ele><time>2026-04-12T10:40:47Z</time></trkpt><trkpt lat="37.87644649476" lon="15.179868171913176"><ele>177.33333333333334</ele><time>2026-04-12T10:40:48Z</time></trkpt><trkpt lat="37.876496325895424" lon="15.180105396201158"><ele>176.66666666666666</ele><time>2026-04-12T10:40:49Z</time></trkpt><trkpt lat="37.87652845721881" lon="15.180346018958257"><ele>176.0</ele><time>2026-04-12T10:40:50Z</time></trkpt><trkpt lat="37.87654163139077" lon="15.180590360839938"><ele>175.66666666666666</ele><time>2026-04-12T10:40:51Z</time></trkpt><trkpt lat="37.876538165411255" lon="15.180832057762164"><ele>175.33333333333334</ele><time>2026-04-12T10:40:52Z</time></trkpt><trkpt lat="37.87651911713316" lon="15.181079933068697"><ele>175.0</ele><time>2026-04-12T10:40:53Z</time></trkpt><trkpt lat="37.876478922248374" lon="15.18132226793025"><ele>175.66666666666669</ele><time>2026-04-12T10:40:54Z</time></trkpt><trkpt lat="37.87642103922199" lon="15.181556408846028"><ele>176.33333333333334</ele><time>2026-04-12T10:40:55Z</time></trkpt><trkpt lat="37.87634453314875" lon="15.181770500980951"><ele>177.0</ele><time>2026-04-12T10:40:56Z</time></trkpt><trkpt lat="37.87625367400554" lon="15.181964318020773"><ele>177.0</ele><time>2026-04-12T10:40:57Z</time></trkpt><trkpt lat="37.87614868160969" lon="15.182148180208461"><ele>177.0</ele><time>2026-04-12T10:40:58Z</time></trkpt><trkpt lat="37.8760336602071" lon="15.182324997346175"><ele>177.0</ele><time>2026-04-12T10:40:59Z</time></trkpt><trkpt lat="37.87591099785781" lon="15.182492549990844"><ele>176.33333333333334</ele><time>2026-04-12T10:41:00Z</time></trkpt><trkpt lat="37.87579721290116" lon="15.182664719303341"><ele>175.66666666666669</ele><time>2026-04-12T10:41:01Z</time></trkpt><trkpt lat="37.875724936221786" lon="15.182862121798092"><ele>175.0</ele><time>2026-04-12T10:41:02Z</time></trkpt><trkpt lat="37.875674502222864" lon="15.183067946112816"><ele>174.0</ele><time>2026-04-12T10:41:03Z</time></trkpt><trkpt lat="37.87564582303756" lon="15.183290228088156"><ele>173.0</ele><time>2026-04-12T10:41:04Z</time></trkpt><trkpt lat="37.87565853867085" lon="15.183520441874574"><ele>172.0</ele><time>2026-04-12T10:41:05Z</time></trkpt><trkpt lat="37.87570320280941" lon="15.183744116664856"><ele>172.0</ele><time>2026-04-12T10:41:06Z</time></trkpt><trkpt lat="37.87577273284459" lon="15.183960865066648"><ele>172.0</ele><time>2026-04-12T10:41:07Z</time></trkpt><trkpt lat="37.875878862180855" lon="15.184184658924961"><ele>172.0</ele><time>2026-04-12T10:41:08Z</time></trkpt><trkpt lat="37.87599967471898" lon="15.184419525938472"><ele>175.0</ele><time>2026-04-12T10:41:09Z</time></trkpt><trkpt lat="37.876127823618944" lon="15.184670697980517"><ele>178.0</ele><time>2026-04-12T10:41:10Z</time></trkpt><trkpt lat="37.87625290869988" lon="15.184922588526069"><ele>178.0</ele><time>2026-04-12T10:41:11Z</time></trkpt><trkpt lat="37.8763659467735" lon="15.185155333860521"><ele>178.0</ele><time>2026-04-12T10:41:12Z</time></trkpt><trkpt lat="37.87646974352361" lon="15.185373816166122"><ele>178.0</ele><time>2026-04-12T10:41:13Z</time></trkpt><trkpt lat="37.876563943149506" lon="15.185578719080809"><ele>179.0</ele><time>2026-04-12T10:41:14Z</time></trkpt><trkpt lat="37.87665485347307" lon="15.18576744938964"><ele>180.0</ele><time>2026-04-12T10:41:15Z</time></trkpt><trkpt lat="37.8767578105466" lon="15.185936437750833"><ele>181.0</ele><time>2026-04-12T10:41:16Z</time></trkpt><trkpt lat="37.87687384255447" lon="15.186074638055153"><ele>181.0</ele><time>2026-04-12T10:41:17Z</time></trkpt><trkpt lat="37.877003621321734" lon="15.186201850260161"><ele>181.0</ele><time>2026-04-12T10:41:18Z</time></trkpt><trkpt lat="37.8771461606627" lon="15.186318945063173"><ele>181.0</ele><time>2026-04-12T10:41:19Z</time></trkpt><trkpt lat="37.87730232206857" lon="15.18641783065481"><ele>181.0</ele><time>2026-04-12T10:41:20Z</time></trkpt><trkpt lat="37.87746074001897" lon="15.186498985385182"><ele>181.0</ele><time>2026-04-12T10:41:21Z</time></trkpt><trkpt lat="37.87759838643624" lon="15.186595053483684"><ele>181.0</ele><time>2026-04-12T10:41:22Z</time></trkpt><trkpt lat="37.8777337876096" lon="15.186671279319883"><ele>177.75</ele><time>2026-04-12T10:41:23Z</time></trkpt><trkpt lat="37.87786663488878" lon="15.186729115389905"><ele>174.5</ele><time>2026-04-12T10:41:24Z</time></trkpt><trkpt lat="37.87798509438223" lon="15.186810014118238"><ele>171.25</ele><time>2026-04-12T10:41:25Z</time></trkpt><trkpt lat="37.87808927268895" lon="15.186920532851722"><ele>168.0</ele><time>2026-04-12T10:41:26Z</time></trkpt><trkpt lat="37.8781760864724" lon="15.187063858547432"><ele>168.0</ele><time>2026-04-12T10:41:27Z</time></trkpt><trkpt lat="37.87823676550362" lon="15.187239017278728"><ele>168.0</ele><time>2026-04-12T10:41:28Z</time></trkpt><trkpt lat="37.87826139537596" lon="15.1874278412374"><ele>168.0</ele><time>2026-04-12T10:41:29Z</time></trkpt><trkpt lat="37.878265936173534" lon="15.187612105481875"><ele>168.0</ele><time>2026-04-12T10:41:30Z</time></trkpt><trkpt lat="37.878268208398204" lon="15.187795114639002"><ele>164.25</ele><time>2026-04-12T10:41:31Z</time></trkpt><trkpt lat="37.87827337106586" lon="15.187985150045678"><ele>160.5</ele><time>2026-04-12T10:41:32Z</time></trkpt><trkpt lat="37.87828238713736" lon="15.18816176308107"><ele>156.75</ele><time>2026-04-12T10:41:33Z</time></trkpt><trkpt lat="37.87828153183393" lon="15.188323018074463"><ele>153.0</ele><time>2026-04-12T10:41:34Z</time></trkpt><trkpt lat="37.87825069579383" lon="15.18848807270519"><ele>152.75</ele><time>2026-04-12T10:41:35Z</time></trkpt><trkpt lat="37.878193193237394" lon="15.188642602830203"><ele>152.5</ele><time>2026-04-12T10:41:36Z</time></trkpt><trkpt lat="37.87811436725074" lon="15.1887980650199"><ele>152.25</ele><time>2026-04-12T10:41:37Z</time></trkpt><trkpt lat="37.878010967598414" lon="15.188948227268751"><ele>152.0</ele><time>2026-04-12T10:41:38Z</time></trkpt><trkpt lat="37.877884049992204" lon="15.189085103202213"><ele>152.0</ele><time>2026-04-12T10:41:39Z</time></trkpt><trkpt lat="37.877726304738886" lon="15.189216537626722"><ele>152.0</ele><time>2026-04-12T10:41:40Z</time></trkpt><trkpt lat="37.877571225567536" lon="15.189365745930077"><ele>152.0</ele><time>2026-04-12T10:41:41Z</time></trkpt><trkpt lat="37.87743505010586" lon="15.189507196466915"><ele>152.0</ele><time>2026-04-12T10:41:42Z</time></trkpt><trkpt lat="37.87729200032647" lon="15.189643595596666"><ele>152.0</ele><time>2026-04-12T10:41:43Z</time></trkpt><trkpt lat="37.87713831233981" lon="15.189776662649846"><ele>152.0</ele><time>2026-04-12T10:41:44Z</time></trkpt><trkpt lat="37.87697285381868" lon="15.189906582138285"><ele>151.33333333333331</ele><time>2026-04-12T10:41:45Z</time></trkpt><trkpt lat="37.87678722195416" lon="15.190032145786699"><ele>150.66666666666666</ele><time>2026-04-12T10:41:46Z</time></trkpt><trkpt lat="37.876581967865484" lon="15.190158592665032"><ele>150.0</ele><time>2026-04-12T10:41:47Z</time></trkpt><trkpt lat="37.87635826479712" lon="15.1902904064499"><ele>150.0</ele><time>2026-04-12T10:41:48Z</time></trkpt><trkpt lat="37.87612849187533" lon="15.1904330132505"><ele>150.0</ele><time>2026-04-12T10:41:49Z</time></trkpt><trkpt lat="37.87592420258659" lon="15.19056925434266"><ele>148.0</ele><time>2026-04-12T10:41:50Z</time></trkpt><trkpt lat="37.875716564764886" lon="15.190706312597928"><ele>146.0</ele><time>2026-04-12T10:41:51Z</time></trkpt><trkpt lat="37.87550989946503" lon="15.190840851283916"><ele>146.0</ele><time>2026-04-12T10:41:52Z</time></trkpt><trkpt lat="37.87529644018488" lon="15.190975688430555"><ele>146.0</ele><time>2026-04-12T10:41:53Z</time></trkpt><trkpt lat="37.875075949829565" lon="15.19110163005994"><ele>141.5</ele><time>2026-04-12T10:41:54Z</time></trkpt><trkpt lat="37.8748442376272" lon="15.191217335601022"><ele>137.0</ele><time>2026-04-12T10:41:55Z</time></trkpt><trkpt lat="37.87459469489009" lon="15.191334248004805"><ele>137.0</ele><time>2026-04-12T10:41:56Z</time></trkpt><trkpt lat="37.87433623398764" lon="15.191452654881912"><ele>137.0</ele><time>2026-04-12T10:41:57Z</time></trkpt><trkpt lat="37.87406152323779" lon="15.191553611623533"><ele>136.0</ele><time>2026-04-12T10:41:58Z</time></trkpt><trkpt lat="37.873772125364" lon="15.191652893868461"><ele>135.0</ele><time>2026-04-12T10:41:59Z</time></trkpt><trkpt lat="37.87347417297384" lon="15.191762133618331"><ele>132.0</ele><time>2026-04-12T10:42:00Z</time></trkpt><trkpt lat="37.87319587387" lon="15.191862133318272"><ele>129.0</ele><time>2026-04-12T10:42:01Z</time></trkpt><trkpt lat="37.87293773598393" lon="15.191946042388674"><ele>129.0</ele><time>2026-04-12T10:42:02Z</time></trkpt><trkpt lat="37.87269613413586" lon="15.192032618167364"><ele>129.0</ele><time>2026-04-12T10:42:03Z</time></trkpt><trkpt lat="37.87245873615167" lon="15.192116066420828"><ele>129.0</ele><time>2026-04-12T10:42:04Z</time></trkpt><trkpt lat="37.87221376259055" lon="15.192190064302608"><ele>129.0</ele><time>2026-04-12T10:42:05Z</time></trkpt><trkpt lat="37.87196521802685" lon="15.19225619262397"><ele>130.0</ele><time>2026-04-12T10:42:06Z</time></trkpt><trkpt lat="37.87171807321353" lon="15.192323192528882"><ele>131.0</ele><time>2026-04-12T10:42:07Z</time></trkpt><trkpt lat="37.871475017612376" lon="15.19239031471727"><ele>131.0</ele><time>2026-04-12T10:42:08Z</time></trkpt><trkpt lat="37.87124442128623" lon="15.192448750421383"><ele>131.0</ele><time>2026-04-12T10:42:09Z</time></trkpt><trkpt lat="37.87102689296356" lon="15.192520690178364"><ele>130.0</ele><time>2026-04-12T10:42:10Z</time></trkpt><trkpt lat="37.87081038745748" lon="15.192616718140778"><ele>129.0</ele><time>2026-04-12T10:42:11Z</time></trkpt><trkpt lat="37.870600274034906" lon="15.192751292497507"><ele>129.0</ele><time>2026-04-12T10:42:12Z</time></trkpt><trkpt lat="37.87039979454106" lon="15.19293022848263"><ele>129.0</ele><time>2026-04-12T10:42:13Z</time></trkpt><trkpt lat="37.870196642775056" lon="15.19313658765835"><ele>126.5</ele><time>2026-04-12T10:42:14Z</time></trkpt><trkpt lat="37.86998723388102" lon="15.193332771315404"><ele>124.0</ele><time>2026-04-12T10:42:15Z</time></trkpt><trkpt lat="37.8697826412669" lon="15.193510362536118"><ele>124.0</ele><time>2026-04-12T10:42:16Z</time></trkpt><trkpt lat="37.869589424342735" lon="15.193679105659559"><ele>124.0</ele><time>2026-04-12T10:42:17Z</time></trkpt><trkpt lat="37.869405444583954" lon="15.193847539091978"><ele>121.5</ele><time>2026-04-12T10:42:18Z</time></trkpt><trkpt lat="37.86922324377573" lon="15.194028223415762"><ele>119.0</ele><time>2026-04-12T10:42:19Z</time></trkpt><trkpt lat="37.869053556504824" lon="15.194239682594036"><ele>119.0</ele><time>2026-04-12T10:42:20Z</time></trkpt><trkpt lat="37.86889330397281" lon="15.194488530047266"><ele>119.0</ele><time>2026-04-12T10:42:21Z</time></trkpt><trkpt lat="37.86873921232492" lon="15.1947698964784"><ele>120.0</ele><time>2026-04-12T10:42:22Z</time></trkpt><trkpt lat="37.86857922090112" lon="15.19507364547772"><ele>121.0</ele><time>2026-04-12T10:42:23Z</time></trkpt><trkpt lat="37.86839511958072" lon="15.195388599256425"><ele>118.5</ele><time>2026-04-12T10:42:24Z</time></trkpt><trkpt lat="37.86819734749153" lon="15.195709780944131"><ele>116.0</ele><time>2026-04-12T10:42:25Z</time></trkpt><trkpt lat="37.868006790454956" lon="15.195997573681948"><ele>116.0</ele><time>2026-04-12T10:42:26Z</time></trkpt><trkpt lat="37.867824760400694" lon="15.196269535897668"><ele>116.0</ele><time>2026-04-12T10:42:27Z</time></trkpt><trkpt lat="37.867649484294496" lon="15.196541298312004"><ele>114.5</ele><time>2026-04-12T10:42:28Z</time></trkpt><trkpt lat="37.867493813155" lon="15.19680578303171"><ele>113.0</ele><time>2026-04-12T10:42:29Z</time></trkpt><trkpt lat="37.86734601392007" lon="15.197061082730823"><ele>113.0</ele><time>2026-04-12T10:42:30Z</time></trkpt><trkpt lat="37.867204491971286" lon="15.197299288141998"><ele>113.0</ele><time>2026-04-12T10:42:31Z</time></trkpt><trkpt lat="37.86710174485123" lon="15.197526223868275"><ele>113.0</ele><time>2026-04-12T10:42:32Z</time></trkpt><trkpt lat="37.86705046292438" lon="15.197758070004777"><ele>114.33333333333333</ele><time>2026-04-12T10:42:33Z</time></trkpt><trkpt lat="37.86704517982961" lon="15.197993882029321"><ele>115.66666666666666</ele><time>2026-04-12T10:42:34Z</time></trkpt><trkpt lat="37.867083558896574" lon="15.198221600837247"><ele>117.0</ele><time>2026-04-12T10:42:35Z</time></trkpt><trkpt lat="37.867145822216045" lon="15.198410109399166"><ele>117.0</ele><time>2026-04-12T10:42:36Z</time></trkpt><trkpt lat="37.86723798920297" lon="15.198566155649297"><ele>117.0</ele><time>2026-04-12T10:42:37Z</time></trkpt><trkpt lat="37.867371899344654" lon="15.198690587925524"><ele>117.0</ele><time>2026-04-12T10:42:38Z</time></trkpt><trkpt lat="37.86753414865739" lon="15.198786762152945"><ele>116.33333333333334</ele><time>2026-04-12T10:42:39Z</time></trkpt><trkpt lat="37.86771767088208" lon="15.198870980998228"><ele>115.66666666666667</ele><time>2026-04-12T10:42:40Z</time></trkpt><trkpt lat="37.86790374754544" lon="15.198975763160625"><ele>115.0</ele><time>2026-04-12T10:42:41Z</time></trkpt><trkpt lat="37.868086250229595" lon="15.199105508065978"><ele>115.0</ele><time>2026-04-12T10:42:42Z</time></trkpt><trkpt lat="37.86825639628237" lon="15.199231339358896"><ele>115.0</ele><time>2026-04-12T10:42:43Z</time></trkpt><trkpt lat="37.86839631150857" lon="15.199370638859216"><ele>115.0</ele><time>2026-04-12T10:42:44Z</time></trkpt><trkpt lat="37.86851043526907" lon="15.199528015186267"><ele>116.66666666666667</ele><time>2026-04-12T10:42:45Z</time></trkpt><trkpt lat="37.86860308853019" lon="15.199706721728168"><ele>118.33333333333334</ele><time>2026-04-12T10:42:46Z</time></trkpt><trkpt lat="37.86866855057306" lon="15.199910361258185"><ele>120.0</ele><time>2026-04-12T10:42:47Z</time></trkpt><trkpt lat="37.868702705718675" lon="15.200135121707804"><ele>120.0</ele><time>2026-04-12T10:42:48Z</time></trkpt><trkpt lat="37.86870769101393" lon="15.200363234082648"><ele>120.0</ele><time>2026-04-12T10:42:49Z</time></trkpt><trkpt lat="37.868678980036606" lon="15.200591109814729"><ele>120.0</ele><time>2026-04-12T10:42:50Z</time></trkpt><trkpt lat="37.86861920044759" lon="15.200812530484995"><ele>119.33333333333334</ele><time>2026-04-12T10:42:51Z</time></trkpt><trkpt lat="37.8685255951144" lon="15.201022357038637"><ele>118.66666666666667</ele><time>2026-04-12T10:42:52Z</time></trkpt><trkpt lat="37.86839576211377" lon="15.201199009684965"><ele>118.0</ele><time>2026-04-12T10:42:53Z</time></trkpt><trkpt lat="37.86824886108396" lon="15.201356330153022"><ele>123.66666666666667</ele><time>2026-04-12T10:42:54Z</time></trkpt><trkpt lat="37.868124975772325" lon="15.201550986207431"><ele>129.33333333333334</ele><time>2026-04-12T10:42:55Z</time></trkpt><trkpt lat="37.86802991349332" lon="15.201767202326135"><ele>135.0</ele><time>2026-04-12T10:42:56Z</time></trkpt><trkpt lat="37.867967774055025" lon="15.201991648470232"><ele>135.0</ele><time>2026-04-12T10:42:57Z</time></trkpt><trkpt lat="37.867949020511475" lon="15.202231457576397"><ele>135.0</ele><time>2026-04-12T10:42:58Z</time></trkpt><trkpt lat="37.867951778687925" lon="15.202473590570133"><ele>135.0</ele><time>2026-04-12T10:42:59Z</time></trkpt><trkpt lat="37.86794059950678" lon="15.202716368292588"><ele>138.0</ele><time>2026-04-12T10:43:00Z</time></trkpt><trkpt lat="37.86793669772137" lon="15.202958324525591"><ele>141.0</ele><time>2026-04-12T10:43:01Z</time></trkpt><trkpt lat="37.86795772501422" lon="15.203171851427932"><ele>144.0</ele><time>2026-04-12T10:43:02Z</time></trkpt><trkpt lat="37.86802041836067" lon="15.203352453972757"><ele>144.0</ele><time>2026-04-12T10:43:03Z</time></trkpt><trkpt lat="37.868119652759" lon="15.203508720706164"><ele>144.0</ele><time>2026-04-12T10:43:04Z</time></trkpt><trkpt lat="37.868235667596196" lon="15.20365946530207"><ele>144.0</ele><time>2026-04-12T10:43:05Z</time></trkpt><trkpt lat="37.86835030780266" lon="15.20382060745416"><ele>142.33333333333334</ele><time>2026-04-12T10:43:06Z</time></trkpt><trkpt lat="37.86845748793637" lon="15.203968096092622"><ele>140.66666666666669</ele><time>2026-04-12T10:43:07Z</time></trkpt><trkpt lat="37.868561456770166" lon="15.204097150183731"><ele>139.0</ele><time>2026-04-12T10:43:08Z</time></trkpt><trkpt lat="37.86868448652408" lon="15.204202471984035"><ele>139.0</ele><time>2026-04-12T10:43:09Z</time></trkpt><trkpt lat="37.868831423167784" lon="15.204243282364185"><ele>139.0</ele><time>2026-04-12T10:43:10Z</time></trkpt><trkpt lat="37.86898937043638" lon="15.20421419196126"><ele>139.0</ele><time>2026-04-12T10:43:11Z</time></trkpt><trkpt lat="37.86914437023254" lon="15.204137583326325"><ele>141.33333333333334</ele><time>2026-04-12T10:43:12Z</time></trkpt><trkpt lat="37.869295142787415" lon="15.204024744522911"><ele>143.66666666666666</ele><time>2026-04-12T10:43:13Z</time></trkpt><trkpt lat="37.86945298229101" lon="15.203920232662243"><ele>146.0</ele><time>2026-04-12T10:43:14Z</time></trkpt><trkpt lat="37.86963359894277" lon="15.203854548197635"><ele>149.66666666666666</ele><time>2026-04-12T10:43:15Z</time></trkpt><trkpt lat="37.86982705551644" lon="15.203811510034043"><ele>153.33333333333334</ele><time>2026-04-12T10:43:16Z</time></trkpt><trkpt lat="37.87003185883138" lon="15.203789215147731"><ele>157.0</ele><time>2026-04-12T10:43:17Z</time></trkpt><trkpt lat="37.870247828628635" lon="15.203802546219846"><ele>157.0</ele><time>2026-04-12T10:43:18Z</time></trkpt><trkpt lat="37.87047609287123" lon="15.203843122816338"><ele>157.0</ele><time>2026-04-12T10:43:19Z</time></trkpt><trkpt lat="37.87070024456039" lon="15.20387133909437"><ele>157.0</ele><time>2026-04-12T10:43:20Z</time></trkpt><trkpt lat="37.87091912532537" lon="15.20389387789577"><ele>157.0</ele><time>2026-04-12T10:43:21Z</time></trkpt><trkpt lat="37.871129370662445" lon="15.203919398791134"><ele>157.0</ele><time>2026-04-12T10:43:22Z</time></trkpt><trkpt lat="37.87132171438832" lon="15.203945508362272"><ele>157.33333333333334</ele><time>2026-04-12T10:43:23Z</time></trkpt><trkpt lat="37.87149286959665" lon="15.203974849895692"><ele>157.66666666666666</ele><time>2026-04-12T10:43:24Z</time></trkpt><trkpt lat="37.87164068946988" lon="15.204023468988844"><ele>158.0</ele><time>2026-04-12T10:43:25Z</time></trkpt><trkpt lat="37.87177281082687" lon="15.20412094267106"><ele>160.33333333333331</ele><time>2026-04-12T10:43:26Z</time></trkpt><trkpt lat="37.87188214910765" lon="15.204272353133"><ele>162.66666666666666</ele><time>2026-04-12T10:43:27Z</time></trkpt><trkpt lat="37.87194655135834" lon="15.20444908577186"><ele>165.0</ele><time>2026-04-12T10:43:28Z</time></trkpt><trkpt lat="37.87196971046563" lon="15.204645733741593"><ele>165.66666666666666</ele><time>2026-04-12T10:43:29Z</time></trkpt><trkpt lat="37.87195250935507" lon="15.204850525484769"><ele>166.33333333333331</ele><time>2026-04-12T10:43:30Z</time></trkpt><trkpt lat="37.87190439285629" lon="15.205056259882692"><ele>167.0</ele><time>2026-04-12T10:43:31Z</time></trkpt><trkpt lat="37.8718672645858" lon="15.205280919433433"><ele>167.0</ele><time>2026-04-12T10:43:32Z</time></trkpt><trkpt lat="37.871834474726846" lon="15.205524433105435"><ele>167.0</ele><time>2026-04-12T10:43:33Z</time></trkpt><trkpt lat="37.87179256566227" lon="15.20578246514566"><ele>167.0</ele><time>2026-04-12T10:43:34Z</time></trkpt><trkpt lat="37.871747940734394" lon="15.206055692490267"><ele>165.5</ele><time>2026-04-12T10:43:35Z</time></trkpt><trkpt lat="37.8716996205284" lon="15.206343678924464"><ele>164.0</ele><time>2026-04-12T10:43:36Z</time></trkpt><trkpt lat="37.871647051163386" lon="15.206644875103102"><ele>164.0</ele><time>2026-04-12T10:43:37Z</time></trkpt><trkpt lat="37.87159419084762" lon="15.206961700454901"><ele>164.0</ele><time>2026-04-12T10:43:38Z</time></trkpt><trkpt lat="37.871539940194104" lon="15.207287242976289"><ele>162.5</ele><time>2026-04-12T10:43:39Z</time></trkpt><trkpt lat="37.87148238399767" lon="15.207637112418228"><ele>161.0</ele><time>2026-04-12T10:43:40Z</time></trkpt><trkpt lat="37.871422561777685" lon="15.208019141130212"><ele>161.5</ele><time>2026-04-12T10:43:41Z</time></trkpt><trkpt lat="37.87135834001172" lon="15.208399784340697"><ele>162.0</ele><time>2026-04-12T10:43:42Z</time></trkpt><trkpt lat="37.8712965004959" lon="15.208763771486348"><ele>165.0</ele><time>2026-04-12T10:43:43Z</time></trkpt><trkpt lat="37.87123414813491" lon="15.209136837634537"><ele>168.0</ele><time>2026-04-12T10:43:44Z</time></trkpt><trkpt lat="37.87117306320981" lon="15.209510411223468"><ele>169.5</ele><time>2026-04-12T10:43:45Z</time></trkpt><trkpt lat="37.8711159835457" lon="15.209872144290781"><ele>171.0</ele><time>2026-04-12T10:43:46Z</time></trkpt><trkpt lat="37.87105876932418" lon="15.210221147908783"><ele>171.0</ele><time>2026-04-12T10:43:47Z</time></trkpt><trkpt lat="37.87100318602034" lon="15.210568751528065"><ele>171.0</ele><time>2026-04-12T10:43:48Z</time></trkpt><trkpt lat="37.87094957862941" lon="15.210890447094583"><ele>160.5</ele><time>2026-04-12T10:43:49Z</time></trkpt><trkpt lat="37.87090240646701" lon="15.211200267543449"><ele>150.0</ele><time>2026-04-12T10:43:50Z</time></trkpt><trkpt lat="37.870853781734695" lon="15.21149381841281"><ele>150.0</ele><time>2026-04-12T10:43:51Z</time></trkpt><trkpt lat="37.870802434939506" lon="15.211756511892649"><ele>150.0</ele><time>2026-04-12T10:43:52Z</time></trkpt><trkpt lat="37.87076396294273" lon="15.21199474009818"><ele>150.0</ele><time>2026-04-12T10:43:53Z</time></trkpt><trkpt lat="37.87074368711719" lon="15.21220334938821"><ele>149.75</ele><time>2026-04-12T10:43:54Z</time></trkpt><trkpt lat="37.87076335723805" lon="15.212383492754437"><ele>149.5</ele><time>2026-04-12T10:43:55Z</time></trkpt><trkpt lat="37.87083167111642" lon="15.212530271768722"><ele>149.25</ele><time>2026-04-12T10:43:56Z</time></trkpt><trkpt lat="37.870935078722574" lon="15.212639976798396"><ele>149.0</ele><time>2026-04-12T10:43:57Z</time></trkpt><trkpt lat="37.87105531837846" lon="15.212726893586254"><ele>151.75</ele><time>2026-04-12T10:43:58Z</time></trkpt><trkpt lat="37.87115555872456" lon="15.21285259326569"><ele>154.5</ele><time>2026-04-12T10:43:59Z</time></trkpt><trkpt lat="37.871238176451676" lon="15.213008925032247"><ele>157.25</ele><time>2026-04-12T10:44:00Z</time></trkpt><trkpt lat="37.87130017207852" lon="15.213171277349236"><ele>160.0</ele><time>2026-04-12T10:44:01Z</time></trkpt><trkpt lat="37.87132863112079" lon="15.21333528851419"><ele>160.0</ele><time>2026-04-12T10:44:02Z</time></trkpt><trkpt lat="37.871354142398545" lon="15.213455262497252"><ele>160.0</ele><time>2026-04-12T10:44:03Z</time></trkpt><trkpt lat="37.871420046537686" lon="15.213534284083973"><ele>160.0</ele><time>2026-04-12T10:44:04Z</time></trkpt><trkpt lat="37.871510396190274" lon="15.213574668860817"><ele>160.0</ele><time>2026-04-12T10:44:05Z</time></trkpt><trkpt lat="37.871614210496546" lon="15.213589336765168"><ele>160.0</ele><time>2026-04-12T10:44:06Z</time></trkpt><trkpt lat="37.8717225476931" lon="15.213592117786083"><ele>162.33333333333334</ele><time>2026-04-12T10:44:07Z</time></trkpt><trkpt lat="37.8718160315667" lon="15.213604013857543"><ele>164.66666666666669</ele><time>2026-04-12T10:44:08Z</time></trkpt><trkpt lat="37.87190492937337" lon="15.213624678593277"><ele>167.0</ele><time>2026-04-12T10:44:09Z</time></trkpt><trkpt lat="37.87198873020406" lon="15.213654183663468"><ele>169.33333333333334</ele><time>2026-04-12T10:44:10Z</time></trkpt><trkpt lat="37.87205470640787" lon="15.213721282455909"><ele>171.66666666666666</ele><time>2026-04-12T10:44:11Z</time></trkpt><trkpt lat="37.87208390295857" lon="15.213815017632468"><ele>174.0</ele><time>2026-04-12T10:44:12Z</time></trkpt><trkpt lat="37.8720550752057" lon="15.213913809614848"><ele>168.0</ele><time>2026-04-12T10:44:13Z</time></trkpt><trkpt lat="37.87201614015297" lon="15.214024737812446"><ele>162.0</ele><time>2026-04-12T10:44:14Z</time></trkpt><trkpt lat="37.871984648121845" lon="15.214164830201993"><ele>156.0</ele><time>2026-04-12T10:44:15Z</time></trkpt><trkpt lat="37.87191519186379" lon="15.214317612876478"><ele>150.0</ele><time>2026-04-12T10:44:16Z</time></trkpt><trkpt lat="37.871854980851346" lon="15.214505490960443"><ele>150.0</ele><time>2026-04-12T10:44:17Z</time></trkpt><trkpt lat="37.87178624292575" lon="15.214705767272573"><ele>150.0</ele><time>2026-04-12T10:44:18Z</time></trkpt><trkpt lat="37.87171784609169" lon="15.214913442615618"><ele>150.0</ele><time>2026-04-12T10:44:19Z</time></trkpt><trkpt lat="37.87164998556816" lon="15.215115225691621"><ele>149.25</ele><time>2026-04-12T10:44:20Z</time></trkpt><trkpt lat="37.87160205471065" lon="15.215303821631364"><ele>148.5</ele><time>2026-04-12T10:44:21Z</time></trkpt><trkpt lat="37.87154185270698" lon="15.215470848776985"><ele>147.75</ele><time>2026-04-12T10:44:22Z</time></trkpt><trkpt lat="37.87148621891575" lon="15.215638221016915"><ele>147.0</ele><time>2026-04-12T10:44:23Z</time></trkpt><trkpt lat="37.871430449442805" lon="15.215813810586893"><ele>149.25</ele><time>2026-04-12T10:44:24Z</time></trkpt><trkpt lat="37.87137607870371" lon="15.215972465817464"><ele>151.5</ele><time>2026-04-12T10:44:25Z</time></trkpt><trkpt lat="37.87131890200837" lon="15.2161242817833"><ele>153.75</ele><time>2026-04-12T10:44:26Z</time></trkpt><trkpt lat="37.8712476582006" lon="15.216259347650219"><ele>156.0</ele><time>2026-04-12T10:44:27Z</time></trkpt><trkpt lat="37.87115675484853" lon="15.216359179979294"><ele>156.0</ele><time>2026-04-12T10:44:28Z</time></trkpt><trkpt lat="37.87105599644686" lon="15.216436479014932"><ele>156.0</ele><time>2026-04-12T10:44:29Z</time></trkpt><trkpt lat="37.87093712821244" lon="15.216487582147126"><ele>156.0</ele><time>2026-04-12T10:44:30Z</time></trkpt><trkpt lat="37.87081857373354" lon="15.216562814588642"><ele>156.0</ele><time>2026-04-12T10:44:31Z</time></trkpt><trkpt lat="37.870696523213844" lon="15.216652666632086"><ele>155.5</ele><time>2026-04-12T10:44:32Z</time></trkpt><trkpt lat="37.87056374038597" lon="15.216739525424712"><ele>155.0</ele><time>2026-04-12T10:44:33Z</time></trkpt><trkpt lat="37.87043169077992" lon="15.216802631451326"><ele>154.5</ele><time>2026-04-12T10:44:34Z</time></trkpt><trkpt lat="37.870308594557365" lon="15.216843872355895"><ele>154.0</ele><time>2026-04-12T10:44:35Z</time></trkpt><trkpt lat="37.87020730564145" lon="15.216873106758245"><ele>154.0</ele><time>2026-04-12T10:44:36Z</time></trkpt><trkpt lat="37.87013077211385" lon="15.216896245708455"><ele>154.0</ele><time>2026-04-12T10:44:37Z</time></trkpt><trkpt lat="37.87007157266563" lon="15.216933703688596"><ele>154.0</ele><time>2026-04-12T10:44:38Z</time></trkpt><trkpt lat="37.870025266525545" lon="15.21702068173466"><ele>154.0</ele><time>2026-04-12T10:44:39Z</time></trkpt><trkpt lat="37.86999344928094" lon="15.2171642981252"><ele>154.0</ele><time>2026-04-12T10:44:40Z</time></trkpt><trkpt lat="37.869931048292365" lon="15.21732405375627"><ele>156.0</ele><time>2026-04-12T10:44:41Z</time></trkpt><trkpt lat="37.869820018990126" lon="15.217478090487987"><ele>158.0</ele><time>2026-04-12T10:44:42Z</time></trkpt><trkpt lat="37.86969667910294" lon="15.21762305186715"><ele>160.0</ele><time>2026-04-12T10:44:43Z</time></trkpt><trkpt lat="37.869578412444106" lon="15.2177513327339"><ele>160.0</ele><time>2026-04-12T10:44:44Z</time></trkpt><trkpt lat="37.86947775636814" lon="15.217872909778748"><ele>160.0</ele><time>2026-04-12T10:44:45Z</time></trkpt><trkpt lat="37.86938360668175" lon="15.217985254239029"><ele>160.0</ele><time>2026-04-12T10:44:46Z</time></trkpt><trkpt lat="37.8692858426976" lon="15.21807737757805"><ele>160.0</ele><time>2026-04-12T10:44:47Z</time></trkpt><trkpt lat="37.869182617590475" lon="15.218146117357472"><ele>160.16666666666669</ele><time>2026-04-12T10:44:48Z</time></trkpt><trkpt lat="37.86908775132606" lon="15.218178317226089"><ele>160.33333333333334</ele><time>2026-04-12T10:44:49Z</time></trkpt><trkpt lat="37.86900535885525" lon="15.218176633145564"><ele>160.5</ele><time>2026-04-12T10:44:50Z</time></trkpt><trkpt lat="37.86893799430464" lon="15.218125035947658"><ele>160.66666666666666</ele><time>2026-04-12T10:44:51Z</time></trkpt><trkpt lat="37.8688948226293" lon="15.218044631829663"><ele>160.83333333333331</ele><time>2026-04-12T10:44:52Z</time></trkpt><trkpt lat="37.86887429056442" lon="15.217943784568813"><ele>161.0</ele><time>2026-04-12T10:44:53Z</time></trkpt><trkpt lat="37.86881706445433" lon="15.217844053647786"><ele>160.0</ele><time>2026-04-12T10:44:54Z</time></trkpt><trkpt lat="37.86871707857809" lon="15.217750767526663"><ele>159.0</ele><time>2026-04-12T10:44:55Z</time></trkpt><trkpt lat="37.86860298246356" lon="15.217659383359209"><ele>158.0</ele><time>2026-04-12T10:44:56Z</time></trkpt><trkpt lat="37.86846091847469" lon="15.217590431157804"><ele>157.0</ele><time>2026-04-12T10:44:57Z</time></trkpt><trkpt lat="37.868299871648176" lon="15.217524977302265"><ele>157.0</ele><time>2026-04-12T10:44:58Z</time></trkpt><trkpt lat="37.868117770054845" lon="15.217460264982671"><ele>157.0</ele><time>2026-04-12T10:44:59Z</time></trkpt><trkpt lat="37.86792106580106" lon="15.217405234126273"><ele>157.0</ele><time>2026-04-12T10:45:00Z</time></trkpt><trkpt lat="37.86773261101729" lon="15.217357445621769"><ele>151.75</ele><time>2026-04-12T10:45:01Z</time></trkpt><trkpt lat="37.867583176128676" lon="15.217311129248221"><ele>146.5</ele><time>2026-04-12T10:45:02Z</time></trkpt><trkpt lat="37.86745361469744" lon="15.217259026965857"><ele>141.25</ele><time>2026-04-12T10:45:03Z</time></trkpt><trkpt lat="37.86733536164445" lon="15.217184050585379"><ele>136.0</ele><time>2026-04-12T10:45:04Z</time></trkpt><trkpt lat="37.867232562450745" lon="15.217099381010254"><ele>136.0</ele><time>2026-04-12T10:45:05Z</time></trkpt><trkpt lat="37.867116006670685" lon="15.21707370019591"><ele>136.0</ele><time>2026-04-12T10:45:06Z</time></trkpt><trkpt lat="37.866993010292866" lon="15.217107006304902"><ele>136.0</ele><time>2026-04-12T10:45:07Z</time></trkpt><trkpt lat="37.8668606775915" lon="15.217189202026354"><ele>136.0</ele><time>2026-04-12T10:45:08Z</time></trkpt><trkpt lat="37.86672646638116" lon="15.217307701729894"><ele>136.33333333333334</ele><time>2026-04-12T10:45:09Z</time></trkpt><trkpt lat="37.86657498650385" lon="15.21741938375197"><ele>136.66666666666666</ele><time>2026-04-12T10:45:10Z</time></trkpt><trkpt lat="37.86640428489597" lon="15.217519494150784"><ele>137.0</ele><time>2026-04-12T10:45:11Z</time></trkpt><trkpt lat="37.86623533183759" lon="15.21761656847577"><ele>137.0</ele><time>2026-04-12T10:45:12Z</time></trkpt><trkpt lat="37.866078649824225" lon="15.217704142039771"><ele>137.0</ele><time>2026-04-12T10:45:13Z</time></trkpt><trkpt lat="37.86592630741961" lon="15.21778390995054"><ele>137.0</ele><time>2026-04-12T10:45:14Z</time></trkpt><trkpt lat="37.86578132033754" lon="15.217853097240406"><ele>134.25</ele><time>2026-04-12T10:45:15Z</time></trkpt><trkpt lat="37.865648635017074" lon="15.217896546198947"><ele>131.5</ele><time>2026-04-12T10:45:16Z</time></trkpt><trkpt lat="37.86551866262067" lon="15.217907552369569"><ele>128.75</ele><time>2026-04-12T10:45:17Z</time></trkpt><trkpt lat="37.86539100453257" lon="15.217877439980956"><ele>126.0</ele><time>2026-04-12T10:45:18Z</time></trkpt><trkpt lat="37.8652627215235" lon="15.217819087251113"><ele>126.0</ele><time>2026-04-12T10:45:19Z</time></trkpt><trkpt lat="37.86514639292944" lon="15.21772475978274"><ele>126.0</ele><time>2026-04-12T10:45:20Z</time></trkpt><trkpt lat="37.86503470967971" lon="15.217637806023676"><ele>126.0</ele><time>2026-04-12T10:45:21Z</time></trkpt><trkpt lat="37.86489683443745" lon="15.217603235717995"><ele>126.0</ele><time>2026-04-12T10:45:22Z</time></trkpt><trkpt lat="37.864748591160904" lon="15.217613416330508"><ele>123.75</ele><time>2026-04-12T10:45:23Z</time></trkpt><trkpt lat="37.864612642451" lon="15.217613900758584"><ele>121.5</ele><time>2026-04-12T10:45:24Z</time></trkpt><trkpt lat="37.864478066175316" lon="15.217567405983807"><ele>119.25</ele><time>2026-04-12T10:45:25Z</time></trkpt><trkpt lat="37.86434358010958" lon="15.21748599064781"><ele>117.0</ele><time>2026-04-12T10:45:26Z</time></trkpt><trkpt lat="37.86422171887574" lon="15.217360616430359"><ele>114.66666666666666</ele><time>2026-04-12T10:45:27Z</time></trkpt><trkpt lat="37.86410960836349" lon="15.21720919363802"><ele>112.33333333333333</ele><time>2026-04-12T10:45:28Z</time></trkpt><trkpt lat="37.863993559428266" lon="15.21707225551542"><ele>110.0</ele><time>2026-04-12T10:45:29Z</time></trkpt><trkpt lat="37.863880879160796" lon="15.216948074837502"><ele>110.0</ele><time>2026-04-12T10:45:30Z</time></trkpt><trkpt lat="37.86375067494726" lon="15.216864691122309"><ele>110.0</ele><time>2026-04-12T10:45:31Z</time></trkpt><trkpt lat="37.86361560492595" lon="15.216832015637912"><ele>110.0</ele><time>2026-04-12T10:45:32Z</time></trkpt><trkpt lat="37.86349057787982" lon="15.216860825601392"><ele>110.0</ele><time>2026-04-12T10:45:33Z</time></trkpt><trkpt lat="37.86338089266563" lon="15.216925935017667"><ele>110.25</ele><time>2026-04-12T10:45:34Z</time></trkpt><trkpt lat="37.86328587347768" lon="15.217016067039966"><ele>110.5</ele><time>2026-04-12T10:45:35Z</time></trkpt><trkpt lat="37.86319405487121" lon="15.217134961346765"><ele>110.75</ele><time>2026-04-12T10:45:36Z</time></trkpt><trkpt lat="37.86310713584719" lon="15.217272722088587"><ele>111.0</ele><time>2026-04-12T10:45:37Z</time></trkpt><trkpt lat="37.86301653296972" lon="15.21741262490222"><ele>111.0</ele><time>2026-04-12T10:45:38Z</time></trkpt><trkpt lat="37.86292657423587" lon="15.21755869112336"><ele>111.0</ele><time>2026-04-12T10:45:39Z</time></trkpt><trkpt lat="37.862833869102616" lon="15.217709620872553"><ele>111.0</ele><time>2026-04-12T10:45:40Z</time></trkpt><trkpt lat="37.862743699443485" lon="15.217854130070194"><ele>111.0</ele><time>2026-04-12T10:45:41Z</time></trkpt><trkpt lat="37.862655051428405" lon="15.217976861839377"><ele>111.4</ele><time>2026-04-12T10:45:42Z</time></trkpt><trkpt lat="37.8625779714483" lon="15.218099119892415"><ele>111.8</ele><time>2026-04-12T10:45:43Z</time></trkpt><trkpt lat="37.86250605545986" lon="15.218209393641681"><ele>112.20000000000002</ele><time>2026-04-12T10:45:44Z</time></trkpt><trkpt lat="37.86244186111094" lon="15.2183094076201"><ele>112.60000000000001</ele><time>2026-04-12T10:45:45Z</time></trkpt><trkpt lat="37.862377476290426" lon="15.218415223127598"><ele>113.0</ele><time>2026-04-12T10:45:46Z</time></trkpt><trkpt lat="37.86230881184828" lon="15.21850705801493"><ele>112.99999999999999</ele><time>2026-04-12T10:45:47Z</time></trkpt><trkpt lat="37.862247386688225" lon="15.218580922354016"><ele>113.0</ele><time>2026-04-12T10:45:48Z</time></trkpt><trkpt lat="37.86219980553787" lon="15.21864766669825"><ele>113.0</ele><time>2026-04-12T10:45:49Z</time></trkpt><trkpt lat="37.86215596899747" lon="15.218718525541913"><ele>113.0</ele><time>2026-04-12T10:45:51Z</time></trkpt><trkpt lat="37.86208165376334" lon="15.218806274364452"><ele>112.99999999999999</ele><time>2026-04-12T10:46:49Z</time></trkpt><trkpt lat="37.86202713240761" lon="15.2188647321728"><ele>113.0</ele><time>2026-04-12T10:46:50Z</time></trkpt><trkpt lat="37.86196923013442" lon="15.218949111137167"><ele>113.0</ele><time>2026-04-12T10:46:51Z</time></trkpt><trkpt lat="37.86190785303311" lon="15.219047232031832"><ele>113.00000000000001</ele><time>2026-04-12T10:46:52Z</time></trkpt><trkpt lat="37.8618456884137" lon="15.219140914212574"><ele>113.00000000000001</ele><time>2026-04-12T10:46:53Z</time></trkpt><trkpt lat="37.86179118750065" lon="15.219263851063285"><ele>113.0</ele><time>2026-04-12T10:46:54Z</time></trkpt><trkpt lat="37.86171373916916" lon="15.219370985332219"><ele>113.0</ele><time>2026-04-12T10:46:55Z</time></trkpt><trkpt lat="37.86161549673641" lon="15.219466376310017"><ele>112.80000000000001</ele><time>2026-04-12T10:46:56Z</time></trkpt><trkpt lat="37.86151660964968" lon="15.219544876977231"><ele>112.60000000000001</ele><time>2026-04-12T10:46:57Z</time></trkpt><trkpt lat="37.86142405748116" lon="15.219624028102615"><ele>112.39999999999999</ele><time>2026-04-12T10:46:58Z</time></trkpt><trkpt lat="37.8613372317901" lon="15.219707008353167"><ele>112.19999999999999</ele><time>2026-04-12T10:46:59Z</time></trkpt><trkpt lat="37.8612431539931" lon="15.21978288074648"><ele>112.0</ele><time>2026-04-12T10:47:00Z</time></trkpt><trkpt lat="37.861132501251596" lon="15.219850605516235"><ele>112.0</ele><time>2026-04-12T10:47:01Z</time></trkpt><trkpt lat="37.86103069434143" lon="15.219930676593101"><ele>112.0</ele><time>2026-04-12T10:47:02Z</time></trkpt><trkpt lat="37.8609143057203" lon="15.220010613053832"><ele>112.0</ele><time>2026-04-12T10:47:03Z</time></trkpt><trkpt lat="37.86078542715903" lon="15.220086342487278"><ele>112.0</ele><time>2026-04-12T10:47:04Z</time></trkpt><trkpt lat="37.86065518151437" lon="15.220159201024812"><ele>110.75</ele><time>2026-04-12T10:47:05Z</time></trkpt><trkpt lat="37.86051984232902" lon="15.220217354854073"><ele>109.5</ele><time>2026-04-12T10:47:06Z</time></trkpt><trkpt lat="37.86037874148243" lon="15.220298466861356"><ele>108.25</ele><time>2026-04-12T10:47:07Z</time></trkpt><trkpt lat="37.860246920919344" lon="15.220382416190997"><ele>107.0</ele><time>2026-04-12T10:47:08Z</time></trkpt><trkpt lat="37.860108151421656" lon="15.220463916468075"><ele>106.66666666666666</ele><time>2026-04-12T10:47:09Z</time></trkpt><trkpt lat="37.85997374738522" lon="15.220556923001142"><ele>106.33333333333334</ele><time>2026-04-12T10:47:10Z</time></trkpt><trkpt lat="37.859851194889956" lon="15.220660919514932"><ele>106.0</ele><time>2026-04-12T10:47:11Z</time></trkpt><trkpt lat="37.85972967337529" lon="15.220782870257919"><ele>106.0</ele><time>2026-04-12T10:47:12Z</time></trkpt><trkpt lat="37.85961607581138" lon="15.220888680274122"><ele>106.0</ele><time>2026-04-12T10:47:13Z</time></trkpt><trkpt lat="37.8595405213252" lon="15.221024762932794"><ele>106.0</ele><time>2026-04-12T10:47:14Z</time></trkpt><trkpt lat="37.85946501338849" lon="15.221146015902253"><ele>106.0</ele><time>2026-04-12T10:47:15Z</time></trkpt><trkpt lat="37.859388803602755" lon="15.22125630271774"><ele>106.0</ele><time>2026-04-12T10:47:16Z</time></trkpt><trkpt lat="37.85931052557484" lon="15.221384739862554"><ele>106.0</ele><time>2026-04-12T10:47:17Z</time></trkpt><trkpt lat="37.85922697214198" lon="15.221492160962443"><ele>106.0</ele><time>2026-04-12T10:47:18Z</time></trkpt><trkpt lat="37.859101477736004" lon="15.221539113569223"><ele>106.0</ele><time>2026-04-12T10:47:19Z</time></trkpt><trkpt lat="37.85899851547138" lon="15.221620334109115"><ele>105.5</ele><time>2026-04-12T10:47:20Z</time></trkpt><trkpt lat="37.85886866405974" lon="15.221640327781653"><ele>105.0</ele><time>2026-04-12T10:47:21Z</time></trkpt><trkpt lat="37.858752409684314" lon="15.221668959952199"><ele>104.5</ele><time>2026-04-12T10:47:22Z</time></trkpt><trkpt lat="37.85863840776922" lon="15.22168374432401"><ele>104.0</ele><time>2026-04-12T10:47:23Z</time></trkpt><trkpt lat="37.85851770580102" lon="15.221674568191226"><ele>102.75</ele><time>2026-04-12T10:47:24Z</time></trkpt><trkpt lat="37.8583841987105" lon="15.221683379179646"><ele>101.5</ele><time>2026-04-12T10:47:25Z</time></trkpt><trkpt lat="37.85825594312797" lon="15.22171056502073"><ele>100.25</ele><time>2026-04-12T10:47:26Z</time></trkpt><trkpt lat="37.85812977559904" lon="15.221730758776129"><ele>99.0</ele><time>2026-04-12T10:47:27Z</time></trkpt><trkpt lat="37.85801382006007" lon="15.221747143513028"><ele>99.0</ele><time>2026-04-12T10:47:28Z</time></trkpt><trkpt lat="37.85790295406898" lon="15.221759744794435"><ele>99.0</ele><time>2026-04-12T10:47:29Z</time></trkpt><trkpt lat="37.85780339547183" lon="15.221786831104447"><ele>99.0</ele><time>2026-04-12T10:47:30Z</time></trkpt><trkpt lat="37.85772536422197" lon="15.22180237329684"><ele>99.0</ele><time>2026-04-12T10:47:31Z</time></trkpt><trkpt lat="37.857637337068645" lon="15.221768134159758"><ele>99.0</ele><time>2026-04-12T10:47:32Z</time></trkpt><trkpt lat="37.85754586313298" lon="15.221831720387033"><ele>97.5</ele><time>2026-04-12T10:47:33Z</time></trkpt><trkpt lat="37.857419991670085" lon="15.221895026897865"><ele>96.0</ele><time>2026-04-12T10:47:34Z</time></trkpt><trkpt lat="37.85727875098799" lon="15.221958335287043"><ele>94.5</ele><time>2026-04-12T10:47:35Z</time></trkpt><trkpt lat="37.85714404480893" lon="15.22202389605133"><ele>93.0</ele><time>2026-04-12T10:47:36Z</time></trkpt><trkpt lat="37.857021863771585" lon="15.222077500398004"><ele>93.0</ele><time>2026-04-12T10:47:37Z</time></trkpt><trkpt lat="37.8569062513026" lon="15.22212316270829"><ele>93.0</ele><time>2026-04-12T10:47:38Z</time></trkpt><trkpt lat="37.85680404072587" lon="15.222170865679722"><ele>93.0</ele><time>2026-04-12T10:47:39Z</time></trkpt><trkpt lat="37.85670458449108" lon="15.222209216153205"><ele>93.0</ele><time>2026-04-12T10:47:40Z</time></trkpt><trkpt lat="37.856617702480136" lon="15.222250279968563"><ele>93.0</ele><time>2026-04-12T10:47:41Z</time></trkpt><trkpt lat="37.85652424497609" lon="15.222279381385416"><ele>92.80000000000001</ele><time>2026-04-12T10:47:42Z</time></trkpt><trkpt lat="37.85642834311625" lon="15.222313774774621"><ele>92.6</ele><time>2026-04-12T10:47:43Z</time></trkpt><trkpt lat="37.85633579399125" lon="15.222359837997784"><ele>92.4</ele><time>2026-04-12T10:47:44Z</time></trkpt><trkpt lat="37.856236234168655" lon="15.222409303899118"><ele>92.19999999999999</ele><time>2026-04-12T10:47:45Z</time></trkpt><trkpt lat="37.85613915675833" lon="15.222455724260051"><ele>92.0</ele><time>2026-04-12T10:47:46Z</time></trkpt><trkpt lat="37.85603572897555" lon="15.22251288840581"><ele>90.75</ele><time>2026-04-12T10:47:47Z</time></trkpt><trkpt lat="37.85594004336331" lon="15.22260029295049"><ele>89.5</ele><time>2026-04-12T10:47:48Z</time></trkpt><trkpt lat="37.855864718174644" lon="15.222710529841068"><ele>88.25</ele><time>2026-04-12T10:47:49Z</time></trkpt><trkpt lat="37.855801632638965" lon="15.222825846714832"><ele>87.0</ele><time>2026-04-12T10:47:50Z</time></trkpt><trkpt lat="37.855736380915644" lon="15.222943254950245"><ele>87.0</ele><time>2026-04-12T10:47:51Z</time></trkpt><trkpt lat="37.85566603489217" lon="15.223065139798821"><ele>87.0</ele><time>2026-04-12T10:47:52Z</time></trkpt><trkpt lat="37.8555890981303" lon="15.223177387499941"><ele>87.0</ele><time>2026-04-12T10:47:53Z</time></trkpt><trkpt lat="37.85550940164776" lon="15.22327668318824"><ele>87.0</ele><time>2026-04-12T10:47:54Z</time></trkpt><trkpt lat="37.85542392675877" lon="15.223363238046119"><ele>87.5</ele><time>2026-04-12T10:47:55Z</time></trkpt><trkpt lat="37.85532613463158" lon="15.223436500098465"><ele>88.0</ele><time>2026-04-12T10:47:56Z</time></trkpt><trkpt lat="37.85522857558681" lon="15.223511567531423"><ele>88.5</ele><time>2026-04-12T10:47:57Z</time></trkpt><trkpt lat="37.855113834573224" lon="15.223585101701232"><ele>89.0</ele><time>2026-04-12T10:47:58Z</time></trkpt><trkpt lat="37.85499660633611" lon="15.223668915137612"><ele>89.0</ele><time>2026-04-12T10:47:59Z</time></trkpt><trkpt lat="37.854875455115256" lon="15.223761529582506"><ele>89.0</ele><time>2026-04-12T10:48:00Z</time></trkpt><trkpt lat="37.85476111664958" lon="15.223873668678484"><ele>89.0</ele><time>2026-04-12T10:48:01Z</time></trkpt><trkpt lat="37.8546539234917" lon="15.224003449037093"><ele>89.0</ele><time>2026-04-12T10:48:02Z</time></trkpt><trkpt lat="37.854553606681094" lon="15.224140930052009"><ele>88.33333333333334</ele><time>2026-04-12T10:48:03Z</time></trkpt><trkpt lat="37.854449351131926" lon="15.224280900603125"><ele>87.66666666666667</ele><time>2026-04-12T10:48:04Z</time></trkpt><trkpt lat="37.854349326755994" lon="15.22442774002104"><ele>87.0</ele><time>2026-04-12T10:48:05Z</time></trkpt><trkpt lat="37.85424962253924" lon="15.224568195683554"><ele>87.0</ele><time>2026-04-12T10:48:06Z</time></trkpt><trkpt lat="37.85414669876692" lon="15.224706027980405"><ele>87.0</ele><time>2026-04-12T10:48:07Z</time></trkpt><trkpt lat="37.85405194672284" lon="15.224836967659197"><ele>87.0</ele><time>2026-04-12T10:48:08Z</time></trkpt><trkpt lat="37.853949633255965" lon="15.224973431878544"><ele>87.0</ele><time>2026-04-12T10:48:09Z</time></trkpt><trkpt lat="37.85385165524686" lon="15.225110287422028"><ele>87.5</ele><time>2026-04-12T10:48:10Z</time></trkpt><trkpt lat="37.85375176955977" lon="15.225246720581648"><ele>88.0</ele><time>2026-04-12T10:48:11Z</time></trkpt><trkpt lat="37.853651852128465" lon="15.225383611423771"><ele>88.5</ele><time>2026-04-12T10:48:12Z</time></trkpt><trkpt lat="37.85354537037735" lon="15.225511898008625"><ele>89.0</ele><time>2026-04-12T10:48:13Z</time></trkpt><trkpt lat="37.85342794506126" lon="15.225618206383103"><ele>89.5</ele><time>2026-04-12T10:48:14Z</time></trkpt><trkpt lat="37.853297803941274" lon="15.22570485530039"><ele>90.0</ele><time>2026-04-12T10:48:15Z</time></trkpt><trkpt lat="37.85315373661456" lon="15.225754478978942"><ele>90.5</ele><time>2026-04-12T10:48:16Z</time></trkpt><trkpt lat="37.853005965833425" lon="15.225789136386368"><ele>91.0</ele><time>2026-04-12T10:48:17Z</time></trkpt><trkpt lat="37.8528539853091" lon="15.225796120453172"><ele>91.0</ele><time>2026-04-12T10:48:18Z</time></trkpt><trkpt lat="37.8527052285592" lon="15.225789990157294"><ele>91.0</ele><time>2026-04-12T10:48:19Z</time></trkpt><trkpt lat="37.852553691549396" lon="15.22576156434627"><ele>91.0</ele><time>2026-04-12T10:48:20Z</time></trkpt><trkpt lat="37.85240757332373" lon="15.22571072540933"><ele>88.66666666666666</ele><time>2026-04-12T10:48:21Z</time></trkpt><trkpt lat="37.85227246597176" lon="15.225621595315896"><ele>86.33333333333333</ele><time>2026-04-12T10:48:22Z</time></trkpt><trkpt lat="37.85214213465675" lon="15.225509538781093"><ele>84.0</ele><time>2026-04-12T10:48:23Z</time></trkpt><trkpt lat="37.85202065422496" lon="15.225392552628527"><ele>84.0</ele><time>2026-04-12T10:48:24Z</time></trkpt><trkpt lat="37.85190557389405" lon="15.225263897241073"><ele>84.0</ele><time>2026-04-12T10:48:25Z</time></trkpt><trkpt lat="37.85178568276256" lon="15.22514285969589"><ele>84.0</ele><time>2026-04-12T10:48:26Z</time></trkpt><trkpt lat="37.85166736795296" lon="15.225028120220562"><ele>84.0</ele><time>2026-04-12T10:48:27Z</time></trkpt><trkpt lat="37.85155521759021" lon="15.224907655777866"><ele>84.0</ele><time>2026-04-12T10:48:28Z</time></trkpt><trkpt lat="37.85143160850808" lon="15.224803813119458"><ele>84.0</ele><time>2026-04-12T10:48:29Z</time></trkpt><trkpt lat="37.85131017599039" lon="15.224699713813685"><ele>84.0</ele><time>2026-04-12T10:48:30Z</time></trkpt><trkpt lat="37.85116011268623" lon="15.224621561313976"><ele>82.33333333333333</ele><time>2026-04-12T10:48:31Z</time></trkpt><trkpt lat="37.85100983604484" lon="15.224550313361833"><ele>80.66666666666666</ele><time>2026-04-12T10:48:32Z</time></trkpt><trkpt lat="37.85084489971931" lon="15.224499244011772"><ele>79.0</ele><time>2026-04-12T10:48:33Z</time></trkpt><trkpt lat="37.850681082274214" lon="15.224446896139279"><ele>78.66666666666666</ele><time>2026-04-12T10:48:34Z</time></trkpt><trkpt lat="37.850507898151164" lon="15.224399731491557"><ele>78.33333333333333</ele><time>2026-04-12T10:48:35Z</time></trkpt><trkpt lat="37.85033227150742" lon="15.22435506040145"><ele>78.0</ele><time>2026-04-12T10:48:36Z</time></trkpt><trkpt lat="37.850153063087106" lon="15.224312066227364"><ele>77.66666666666667</ele><time>2026-04-12T10:48:37Z</time></trkpt><trkpt lat="37.849968966936764" lon="15.224277339997794"><ele>77.33333333333334</ele><time>2026-04-12T10:48:38Z</time></trkpt><trkpt lat="37.849790206031635" lon="15.224248881368826"><ele>77.0</ele><time>2026-04-12T10:48:39Z</time></trkpt><trkpt lat="37.84962329385463" lon="15.22422707266338"><ele>77.0</ele><time>2026-04-12T10:48:40Z</time></trkpt><trkpt lat="37.849470808889876" lon="15.2242105167264"><ele>77.0</ele><time>2026-04-12T10:48:41Z</time></trkpt><trkpt lat="37.84932264623279" lon="15.224200602798089"><ele>77.0</ele><time>2026-04-12T10:48:42Z</time></trkpt><trkpt lat="37.84917967812129" lon="15.224197463087958"><ele>77.0</ele><time>2026-04-12T10:48:43Z</time></trkpt><trkpt lat="37.84903586338776" lon="15.224178158205193"><ele>78.0</ele><time>2026-04-12T10:48:44Z</time></trkpt><trkpt lat="37.848906051396" lon="15.22411503012089"><ele>79.0</ele><time>2026-04-12T10:48:45Z</time></trkpt><trkpt lat="37.84878532248495" lon="15.224046923910736"><ele>80.0</ele><time>2026-04-12T10:48:46Z</time></trkpt><trkpt lat="37.84867320481577" lon="15.223995740751475"><ele>81.0</ele><time>2026-04-12T10:48:47Z</time></trkpt><trkpt lat="37.848562586924196" lon="15.223952969856908"><ele>80.8</ele><time>2026-04-12T10:48:48Z</time></trkpt><trkpt lat="37.84845568218791" lon="15.223924194328404"><ele>80.6</ele><time>2026-04-12T10:48:49Z</time></trkpt><trkpt lat="37.8483439170534" lon="15.223923331332555"><ele>80.4</ele><time>2026-04-12T10:48:50Z</time></trkpt><trkpt lat="37.8482366800708" lon="15.223940231301006"><ele>80.2</ele><time>2026-04-12T10:48:51Z</time></trkpt><trkpt lat="37.84812711754567" lon="15.22397332265641"><ele>80.0</ele><time>2026-04-12T10:48:52Z</time></trkpt><trkpt lat="37.8480213951134" lon="15.224015292396658"><ele>80.0</ele><time>2026-04-12T10:48:53Z</time></trkpt><trkpt lat="37.84792186881802" lon="15.224062447608294"><ele>80.0</ele><time>2026-04-12T10:48:54Z</time></trkpt><trkpt lat="37.847827522423785" lon="15.224116302256782"><ele>80.0</ele><time>2026-04-12T10:48:55Z</time></trkpt><trkpt lat="37.84773829947353" lon="15.224181517365857"><ele>80.0</ele><time>2026-04-12T10:48:56Z</time></trkpt><trkpt lat="37.84764546018131" lon="15.224266657256818"><ele>80.0</ele><time>2026-04-12T10:48:57Z</time></trkpt><trkpt lat="37.847538046751005" lon="15.224364635131598"><ele>78.66666666666667</ele><time>2026-04-12T10:48:58Z</time></trkpt><trkpt lat="37.84742316783969" lon="15.224489637122659"><ele>77.33333333333333</ele><time>2026-04-12T10:48:59Z</time></trkpt><trkpt lat="37.84731336465511" lon="15.224656645429947"><ele>76.0</ele><time>2026-04-12T10:49:00Z</time></trkpt><trkpt lat="37.847202390975454" lon="15.224864912255647"><ele>76.0</ele><time>2026-04-12T10:49:01Z</time></trkpt><trkpt lat="37.847084579836306" lon="15.225101288159399"><ele>76.0</ele><time>2026-04-12T10:49:02Z</time></trkpt><trkpt lat="37.84696015156209" lon="15.225360640539451"><ele>76.0</ele><time>2026-04-12T10:49:03Z</time></trkpt><trkpt lat="37.84681631092794" lon="15.225634945873"><ele>76.0</ele><time>2026-04-12T10:49:04Z</time></trkpt><trkpt lat="37.846652927656336" lon="15.225932272570912"><ele>74.5</ele><time>2026-04-12T10:49:05Z</time></trkpt><trkpt lat="37.84647794683147" lon="15.226244596042157"><ele>73.0</ele><time>2026-04-12T10:49:06Z</time></trkpt><trkpt lat="37.84630576030742" lon="15.226585331480775"><ele>76.5</ele><time>2026-04-12T10:49:07Z</time></trkpt><trkpt lat="37.846125793106715" lon="15.22694204613643"><ele>80.0</ele><time>2026-04-12T10:49:08Z</time></trkpt><trkpt lat="37.84593137586921" lon="15.22728301243843"><ele>73.5</ele><time>2026-04-12T10:49:09Z</time></trkpt><trkpt lat="37.84576337929071" lon="15.227599977458137"><ele>67.0</ele><time>2026-04-12T10:49:10Z</time></trkpt><trkpt lat="37.845612760196445" lon="15.227886704115006"><ele>68.0</ele><time>2026-04-12T10:49:11Z</time></trkpt><trkpt lat="37.84548310640347" lon="15.228156571680039"><ele>69.0</ele><time>2026-04-12T10:49:12Z</time></trkpt><trkpt lat="37.84535694311464" lon="15.228382211751832"><ele>69.0</ele><time>2026-04-12T10:49:13Z</time></trkpt><trkpt lat="37.84523620418624" lon="15.228582045461119"><ele>69.0</ele><time>2026-04-12T10:49:14Z</time></trkpt><trkpt lat="37.84511526729843" lon="15.228776961988313"><ele>69.0</ele><time>2026-04-12T10:49:15Z</time></trkpt><trkpt lat="37.84497144077867" lon="15.228927697676527"><ele>69.66666666666667</ele><time>2026-04-12T10:49:16Z</time></trkpt><trkpt lat="37.8448148391781" lon="15.22904260296948"><ele>70.33333333333334</ele><time>2026-04-12T10:49:17Z</time></trkpt><trkpt lat="37.84464634506361" lon="15.229128861858168"><ele>71.0</ele><time>2026-04-12T10:49:18Z</time></trkpt><trkpt lat="37.84446381602394" lon="15.22919226605939"><ele>70.33333333333334</ele><time>2026-04-12T10:49:19Z</time></trkpt><trkpt lat="37.84426123738437" lon="15.229224071266952"><ele>69.66666666666667</ele><time>2026-04-12T10:49:20Z</time></trkpt><trkpt lat="37.844054744162285" lon="15.229233696055068"><ele>69.0</ele><time>2026-04-12T10:49:21Z</time></trkpt><trkpt lat="37.84383570562408" lon="15.22926135458862"><ele>69.0</ele><time>2026-04-12T10:49:22Z</time></trkpt><trkpt lat="37.84361026561061" lon="15.229301750541143"><ele>69.0</ele><time>2026-04-12T10:49:23Z</time></trkpt><trkpt lat="37.843382123391194" lon="15.229345191935744"><ele>67.0</ele><time>2026-04-12T10:49:24Z</time></trkpt><trkpt lat="37.84314606961644" lon="15.22939460530429"><ele>65.0</ele><time>2026-04-12T10:49:25Z</time></trkpt><trkpt lat="37.84291102223037" lon="15.2294654610355"><ele>65.0</ele><time>2026-04-12T10:49:26Z</time></trkpt><trkpt lat="37.84267330482659" lon="15.229559810458232"><ele>65.0</ele><time>2026-04-12T10:49:27Z</time></trkpt><trkpt lat="37.842432184739046" lon="15.229658706762875"><ele>63.0</ele><time>2026-04-12T10:49:28Z</time></trkpt><trkpt lat="37.842184758198805" lon="15.229752606498181"><ele>61.0</ele><time>2026-04-12T10:49:29Z</time></trkpt><trkpt lat="37.84193617603467" lon="15.229846824014443"><ele>62.0</ele><time>2026-04-12T10:49:30Z</time></trkpt><trkpt lat="37.841686873621455" lon="15.229942965950993"><ele>63.0</ele><time>2026-04-12T10:49:31Z</time></trkpt><trkpt lat="37.84143561907617" lon="15.230045306398106"><ele>63.0</ele><time>2026-04-12T10:49:32Z</time></trkpt><trkpt lat="37.84118134280839" lon="15.230148365411043"><ele>63.0</ele><time>2026-04-12T10:49:33Z</time></trkpt><trkpt lat="37.84091766925354" lon="15.230256856165635"><ele>61.5</ele><time>2026-04-12T10:49:34Z</time></trkpt><trkpt lat="37.84064482522678" lon="15.230359672433995"><ele>60.0</ele><time>2026-04-12T10:49:35Z</time></trkpt><trkpt lat="37.840383581803444" lon="15.230459426733841"><ele>60.0</ele><time>2026-04-12T10:49:36Z</time></trkpt><trkpt lat="37.84014388531847" lon="15.230541909980802"><ele>60.0</ele><time>2026-04-12T10:49:37Z</time></trkpt><trkpt lat="37.83991534611797" lon="15.230618938561902"><ele>60.33333333333333</ele><time>2026-04-12T10:49:38Z</time></trkpt><trkpt lat="37.83969956237873" lon="15.23069012920365"><ele>60.666666666666664</ele><time>2026-04-12T10:49:39Z</time></trkpt><trkpt lat="37.83950628172792" lon="15.23076387856694"><ele>61.0</ele><time>2026-04-12T10:49:40Z</time></trkpt><trkpt lat="37.83932476268856" lon="15.230833434070359"><ele>61.33333333333333</ele><time>2026-04-12T10:49:41Z</time></trkpt><trkpt lat="37.839157710643825" lon="15.230901281170572"><ele>61.66666666666667</ele><time>2026-04-12T10:49:42Z</time></trkpt><trkpt lat="37.83900650450923" lon="15.230992973745856"><ele>62.0</ele><time>2026-04-12T10:49:43Z</time></trkpt><trkpt lat="37.8388837122843" lon="15.231128478493615"><ele>62.0</ele><time>2026-04-12T10:49:44Z</time></trkpt><trkpt lat="37.83877485936064" lon="15.231282554057211"><ele>62.0</ele><time>2026-04-12T10:49:45Z</time></trkpt><trkpt lat="37.838676904774985" lon="15.231451536518195"><ele>62.0</ele><time>2026-04-12T10:49:46Z</time></trkpt><trkpt lat="37.83860536062263" lon="15.231644782441919"><ele>62.333333333333336</ele><time>2026-04-12T10:49:47Z</time></trkpt><trkpt lat="37.83855697524757" lon="15.23185410155283"><ele>62.66666666666667</ele><time>2026-04-12T10:49:48Z</time></trkpt><trkpt lat="37.83854049619645" lon="15.232078973459666"><ele>63.0</ele><time>2026-04-12T10:49:49Z</time></trkpt><trkpt lat="37.83854417307266" lon="15.23229963908221"><ele>65.33333333333333</ele><time>2026-04-12T10:49:50Z</time></trkpt><trkpt lat="37.838574811663854" lon="15.232506695025977"><ele>67.66666666666666</ele><time>2026-04-12T10:49:51Z</time></trkpt><trkpt lat="37.838626369246235" lon="15.232698845851747"><ele>70.0</ele><time>2026-04-12T10:49:52Z</time></trkpt><trkpt lat="37.838664953948324" lon="15.232899105167906"><ele>70.0</ele><time>2026-04-12T10:49:53Z</time></trkpt><trkpt lat="37.83865320187421" lon="15.233062231903917"><ele>70.0</ele><time>2026-04-12T10:49:54Z</time></trkpt><trkpt lat="37.83864432879825" lon="15.23324376877107"><ele>70.0</ele><time>2026-04-12T10:49:55Z</time></trkpt><trkpt lat="37.83862107340077" lon="15.233418955403117"><ele>70.0</ele><time>2026-04-12T10:49:56Z</time></trkpt><trkpt lat="37.83858191438472" lon="15.233573478169845"><ele>70.25</ele><time>2026-04-12T10:49:57Z</time></trkpt><trkpt lat="37.83853545542255" lon="15.233729710231273"><ele>70.5</ele><time>2026-04-12T10:49:58Z</time></trkpt><trkpt lat="37.838481023982006" lon="15.23388070703522"><ele>70.75</ele><time>2026-04-12T10:49:59Z</time></trkpt><trkpt lat="37.83843398090656" lon="15.23404098589708"><ele>71.0</ele><time>2026-04-12T10:50:00Z</time></trkpt><trkpt lat="37.83838721951343" lon="15.23419745543899"><ele>68.5</ele><time>2026-04-12T10:50:01Z</time></trkpt><trkpt lat="37.83834457406055" lon="15.234346433198844"><ele>66.0</ele><time>2026-04-12T10:50:02Z</time></trkpt><trkpt lat="37.83830186702953" lon="15.234486006152803"><ele>63.5</ele><time>2026-04-12T10:50:03Z</time></trkpt><trkpt lat="37.838259267320524" lon="15.23461969701544"><ele>61.0</ele><time>2026-04-12T10:50:04Z</time></trkpt><trkpt lat="37.83821662040897" lon="15.234745033787773"><ele>61.199999999999996</ele><time>2026-04-12T10:50:05Z</time></trkpt><trkpt lat="37.838173107257745" lon="15.23486430558659"><ele>61.39999999999999</ele><time>2026-04-12T10:50:06Z</time></trkpt><trkpt lat="37.8381272988249" lon="15.234974012956567"><ele>61.6</ele><time>2026-04-12T10:50:07Z</time></trkpt><trkpt lat="37.83808432759437" lon="15.23508212783697"><ele>61.8</ele><time>2026-04-12T10:50:08Z</time></trkpt><trkpt lat="37.838055922923274" lon="15.235173482870257"><ele>62.0</ele><time>2026-04-12T10:50:09Z</time></trkpt><trkpt lat="37.838032634672544" lon="15.235334039245714"><ele>62.0</ele><time>2026-04-12T10:50:11Z</time></trkpt><trkpt lat="37.83798664303462" lon="15.2355011841818"><ele>62.0</ele><time>2026-04-12T10:50:13Z</time></trkpt><trkpt lat="37.83795576918756" lon="15.235606308347062"><ele>62.0</ele><time>2026-04-12T10:50:14Z</time></trkpt><trkpt lat="37.8379189318464" lon="15.235712985495859"><ele>62.0</ele><time>2026-04-12T10:50:15Z</time></trkpt><trkpt lat="37.83788342195304" lon="15.235819863736907"><ele>62.0</ele><time>2026-04-12T10:50:16Z</time></trkpt><trkpt lat="37.83784896767931" lon="15.235932223072314"><ele>62.400000000000006</ele><time>2026-04-12T10:50:17Z</time></trkpt><trkpt lat="37.83781452537453" lon="15.236051448331171"><ele>62.800000000000004</ele><time>2026-04-12T10:50:18Z</time></trkpt><trkpt lat="37.83778720016981" lon="15.236178648515995"><ele>63.2</ele><time>2026-04-12T10:50:19Z</time></trkpt><trkpt lat="37.837767253907735" lon="15.236312036792574"><ele>63.6</ele><time>2026-04-12T10:50:20Z</time></trkpt><trkpt lat="37.83776607821613" lon="15.236471557642782"><ele>64.0</ele><time>2026-04-12T10:50:21Z</time></trkpt><trkpt lat="37.837791334932014" lon="15.23666314749194"><ele>64.25</ele><time>2026-04-12T10:50:22Z</time></trkpt><trkpt lat="37.83782604344069" lon="15.236865068239247"><ele>64.5</ele><time>2026-04-12T10:50:23Z</time></trkpt><trkpt lat="37.83784850644129" lon="15.237039172278465"><ele>64.75</ele><time>2026-04-12T10:50:24Z</time></trkpt><trkpt lat="37.83787229856516" lon="15.237195257509383"><ele>65.0</ele><time>2026-04-12T10:50:25Z</time></trkpt><trkpt lat="37.837865932510695" lon="15.237364363184001"><ele>65.66666666666667</ele><time>2026-04-12T10:50:26Z</time></trkpt><trkpt lat="37.837854550425895" lon="15.237553318028718"><ele>66.33333333333333</ele><time>2026-04-12T10:50:27Z</time></trkpt><trkpt lat="37.83783462800911" lon="15.237759778937548"><ele>67.0</ele><time>2026-04-12T10:50:28Z</time></trkpt><trkpt lat="37.8377777151042" lon="15.237972949821264"><ele>68.0</ele><time>2026-04-12T10:50:29Z</time></trkpt><trkpt lat="37.83771091167641" lon="15.238203168011585"><ele>69.0</ele><time>2026-04-12T10:50:30Z</time></trkpt><trkpt lat="37.83764616105518" lon="15.238425985428853"><ele>70.0</ele><time>2026-04-12T10:50:31Z</time></trkpt><trkpt lat="37.83758507024264" lon="15.23863674463303"><ele>68.0</ele><time>2026-04-12T10:50:32Z</time></trkpt><trkpt lat="37.83752517793806" lon="15.238848238324385"><ele>66.0</ele><time>2026-04-12T10:50:33Z</time></trkpt><trkpt lat="37.83746830485698" lon="15.239049049492168"><ele>64.0</ele><time>2026-04-12T10:50:34Z</time></trkpt><trkpt lat="37.83740955452679" lon="15.239241742765982"><ele>64.0</ele><time>2026-04-12T10:50:35Z</time></trkpt><trkpt lat="37.83734263918282" lon="15.239418877255291"><ele>64.0</ele><time>2026-04-12T10:50:36Z</time></trkpt><trkpt lat="37.837271685488034" lon="15.239577453539017"><ele>64.0</ele><time>2026-04-12T10:50:37Z</time></trkpt><trkpt lat="37.83719454348058" lon="15.239726970893452"><ele>64.0</ele><time>2026-04-12T10:50:38Z</time></trkpt><trkpt lat="37.837113943346715" lon="15.239890973047075"><ele>65.0</ele><time>2026-04-12T10:50:39Z</time></trkpt><trkpt lat="37.83702985382904" lon="15.240076299642672"><ele>66.0</ele><time>2026-04-12T10:50:40Z</time></trkpt><trkpt lat="37.83694019143908" lon="15.240275243211354"><ele>67.0</ele><time>2026-04-12T10:50:41Z</time></trkpt><trkpt lat="37.83683247604672" lon="15.240466305557435"><ele>65.33333333333333</ele><time>2026-04-12T10:50:42Z</time></trkpt><trkpt lat="37.836726314100304" lon="15.24065172654936"><ele>63.66666666666667</ele><time>2026-04-12T10:50:43Z</time></trkpt><trkpt lat="37.83662874191761" lon="15.24082607187155"><ele>62.0</ele><time>2026-04-12T10:50:44Z</time></trkpt><trkpt lat="37.836534731328285" lon="15.240987487281616"><ele>62.0</ele><time>2026-04-12T10:50:45Z</time></trkpt><trkpt lat="37.836447712239035" lon="15.241129980146424"><ele>62.0</ele><time>2026-04-12T10:50:46Z</time></trkpt><trkpt lat="37.836374385090274" lon="15.241243395071995"><ele>62.0</ele><time>2026-04-12T10:50:47Z</time></trkpt><trkpt lat="37.8363010232413" lon="15.24134888084313"><ele>62.0</ele><time>2026-04-12T10:50:48Z</time></trkpt><trkpt lat="37.836222986392116" lon="15.241460910682717"><ele>61.75</ele><time>2026-04-12T10:50:49Z</time></trkpt><trkpt lat="37.836126098980756" lon="15.24157386844126"><ele>61.5</ele><time>2026-04-12T10:50:50Z</time></trkpt><trkpt lat="37.83602995325103" lon="15.241699393614942"><ele>61.25</ele><time>2026-04-12T10:50:51Z</time></trkpt><trkpt lat="37.83595099453898" lon="15.241856343709241"><ele>61.0</ele><time>2026-04-12T10:50:52Z</time></trkpt><trkpt lat="37.83586375835924" lon="15.241984654261778"><ele>60.599999999999994</ele><time>2026-04-12T10:50:53Z</time></trkpt><trkpt lat="37.83578604859591" lon="15.242104421010248"><ele>60.199999999999996</ele><time>2026-04-12T10:50:54Z</time></trkpt><trkpt lat="37.83571479538108" lon="15.242217520996428"><ele>59.800000000000004</ele><time>2026-04-12T10:50:55Z</time></trkpt><trkpt lat="37.83564629789058" lon="15.242307716450863"><ele>59.400000000000006</ele><time>2026-04-12T10:50:56Z</time></trkpt><trkpt lat="37.83558664056983" lon="15.242396038644788"><ele>59.0</ele><time>2026-04-12T10:50:57Z</time></trkpt><trkpt lat="37.83552682405812" lon="15.242478839983061"><ele>59.0</ele><time>2026-04-12T10:50:58Z</time></trkpt><trkpt lat="37.835462878626316" lon="15.242558803057392"><ele>59.00000000000001</ele><time>2026-04-12T10:50:59Z</time></trkpt><trkpt lat="37.83541208390102" lon="15.24264767253374"><ele>59.00000000000001</ele><time>2026-04-12T10:51:00Z</time></trkpt><trkpt lat="37.835353374560405" lon="15.242731414121382"><ele>59.0</ele><time>2026-04-12T10:51:01Z</time></trkpt><trkpt lat="37.835289523917496" lon="15.242817859253867"><ele>59.0</ele><time>2026-04-12T10:51:02Z</time></trkpt><trkpt lat="37.835229044954275" lon="15.242913005338762"><ele>59.0</ele><time>2026-04-12T10:51:03Z</time></trkpt><trkpt lat="37.8351613937477" lon="15.243010595452798"><ele>59.00000000000001</ele><time>2026-04-12T10:51:04Z</time></trkpt><trkpt lat="37.835092368125075" lon="15.2431132631591"><ele>59.00000000000001</ele><time>2026-04-12T10:51:05Z</time></trkpt><trkpt lat="37.835035674611234" lon="15.243219442516454"><ele>59.0</ele><time>2026-04-12T10:51:06Z</time></trkpt><trkpt lat="37.83497530211627" lon="15.243308446118048"><ele>59.0</ele><time>2026-04-12T10:51:07Z</time></trkpt><trkpt lat="37.83492260579921" lon="15.243387722368624"><ele>58.6</ele><time>2026-04-12T10:51:08Z</time></trkpt><trkpt lat="37.83487575630712" lon="15.243464153483457"><ele>58.2</ele><time>2026-04-12T10:51:09Z</time></trkpt><trkpt lat="37.83483143796333" lon="15.24353596823609"><ele>57.800000000000004</ele><time>2026-04-12T10:51:10Z</time></trkpt><trkpt lat="37.83474783126133" lon="15.243652001845861"><ele>57.400000000000006</ele><time>2026-04-12T10:51:12Z</time></trkpt><trkpt lat="37.83470686540611" lon="15.243715958097788"><ele>57.0</ele><time>2026-04-12T10:51:13Z</time></trkpt><trkpt lat="37.83462900161444" lon="15.243837239224666"><ele>57.2</ele><time>2026-04-12T10:51:15Z</time></trkpt><trkpt lat="37.834556993211145" lon="15.243964146705801"><ele>57.400000000000006</ele><time>2026-04-12T10:51:17Z</time></trkpt><trkpt lat="37.83447762460471" lon="15.244085383325054"><ele>57.599999999999994</ele><time>2026-04-12T10:51:19Z</time></trkpt><trkpt lat="37.834409406387294" lon="15.244190673837652"><ele>57.8</ele><time>2026-04-12T10:51:21Z</time></trkpt><trkpt lat="37.83435896252145" lon="15.244258297890644"><ele>58.0</ele><time>2026-04-12T10:51:22Z</time></trkpt><trkpt lat="37.83429032876555" lon="15.24432913063466"><ele>58.0</ele><time>2026-04-12T10:51:23Z</time></trkpt><trkpt lat="37.83423271933585" lon="15.244386283305815"><ele>58.0</ele><time>2026-04-12T10:51:24Z</time></trkpt><trkpt lat="37.83416703370481" lon="15.244458357773306"><ele>58.0</ele><time>2026-04-12T10:51:26Z</time></trkpt><trkpt lat="37.834125694700795" lon="15.24453906345027"><ele>58.0</ele><time>2026-04-12T10:51:29Z</time></trkpt><trkpt lat="37.83406941011283" lon="15.24465717046088"><ele>58.0</ele><time>2026-04-12T10:51:31Z</time></trkpt><trkpt lat="37.8339770312643" lon="15.244748294103765"><ele>58.599999999999994</ele><time>2026-04-12T10:51:33Z</time></trkpt><trkpt lat="37.83391729416163" lon="15.24487359002301"><ele>59.199999999999996</ele><time>2026-04-12T10:51:35Z</time></trkpt><trkpt lat="37.83385195629262" lon="15.24498929653628"><ele>59.8</ele><time>2026-04-12T10:51:37Z</time></trkpt><trkpt lat="37.833767667243634" lon="15.24511428734002"><ele>60.4</ele><time>2026-04-12T10:51:39Z</time></trkpt><trkpt lat="37.83371041363614" lon="15.245186754475085"><ele>61.0</ele><time>2026-04-12T10:51:40Z</time></trkpt><trkpt lat="37.833643592735655" lon="15.245265680529817"><ele>60.99999999999999</ele><time>2026-04-12T10:51:41Z</time></trkpt><trkpt lat="37.83358606442709" lon="15.245370194802515"><ele>61.0</ele><time>2026-04-12T10:51:42Z</time></trkpt><trkpt lat="37.8335289013363" lon="15.245465416563855"><ele>61.0</ele><time>2026-04-12T10:51:43Z</time></trkpt><trkpt lat="37.83348319133403" lon="15.24554143274422"><ele>61.0</ele><time>2026-04-12T10:51:44Z</time></trkpt><trkpt lat="37.833438152372096" lon="15.245609494703531"><ele>60.99999999999999</ele><time>2026-04-12T10:51:45Z</time></trkpt><trkpt lat="37.8333951211119" lon="15.245674715198847"><ele>61.0</ele><time>2026-04-12T10:51:46Z</time></trkpt><trkpt lat="37.83335681700647" lon="15.245747587530866"><ele>60.99999999999999</ele><time>2026-04-12T10:51:47Z</time></trkpt><trkpt lat="37.83332297262645" lon="15.245822189075502"><ele>61.0</ele><time>2026-04-12T10:51:48Z</time></trkpt><trkpt lat="37.83327361660489" lon="15.2458935808106"><ele>61.0</ele><time>2026-04-12T10:51:49Z</time></trkpt><trkpt lat="37.83322162423463" lon="15.245974645007138"><ele>61.0</ele><time>2026-04-12T10:51:50Z</time></trkpt><trkpt lat="37.833166169617265" lon="15.246056267206798"><ele>60.99999999999999</ele><time>2026-04-12T10:51:51Z</time></trkpt><trkpt lat="37.833104899987475" lon="15.246137758508343"><ele>61.0</ele><time>2026-04-12T10:51:52Z</time></trkpt><trkpt lat="37.833042104913304" lon="15.246231163074048"><ele>61.0</ele><time>2026-04-12T10:51:53Z</time></trkpt><trkpt lat="37.832972328177114" lon="15.246324142619942"><ele>60.99999999999999</ele><time>2026-04-12T10:51:54Z</time></trkpt><trkpt lat="37.83290564052467" lon="15.2464198192298"><ele>60.99999999999999</ele><time>2026-04-12T10:51:55Z</time></trkpt><trkpt lat="37.832838390664115" lon="15.246513895165918"><ele>61.0</ele><time>2026-04-12T10:51:56Z</time></trkpt><trkpt lat="37.83278049958569" lon="15.246620500622427"><ele>61.0</ele><time>2026-04-12T10:51:57Z</time></trkpt><trkpt lat="37.832711105857484" lon="15.246727022192001"><ele>61.199999999999996</ele><time>2026-04-12T10:51:58Z</time></trkpt><trkpt lat="37.832639920301375" lon="15.246835351089333"><ele>61.39999999999999</ele><time>2026-04-12T10:51:59Z</time></trkpt><trkpt lat="37.832572163123416" lon="15.246928652209148"><ele>61.6</ele><time>2026-04-12T10:52:00Z</time></trkpt><trkpt lat="37.83251126085899" lon="15.247022333898055"><ele>61.8</ele><time>2026-04-12T10:52:01Z</time></trkpt><trkpt lat="37.8324456449667" lon="15.247120892797648"><ele>62.0</ele><time>2026-04-12T10:52:02Z</time></trkpt><trkpt lat="37.83237938650026" lon="15.247214791379283"><ele>62.2</ele><time>2026-04-12T10:52:03Z</time></trkpt><trkpt lat="37.83231417056272" lon="15.247312572912637"><ele>62.400000000000006</ele><time>2026-04-12T10:52:04Z</time></trkpt><trkpt lat="37.832253991049235" lon="15.247421151536868"><ele>62.599999999999994</ele><time>2026-04-12T10:52:05Z</time></trkpt><trkpt lat="37.832184472740934" lon="15.247526242122369"><ele>62.8</ele><time>2026-04-12T10:52:06Z</time></trkpt><trkpt lat="37.83211399430934" lon="15.247633116941365"><ele>63.0</ele><time>2026-04-12T10:52:07Z</time></trkpt><trkpt lat="37.83204283718834" lon="15.247742305065369"><ele>63.0</ele><time>2026-04-12T10:52:08Z</time></trkpt><trkpt lat="37.83197261390834" lon="15.247851409824074"><ele>63.0</ele><time>2026-04-12T10:52:09Z</time></trkpt><trkpt lat="37.8319079963944" lon="15.247952481745045"><ele>63.0</ele><time>2026-04-12T10:52:10Z</time></trkpt><trkpt lat="37.83183908352738" lon="15.248058002112204"><ele>63.0</ele><time>2026-04-12T10:52:11Z</time></trkpt><trkpt lat="37.83176830649465" lon="15.248174550449779"><ele>63.0</ele><time>2026-04-12T10:52:12Z</time></trkpt><trkpt lat="37.831692981296726" lon="15.24829627943358"><ele>62.25</ele><time>2026-04-12T10:52:13Z</time></trkpt><trkpt lat="37.83161265405955" lon="15.248420521403085"><ele>61.5</ele><time>2026-04-12T10:52:14Z</time></trkpt><trkpt lat="37.831534361140996" lon="15.248551733250872"><ele>60.75</ele><time>2026-04-12T10:52:15Z</time></trkpt><trkpt lat="37.83145657571766" lon="15.248684876002587"><ele>60.0</ele><time>2026-04-12T10:52:16Z</time></trkpt><trkpt lat="37.83139007804136" lon="15.248801884365761"><ele>60.0</ele><time>2026-04-12T10:52:17Z</time></trkpt><trkpt lat="37.83132674925655" lon="15.248911795428228"><ele>60.0</ele><time>2026-04-12T10:52:18Z</time></trkpt><trkpt lat="37.83126867641471" lon="15.249023385565815"><ele>60.0</ele><time>2026-04-12T10:52:19Z</time></trkpt><trkpt lat="37.83121385331004" lon="15.249124993120187"><ele>60.0</ele><time>2026-04-12T10:52:20Z</time></trkpt><trkpt lat="37.83115613072163" lon="15.249227429671905"><ele>60.0</ele><time>2026-04-12T10:52:21Z</time></trkpt><trkpt lat="37.83109714004186" lon="15.249333922536193"><ele>58.8</ele><time>2026-04-12T10:52:22Z</time></trkpt><trkpt lat="37.83104035716459" lon="15.249441175045272"><ele>57.6</ele><time>2026-04-12T10:52:23Z</time></trkpt><trkpt lat="37.830980223774176" lon="15.249550496922533"><ele>56.400000000000006</ele><time>2026-04-12T10:52:24Z</time></trkpt><trkpt lat="37.830919769400005" lon="15.249659185505664"><ele>55.2</ele><time>2026-04-12T10:52:25Z</time></trkpt><trkpt lat="37.830855651276636" lon="15.249768528310375"><ele>54.0</ele><time>2026-04-12T10:52:26Z</time></trkpt><trkpt lat="37.83080129985123" lon="15.249880581852084"><ele>53.400000000000006</ele><time>2026-04-12T10:52:27Z</time></trkpt><trkpt lat="37.830741376352705" lon="15.249979277361408"><ele>52.800000000000004</ele><time>2026-04-12T10:52:28Z</time></trkpt><trkpt lat="37.83068599455557" lon="15.25007940378961"><ele>52.2</ele><time>2026-04-12T10:52:29Z</time></trkpt><trkpt lat="37.83062599785108" lon="15.250172859581014"><ele>51.599999999999994</ele><time>2026-04-12T10:52:30Z</time></trkpt><trkpt lat="37.830578447462756" lon="15.250261194843313"><ele>51.0</ele><time>2026-04-12T10:52:31Z</time></trkpt><trkpt lat="37.83053460886543" lon="15.25033885583851"><ele>51.0</ele><time>2026-04-12T10:52:32Z</time></trkpt><trkpt lat="37.830492955723514" lon="15.250409359655347"><ele>51.0</ele><time>2026-04-12T10:52:33Z</time></trkpt><trkpt lat="37.830449540147754" lon="15.250475262767104"><ele>51.0</ele><time>2026-04-12T10:52:34Z</time></trkpt><trkpt lat="37.8304060252133" lon="15.250533009711997"><ele>51.0</ele><time>2026-04-12T10:52:35Z</time></trkpt><trkpt lat="37.8303697906174" lon="15.250603154490557"><ele>51.0</ele><time>2026-04-12T10:52:36Z</time></trkpt><trkpt lat="37.83032704547634" lon="15.250673894476284"><ele>51.0</ele><time>2026-04-12T10:52:37Z</time></trkpt><trkpt lat="37.830284979179204" lon="15.250750701674445"><ele>51.0</ele><time>2026-04-12T10:52:38Z</time></trkpt><trkpt lat="37.83023944249238" lon="15.250822348234665"><ele>51.0</ele><time>2026-04-12T10:52:39Z</time></trkpt><trkpt lat="37.830200438309404" lon="15.25089499954854"><ele>51.0</ele><time>2026-04-12T10:52:40Z</time></trkpt><trkpt lat="37.83016455002602" lon="15.250974858847918"><ele>51.0</ele><time>2026-04-12T10:52:41Z</time></trkpt><trkpt lat="37.830116512666805" lon="15.251062227112557"><ele>51.0</ele><time>2026-04-12T10:52:42Z</time></trkpt><trkpt lat="37.83006174879133" lon="15.251147487650515"><ele>51.0</ele><time>2026-04-12T10:52:43Z</time></trkpt><trkpt lat="37.83000550161494" lon="15.251237921826943"><ele>51.0</ele><time>2026-04-12T10:52:44Z</time></trkpt><trkpt lat="37.82995447445842" lon="15.251330924840483"><ele>50.333333333333336</ele><time>2026-04-12T10:52:45Z</time></trkpt><trkpt lat="37.82990605567534" lon="15.251426268745789"><ele>49.666666666666664</ele><time>2026-04-12T10:52:46Z</time></trkpt><trkpt lat="37.82986411622242" lon="15.251508639747572"><ele>49.0</ele><time>2026-04-12T10:52:47Z</time></trkpt><trkpt lat="37.829822820973945" lon="15.251574587001853"><ele>48.33333333333333</ele><time>2026-04-12T10:52:48Z</time></trkpt><trkpt lat="37.82976464357169" lon="15.25168723227673"><ele>47.666666666666664</ele><time>2026-04-12T10:52:50Z</time></trkpt><trkpt lat="37.82970724746628" lon="15.251799016689914"><ele>47.0</ele><time>2026-04-12T10:52:52Z</time></trkpt><trkpt lat="37.829629472100436" lon="15.251938361073815"><ele>47.0</ele><time>2026-04-12T10:52:54Z</time></trkpt><trkpt lat="37.829585393221045" lon="15.252020938235027"><ele>47.0</ele><time>2026-04-12T10:52:55Z</time></trkpt><trkpt lat="37.829533528482465" lon="15.252106098297466"><ele>47.0</ele><time>2026-04-12T10:52:56Z</time></trkpt><trkpt lat="37.82947859510608" lon="15.252199688418315"><ele>47.0</ele><time>2026-04-12T10:52:57Z</time></trkpt><trkpt lat="37.82941586845371" lon="15.25229476246668"><ele>47.0</ele><time>2026-04-12T10:52:58Z</time></trkpt><trkpt lat="37.829364153991804" lon="15.252393294767176"><ele>47.0</ele><time>2026-04-12T10:52:59Z</time></trkpt><trkpt lat="37.829315115976115" lon="15.252489493786015"><ele>46.8</ele><time>2026-04-12T10:53:00Z</time></trkpt><trkpt lat="37.82926436262334" lon="15.252584748662466"><ele>46.6</ele><time>2026-04-12T10:53:01Z</time></trkpt><trkpt lat="37.82921039825145" lon="15.25267802384424"><ele>46.4</ele><time>2026-04-12T10:53:02Z</time></trkpt><trkpt lat="37.82915501729976" lon="15.252773783440405"><ele>46.199999999999996</ele><time>2026-04-12T10:53:03Z</time></trkpt><trkpt lat="37.82909822950626" lon="15.252875229368525"><ele>46.0</ele><time>2026-04-12T10:53:04Z</time></trkpt><trkpt lat="37.8290374291417" lon="15.252975742093435"><ele>46.0</ele><time>2026-04-12T10:53:05Z</time></trkpt><trkpt lat="37.82898518679687" lon="15.253067766583458"><ele>46.0</ele><time>2026-04-12T10:53:06Z</time></trkpt><trkpt lat="37.828935830100384" lon="15.253158405361923"><ele>46.0</ele><time>2026-04-12T10:53:07Z</time></trkpt><trkpt lat="37.828889930891776" lon="15.253239583809773"><ele>46.0</ele><time>2026-04-12T10:53:08Z</time></trkpt><trkpt lat="37.8288475663694" lon="15.253313721446283"><ele>46.0</ele><time>2026-04-12T10:53:09Z</time></trkpt><trkpt lat="37.828811774288944" lon="15.253390648074024"><ele>46.0</ele><time>2026-04-12T10:53:10Z</time></trkpt><trkpt lat="37.82877242569314" lon="15.253474453503236"><ele>45.5</ele><time>2026-04-12T10:53:11Z</time></trkpt><trkpt lat="37.82873539392792" lon="15.253558733047765"><ele>45.0</ele><time>2026-04-12T10:53:12Z</time></trkpt><trkpt lat="37.82868259676498" lon="15.25362829234068"><ele>44.5</ele><time>2026-04-12T10:53:13Z</time></trkpt><trkpt lat="37.828635044099705" lon="15.253712050677391"><ele>44.0</ele><time>2026-04-12T10:53:14Z</time></trkpt><trkpt lat="37.82858833465776" lon="15.25379467249727"><ele>43.5</ele><time>2026-04-12T10:53:15Z</time></trkpt><trkpt lat="37.82854230911827" lon="15.25387566031345"><ele>43.0</ele><time>2026-04-12T10:53:16Z</time></trkpt><trkpt lat="37.828495309318214" lon="15.253955550102493"><ele>43.00000000000001</ele><time>2026-04-12T10:53:17Z</time></trkpt><trkpt lat="37.82845243300864" lon="15.254029689683302"><ele>43.0</ele><time>2026-04-12T10:53:18Z</time></trkpt><trkpt lat="37.82840687792723" lon="15.25410363566955"><ele>43.0</ele><time>2026-04-12T10:53:19Z</time></trkpt><trkpt lat="37.82836318111414" lon="15.254185234424838"><ele>43.0</ele><time>2026-04-12T10:53:20Z</time></trkpt><trkpt lat="37.828317751294186" lon="15.25425835729184"><ele>43.0</ele><time>2026-04-12T10:53:21Z</time></trkpt><trkpt lat="37.82827376342771" lon="15.254326099496659"><ele>43.00000000000001</ele><time>2026-04-12T10:53:22Z</time></trkpt><trkpt lat="37.8282307396164" lon="15.254403352259082"><ele>43.0</ele><time>2026-04-12T10:53:23Z</time></trkpt><trkpt lat="37.82819204064645" lon="15.254476784106329"><ele>43.0</ele><time>2026-04-12T10:53:24Z</time></trkpt><trkpt lat="37.8281463892075" lon="15.254551665276754"><ele>43.0</ele><time>2026-04-12T10:53:25Z</time></trkpt><trkpt lat="37.82809775601517" lon="15.254633783823294"><ele>43.0</ele><time>2026-04-12T10:53:26Z</time></trkpt><trkpt lat="37.82805354640618" lon="15.254722989398214"><ele>43.0</ele><time>2026-04-12T10:53:27Z</time></trkpt><trkpt lat="37.82800395002115" lon="15.254805771292409"><ele>43.0</ele><time>2026-04-12T10:53:28Z</time></trkpt><trkpt lat="37.827956840637896" lon="15.254885554589134"><ele>43.0</ele><time>2026-04-12T10:53:29Z</time></trkpt><trkpt lat="37.82791183697714" lon="15.254969619378656"><ele>42.5</ele><time>2026-04-12T10:53:30Z</time></trkpt><trkpt lat="37.82786416451562" lon="15.255052238401616"><ele>42.0</ele><time>2026-04-12T10:53:31Z</time></trkpt><trkpt lat="37.82781625843106" lon="15.255135137528548"><ele>41.5</ele><time>2026-04-12T10:53:32Z</time></trkpt><trkpt lat="37.827769280826445" lon="15.255218885178671"><ele>41.0</ele><time>2026-04-12T10:53:33Z</time></trkpt><trkpt lat="37.827718676643244" lon="15.255300067614467"><ele>40.5</ele><time>2026-04-12T10:53:34Z</time></trkpt><trkpt lat="37.827674577081176" lon="15.255390303041311"><ele>40.0</ele><time>2026-04-12T10:53:35Z</time></trkpt><trkpt lat="37.827623783216616" lon="15.255481266579736"><ele>39.66666666666667</ele><time>2026-04-12T10:53:36Z</time></trkpt><trkpt lat="37.82757765429523" lon="15.255572652595458"><ele>39.333333333333336</ele><time>2026-04-12T10:53:37Z</time></trkpt><trkpt lat="37.82752669670426" lon="15.2556642329408"><ele>39.0</ele><time>2026-04-12T10:53:38Z</time></trkpt><trkpt lat="37.82747612651968" lon="15.255753191310255"><ele>38.666666666666664</ele><time>2026-04-12T10:53:39Z</time></trkpt><trkpt lat="37.82742568979024" lon="15.255846126672827"><ele>38.33333333333333</ele><time>2026-04-12T10:53:40Z</time></trkpt><trkpt lat="37.82737766509811" lon="15.255926789043992"><ele>38.0</ele><time>2026-04-12T10:53:41Z</time></trkpt><trkpt lat="37.827324762496175" lon="15.255999142797155"><ele>38.0</ele><time>2026-04-12T10:53:42Z</time></trkpt><trkpt lat="37.82727901176066" lon="15.256078886786302"><ele>38.0</ele><time>2026-04-12T10:53:43Z</time></trkpt><trkpt lat="37.82723001091308" lon="15.256163567965102"><ele>38.0</ele><time>2026-04-12T10:53:44Z</time></trkpt><trkpt lat="37.82717911415497" lon="15.256245362107654"><ele>38.0</ele><time>2026-04-12T10:53:45Z</time></trkpt><trkpt lat="37.827133811972594" lon="15.256334802211107"><ele>38.0</ele><time>2026-04-12T10:53:46Z</time></trkpt><trkpt lat="37.82708446775402" lon="15.256425730654996"><ele>38.0</ele><time>2026-04-12T10:53:47Z</time></trkpt><trkpt lat="37.827029338523" lon="15.256515720971459"><ele>37.6</ele><time>2026-04-12T10:53:48Z</time></trkpt><trkpt lat="37.82697490476041" lon="15.256613803607358"><ele>37.199999999999996</ele><time>2026-04-12T10:53:49Z</time></trkpt><trkpt lat="37.82691950831353" lon="15.256709253531213"><ele>36.8</ele><time>2026-04-12T10:53:50Z</time></trkpt><trkpt lat="37.82686364058231" lon="15.256808263331878"><ele>36.4</ele><time>2026-04-12T10:53:51Z</time></trkpt><trkpt lat="37.82680860495346" lon="15.256915098175693"><ele>36.0</ele><time>2026-04-12T10:53:52Z</time></trkpt><trkpt lat="37.826755433436034" lon="15.257031962785554"><ele>36.0</ele><time>2026-04-12T10:53:53Z</time></trkpt><trkpt lat="37.82669457791135" lon="15.257155878809785"><ele>36.0</ele><time>2026-04-12T10:53:54Z</time></trkpt><trkpt lat="37.82664012237198" lon="15.257309643655002"><ele>36.0</ele><time>2026-04-12T10:53:55Z</time></trkpt><trkpt lat="37.826595118945264" lon="15.257488876873976"><ele>36.0</ele><time>2026-04-12T10:53:56Z</time></trkpt><trkpt lat="37.826560426143665" lon="15.257688610756391"><ele>35.666666666666664</ele><time>2026-04-12T10:53:57Z</time></trkpt><trkpt lat="37.826538213497365" lon="15.257903519422324"><ele>35.33333333333333</ele><time>2026-04-12T10:53:58Z</time></trkpt><trkpt lat="37.8265312954087" lon="15.25810901291737"><ele>35.0</ele><time>2026-04-12T10:53:59Z</time></trkpt><trkpt lat="37.82652530521087" lon="15.25829845837799"><ele>34.75</ele><time>2026-04-12T10:54:00Z</time></trkpt><trkpt lat="37.8265302310509" lon="15.258466805206496"><ele>34.5</ele><time>2026-04-12T10:54:01Z</time></trkpt><trkpt lat="37.82654750897251" lon="15.258631294033554"><ele>34.25</ele><time>2026-04-12T10:54:02Z</time></trkpt><trkpt lat="37.826578916748026" lon="15.258789456258485"><ele>34.0</ele><time>2026-04-12T10:54:03Z</time></trkpt><trkpt lat="37.82661753513577" lon="15.258960188460913"><ele>33.75</ele><time>2026-04-12T10:54:04Z</time></trkpt><trkpt lat="37.82666228141281" lon="15.259134814336823"><ele>33.5</ele><time>2026-04-12T10:54:05Z</time></trkpt><trkpt lat="37.82671460461847" lon="15.259306364522205"><ele>33.25</ele><time>2026-04-12T10:54:06Z</time></trkpt><trkpt lat="37.82677238673065" lon="15.259465828941334"><ele>33.0</ele><time>2026-04-12T10:54:07Z</time></trkpt><trkpt lat="37.82682302350922" lon="15.259609126135546"><ele>33.0</ele><time>2026-04-12T10:54:08Z</time></trkpt><trkpt lat="37.82687271991994" lon="15.259752611430454"><ele>33.0</ele><time>2026-04-12T10:54:09Z</time></trkpt><trkpt lat="37.82692160921721" lon="15.259891870973975"><ele>33.0</ele><time>2026-04-12T10:54:10Z</time></trkpt><trkpt lat="37.82696675198558" lon="15.26002957557727"><ele>33.0</ele><time>2026-04-12T10:54:11Z</time></trkpt><trkpt lat="37.82700216857047" lon="15.26015562103872"><ele>33.0</ele><time>2026-04-12T10:54:12Z</time></trkpt><trkpt lat="37.82702298807397" lon="15.260289893338305"><ele>33.0</ele><time>2026-04-12T10:54:13Z</time></trkpt><trkpt lat="37.82702933470513" lon="15.260436287715853"><ele>33.0</ele><time>2026-04-12T10:54:14Z</time></trkpt><trkpt lat="37.82702503283144" lon="15.260583800183232"><ele>33.0</ele><time>2026-04-12T10:54:15Z</time></trkpt><trkpt lat="37.82701145793726" lon="15.26072596831078"><ele>33.0</ele><time>2026-04-12T10:54:16Z</time></trkpt><trkpt lat="37.82698603879606" lon="15.260853939040132"><ele>33.0</ele><time>2026-04-12T10:54:17Z</time></trkpt><trkpt lat="37.826944180278865" lon="15.26097093746318"><ele>33.0</ele><time>2026-04-12T10:54:18Z</time></trkpt><trkpt lat="37.826882701653396" lon="15.261063965122805"><ele>33.0</ele><time>2026-04-12T10:54:19Z</time></trkpt><trkpt lat="37.826799489582285" lon="15.261123034035522"><ele>33.0</ele><time>2026-04-12T10:54:20Z</time></trkpt><trkpt lat="37.82669436201188" lon="15.261129030777642"><ele>33.0</ele><time>2026-04-12T10:54:21Z</time></trkpt><trkpt lat="37.826593927465346" lon="15.261078845132415"><ele>33.0</ele><time>2026-04-12T10:54:22Z</time></trkpt><trkpt lat="37.82651227960569" lon="15.260996436297393"><ele>33.0</ele><time>2026-04-12T10:54:23Z</time></trkpt><trkpt lat="37.82647355982833" lon="15.260881717804644"><ele>33.0</ele><time>2026-04-12T10:54:24Z</time></trkpt><trkpt lat="37.82642490159607" lon="15.260772442133261"><ele>33.0</ele><time>2026-04-12T10:54:25Z</time></trkpt><trkpt lat="37.82646643435089" lon="15.26060852708505"><ele>33.0</ele><time>2026-04-12T10:54:26Z</time></trkpt><trkpt lat="37.82648804791097" lon="15.26045943122039"><ele>33.0</ele><time>2026-04-12T10:54:27Z</time></trkpt><trkpt lat="37.82652584961495" lon="15.260315430161281"><ele>33.0</ele><time>2026-04-12T10:54:28Z</time></trkpt><trkpt lat="37.826579840469066" lon="15.260184396021321"><ele>33.0</ele><time>2026-04-12T10:54:29Z</time></trkpt><trkpt lat="37.82665061120246" lon="15.260063572646454"><ele>33.0</ele><time>2026-04-12T10:54:30Z</time></trkpt><trkpt lat="37.82672385114796" lon="15.259951050286721"><ele>33.0</ele><time>2026-04-12T10:54:31Z</time></trkpt><trkpt lat="37.82679742575957" lon="15.259862762783234"><ele>33.0</ele><time>2026-04-12T10:54:32Z</time></trkpt><trkpt lat="37.82687788543721" lon="15.259791101858815"><ele>33.0</ele><time>2026-04-12T10:54:33Z</time></trkpt><trkpt lat="37.82696111307541" lon="15.259755248966215"><ele>33.0</ele><time>2026-04-12T10:54:34Z</time></trkpt><trkpt lat="37.82704329153886" lon="15.259765536573363"><ele>33.0</ele><time>2026-04-12T10:54:35Z</time></trkpt><trkpt lat="37.82710620176354" lon="15.259830040086992"><ele>33.0</ele><time>2026-04-12T10:54:36Z</time></trkpt><trkpt lat="37.82713378543917" lon="15.2599133000613"><ele>33.0</ele><time>2026-04-12T10:54:37Z</time></trkpt><trkpt lat="37.82713971208795" lon="15.260009308531297"><ele>33.0</ele><time>2026-04-12T10:54:38Z</time></trkpt><trkpt lat="37.82715889057675" lon="15.26009755970554"><ele>33.0</ele><time>2026-04-12T10:54:39Z</time></trkpt><trkpt lat="37.827193837601016" lon="15.260198908618074"><ele>33.0</ele><time>2026-04-12T10:54:40Z</time></trkpt><trkpt lat="37.827216266195535" lon="15.260321842514951"><ele>33.0</ele><time>2026-04-12T10:54:41Z</time></trkpt><trkpt lat="37.827216266195485" lon="15.260435349959717"><ele>33.0</ele><time>2026-04-12T10:54:42Z</time></trkpt><trkpt lat="37.82721927382633" lon="15.26052443405337"><ele>33.0</ele><time>2026-04-12T10:54:43Z</time></trkpt><trkpt lat="37.8272382156045" lon="15.260609924076826"><ele>33.0</ele><time>2026-04-12T10:54:44Z</time></trkpt><trkpt lat="37.82731115580396" lon="15.260651184772044"><ele>33.0</ele><time>2026-04-12T10:54:45Z</time></trkpt><trkpt lat="37.827394643097236" lon="15.260632597989524"><ele>33.0</ele><time>2026-04-12T10:54:46Z</time></trkpt><trkpt lat="37.82749449483104" lon="15.26059099645841"><ele>33.0</ele><time>2026-04-12T10:54:47Z</time></trkpt><trkpt lat="37.82758102456107" lon="15.260472905279487"><ele>33.0</ele><time>2026-04-12T10:54:48Z</time></trkpt><trkpt lat="37.827685275972236" lon="15.260367551073065"><ele>33.0</ele><time>2026-04-12T10:54:49Z</time></trkpt><trkpt lat="37.82779880064296" lon="15.260228353341276"><ele>33.0</ele><time>2026-04-12T10:54:50Z</time></trkpt><trkpt lat="37.82790162150473" lon="15.260109028888957"><ele>33.4</ele><time>2026-04-12T10:54:51Z</time></trkpt><trkpt lat="37.827995071049166" lon="15.260003272733691"><ele>33.8</ele><time>2026-04-12T10:54:52Z</time></trkpt><trkpt lat="37.8280647918154" lon="15.25988664305235"><ele>34.2</ele><time>2026-04-12T10:54:53Z</time></trkpt><trkpt lat="37.82812561355166" lon="15.2598090027544"><ele>34.6</ele><time>2026-04-12T10:54:54Z</time></trkpt><trkpt lat="37.82817278159539" lon="15.259748791790502"><ele>35.0</ele><time>2026-04-12T10:54:55Z</time></trkpt><trkpt lat="37.82822225594867" lon="15.259685806347468"><ele>35.0</ele><time>2026-04-12T10:54:57Z</time></trkpt><trkpt lat="37.82830811867874" lon="15.259630248749085"><ele>35.0</ele><time>2026-04-12T10:55:53Z</time></trkpt><trkpt lat="37.82835606902817" lon="15.259578320645327"><ele>35.0</ele><time>2026-04-12T10:55:54Z</time></trkpt><trkpt lat="37.82840776734899" lon="15.259528859992827"><ele>35.0</ele><time>2026-04-12T10:55:55Z</time></trkpt><trkpt lat="37.82843768945022" lon="15.25944245064753"><ele>35.0</ele><time>2026-04-12T10:55:56Z</time></trkpt><trkpt lat="37.828486594886265" lon="15.259389821432139"><ele>35.0</ele><time>2026-04-12T10:55:57Z</time></trkpt><trkpt lat="37.82853817953814" lon="15.259333862779181"><ele>35.0</ele><time>2026-04-12T10:55:58Z</time></trkpt><trkpt lat="37.82858552535106" lon="15.259280640130852"><ele>35.83333333333333</ele><time>2026-04-12T10:55:59Z</time></trkpt><trkpt lat="37.82863670998756" lon="15.259216578586233"><ele>36.666666666666664</ele><time>2026-04-12T10:56:00Z</time></trkpt><trkpt lat="37.828687751071044" lon="15.25915259480622"><ele>37.5</ele><time>2026-04-12T10:56:01Z</time></trkpt><trkpt lat="37.828735994823234" lon="15.259086783168302"><ele>38.333333333333336</ele><time>2026-04-12T10:56:02Z</time></trkpt><trkpt lat="37.82878663709022" lon="15.259014672427334"><ele>39.16666666666667</ele><time>2026-04-12T10:56:03Z</time></trkpt><trkpt lat="37.828837200620576" lon="15.25893772441555"><ele>40.0</ele><time>2026-04-12T10:56:04Z</time></trkpt><trkpt lat="37.82888575001976" lon="15.258855067598416"><ele>40.0</ele><time>2026-04-12T10:56:05Z</time></trkpt><trkpt lat="37.82893921829663" lon="15.258774652749873"><ele>40.0</ele><time>2026-04-12T10:56:06Z</time></trkpt><trkpt lat="37.82897703878254" lon="15.258677137009308"><ele>40.0</ele><time>2026-04-12T10:56:07Z</time></trkpt><trkpt lat="37.829023046892914" lon="15.258583076296752"><ele>40.0</ele><time>2026-04-12T10:56:08Z</time></trkpt><trkpt lat="37.82908061005837" lon="15.25850059404138"><ele>40.0</ele><time>2026-04-12T10:56:09Z</time></trkpt><trkpt lat="37.82912568570533" lon="15.258408121130996"><ele>40.0</ele><time>2026-04-12T10:56:10Z</time></trkpt><trkpt lat="37.82918457865352" lon="15.258315469058115"><ele>40.0</ele><time>2026-04-12T10:56:11Z</time></trkpt><trkpt lat="37.829252749193884" lon="15.25823578463974"><ele>40.0</ele><time>2026-04-12T10:56:12Z</time></trkpt><trkpt lat="37.829309692316436" lon="15.258143711219516"><ele>40.0</ele><time>2026-04-12T10:56:13Z</time></trkpt><trkpt lat="37.82937370364861" lon="15.258063436131511"><ele>40.0</ele><time>2026-04-12T10:56:14Z</time></trkpt><trkpt lat="37.82943005642173" lon="15.25797859203887"><ele>40.0</ele><time>2026-04-12T10:56:15Z</time></trkpt><trkpt lat="37.82949281634331" lon="15.257898062994716"><ele>40.5</ele><time>2026-04-12T10:56:16Z</time></trkpt><trkpt lat="37.8295784972311" lon="15.257817828693591"><ele>41.0</ele><time>2026-04-12T10:56:17Z</time></trkpt><trkpt lat="37.829655817423294" lon="15.257690965667441"><ele>41.5</ele><time>2026-04-12T10:56:18Z</time></trkpt><trkpt lat="37.82978366793691" lon="15.25755236443093"><ele>42.0</ele><time>2026-04-12T10:56:19Z</time></trkpt><trkpt lat="37.829920911893986" lon="15.257374802687812"><ele>42.0</ele><time>2026-04-12T10:56:20Z</time></trkpt><trkpt lat="37.83008371917545" lon="15.257154457634144"><ele>42.0</ele><time>2026-04-12T10:56:21Z</time></trkpt><trkpt lat="37.830281157836126" lon="15.256916324679146"><ele>43.5</ele><time>2026-04-12T10:56:22Z</time></trkpt><trkpt lat="37.83045708404018" lon="15.256691261134598"><ele>45.0</ele><time>2026-04-12T10:56:23Z</time></trkpt><trkpt lat="37.83064772330291" lon="15.256499883259416"><ele>46.0</ele><time>2026-04-12T10:56:24Z</time></trkpt><trkpt lat="37.8308414977816" lon="15.256320290188611"><ele>47.0</ele><time>2026-04-12T10:56:25Z</time></trkpt><trkpt lat="37.83103739744424" lon="15.256141220397849"><ele>47.5</ele><time>2026-04-12T10:56:26Z</time></trkpt><trkpt lat="37.83122881483002" lon="15.255967698159774"><ele>48.0</ele><time>2026-04-12T10:56:27Z</time></trkpt><trkpt lat="37.831460642215376" lon="15.255895859270685"><ele>48.0</ele><time>2026-04-12T10:56:28Z</time></trkpt><trkpt lat="37.831641634291614" lon="15.255744447142824"><ele>48.0</ele><time>2026-04-12T10:56:29Z</time></trkpt><trkpt lat="37.83180740355481" lon="15.255595666944151"><ele>48.0</ele><time>2026-04-12T10:56:30Z</time></trkpt><trkpt lat="37.83197051981913" lon="15.255450888460093"><ele>50.0</ele><time>2026-04-12T10:56:31Z</time></trkpt><trkpt lat="37.83212198927658" lon="15.25532283661117"><ele>52.0</ele><time>2026-04-12T10:56:32Z</time></trkpt><trkpt lat="37.83226475284621" lon="15.255215576337452"><ele>54.0</ele><time>2026-04-12T10:56:33Z</time></trkpt><trkpt lat="37.83241149668169" lon="15.255143296440748"><ele>54.0</ele><time>2026-04-12T10:56:34Z</time></trkpt><trkpt lat="37.83257224097473" lon="15.255125327657394"><ele>54.0</ele><time>2026-04-12T10:56:35Z</time></trkpt><trkpt lat="37.83274220009781" lon="15.255154159904444"><ele>54.0</ele><time>2026-04-12T10:56:36Z</time></trkpt><trkpt lat="37.832908296621945" lon="15.255220096961281"><ele>54.66666666666667</ele><time>2026-04-12T10:56:37Z</time></trkpt><trkpt lat="37.83308488719158" lon="15.255327210444479"><ele>55.333333333333336</ele><time>2026-04-12T10:56:38Z</time></trkpt><trkpt lat="37.8332669480646" lon="15.255476410569374"><ele>56.0</ele><time>2026-04-12T10:56:39Z</time></trkpt><trkpt lat="37.83345572487219" lon="15.255653862177637"><ele>55.0</ele><time>2026-04-12T10:56:40Z</time></trkpt><trkpt lat="37.8336527299011" lon="15.255854590516691"><ele>54.0</ele><time>2026-04-12T10:56:41Z</time></trkpt><trkpt lat="37.833872205710314" lon="15.256076240907047"><ele>54.0</ele><time>2026-04-12T10:56:42Z</time></trkpt><trkpt lat="37.834120581955986" lon="15.256332327932252"><ele>54.0</ele><time>2026-04-12T10:56:43Z</time></trkpt><trkpt lat="37.83437924532629" lon="15.256610178741504"><ele>55.0</ele><time>2026-04-12T10:56:44Z</time></trkpt><trkpt lat="37.834650766436965" lon="15.256904934713692"><ele>56.0</ele><time>2026-04-12T10:56:45Z</time></trkpt><trkpt lat="37.83494024184482" lon="15.257205810528541"><ele>56.5</ele><time>2026-04-12T10:56:46Z</time></trkpt><trkpt lat="37.83524042385009" lon="15.25750865432741"><ele>57.0</ele><time>2026-04-12T10:56:47Z</time></trkpt><trkpt lat="37.835558719546796" lon="15.257808143704631"><ele>57.0</ele><time>2026-04-12T10:56:48Z</time></trkpt><trkpt lat="37.835890782831875" lon="15.25809623871403"><ele>57.0</ele><time>2026-04-12T10:56:49Z</time></trkpt><trkpt lat="37.83621929605657" lon="15.258363053595804"><ele>54.5</ele><time>2026-04-12T10:56:50Z</time></trkpt><trkpt lat="37.83654770106555" lon="15.258608792295222"><ele>52.0</ele><time>2026-04-12T10:56:51Z</time></trkpt><trkpt lat="37.836869542277896" lon="15.258849020716271"><ele>58.5</ele><time>2026-04-12T10:56:52Z</time></trkpt><trkpt lat="37.83717065284759" lon="15.25909114430622"><ele>65.0</ele><time>2026-04-12T10:56:53Z</time></trkpt><trkpt lat="37.83746273585872" lon="15.259341909654154"><ele>67.5</ele><time>2026-04-12T10:56:54Z</time></trkpt><trkpt lat="37.83773440072649" lon="15.259614290221727"><ele>70.0</ele><time>2026-04-12T10:56:55Z</time></trkpt><trkpt lat="37.83798305480724" lon="15.259909424624503"><ele>70.0</ele><time>2026-04-12T10:56:56Z</time></trkpt><trkpt lat="37.83821975313004" lon="15.26022107678999"><ele>70.0</ele><time>2026-04-12T10:56:57Z</time></trkpt><trkpt lat="37.83843577929748" lon="15.260552057550457"><ele>70.0</ele><time>2026-04-12T10:56:58Z</time></trkpt><trkpt lat="37.83866046505263" lon="15.260869885992003"><ele>70.0</ele><time>2026-04-12T10:56:59Z</time></trkpt><trkpt lat="37.838808766194894" lon="15.261276092277324"><ele>66.0</ele><time>2026-04-12T10:57:00Z</time></trkpt><trkpt lat="37.838963322881106" lon="15.261668703148477"><ele>62.0</ele><time>2026-04-12T10:57:01Z</time></trkpt><trkpt lat="37.83909983568705" lon="15.262076016232802"><ele>60.5</ele><time>2026-04-12T10:57:02Z</time></trkpt><trkpt lat="37.83921619160262" lon="15.262499155210662"><ele>59.0</ele><time>2026-04-12T10:57:03Z</time></trkpt><trkpt lat="37.83930082172453" lon="15.262934875496093"><ele>77.0</ele><time>2026-04-12T10:57:04Z</time></trkpt><trkpt lat="37.83936067740587" lon="15.263382758610419"><ele>95.0</ele><time>2026-04-12T10:57:05Z</time></trkpt><trkpt lat="37.8393946579802" lon="15.263842317829369"><ele>93.0</ele><time>2026-04-12T10:57:06Z</time></trkpt><trkpt lat="37.83943150043717" lon="15.264304784555044"><ele>91.0</ele><time>2026-04-12T10:57:07Z</time></trkpt><trkpt lat="37.83948603351419" lon="15.264764784532904"><ele>82.0</ele><time>2026-04-12T10:57:08Z</time></trkpt><trkpt lat="37.839561237111276" lon="15.26522336257684"><ele>73.0</ele><time>2026-04-12T10:57:09Z</time></trkpt><trkpt lat="37.8396502467173" lon="15.265672501026927"><ele>65.0</ele><time>2026-04-12T10:57:10Z</time></trkpt><trkpt lat="37.839762615278715" lon="15.266107396355103"><ele>57.0</ele><time>2026-04-12T10:57:11Z</time></trkpt><trkpt lat="37.83989684049056" lon="15.266530271877107"><ele>57.0</ele><time>2026-04-12T10:57:12Z</time></trkpt><trkpt lat="37.840054319987615" lon="15.266931940895244"><ele>57.0</ele><time>2026-04-12T10:57:13Z</time></trkpt><trkpt lat="37.84023682792089" lon="15.267316561441746"><ele>74.0</ele><time>2026-04-12T10:57:14Z</time></trkpt><trkpt lat="37.840444789604675" lon="15.267678495174906"><ele>91.0</ele><time>2026-04-12T10:57:15Z</time></trkpt><trkpt lat="37.840671874422334" lon="15.268022705973339"><ele>84.5</ele><time>2026-04-12T10:57:16Z</time></trkpt><trkpt lat="37.84092186659032" lon="15.268343319177168"><ele>78.0</ele><time>2026-04-12T10:57:17Z</time></trkpt><trkpt lat="37.84118831794362" lon="15.268638505302054"><ele>84.5</ele><time>2026-04-12T10:57:18Z</time></trkpt><trkpt lat="37.841474071148646" lon="15.268901584026237"><ele>91.0</ele><time>2026-04-12T10:57:19Z</time></trkpt><trkpt lat="37.841779187676586" lon="15.269147281612268"><ele>100.0</ele><time>2026-04-12T10:57:20Z</time></trkpt><trkpt lat="37.84210937856591" lon="15.269370369512238"><ele>109.0</ele><time>2026-04-12T10:57:21Z</time></trkpt><trkpt lat="37.84245310856882" lon="15.269596553857133"><ele>128.5</ele><time>2026-04-12T10:57:22Z</time></trkpt><trkpt lat="37.842801092738995" lon="15.269833815677186"><ele>148.0</ele><time>2026-04-12T10:57:23Z</time></trkpt><trkpt lat="37.843158068493" lon="15.270075664513113"><ele>162.0</ele><time>2026-04-12T10:57:24Z</time></trkpt><trkpt lat="37.843529197696014" lon="15.270316487891924"><ele>176.0</ele><time>2026-04-12T10:57:25.015Z</time></trkpt><trkpt lat="37.84390642050744" lon="15.270562311281395"><ele>179.5</ele><time>2026-04-12T10:57:26.022Z</time></trkpt><trkpt lat="37.844294076543314" lon="15.270796434582817"><ele>183.0</ele><time>2026-04-12T10:57:27.019Z</time></trkpt><trkpt lat="37.844690530645465" lon="15.271026951579563"><ele>183.0</ele><time>2026-04-12T10:57:28.017Z</time></trkpt><trkpt lat="37.845092647858486" lon="15.271252111735548"><ele>183.0</ele><time>2026-04-12T10:57:29.022Z</time></trkpt><trkpt lat="37.84549428938511" lon="15.271469715534646"><ele>184.5</ele><time>2026-04-12T10:57:30.023Z</time></trkpt><trkpt lat="37.84589240986509" lon="15.271685652729742"><ele>186.0</ele><time>2026-04-12T10:57:31.018Z</time></trkpt><trkpt lat="37.84743733241954" lon="15.273168599247255"><ele>151.5</ele><time>2026-04-12T10:57:36Z</time></trkpt><trkpt lat="37.84777217941357" lon="15.273450753794187"><ele>117.0</ele><time>2026-04-12T10:57:37Z</time></trkpt><trkpt lat="37.84809146602214" lon="15.273775804998248"><ele>113.5</ele><time>2026-04-12T10:57:38Z</time></trkpt><trkpt lat="37.84841323886555" lon="15.274095889049395"><ele>110.0</ele><time>2026-04-12T10:57:39Z</time></trkpt><trkpt lat="37.84873194767666" lon="15.274413463131857"><ele>110.0</ele><time>2026-04-12T10:57:40Z</time></trkpt><trkpt lat="37.84904483206033" lon="15.274740545463487"><ele>110.0</ele><time>2026-04-12T10:57:41Z</time></trkpt><trkpt lat="37.84933501940549" lon="15.275056986261815"><ele>95.5</ele><time>2026-04-12T10:57:42Z</time></trkpt><trkpt lat="37.849634244259164" lon="15.275374721398892"><ele>81.0</ele><time>2026-04-12T10:57:43Z</time></trkpt><trkpt lat="37.84990809629725" lon="15.2756861047848"><ele>79.5</ele><time>2026-04-12T10:57:44Z</time></trkpt><trkpt lat="37.85015638047368" lon="15.275987658642038"><ele>78.0</ele><time>2026-04-12T10:57:45Z</time></trkpt><trkpt lat="37.85039648222289" lon="15.276279037229344"><ele>91.0</ele><time>2026-04-12T10:57:46Z</time></trkpt><trkpt lat="37.85064427935968" lon="15.276581733214405"><ele>104.0</ele><time>2026-04-12T10:57:47Z</time></trkpt><trkpt lat="37.85086487998079" lon="15.276871927529886"><ele>117.0</ele><time>2026-04-12T10:57:48Z</time></trkpt><trkpt lat="37.85105731962165" lon="15.277162066484763"><ele>130.0</ele><time>2026-04-12T10:57:49Z</time></trkpt><trkpt lat="37.85128718823385" lon="15.277436013044271"><ele>150.0</ele><time>2026-04-12T10:57:50Z</time></trkpt><trkpt lat="37.85151202163449" lon="15.277710212929565"><ele>170.0</ele><time>2026-04-12T10:57:51Z</time></trkpt><trkpt lat="37.85174355361461" lon="15.277992309313147"><ele>203.5</ele><time>2026-04-12T10:57:52.024Z</time></trkpt><trkpt lat="37.851968234888574" lon="15.278264977810947"><ele>237.0</ele><time>2026-04-12T10:57:53.016Z</time></trkpt><trkpt lat="37.85219288510729" lon="15.27853989351552"><ele>237.0</ele><time>2026-04-12T10:57:54.015Z</time></trkpt><trkpt lat="37.85241848350742" lon="15.278815638986151"><ele>237.0</ele><time>2026-04-12T10:57:55.017Z</time></trkpt><trkpt lat="37.85434782994504" lon="15.281627312315559"><ele>62.0</ele><time>2026-04-12T10:58:05.468Z</time></trkpt><trkpt lat="37.85921239763299" lon="15.292788958191212"><ele>65.0</ele><time>2026-04-12T10:58:49Z</time></trkpt><trkpt lat="37.859449616717676" lon="15.293056815188725"><ele>68.0</ele><time>2026-04-12T10:58:50Z</time></trkpt><trkpt lat="37.85966974100678" lon="15.293231440844291"><ele>61.0</ele><time>2026-04-12T10:58:51Z</time></trkpt><trkpt lat="37.859954169933424" lon="15.293455195273339"><ele>54.0</ele><time>2026-04-12T10:58:52Z</time></trkpt><trkpt lat="37.86024829594428" lon="15.293678491354044"><ele>49.0</ele><time>2026-04-12T10:58:53Z</time></trkpt><trkpt lat="37.86055818667555" lon="15.293890723444369"><ele>44.0</ele><time>2026-04-12T10:58:54Z</time></trkpt><trkpt lat="37.86085927519981" lon="15.29408123045806"><ele>52.5</ele><time>2026-04-12T10:58:55Z</time></trkpt><trkpt lat="37.861161617652584" lon="15.294250064602982"><ele>61.0</ele><time>2026-04-12T10:58:56Z</time></trkpt><trkpt lat="37.86147012936063" lon="15.294409203867923"><ele>73.5</ele><time>2026-04-12T10:58:57Z</time></trkpt><trkpt lat="37.861789382690155" lon="15.294550307624602"><ele>86.0</ele><time>2026-04-12T10:58:58Z</time></trkpt><trkpt lat="37.86213936798714" lon="15.294699692379503"><ele>76.0</ele><time>2026-04-12T10:58:59Z</time></trkpt><trkpt lat="37.862493879228005" lon="15.294845254933232"><ele>66.0</ele><time>2026-04-12T10:59:00Z</time></trkpt><trkpt lat="37.862847224697255" lon="15.295000488329455"><ele>58.5</ele><time>2026-04-12T10:59:01.023Z</time></trkpt><trkpt lat="37.86319283748443" lon="15.295150111732909"><ele>51.0</ele><time>2026-04-12T10:59:02.022Z</time></trkpt><trkpt lat="37.86354517103735" lon="15.295257827513542"><ele>51.0</ele><time>2026-04-12T10:59:03Z</time></trkpt><trkpt lat="37.86404779275226" lon="15.295413863106562"><ele>47.0</ele><time>2026-04-12T10:59:04Z</time></trkpt><trkpt lat="37.8644167699814" lon="15.295576105797306"><ele>43.0</ele><time>2026-04-12T10:59:05Z</time></trkpt><trkpt lat="37.8647851831138" lon="15.295756007027537"><ele>48.0</ele><time>2026-04-12T10:59:06Z</time></trkpt><trkpt lat="37.86514528075327" lon="15.29595236977275"><ele>53.0</ele><time>2026-04-12T10:59:07Z</time></trkpt><trkpt lat="37.86550165517994" lon="15.296154854941928"><ele>53.0</ele><time>2026-04-12T10:59:08Z</time></trkpt><trkpt lat="37.865847818023134" lon="15.296366826007318"><ele>53.0</ele><time>2026-04-12T10:59:09Z</time></trkpt><trkpt lat="37.866189414048534" lon="15.296573065971133"><ele>57.5</ele><time>2026-04-12T10:59:10Z</time></trkpt><trkpt lat="37.86653274563632" lon="15.296775096144986"><ele>62.0</ele><time>2026-04-12T10:59:11Z</time></trkpt><trkpt lat="37.866857978438105" lon="15.297018657347836"><ele>62.0</ele><time>2026-04-12T10:59:12Z</time></trkpt><trkpt lat="37.86722183729107" lon="15.297173379859553"><ele>62.0</ele><time>2026-04-12T10:59:13Z</time></trkpt><trkpt lat="37.86757079363485" lon="15.29736147969106"><ele>51.5</ele><time>2026-04-12T10:59:14Z</time></trkpt><trkpt lat="37.86792881090277" lon="15.297542281469545"><ele>41.0</ele><time>2026-04-12T10:59:15Z</time></trkpt><trkpt lat="37.86828954324578" lon="15.297722503802492"><ele>48.0</ele><time>2026-04-12T10:59:16Z</time></trkpt><trkpt lat="37.868648635332654" lon="15.297904819896123"><ele>55.0</ele><time>2026-04-12T10:59:17Z</time></trkpt><trkpt lat="37.869108377714376" lon="15.298040899397966"><ele>43.5</ele><time>2026-04-12T10:59:18Z</time></trkpt><trkpt lat="37.86951928897589" lon="15.298212426992093"><ele>32.0</ele><time>2026-04-12T10:59:19Z</time></trkpt><trkpt lat="37.86993601252024" lon="15.298392375073787"><ele>41.0</ele><time>2026-04-12T10:59:20Z</time></trkpt><trkpt lat="37.87035408449102" lon="15.298575423152192"><ele>50.0</ele><time>2026-04-12T10:59:21Z</time></trkpt><trkpt lat="37.870750028183686" lon="15.298748092340565"><ele>49.5</ele><time>2026-04-12T10:59:22Z</time></trkpt><trkpt lat="37.87111226246835" lon="15.298906270539279"><ele>49.0</ele><time>2026-04-12T10:59:23Z</time></trkpt><trkpt lat="37.871446131403964" lon="15.299063320928752"><ele>43.0</ele><time>2026-04-12T10:59:24Z</time></trkpt><trkpt lat="37.87175745690007" lon="15.299223842824937"><ele>37.0</ele><time>2026-04-12T10:59:25Z</time></trkpt><trkpt lat="37.872053251643095" lon="15.299393393966868"><ele>37.0</ele><time>2026-04-12T10:59:26Z</time></trkpt><trkpt lat="37.87235694857518" lon="15.299569395072663"><ele>37.0</ele><time>2026-04-12T10:59:27Z</time></trkpt><trkpt lat="37.87266320363861" lon="15.2997526411393"><ele>33.0</ele><time>2026-04-12T10:59:28Z</time></trkpt><trkpt lat="37.87296275134554" lon="15.29994367582759"><ele>29.0</ele><time>2026-04-12T10:59:29Z</time></trkpt><trkpt lat="37.873260394180086" lon="15.300146757661715"><ele>44.0</ele><time>2026-04-12T10:59:30Z</time></trkpt><trkpt lat="37.873567133779204" lon="15.300353241752399"><ele>59.0</ele><time>2026-04-12T10:59:31Z</time></trkpt><trkpt lat="37.873887135389964" lon="15.300559465176239"><ele>56.5</ele><time>2026-04-12T10:59:32Z</time></trkpt><trkpt lat="37.87421991647137" lon="15.300764237955025"><ele>54.0</ele><time>2026-04-12T10:59:33Z</time></trkpt><trkpt lat="37.87456511035278" lon="15.300959677221632"><ele>54.0</ele><time>2026-04-12T10:59:34Z</time></trkpt><trkpt lat="37.874920231666614" lon="15.301143623677001"><ele>54.0</ele><time>2026-04-12T10:59:35Z</time></trkpt><trkpt lat="37.875286283966894" lon="15.301315338720503"><ele>40.5</ele><time>2026-04-12T10:59:36Z</time></trkpt><trkpt lat="37.87565810513302" lon="15.301482379821376"><ele>27.0</ele><time>2026-04-12T10:59:37Z</time></trkpt><trkpt lat="37.87603834662012" lon="15.301645617488791"><ele>27.0</ele><time>2026-04-12T10:59:38Z</time></trkpt><trkpt lat="37.876421712864975" lon="15.301816747782178"><ele>27.0</ele><time>2026-04-12T10:59:39Z</time></trkpt><trkpt lat="37.87680135043158" lon="15.301996779456383"><ele>29.0</ele><time>2026-04-12T10:59:40Z</time></trkpt><trkpt lat="37.8771666315834" lon="15.302171534503403"><ele>31.0</ele><time>2026-04-12T10:59:41Z</time></trkpt><trkpt lat="37.87752279393166" lon="15.302333308312148"><ele>34.5</ele><time>2026-04-12T10:59:42Z</time></trkpt><trkpt lat="37.87786919966747" lon="15.302484701972634"><ele>38.0</ele><time>2026-04-12T10:59:43Z</time></trkpt><trkpt lat="37.87821157141817" lon="15.30263914825435"><ele>38.0</ele><time>2026-04-12T10:59:44Z</time></trkpt><trkpt lat="37.87855125262284" lon="15.302789569730361"><ele>38.0</ele><time>2026-04-12T10:59:45Z</time></trkpt><trkpt lat="37.87887923646015" lon="15.302936054663785"><ele>31.5</ele><time>2026-04-12T10:59:46Z</time></trkpt><trkpt lat="37.87919991196135" lon="15.303086586201355"><ele>25.0</ele><time>2026-04-12T10:59:47Z</time></trkpt><trkpt lat="37.87950835942183" lon="15.303229855694065"><ele>25.0</ele><time>2026-04-12T10:59:48Z</time></trkpt><trkpt lat="37.87980139203854" lon="15.303379430337596"><ele>25.0</ele><time>2026-04-12T10:59:49Z</time></trkpt><trkpt lat="37.880080144631485" lon="15.30355771672259"><ele>22.5</ele><time>2026-04-12T10:59:50Z</time></trkpt><trkpt lat="37.88035374741208" lon="15.303761849787763"><ele>20.0</ele><time>2026-04-12T10:59:51Z</time></trkpt><trkpt lat="37.880615313241584" lon="15.303993355868474"><ele>26.5</ele><time>2026-04-12T10:59:52Z</time></trkpt><trkpt lat="37.88085751149315" lon="15.30424658902438"><ele>33.0</ele><time>2026-04-12T10:59:53Z</time></trkpt><trkpt lat="37.88108135343068" lon="15.304525198138876"><ele>29.0</ele><time>2026-04-12T10:59:54Z</time></trkpt><trkpt lat="37.88129489005227" lon="15.304821288798797"><ele>25.0</ele><time>2026-04-12T10:59:55Z</time></trkpt><trkpt lat="37.88148577607545" lon="15.305150417716858"><ele>25.0</ele><time>2026-04-12T10:59:56Z</time></trkpt><trkpt lat="37.881677406748224" lon="15.30549093339178"><ele>25.0</ele><time>2026-04-12T10:59:57Z</time></trkpt><trkpt lat="37.88185365282936" lon="15.305851811233577"><ele>38.0</ele><time>2026-04-12T10:59:58Z</time></trkpt><trkpt lat="37.882029814445374" lon="15.306225457935728"><ele>51.0</ele><time>2026-04-12T10:59:59Z</time></trkpt><trkpt lat="37.882200778917316" lon="15.30660788245926"><ele>55.5</ele><time>2026-04-12T11:00:00Z</time></trkpt><trkpt lat="37.882381599558485" lon="15.306994059732883"><ele>60.0</ele><time>2026-04-12T11:00:01Z</time></trkpt><trkpt lat="37.88257020807398" lon="15.307373235618527"><ele>64.5</ele><time>2026-04-12T11:00:02Z</time></trkpt><trkpt lat="37.882774182431326" lon="15.307739359124568"><ele>69.0</ele><time>2026-04-12T11:00:03Z</time></trkpt><trkpt lat="37.88300884725768" lon="15.308088428727947"><ele>60.5</ele><time>2026-04-12T11:00:04Z</time></trkpt><trkpt lat="37.88327137645792" lon="15.308408227644597"><ele>52.0</ele><time>2026-04-12T11:00:05Z</time></trkpt><trkpt lat="37.88354430602332" lon="15.30871182267709"><ele>52.0</ele><time>2026-04-12T11:00:06Z</time></trkpt><trkpt lat="37.88382924263365" lon="15.309022235682015"><ele>52.0</ele><time>2026-04-12T11:00:07Z</time></trkpt><trkpt lat="37.88411694387423" lon="15.309351152811928"><ele>56.0</ele><time>2026-04-12T11:00:08Z</time></trkpt><trkpt lat="37.88440686823585" lon="15.309688915390772"><ele>60.0</ele><time>2026-04-12T11:00:09Z</time></trkpt><trkpt lat="37.88470596533992" lon="15.31003755868237"><ele>60.0</ele><time>2026-04-12T11:00:10Z</time></trkpt><trkpt lat="37.88501173158907" lon="15.310389046983028"><ele>60.0</ele><time>2026-04-12T11:00:11Z</time></trkpt><trkpt lat="37.885330652397485" lon="15.310743847433724"><ele>62.5</ele><time>2026-04-12T11:00:12Z</time></trkpt><trkpt lat="37.88565339831894" lon="15.311099407419475"><ele>65.0</ele><time>2026-04-12T11:00:13Z</time></trkpt><trkpt lat="37.88596155851261" lon="15.311438854108662"><ele>68.0</ele><time>2026-04-12T11:00:14Z</time></trkpt><trkpt lat="37.88625658149239" lon="15.311766569545572"><ele>71.0</ele><time>2026-04-12T11:00:15Z</time></trkpt><trkpt lat="37.886543910527784" lon="15.312088706483095"><ele>68.5</ele><time>2026-04-12T11:00:16Z</time></trkpt><trkpt lat="37.88682373492063" lon="15.31240515278233"><ele>66.0</ele><time>2026-04-12T11:00:17Z</time></trkpt><trkpt lat="37.88709122476944" lon="15.312724371128668"><ele>66.0</ele><time>2026-04-12T11:00:18Z</time></trkpt><trkpt lat="37.88734369355361" lon="15.313050339746574"><ele>66.0</ele><time>2026-04-12T11:00:19Z</time></trkpt><trkpt lat="37.88757489104572" lon="15.313392178562008"><ele>61.0</ele><time>2026-04-12T11:00:20Z</time></trkpt><trkpt lat="37.88778870074332" lon="15.313753908584019"><ele>56.0</ele><time>2026-04-12T11:00:21Z</time></trkpt><trkpt lat="37.88799570058839" lon="15.314133986562362"><ele>48.0</ele><time>2026-04-12T11:00:22Z</time></trkpt><trkpt lat="37.88820407564711" lon="15.31451997258604"><ele>40.0</ele><time>2026-04-12T11:00:23Z</time></trkpt><trkpt lat="37.8884118415649" lon="15.314902072359184"><ele>47.5</ele><time>2026-04-12T11:00:24Z</time></trkpt><trkpt lat="37.88861709964632" lon="15.31527572460067"><ele>55.0</ele><time>2026-04-12T11:00:25Z</time></trkpt><trkpt lat="37.8888273187901" lon="15.31564040072643"><ele>55.0</ele><time>2026-04-12T11:00:26Z</time></trkpt><trkpt lat="37.88904502375091" lon="15.316002038105564"><ele>55.0</ele><time>2026-04-12T11:00:27Z</time></trkpt><trkpt lat="37.889273371606016" lon="15.316352800260471"><ele>53.5</ele><time>2026-04-12T11:00:28Z</time></trkpt><trkpt lat="37.88951833004293" lon="15.316691157272569"><ele>52.0</ele><time>2026-04-12T11:00:29Z</time></trkpt><trkpt lat="37.88977781303062" lon="15.317023028705124"><ele>52.0</ele><time>2026-04-12T11:00:30Z</time></trkpt><trkpt lat="37.89004407336182" lon="15.317346854270134"><ele>52.0</ele><time>2026-04-12T11:00:31Z</time></trkpt><trkpt lat="37.89031948159147" lon="15.317656953570138"><ele>52.0</ele><time>2026-04-12T11:00:32Z</time></trkpt><trkpt lat="37.89060754940992" lon="15.317957332060525"><ele>52.0</ele><time>2026-04-12T11:00:33Z</time></trkpt><trkpt lat="37.89090216024292" lon="15.318258000876133"><ele>57.5</ele><time>2026-04-12T11:00:34Z</time></trkpt><trkpt lat="37.89119856159655" lon="15.31856749836703"><ele>63.0</ele><time>2026-04-12T11:00:35Z</time></trkpt><trkpt lat="37.89149914326569" lon="15.318887689931744"><ele>54.5</ele><time>2026-04-12T11:00:36Z</time></trkpt><trkpt lat="37.891790539031724" lon="15.319198436961031"><ele>46.0</ele><time>2026-04-12T11:00:37Z</time></trkpt><trkpt lat="37.892068610917924" lon="15.31949344410066"><ele>49.5</ele><time>2026-04-12T11:00:38Z</time></trkpt><trkpt lat="37.892340287579415" lon="15.319773942055988"><ele>53.0</ele><time>2026-04-12T11:00:39Z</time></trkpt><trkpt lat="37.89260869344505" lon="15.320042502284059"><ele>53.0</ele><time>2026-04-12T11:00:40Z</time></trkpt><trkpt lat="37.89286575792518" lon="15.320314530516129"><ele>53.0</ele><time>2026-04-12T11:00:41Z</time></trkpt><trkpt lat="37.89311972392512" lon="15.320578208986163"><ele>58.5</ele><time>2026-04-12T11:00:42Z</time></trkpt><trkpt lat="37.89337443221475" lon="15.320837157928215"><ele>64.0</ele><time>2026-04-12T11:00:43Z</time></trkpt><trkpt lat="37.8936217281428" lon="15.321094056779241"><ele>64.0</ele><time>2026-04-12T11:00:44Z</time></trkpt><trkpt lat="37.893877731403606" lon="15.32135310021801"><ele>64.0</ele><time>2026-04-12T11:00:45Z</time></trkpt><trkpt lat="37.89413096811762" lon="15.32161820142959"><ele>63.5</ele><time>2026-04-12T11:00:46Z</time></trkpt><trkpt lat="37.894382256311125" lon="15.321888234829533"><ele>63.0</ele><time>2026-04-12T11:00:47Z</time></trkpt><trkpt lat="37.894637129203694" lon="15.322158663007794"><ele>65.0</ele><time>2026-04-12T11:00:48Z</time></trkpt><trkpt lat="37.89489754799369" lon="15.322421279267157"><ele>67.0</ele><time>2026-04-12T11:00:49Z</time></trkpt><trkpt lat="37.89516377558995" lon="15.322672070390764"><ele>67.0</ele><time>2026-04-12T11:00:50Z</time></trkpt><trkpt lat="37.89543636700815" lon="15.322921009918549"><ele>67.0</ele><time>2026-04-12T11:00:51Z</time></trkpt><trkpt lat="37.895713426626415" lon="15.323176674198832"><ele>64.0</ele><time>2026-04-12T11:00:52Z</time></trkpt><trkpt lat="37.89600194195947" lon="15.323442697453519"><ele>61.0</ele><time>2026-04-12T11:00:53Z</time></trkpt><trkpt lat="37.89630132504646" lon="15.323720151451504"><ele>62.5</ele><time>2026-04-12T11:00:54Z</time></trkpt><trkpt lat="37.89661005511935" lon="15.324009526092366"><ele>64.0</ele><time>2026-04-12T11:00:55Z</time></trkpt><trkpt lat="37.8969333772309" lon="15.324290189253778"><ele>64.0</ele><time>2026-04-12T11:00:56Z</time></trkpt><trkpt lat="37.897264138004836" lon="15.324581636763384"><ele>64.0</ele><time>2026-04-12T11:00:57Z</time></trkpt><trkpt lat="37.89759354469309" lon="15.324895947694309"><ele>55.5</ele><time>2026-04-12T11:00:58Z</time></trkpt><trkpt lat="37.89791942587273" lon="15.325217729315725"><ele>47.0</ele><time>2026-04-12T11:00:59Z</time></trkpt><trkpt lat="37.89823578992156" lon="15.325548401832375"><ele>56.0</ele><time>2026-04-12T11:01:00Z</time></trkpt><trkpt lat="37.8985411064858" lon="15.325881807040806"><ele>65.0</ele><time>2026-04-12T11:01:01Z</time></trkpt><trkpt lat="37.89883838035211" lon="15.326215205100779"><ele>68.5</ele><time>2026-04-12T11:01:02Z</time></trkpt><trkpt lat="37.89912635833467" lon="15.326547742811172"><ele>72.0</ele><time>2026-04-12T11:01:03Z</time></trkpt><trkpt lat="37.899407743029336" lon="15.326877517014104"><ele>72.0</ele><time>2026-04-12T11:01:04Z</time></trkpt><trkpt lat="37.89969604712646" lon="15.327194767349171"><ele>72.0</ele><time>2026-04-12T11:01:05Z</time></trkpt><trkpt lat="37.899991306221686" lon="15.327496390227623"><ele>68.0</ele><time>2026-04-12T11:01:06Z</time></trkpt><trkpt lat="37.9002960490568" lon="15.327779365851985"><ele>64.0</ele><time>2026-04-12T11:01:07Z</time></trkpt><trkpt lat="37.90060672090911" lon="15.328042440844325"><ele>64.5</ele><time>2026-04-12T11:01:08Z</time></trkpt><trkpt lat="37.90092152482062" lon="15.328289809549977"><ele>65.0</ele><time>2026-04-12T11:01:09Z</time></trkpt><trkpt lat="37.90124237406988" lon="15.328529630327488"><ele>65.0</ele><time>2026-04-12T11:01:10Z</time></trkpt><trkpt lat="37.9015670396555" lon="15.328760971650857"><ele>65.0</ele><time>2026-04-12T11:01:11Z</time></trkpt><trkpt lat="37.90188812831642" lon="15.328986460765066"><ele>63.0</ele><time>2026-04-12T11:01:12Z</time></trkpt><trkpt lat="37.90219363090434" lon="15.3292031396939"><ele>61.0</ele><time>2026-04-12T11:01:13Z</time></trkpt><trkpt lat="37.90248948858907" lon="15.329420391385662"><ele>66.0</ele><time>2026-04-12T11:01:14Z</time></trkpt><trkpt lat="37.90277603913125" lon="15.329638354376968"><ele>71.0</ele><time>2026-04-12T11:01:15Z</time></trkpt><trkpt lat="37.9030633065458" lon="15.329856009442695"><ele>76.5</ele><time>2026-04-12T11:01:16Z</time></trkpt><trkpt lat="37.90335114869858" lon="15.330078465821797"><ele>82.0</ele><time>2026-04-12T11:01:17Z</time></trkpt><trkpt lat="37.903634720073626" lon="15.330311705251294"><ele>82.0</ele><time>2026-04-12T11:01:18Z</time></trkpt><trkpt lat="37.90391513518438" lon="15.330549886680107"><ele>82.0</ele><time>2026-04-12T11:01:19Z</time></trkpt><trkpt lat="37.90416655905402" lon="15.330805172559076"><ele>91.0</ele><time>2026-04-12T11:01:20Z</time></trkpt><trkpt lat="37.90440793583975" lon="15.331052745389735"><ele>100.0</ele><time>2026-04-12T11:01:21Z</time></trkpt><trkpt lat="37.90464320379178" lon="15.331312167940826"><ele>92.5</ele><time>2026-04-12T11:01:22.025Z</time></trkpt><trkpt lat="37.904860823212736" lon="15.331572253932277"><ele>85.0</ele><time>2026-04-12T11:01:23.028Z</time></trkpt><trkpt lat="37.90508532023293" lon="15.331825310386813"><ele>68.5</ele><time>2026-04-12T11:01:24.026Z</time></trkpt><trkpt lat="37.905303958736894" lon="15.332078503415579"><ele>52.0</ele><time>2026-04-12T11:01:25.013Z</time></trkpt><trkpt lat="37.90552984763849" lon="15.332349598674666"><ele>40.5</ele><time>2026-04-12T11:01:26.027Z</time></trkpt><trkpt lat="37.905745564673246" lon="15.332621234746638"><ele>29.0</ele><time>2026-04-12T11:01:27Z</time></trkpt><trkpt lat="37.906135485025295" lon="15.33300617561045"><ele>25.5</ele><time>2026-04-12T11:01:28Z</time></trkpt><trkpt lat="37.90638657556125" lon="15.333365603761456"><ele>22.0</ele><time>2026-04-12T11:01:29Z</time></trkpt><trkpt lat="37.906631517562424" lon="15.333723707607588"><ele>29.0</ele><time>2026-04-12T11:01:30Z</time></trkpt><trkpt lat="37.90688029478169" lon="15.334121059222765"><ele>36.0</ele><time>2026-04-12T11:01:31Z</time></trkpt><trkpt lat="37.90709926039688" lon="15.334540050957242"><ele>36.0</ele><time>2026-04-12T11:01:32Z</time></trkpt><trkpt lat="37.90734971766882" lon="15.334954568278508"><ele>36.0</ele><time>2026-04-12T11:01:33Z</time></trkpt><trkpt lat="37.90760844441115" lon="15.33536963502634"><ele>42.0</ele><time>2026-04-12T11:01:34Z</time></trkpt><trkpt lat="37.907865900008744" lon="15.33577951684766"><ele>48.0</ele><time>2026-04-12T11:01:35Z</time></trkpt><trkpt lat="37.90810820505019" lon="15.336153370110429"><ele>44.0</ele><time>2026-04-12T11:01:36Z</time></trkpt><trkpt lat="37.90833579940226" lon="15.336503501023532"><ele>40.0</ele><time>2026-04-12T11:01:37Z</time></trkpt><trkpt lat="37.908560529479935" lon="15.336830324269458"><ele>52.5</ele><time>2026-04-12T11:01:38Z</time></trkpt><trkpt lat="37.90879812580783" lon="15.337146510339476"><ele>65.0</ele><time>2026-04-12T11:01:39Z</time></trkpt><trkpt lat="37.90904095806687" lon="15.33745606048971"><ele>85.5</ele><time>2026-04-12T11:01:40Z</time></trkpt><trkpt lat="37.9092888554496" lon="15.33774960435773"><ele>106.0</ele><time>2026-04-12T11:01:41Z</time></trkpt><trkpt lat="37.90955759766337" lon="15.338037730415225"><ele>102.5</ele><time>2026-04-12T11:01:42.018Z</time></trkpt><trkpt lat="37.90984120846368" lon="15.338314930595441"><ele>99.0</ele><time>2026-04-12T11:01:43.025Z</time></trkpt><trkpt lat="37.910137919800974" lon="15.338583671845935"><ele>114.5</ele><time>2026-04-12T11:01:44.025Z</time></trkpt><trkpt lat="37.910448955483545" lon="15.338846048683003"><ele>130.0</ele><time>2026-04-12T11:01:45.026Z</time></trkpt><trkpt lat="37.910758948811875" lon="15.33909998277146"><ele>239.0</ele><time>2026-04-12T11:01:46.025Z</time></trkpt><trkpt lat="37.91316672336911" lon="15.340760192126282"><ele>207.0</ele><time>2026-04-12T11:01:50.223Z</time></trkpt><trkpt lat="37.91379886863343" lon="15.341196710338869"><ele>133.0</ele><time>2026-04-12T11:01:51.223Z</time></trkpt><trkpt lat="37.91443002805124" lon="15.34163298082913"><ele>133.0</ele><time>2026-04-12T11:01:52.221Z</time></trkpt><trkpt lat="37.9150625054697" lon="15.342072697729066"><ele>83.0</ele><time>2026-04-12T11:01:53.223Z</time></trkpt><trkpt lat="37.91569195458922" lon="15.342507720085335"><ele>60.0</ele><time>2026-04-12T11:01:54.219Z</time></trkpt><trkpt lat="37.91633589748639" lon="15.342916015022906"><ele>28.0</ele><time>2026-04-12T11:01:55.219Z</time></trkpt><trkpt lat="37.916914299165754" lon="15.343233179315312"><ele>28.0</ele><time>2026-04-12T11:02:05Z</time></trkpt><trkpt lat="37.917255483299904" lon="15.343399309031366"><ele>28.0</ele><time>2026-04-12T11:02:06Z</time></trkpt><trkpt lat="37.91762461989963" lon="15.343489893952365"><ele>32.0</ele><time>2026-04-12T11:02:07Z</time></trkpt><trkpt lat="37.91799692581568" lon="15.343613350971612"><ele>36.0</ele><time>2026-04-12T11:02:08Z</time></trkpt><trkpt lat="37.91838070698214" lon="15.343713805303818"><ele>41.5</ele><time>2026-04-12T11:02:09Z</time></trkpt><trkpt lat="37.91877569055406" lon="15.343779557148775"><ele>47.0</ele><time>2026-04-12T11:02:10Z</time></trkpt><trkpt lat="37.919175044930725" lon="15.343826620986611"><ele>48.0</ele><time>2026-04-12T11:02:11Z</time></trkpt><trkpt lat="37.9195769946238" lon="15.343859532613866"><ele>49.0</ele><time>2026-04-12T11:02:12Z</time></trkpt><trkpt lat="37.91995555500532" lon="15.343889310544622"><ele>42.0</ele><time>2026-04-12T11:02:13Z</time></trkpt><trkpt lat="37.92030759552547" lon="15.343923667311453"><ele>35.0</ele><time>2026-04-12T11:02:14Z</time></trkpt><trkpt lat="37.920644152959824" lon="15.343951356464494"><ele>33.5</ele><time>2026-04-12T11:02:15Z</time></trkpt><trkpt lat="37.920976157529594" lon="15.344006555588281"><ele>32.0</ele><time>2026-04-12T11:02:16Z</time></trkpt><trkpt lat="37.92130805586606" lon="15.344093091390405"><ele>32.0</ele><time>2026-04-12T11:02:17Z</time></trkpt><trkpt lat="37.92163721229472" lon="15.344210296969923"><ele>32.0</ele><time>2026-04-12T11:02:18Z</time></trkpt><trkpt lat="37.92195812618671" lon="15.344358611438055"><ele>37.0</ele><time>2026-04-12T11:02:19Z</time></trkpt><trkpt lat="37.92226953234154" lon="15.344533146072449"><ele>42.0</ele><time>2026-04-12T11:02:20Z</time></trkpt><trkpt lat="37.922572080856845" lon="15.344740850361434"><ele>42.0</ele><time>2026-04-12T11:02:21Z</time></trkpt><trkpt lat="37.922866902949785" lon="15.344983040017583"><ele>42.0</ele><time>2026-04-12T11:02:22Z</time></trkpt><trkpt lat="37.92314878465286" lon="15.345262913257208"><ele>47.5</ele><time>2026-04-12T11:02:23Z</time></trkpt><trkpt lat="37.92341271288329" lon="15.345582032584975"><ele>53.0</ele><time>2026-04-12T11:02:24Z</time></trkpt><trkpt lat="37.92366060971554" lon="15.345921241248988"><ele>53.0</ele><time>2026-04-12T11:02:25Z</time></trkpt><trkpt lat="37.92392636161422" lon="15.34626535854925"><ele>53.0</ele><time>2026-04-12T11:02:26Z</time></trkpt><trkpt lat="37.92421132653846" lon="15.3466166376151"><ele>51.5</ele><time>2026-04-12T11:02:27Z</time></trkpt><trkpt lat="37.92451100384003" lon="15.34696877182208"><ele>50.0</ele><time>2026-04-12T11:02:28Z</time></trkpt><trkpt lat="37.92482279629342" lon="15.347323382621822"><ele>39.0</ele><time>2026-04-12T11:02:29Z</time></trkpt><trkpt lat="37.92514211605948" lon="15.347688117755137"><ele>28.0</ele><time>2026-04-12T11:02:30Z</time></trkpt><trkpt lat="37.92547109223291" lon="15.348054466502704"><ele>25.5</ele><time>2026-04-12T11:02:31Z</time></trkpt><trkpt lat="37.92579066914762" lon="15.34840952266926"><ele>23.0</ele><time>2026-04-12T11:02:32Z</time></trkpt><trkpt lat="37.92609401128585" lon="15.348753744610189"><ele>25.5</ele><time>2026-04-12T11:02:33Z</time></trkpt><trkpt lat="37.92638660095168" lon="15.349086922989477"><ele>28.0</ele><time>2026-04-12T11:02:34Z</time></trkpt><trkpt lat="37.92667230683123" lon="15.34939810437753"><ele>28.0</ele><time>2026-04-12T11:02:35Z</time></trkpt><trkpt lat="37.92696196991867" lon="15.349688938425826"><ele>28.0</ele><time>2026-04-12T11:02:36Z</time></trkpt><trkpt lat="37.927259198269425" lon="15.349969360066671"><ele>37.5</ele><time>2026-04-12T11:02:37Z</time></trkpt><trkpt lat="37.927568197437445" lon="15.350217443136978"><ele>47.0</ele><time>2026-04-12T11:02:38Z</time></trkpt><trkpt lat="37.92789077695571" lon="15.350425762449127"><ele>35.5</ele><time>2026-04-12T11:02:39Z</time></trkpt><trkpt lat="37.92822796857071" lon="15.35059976100933"><ele>24.0</ele><time>2026-04-12T11:02:40Z</time></trkpt><trkpt lat="37.928575764282094" lon="15.350737181559763"><ele>24.0</ele><time>2026-04-12T11:02:41Z</time></trkpt><trkpt lat="37.92893541240567" lon="15.350837097789272"><ele>24.0</ele><time>2026-04-12T11:02:42Z</time></trkpt><trkpt lat="37.92930919260177" lon="15.350901218613682"><ele>24.5</ele><time>2026-04-12T11:02:43Z</time></trkpt><trkpt lat="37.929693812024155" lon="15.350928951640336"><ele>25.0</ele><time>2026-04-12T11:02:44Z</time></trkpt><trkpt lat="37.930090275309865" lon="15.35092184771578"><ele>25.0</ele><time>2026-04-12T11:02:45Z</time></trkpt><trkpt lat="37.930494322720435" lon="15.350890380371782"><ele>25.0</ele><time>2026-04-12T11:02:46Z</time></trkpt><trkpt lat="37.93090835779256" lon="15.350860613623352"><ele>22.5</ele><time>2026-04-12T11:02:47Z</time></trkpt><trkpt lat="37.93133373689016" lon="15.350862948115594"><ele>20.0</ele><time>2026-04-12T11:02:48Z</time></trkpt><trkpt lat="37.93176374087969" lon="15.350895736203979"><ele>19.0</ele><time>2026-04-12T11:02:49Z</time></trkpt><trkpt lat="37.932192415836006" lon="15.350969042977091"><ele>18.0</ele><time>2026-04-12T11:02:50Z</time></trkpt><trkpt lat="37.93258227238348" lon="15.351080714721782"><ele>17.5</ele><time>2026-04-12T11:02:51Z</time></trkpt><trkpt lat="37.93294172559247" lon="15.351222939393459"><ele>17.0</ele><time>2026-04-12T11:02:52Z</time></trkpt><trkpt lat="37.93329786304794" lon="15.351411952997468"><ele>14.5</ele><time>2026-04-12T11:02:53Z</time></trkpt><trkpt lat="37.93364949020095" lon="15.351632022879032"><ele>12.0</ele><time>2026-04-12T11:02:54Z</time></trkpt><trkpt lat="37.93401037940046" lon="15.351852845715126"><ele>13.5</ele><time>2026-04-12T11:02:55Z</time></trkpt><trkpt lat="37.93438417419677" lon="15.352075878117835"><ele>15.0</ele><time>2026-04-12T11:02:56Z</time></trkpt><trkpt lat="37.93476609780489" lon="15.352299419283035"><ele>16.5</ele><time>2026-04-12T11:02:57Z</time></trkpt><trkpt lat="37.9351492927042" lon="15.352535686005726"><ele>18.0</ele><time>2026-04-12T11:02:58Z</time></trkpt><trkpt lat="37.93552815908163" lon="15.352803153240847"><ele>22.5</ele><time>2026-04-12T11:02:59Z</time></trkpt><trkpt lat="37.93590155380768" lon="15.353094564238706"><ele>27.0</ele><time>2026-04-12T11:03:00Z</time></trkpt><trkpt lat="37.93626261046812" lon="15.353412456833054"><ele>27.0</ele><time>2026-04-12T11:03:01Z</time></trkpt><trkpt lat="37.93660970986998" lon="15.35375590115046"><ele>27.0</ele><time>2026-04-12T11:03:02Z</time></trkpt><trkpt lat="37.93694418104474" lon="15.3541257000368"><ele>29.0</ele><time>2026-04-12T11:03:03Z</time></trkpt><trkpt lat="37.937268394279464" lon="15.354511095323005"><ele>31.0</ele><time>2026-04-12T11:03:04Z</time></trkpt><trkpt lat="37.9375843576097" lon="15.35490786641334"><ele>33.5</ele><time>2026-04-12T11:03:05Z</time></trkpt><trkpt lat="37.93789233240551" lon="15.35532046869883"><ele>36.0</ele><time>2026-04-12T11:03:06Z</time></trkpt><trkpt lat="37.93819678902503" lon="15.355735933853303"><ele>42.0</ele><time>2026-04-12T11:03:07Z</time></trkpt><trkpt lat="37.93850392426378" lon="15.356147815055685"><ele>48.0</ele><time>2026-04-12T11:03:08Z</time></trkpt><trkpt lat="37.938818776354594" lon="15.356559901965289"><ele>48.0</ele><time>2026-04-12T11:03:09Z</time></trkpt><trkpt lat="37.93913951400769" lon="15.356971412161498"><ele>52.0</ele><time>2026-04-12T11:03:10Z</time></trkpt><trkpt lat="37.93945938782887" lon="15.357384603665018"><ele>52.0</ele><time>2026-04-12T11:03:11Z</time></trkpt><trkpt lat="37.93977826794876" lon="15.357799475410237"><ele>43.0</ele><time>2026-04-12T11:03:12Z</time></trkpt><trkpt lat="37.94009686462713" lon="15.358216042677926"><ele>43.0</ele><time>2026-04-12T11:03:13Z</time></trkpt><trkpt lat="37.94040905252162" lon="15.35863254795233"><ele>41.5</ele><time>2026-04-12T11:03:14Z</time></trkpt><trkpt lat="37.94071355981512" lon="15.359039569032646"><ele>40.0</ele><time>2026-04-12T11:03:15Z</time></trkpt><trkpt lat="37.940993469490415" lon="15.359413872760744"><ele>37.5</ele><time>2026-04-12T11:03:16Z</time></trkpt><trkpt lat="37.94126913425347" lon="15.359768335684612"><ele>35.0</ele><time>2026-04-12T11:03:17Z</time></trkpt><trkpt lat="37.941552598095925" lon="15.360119454679536"><ele>37.0</ele><time>2026-04-12T11:03:18Z</time></trkpt><trkpt lat="37.941850368229424" lon="15.360461377686885"><ele>39.0</ele><time>2026-04-12T11:03:19Z</time></trkpt><trkpt lat="37.94216402187231" lon="15.360783301210343"><ele>39.0</ele><time>2026-04-12T11:03:20Z</time></trkpt><trkpt lat="37.9424968346151" lon="15.361089226732778"><ele>39.0</ele><time>2026-04-12T11:03:21Z</time></trkpt><trkpt lat="37.94284583231408" lon="15.36138406613579"><ele>50.5</ele><time>2026-04-12T11:03:22Z</time></trkpt><trkpt lat="37.94320623157468" lon="15.36166771685862"><ele>62.0</ele><time>2026-04-12T11:03:23Z</time></trkpt><trkpt lat="37.94357537665512" lon="15.361955376091075"><ele>60.0</ele><time>2026-04-12T11:03:24Z</time></trkpt><trkpt lat="37.94394732820059" lon="15.362259205507351"><ele>58.0</ele><time>2026-04-12T11:03:25Z</time></trkpt><trkpt lat="37.94431491463574" lon="15.36256617091865"><ele>58.0</ele><time>2026-04-12T11:03:26Z</time></trkpt><trkpt lat="37.94468629423512" lon="15.362866285390853"><ele>58.0</ele><time>2026-04-12T11:03:27Z</time></trkpt><trkpt lat="37.94506826561154" lon="15.363162437984391"><ele>60.0</ele><time>2026-04-12T11:03:28Z</time></trkpt><trkpt lat="37.94545698652673" lon="15.363451957726907"><ele>60.0</ele><time>2026-04-12T11:03:29Z</time></trkpt><trkpt lat="37.94585379687182" lon="15.363735443370347"><ele>60.0</ele><time>2026-04-12T11:03:30Z</time></trkpt><trkpt lat="37.946256501418596" lon="15.364014728321516"><ele>60.0</ele><time>2026-04-12T11:03:31Z</time></trkpt><trkpt lat="37.94666279143678" lon="15.36428770908742"><ele>64.0</ele><time>2026-04-12T11:03:32Z</time></trkpt><trkpt lat="37.94707437464299" lon="15.36456049242013"><ele>57.0</ele><time>2026-04-12T11:03:33Z</time></trkpt><trkpt lat="37.947486965521875" lon="15.364832380926575"><ele>65.0</ele><time>2026-04-12T11:03:34Z</time></trkpt><trkpt lat="37.94789977885103" lon="15.365105928191518"><ele>65.0</ele><time>2026-04-12T11:03:35Z</time></trkpt><trkpt lat="37.94831320315079" lon="15.365380097724893"><ele>64.0</ele><time>2026-04-12T11:03:36Z</time></trkpt><trkpt lat="37.94872985997231" lon="15.36565603440325"><ele>64.0</ele><time>2026-04-12T11:03:37Z</time></trkpt><trkpt lat="37.9491388052021" lon="15.365930166284198"><ele>61.5</ele><time>2026-04-12T11:03:38Z</time></trkpt><trkpt lat="37.949529787341795" lon="15.366196604035794"><ele>59.0</ele><time>2026-04-12T11:03:39Z</time></trkpt><trkpt lat="37.94991123002163" lon="15.366464901350493"><ele>64.0</ele><time>2026-04-12T11:03:40Z</time></trkpt><trkpt lat="37.950262644802685" lon="15.366756670491293"><ele>69.0</ele><time>2026-04-12T11:03:41Z</time></trkpt><trkpt lat="37.9505858949508" lon="15.367077079606874"><ele>65.0</ele><time>2026-04-12T11:03:42Z</time></trkpt><trkpt lat="37.95090129626168" lon="15.367420658294249"><ele>61.0</ele><time>2026-04-12T11:03:43Z</time></trkpt><trkpt lat="37.951201972080995" lon="15.367778290597565"><ele>62.0</ele><time>2026-04-12T11:03:44Z</time></trkpt><trkpt lat="37.95149517702709" lon="15.36812699817752"><ele>63.0</ele><time>2026-04-12T11:03:45Z</time></trkpt><trkpt lat="37.95179112209514" lon="15.368442689501482"><ele>63.0</ele><time>2026-04-12T11:03:46Z</time></trkpt><trkpt lat="37.95208498761431" lon="15.36872514922315"><ele>63.0</ele><time>2026-04-12T11:03:47Z</time></trkpt><trkpt lat="37.95239412735936" lon="15.368980462991628"><ele>47.0</ele><time>2026-04-12T11:03:48Z</time></trkpt><trkpt lat="37.95272298058783" lon="15.36920980693998"><ele>31.0</ele><time>2026-04-12T11:03:49Z</time></trkpt><trkpt lat="37.95307182837752" lon="15.369418115691104"><ele>29.0</ele><time>2026-04-12T11:03:50Z</time></trkpt><trkpt lat="37.95343663546115" lon="15.369616141651816"><ele>27.0</ele><time>2026-04-12T11:03:51Z</time></trkpt><trkpt lat="37.95381442040917" lon="15.369815058604603"><ele>25.0</ele><time>2026-04-12T11:03:52Z</time></trkpt><trkpt lat="37.95420562151077" lon="15.370011564776245"><ele>23.0</ele><time>2026-04-12T11:03:53Z</time></trkpt><trkpt lat="37.954602357668946" lon="15.37021996385282"><ele>23.0</ele><time>2026-04-12T11:03:54Z</time></trkpt><trkpt lat="37.95500706293441" lon="15.370441433588493"><ele>23.0</ele><time>2026-04-12T11:03:55Z</time></trkpt><trkpt lat="37.95541759553306" lon="15.370684088275565"><ele>27.0</ele><time>2026-04-12T11:03:56Z</time></trkpt><trkpt lat="37.955825138189354" lon="15.370955781598921"><ele>25.0</ele><time>2026-04-12T11:03:57Z</time></trkpt><trkpt lat="37.95621813002565" lon="15.371260624140794"><ele>27.0</ele><time>2026-04-12T11:03:58Z</time></trkpt><trkpt lat="37.95659575791611" lon="15.371608535313841"><ele>24.0</ele><time>2026-04-12T11:03:59Z</time></trkpt><trkpt lat="37.9569573928476" lon="15.371984809676158"><ele>23.0</ele><time>2026-04-12T11:04:00Z</time></trkpt><trkpt lat="37.95730765444856" lon="15.372379684590776"><ele>24.0</ele><time>2026-04-12T11:04:01Z</time></trkpt><trkpt lat="37.95765061142859" lon="15.372778709635135"><ele>23.0</ele><time>2026-04-12T11:04:02Z</time></trkpt><trkpt lat="37.958013561510086" lon="15.373162945895853"><ele>25.0</ele><time>2026-04-12T11:04:03Z</time></trkpt><trkpt lat="37.95837479999462" lon="15.373554783792336"><ele>22.0</ele><time>2026-04-12T11:04:04Z</time></trkpt><trkpt lat="37.958732364077356" lon="15.373942030743127"><ele>22.0</ele><time>2026-04-12T11:04:05Z</time></trkpt><trkpt lat="37.959090024911845" lon="15.374336085865465"><ele>20.0</ele><time>2026-04-12T11:04:06Z</time></trkpt><trkpt lat="37.959451320134455" lon="15.374729070748652"><ele>20.0</ele><time>2026-04-12T11:04:07Z</time></trkpt><trkpt lat="37.95981574341485" lon="15.375118777769499"><ele>21.0</ele><time>2026-04-12T11:04:08Z</time></trkpt><trkpt lat="37.960178423428935" lon="15.375508538547411"><ele>20.0</ele><time>2026-04-12T11:04:09Z</time></trkpt><trkpt lat="37.96054516220366" lon="15.375897502948279"><ele>20.0</ele><time>2026-04-12T11:04:10Z</time></trkpt><trkpt lat="37.96090150978333" lon="15.376284277352738"><ele>21.0</ele><time>2026-04-12T11:04:11Z</time></trkpt><trkpt lat="37.96123489126103" lon="15.376661897749633"><ele>22.0</ele><time>2026-04-12T11:04:12Z</time></trkpt><trkpt lat="37.961538520763476" lon="15.377057288272454"><ele>26.0</ele><time>2026-04-12T11:04:13Z</time></trkpt><trkpt lat="37.961821541710975" lon="15.377484914993149"><ele>30.0</ele><time>2026-04-12T11:04:14Z</time></trkpt><trkpt lat="37.96209194226009" lon="15.37793487349104"><ele>31.5</ele><time>2026-04-12T11:04:15Z</time></trkpt><trkpt lat="37.9623627706516" lon="15.378377945456702"><ele>33.0</ele><time>2026-04-12T11:04:16Z</time></trkpt><trkpt lat="37.96262637866043" lon="15.378788692976524"><ele>41.5</ele><time>2026-04-12T11:04:17Z</time></trkpt><trkpt lat="37.962876917345376" lon="15.379178479300995"><ele>50.0</ele><time>2026-04-12T11:04:18Z</time></trkpt><trkpt lat="37.96311978043885" lon="15.379542448637437"><ele>52.0</ele><time>2026-04-12T11:04:19Z</time></trkpt><trkpt lat="37.96336202460517" lon="15.379879301675487"><ele>54.0</ele><time>2026-04-12T11:04:20Z</time></trkpt><trkpt lat="37.96361480633778" lon="15.380189582443855"><ele>54.0</ele><time>2026-04-12T11:04:21Z</time></trkpt><trkpt lat="37.96387458674541" lon="15.380468469089623"><ele>54.0</ele><time>2026-04-12T11:04:22Z</time></trkpt><trkpt lat="37.96414516929452" lon="15.38070786030281"><ele>48.5</ele><time>2026-04-12T11:04:23Z</time></trkpt><trkpt lat="37.96442128582886" lon="15.380933724056215"><ele>43.0</ele><time>2026-04-12T11:04:24Z</time></trkpt><trkpt lat="37.964704953468726" lon="15.381152470282647"><ele>38.5</ele><time>2026-04-12T11:04:25Z</time></trkpt><trkpt lat="37.964991845578325" lon="15.381349655152723"><ele>34.0</ele><time>2026-04-12T11:04:26Z</time></trkpt><trkpt lat="37.965270193726404" lon="15.381535624826432"><ele>32.5</ele><time>2026-04-12T11:04:27Z</time></trkpt><trkpt lat="37.96554471141764" lon="15.381719931134663"><ele>31.0</ele><time>2026-04-12T11:04:28Z</time></trkpt><trkpt lat="37.965821809464444" lon="15.381914409909466"><ele>30.5</ele><time>2026-04-12T11:04:29Z</time></trkpt><trkpt lat="37.96609371105032" lon="15.38209664899649"><ele>30.0</ele><time>2026-04-12T11:04:30Z</time></trkpt><trkpt lat="37.96634853747523" lon="15.38227789719822"><ele>30.5</ele><time>2026-04-12T11:04:31Z</time></trkpt><trkpt lat="37.96659186369323" lon="15.382446296131977"><ele>31.0</ele><time>2026-04-12T11:04:32Z</time></trkpt><trkpt lat="37.96682343227202" lon="15.382607884633748"><ele>31.0</ele><time>2026-04-12T11:04:33Z</time></trkpt><trkpt lat="37.96704644278991" lon="15.382762807032325"><ele>31.0</ele><time>2026-04-12T11:04:34Z</time></trkpt><trkpt lat="37.9672634814941" lon="15.382910536220571"><ele>31.0</ele><time>2026-04-12T11:04:35Z</time></trkpt><trkpt lat="37.96747399701898" lon="15.383057400524738"><ele>31.0</ele><time>2026-04-12T11:04:36Z</time></trkpt><trkpt lat="37.9676810558239" lon="15.383207664243846"><ele>31.0</ele><time>2026-04-12T11:04:37Z</time></trkpt><trkpt lat="37.967877775103425" lon="15.383353616046959"><ele>31.0</ele><time>2026-04-12T11:04:38Z</time></trkpt><trkpt lat="37.968065732007624" lon="15.383494694689562"><ele>31.0</ele><time>2026-04-12T11:04:39Z</time></trkpt><trkpt lat="37.96824453919548" lon="15.383634367524499"><ele>30.666666666666668</ele><time>2026-04-12T11:04:40Z</time></trkpt><trkpt lat="37.96841798819133" lon="15.383773152763224"><ele>30.333333333333336</ele><time>2026-04-12T11:04:41Z</time></trkpt><trkpt lat="37.968577819511985" lon="15.383907459319332"><ele>30.0</ele><time>2026-04-12T11:04:42Z</time></trkpt><trkpt lat="37.968738790056825" lon="15.384017458496574"><ele>30.0</ele><time>2026-04-12T11:04:43Z</time></trkpt><trkpt lat="37.96886378365631" lon="15.384176354789789"><ele>30.0</ele><time>2026-04-12T11:04:44Z</time></trkpt><trkpt lat="37.96899332752298" lon="15.384312914941463"><ele>30.0</ele><time>2026-04-12T11:04:45Z</time></trkpt><trkpt lat="37.9691078501029" lon="15.384453428515386"><ele>30.0</ele><time>2026-04-12T11:04:46Z</time></trkpt><trkpt lat="37.969206452662455" lon="15.384611177460526"><ele>30.0</ele><time>2026-04-12T11:04:47Z</time></trkpt><trkpt lat="37.96928304453001" lon="15.384788185258826"><ele>30.0</ele><time>2026-04-12T11:04:48Z</time></trkpt><trkpt lat="37.96933952268468" lon="15.38497774824785"><ele>30.0</ele><time>2026-04-12T11:04:49Z</time></trkpt><trkpt lat="37.969357584488996" lon="15.385167667911826"><ele>30.0</ele><time>2026-04-12T11:04:50Z</time></trkpt><trkpt lat="37.96932955816834" lon="15.385345726974307"><ele>30.0</ele><time>2026-04-12T11:04:51Z</time></trkpt><trkpt lat="37.969261603750255" lon="15.385492123605218"><ele>30.0</ele><time>2026-04-12T11:04:52Z</time></trkpt><trkpt lat="37.96917772697017" lon="15.385610681468647"><ele>28.75</ele><time>2026-04-12T11:04:53Z</time></trkpt><trkpt lat="37.96907867119587" lon="15.38569329178612"><ele>27.5</ele><time>2026-04-12T11:04:54Z</time></trkpt><trkpt lat="37.96897468831711" lon="15.385758217170679"><ele>26.25</ele><time>2026-04-12T11:04:55Z</time></trkpt><trkpt lat="37.96886202036473" lon="15.385803196229059"><ele>25.0</ele><time>2026-04-12T11:04:56Z</time></trkpt><trkpt lat="37.968744851773685" lon="15.385836355894586"><ele>25.0</ele><time>2026-04-12T11:04:57Z</time></trkpt><trkpt lat="37.96861999560492" lon="15.385873221836588"><ele>25.0</ele><time>2026-04-12T11:04:58Z</time></trkpt><trkpt lat="37.9684920874489" lon="15.385917138071084"><ele>25.0</ele><time>2026-04-12T11:04:59Z</time></trkpt><trkpt lat="37.9683480880436" lon="15.385914722159239"><ele>25.0</ele><time>2026-04-12T11:05:00Z</time></trkpt><trkpt lat="37.96820485536456" lon="15.385895505913972"><ele>24.75</ele><time>2026-04-12T11:05:01Z</time></trkpt><trkpt lat="37.96806393845029" lon="15.38587261487409"><ele>24.5</ele><time>2026-04-12T11:05:02Z</time></trkpt><trkpt lat="37.967933107768864" lon="15.385843661509831"><ele>24.25</ele><time>2026-04-12T11:05:03Z</time></trkpt><trkpt lat="37.96780949148514" lon="15.38580090500031"><ele>24.0</ele><time>2026-04-12T11:05:04Z</time></trkpt><trkpt lat="37.96769056879581" lon="15.385759533370308"><ele>24.0</ele><time>2026-04-12T11:05:05Z</time></trkpt><trkpt lat="37.967578076103365" lon="15.385715630750333"><ele>24.0</ele><time>2026-04-12T11:05:06Z</time></trkpt><trkpt lat="37.96747155658169" lon="15.385668167319992"><ele>24.0</ele><time>2026-04-12T11:05:07Z</time></trkpt><trkpt lat="37.96737755893092" lon="15.38562326768583"><ele>24.0</ele><time>2026-04-12T11:05:08Z</time></trkpt><trkpt lat="37.9673091063756" lon="15.385582766319075"><ele>24.0</ele><time>2026-04-12T11:05:09Z</time></trkpt><trkpt lat="37.967247834644645" lon="15.385537843720911"><ele>23.799999999999997</ele><time>2026-04-12T11:05:11Z</time></trkpt><trkpt lat="37.967182552904724" lon="15.385486159606723"><ele>23.599999999999998</ele><time>2026-04-12T11:05:15Z</time></trkpt><trkpt lat="37.967139125653105" lon="15.385415587073249"><ele>23.4</ele><time>2026-04-12T11:05:19Z</time></trkpt><trkpt lat="37.967059065283514" lon="15.385341734375334"><ele>23.2</ele><time>2026-04-12T11:05:22Z</time></trkpt><trkpt lat="37.966994053434505" lon="15.385258490631493"><ele>23.0</ele><time>2026-04-12T11:05:24Z</time></trkpt><trkpt lat="37.96692537238483" lon="15.38514793517412"><ele>23.0</ele><time>2026-04-12T11:05:26Z</time></trkpt><trkpt lat="37.96685438754193" lon="15.385019332065808"><ele>23.0</ele><time>2026-04-12T11:05:28Z</time></trkpt><trkpt lat="37.96681580060076" lon="15.384953070921512"><ele>23.0</ele><time>2026-04-12T11:05:29Z</time></trkpt><trkpt lat="37.966774976594266" lon="15.384886126928274"><ele>23.0</ele><time>2026-04-12T11:05:30Z</time></trkpt><trkpt lat="37.96673237172589" lon="15.384809777529124"><ele>23.0</ele><time>2026-04-12T11:05:31Z</time></trkpt><trkpt lat="37.96670712092184" lon="15.384717877413504"><ele>23.0</ele><time>2026-04-12T11:05:32Z</time></trkpt><trkpt lat="37.96667457636422" lon="15.384625573263847"><ele>22.833333333333336</ele><time>2026-04-12T11:05:33Z</time></trkpt><trkpt lat="37.96662102400071" lon="15.384557447034258"><ele>22.666666666666668</ele><time>2026-04-12T11:05:34Z</time></trkpt><trkpt lat="37.966506743499856" lon="15.384523269529765"><ele>22.5</ele><time>2026-04-12T11:05:36Z</time></trkpt><trkpt lat="37.966442309470914" lon="15.384550791819914"><ele>22.333333333333332</ele><time>2026-04-12T11:05:37Z</time></trkpt><trkpt lat="37.96638021322256" lon="15.384617358818653"><ele>22.166666666666664</ele><time>2026-04-12T11:05:38Z</time></trkpt><trkpt lat="37.96631911971113" lon="15.38472403679472"><ele>22.0</ele><time>2026-04-12T11:05:39Z</time></trkpt><trkpt lat="37.966267727720194" lon="15.384865465698612"><ele>21.5</ele><time>2026-04-12T11:05:40Z</time></trkpt><trkpt lat="37.96622372976238" lon="15.385017862591976"><ele>21.0</ele><time>2026-04-12T11:05:41Z</time></trkpt><trkpt lat="37.96618989789989" lon="15.3851713494405"><ele>20.5</ele><time>2026-04-12T11:05:42Z</time></trkpt><trkpt lat="37.966147495681604" lon="15.385348757462436"><ele>20.0</ele><time>2026-04-12T11:05:43Z</time></trkpt><trkpt lat="37.966106393333604" lon="15.385524232429836"><ele>19.25</ele><time>2026-04-12T11:05:44Z</time></trkpt><trkpt lat="37.96607593455835" lon="15.385688430349354"><ele>18.5</ele><time>2026-04-12T11:05:45Z</time></trkpt><trkpt lat="37.96605082919208" lon="15.385830087512494"><ele>17.75</ele><time>2026-04-12T11:05:46Z</time></trkpt><trkpt lat="37.966043381235" lon="15.385972112557315"><ele>17.0</ele><time>2026-04-12T11:05:47Z</time></trkpt><trkpt lat="37.966050290558705" lon="15.38608953801652"><ele>17.0</ele><time>2026-04-12T11:05:48Z</time></trkpt><trkpt lat="37.96608299643491" lon="15.386194449129553"><ele>17.0</ele><time>2026-04-12T11:05:49Z</time></trkpt><trkpt lat="37.96612270262076" lon="15.38629373377863"><ele>17.0</ele><time>2026-04-12T11:05:50Z</time></trkpt><trkpt lat="37.96611787122683" lon="15.38642249380749"><ele>17.0</ele><time>2026-04-12T11:05:51Z</time></trkpt><trkpt lat="37.96608055981217" lon="15.38655468799217"><ele>17.0</ele><time>2026-04-12T11:05:52Z</time></trkpt><trkpt lat="37.96601174882905" lon="15.386692255438156"><ele>16.4</ele><time>2026-04-12T11:05:53Z</time></trkpt><trkpt lat="37.965960824392" lon="15.386836189342423"><ele>15.799999999999999</ele><time>2026-04-12T11:05:54Z</time></trkpt><trkpt lat="37.96593498422231" lon="15.386964479405346"><ele>15.2</ele><time>2026-04-12T11:05:55Z</time></trkpt><trkpt lat="37.96591073413745" lon="15.387057696692365"><ele>14.6</ele><time>2026-04-12T11:05:56Z</time></trkpt><trkpt lat="37.96589023340417" lon="15.38716676707469"><ele>14.0</ele><time>2026-04-12T11:05:58Z</time></trkpt><trkpt lat="37.965990024534214" lon="15.387378953268746"><ele>13.666666666666668</ele><time>2026-04-12T11:06:00Z</time></trkpt><trkpt lat="37.96609862024407" lon="15.387478063188682"><ele>13.333333333333332</ele><time>2026-04-12T11:06:01Z</time></trkpt><trkpt lat="37.9662342903923" lon="15.387600109344541"><ele>13.0</ele><time>2026-04-12T11:06:02Z</time></trkpt><trkpt lat="37.96640453565699" lon="15.38774536332726"><ele>13.0</ele><time>2026-04-12T11:06:03Z</time></trkpt><trkpt lat="37.96661661723603" lon="15.387925956838336"><ele>13.0</ele><time>2026-04-12T11:06:04Z</time></trkpt><trkpt lat="37.966853872430576" lon="15.38813864277762"><ele>12.5</ele><time>2026-04-12T11:06:05Z</time></trkpt><trkpt lat="37.96711126468322" lon="15.38837436737815"><ele>12.0</ele><time>2026-04-12T11:06:06Z</time></trkpt><trkpt lat="37.96738497324705" lon="15.388623458679373"><ele>11.5</ele><time>2026-04-12T11:06:07Z</time></trkpt><trkpt lat="37.96763138002594" lon="15.388847477305392"><ele>11.0</ele><time>2026-04-12T11:06:08Z</time></trkpt><trkpt lat="37.96784606973431" lon="15.38904402144841"><ele>11.0</ele><time>2026-04-12T11:06:09Z</time></trkpt><trkpt lat="37.96805262879983" lon="15.389233004098323"><ele>11.0</ele><time>2026-04-12T11:06:10Z</time></trkpt><trkpt lat="37.968250341592736" lon="15.389415923012256"><ele>11.0</ele><time>2026-04-12T11:06:11Z</time></trkpt><trkpt lat="37.96845646693811" lon="15.389605148490828"><ele>11.0</ele><time>2026-04-12T11:06:12Z</time></trkpt><trkpt lat="37.96866465541515" lon="15.389797530926716"><ele>11.0</ele><time>2026-04-12T11:06:13Z</time></trkpt><trkpt lat="37.96887158146496" lon="15.38999037657403"><ele>11.0</ele><time>2026-04-12T11:06:14Z</time></trkpt><trkpt lat="37.969074438885734" lon="15.390180471290263"><ele>11.0</ele><time>2026-04-12T11:06:15Z</time></trkpt><trkpt lat="37.969278216157825" lon="15.390369486142102"><ele>11.0</ele><time>2026-04-12T11:06:16Z</time></trkpt><trkpt lat="37.969479778851245" lon="15.390556885600317"><ele>11.0</ele><time>2026-04-12T11:06:17Z</time></trkpt><trkpt lat="37.9696849004941" lon="15.390724302218628"><ele>11.0</ele><time>2026-04-12T11:06:18Z</time></trkpt><trkpt lat="37.96987774959158" lon="15.390907095475695"><ele>12.5</ele><time>2026-04-12T11:06:19Z</time></trkpt><trkpt lat="37.97006779793363" lon="15.391084084427234"><ele>14.0</ele><time>2026-04-12T11:06:20Z</time></trkpt><trkpt lat="37.970256084742765" lon="15.391262461299053"><ele>13.0</ele><time>2026-04-12T11:06:21Z</time></trkpt><trkpt lat="37.9704379949805" lon="15.391438920708186"><ele>12.0</ele><time>2026-04-12T11:06:22Z</time></trkpt><trkpt lat="37.97061580920077" lon="15.391612180719505"><ele>12.0</ele><time>2026-04-12T11:06:23Z</time></trkpt><trkpt lat="37.97079200541466" lon="15.39177974634781"><ele>12.0</ele><time>2026-04-12T11:06:24Z</time></trkpt><trkpt lat="37.97096560784798" lon="15.391938983699955"><ele>12.0</ele><time>2026-04-12T11:06:25Z</time></trkpt><trkpt lat="37.971122275964284" lon="15.392104830737798"><ele>11.666666666666666</ele><time>2026-04-12T11:06:26Z</time></trkpt><trkpt lat="37.97127946023898" lon="15.392253874848132"><ele>11.333333333333332</ele><time>2026-04-12T11:06:27Z</time></trkpt><trkpt lat="37.971440972498385" lon="15.392386758395151"><ele>11.0</ele><time>2026-04-12T11:06:28Z</time></trkpt><trkpt lat="37.97158177626479" lon="15.39252657877296"><ele>12.0</ele><time>2026-04-12T11:06:29Z</time></trkpt><trkpt lat="37.97171001326248" lon="15.392646359989445"><ele>13.0</ele><time>2026-04-12T11:06:30Z</time></trkpt><trkpt lat="37.9718306300587" lon="15.392756292248391"><ele>14.0</ele><time>2026-04-12T11:06:31Z</time></trkpt><trkpt lat="37.97195165787424" lon="15.392892536624357"><ele>12.666666666666668</ele><time>2026-04-12T11:06:32Z</time></trkpt><trkpt lat="37.97210220951756" lon="15.393035218225103"><ele>11.333333333333334</ele><time>2026-04-12T11:06:33Z</time></trkpt><trkpt lat="37.97227641809568" lon="15.393192185842038"><ele>10.0</ele><time>2026-04-12T11:06:34Z</time></trkpt><trkpt lat="37.97246930976202" lon="15.393358563947162"><ele>12.5</ele><time>2026-04-12T11:06:35Z</time></trkpt><trkpt lat="37.97268232563198" lon="15.393537687076293"><ele>15.0</ele><time>2026-04-12T11:06:36Z</time></trkpt><trkpt lat="37.97291092555831" lon="15.393715004312707"><ele>15.0</ele><time>2026-04-12T11:06:37Z</time></trkpt><trkpt lat="37.973144305732774" lon="15.393913549955904"><ele>15.0</ele><time>2026-04-12T11:06:38Z</time></trkpt><trkpt lat="37.973381370104896" lon="15.394115106136042"><ele>15.0</ele><time>2026-04-12T11:06:39Z</time></trkpt><trkpt lat="37.97360059809056" lon="15.394307881580325"><ele>15.0</ele><time>2026-04-12T11:06:40Z</time></trkpt><trkpt lat="37.97380507825787" lon="15.394481797745064"><ele>15.0</ele><time>2026-04-12T11:06:41Z</time></trkpt><trkpt lat="37.97399391416618" lon="15.394638465706656"><ele>15.0</ele><time>2026-04-12T11:06:42Z</time></trkpt><trkpt lat="37.97417141759736" lon="15.394793547420484"><ele>15.0</ele><time>2026-04-12T11:06:43Z</time></trkpt><trkpt lat="37.97433885334414" lon="15.39493994280385"><ele>15.333333333333332</ele><time>2026-04-12T11:06:44Z</time></trkpt><trkpt lat="37.97449637309665" lon="15.395078677322996"><ele>15.666666666666666</ele><time>2026-04-12T11:06:45Z</time></trkpt><trkpt lat="37.974640072367286" lon="15.395230096002106"><ele>16.0</ele><time>2026-04-12T11:06:46Z</time></trkpt><trkpt lat="37.97480182460163" lon="15.39537292461186"><ele>15.0</ele><time>2026-04-12T11:06:47Z</time></trkpt><trkpt lat="37.97498476485508" lon="15.39553446245409"><ele>14.0</ele><time>2026-04-12T11:06:48Z</time></trkpt><trkpt lat="37.97520058001757" lon="15.395712322063336"><ele>14.0</ele><time>2026-04-12T11:06:49Z</time></trkpt><trkpt lat="37.97542507741499" lon="15.395915262434782"><ele>14.0</ele><time>2026-04-12T11:06:50Z</time></trkpt><trkpt lat="37.97565075976941" lon="15.396118489881296"><ele>13.5</ele><time>2026-04-12T11:06:51Z</time></trkpt><trkpt lat="37.97585599235569" lon="15.396307103852001"><ele>13.0</ele><time>2026-04-12T11:06:52Z</time></trkpt><trkpt lat="37.97606524037891" lon="15.396498594737524"><ele>13.0</ele><time>2026-04-12T11:06:53Z</time></trkpt><trkpt lat="37.97626582185111" lon="15.396691031531358"><ele>13.0</ele><time>2026-04-12T11:06:54Z</time></trkpt><trkpt lat="37.97645136777667" lon="15.396886851177628"><ele>13.0</ele><time>2026-04-12T11:06:55Z</time></trkpt><trkpt lat="37.976630955436704" lon="15.397074404771056"><ele>13.0</ele><time>2026-04-12T11:06:56Z</time></trkpt><trkpt lat="37.97680447229618" lon="15.397256823903898"><ele>13.0</ele><time>2026-04-12T11:06:57Z</time></trkpt><trkpt lat="37.97698145264947" lon="15.397445636825895"><ele>13.0</ele><time>2026-04-12T11:06:58Z</time></trkpt><trkpt lat="37.97714372559744" lon="15.39762123180561"><ele>13.0</ele><time>2026-04-12T11:06:59Z</time></trkpt><trkpt lat="37.97728828034097" lon="15.3977770151008"><ele>13.0</ele><time>2026-04-12T11:07:00Z</time></trkpt><trkpt lat="37.977429727441475" lon="15.397924038894056"><ele>13.0</ele><time>2026-04-12T11:07:01Z</time></trkpt><trkpt lat="37.97756870534975" lon="15.39806726961783"><ele>13.0</ele><time>2026-04-12T11:07:02Z</time></trkpt><trkpt lat="37.97771431136814" lon="15.39821996649382"><ele>12.666666666666666</ele><time>2026-04-12T11:07:03Z</time></trkpt><trkpt lat="37.97787175286216" lon="15.398367571808729"><ele>12.333333333333332</ele><time>2026-04-12T11:07:04Z</time></trkpt><trkpt lat="37.978017998419645" lon="15.39854061531015"><ele>12.0</ele><time>2026-04-12T11:07:05Z</time></trkpt><trkpt lat="37.97822901960599" lon="15.398613497880753"><ele>12.0</ele><time>2026-04-12T11:07:06Z</time></trkpt><trkpt lat="37.978403047672124" lon="15.398741756298689"><ele>12.0</ele><time>2026-04-12T11:07:07Z</time></trkpt><trkpt lat="37.978573702249875" lon="15.398864175372124"><ele>12.0</ele><time>2026-04-12T11:07:08Z</time></trkpt><trkpt lat="37.97873095635856" lon="15.398977257231701"><ele>12.0</ele><time>2026-04-12T11:07:09Z</time></trkpt><trkpt lat="37.97887649313072" lon="15.399085872100645"><ele>12.0</ele><time>2026-04-12T11:07:10Z</time></trkpt><trkpt lat="37.97901656188307" lon="15.399191031425847"><ele>12.0</ele><time>2026-04-12T11:07:11Z</time></trkpt><trkpt lat="37.97915788323493" lon="15.399298491211525"><ele>12.5</ele><time>2026-04-12T11:07:12Z</time></trkpt><trkpt lat="37.9792953454853" lon="15.39940030976961"><ele>13.0</ele><time>2026-04-12T11:07:13Z</time></trkpt><trkpt lat="37.97942381741894" lon="15.399488626599629"><ele>13.5</ele><time>2026-04-12T11:07:14Z</time></trkpt><trkpt lat="37.97954389406011" lon="15.399566164005059"><ele>14.0</ele><time>2026-04-12T11:07:15Z</time></trkpt><trkpt lat="37.97965374492281" lon="15.399643450104284"><ele>14.0</ele><time>2026-04-12T11:07:16Z</time></trkpt><trkpt lat="37.979749616594546" lon="15.399719644716459"><ele>13.999999999999998</ele><time>2026-04-12T11:07:17Z</time></trkpt><trkpt lat="37.979836054230724" lon="15.399797314875471"><ele>13.999999999999998</ele><time>2026-04-12T11:07:18Z</time></trkpt><trkpt lat="37.979914874993554" lon="15.399876283812565"><ele>14.0</ele><time>2026-04-12T11:07:19Z</time></trkpt><trkpt lat="37.97997746236904" lon="15.399970318726318"><ele>14.0</ele><time>2026-04-12T11:07:20Z</time></trkpt><trkpt lat="37.98002892722661" lon="15.400074376343285"><ele>14.2</ele><time>2026-04-12T11:07:21Z</time></trkpt><trkpt lat="37.98009449916028" lon="15.400192761701174"><ele>14.399999999999999</ele><time>2026-04-12T11:07:22Z</time></trkpt><trkpt lat="37.98016884767076" lon="15.400290718788362"><ele>14.6</ele><time>2026-04-12T11:07:23Z</time></trkpt><trkpt lat="37.980240131318595" lon="15.40037936769417"><ele>14.8</ele><time>2026-04-12T11:07:24Z</time></trkpt><trkpt lat="37.98030779185412" lon="15.400459320486618"><ele>15.0</ele><time>2026-04-12T11:07:25Z</time></trkpt><trkpt lat="37.98037451381011" lon="15.400528986022682"><ele>15.0</ele><time>2026-04-12T11:07:26Z</time></trkpt><trkpt lat="37.98044262109146" lon="15.400583159022244"><ele>15.0</ele><time>2026-04-12T11:07:27Z</time></trkpt><trkpt lat="37.98052056544272" lon="15.400635396612351"><ele>15.0</ele><time>2026-04-12T11:07:28Z</time></trkpt><trkpt lat="37.98062508839621" lon="15.400691343164716"><ele>15.0</ele><time>2026-04-12T11:07:29Z</time></trkpt><trkpt lat="37.98074802984995" lon="15.40075869154248"><ele>15.0</ele><time>2026-04-12T11:07:30Z</time></trkpt><trkpt lat="37.98088770902899" lon="15.400826971909284"><ele>15.0</ele><time>2026-04-12T11:07:31Z</time></trkpt><trkpt lat="37.98104034646773" lon="15.400902994582756"><ele>15.0</ele><time>2026-04-12T11:07:32Z</time></trkpt><trkpt lat="37.981202712140565" lon="15.40100246841396"><ele>15.0</ele><time>2026-04-12T11:07:33Z</time></trkpt><trkpt lat="37.98137698750762" lon="15.401138775927912"><ele>15.0</ele><time>2026-04-12T11:07:34Z</time></trkpt><trkpt lat="37.98155563095792" lon="15.401319004686416"><ele>15.0</ele><time>2026-04-12T11:07:35Z</time></trkpt><trkpt lat="37.98172407027596" lon="15.401512339609182"><ele>15.333333333333332</ele><time>2026-04-12T11:07:36Z</time></trkpt><trkpt lat="37.98188839047981" lon="15.401693493958994"><ele>15.666666666666666</ele><time>2026-04-12T11:07:37Z</time></trkpt><trkpt lat="37.9820427947278" lon="15.401857379413197"><ele>16.0</ele><time>2026-04-12T11:07:38Z</time></trkpt><trkpt lat="37.98218695379499" lon="15.402008122342405"><ele>16.0</ele><time>2026-04-12T11:07:39Z</time></trkpt><trkpt lat="37.98230606012914" lon="15.402134956470624"><ele>16.0</ele><time>2026-04-12T11:07:40Z</time></trkpt><trkpt lat="37.9824215573227" lon="15.402259418655573"><ele>16.0</ele><time>2026-04-12T11:07:41Z</time></trkpt><trkpt lat="37.98254907870611" lon="15.40238399248444"><ele>15.666666666666666</ele><time>2026-04-12T11:07:42Z</time></trkpt><trkpt lat="37.98268860179049" lon="15.40251337092738"><ele>15.333333333333332</ele><time>2026-04-12T11:07:43Z</time></trkpt><trkpt lat="37.982831983250854" lon="15.402661663387004"><ele>15.0</ele><time>2026-04-12T11:07:44Z</time></trkpt><trkpt lat="37.982981945938405" lon="15.402825522898707"><ele>15.666666666666668</ele><time>2026-04-12T11:07:45Z</time></trkpt><trkpt lat="37.98314062704038" lon="15.402998887649701"><ele>16.333333333333336</ele><time>2026-04-12T11:07:46Z</time></trkpt><trkpt lat="37.983312689612895" lon="15.403182257353414"><ele>17.0</ele><time>2026-04-12T11:07:47Z</time></trkpt><trkpt lat="37.9835003291141" lon="15.403377414174773"><ele>17.0</ele><time>2026-04-12T11:07:48Z</time></trkpt><trkpt lat="37.98370747799367" lon="15.403588613666004"><ele>17.0</ele><time>2026-04-12T11:07:49Z</time></trkpt><trkpt lat="37.983943042294804" lon="15.403804310085771"><ele>17.0</ele><time>2026-04-12T11:07:50Z</time></trkpt><trkpt lat="37.984191783475914" lon="15.40402332997259"><ele>17.0</ele><time>2026-04-12T11:07:51Z</time></trkpt><trkpt lat="37.984425492005236" lon="15.40423724987992"><ele>17.0</ele><time>2026-04-12T11:07:52Z</time></trkpt><trkpt lat="37.98463490520571" lon="15.404433991051375"><ele>17.0</ele><time>2026-04-12T11:07:53Z</time></trkpt><trkpt lat="37.98482009785141" lon="15.404638633374766"><ele>17.0</ele><time>2026-04-12T11:07:54Z</time></trkpt><trkpt lat="37.9850136348089" lon="15.404820617120638"><ele>17.0</ele><time>2026-04-12T11:07:55Z</time></trkpt><trkpt lat="37.9852081094228" lon="15.405003482549994"><ele>17.0</ele><time>2026-04-12T11:07:56Z</time></trkpt><trkpt lat="37.98540254097619" lon="15.40518630749019"><ele>17.0</ele><time>2026-04-12T11:07:57Z</time></trkpt><trkpt lat="37.98560364508509" lon="15.4053634391309"><ele>17.5</ele><time>2026-04-12T11:07:58Z</time></trkpt><trkpt lat="37.985796120897724" lon="15.405557377772174"><ele>18.0</ele><time>2026-04-12T11:07:59Z</time></trkpt><trkpt lat="37.98598284801567" lon="15.405745690968978"><ele>18.0</ele><time>2026-04-12T11:08:00Z</time></trkpt><trkpt lat="37.98616687109459" lon="15.40593785730303"><ele>18.0</ele><time>2026-04-12T11:08:01Z</time></trkpt><trkpt lat="37.98634864533369" lon="15.406135411706884"><ele>19.0</ele><time>2026-04-12T11:08:02Z</time></trkpt><trkpt lat="37.9865328144995" lon="15.40633472740965"><ele>20.0</ele><time>2026-04-12T11:08:03Z</time></trkpt><trkpt lat="37.98671551926839" lon="15.406528266724468"><ele>20.0</ele><time>2026-04-12T11:08:04Z</time></trkpt><trkpt lat="37.986891774503334" lon="15.406722757676878"><ele>20.0</ele><time>2026-04-12T11:08:05Z</time></trkpt><trkpt lat="37.987064899366544" lon="15.40691471507847"><ele>20.0</ele><time>2026-04-12T11:08:06Z</time></trkpt><trkpt lat="37.98724433447181" lon="15.407108540199877"><ele>20.0</ele><time>2026-04-12T11:08:07Z</time></trkpt><trkpt lat="37.987415481307316" lon="15.407292009271483"><ele>19.0</ele><time>2026-04-12T11:08:08Z</time></trkpt><trkpt lat="37.98757452693307" lon="15.407460117403176"><ele>18.0</ele><time>2026-04-12T11:08:09Z</time></trkpt><trkpt lat="37.98772556983785" lon="15.407625652061329"><ele>17.0</ele><time>2026-04-12T11:08:10Z</time></trkpt><trkpt lat="37.98786088245068" lon="15.407778713012382"><ele>17.0</ele><time>2026-04-12T11:08:11Z</time></trkpt><trkpt lat="37.987984837050604" lon="15.4079223762213"><ele>17.0</ele><time>2026-04-12T11:08:12Z</time></trkpt><trkpt lat="37.98810151529607" lon="15.408067968616853"><ele>17.0</ele><time>2026-04-12T11:08:13Z</time></trkpt><trkpt lat="37.98822674698364" lon="15.408221762500833"><ele>16.333333333333336</ele><time>2026-04-12T11:08:14Z</time></trkpt><trkpt lat="37.98836955097464" lon="15.408377130081373"><ele>15.666666666666668</ele><time>2026-04-12T11:08:15Z</time></trkpt><trkpt lat="37.98853155092695" lon="15.408533717413716"><ele>15.0</ele><time>2026-04-12T11:08:16Z</time></trkpt><trkpt lat="37.988688324349056" lon="15.408732171326713"><ele>14.0</ele><time>2026-04-12T11:08:17Z</time></trkpt><trkpt lat="37.9888634032904" lon="15.408953625537075"><ele>13.0</ele><time>2026-04-12T11:08:18Z</time></trkpt><trkpt lat="37.989027504901266" lon="15.409152103659316"><ele>12.666666666666666</ele><time>2026-04-12T11:08:19Z</time></trkpt><trkpt lat="37.9891760766917" lon="15.409339166214414"><ele>12.333333333333332</ele><time>2026-04-12T11:08:20Z</time></trkpt><trkpt lat="37.989318726909" lon="15.409515138122195"><ele>12.0</ele><time>2026-04-12T11:08:21Z</time></trkpt><trkpt lat="37.98944850846488" lon="15.409677993551519"><ele>12.0</ele><time>2026-04-12T11:08:22Z</time></trkpt><trkpt lat="37.98955825073398" lon="15.409821924540429"><ele>12.0</ele><time>2026-04-12T11:08:23Z</time></trkpt><trkpt lat="37.989654029437986" lon="15.409947417841954"><ele>12.0</ele><time>2026-04-12T11:08:24Z</time></trkpt><trkpt lat="37.98972937532939" lon="15.410050516882997"><ele>12.0</ele><time>2026-04-12T11:08:25Z</time></trkpt><trkpt lat="37.989791535722546" lon="15.410136961027385"><ele>12.0</ele><time>2026-04-12T11:08:26Z</time></trkpt><trkpt lat="37.98985636695812" lon="15.410221217747855"><ele>12.0</ele><time>2026-04-12T11:08:27Z</time></trkpt><trkpt lat="37.98990991974343" lon="15.410282554568235"><ele>12.0</ele><time>2026-04-12T11:08:28Z</time></trkpt><trkpt lat="37.98995619010946" lon="15.410336825785084"><ele>12.0</ele><time>2026-04-12T11:08:29Z</time></trkpt><trkpt lat="37.98999721972158" lon="15.410411585847122"><ele>12.0</ele><time>2026-04-12T11:08:30Z</time></trkpt><trkpt lat="37.9900717045343" lon="15.410514742044557"><ele>12.0</ele><time>2026-04-12T11:08:31Z</time></trkpt><trkpt lat="37.99016871339186" lon="15.410638059858712"><ele>12.0</ele><time>2026-04-12T11:08:32Z</time></trkpt><trkpt lat="37.990296229391525" lon="15.410791726063092"><ele>12.0</ele><time>2026-04-12T11:08:33Z</time></trkpt><trkpt lat="37.990448841854416" lon="15.41097304055752"><ele>12.0</ele><time>2026-04-12T11:08:34Z</time></trkpt><trkpt lat="37.99062090485948" lon="15.411168551388577"><ele>11.333333333333334</ele><time>2026-04-12T11:08:35Z</time></trkpt><trkpt lat="37.99078580736658" lon="15.411333537386582"><ele>10.666666666666668</ele><time>2026-04-12T11:08:36Z</time></trkpt><trkpt lat="37.990928154155036" lon="15.411495125373621"><ele>10.0</ele><time>2026-04-12T11:08:37Z</time></trkpt><trkpt lat="37.99107694653525" lon="15.411658965724273"><ele>10.0</ele><time>2026-04-12T11:08:38Z</time></trkpt><trkpt lat="37.99123126462351" lon="15.411836656527502"><ele>10.0</ele><time>2026-04-12T11:08:39Z</time></trkpt><trkpt lat="37.99139905450311" lon="15.412028464039814"><ele>10.0</ele><time>2026-04-12T11:08:40Z</time></trkpt><trkpt lat="37.99157967013606" lon="15.412234965813932"><ele>11.0</ele><time>2026-04-12T11:08:41Z</time></trkpt><trkpt lat="37.991745116940045" lon="15.412418524686219"><ele>12.0</ele><time>2026-04-12T11:08:42Z</time></trkpt><trkpt lat="37.99190281947271" lon="15.412584354509303"><ele>13.0</ele><time>2026-04-12T11:08:43Z</time></trkpt><trkpt lat="37.992049498343185" lon="15.412742870131432"><ele>13.0</ele><time>2026-04-12T11:08:44Z</time></trkpt><trkpt lat="37.99218428214127" lon="15.412896367949898"><ele>13.0</ele><time>2026-04-12T11:08:45Z</time></trkpt><trkpt lat="37.9923135729849" lon="15.413041506368707"><ele>13.0</ele><time>2026-04-12T11:08:46Z</time></trkpt><trkpt lat="37.992436575303095" lon="15.41318073134849"><ele>12.75</ele><time>2026-04-12T11:08:47Z</time></trkpt><trkpt lat="37.99255160217864" lon="15.413315064624417"><ele>12.5</ele><time>2026-04-12T11:08:48Z</time></trkpt><trkpt lat="37.992655579004776" lon="15.41343740190332"><ele>12.25</ele><time>2026-04-12T11:08:49Z</time></trkpt><trkpt lat="37.992752101756096" lon="15.4135390282125"><ele>12.0</ele><time>2026-04-12T11:08:50Z</time></trkpt><trkpt lat="37.992830919596756" lon="15.413628046434587"><ele>12.0</ele><time>2026-04-12T11:08:51Z</time></trkpt><trkpt lat="37.992887045517335" lon="15.413687506746754"><ele>12.0</ele><time>2026-04-12T11:08:52Z</time></trkpt><trkpt lat="37.992933469849746" lon="15.413744315572236"><ele>12.0</ele><time>2026-04-12T11:08:54Z</time></trkpt><trkpt lat="37.99302524817451" lon="15.4135838789065"><ele>12.0</ele><time>2026-04-12T11:08:55Z</time></trkpt><trkpt lat="37.99306148082387" lon="15.413479205342966"><ele>12.0</ele><time>2026-04-12T11:08:56Z</time></trkpt><trkpt lat="37.9931242329326" lon="15.413351481882057"><ele>12.0</ele><time>2026-04-12T11:08:57Z</time></trkpt><trkpt lat="37.99320811364518" lon="15.413206129158016"><ele>12.0</ele><time>2026-04-12T11:08:58Z</time></trkpt><trkpt lat="37.9932788001469" lon="15.413059907976434"><ele>12.0</ele><time>2026-04-12T11:08:59Z</time></trkpt><trkpt lat="37.99333702083423" lon="15.412938304842674"><ele>12.0</ele><time>2026-04-12T11:09:00Z</time></trkpt><trkpt lat="37.993391791168214" lon="15.412862024649758"><ele>13.0</ele><time>2026-04-12T11:09:01Z</time></trkpt><trkpt lat="37.993459765039816" lon="15.412779934899467"><ele>14.0</ele><time>2026-04-12T11:09:03Z</time></trkpt><trkpt lat="37.993557511408774" lon="15.41279554310023"><ele>15.0</ele><time>2026-04-12T11:09:06Z</time></trkpt><trkpt lat="37.993618966251205" lon="15.412877677673716"><ele>16.0</ele><time>2026-04-12T11:09:07Z</time></trkpt><trkpt lat="37.99370244467451" lon="15.412921081078494"><ele>17.0</ele><time>2026-04-12T11:09:08Z</time></trkpt><trkpt lat="37.99384481864283" lon="15.41283695742433"><ele>17.0</ele><time>2026-04-12T11:09:09Z</time></trkpt><trkpt lat="37.993995219970046" lon="15.412752836906439"><ele>17.0</ele><time>2026-04-12T11:09:10Z</time></trkpt><trkpt lat="37.99418373376959" lon="15.412653684038336"><ele>17.0</ele><time>2026-04-12T11:09:11Z</time></trkpt><trkpt lat="37.994374849174356" lon="15.412562358369277"><ele>17.0</ele><time>2026-04-12T11:09:12Z</time></trkpt><trkpt lat="37.99453987077172" lon="15.41249147759798"><ele>17.0</ele><time>2026-04-12T11:09:13Z</time></trkpt><trkpt lat="37.994694104662976" lon="15.41241856380425"><ele>17.0</ele><time>2026-04-12T11:09:14Z</time></trkpt><trkpt lat="37.99484437103279" lon="15.412314685235657"><ele>18.333333333333336</ele><time>2026-04-12T11:09:15Z</time></trkpt><trkpt lat="37.99501735516181" lon="15.412225333474218"><ele>19.666666666666668</ele><time>2026-04-12T11:09:16Z</time></trkpt><trkpt lat="37.995216301227735" lon="15.412152679526251"><ele>21.0</ele><time>2026-04-12T11:09:17Z</time></trkpt><trkpt lat="37.99541845699559" lon="15.412066467852002"><ele>21.0</ele><time>2026-04-12T11:09:18Z</time></trkpt><trkpt lat="37.99558956731334" lon="15.411984322992259"><ele>21.0</ele><time>2026-04-12T11:09:19Z</time></trkpt><trkpt lat="37.99575577455591" lon="15.411928734352939"><ele>21.0</ele><time>2026-04-12T11:09:20Z</time></trkpt><trkpt lat="37.99590805295605" lon="15.411937227987677"><ele>21.0</ele><time>2026-04-12T11:09:21Z</time></trkpt><trkpt lat="37.99608131457312" lon="15.412006671031708"><ele>21.0</ele><time>2026-04-12T11:09:22Z</time></trkpt><trkpt lat="37.99627359223441" lon="15.412122470873992"><ele>21.0</ele><time>2026-04-12T11:09:23Z</time></trkpt><trkpt lat="37.99643001923782" lon="15.412231039619178"><ele>21.0</ele><time>2026-04-12T11:09:24Z</time></trkpt><trkpt lat="37.996562230402084" lon="15.412303333606204"><ele>21.0</ele><time>2026-04-12T11:09:25Z</time></trkpt><trkpt lat="37.996700818218805" lon="15.412370180197662"><ele>21.0</ele><time>2026-04-12T11:09:26Z</time></trkpt><trkpt lat="37.99684589472248" lon="15.412443507994011"><ele>21.0</ele><time>2026-04-12T11:09:27Z</time></trkpt><trkpt lat="37.99700361979396" lon="15.412521345523357"><ele>21.0</ele><time>2026-04-12T11:09:28Z</time></trkpt><trkpt lat="37.99718148215077" lon="15.412656729486152"><ele>21.0</ele><time>2026-04-12T11:09:29Z</time></trkpt><trkpt lat="37.99736643447565" lon="15.412862017887964"><ele>20.5</ele><time>2026-04-12T11:09:30Z</time></trkpt><trkpt lat="37.99758526219103" lon="15.413079386458898"><ele>20.0</ele><time>2026-04-12T11:09:31Z</time></trkpt><trkpt lat="37.99783866143689" lon="15.413315264495042"><ele>20.0</ele><time>2026-04-12T11:09:32Z</time></trkpt><trkpt lat="37.998086285032315" lon="15.413537610057094"><ele>20.0</ele><time>2026-04-12T11:09:33Z</time></trkpt><trkpt lat="37.99830971611123" lon="15.413736380645934"><ele>20.0</ele><time>2026-04-12T11:09:34Z</time></trkpt><trkpt lat="37.998522840412484" lon="15.41392291734188"><ele>20.0</ele><time>2026-04-12T11:09:35Z</time></trkpt><trkpt lat="37.99872823715456" lon="15.414097397313151"><ele>20.0</ele><time>2026-04-12T11:09:36Z</time></trkpt><trkpt lat="37.99892577918724" lon="15.414276203816602"><ele>20.0</ele><time>2026-04-12T11:09:37Z</time></trkpt><trkpt lat="37.999097539955166" lon="15.414470543877991"><ele>20.666666666666668</ele><time>2026-04-12T11:09:38Z</time></trkpt><trkpt lat="37.999246593419926" lon="15.414671664011667"><ele>21.333333333333332</ele><time>2026-04-12T11:09:39Z</time></trkpt><trkpt lat="37.99938293084561" lon="15.414852314144577"><ele>22.0</ele><time>2026-04-12T11:09:40Z</time></trkpt><trkpt lat="37.99949724914942" lon="15.415014887235467"><ele>22.0</ele><time>2026-04-12T11:09:41Z</time></trkpt><trkpt lat="37.9995785834312" lon="15.415188025128456"><ele>22.0</ele><time>2026-04-12T11:09:42Z</time></trkpt><trkpt lat="37.99960729438276" lon="15.41538951979046"><ele>22.0</ele><time>2026-04-12T11:09:43Z</time></trkpt><trkpt lat="37.999583059864555" lon="15.415612995966537"><ele>21.333333333333332</ele><time>2026-04-12T11:09:44Z</time></trkpt><trkpt lat="37.99953847369957" lon="15.415847361956713"><ele>20.666666666666668</ele><time>2026-04-12T11:09:45Z</time></trkpt><trkpt lat="37.999485459909565" lon="15.416091631230032"><ele>20.0</ele><time>2026-04-12T11:09:46Z</time></trkpt><trkpt lat="37.99939289976784" lon="15.416338993459256"><ele>20.0</ele><time>2026-04-12T11:09:47Z</time></trkpt><trkpt lat="37.99928423092902" lon="15.416586122677574"><ele>20.0</ele><time>2026-04-12T11:09:48Z</time></trkpt><trkpt lat="37.9992017067041" lon="15.416830105004982"><ele>20.0</ele><time>2026-04-12T11:09:49Z</time></trkpt><trkpt lat="37.999129180748845" lon="15.417046877947243"><ele>18.25</ele><time>2026-04-12T11:09:50Z</time></trkpt><trkpt lat="37.99906371999278" lon="15.417238480631132"><ele>16.5</ele><time>2026-04-12T11:09:51Z</time></trkpt><trkpt lat="37.99901085999182" lon="15.41740621554742"><ele>14.75</ele><time>2026-04-12T11:09:52Z</time></trkpt><trkpt lat="37.99896974547217" lon="15.417559309572848"><ele>13.0</ele><time>2026-04-12T11:09:53Z</time></trkpt><trkpt lat="37.99893953631428" lon="15.417684250209058"><ele>13.0</ele><time>2026-04-12T11:09:54Z</time></trkpt><trkpt lat="37.998979623000984" lon="15.417839042034785"><ele>13.0</ele><time>2026-04-12T11:09:55Z</time></trkpt><trkpt lat="37.99906757524949" lon="15.417930284397464"><ele>13.0</ele><time>2026-04-12T11:09:56Z</time></trkpt><trkpt lat="37.999182973913825" lon="15.41803967115866"><ele>13.0</ele><time>2026-04-12T11:09:57Z</time></trkpt><trkpt lat="37.99929614212638" lon="15.418195928007606"><ele>13.333333333333332</ele><time>2026-04-12T11:09:58Z</time></trkpt><trkpt lat="37.99943622861099" lon="15.418343495235943"><ele>13.666666666666668</ele><time>2026-04-12T11:09:59Z</time></trkpt><trkpt lat="37.99957349870507" lon="15.41850295063285"><ele>14.0</ele><time>2026-04-12T11:10:00Z</time></trkpt><trkpt lat="37.999728866717085" lon="15.418665180282108"><ele>14.333333333333334</ele><time>2026-04-12T11:10:01Z</time></trkpt><trkpt lat="37.99987783208123" lon="15.418823693144978"><ele>14.666666666666668</ele><time>2026-04-12T11:10:02Z</time></trkpt><trkpt lat="37.99999682783243" lon="15.418986494742283"><ele>15.0</ele><time>2026-04-12T11:10:03Z</time></trkpt><trkpt lat="38.000123925453885" lon="15.419125357543793"><ele>15.0</ele><time>2026-04-12T11:10:04Z</time></trkpt><trkpt lat="38.000247817793046" lon="15.419269942691626"><ele>15.0</ele><time>2026-04-12T11:10:05Z</time></trkpt><trkpt lat="38.000372917190454" lon="15.419425964086859"><ele>15.0</ele><time>2026-04-12T11:10:06Z</time></trkpt><trkpt lat="38.00053699496145" lon="15.41956059603989"><ele>15.5</ele><time>2026-04-12T11:10:07Z</time></trkpt><trkpt lat="38.000702224233706" lon="15.419724803525066"><ele>16.0</ele><time>2026-04-12T11:10:08Z</time></trkpt><trkpt lat="38.000900724698724" lon="15.419915903565395"><ele>16.0</ele><time>2026-04-12T11:10:09Z</time></trkpt><trkpt lat="38.001124044780646" lon="15.420157555944042"><ele>16.0</ele><time>2026-04-12T11:10:10Z</time></trkpt><trkpt lat="38.00136344887308" lon="15.420399804657688"><ele>16.0</ele><time>2026-04-12T11:10:11Z</time></trkpt><trkpt lat="38.00156428290738" lon="15.420605528953766"><ele>16.0</ele><time>2026-04-12T11:10:12Z</time></trkpt><trkpt lat="38.001740648884734" lon="15.420778535352511"><ele>16.0</ele><time>2026-04-12T11:10:13Z</time></trkpt><trkpt lat="38.00189329878385" lon="15.420922643916294"><ele>16.0</ele><time>2026-04-12T11:10:14Z</time></trkpt><trkpt lat="38.00201331350828" lon="15.421068187496555"><ele>16.0</ele><time>2026-04-12T11:10:15Z</time></trkpt><trkpt lat="38.00211035579336" lon="15.421181928960078"><ele>16.0</ele><time>2026-04-12T11:10:16Z</time></trkpt><trkpt lat="38.00220608909491" lon="15.421258415672128"><ele>16.0</ele><time>2026-04-12T11:10:17Z</time></trkpt><trkpt lat="38.00229880171563" lon="15.4213294717789"><ele>16.0</ele><time>2026-04-12T11:10:18Z</time></trkpt><trkpt lat="38.00238892987626" lon="15.421384047557686"><ele>16.0</ele><time>2026-04-12T11:10:19Z</time></trkpt><trkpt lat="38.00246307996548" lon="15.421444296362738"><ele>16.0</ele><time>2026-04-12T11:10:20Z</time></trkpt><trkpt lat="38.00254567127322" lon="15.421512203200445"><ele>15.8</ele><time>2026-04-12T11:10:21Z</time></trkpt><trkpt lat="38.0026208101338" lon="15.421583989325262"><ele>15.600000000000001</ele><time>2026-04-12T11:10:22Z</time></trkpt><trkpt lat="38.00270171135257" lon="15.421637632197363"><ele>15.4</ele><time>2026-04-12T11:10:23Z</time></trkpt><trkpt lat="38.00278923334598" lon="15.421711705009692"><ele>15.2</ele><time>2026-04-12T11:10:24Z</time></trkpt><trkpt lat="38.002888004637875" lon="15.421791657804116"><ele>15.0</ele><time>2026-04-12T11:10:25Z</time></trkpt><trkpt lat="38.002996827476295" lon="15.421867777430545"><ele>15.0</ele><time>2026-04-12T11:10:26Z</time></trkpt><trkpt lat="38.00309657260649" lon="15.42194967478861"><ele>15.0</ele><time>2026-04-12T11:10:27Z</time></trkpt><trkpt lat="38.00319002123615" lon="15.422011668847354"><ele>15.0</ele><time>2026-04-12T11:10:28Z</time></trkpt><trkpt lat="38.00326746263914" lon="15.422080569662073"><ele>15.0</ele><time>2026-04-12T11:10:29Z</time></trkpt><trkpt lat="38.00334147109745" lon="15.42214873964989"><ele>15.0</ele><time>2026-04-12T11:10:30Z</time></trkpt><trkpt lat="38.003422052682154" lon="15.422219041450754"><ele>15.0</ele><time>2026-04-12T11:10:31Z</time></trkpt><trkpt lat="38.00350095039214" lon="15.422296255331554"><ele>15.0</ele><time>2026-04-12T11:10:32Z</time></trkpt><trkpt lat="38.00357357474022" lon="15.422388290801155"><ele>15.0</ele><time>2026-04-12T11:10:33Z</time></trkpt><trkpt lat="38.00365971916294" lon="15.422478704163888"><ele>15.0</ele><time>2026-04-12T11:10:34Z</time></trkpt><trkpt lat="38.00375120434109" lon="15.422571362505426"><ele>15.0</ele><time>2026-04-12T11:10:35Z</time></trkpt><trkpt lat="38.00384385746286" lon="15.422671643252299"><ele>15.0</ele><time>2026-04-12T11:10:36Z</time></trkpt><trkpt lat="38.0039321101964" lon="15.422768379656313"><ele>15.0</ele><time>2026-04-12T11:10:37Z</time></trkpt><trkpt lat="38.00400649131515" lon="15.4228626302456"><ele>15.0</ele><time>2026-04-12T11:10:38Z</time></trkpt><trkpt lat="38.00408214521938" lon="15.422953395295135"><ele>15.0</ele><time>2026-04-12T11:10:39Z</time></trkpt><trkpt lat="38.00417365203827" lon="15.423043559076842"><ele>15.0</ele><time>2026-04-12T11:10:40Z</time></trkpt><trkpt lat="38.004262493605644" lon="15.423142037870106"><ele>14.8</ele><time>2026-04-12T11:10:41Z</time></trkpt><trkpt lat="38.00435203695826" lon="15.42322705654322"><ele>14.6</ele><time>2026-04-12T11:10:42Z</time></trkpt><trkpt lat="38.00443256427735" lon="15.423323692284038"><ele>14.399999999999999</ele><time>2026-04-12T11:10:43Z</time></trkpt><trkpt lat="38.00451224258935" lon="15.42341513363966"><ele>14.2</ele><time>2026-04-12T11:10:44Z</time></trkpt><trkpt lat="38.00457939105853" lon="15.423501910946527"><ele>14.0</ele><time>2026-04-12T11:10:45Z</time></trkpt><trkpt lat="38.004641257851375" lon="15.423579257989022"><ele>14.0</ele><time>2026-04-12T11:10:46Z</time></trkpt><trkpt lat="38.004705891722246" lon="15.42363865500389"><ele>13.999999999999998</ele><time>2026-04-12T11:10:47Z</time></trkpt><trkpt lat="38.0047597640138" lon="15.423680308041813"><ele>13.999999999999998</ele><time>2026-04-12T11:10:48Z</time></trkpt><trkpt lat="38.004820396149505" lon="15.423732122923097"><ele>14.0</ele><time>2026-04-12T11:10:50Z</time></trkpt><trkpt lat="38.004922521786895" lon="15.42358394716543"><ele>14.0</ele><time>2026-04-12T11:10:51Z</time></trkpt><trkpt lat="38.00496612230432" lon="15.423485541723947"><ele>14.799999999999999</ele><time>2026-04-12T11:10:52Z</time></trkpt><trkpt lat="38.00504511844882" lon="15.423391263697384"><ele>15.599999999999998</ele><time>2026-04-12T11:10:53Z</time></trkpt><trkpt lat="38.00512752682967" lon="15.423277712656441"><ele>16.4</ele><time>2026-04-12T11:10:54Z</time></trkpt><trkpt lat="38.005183285727995" lon="15.423179963544433"><ele>17.2</ele><time>2026-04-12T11:10:55Z</time></trkpt><trkpt lat="38.00524205329893" lon="15.42313406229219"><ele>18.0</ele><time>2026-04-12T11:10:56Z</time></trkpt><trkpt lat="38.0053169472987" lon="15.423022088338463"><ele>18.166666666666668</ele><time>2026-04-12T11:10:58Z</time></trkpt><trkpt lat="38.00536888191803" lon="15.422953052705125"><ele>18.333333333333332</ele><time>2026-04-12T11:10:59Z</time></trkpt><trkpt lat="38.0054477687699" lon="15.42288482168903"><ele>18.5</ele><time>2026-04-12T11:11:00Z</time></trkpt><trkpt lat="38.00550264524443" lon="15.422792140887617"><ele>18.666666666666664</ele><time>2026-04-12T11:11:01Z</time></trkpt><trkpt lat="38.00558629293956" lon="15.42273567683362"><ele>18.833333333333332</ele><time>2026-04-12T11:11:02Z</time></trkpt><trkpt lat="38.00564330907108" lon="15.422676259046758"><ele>19.0</ele><time>2026-04-12T11:11:03Z</time></trkpt><trkpt lat="38.005719449157255" lon="15.422680906813266"><ele>19.0</ele><time>2026-04-12T11:11:05Z</time></trkpt><trkpt lat="38.00578806044978" lon="15.422714053849308"><ele>19.0</ele><time>2026-04-12T11:11:08Z</time></trkpt><trkpt lat="38.00586573404845" lon="15.422828021435654"><ele>19.0</ele><time>2026-04-12T11:11:10Z</time></trkpt><trkpt lat="38.00590091703372" lon="15.42292510914886"><ele>19.0</ele><time>2026-04-12T11:11:11Z</time></trkpt><trkpt lat="38.005984334562285" lon="15.422983565509778"><ele>19.0</ele><time>2026-04-12T11:11:12Z</time></trkpt><trkpt lat="38.0060233366238" lon="15.423059040648885"><ele>19.0</ele><time>2026-04-12T11:11:13Z</time></trkpt><trkpt lat="38.006032536623934" lon="15.423194989806584"><ele>20.5</ele><time>2026-04-12T11:11:15Z</time></trkpt><trkpt lat="38.00600025528955" lon="15.423271829823138"><ele>22.0</ele><time>2026-04-12T11:11:16Z</time></trkpt><trkpt lat="38.005958683593484" lon="15.423392068165597"><ele>23.5</ele><time>2026-04-12T11:11:17Z</time></trkpt><trkpt lat="38.00592859737136" lon="15.423530494140222"><ele>25.0</ele><time>2026-04-12T11:11:18Z</time></trkpt><trkpt lat="38.005935936911825" lon="15.423633813207548"><ele>26.500000000000004</ele><time>2026-04-12T11:11:19Z</time></trkpt><trkpt lat="38.00594991646141" lon="15.42372591218998"><ele>28.0</ele><time>2026-04-12T11:11:20Z</time></trkpt><trkpt lat="38.00599780233003" lon="15.423795905378407"><ele>26.833333333333336</ele><time>2026-04-12T11:11:21Z</time></trkpt><trkpt lat="38.00603219510388" lon="15.423863675735708"><ele>25.666666666666668</ele><time>2026-04-12T11:11:22Z</time></trkpt><trkpt lat="38.00608375268831" lon="15.423923431068923"><ele>24.5</ele><time>2026-04-12T11:11:23Z</time></trkpt><trkpt lat="38.00617085156696" lon="15.423987696028709"><ele>23.333333333333336</ele><time>2026-04-12T11:11:25Z</time></trkpt><trkpt lat="38.006114608202076" lon="15.423923034948947"><ele>22.166666666666668</ele><time>2026-04-12T11:12:51Z</time></trkpt><trkpt lat="38.00620368444849" lon="15.423922388999799"><ele>21.0</ele><time>2026-04-12T11:12:55Z</time></trkpt><trkpt lat="38.00621769394554" lon="15.423841523020922"><ele>21.0</ele><time>2026-04-12T11:13:12Z</time></trkpt><trkpt lat="38.00615872725673" lon="15.423870943501056"><ele>21.0</ele><time>2026-04-12T11:13:20Z</time></trkpt><trkpt lat="38.006449561105484" lon="15.424102461739176"><ele>21.0</ele><time>2026-04-12T11:15:43Z</time></trkpt><trkpt lat="38.00621952667015" lon="15.4239456809045"><ele>21.0</ele><time>2026-04-12T11:15:44Z</time></trkpt><trkpt lat="38.00610363084299" lon="15.423931761468076"><ele>21.0</ele><time>2026-04-12T11:16:02Z</time></trkpt><trkpt lat="38.005930952506986" lon="15.423877043238722"><ele>21.0</ele><time>2026-04-12T11:16:03Z</time></trkpt><trkpt lat="38.0060918968095" lon="15.423854336463627"><ele>21.0</ele><time>2026-04-12T11:16:09Z</time></trkpt><trkpt lat="38.00615971738502" lon="15.424010689448213"><ele>21.0</ele><time>2026-04-12T11:17:18Z</time></trkpt><trkpt lat="38.00622962832111" lon="15.42400813990676"><ele>21.0</ele><time>2026-04-12T11:17:28Z</time></trkpt><trkpt lat="38.006287797292515" lon="15.42393693738278"><ele>21.0</ele><time>2026-04-12T11:18:04Z</time></trkpt><trkpt lat="38.00634868108078" lon="15.423913090502865"><ele>21.0</ele><time>2026-04-12T11:18:21Z</time></trkpt><trkpt lat="38.00628098671531" lon="15.423866433119265"><ele>21.0</ele><time>2026-04-12T11:18:32Z</time></trkpt><trkpt lat="38.00618189793457" lon="15.4239060816744"><ele>21.0</ele><time>2026-04-12T11:18:34Z</time></trkpt><trkpt lat="38.00606849738625" lon="15.423904470038178"><ele>21.0</ele><time>2026-04-12T11:18:36Z</time></trkpt><trkpt lat="38.00597804496048" lon="15.423825716294038"><ele>21.0</ele><time>2026-04-12T11:18:38Z</time></trkpt><trkpt lat="38.00591091422189" lon="15.423690949619719"><ele>21.0</ele><time>2026-04-12T11:18:40Z</time></trkpt><trkpt lat="38.00591958356592" lon="15.423594011266509"><ele>21.0</ele><time>2026-04-12T11:18:41Z</time></trkpt><trkpt lat="38.00594562350479" lon="15.423488255545571"><ele>22.166666666666668</ele><time>2026-04-12T11:18:42Z</time></trkpt><trkpt lat="38.00600144636863" lon="15.42338149332377"><ele>23.333333333333336</ele><time>2026-04-12T11:18:43Z</time></trkpt><trkpt lat="38.00603710032289" lon="15.423277004365696"><ele>24.5</ele><time>2026-04-12T11:18:44Z</time></trkpt><trkpt lat="38.00606191180654" lon="15.42319154274306"><ele>25.666666666666668</ele><time>2026-04-12T11:18:45Z</time></trkpt><trkpt lat="38.00609366889638" lon="15.423097200465698"><ele>26.833333333333336</ele><time>2026-04-12T11:18:46Z</time></trkpt><trkpt lat="38.00608026263061" lon="15.423000716115288"><ele>28.0</ele><time>2026-04-12T11:18:47Z</time></trkpt><trkpt lat="38.006033908549405" lon="15.422927734188699"><ele>28.333333333333336</ele><time>2026-04-12T11:18:48Z</time></trkpt><trkpt lat="38.005954710721454" lon="15.42290579579285"><ele>28.666666666666668</ele><time>2026-04-12T11:18:49Z</time></trkpt><trkpt lat="38.005908347179236" lon="15.422841770228287"><ele>29.0</ele><time>2026-04-12T11:18:50Z</time></trkpt><trkpt lat="38.00588729871662" lon="15.422736907512247"><ele>29.333333333333336</ele><time>2026-04-12T11:18:51Z</time></trkpt><trkpt lat="38.005844739057686" lon="15.422663331394634"><ele>29.666666666666668</ele><time>2026-04-12T11:18:52Z</time></trkpt><trkpt lat="38.005775634301585" lon="15.422601097349581"><ele>30.0</ele><time>2026-04-12T11:18:54Z</time></trkpt><trkpt lat="38.00569859424008" lon="15.422621103002125"><ele>27.8</ele><time>2026-04-12T11:18:57Z</time></trkpt><trkpt lat="38.00560949797143" lon="15.422671950181792"><ele>25.6</ele><time>2026-04-12T11:18:59Z</time></trkpt><trkpt lat="38.00550662562039" lon="15.422754300959959"><ele>23.4</ele><time>2026-04-12T11:19:01Z</time></trkpt><trkpt lat="38.00543852598428" lon="15.422837586099567"><ele>21.2</ele><time>2026-04-12T11:19:02Z</time></trkpt><trkpt lat="38.00537732466744" lon="15.422911966402232"><ele>19.0</ele><time>2026-04-12T11:19:03Z</time></trkpt><trkpt lat="38.00532202405167" lon="15.422980621302397"><ele>18.833333333333332</ele><time>2026-04-12T11:19:04Z</time></trkpt><trkpt lat="38.00527350422136" lon="15.42303981681483"><ele>18.666666666666664</ele><time>2026-04-12T11:19:05Z</time></trkpt><trkpt lat="38.00521428424319" lon="15.423107787158159"><ele>18.5</ele><time>2026-04-12T11:19:07Z</time></trkpt><trkpt lat="38.00514857065111" lon="15.423185000708758"><ele>18.333333333333332</ele><time>2026-04-12T11:19:09Z</time></trkpt><trkpt lat="38.00507769429701" lon="15.423308374689114"><ele>18.166666666666668</ele><time>2026-04-12T11:19:11Z</time></trkpt><trkpt lat="38.00502430667379" lon="15.423357504001432"><ele>18.0</ele><time>2026-04-12T11:19:12Z</time></trkpt><trkpt lat="38.004950070407226" lon="15.423465608909666"><ele>17.2</ele><time>2026-04-12T11:19:14Z</time></trkpt><trkpt lat="38.004883513165375" lon="15.423588035351086"><ele>16.4</ele><time>2026-04-12T11:19:16Z</time></trkpt><trkpt lat="38.0048360571699" lon="15.42365684958338"><ele>15.599999999999998</ele><time>2026-04-12T11:19:21Z</time></trkpt><trkpt lat="38.00475598931965" lon="15.423687247547873"><ele>14.799999999999999</ele><time>2026-04-12T11:19:25Z</time></trkpt><trkpt lat="38.00473873332621" lon="15.423598546773004"><ele>14.0</ele><time>2026-04-12T11:19:26Z</time></trkpt><trkpt lat="38.00465340163583" lon="15.423502873547482"><ele>14.000000000000002</ele><time>2026-04-12T11:19:28Z</time></trkpt><trkpt lat="38.00460325779839" lon="15.42344753921176"><ele>14.0</ele><time>2026-04-12T11:19:29Z</time></trkpt><trkpt lat="38.004543660287034" lon="15.4233819549954"><ele>14.0</ele><time>2026-04-12T11:19:30Z</time></trkpt><trkpt lat="38.00447549276579" lon="15.423306939914669"><ele>14.0</ele><time>2026-04-12T11:19:31Z</time></trkpt><trkpt lat="38.00440575248694" lon="15.423230194060608"><ele>14.000000000000002</ele><time>2026-04-12T11:19:32Z</time></trkpt><trkpt lat="38.004330610340354" lon="15.423147542688652"><ele>14.0</ele><time>2026-04-12T11:19:33Z</time></trkpt><trkpt lat="38.004257660034526" lon="15.423067761554238"><ele>14.0</ele><time>2026-04-12T11:19:34Z</time></trkpt><trkpt lat="38.004180646744636" lon="15.42298353700368"><ele>13.999999999999998</ele><time>2026-04-12T11:19:35Z</time></trkpt><trkpt lat="38.00410356160347" lon="15.422899233889721"><ele>13.999999999999998</ele><time>2026-04-12T11:19:36Z</time></trkpt><trkpt lat="38.00402421302535" lon="15.422812455368856"><ele>14.0</ele><time>2026-04-12T11:19:37Z</time></trkpt><trkpt lat="38.00395036342545" lon="15.422731690751037"><ele>14.0</ele><time>2026-04-12T11:19:38Z</time></trkpt><trkpt lat="38.00388453956542" lon="15.422658078760461"><ele>14.166666666666668</ele><time>2026-04-12T11:19:39Z</time></trkpt><trkpt lat="38.00381979185893" lon="15.422582902883308"><ele>14.333333333333334</ele><time>2026-04-12T11:19:40Z</time></trkpt><trkpt lat="38.003758084809455" lon="15.422508484640765"><ele>14.5</ele><time>2026-04-12T11:19:41Z</time></trkpt><trkpt lat="38.00370001052475" lon="15.422438447731187"><ele>14.666666666666668</ele><time>2026-04-12T11:19:42Z</time></trkpt><trkpt lat="38.00364063580857" lon="15.422372884647174"><ele>14.833333333333334</ele><time>2026-04-12T11:19:43Z</time></trkpt><trkpt lat="38.00358364937982" lon="15.42231017336999"><ele>15.0</ele><time>2026-04-12T11:19:44Z</time></trkpt><trkpt lat="38.00353359916437" lon="15.422256318673012"><ele>15.0</ele><time>2026-04-12T11:19:45Z</time></trkpt><trkpt lat="38.00344232840617" lon="15.422162798419373"><ele>15.0</ele><time>2026-04-12T11:19:47Z</time></trkpt><trkpt lat="38.00334769493002" lon="15.422084580786827"><ele>15.0</ele><time>2026-04-12T11:19:49Z</time></trkpt><trkpt lat="38.00325333588218" lon="15.421979925183829"><ele>15.0</ele><time>2026-04-12T11:19:51Z</time></trkpt><trkpt lat="38.00317776808778" lon="15.421879984451778"><ele>15.0</ele><time>2026-04-12T11:19:53Z</time></trkpt><trkpt lat="38.00322352073721" lon="15.421954051618751"><ele>15.0</ele><time>2026-04-12T11:20:22Z</time></trkpt></trkseg></trk></gpx>